<?xml version='1.0' encoding='UTF-8'?><gpx version="1.1" creator="JPX - https://github.com/jenetics/jpx" xmlns="http://www.topografix.com/GPX/1/1"><trk><trkseg><trkpt lat="42.7641291" lon="10.3611034"><ele>33.0</ele><time>2026-04-19T07:10:00.972Z</time></trkpt><trkpt lat="42.7640693" lon="10.3610532"><ele>33.0</ele><time>2026-04-19T07:10:02.981Z</time></trkpt><trkpt lat="42.7640759" lon="10.361157"><ele>33.0</ele><time>2026-04-19T07:10:24.733Z</time></trkpt><trkpt lat="42.7639133" lon="10.3612512"><ele>33.0</ele><time>2026-04-19T07:13:58.299Z</time></trkpt><trkpt lat="42.7638458" lon="10.3612224"><ele>33.0</ele><time>2026-04-19T07:14:00.3Z</time></trkpt><trkpt lat="42.7637802" lon="10.3612831"><ele>33.0</ele><time>2026-04-19T07:14:03.309Z</time></trkpt><trkpt lat="42.7637173" lon="10.3612592"><ele>33.0</ele><time>2026-04-19T07:14:08.31Z</time></trkpt><trkpt lat="42.7636524" lon="10.3612059"><ele>33.0</ele><time>2026-04-19T07:14:10.295Z</time></trkpt><trkpt lat="42.7635899" lon="10.3611517"><ele>33.0</ele><time>2026-04-19T07:14:12.296Z</time></trkpt><trkpt lat="42.7635267" lon="10.3611041"><ele>33.0</ele><time>2026-04-19T07:14:14.301Z</time></trkpt><trkpt lat="42.7633598" lon="10.3610496"><ele>30.0</ele><time>2026-04-19T07:14:17.3Z</time></trkpt><trkpt lat="42.7632986" lon="10.3610285"><ele>26.999999999999996</ele><time>2026-04-19T07:14:18.307Z</time></trkpt><trkpt lat="42.7632107" lon="10.3609659"><ele>24.0</ele><time>2026-04-19T07:14:20.302Z</time></trkpt><trkpt lat="42.7631501" lon="10.3608455"><ele>21.0</ele><time>2026-04-19T07:14:22.305Z</time></trkpt><trkpt lat="42.7631109" lon="10.3607006"><ele>18.0</ele><time>2026-04-19T07:14:24.304Z</time></trkpt><trkpt lat="42.763141" lon="10.360559"><ele>17.333333333333332</ele><time>2026-04-19T07:14:26.301Z</time></trkpt><trkpt lat="42.7632119" lon="10.3604311"><ele>16.666666666666668</ele><time>2026-04-19T07:14:28.304Z</time></trkpt><trkpt lat="42.7632546" lon="10.3603662"><ele>16.0</ele><time>2026-04-19T07:14:29.295Z</time></trkpt><trkpt lat="42.7633278" lon="10.3602683"><ele>15.333333333333334</ele><time>2026-04-19T07:14:31.294Z</time></trkpt><trkpt lat="42.7633771" lon="10.3601939"><ele>14.666666666666668</ele><time>2026-04-19T07:14:33.299Z</time></trkpt><trkpt lat="42.7634385" lon="10.3601067"><ele>14.0</ele><time>2026-04-19T07:14:36.3Z</time></trkpt><trkpt lat="42.7634125" lon="10.3599447"><ele>14.000000000000002</ele><time>2026-04-19T07:14:46.308Z</time></trkpt><trkpt lat="42.7633801" lon="10.3598578"><ele>14.0</ele><time>2026-04-19T07:14:48.301Z</time></trkpt><trkpt lat="42.7633051" lon="10.3597298"><ele>14.0</ele><time>2026-04-19T07:14:50.301Z</time></trkpt><trkpt lat="42.7632584" lon="10.3596599"><ele>14.0</ele><time>2026-04-19T07:14:51.302Z</time></trkpt><trkpt lat="42.7632043" lon="10.3595886"><ele>14.000000000000002</ele><time>2026-04-19T07:14:52.294Z</time></trkpt><trkpt lat="42.7631365" lon="10.3595109"><ele>14.0</ele><time>2026-04-19T07:14:53.302Z</time></trkpt><trkpt lat="42.7630761" lon="10.3594246"><ele>13.5</ele><time>2026-04-19T07:14:54.299Z</time></trkpt><trkpt lat="42.7630194" lon="10.3593409"><ele>13.0</ele><time>2026-04-19T07:14:55.302Z</time></trkpt><trkpt lat="42.7629723" lon="10.3592729"><ele>12.5</ele><time>2026-04-19T07:14:56.301Z</time></trkpt><trkpt lat="42.7629049" lon="10.3591761"><ele>12.0</ele><time>2026-04-19T07:14:58.305Z</time></trkpt><trkpt lat="42.7627294" lon="10.358949"><ele>12.0</ele><time>2026-04-19T07:16:33.325Z</time></trkpt><trkpt lat="42.7627035" lon="10.3588589"><ele>12.0</ele><time>2026-04-19T07:16:34.329Z</time></trkpt><trkpt lat="42.7626887" lon="10.3587448"><ele>12.0</ele><time>2026-04-19T07:16:35.324Z</time></trkpt><trkpt lat="42.7626842" lon="10.3586125"><ele>12.0</ele><time>2026-04-19T07:16:36.325Z</time></trkpt><trkpt lat="42.7626781" lon="10.3584638"><ele>12.0</ele><time>2026-04-19T07:16:37.325Z</time></trkpt><trkpt lat="42.762668" lon="10.358298"><ele>12.0</ele><time>2026-04-19T07:16:38.325Z</time></trkpt><trkpt lat="42.7626614" lon="10.3581223"><ele>12.0</ele><time>2026-04-19T07:16:39.324Z</time></trkpt><trkpt lat="42.7626552" lon="10.3579381"><ele>12.0</ele><time>2026-04-19T07:16:40.32Z</time></trkpt><trkpt lat="42.762647" lon="10.3577634"><ele>12.0</ele><time>2026-04-19T07:16:41.313Z</time></trkpt><trkpt lat="42.7626381" lon="10.3576105"><ele>11.666666666666666</ele><time>2026-04-19T07:16:42.322Z</time></trkpt><trkpt lat="42.7626274" lon="10.3574858"><ele>11.333333333333334</ele><time>2026-04-19T07:16:43.318Z</time></trkpt><trkpt lat="42.7626253" lon="10.3573872"><ele>11.0</ele><time>2026-04-19T07:16:44.318Z</time></trkpt><trkpt lat="42.7626397" lon="10.3572376"><ele>10.666666666666668</ele><time>2026-04-19T07:16:46.328Z</time></trkpt><trkpt lat="42.7626822" lon="10.3571693"><ele>10.333333333333334</ele><time>2026-04-19T07:16:47.32Z</time></trkpt><trkpt lat="42.7627455" lon="10.3571093"><ele>10.0</ele><time>2026-04-19T07:16:48.321Z</time></trkpt><trkpt lat="42.7628104" lon="10.3570658"><ele>9.4</ele><time>2026-04-19T07:16:49.322Z</time></trkpt><trkpt lat="42.7629071" lon="10.3570016"><ele>8.8</ele><time>2026-04-19T07:16:51.325Z</time></trkpt><trkpt lat="42.7630174" lon="10.3568644"><ele>8.2</ele><time>2026-04-19T07:16:55.328Z</time></trkpt><trkpt lat="42.76304" lon="10.356747"><ele>7.6</ele><time>2026-04-19T07:16:57.322Z</time></trkpt><trkpt lat="42.7630405" lon="10.3566283"><ele>7.0</ele><time>2026-04-19T07:16:59.321Z</time></trkpt><trkpt lat="42.7630118" lon="10.3565199"><ele>7.000000000000001</ele><time>2026-04-19T07:17:01.322Z</time></trkpt><trkpt lat="42.7629322" lon="10.3564052"><ele>7.0</ele><time>2026-04-19T07:17:03.323Z</time></trkpt><trkpt lat="42.7628846" lon="10.3563421"><ele>7.0</ele><time>2026-04-19T07:17:04.326Z</time></trkpt><trkpt lat="42.7628347" lon="10.3562752"><ele>7.0</ele><time>2026-04-19T07:17:05.327Z</time></trkpt><trkpt lat="42.7627791" lon="10.3562024"><ele>7.000000000000001</ele><time>2026-04-19T07:17:06.329Z</time></trkpt><trkpt lat="42.7627197" lon="10.3561231"><ele>7.0</ele><time>2026-04-19T07:17:07.326Z</time></trkpt><trkpt lat="42.7626583" lon="10.356042"><ele>6.3999999999999995</ele><time>2026-04-19T07:17:08.326Z</time></trkpt><trkpt lat="42.7625962" lon="10.3559545"><ele>5.799999999999999</ele><time>2026-04-19T07:17:09.327Z</time></trkpt><trkpt lat="42.7625444" lon="10.3558724"><ele>5.2</ele><time>2026-04-19T07:17:10.32Z</time></trkpt><trkpt lat="42.7625057" lon="10.35579"><ele>4.6</ele><time>2026-04-19T07:17:11.312Z</time></trkpt><trkpt lat="42.7624843" lon="10.3556986"><ele>4.0</ele><time>2026-04-19T07:17:12.318Z</time></trkpt><trkpt lat="42.7624585" lon="10.3554915"><ele>5.0</ele><time>2026-04-19T07:17:14.322Z</time></trkpt><trkpt lat="42.7624574" lon="10.3553846"><ele>6.0</ele><time>2026-04-19T07:17:15.323Z</time></trkpt><trkpt lat="42.7624697" lon="10.3552832"><ele>7.0</ele><time>2026-04-19T07:17:16.322Z</time></trkpt><trkpt lat="42.7624962" lon="10.3551806"><ele>8.0</ele><time>2026-04-19T07:17:17.318Z</time></trkpt><trkpt lat="42.7625362" lon="10.3550839"><ele>9.0</ele><time>2026-04-19T07:17:18.322Z</time></trkpt><trkpt lat="42.7625781" lon="10.3549897"><ele>10.0</ele><time>2026-04-19T07:17:19.323Z</time></trkpt><trkpt lat="42.7626149" lon="10.3548918"><ele>10.0</ele><time>2026-04-19T07:17:20.324Z</time></trkpt><trkpt lat="42.7626265" lon="10.3547946"><ele>10.0</ele><time>2026-04-19T07:17:21.322Z</time></trkpt><trkpt lat="42.7626004" lon="10.3547095"><ele>10.0</ele><time>2026-04-19T07:17:22.323Z</time></trkpt><trkpt lat="42.7625481" lon="10.3546377"><ele>10.0</ele><time>2026-04-19T07:17:23.323Z</time></trkpt><trkpt lat="42.7624817" lon="10.3545559"><ele>10.0</ele><time>2026-04-19T07:17:24.325Z</time></trkpt><trkpt lat="42.7624078" lon="10.3544684"><ele>10.0</ele><time>2026-04-19T07:17:25.323Z</time></trkpt><trkpt lat="42.7623378" lon="10.3543928"><ele>11.5</ele><time>2026-04-19T07:17:26.319Z</time></trkpt><trkpt lat="42.7622731" lon="10.3543229"><ele>13.0</ele><time>2026-04-19T07:17:27.323Z</time></trkpt><trkpt lat="42.7622384" lon="10.3542484"><ele>14.5</ele><time>2026-04-19T07:17:28.328Z</time></trkpt><trkpt lat="42.7622639" lon="10.3540913"><ele>16.0</ele><time>2026-04-19T07:17:30.324Z</time></trkpt><trkpt lat="42.7622949" lon="10.3540097"><ele>17.5</ele><time>2026-04-19T07:17:31.327Z</time></trkpt><trkpt lat="42.762332" lon="10.3539189"><ele>19.0</ele><time>2026-04-19T07:17:32.324Z</time></trkpt><trkpt lat="42.7623782" lon="10.3538229"><ele>19.799999999999997</ele><time>2026-04-19T07:17:33.327Z</time></trkpt><trkpt lat="42.762463" lon="10.3536216"><ele>20.599999999999998</ele><time>2026-04-19T07:17:35.325Z</time></trkpt><trkpt lat="42.7625022" lon="10.3535302"><ele>21.4</ele><time>2026-04-19T07:17:36.326Z</time></trkpt><trkpt lat="42.7625366" lon="10.3534451"><ele>22.2</ele><time>2026-04-19T07:17:37.327Z</time></trkpt><trkpt lat="42.7625741" lon="10.3533615"><ele>23.0</ele><time>2026-04-19T07:17:38.327Z</time></trkpt><trkpt lat="42.7626028" lon="10.3532759"><ele>23.0</ele><time>2026-04-19T07:17:39.328Z</time></trkpt><trkpt lat="42.7626161" lon="10.353186"><ele>23.0</ele><time>2026-04-19T07:17:40.328Z</time></trkpt><trkpt lat="42.7626225" lon="10.353084"><ele>23.0</ele><time>2026-04-19T07:17:41.322Z</time></trkpt><trkpt lat="42.7626329" lon="10.3529656"><ele>23.0</ele><time>2026-04-19T07:17:42.328Z</time></trkpt><trkpt lat="42.7626413" lon="10.3528478"><ele>23.0</ele><time>2026-04-19T07:17:43.326Z</time></trkpt><trkpt lat="42.7626492" lon="10.3527334"><ele>23.0</ele><time>2026-04-19T07:17:44.33Z</time></trkpt><trkpt lat="42.7626516" lon="10.3526258"><ele>23.833333333333336</ele><time>2026-04-19T07:17:45.326Z</time></trkpt><trkpt lat="42.7626511" lon="10.3525268"><ele>24.666666666666668</ele><time>2026-04-19T07:17:46.326Z</time></trkpt><trkpt lat="42.7626496" lon="10.3523976"><ele>25.5</ele><time>2026-04-19T07:17:48.326Z</time></trkpt><trkpt lat="42.7626696" lon="10.352307"><ele>26.333333333333336</ele><time>2026-04-19T07:17:50.324Z</time></trkpt><trkpt lat="42.7627545" lon="10.3522567"><ele>27.166666666666668</ele><time>2026-04-19T07:17:52.319Z</time></trkpt><trkpt lat="42.7628204" lon="10.3522414"><ele>28.0</ele><time>2026-04-19T07:17:53.325Z</time></trkpt><trkpt lat="42.7628978" lon="10.3522377"><ele>29.75</ele><time>2026-04-19T07:17:54.325Z</time></trkpt><trkpt lat="42.7631006" lon="10.35225"><ele>31.5</ele><time>2026-04-19T07:17:56.324Z</time></trkpt><trkpt lat="42.7632063" lon="10.3522675"><ele>33.25</ele><time>2026-04-19T07:17:57.326Z</time></trkpt><trkpt lat="42.7633129" lon="10.3522851"><ele>35.0</ele><time>2026-04-19T07:17:58.322Z</time></trkpt><trkpt lat="42.76342" lon="10.3522978"><ele>35.0</ele><time>2026-04-19T07:17:59.326Z</time></trkpt><trkpt lat="42.7635267" lon="10.3523021"><ele>35.0</ele><time>2026-04-19T07:18:00.32Z</time></trkpt><trkpt lat="42.763635" lon="10.352304"><ele>35.0</ele><time>2026-04-19T07:18:01.326Z</time></trkpt><trkpt lat="42.7637455" lon="10.3523054"><ele>35.0</ele><time>2026-04-19T07:18:02.319Z</time></trkpt><trkpt lat="42.7638523" lon="10.3523068"><ele>35.0</ele><time>2026-04-19T07:18:03.318Z</time></trkpt><trkpt lat="42.7639585" lon="10.3523106"><ele>35.83333333333333</ele><time>2026-04-19T07:18:04.323Z</time></trkpt><trkpt lat="42.7640618" lon="10.3523073"><ele>36.666666666666664</ele><time>2026-04-19T07:18:05.321Z</time></trkpt><trkpt lat="42.7641593" lon="10.3522981"><ele>37.5</ele><time>2026-04-19T07:18:06.322Z</time></trkpt><trkpt lat="42.764239" lon="10.3522821"><ele>38.333333333333336</ele><time>2026-04-19T07:18:07.327Z</time></trkpt><trkpt lat="42.7643269" lon="10.3522476"><ele>39.16666666666667</ele><time>2026-04-19T07:18:09.327Z</time></trkpt><trkpt lat="42.7643665" lon="10.3521778"><ele>40.0</ele><time>2026-04-19T07:18:11.326Z</time></trkpt><trkpt lat="42.7643651" lon="10.3520478"><ele>41.6</ele><time>2026-04-19T07:18:13.325Z</time></trkpt><trkpt lat="42.7643411" lon="10.3519641"><ele>43.2</ele><time>2026-04-19T07:18:14.321Z</time></trkpt><trkpt lat="42.7643104" lon="10.3518676"><ele>44.8</ele><time>2026-04-19T07:18:15.327Z</time></trkpt><trkpt lat="42.7642701" lon="10.3516743"><ele>46.4</ele><time>2026-04-19T07:18:17.328Z</time></trkpt><trkpt lat="42.764309" lon="10.35152"><ele>48.0</ele><time>2026-04-19T07:18:19.327Z</time></trkpt><trkpt lat="42.7643434" lon="10.3514425"><ele>50.0</ele><time>2026-04-19T07:18:20.328Z</time></trkpt><trkpt lat="42.7643806" lon="10.3513614"><ele>52.0</ele><time>2026-04-19T07:18:21.325Z</time></trkpt><trkpt lat="42.7644269" lon="10.3512719"><ele>54.0</ele><time>2026-04-19T07:18:22.331Z</time></trkpt><trkpt lat="42.7644754" lon="10.3511845"><ele>56.0</ele><time>2026-04-19T07:18:23.331Z</time></trkpt><trkpt lat="42.7645199" lon="10.3510975"><ele>58.0</ele><time>2026-04-19T07:18:24.329Z</time></trkpt><trkpt lat="42.7645614" lon="10.3510127"><ele>60.0</ele><time>2026-04-19T07:18:25.329Z</time></trkpt><trkpt lat="42.7646079" lon="10.3509311"><ele>60.0</ele><time>2026-04-19T07:18:26.329Z</time></trkpt><trkpt lat="42.7646514" lon="10.3508577"><ele>60.0</ele><time>2026-04-19T07:18:27.327Z</time></trkpt><trkpt lat="42.7647486" lon="10.3507645"><ele>60.0</ele><time>2026-04-19T07:18:29.327Z</time></trkpt><trkpt lat="42.7648152" lon="10.3507357"><ele>60.0</ele><time>2026-04-19T07:18:30.328Z</time></trkpt><trkpt lat="42.7648931" lon="10.3507063"><ele>60.0</ele><time>2026-04-19T07:18:31.329Z</time></trkpt><trkpt lat="42.7649763" lon="10.3506865"><ele>60.0</ele><time>2026-04-19T07:18:32.329Z</time></trkpt><trkpt lat="42.7650465" lon="10.3506627"><ele>60.0</ele><time>2026-04-19T07:18:33.328Z</time></trkpt><trkpt lat="42.7651136" lon="10.3506189"><ele>60.0</ele><time>2026-04-19T07:18:34.326Z</time></trkpt><trkpt lat="42.7651807" lon="10.3505599"><ele>60.0</ele><time>2026-04-19T07:18:35.329Z</time></trkpt><trkpt lat="42.7652426" lon="10.3505049"><ele>60.0</ele><time>2026-04-19T07:18:36.33Z</time></trkpt><trkpt lat="42.7653343" lon="10.3503809"><ele>60.0</ele><time>2026-04-19T07:18:38.317Z</time></trkpt><trkpt lat="42.7653682" lon="10.3502958"><ele>60.0</ele><time>2026-04-19T07:18:39.317Z</time></trkpt><trkpt lat="42.7653711" lon="10.3501362"><ele>60.2</ele><time>2026-04-19T07:18:41.322Z</time></trkpt><trkpt lat="42.7653208" lon="10.3500452"><ele>60.4</ele><time>2026-04-19T07:18:42.32Z</time></trkpt><trkpt lat="42.7652632" lon="10.3499419"><ele>60.599999999999994</ele><time>2026-04-19T07:18:43.319Z</time></trkpt><trkpt lat="42.7652102" lon="10.3498337"><ele>60.8</ele><time>2026-04-19T07:18:44.321Z</time></trkpt><trkpt lat="42.7651587" lon="10.3497261"><ele>61.0</ele><time>2026-04-19T07:18:45.322Z</time></trkpt><trkpt lat="42.7651129" lon="10.3496194"><ele>60.99999999999999</ele><time>2026-04-19T07:18:46.323Z</time></trkpt><trkpt lat="42.7650724" lon="10.3495239"><ele>61.0</ele><time>2026-04-19T07:18:47.322Z</time></trkpt><trkpt lat="42.765027" lon="10.349445"><ele>61.0</ele><time>2026-04-19T07:18:48.316Z</time></trkpt><trkpt lat="42.7649654" lon="10.3493797"><ele>61.0</ele><time>2026-04-19T07:18:49.318Z</time></trkpt><trkpt lat="42.7648839" lon="10.3493296"><ele>60.99999999999999</ele><time>2026-04-19T07:18:50.322Z</time></trkpt><trkpt lat="42.7647866" lon="10.3492785"><ele>61.0</ele><time>2026-04-19T07:18:51.324Z</time></trkpt><trkpt lat="42.7646892" lon="10.3492296"><ele>60.99999999999999</ele><time>2026-04-19T07:18:52.325Z</time></trkpt><trkpt lat="42.7646044" lon="10.3491844"><ele>61.0</ele><time>2026-04-19T07:18:53.322Z</time></trkpt><trkpt lat="42.7645296" lon="10.3491438"><ele>61.0</ele><time>2026-04-19T07:18:54.325Z</time></trkpt><trkpt lat="42.7644685" lon="10.3491116"><ele>61.0</ele><time>2026-04-19T07:18:55.328Z</time></trkpt><trkpt lat="42.7644081" lon="10.3490728"><ele>60.99999999999999</ele><time>2026-04-19T07:18:56.324Z</time></trkpt><trkpt lat="42.7643496" lon="10.3490122"><ele>61.0</ele><time>2026-04-19T07:18:57.326Z</time></trkpt><trkpt lat="42.7642797" lon="10.3488277"><ele>60.33333333333333</ele><time>2026-04-19T07:18:59.325Z</time></trkpt><trkpt lat="42.7642644" lon="10.3487353"><ele>59.666666666666664</ele><time>2026-04-19T07:19:00.321Z</time></trkpt><trkpt lat="42.7642708" lon="10.3486463"><ele>59.0</ele><time>2026-04-19T07:19:01.327Z</time></trkpt><trkpt lat="42.7642931" lon="10.3485524"><ele>58.33333333333333</ele><time>2026-04-19T07:19:02.324Z</time></trkpt><trkpt lat="42.7643382" lon="10.3484666"><ele>57.666666666666664</ele><time>2026-04-19T07:19:03.325Z</time></trkpt><trkpt lat="42.7644152" lon="10.3483965"><ele>57.0</ele><time>2026-04-19T07:19:04.322Z</time></trkpt><trkpt lat="42.764513" lon="10.3483406"><ele>57.0</ele><time>2026-04-19T07:19:05.32Z</time></trkpt><trkpt lat="42.7646276" lon="10.3482928"><ele>57.0</ele><time>2026-04-19T07:19:06.326Z</time></trkpt><trkpt lat="42.7647297" lon="10.3482643"><ele>57.0</ele><time>2026-04-19T07:19:07.323Z</time></trkpt><trkpt lat="42.7648212" lon="10.3482465"><ele>57.0</ele><time>2026-04-19T07:19:08.32Z</time></trkpt><trkpt lat="42.7648947" lon="10.3482107"><ele>57.0</ele><time>2026-04-19T07:19:09.318Z</time></trkpt><trkpt lat="42.7649556" lon="10.3481548"><ele>57.0</ele><time>2026-04-19T07:19:10.32Z</time></trkpt><trkpt lat="42.7649835" lon="10.3480743"><ele>57.0</ele><time>2026-04-19T07:19:11.327Z</time></trkpt><trkpt lat="42.7649857" lon="10.3479787"><ele>57.0</ele><time>2026-04-19T07:19:12.324Z</time></trkpt><trkpt lat="42.7649459" lon="10.3478292"><ele>57.0</ele><time>2026-04-19T07:19:14.314Z</time></trkpt><trkpt lat="42.7648948" lon="10.3476944"><ele>57.0</ele><time>2026-04-19T07:19:16.326Z</time></trkpt><trkpt lat="42.7648655" lon="10.347601"><ele>57.0</ele><time>2026-04-19T07:19:17.324Z</time></trkpt><trkpt lat="42.7648542" lon="10.3475128"><ele>54.8</ele><time>2026-04-19T07:19:18.323Z</time></trkpt><trkpt lat="42.7649491" lon="10.3472935"><ele>52.6</ele><time>2026-04-19T07:19:21.316Z</time></trkpt><trkpt lat="42.7650297" lon="10.3472487"><ele>50.4</ele><time>2026-04-19T07:19:22.315Z</time></trkpt><trkpt lat="42.765112" lon="10.3472217"><ele>48.199999999999996</ele><time>2026-04-19T07:19:23.32Z</time></trkpt><trkpt lat="42.7651987" lon="10.347199"><ele>46.0</ele><time>2026-04-19T07:19:24.318Z</time></trkpt><trkpt lat="42.7652808" lon="10.3471801"><ele>46.16666666666667</ele><time>2026-04-19T07:19:25.319Z</time></trkpt><trkpt lat="42.7653564" lon="10.3471733"><ele>46.333333333333336</ele><time>2026-04-19T07:19:26.323Z</time></trkpt><trkpt lat="42.7654299" lon="10.3471709"><ele>46.5</ele><time>2026-04-19T07:19:27.32Z</time></trkpt><trkpt lat="42.7655073" lon="10.3471739"><ele>46.666666666666664</ele><time>2026-04-19T07:19:28.32Z</time></trkpt><trkpt lat="42.765589" lon="10.3471883"><ele>46.83333333333333</ele><time>2026-04-19T07:19:29.318Z</time></trkpt><trkpt lat="42.7656666" lon="10.3472065"><ele>47.0</ele><time>2026-04-19T07:19:30.315Z</time></trkpt><trkpt lat="42.7657357" lon="10.3472181"><ele>47.0</ele><time>2026-04-19T07:19:31.318Z</time></trkpt><trkpt lat="42.7658465" lon="10.3472253"><ele>47.0</ele><time>2026-04-19T07:19:33.319Z</time></trkpt><trkpt lat="42.7659396" lon="10.3472423"><ele>47.0</ele><time>2026-04-19T07:19:35.319Z</time></trkpt><trkpt lat="42.7660071" lon="10.3472179"><ele>47.0</ele><time>2026-04-19T07:19:37.311Z</time></trkpt><trkpt lat="42.7660211" lon="10.3470871"><ele>47.0</ele><time>2026-04-19T07:19:39.32Z</time></trkpt><trkpt lat="42.765952" lon="10.3468596"><ele>45.2</ele><time>2026-04-19T07:19:41.314Z</time></trkpt><trkpt lat="42.7659218" lon="10.3467333"><ele>43.400000000000006</ele><time>2026-04-19T07:19:42.318Z</time></trkpt><trkpt lat="42.7659009" lon="10.3466034"><ele>41.599999999999994</ele><time>2026-04-19T07:19:43.315Z</time></trkpt><trkpt lat="42.7658933" lon="10.346486"><ele>39.8</ele><time>2026-04-19T07:19:44.314Z</time></trkpt><trkpt lat="42.7659119" lon="10.3463688"><ele>38.0</ele><time>2026-04-19T07:19:45.317Z</time></trkpt><trkpt lat="42.7659421" lon="10.3462476"><ele>36.83333333333333</ele><time>2026-04-19T07:19:46.313Z</time></trkpt><trkpt lat="42.7659886" lon="10.3461354"><ele>35.666666666666664</ele><time>2026-04-19T07:19:47.316Z</time></trkpt><trkpt lat="42.7660322" lon="10.3460231"><ele>34.5</ele><time>2026-04-19T07:19:48.318Z</time></trkpt><trkpt lat="42.7660693" lon="10.3459134"><ele>33.333333333333336</ele><time>2026-04-19T07:19:49.319Z</time></trkpt><trkpt lat="42.7661081" lon="10.3458104"><ele>32.16666666666667</ele><time>2026-04-19T07:19:50.315Z</time></trkpt><trkpt lat="42.7661473" lon="10.3457142"><ele>31.0</ele><time>2026-04-19T07:19:51.317Z</time></trkpt><trkpt lat="42.7661789" lon="10.345623"><ele>32.285714285714285</ele><time>2026-04-19T07:19:52.321Z</time></trkpt><trkpt lat="42.7662051" lon="10.3455314"><ele>33.57142857142858</ele><time>2026-04-19T07:19:53.322Z</time></trkpt><trkpt lat="42.7662313" lon="10.3454406"><ele>34.85714285714286</ele><time>2026-04-19T07:19:54.322Z</time></trkpt><trkpt lat="42.7662569" lon="10.3453445"><ele>36.142857142857146</ele><time>2026-04-19T07:19:55.328Z</time></trkpt><trkpt lat="42.7662796" lon="10.3452546"><ele>37.42857142857143</ele><time>2026-04-19T07:19:56.322Z</time></trkpt><trkpt lat="42.7663011" lon="10.3451688"><ele>38.714285714285715</ele><time>2026-04-19T07:19:57.324Z</time></trkpt><trkpt lat="42.7663204" lon="10.3450833"><ele>40.0</ele><time>2026-04-19T07:19:58.319Z</time></trkpt><trkpt lat="42.7663427" lon="10.3449937"><ele>40.0</ele><time>2026-04-19T07:19:59.321Z</time></trkpt><trkpt lat="42.7663688" lon="10.3448992"><ele>40.0</ele><time>2026-04-19T07:20:00.32Z</time></trkpt><trkpt lat="42.7664197" lon="10.3447248"><ele>40.0</ele><time>2026-04-19T07:20:02.32Z</time></trkpt><trkpt lat="42.766443" lon="10.3446445"><ele>40.0</ele><time>2026-04-19T07:20:03.321Z</time></trkpt><trkpt lat="42.7665024" lon="10.3444933"><ele>40.0</ele><time>2026-04-19T07:20:05.317Z</time></trkpt><trkpt lat="42.7665474" lon="10.3444185"><ele>40.66666666666667</ele><time>2026-04-19T07:20:06.321Z</time></trkpt><trkpt lat="42.7666055" lon="10.3443437"><ele>41.333333333333336</ele><time>2026-04-19T07:20:07.318Z</time></trkpt><trkpt lat="42.7666721" lon="10.3442738"><ele>42.0</ele><time>2026-04-19T07:20:08.315Z</time></trkpt><trkpt lat="42.766748" lon="10.3442173"><ele>42.666666666666664</ele><time>2026-04-19T07:20:09.316Z</time></trkpt><trkpt lat="42.7668247" lon="10.3441681"><ele>43.33333333333333</ele><time>2026-04-19T07:20:10.312Z</time></trkpt><trkpt lat="42.7669019" lon="10.3441218"><ele>44.0</ele><time>2026-04-19T07:20:11.312Z</time></trkpt><trkpt lat="42.7669705" lon="10.3440692"><ele>44.0</ele><time>2026-04-19T07:20:12.315Z</time></trkpt><trkpt lat="42.7670229" lon="10.3439905"><ele>44.0</ele><time>2026-04-19T07:20:13.321Z</time></trkpt><trkpt lat="42.7670558" lon="10.3438947"><ele>44.0</ele><time>2026-04-19T07:20:14.318Z</time></trkpt><trkpt lat="42.7670811" lon="10.3437897"><ele>44.0</ele><time>2026-04-19T07:20:15.319Z</time></trkpt><trkpt lat="42.7671203" lon="10.3436924"><ele>44.0</ele><time>2026-04-19T07:20:16.316Z</time></trkpt><trkpt lat="42.7671681" lon="10.3436158"><ele>44.0</ele><time>2026-04-19T07:20:17.312Z</time></trkpt><trkpt lat="42.7672143" lon="10.3435516"><ele>41.6</ele><time>2026-04-19T07:20:18.307Z</time></trkpt><trkpt lat="42.7673134" lon="10.3434466"><ele>39.2</ele><time>2026-04-19T07:20:20.315Z</time></trkpt><trkpt lat="42.7673677" lon="10.3433908"><ele>36.800000000000004</ele><time>2026-04-19T07:20:21.316Z</time></trkpt><trkpt lat="42.767474" lon="10.3432524"><ele>34.400000000000006</ele><time>2026-04-19T07:20:23.317Z</time></trkpt><trkpt lat="42.7675336" lon="10.3431801"><ele>32.0</ele><time>2026-04-19T07:20:24.322Z</time></trkpt><trkpt lat="42.7675845" lon="10.3431124"><ele>32.0</ele><time>2026-04-19T07:20:25.318Z</time></trkpt><trkpt lat="42.7676319" lon="10.3430492"><ele>32.0</ele><time>2026-04-19T07:20:26.316Z</time></trkpt><trkpt lat="42.7677256" lon="10.3429393"><ele>32.0</ele><time>2026-04-19T07:20:28.325Z</time></trkpt><trkpt lat="42.7677817" lon="10.3428991"><ele>32.0</ele><time>2026-04-19T07:20:29.319Z</time></trkpt><trkpt lat="42.7678441" lon="10.3428681"><ele>32.0</ele><time>2026-04-19T07:20:30.311Z</time></trkpt><trkpt lat="42.7679819" lon="10.3428769"><ele>32.2</ele><time>2026-04-19T07:20:32.319Z</time></trkpt><trkpt lat="42.7680737" lon="10.3429072"><ele>32.400000000000006</ele><time>2026-04-19T07:20:33.318Z</time></trkpt><trkpt lat="42.7681704" lon="10.342951"><ele>32.599999999999994</ele><time>2026-04-19T07:20:34.314Z</time></trkpt><trkpt lat="42.7682664" lon="10.3429982"><ele>32.8</ele><time>2026-04-19T07:20:35.317Z</time></trkpt><trkpt lat="42.7683618" lon="10.3430484"><ele>33.0</ele><time>2026-04-19T07:20:36.316Z</time></trkpt><trkpt lat="42.7684573" lon="10.3431016"><ele>34.599999999999994</ele><time>2026-04-19T07:20:37.318Z</time></trkpt><trkpt lat="42.7685522" lon="10.3431584"><ele>36.199999999999996</ele><time>2026-04-19T07:20:38.316Z</time></trkpt><trkpt lat="42.7686445" lon="10.3432155"><ele>37.8</ele><time>2026-04-19T07:20:39.32Z</time></trkpt><trkpt lat="42.7687278" lon="10.3432765"><ele>39.4</ele><time>2026-04-19T07:20:40.316Z</time></trkpt><trkpt lat="42.7688088" lon="10.3433326"><ele>41.0</ele><time>2026-04-19T07:20:41.317Z</time></trkpt><trkpt lat="42.768892" lon="10.343365"><ele>41.0</ele><time>2026-04-19T07:20:42.315Z</time></trkpt><trkpt lat="42.769064" lon="10.3434051"><ele>41.0</ele><time>2026-04-19T07:20:44.318Z</time></trkpt><trkpt lat="42.7691538" lon="10.3434378"><ele>41.0</ele><time>2026-04-19T07:20:45.318Z</time></trkpt><trkpt lat="42.7692451" lon="10.3434786"><ele>41.0</ele><time>2026-04-19T07:20:46.319Z</time></trkpt><trkpt lat="42.7693361" lon="10.3435224"><ele>42.199999999999996</ele><time>2026-04-19T07:20:47.32Z</time></trkpt><trkpt lat="42.7694289" lon="10.343566"><ele>43.4</ele><time>2026-04-19T07:20:48.322Z</time></trkpt><trkpt lat="42.7695223" lon="10.3436124"><ele>44.6</ele><time>2026-04-19T07:20:49.323Z</time></trkpt><trkpt lat="42.769614" lon="10.3436619"><ele>45.8</ele><time>2026-04-19T07:20:50.319Z</time></trkpt><trkpt lat="42.7696984" lon="10.3437114"><ele>47.0</ele><time>2026-04-19T07:20:51.323Z</time></trkpt><trkpt lat="42.7697756" lon="10.3437603"><ele>47.0</ele><time>2026-04-19T07:20:52.323Z</time></trkpt><trkpt lat="42.7698525" lon="10.343815"><ele>47.0</ele><time>2026-04-19T07:20:53.324Z</time></trkpt><trkpt lat="42.7699293" lon="10.3438763"><ele>47.0</ele><time>2026-04-19T07:20:54.323Z</time></trkpt><trkpt lat="42.7700071" lon="10.3439359"><ele>47.0</ele><time>2026-04-19T07:20:55.324Z</time></trkpt><trkpt lat="42.7700801" lon="10.3440078"><ele>47.0</ele><time>2026-04-19T07:20:56.32Z</time></trkpt><trkpt lat="42.7701497" lon="10.3440852"><ele>47.0</ele><time>2026-04-19T07:20:57.322Z</time></trkpt><trkpt lat="42.7702221" lon="10.3441547"><ele>48.0</ele><time>2026-04-19T07:20:58.322Z</time></trkpt><trkpt lat="42.7702947" lon="10.3442111"><ele>49.0</ele><time>2026-04-19T07:20:59.323Z</time></trkpt><trkpt lat="42.77037" lon="10.3442651"><ele>50.0</ele><time>2026-04-19T07:21:00.32Z</time></trkpt><trkpt lat="42.7704424" lon="10.3443134"><ele>51.0</ele><time>2026-04-19T07:21:01.325Z</time></trkpt><trkpt lat="42.7705139" lon="10.3443541"><ele>52.00000000000001</ele><time>2026-04-19T07:21:02.32Z</time></trkpt><trkpt lat="42.7705814" lon="10.344394"><ele>53.0</ele><time>2026-04-19T07:21:03.322Z</time></trkpt><trkpt lat="42.770697" lon="10.3445163"><ele>53.00000000000001</ele><time>2026-04-19T07:21:05.319Z</time></trkpt><trkpt lat="42.7707496" lon="10.3445927"><ele>53.0</ele><time>2026-04-19T07:21:06.318Z</time></trkpt><trkpt lat="42.7708005" lon="10.3446731"><ele>53.0</ele><time>2026-04-19T07:21:07.319Z</time></trkpt><trkpt lat="42.7708515" lon="10.3447512"><ele>53.0</ele><time>2026-04-19T07:21:08.323Z</time></trkpt><trkpt lat="42.7709025" lon="10.3448157"><ele>53.00000000000001</ele><time>2026-04-19T07:21:09.321Z</time></trkpt><trkpt lat="42.7710062" lon="10.344881"><ele>53.0</ele><time>2026-04-19T07:21:11.322Z</time></trkpt><trkpt lat="42.7711216" lon="10.344821"><ele>53.0</ele><time>2026-04-19T07:21:13.32Z</time></trkpt><trkpt lat="42.7711758" lon="10.3447471"><ele>53.0</ele><time>2026-04-19T07:21:15.317Z</time></trkpt><trkpt lat="42.7712022" lon="10.3446357"><ele>53.0</ele><time>2026-04-19T07:21:20.325Z</time></trkpt><trkpt lat="42.7711429" lon="10.3444983"><ele>53.0</ele><time>2026-04-19T07:21:22.321Z</time></trkpt><trkpt lat="42.7710874" lon="10.3444191"><ele>53.0</ele><time>2026-04-19T07:21:23.318Z</time></trkpt><trkpt lat="42.7710201" lon="10.3443197"><ele>53.0</ele><time>2026-04-19T07:21:24.32Z</time></trkpt><trkpt lat="42.7708592" lon="10.344086"><ele>53.0</ele><time>2026-04-19T07:21:26.322Z</time></trkpt><trkpt lat="42.7707707" lon="10.3439598"><ele>53.0</ele><time>2026-04-19T07:21:27.318Z</time></trkpt><trkpt lat="42.7706647" lon="10.3438377"><ele>56.66666666666667</ele><time>2026-04-19T07:21:28.322Z</time></trkpt><trkpt lat="42.7705314" lon="10.3437389"><ele>60.33333333333333</ele><time>2026-04-19T07:21:29.325Z</time></trkpt><trkpt lat="42.7703954" lon="10.3436318"><ele>64.0</ele><time>2026-04-19T07:21:30.32Z</time></trkpt><trkpt lat="42.7702712" lon="10.3434938"><ele>62.0</ele><time>2026-04-19T07:21:31.327Z</time></trkpt><trkpt lat="42.7701615" lon="10.3433294"><ele>60.0</ele><time>2026-04-19T07:21:32.319Z</time></trkpt><trkpt lat="42.7700621" lon="10.3431745"><ele>58.0</ele><time>2026-04-19T07:21:33.323Z</time></trkpt><trkpt lat="42.7699666" lon="10.3430392"><ele>58.0</ele><time>2026-04-19T07:21:34.326Z</time></trkpt><trkpt lat="42.769872" lon="10.3429299"><ele>58.0</ele><time>2026-04-19T07:21:35.326Z</time></trkpt><trkpt lat="42.7697622" lon="10.3428497"><ele>58.0</ele><time>2026-04-19T07:21:36.326Z</time></trkpt><trkpt lat="42.7696418" lon="10.3427894"><ele>58.0</ele><time>2026-04-19T07:21:37.327Z</time></trkpt><trkpt lat="42.7695237" lon="10.342738"><ele>58.0</ele><time>2026-04-19T07:21:38.323Z</time></trkpt><trkpt lat="42.7694103" lon="10.3426662"><ele>58.0</ele><time>2026-04-19T07:21:39.323Z</time></trkpt><trkpt lat="42.7693145" lon="10.3425523"><ele>58.0</ele><time>2026-04-19T07:21:40.326Z</time></trkpt><trkpt lat="42.7692253" lon="10.3424155"><ele>58.0</ele><time>2026-04-19T07:21:41.321Z</time></trkpt><trkpt lat="42.7691341" lon="10.3422703"><ele>56.75</ele><time>2026-04-19T07:21:42.325Z</time></trkpt><trkpt lat="42.7690396" lon="10.342137"><ele>55.5</ele><time>2026-04-19T07:21:43.327Z</time></trkpt><trkpt lat="42.7689433" lon="10.3420094"><ele>54.25</ele><time>2026-04-19T07:21:44.326Z</time></trkpt><trkpt lat="42.76884" lon="10.34188"><ele>53.0</ele><time>2026-04-19T07:21:45.323Z</time></trkpt><trkpt lat="42.7686252" lon="10.3416611"><ele>51.25</ele><time>2026-04-19T07:21:47.327Z</time></trkpt><trkpt lat="42.768507" lon="10.3415875"><ele>49.5</ele><time>2026-04-19T07:21:48.321Z</time></trkpt><trkpt lat="42.7683987" lon="10.3415206"><ele>47.75</ele><time>2026-04-19T07:21:49.323Z</time></trkpt><trkpt lat="42.7683091" lon="10.341434"><ele>46.0</ele><time>2026-04-19T07:21:50.317Z</time></trkpt><trkpt lat="42.7682275" lon="10.3413339"><ele>46.0</ele><time>2026-04-19T07:21:51.321Z</time></trkpt><trkpt lat="42.7681778" lon="10.3412128"><ele>46.0</ele><time>2026-04-19T07:21:52.324Z</time></trkpt><trkpt lat="42.7681669" lon="10.3410592"><ele>46.0</ele><time>2026-04-19T07:21:53.33Z</time></trkpt><trkpt lat="42.7681841" lon="10.3408958"><ele>46.0</ele><time>2026-04-19T07:21:54.323Z</time></trkpt><trkpt lat="42.7682105" lon="10.340724"><ele>46.0</ele><time>2026-04-19T07:21:55.328Z</time></trkpt><trkpt lat="42.7682349" lon="10.3405534"><ele>46.0</ele><time>2026-04-19T07:21:56.324Z</time></trkpt><trkpt lat="42.7682445" lon="10.3403956"><ele>46.0</ele><time>2026-04-19T07:21:57.325Z</time></trkpt><trkpt lat="42.7682102" lon="10.3402691"><ele>46.0</ele><time>2026-04-19T07:21:58.329Z</time></trkpt><trkpt lat="42.7681368" lon="10.3401822"><ele>46.0</ele><time>2026-04-19T07:21:59.332Z</time></trkpt><trkpt lat="42.7680367" lon="10.3401356"><ele>45.75</ele><time>2026-04-19T07:22:00.334Z</time></trkpt><trkpt lat="42.7679091" lon="10.3401266"><ele>45.5</ele><time>2026-04-19T07:22:01.322Z</time></trkpt><trkpt lat="42.7677709" lon="10.3401474"><ele>45.25</ele><time>2026-04-19T07:22:02.327Z</time></trkpt><trkpt lat="42.7676201" lon="10.3401932"><ele>45.0</ele><time>2026-04-19T07:22:03.323Z</time></trkpt><trkpt lat="42.7674702" lon="10.3402629"><ele>45.0</ele><time>2026-04-19T07:22:04.327Z</time></trkpt><trkpt lat="42.7673051" lon="10.3403474"><ele>45.0</ele><time>2026-04-19T07:22:05.326Z</time></trkpt><trkpt lat="42.7671379" lon="10.3404174"><ele>45.0</ele><time>2026-04-19T07:22:06.32Z</time></trkpt><trkpt lat="42.7668111" lon="10.340584"><ele>45.0</ele><time>2026-04-19T07:22:08.326Z</time></trkpt><trkpt lat="42.7666711" lon="10.3406716"><ele>45.0</ele><time>2026-04-19T07:22:09.32Z</time></trkpt><trkpt lat="42.7665338" lon="10.3407337"><ele>45.0</ele><time>2026-04-19T07:22:10.32Z</time></trkpt><trkpt lat="42.7664039" lon="10.3407633"><ele>45.0</ele><time>2026-04-19T07:22:11.318Z</time></trkpt><trkpt lat="42.7662648" lon="10.3407415"><ele>45.0</ele><time>2026-04-19T07:22:12.324Z</time></trkpt><trkpt lat="42.7661379" lon="10.340673"><ele>45.0</ele><time>2026-04-19T07:22:13.325Z</time></trkpt><trkpt lat="42.7660032" lon="10.3405826"><ele>45.0</ele><time>2026-04-19T07:22:14.327Z</time></trkpt><trkpt lat="42.765869" lon="10.340486"><ele>45.0</ele><time>2026-04-19T07:22:15.317Z</time></trkpt><trkpt lat="42.7657365" lon="10.3403758"><ele>49.0</ele><time>2026-04-19T07:22:16.32Z</time></trkpt><trkpt lat="42.7656039" lon="10.3402547"><ele>53.0</ele><time>2026-04-19T07:22:17.318Z</time></trkpt><trkpt lat="42.765481" lon="10.3401445"><ele>57.0</ele><time>2026-04-19T07:22:18.323Z</time></trkpt><trkpt lat="42.765366" lon="10.3400363"><ele>61.0</ele><time>2026-04-19T07:22:19.324Z</time></trkpt><trkpt lat="42.7652633" lon="10.3399407"><ele>59.25</ele><time>2026-04-19T07:22:20.325Z</time></trkpt><trkpt lat="42.7651833" lon="10.3398278"><ele>57.5</ele><time>2026-04-19T07:22:21.338Z</time></trkpt><trkpt lat="42.7651422" lon="10.3396884"><ele>55.75</ele><time>2026-04-19T07:22:22.332Z</time></trkpt><trkpt lat="42.765108" lon="10.3395351"><ele>54.0</ele><time>2026-04-19T07:22:23.334Z</time></trkpt><trkpt lat="42.7650844" lon="10.339367"><ele>54.0</ele><time>2026-04-19T07:22:24.33Z</time></trkpt><trkpt lat="42.765088" lon="10.3391917"><ele>54.0</ele><time>2026-04-19T07:22:25.335Z</time></trkpt><trkpt lat="42.7650944" lon="10.3390175"><ele>54.0</ele><time>2026-04-19T07:22:26.334Z</time></trkpt><trkpt lat="42.7650888" lon="10.3388401"><ele>54.0</ele><time>2026-04-19T07:22:27.327Z</time></trkpt><trkpt lat="42.7650251" lon="10.3384816"><ele>57.5</ele><time>2026-04-19T07:22:29.338Z</time></trkpt><trkpt lat="42.7649569" lon="10.338302"><ele>61.0</ele><time>2026-04-19T07:22:30.333Z</time></trkpt><trkpt lat="42.7648681" lon="10.3381402"><ele>64.5</ele><time>2026-04-19T07:22:31.338Z</time></trkpt><trkpt lat="42.7647781" lon="10.3380175"><ele>68.0</ele><time>2026-04-19T07:22:32.335Z</time></trkpt><trkpt lat="42.7646988" lon="10.3379157"><ele>68.66666666666667</ele><time>2026-04-19T07:22:33.331Z</time></trkpt><trkpt lat="42.7646333" lon="10.3378179"><ele>69.33333333333334</ele><time>2026-04-19T07:22:34.331Z</time></trkpt><trkpt lat="42.7646044" lon="10.3377268"><ele>70.0</ele><time>2026-04-19T07:22:35.335Z</time></trkpt><trkpt lat="42.7646173" lon="10.3376403"><ele>70.66666666666667</ele><time>2026-04-19T07:22:36.327Z</time></trkpt><trkpt lat="42.7646548" lon="10.3375465"><ele>71.33333333333333</ele><time>2026-04-19T07:22:37.324Z</time></trkpt><trkpt lat="42.7647041" lon="10.3374502"><ele>72.0</ele><time>2026-04-19T07:22:38.328Z</time></trkpt><trkpt lat="42.7647584" lon="10.3373555"><ele>72.0</ele><time>2026-04-19T07:22:39.332Z</time></trkpt><trkpt lat="42.7648081" lon="10.3372637"><ele>72.0</ele><time>2026-04-19T07:22:40.334Z</time></trkpt><trkpt lat="42.7648527" lon="10.3371698"><ele>72.0</ele><time>2026-04-19T07:22:41.327Z</time></trkpt><trkpt lat="42.7648893" lon="10.3370659"><ele>72.0</ele><time>2026-04-19T07:22:42.331Z</time></trkpt><trkpt lat="42.764905" lon="10.3369506"><ele>72.0</ele><time>2026-04-19T07:22:43.335Z</time></trkpt><trkpt lat="42.7649041" lon="10.3368277"><ele>72.0</ele><time>2026-04-19T07:22:44.327Z</time></trkpt><trkpt lat="42.7648937" lon="10.3366855"><ele>72.0</ele><time>2026-04-19T07:22:45.333Z</time></trkpt><trkpt lat="42.7648785" lon="10.3365281"><ele>72.0</ele><time>2026-04-19T07:22:46.331Z</time></trkpt><trkpt lat="42.7648731" lon="10.3363591"><ele>72.0</ele><time>2026-04-19T07:22:47.334Z</time></trkpt><trkpt lat="42.7648769" lon="10.3361744"><ele>72.0</ele><time>2026-04-19T07:22:48.331Z</time></trkpt><trkpt lat="42.7648335" lon="10.3357995"><ele>72.0</ele><time>2026-04-19T07:22:50.335Z</time></trkpt><trkpt lat="42.7647703" lon="10.3356403"><ele>72.0</ele><time>2026-04-19T07:22:51.333Z</time></trkpt><trkpt lat="42.764707" lon="10.3354888"><ele>72.0</ele><time>2026-04-19T07:22:52.337Z</time></trkpt><trkpt lat="42.7646633" lon="10.3353385"><ele>72.0</ele><time>2026-04-19T07:22:53.34Z</time></trkpt><trkpt lat="42.7646487" lon="10.3351895"><ele>71.75</ele><time>2026-04-19T07:22:54.336Z</time></trkpt><trkpt lat="42.7646833" lon="10.3350625"><ele>71.5</ele><time>2026-04-19T07:22:55.336Z</time></trkpt><trkpt lat="42.7647627" lon="10.3349465"><ele>71.25</ele><time>2026-04-19T07:22:56.33Z</time></trkpt><trkpt lat="42.7648332" lon="10.3348116"><ele>71.0</ele><time>2026-04-19T07:22:57.329Z</time></trkpt><trkpt lat="42.7648894" lon="10.3346614"><ele>70.0</ele><time>2026-04-19T07:22:58.326Z</time></trkpt><trkpt lat="42.7649251" lon="10.3345099"><ele>69.0</ele><time>2026-04-19T07:22:59.33Z</time></trkpt><trkpt lat="42.7649441" lon="10.3343667"><ele>68.0</ele><time>2026-04-19T07:23:00.334Z</time></trkpt><trkpt lat="42.7649421" lon="10.3342283"><ele>67.0</ele><time>2026-04-19T07:23:01.336Z</time></trkpt><trkpt lat="42.7649082" lon="10.3340934"><ele>66.0</ele><time>2026-04-19T07:23:02.33Z</time></trkpt><trkpt lat="42.7648438" lon="10.3339674"><ele>67.75</ele><time>2026-04-19T07:23:03.33Z</time></trkpt><trkpt lat="42.7647706" lon="10.3338389"><ele>69.5</ele><time>2026-04-19T07:23:04.327Z</time></trkpt><trkpt lat="42.7646939" lon="10.3337111"><ele>71.25</ele><time>2026-04-19T07:23:05.333Z</time></trkpt><trkpt lat="42.7646151" lon="10.333604"><ele>73.0</ele><time>2026-04-19T07:23:06.322Z</time></trkpt><trkpt lat="42.7645305" lon="10.3335237"><ele>73.0</ele><time>2026-04-19T07:23:07.334Z</time></trkpt><trkpt lat="42.7644435" lon="10.3334559"><ele>73.0</ele><time>2026-04-19T07:23:08.328Z</time></trkpt><trkpt lat="42.7643718" lon="10.3333662"><ele>73.0</ele><time>2026-04-19T07:23:09.335Z</time></trkpt><trkpt lat="42.7642865" lon="10.333091"><ele>73.0</ele><time>2026-04-19T07:23:11.326Z</time></trkpt><trkpt lat="42.7642735" lon="10.3329353"><ele>71.2</ele><time>2026-04-19T07:23:12.331Z</time></trkpt><trkpt lat="42.7642397" lon="10.3328045"><ele>69.4</ele><time>2026-04-19T07:23:13.332Z</time></trkpt><trkpt lat="42.7641797" lon="10.3327113"><ele>67.60000000000001</ele><time>2026-04-19T07:23:14.334Z</time></trkpt><trkpt lat="42.7640923" lon="10.3326539"><ele>65.8</ele><time>2026-04-19T07:23:15.331Z</time></trkpt><trkpt lat="42.7639816" lon="10.3326237"><ele>64.0</ele><time>2026-04-19T07:23:16.326Z</time></trkpt><trkpt lat="42.7638583" lon="10.3326035"><ele>64.0</ele><time>2026-04-19T07:23:17.33Z</time></trkpt><trkpt lat="42.7637369" lon="10.3325705"><ele>64.0</ele><time>2026-04-19T07:23:18.322Z</time></trkpt><trkpt lat="42.7636171" lon="10.3325136"><ele>64.0</ele><time>2026-04-19T07:23:19.33Z</time></trkpt><trkpt lat="42.7635025" lon="10.3324136"><ele>64.0</ele><time>2026-04-19T07:23:20.324Z</time></trkpt><trkpt lat="42.7633891" lon="10.3322995"><ele>65.25</ele><time>2026-04-19T07:23:21.326Z</time></trkpt><trkpt lat="42.7632774" lon="10.3321909"><ele>66.5</ele><time>2026-04-19T07:23:22.331Z</time></trkpt><trkpt lat="42.7631689" lon="10.3320866"><ele>67.75</ele><time>2026-04-19T07:23:23.327Z</time></trkpt><trkpt lat="42.7630657" lon="10.3319861"><ele>69.0</ele><time>2026-04-19T07:23:24.334Z</time></trkpt><trkpt lat="42.7629649" lon="10.3318871"><ele>69.0</ele><time>2026-04-19T07:23:25.323Z</time></trkpt><trkpt lat="42.7628661" lon="10.331792"><ele>69.0</ele><time>2026-04-19T07:23:26.326Z</time></trkpt><trkpt lat="42.7627704" lon="10.3317002"><ele>69.0</ele><time>2026-04-19T07:23:27.322Z</time></trkpt><trkpt lat="42.7626721" lon="10.331616"><ele>69.0</ele><time>2026-04-19T07:23:28.323Z</time></trkpt><trkpt lat="42.7625694" lon="10.3315494"><ele>69.33333333333333</ele><time>2026-04-19T07:23:29.334Z</time></trkpt><trkpt lat="42.7624585" lon="10.3315024"><ele>69.66666666666666</ele><time>2026-04-19T07:23:30.326Z</time></trkpt><trkpt lat="42.7622323" lon="10.3314135"><ele>70.0</ele><time>2026-04-19T07:23:32.33Z</time></trkpt><trkpt lat="42.7621223" lon="10.3313249"><ele>70.0</ele><time>2026-04-19T07:23:33.333Z</time></trkpt><trkpt lat="42.7620249" lon="10.3312033"><ele>70.0</ele><time>2026-04-19T07:23:34.33Z</time></trkpt><trkpt lat="42.7619515" lon="10.3310578"><ele>70.0</ele><time>2026-04-19T07:23:35.33Z</time></trkpt><trkpt lat="42.7619149" lon="10.3308762"><ele>70.0</ele><time>2026-04-19T07:23:36.331Z</time></trkpt><trkpt lat="42.7619191" lon="10.3306777"><ele>67.5</ele><time>2026-04-19T07:23:37.328Z</time></trkpt><trkpt lat="42.7619358" lon="10.3304878"><ele>65.0</ele><time>2026-04-19T07:23:38.327Z</time></trkpt><trkpt lat="42.7619662" lon="10.3303064"><ele>62.5</ele><time>2026-04-19T07:23:39.324Z</time></trkpt><trkpt lat="42.7620046" lon="10.3301322"><ele>60.0</ele><time>2026-04-19T07:23:40.333Z</time></trkpt><trkpt lat="42.7620647" lon="10.329984"><ele>60.0</ele><time>2026-04-19T07:23:41.322Z</time></trkpt><trkpt lat="42.762148" lon="10.3298802"><ele>60.0</ele><time>2026-04-19T07:23:42.325Z</time></trkpt><trkpt lat="42.7622431" lon="10.329837"><ele>60.0</ele><time>2026-04-19T07:23:43.326Z</time></trkpt><trkpt lat="42.7623412" lon="10.3298419"><ele>60.0</ele><time>2026-04-19T07:23:44.32Z</time></trkpt><trkpt lat="42.762448" lon="10.3298615"><ele>60.0</ele><time>2026-04-19T07:23:45.324Z</time></trkpt><trkpt lat="42.7625492" lon="10.3298595"><ele>60.0</ele><time>2026-04-19T07:23:46.322Z</time></trkpt><trkpt lat="42.7626384" lon="10.329814"><ele>60.0</ele><time>2026-04-19T07:23:47.328Z</time></trkpt><trkpt lat="42.7627123" lon="10.3297236"><ele>60.0</ele><time>2026-04-19T07:23:48.331Z</time></trkpt><trkpt lat="42.7627387" lon="10.3295977"><ele>60.0</ele><time>2026-04-19T07:23:49.319Z</time></trkpt><trkpt lat="42.7627439" lon="10.3294731"><ele>60.0</ele><time>2026-04-19T07:23:50.318Z</time></trkpt><trkpt lat="42.7627389" lon="10.3293525"><ele>61.8</ele><time>2026-04-19T07:23:51.324Z</time></trkpt><trkpt lat="42.7627681" lon="10.3291291"><ele>63.6</ele><time>2026-04-19T07:23:53.322Z</time></trkpt><trkpt lat="42.7628136" lon="10.3290423"><ele>65.4</ele><time>2026-04-19T07:23:54.323Z</time></trkpt><trkpt lat="42.7628855" lon="10.3289606"><ele>67.2</ele><time>2026-04-19T07:23:55.323Z</time></trkpt><trkpt lat="42.7629722" lon="10.3288744"><ele>69.0</ele><time>2026-04-19T07:23:56.321Z</time></trkpt><trkpt lat="42.7630569" lon="10.3287756"><ele>65.0</ele><time>2026-04-19T07:23:57.322Z</time></trkpt><trkpt lat="42.763138" lon="10.328659"><ele>61.00000000000001</ele><time>2026-04-19T07:23:58.327Z</time></trkpt><trkpt lat="42.7632163" lon="10.3285426"><ele>57.0</ele><time>2026-04-19T07:23:59.329Z</time></trkpt><trkpt lat="42.7632955" lon="10.3284445"><ele>53.0</ele><time>2026-04-19T07:24:00.328Z</time></trkpt><trkpt lat="42.7633843" lon="10.3283778"><ele>49.0</ele><time>2026-04-19T07:24:01.334Z</time></trkpt><trkpt lat="42.7634877" lon="10.3283554"><ele>50.75</ele><time>2026-04-19T07:24:02.327Z</time></trkpt><trkpt lat="42.7636024" lon="10.3283617"><ele>52.5</ele><time>2026-04-19T07:24:03.326Z</time></trkpt><trkpt lat="42.7637158" lon="10.3283872"><ele>54.25</ele><time>2026-04-19T07:24:04.327Z</time></trkpt><trkpt lat="42.7638253" lon="10.3284226"><ele>56.0</ele><time>2026-04-19T07:24:05.325Z</time></trkpt><trkpt lat="42.7639292" lon="10.3284688"><ele>56.0</ele><time>2026-04-19T07:24:06.32Z</time></trkpt><trkpt lat="42.7640327" lon="10.3285291"><ele>55.99999999999999</ele><time>2026-04-19T07:24:07.324Z</time></trkpt><trkpt lat="42.7641333" lon="10.3285833"><ele>55.99999999999999</ele><time>2026-04-19T07:24:08.322Z</time></trkpt><trkpt lat="42.7642358" lon="10.3286141"><ele>56.0</ele><time>2026-04-19T07:24:09.328Z</time></trkpt><trkpt lat="42.764326" lon="10.3285906"><ele>56.0</ele><time>2026-04-19T07:24:10.328Z</time></trkpt><trkpt lat="42.7643979" lon="10.3285071"><ele>60.0</ele><time>2026-04-19T07:24:11.324Z</time></trkpt><trkpt lat="42.764443" lon="10.328388"><ele>64.0</ele><time>2026-04-19T07:24:12.309Z</time></trkpt><trkpt lat="42.7644592" lon="10.3281029"><ele>68.0</ele><time>2026-04-19T07:24:14.319Z</time></trkpt><trkpt lat="42.7644503" lon="10.3279758"><ele>72.0</ele><time>2026-04-19T07:24:15.319Z</time></trkpt><trkpt lat="42.7644424" lon="10.3278474"><ele>72.0</ele><time>2026-04-19T07:24:16.32Z</time></trkpt><trkpt lat="42.7644399" lon="10.3277139"><ele>72.0</ele><time>2026-04-19T07:24:17.32Z</time></trkpt><trkpt lat="42.7644438" lon="10.3275841"><ele>72.0</ele><time>2026-04-19T07:24:18.325Z</time></trkpt><trkpt lat="42.7644522" lon="10.3274517"><ele>72.0</ele><time>2026-04-19T07:24:19.32Z</time></trkpt><trkpt lat="42.7644555" lon="10.3273187"><ele>72.0</ele><time>2026-04-19T07:24:20.315Z</time></trkpt><trkpt lat="42.7644462" lon="10.3271945"><ele>71.6</ele><time>2026-04-19T07:24:21.323Z</time></trkpt><trkpt lat="42.7644146" lon="10.3270798"><ele>71.2</ele><time>2026-04-19T07:24:22.318Z</time></trkpt><trkpt lat="42.7643629" lon="10.3269671"><ele>70.8</ele><time>2026-04-19T07:24:23.322Z</time></trkpt><trkpt lat="42.7643065" lon="10.3268453"><ele>70.4</ele><time>2026-04-19T07:24:24.323Z</time></trkpt><trkpt lat="42.7642612" lon="10.3267031"><ele>70.0</ele><time>2026-04-19T07:24:25.331Z</time></trkpt><trkpt lat="42.7642333" lon="10.3265409"><ele>63.0</ele><time>2026-04-19T07:24:26.325Z</time></trkpt><trkpt lat="42.7642281" lon="10.326371"><ele>56.0</ele><time>2026-04-19T07:24:27.321Z</time></trkpt><trkpt lat="42.7642368" lon="10.3262003"><ele>49.0</ele><time>2026-04-19T07:24:28.323Z</time></trkpt><trkpt lat="42.764263" lon="10.326035"><ele>42.0</ele><time>2026-04-19T07:24:29.33Z</time></trkpt><trkpt lat="42.7643056" lon="10.3258774"><ele>42.0</ele><time>2026-04-19T07:24:30.325Z</time></trkpt><trkpt lat="42.764357" lon="10.3257405"><ele>42.0</ele><time>2026-04-19T07:24:31.326Z</time></trkpt><trkpt lat="42.7644159" lon="10.3256162"><ele>42.0</ele><time>2026-04-19T07:24:32.326Z</time></trkpt><trkpt lat="42.7644846" lon="10.3255109"><ele>42.0</ele><time>2026-04-19T07:24:33.325Z</time></trkpt><trkpt lat="42.7646418" lon="10.3253459"><ele>42.6</ele><time>2026-04-19T07:24:35.327Z</time></trkpt><trkpt lat="42.7647185" lon="10.3252927"><ele>43.2</ele><time>2026-04-19T07:24:36.327Z</time></trkpt><trkpt lat="42.764792" lon="10.3252435"><ele>43.8</ele><time>2026-04-19T07:24:37.328Z</time></trkpt><trkpt lat="42.7648581" lon="10.3251986"><ele>44.4</ele><time>2026-04-19T07:24:38.325Z</time></trkpt><trkpt lat="42.764961" lon="10.3251082"><ele>45.0</ele><time>2026-04-19T07:24:40.324Z</time></trkpt><trkpt lat="42.7650409" lon="10.3249972"><ele>45.0</ele><time>2026-04-19T07:24:42.33Z</time></trkpt><trkpt lat="42.7651092" lon="10.3248787"><ele>45.0</ele><time>2026-04-19T07:24:44.33Z</time></trkpt><trkpt lat="42.7651743" lon="10.3247773"><ele>45.0</ele><time>2026-04-19T07:24:46.328Z</time></trkpt><trkpt lat="42.7652683" lon="10.3247267"><ele>45.0</ele><time>2026-04-19T07:24:48.328Z</time></trkpt><trkpt lat="42.7653834" lon="10.3247231"><ele>45.0</ele><time>2026-04-19T07:24:50.329Z</time></trkpt><trkpt lat="42.7654504" lon="10.3247307"><ele>46.4</ele><time>2026-04-19T07:24:51.329Z</time></trkpt><trkpt lat="42.7655141" lon="10.3247503"><ele>47.8</ele><time>2026-04-19T07:24:52.331Z</time></trkpt><trkpt lat="42.7656006" lon="10.3248415"><ele>49.2</ele><time>2026-04-19T07:24:54.328Z</time></trkpt><trkpt lat="42.7657188" lon="10.3250458"><ele>50.6</ele><time>2026-04-19T07:24:57.334Z</time></trkpt><trkpt lat="42.7657568" lon="10.3251265"><ele>52.0</ele><time>2026-04-19T07:24:58.33Z</time></trkpt><trkpt lat="42.7657889" lon="10.3252014"><ele>52.0</ele><time>2026-04-19T07:24:59.333Z</time></trkpt><trkpt lat="42.7658432" lon="10.3253414"><ele>52.0</ele><time>2026-04-19T07:25:01.33Z</time></trkpt><trkpt lat="42.7659228" lon="10.3254458"><ele>52.0</ele><time>2026-04-19T07:25:03.33Z</time></trkpt><trkpt lat="42.765966" lon="10.3255096"><ele>52.0</ele><time>2026-04-19T07:25:04.33Z</time></trkpt><trkpt lat="42.7660297" lon="10.3256404"><ele>52.0</ele><time>2026-04-19T07:25:06.333Z</time></trkpt><trkpt lat="42.7660798" lon="10.325767"><ele>54.400000000000006</ele><time>2026-04-19T07:25:08.326Z</time></trkpt><trkpt lat="42.766125" lon="10.3258858"><ele>56.800000000000004</ele><time>2026-04-19T07:25:10.331Z</time></trkpt><trkpt lat="42.7661726" lon="10.3260345"><ele>59.2</ele><time>2026-04-19T07:25:12.331Z</time></trkpt><trkpt lat="42.7662058" lon="10.3261124"><ele>61.6</ele><time>2026-04-19T07:25:13.33Z</time></trkpt><trkpt lat="42.766231" lon="10.3261946"><ele>64.0</ele><time>2026-04-19T07:25:14.328Z</time></trkpt><trkpt lat="42.7662571" lon="10.3263482"><ele>66.2</ele><time>2026-04-19T07:25:16.327Z</time></trkpt><trkpt lat="42.7664191" lon="10.3264593"><ele>68.4</ele><time>2026-04-19T07:25:20.326Z</time></trkpt><trkpt lat="42.7664834" lon="10.3264531"><ele>70.6</ele><time>2026-04-19T07:25:21.328Z</time></trkpt><trkpt lat="42.7666006" lon="10.3264945"><ele>72.8</ele><time>2026-04-19T07:25:23.33Z</time></trkpt><trkpt lat="42.7666619" lon="10.3265298"><ele>75.0</ele><time>2026-04-19T07:25:24.331Z</time></trkpt><trkpt lat="42.7667643" lon="10.3265735"><ele>75.0</ele><time>2026-04-19T07:25:26.332Z</time></trkpt><trkpt lat="42.7668564" lon="10.3266109"><ele>75.0</ele><time>2026-04-19T07:25:28.329Z</time></trkpt><trkpt lat="42.7669363" lon="10.3266533"><ele>75.0</ele><time>2026-04-19T07:25:31.331Z</time></trkpt><trkpt lat="42.7670037" lon="10.3266977"><ele>75.0</ele><time>2026-04-19T07:25:33.326Z</time></trkpt><trkpt lat="42.7670999" lon="10.3267455"><ele>75.0</ele><time>2026-04-19T07:25:35.327Z</time></trkpt><trkpt lat="42.767209" lon="10.3268167"><ele>76.4</ele><time>2026-04-19T07:25:37.327Z</time></trkpt><trkpt lat="42.767374" lon="10.3269347"><ele>77.8</ele><time>2026-04-19T07:25:40.327Z</time></trkpt><trkpt lat="42.7674327" lon="10.3269868"><ele>79.19999999999999</ele><time>2026-04-19T07:25:42.327Z</time></trkpt><trkpt lat="42.7674747" lon="10.3270771"><ele>80.6</ele><time>2026-04-19T07:25:45.327Z</time></trkpt><trkpt lat="42.7674165" lon="10.3271328"><ele>82.0</ele><time>2026-04-19T07:25:48.328Z</time></trkpt><trkpt lat="42.7673406" lon="10.3271179"><ele>82.0</ele><time>2026-04-19T07:25:50.322Z</time></trkpt><trkpt lat="42.7672636" lon="10.3270727"><ele>82.0</ele><time>2026-04-19T07:25:53.322Z</time></trkpt><trkpt lat="42.7671708" lon="10.3270564"><ele>82.0</ele><time>2026-04-19T07:26:01.318Z</time></trkpt><trkpt lat="42.7669825" lon="10.3270722"><ele>82.0</ele><time>2026-04-19T07:26:04.321Z</time></trkpt><trkpt lat="42.7669026" lon="10.3270833"><ele>82.0</ele><time>2026-04-19T07:26:05.312Z</time></trkpt><trkpt lat="42.7668264" lon="10.3271062"><ele>80.83333333333333</ele><time>2026-04-19T07:26:06.316Z</time></trkpt><trkpt lat="42.7667628" lon="10.327139"><ele>79.66666666666666</ele><time>2026-04-19T07:26:07.317Z</time></trkpt><trkpt lat="42.7666856" lon="10.3271866"><ele>78.5</ele><time>2026-04-19T07:26:08.315Z</time></trkpt><trkpt lat="42.7666191" lon="10.3272509"><ele>77.33333333333333</ele><time>2026-04-19T07:26:09.323Z</time></trkpt><trkpt lat="42.7665651" lon="10.3273249"><ele>76.16666666666667</ele><time>2026-04-19T07:26:10.329Z</time></trkpt><trkpt lat="42.7665194" lon="10.3274063"><ele>75.0</ele><time>2026-04-19T07:26:11.326Z</time></trkpt><trkpt lat="42.7664825" lon="10.3274855"><ele>78.33333333333333</ele><time>2026-04-19T07:26:12.323Z</time></trkpt><trkpt lat="42.7664553" lon="10.3275695"><ele>81.66666666666667</ele><time>2026-04-19T07:26:13.328Z</time></trkpt><trkpt lat="42.7664233" lon="10.3276483"><ele>85.0</ele><time>2026-04-19T07:26:14.327Z</time></trkpt><trkpt lat="42.7663612" lon="10.327791"><ele>88.33333333333334</ele><time>2026-04-19T07:26:16.323Z</time></trkpt><trkpt lat="42.7662601" lon="10.327891"><ele>91.66666666666667</ele><time>2026-04-19T07:26:18.324Z</time></trkpt><trkpt lat="42.7661989" lon="10.327912"><ele>95.0</ele><time>2026-04-19T07:26:19.327Z</time></trkpt><trkpt lat="42.7660742" lon="10.3279521"><ele>94.0</ele><time>2026-04-19T07:26:21.332Z</time></trkpt><trkpt lat="42.7660062" lon="10.3279832"><ele>93.0</ele><time>2026-04-19T07:26:22.332Z</time></trkpt><trkpt lat="42.765888" lon="10.3280693"><ele>92.0</ele><time>2026-04-19T07:26:24.329Z</time></trkpt><trkpt lat="42.7658414" lon="10.3281397"><ele>91.0</ele><time>2026-04-19T07:26:25.328Z</time></trkpt><trkpt lat="42.7658012" lon="10.3282215"><ele>90.0</ele><time>2026-04-19T07:26:26.331Z</time></trkpt><trkpt lat="42.7657663" lon="10.3283071"><ele>89.0</ele><time>2026-04-19T07:26:27.329Z</time></trkpt><trkpt lat="42.7657407" lon="10.3283981"><ele>91.14285714285714</ele><time>2026-04-19T07:26:28.33Z</time></trkpt><trkpt lat="42.7657295" lon="10.3284961"><ele>93.28571428571428</ele><time>2026-04-19T07:26:29.331Z</time></trkpt><trkpt lat="42.7657308" lon="10.3286"><ele>95.42857142857142</ele><time>2026-04-19T07:26:30.332Z</time></trkpt><trkpt lat="42.7657335" lon="10.3287019"><ele>97.57142857142857</ele><time>2026-04-19T07:26:31.329Z</time></trkpt><trkpt lat="42.7657326" lon="10.3288089"><ele>99.71428571428572</ele><time>2026-04-19T07:26:32.332Z</time></trkpt><trkpt lat="42.7657364" lon="10.3289129"><ele>101.85714285714285</ele><time>2026-04-19T07:26:33.33Z</time></trkpt><trkpt lat="42.7657497" lon="10.3290062"><ele>104.0</ele><time>2026-04-19T07:26:34.323Z</time></trkpt><trkpt lat="42.7657742" lon="10.3291004"><ele>104.71428571428571</ele><time>2026-04-19T07:26:35.33Z</time></trkpt><trkpt lat="42.7658136" lon="10.3291892"><ele>105.42857142857143</ele><time>2026-04-19T07:26:36.326Z</time></trkpt><trkpt lat="42.7658669" lon="10.3292555"><ele>106.14285714285714</ele><time>2026-04-19T07:26:37.325Z</time></trkpt><trkpt lat="42.7659332" lon="10.3293074"><ele>106.85714285714286</ele><time>2026-04-19T07:26:38.324Z</time></trkpt><trkpt lat="42.7660025" lon="10.3293454"><ele>107.57142857142858</ele><time>2026-04-19T07:26:39.329Z</time></trkpt><trkpt lat="42.7660677" lon="10.3293861"><ele>108.28571428571429</ele><time>2026-04-19T07:26:40.326Z</time></trkpt><trkpt lat="42.7661282" lon="10.3294339"><ele>109.0</ele><time>2026-04-19T07:26:41.327Z</time></trkpt><trkpt lat="42.7662094" lon="10.3295469"><ele>115.75</ele><time>2026-04-19T07:26:43.325Z</time></trkpt><trkpt lat="42.7663725" lon="10.3295988"><ele>122.5</ele><time>2026-04-19T07:26:47.324Z</time></trkpt><trkpt lat="42.7663103" lon="10.3294627"><ele>129.25</ele><time>2026-04-19T07:26:49.314Z</time></trkpt><trkpt lat="42.7662413" lon="10.3293669"><ele>136.0</ele><time>2026-04-19T07:26:50.318Z</time></trkpt><trkpt lat="42.7661965" lon="10.3292688"><ele>136.0</ele><time>2026-04-19T07:26:51.317Z</time></trkpt><trkpt lat="42.7661751" lon="10.3291588"><ele>136.0</ele><time>2026-04-19T07:26:52.321Z</time></trkpt><trkpt lat="42.7661603" lon="10.3290534"><ele>136.0</ele><time>2026-04-19T07:26:53.318Z</time></trkpt><trkpt lat="42.7661565" lon="10.3289573"><ele>136.0</ele><time>2026-04-19T07:26:54.319Z</time></trkpt><trkpt lat="42.766178" lon="10.328876"><ele>136.0</ele><time>2026-04-19T07:26:55.313Z</time></trkpt><trkpt lat="42.7662292" lon="10.3288191"><ele>136.0</ele><time>2026-04-19T07:26:56.33Z</time></trkpt><trkpt lat="42.7663375" lon="10.3287802"><ele>132.8</ele><time>2026-04-19T07:26:58.33Z</time></trkpt><trkpt lat="42.7664703" lon="10.3287923"><ele>129.6</ele><time>2026-04-19T07:27:00.328Z</time></trkpt><trkpt lat="42.7665533" lon="10.3287756"><ele>126.4</ele><time>2026-04-19T07:27:01.331Z</time></trkpt><trkpt lat="42.7666413" lon="10.3287492"><ele>123.2</ele><time>2026-04-19T07:27:02.33Z</time></trkpt><trkpt lat="42.7667265" lon="10.3287335"><ele>120.0</ele><time>2026-04-19T07:27:03.331Z</time></trkpt><trkpt lat="42.7668054" lon="10.3287312"><ele>119.0</ele><time>2026-04-19T07:27:04.33Z</time></trkpt><trkpt lat="42.7669265" lon="10.3287902"><ele>118.0</ele><time>2026-04-19T07:27:06.333Z</time></trkpt><trkpt lat="42.766981" lon="10.3288501"><ele>117.0</ele><time>2026-04-19T07:27:07.33Z</time></trkpt><trkpt lat="42.7670252" lon="10.3289853"><ele>116.0</ele><time>2026-04-19T07:27:09.324Z</time></trkpt><trkpt lat="42.7669668" lon="10.3290509"><ele>115.0</ele><time>2026-04-19T07:27:11.324Z</time></trkpt><trkpt lat="42.7668488" lon="10.3290492"><ele>119.2</ele><time>2026-04-19T07:27:13.33Z</time></trkpt><trkpt lat="42.7667906" lon="10.3291379"><ele>123.4</ele><time>2026-04-19T07:27:15.326Z</time></trkpt><trkpt lat="42.7668513" lon="10.3292782"><ele>127.6</ele><time>2026-04-19T07:27:17.325Z</time></trkpt><trkpt lat="42.7669247" lon="10.3293463"><ele>131.8</ele><time>2026-04-19T07:27:18.327Z</time></trkpt><trkpt lat="42.7670036" lon="10.329417"><ele>136.0</ele><time>2026-04-19T07:27:19.331Z</time></trkpt><trkpt lat="42.7670857" lon="10.3294884"><ele>137.0</ele><time>2026-04-19T07:27:20.331Z</time></trkpt><trkpt lat="42.7671651" lon="10.3295535"><ele>138.0</ele><time>2026-04-19T07:27:21.329Z</time></trkpt><trkpt lat="42.7672396" lon="10.3296121"><ele>139.0</ele><time>2026-04-19T07:27:22.329Z</time></trkpt><trkpt lat="42.7673121" lon="10.3296628"><ele>140.0</ele><time>2026-04-19T07:27:23.328Z</time></trkpt><trkpt lat="42.7673739" lon="10.3296995"><ele>141.0</ele><time>2026-04-19T07:27:24.329Z</time></trkpt><trkpt lat="42.7674324" lon="10.329733"><ele>142.0</ele><time>2026-04-19T07:27:25.331Z</time></trkpt><trkpt lat="42.7675618" lon="10.329854"><ele>144.0</ele><time>2026-04-19T07:27:27.337Z</time></trkpt><trkpt lat="42.7676264" lon="10.3299357"><ele>146.0</ele><time>2026-04-19T07:27:28.335Z</time></trkpt><trkpt lat="42.7676812" lon="10.3300218"><ele>148.0</ele><time>2026-04-19T07:27:29.335Z</time></trkpt><trkpt lat="42.7677317" lon="10.3301132"><ele>150.0</ele><time>2026-04-19T07:27:30.338Z</time></trkpt><trkpt lat="42.7677808" lon="10.3302069"><ele>152.0</ele><time>2026-04-19T07:27:31.336Z</time></trkpt><trkpt lat="42.7678317" lon="10.3303032"><ele>154.0</ele><time>2026-04-19T07:27:32.33Z</time></trkpt><trkpt lat="42.7678884" lon="10.3303963"><ele>157.0</ele><time>2026-04-19T07:27:33.334Z</time></trkpt><trkpt lat="42.7679523" lon="10.3304902"><ele>160.0</ele><time>2026-04-19T07:27:34.335Z</time></trkpt><trkpt lat="42.7680168" lon="10.3306009"><ele>163.0</ele><time>2026-04-19T07:27:35.334Z</time></trkpt><trkpt lat="42.7680721" lon="10.330715"><ele>166.0</ele><time>2026-04-19T07:27:36.336Z</time></trkpt><trkpt lat="42.7681169" lon="10.3308234"><ele>169.0</ele><time>2026-04-19T07:27:37.327Z</time></trkpt><trkpt lat="42.7681585" lon="10.3309229"><ele>170.83333333333334</ele><time>2026-04-19T07:27:38.325Z</time></trkpt><trkpt lat="42.768191" lon="10.3310079"><ele>172.66666666666669</ele><time>2026-04-19T07:27:39.33Z</time></trkpt><trkpt lat="42.7681817" lon="10.3311477"><ele>174.5</ele><time>2026-04-19T07:27:41.326Z</time></trkpt><trkpt lat="42.7681494" lon="10.3312293"><ele>176.33333333333334</ele><time>2026-04-19T07:27:42.327Z</time></trkpt><trkpt lat="42.768111" lon="10.3313172"><ele>178.16666666666666</ele><time>2026-04-19T07:27:43.328Z</time></trkpt><trkpt lat="42.7680711" lon="10.3314283"><ele>180.0</ele><time>2026-04-19T07:27:44.328Z</time></trkpt><trkpt lat="42.768039" lon="10.3315614"><ele>181.0</ele><time>2026-04-19T07:27:45.327Z</time></trkpt><trkpt lat="42.7680208" lon="10.3317121"><ele>182.0</ele><time>2026-04-19T07:27:46.326Z</time></trkpt><trkpt lat="42.7680349" lon="10.3320001"><ele>183.0</ele><time>2026-04-19T07:27:48.322Z</time></trkpt><trkpt lat="42.7680581" lon="10.3321166"><ele>184.0</ele><time>2026-04-19T07:27:49.328Z</time></trkpt><trkpt lat="42.7680909" lon="10.3322158"><ele>182.66666666666669</ele><time>2026-04-19T07:27:50.328Z</time></trkpt><trkpt lat="42.7681343" lon="10.3323176"><ele>181.33333333333334</ele><time>2026-04-19T07:27:51.328Z</time></trkpt><trkpt lat="42.7681963" lon="10.3324081"><ele>180.0</ele><time>2026-04-19T07:27:52.327Z</time></trkpt><trkpt lat="42.7682677" lon="10.3324716"><ele>178.66666666666666</ele><time>2026-04-19T07:27:53.332Z</time></trkpt><trkpt lat="42.768344" lon="10.3324898"><ele>177.33333333333331</ele><time>2026-04-19T07:27:54.335Z</time></trkpt><trkpt lat="42.7684243" lon="10.332463"><ele>176.0</ele><time>2026-04-19T07:27:55.334Z</time></trkpt><trkpt lat="42.7684881" lon="10.3323977"><ele>177.33333333333331</ele><time>2026-04-19T07:27:56.324Z</time></trkpt><trkpt lat="42.7685333" lon="10.3323174"><ele>178.66666666666666</ele><time>2026-04-19T07:27:57.332Z</time></trkpt><trkpt lat="42.7685335" lon="10.3322236"><ele>180.0</ele><time>2026-04-19T07:27:58.334Z</time></trkpt><trkpt lat="42.7684903" lon="10.3321181"><ele>181.33333333333334</ele><time>2026-04-19T07:27:59.331Z</time></trkpt><trkpt lat="42.7684349" lon="10.3319983"><ele>182.66666666666669</ele><time>2026-04-19T07:28:00.33Z</time></trkpt><trkpt lat="42.7683868" lon="10.3318764"><ele>184.0</ele><time>2026-04-19T07:28:01.331Z</time></trkpt><trkpt lat="42.7683698" lon="10.3317593"><ele>184.0</ele><time>2026-04-19T07:28:02.326Z</time></trkpt><trkpt lat="42.7683749" lon="10.331654"><ele>184.0</ele><time>2026-04-19T07:28:03.332Z</time></trkpt><trkpt lat="42.7683912" lon="10.3315707"><ele>184.0</ele><time>2026-04-19T07:28:04.331Z</time></trkpt><trkpt lat="42.7684244" lon="10.3314929"><ele>184.0</ele><time>2026-04-19T07:28:05.337Z</time></trkpt><trkpt lat="42.7684859" lon="10.3314135"><ele>184.0</ele><time>2026-04-19T07:28:06.335Z</time></trkpt><trkpt lat="42.7685691" lon="10.3313382"><ele>184.0</ele><time>2026-04-19T07:28:07.334Z</time></trkpt><trkpt lat="42.7687424" lon="10.331205"><ele>185.83333333333334</ele><time>2026-04-19T07:28:09.335Z</time></trkpt><trkpt lat="42.7688155" lon="10.3311258"><ele>187.66666666666669</ele><time>2026-04-19T07:28:10.333Z</time></trkpt><trkpt lat="42.7688812" lon="10.3310583"><ele>189.5</ele><time>2026-04-19T07:28:11.336Z</time></trkpt><trkpt lat="42.7689446" lon="10.3310296"><ele>191.33333333333334</ele><time>2026-04-19T07:28:12.337Z</time></trkpt><trkpt lat="42.76901" lon="10.3310471"><ele>193.16666666666666</ele><time>2026-04-19T07:28:13.332Z</time></trkpt><trkpt lat="42.76908" lon="10.3311091"><ele>195.0</ele><time>2026-04-19T07:28:14.326Z</time></trkpt><trkpt lat="42.7691589" lon="10.3311931"><ele>195.0</ele><time>2026-04-19T07:28:15.335Z</time></trkpt><trkpt lat="42.7692336" lon="10.3312821"><ele>195.0</ele><time>2026-04-19T07:28:16.335Z</time></trkpt><trkpt lat="42.7693122" lon="10.331353"><ele>195.0</ele><time>2026-04-19T07:28:17.333Z</time></trkpt><trkpt lat="42.7693823" lon="10.3314113"><ele>195.0</ele><time>2026-04-19T07:28:18.335Z</time></trkpt><trkpt lat="42.7694538" lon="10.3314657"><ele>195.0</ele><time>2026-04-19T07:28:19.334Z</time></trkpt><trkpt lat="42.7695284" lon="10.3315145"><ele>195.0</ele><time>2026-04-19T07:28:20.332Z</time></trkpt><trkpt lat="42.7696066" lon="10.3315607"><ele>197.16666666666666</ele><time>2026-04-19T07:28:21.335Z</time></trkpt><trkpt lat="42.7696811" lon="10.3316056"><ele>199.33333333333331</ele><time>2026-04-19T07:28:22.333Z</time></trkpt><trkpt lat="42.7697581" lon="10.3316565"><ele>201.5</ele><time>2026-04-19T07:28:23.334Z</time></trkpt><trkpt lat="42.7698307" lon="10.331702"><ele>203.66666666666666</ele><time>2026-04-19T07:28:24.336Z</time></trkpt><trkpt lat="42.7699114" lon="10.3317164"><ele>205.83333333333331</ele><time>2026-04-19T07:28:26.329Z</time></trkpt><trkpt lat="42.7699356" lon="10.3316236"><ele>208.0</ele><time>2026-04-19T07:28:38.336Z</time></trkpt><trkpt lat="42.7701155" lon="10.3315221"><ele>211.4</ele><time>2026-04-19T07:28:43.335Z</time></trkpt><trkpt lat="42.7702292" lon="10.3314333"><ele>214.8</ele><time>2026-04-19T07:28:45.337Z</time></trkpt><trkpt lat="42.7702897" lon="10.3313882"><ele>218.2</ele><time>2026-04-19T07:28:46.338Z</time></trkpt><trkpt lat="42.7703527" lon="10.3313409"><ele>221.6</ele><time>2026-04-19T07:28:47.342Z</time></trkpt><trkpt lat="42.7704143" lon="10.3313051"><ele>225.0</ele><time>2026-04-19T07:28:48.338Z</time></trkpt><trkpt lat="42.7705297" lon="10.3312359"><ele>225.71428571428575</ele><time>2026-04-19T07:28:50.339Z</time></trkpt><trkpt lat="42.7705914" lon="10.3311984"><ele>226.42857142857144</ele><time>2026-04-19T07:28:51.338Z</time></trkpt><trkpt lat="42.7706524" lon="10.3311607"><ele>227.14285714285714</ele><time>2026-04-19T07:28:52.342Z</time></trkpt><trkpt lat="42.7707089" lon="10.3311221"><ele>227.85714285714286</ele><time>2026-04-19T07:28:53.336Z</time></trkpt><trkpt lat="42.770764" lon="10.3310766"><ele>228.57142857142856</ele><time>2026-04-19T07:28:54.341Z</time></trkpt><trkpt lat="42.770852" lon="10.330984"><ele>229.28571428571425</ele><time>2026-04-19T07:28:56.338Z</time></trkpt><trkpt lat="42.7708747" lon="10.3309037"><ele>229.99999999999997</ele><time>2026-04-19T07:28:58.337Z</time></trkpt><trkpt lat="42.7708763" lon="10.3307595"><ele>230.4</ele><time>2026-04-19T07:29:00.338Z</time></trkpt><trkpt lat="42.7708662" lon="10.3305497"><ele>230.8</ele><time>2026-04-19T07:29:02.33Z</time></trkpt><trkpt lat="42.7708705" lon="10.3304488"><ele>231.2</ele><time>2026-04-19T07:29:03.334Z</time></trkpt><trkpt lat="42.770864" lon="10.3303457"><ele>231.6</ele><time>2026-04-19T07:29:04.329Z</time></trkpt><trkpt lat="42.7708395" lon="10.330252"><ele>232.0</ele><time>2026-04-19T07:29:05.335Z</time></trkpt><trkpt lat="42.7707984" lon="10.330154"><ele>232.0</ele><time>2026-04-19T07:29:06.329Z</time></trkpt><trkpt lat="42.7707365" lon="10.3300403"><ele>232.0</ele><time>2026-04-19T07:29:07.332Z</time></trkpt><trkpt lat="42.7706645" lon="10.329921"><ele>232.0</ele><time>2026-04-19T07:29:08.326Z</time></trkpt><trkpt lat="42.7706002" lon="10.3297882"><ele>232.0</ele><time>2026-04-19T07:29:09.332Z</time></trkpt><trkpt lat="42.7705481" lon="10.3296465"><ele>230.5</ele><time>2026-04-19T07:29:10.323Z</time></trkpt><trkpt lat="42.7705144" lon="10.3294854"><ele>229.0</ele><time>2026-04-19T07:29:11.334Z</time></trkpt><trkpt lat="42.7704893" lon="10.3293106"><ele>227.5</ele><time>2026-04-19T07:29:12.33Z</time></trkpt><trkpt lat="42.7704697" lon="10.3291498"><ele>226.0</ele><time>2026-04-19T07:29:13.333Z</time></trkpt><trkpt lat="42.7704614" lon="10.3290085"><ele>221.83333333333331</ele><time>2026-04-19T07:29:14.336Z</time></trkpt><trkpt lat="42.7704658" lon="10.3288874"><ele>217.66666666666666</ele><time>2026-04-19T07:29:15.333Z</time></trkpt><trkpt lat="42.7704883" lon="10.3287868"><ele>213.5</ele><time>2026-04-19T07:29:16.337Z</time></trkpt><trkpt lat="42.770534" lon="10.3287156"><ele>209.33333333333331</ele><time>2026-04-19T07:29:17.329Z</time></trkpt><trkpt lat="42.7706493" lon="10.3286838"><ele>205.16666666666666</ele><time>2026-04-19T07:29:19.334Z</time></trkpt><trkpt lat="42.7707146" lon="10.3287073"><ele>201.0</ele><time>2026-04-19T07:29:20.335Z</time></trkpt><trkpt lat="42.7708015" lon="10.3287603"><ele>201.33333333333331</ele><time>2026-04-19T07:29:21.326Z</time></trkpt><trkpt lat="42.771028" lon="10.3288732"><ele>201.66666666666666</ele><time>2026-04-19T07:29:23.328Z</time></trkpt><trkpt lat="42.7711574" lon="10.3289005"><ele>202.0</ele><time>2026-04-19T07:29:24.321Z</time></trkpt><trkpt lat="42.7712799" lon="10.3289283"><ele>208.75</ele><time>2026-04-19T07:29:25.325Z</time></trkpt><trkpt lat="42.7713963" lon="10.3289542"><ele>215.5</ele><time>2026-04-19T07:29:26.325Z</time></trkpt><trkpt lat="42.7715054" lon="10.3289873"><ele>222.25</ele><time>2026-04-19T07:29:27.318Z</time></trkpt><trkpt lat="42.7716144" lon="10.3290341"><ele>229.0</ele><time>2026-04-19T07:29:28.319Z</time></trkpt><trkpt lat="42.7717171" lon="10.3290812"><ele>229.0</ele><time>2026-04-19T07:29:29.324Z</time></trkpt><trkpt lat="42.771823" lon="10.3291293"><ele>228.99999999999997</ele><time>2026-04-19T07:29:30.314Z</time></trkpt><trkpt lat="42.7719206" lon="10.3291468"><ele>228.99999999999997</ele><time>2026-04-19T07:29:31.321Z</time></trkpt><trkpt lat="42.772006" lon="10.3291121"><ele>229.0</ele><time>2026-04-19T07:29:32.315Z</time></trkpt><trkpt lat="42.7721012" lon="10.3290502"><ele>229.0</ele><time>2026-04-19T07:29:33.316Z</time></trkpt><trkpt lat="42.7722014" lon="10.3289906"><ele>228.6</ele><time>2026-04-19T07:29:34.315Z</time></trkpt><trkpt lat="42.7722945" lon="10.3289466"><ele>228.2</ele><time>2026-04-19T07:29:35.316Z</time></trkpt><trkpt lat="42.772384" lon="10.3289068"><ele>227.79999999999998</ele><time>2026-04-19T07:29:36.318Z</time></trkpt><trkpt lat="42.7724715" lon="10.3288716"><ele>227.39999999999998</ele><time>2026-04-19T07:29:37.316Z</time></trkpt><trkpt lat="42.7725631" lon="10.3288346"><ele>227.0</ele><time>2026-04-19T07:29:38.316Z</time></trkpt><trkpt lat="42.7726586" lon="10.3288102"><ele>232.25</ele><time>2026-04-19T07:29:39.313Z</time></trkpt><trkpt lat="42.7727585" lon="10.3287914"><ele>237.5</ele><time>2026-04-19T07:29:40.312Z</time></trkpt><trkpt lat="42.7728592" lon="10.3287889"><ele>242.75</ele><time>2026-04-19T07:29:41.313Z</time></trkpt><trkpt lat="42.7729497" lon="10.3288042"><ele>248.0</ele><time>2026-04-19T07:29:42.306Z</time></trkpt><trkpt lat="42.7730973" lon="10.3288841"><ele>248.00000000000003</ele><time>2026-04-19T07:29:44.313Z</time></trkpt><trkpt lat="42.7731665" lon="10.3289109"><ele>248.0</ele><time>2026-04-19T07:29:45.316Z</time></trkpt><trkpt lat="42.7732583" lon="10.3288195"><ele>248.0</ele><time>2026-04-19T07:29:47.314Z</time></trkpt><trkpt lat="42.773256" lon="10.3287096"><ele>248.0</ele><time>2026-04-19T07:29:48.312Z</time></trkpt><trkpt lat="42.7732177" lon="10.3285946"><ele>248.00000000000003</ele><time>2026-04-19T07:29:49.318Z</time></trkpt><trkpt lat="42.7731593" lon="10.3285031"><ele>248.0</ele><time>2026-04-19T07:29:50.319Z</time></trkpt><trkpt lat="42.7731016" lon="10.3284115"><ele>248.0</ele><time>2026-04-19T07:29:51.323Z</time></trkpt><trkpt lat="42.7730509" lon="10.3283282"><ele>248.0</ele><time>2026-04-19T07:29:52.325Z</time></trkpt><trkpt lat="42.773032" lon="10.3282099"><ele>248.0</ele><time>2026-04-19T07:29:54.324Z</time></trkpt><trkpt lat="42.7731129" lon="10.3281976"><ele>248.0</ele><time>2026-04-19T07:29:57.333Z</time></trkpt><trkpt lat="42.773178" lon="10.3282664"><ele>248.0</ele><time>2026-04-19T07:30:10.327Z</time></trkpt><trkpt lat="42.7733085" lon="10.3284229"><ele>248.0</ele><time>2026-04-19T07:30:14.329Z</time></trkpt><trkpt lat="42.7733806" lon="10.3285164"><ele>248.0</ele><time>2026-04-19T07:30:16.321Z</time></trkpt><trkpt lat="42.7734365" lon="10.3286217"><ele>248.0</ele><time>2026-04-19T07:30:18.332Z</time></trkpt><trkpt lat="42.77347" lon="10.3287441"><ele>248.0</ele><time>2026-04-19T07:30:20.33Z</time></trkpt><trkpt lat="42.7734969" lon="10.3288726"><ele>248.0</ele><time>2026-04-19T07:30:22.327Z</time></trkpt><trkpt lat="42.7735245" lon="10.3290125"><ele>251.83333333333334</ele><time>2026-04-19T07:30:24.33Z</time></trkpt><trkpt lat="42.7735643" lon="10.3291783"><ele>255.66666666666669</ele><time>2026-04-19T07:30:26.326Z</time></trkpt><trkpt lat="42.7735982" lon="10.3292765"><ele>259.5</ele><time>2026-04-19T07:30:27.32Z</time></trkpt><trkpt lat="42.7736349" lon="10.3293661"><ele>263.3333333333333</ele><time>2026-04-19T07:30:28.327Z</time></trkpt><trkpt lat="42.7736661" lon="10.3294443"><ele>267.16666666666663</ele><time>2026-04-19T07:30:29.32Z</time></trkpt><trkpt lat="42.7736981" lon="10.3295227"><ele>271.0</ele><time>2026-04-19T07:30:30.325Z</time></trkpt><trkpt lat="42.7737232" lon="10.3296083"><ele>270.16666666666663</ele><time>2026-04-19T07:30:31.327Z</time></trkpt><trkpt lat="42.7737822" lon="10.3297728"><ele>269.3333333333333</ele><time>2026-04-19T07:30:33.319Z</time></trkpt><trkpt lat="42.7738199" lon="10.3298572"><ele>268.5</ele><time>2026-04-19T07:30:34.328Z</time></trkpt><trkpt lat="42.7738563" lon="10.3299286"><ele>267.6666666666667</ele><time>2026-04-19T07:30:35.328Z</time></trkpt><trkpt lat="42.7738953" lon="10.3299978"><ele>266.83333333333337</ele><time>2026-04-19T07:30:36.326Z</time></trkpt><trkpt lat="42.7739693" lon="10.3300687"><ele>266.0</ele><time>2026-04-19T07:30:38.335Z</time></trkpt><trkpt lat="42.774037" lon="10.3300668"><ele>266.0</ele><time>2026-04-19T07:30:40.331Z</time></trkpt><trkpt lat="42.774106" lon="10.330049"><ele>266.0</ele><time>2026-04-19T07:31:43.337Z</time></trkpt><trkpt lat="42.7742984" lon="10.3299874"><ele>266.0</ele><time>2026-04-19T07:31:46.323Z</time></trkpt><trkpt lat="42.7743688" lon="10.3299258"><ele>266.0</ele><time>2026-04-19T07:31:47.33Z</time></trkpt><trkpt lat="42.774443" lon="10.3298395"><ele>266.0</ele><time>2026-04-19T07:31:48.334Z</time></trkpt><trkpt lat="42.7745076" lon="10.3297369"><ele>264.0</ele><time>2026-04-19T07:31:49.334Z</time></trkpt><trkpt lat="42.7745601" lon="10.3296106"><ele>262.0</ele><time>2026-04-19T07:31:50.337Z</time></trkpt><trkpt lat="42.7745966" lon="10.3294604"><ele>260.0</ele><time>2026-04-19T07:31:51.328Z</time></trkpt><trkpt lat="42.7746156" lon="10.3292987"><ele>258.0</ele><time>2026-04-19T07:31:52.331Z</time></trkpt><trkpt lat="42.7746225" lon="10.329134"><ele>258.0</ele><time>2026-04-19T07:31:53.327Z</time></trkpt><trkpt lat="42.7746195" lon="10.3289745"><ele>258.0</ele><time>2026-04-19T07:31:54.328Z</time></trkpt><trkpt lat="42.7746113" lon="10.3288338"><ele>258.0</ele><time>2026-04-19T07:31:55.332Z</time></trkpt><trkpt lat="42.7745907" lon="10.3287063"><ele>258.0</ele><time>2026-04-19T07:31:56.327Z</time></trkpt><trkpt lat="42.7745666" lon="10.3285868"><ele>258.0</ele><time>2026-04-19T07:31:57.331Z</time></trkpt><trkpt lat="42.7745386" lon="10.3284694"><ele>260.3333333333333</ele><time>2026-04-19T07:31:58.331Z</time></trkpt><trkpt lat="42.7745153" lon="10.328347"><ele>262.6666666666667</ele><time>2026-04-19T07:31:59.33Z</time></trkpt><trkpt lat="42.7745089" lon="10.3282273"><ele>265.0</ele><time>2026-04-19T07:32:00.333Z</time></trkpt><trkpt lat="42.7745161" lon="10.328124"><ele>267.33333333333337</ele><time>2026-04-19T07:32:01.327Z</time></trkpt><trkpt lat="42.7745321" lon="10.3280366"><ele>269.6666666666667</ele><time>2026-04-19T07:32:02.331Z</time></trkpt><trkpt lat="42.7745748" lon="10.3279723"><ele>272.0</ele><time>2026-04-19T07:32:03.338Z</time></trkpt><trkpt lat="42.7746423" lon="10.3279293"><ele>275.0</ele><time>2026-04-19T07:32:04.327Z</time></trkpt><trkpt lat="42.7748097" lon="10.3278688"><ele>278.0</ele><time>2026-04-19T07:32:06.331Z</time></trkpt><trkpt lat="42.7748928" lon="10.3278257"><ele>281.0</ele><time>2026-04-19T07:32:07.329Z</time></trkpt><trkpt lat="42.7749676" lon="10.3277722"><ele>284.0</ele><time>2026-04-19T07:32:08.332Z</time></trkpt><trkpt lat="42.7750404" lon="10.327703"><ele>287.0</ele><time>2026-04-19T07:32:09.326Z</time></trkpt><trkpt lat="42.7751047" lon="10.3276237"><ele>287.0</ele><time>2026-04-19T07:32:10.33Z</time></trkpt><trkpt lat="42.7751597" lon="10.3275327"><ele>287.0</ele><time>2026-04-19T07:32:11.33Z</time></trkpt><trkpt lat="42.7752168" lon="10.3274457"><ele>287.0</ele><time>2026-04-19T07:32:12.331Z</time></trkpt><trkpt lat="42.7752795" lon="10.3273723"><ele>287.0</ele><time>2026-04-19T07:32:13.329Z</time></trkpt><trkpt lat="42.7753528" lon="10.3273118"><ele>287.0</ele><time>2026-04-19T07:32:14.326Z</time></trkpt><trkpt lat="42.775434" lon="10.3272643"><ele>287.0</ele><time>2026-04-19T07:32:15.326Z</time></trkpt><trkpt lat="42.7755236" lon="10.3272315"><ele>290.4</ele><time>2026-04-19T07:32:16.327Z</time></trkpt><trkpt lat="42.7756142" lon="10.3272138"><ele>293.79999999999995</ele><time>2026-04-19T07:32:17.329Z</time></trkpt><trkpt lat="42.7757056" lon="10.3272082"><ele>297.2</ele><time>2026-04-19T07:32:18.329Z</time></trkpt><trkpt lat="42.7758005" lon="10.3272067"><ele>300.59999999999997</ele><time>2026-04-19T07:32:19.328Z</time></trkpt><trkpt lat="42.7758962" lon="10.3271886"><ele>304.0</ele><time>2026-04-19T07:32:20.331Z</time></trkpt><trkpt lat="42.7759801" lon="10.3271425"><ele>298.59999999999997</ele><time>2026-04-19T07:32:21.329Z</time></trkpt><trkpt lat="42.7760599" lon="10.3270557"><ele>293.2</ele><time>2026-04-19T07:32:22.33Z</time></trkpt><trkpt lat="42.7761248" lon="10.3269537"><ele>287.79999999999995</ele><time>2026-04-19T07:32:23.328Z</time></trkpt><trkpt lat="42.7761828" lon="10.3268402"><ele>282.4</ele><time>2026-04-19T07:32:24.325Z</time></trkpt><trkpt lat="42.7762363" lon="10.326726"><ele>277.0</ele><time>2026-04-19T07:32:25.327Z</time></trkpt><trkpt lat="42.7763036" lon="10.3264737"><ele>280.4</ele><time>2026-04-19T07:32:27.325Z</time></trkpt><trkpt lat="42.7763299" lon="10.3263398"><ele>283.79999999999995</ele><time>2026-04-19T07:32:28.322Z</time></trkpt><trkpt lat="42.7763681" lon="10.3262078"><ele>287.2</ele><time>2026-04-19T07:32:29.338Z</time></trkpt><trkpt lat="42.776412" lon="10.3260767"><ele>290.59999999999997</ele><time>2026-04-19T07:32:30.328Z</time></trkpt><trkpt lat="42.7764632" lon="10.325945"><ele>294.0</ele><time>2026-04-19T07:32:31.33Z</time></trkpt><trkpt lat="42.7765222" lon="10.325826"><ele>294.0</ele><time>2026-04-19T07:32:32.33Z</time></trkpt><trkpt lat="42.7765805" lon="10.3257078"><ele>294.0</ele><time>2026-04-19T07:32:33.329Z</time></trkpt><trkpt lat="42.7766439" lon="10.3255964"><ele>294.0</ele><time>2026-04-19T07:32:34.324Z</time></trkpt><trkpt lat="42.7767086" lon="10.3254987"><ele>294.0</ele><time>2026-04-19T07:32:35.324Z</time></trkpt><trkpt lat="42.7767646" lon="10.3253984"><ele>294.0</ele><time>2026-04-19T07:32:36.327Z</time></trkpt><trkpt lat="42.7768036" lon="10.3252865"><ele>294.8</ele><time>2026-04-19T07:32:37.325Z</time></trkpt><trkpt lat="42.7768307" lon="10.3251663"><ele>295.59999999999997</ele><time>2026-04-19T07:32:38.329Z</time></trkpt><trkpt lat="42.7768553" lon="10.3250461"><ele>296.4</ele><time>2026-04-19T07:32:39.329Z</time></trkpt><trkpt lat="42.7768842" lon="10.3249298"><ele>297.2</ele><time>2026-04-19T07:32:40.326Z</time></trkpt><trkpt lat="42.7769131" lon="10.3248042"><ele>298.0</ele><time>2026-04-19T07:32:41.326Z</time></trkpt><trkpt lat="42.7769346" lon="10.3246879"><ele>298.0</ele><time>2026-04-19T07:32:42.327Z</time></trkpt><trkpt lat="42.7769559" lon="10.3245762"><ele>298.0</ele><time>2026-04-19T07:32:43.331Z</time></trkpt><trkpt lat="42.7769706" lon="10.3244527"><ele>298.0</ele><time>2026-04-19T07:32:44.325Z</time></trkpt><trkpt lat="42.7769773" lon="10.3243383"><ele>298.0</ele><time>2026-04-19T07:32:45.322Z</time></trkpt><trkpt lat="42.776978" lon="10.3242442"><ele>298.0</ele><time>2026-04-19T07:32:46.332Z</time></trkpt><trkpt lat="42.7769913" lon="10.3239815"><ele>298.0</ele><time>2026-04-19T07:32:50.328Z</time></trkpt><trkpt lat="42.7770326" lon="10.3239081"><ele>298.0</ele><time>2026-04-19T07:32:53.335Z</time></trkpt><trkpt lat="42.7770779" lon="10.323828"><ele>298.0</ele><time>2026-04-19T07:34:49.343Z</time></trkpt><trkpt lat="42.7771953" lon="10.3236098"><ele>298.0</ele><time>2026-04-19T07:34:53.341Z</time></trkpt><trkpt lat="42.7772636" lon="10.3235124"><ele>298.0</ele><time>2026-04-19T07:34:54.341Z</time></trkpt><trkpt lat="42.7773449" lon="10.323392"><ele>301.0</ele><time>2026-04-19T07:34:55.336Z</time></trkpt><trkpt lat="42.7774346" lon="10.3232657"><ele>304.0</ele><time>2026-04-19T07:34:56.337Z</time></trkpt><trkpt lat="42.7775223" lon="10.3231325"><ele>307.0</ele><time>2026-04-19T07:34:57.332Z</time></trkpt><trkpt lat="42.7776117" lon="10.3229931"><ele>310.0</ele><time>2026-04-19T07:34:58.343Z</time></trkpt><trkpt lat="42.7777001" lon="10.3228793"><ele>314.4</ele><time>2026-04-19T07:34:59.349Z</time></trkpt><trkpt lat="42.7777776" lon="10.3227907"><ele>318.8</ele><time>2026-04-19T07:35:00.344Z</time></trkpt><trkpt lat="42.7778398" lon="10.3227208"><ele>323.20000000000005</ele><time>2026-04-19T07:35:01.344Z</time></trkpt><trkpt lat="42.7778997" lon="10.3226649"><ele>327.6</ele><time>2026-04-19T07:35:02.338Z</time></trkpt><trkpt lat="42.7779894" lon="10.322583"><ele>332.0</ele><time>2026-04-19T07:35:04.339Z</time></trkpt><trkpt lat="42.7780575" lon="10.3224668"><ele>332.0</ele><time>2026-04-19T07:35:06.34Z</time></trkpt><trkpt lat="42.7780927" lon="10.322394"><ele>332.0</ele><time>2026-04-19T07:35:07.326Z</time></trkpt><trkpt lat="42.7781468" lon="10.3222379"><ele>332.0</ele><time>2026-04-19T07:35:09.341Z</time></trkpt><trkpt lat="42.7781848" lon="10.3221477"><ele>332.0</ele><time>2026-04-19T07:35:10.335Z</time></trkpt><trkpt lat="42.7782759" lon="10.321978"><ele>332.0</ele><time>2026-04-19T07:35:12.341Z</time></trkpt><trkpt lat="42.7783202" lon="10.3218882"><ele>335.1666666666667</ele><time>2026-04-19T07:35:13.342Z</time></trkpt><trkpt lat="42.7783635" lon="10.3217959"><ele>338.33333333333337</ele><time>2026-04-19T07:35:14.344Z</time></trkpt><trkpt lat="42.77841" lon="10.3217021"><ele>341.5</ele><time>2026-04-19T07:35:15.344Z</time></trkpt><trkpt lat="42.778461" lon="10.3216051"><ele>344.6666666666667</ele><time>2026-04-19T07:35:16.342Z</time></trkpt><trkpt lat="42.7785118" lon="10.3214978"><ele>347.8333333333333</ele><time>2026-04-19T07:35:17.342Z</time></trkpt><trkpt lat="42.7785588" lon="10.3213876"><ele>351.0</ele><time>2026-04-19T07:35:18.345Z</time></trkpt><trkpt lat="42.7786004" lon="10.3212795"><ele>354.1666666666667</ele><time>2026-04-19T07:35:19.341Z</time></trkpt><trkpt lat="42.7786416" lon="10.321177"><ele>357.3333333333333</ele><time>2026-04-19T07:35:20.342Z</time></trkpt><trkpt lat="42.7786742" lon="10.3210838"><ele>360.5</ele><time>2026-04-19T07:35:21.339Z</time></trkpt><trkpt lat="42.7787011" lon="10.3209432"><ele>363.66666666666663</ele><time>2026-04-19T07:35:23.338Z</time></trkpt><trkpt lat="42.7787182" lon="10.3208536"><ele>366.8333333333333</ele><time>2026-04-19T07:35:25.355Z</time></trkpt><trkpt lat="42.7788003" lon="10.3208681"><ele>370.0</ele><time>2026-04-19T07:39:50.347Z</time></trkpt><trkpt lat="42.7789607" lon="10.3208741"><ele>370.0</ele><time>2026-04-19T07:39:56.339Z</time></trkpt><trkpt lat="42.7790703" lon="10.3208778"><ele>370.0</ele><time>2026-04-19T07:39:58.343Z</time></trkpt><trkpt lat="42.7791714" lon="10.3209082"><ele>370.0</ele><time>2026-04-19T07:40:00.347Z</time></trkpt><trkpt lat="42.7792672" lon="10.3209456"><ele>370.0</ele><time>2026-04-19T07:40:02.346Z</time></trkpt><trkpt lat="42.7793661" lon="10.3209784"><ele>370.0</ele><time>2026-04-19T07:40:04.344Z</time></trkpt><trkpt lat="42.7794315" lon="10.3209976"><ele>369.4285714285714</ele><time>2026-04-19T07:40:05.34Z</time></trkpt><trkpt lat="42.7795063" lon="10.3210152"><ele>368.85714285714283</ele><time>2026-04-19T07:40:06.341Z</time></trkpt><trkpt lat="42.7795822" lon="10.3210376"><ele>368.2857142857143</ele><time>2026-04-19T07:40:07.338Z</time></trkpt><trkpt lat="42.7796561" lon="10.321059"><ele>367.71428571428567</ele><time>2026-04-19T07:40:08.344Z</time></trkpt><trkpt lat="42.7797283" lon="10.32108"><ele>367.14285714285717</ele><time>2026-04-19T07:40:09.352Z</time></trkpt><trkpt lat="42.7798005" lon="10.3211052"><ele>366.57142857142856</ele><time>2026-04-19T07:40:10.333Z</time></trkpt><trkpt lat="42.7798702" lon="10.321127"><ele>366.0</ele><time>2026-04-19T07:40:11.35Z</time></trkpt><trkpt lat="42.7800464" lon="10.3211731"><ele>366.0</ele><time>2026-04-19T07:40:14.34Z</time></trkpt><trkpt lat="42.7801464" lon="10.3211872"><ele>366.0</ele><time>2026-04-19T07:40:16.341Z</time></trkpt><trkpt lat="42.7802378" lon="10.3212218"><ele>366.0</ele><time>2026-04-19T07:40:18.342Z</time></trkpt><trkpt lat="42.7802953" lon="10.3212832"><ele>366.0</ele><time>2026-04-19T07:40:20.337Z</time></trkpt><trkpt lat="42.7803015" lon="10.3214153"><ele>366.0</ele><time>2026-04-19T07:40:22.344Z</time></trkpt><trkpt lat="42.7802972" lon="10.3215509"><ele>365.8333333333333</ele><time>2026-04-19T07:40:24.341Z</time></trkpt><trkpt lat="42.7802761" lon="10.3216715"><ele>365.6666666666667</ele><time>2026-04-19T07:40:26.337Z</time></trkpt><trkpt lat="42.7801922" lon="10.3216868"><ele>365.5</ele><time>2026-04-19T07:40:28.333Z</time></trkpt><trkpt lat="42.7801298" lon="10.3216727"><ele>365.33333333333337</ele><time>2026-04-19T07:40:29.329Z</time></trkpt><trkpt lat="42.780053" lon="10.3216435"><ele>365.1666666666667</ele><time>2026-04-19T07:40:30.333Z</time></trkpt><trkpt lat="42.7799733" lon="10.321604"><ele>365.0</ele><time>2026-04-19T07:40:31.34Z</time></trkpt><trkpt lat="42.7798886" lon="10.32155"><ele>365.0</ele><time>2026-04-19T07:40:32.337Z</time></trkpt><trkpt lat="42.7797266" lon="10.3214687"><ele>365.0</ele><time>2026-04-19T07:40:34.337Z</time></trkpt><trkpt lat="42.7796419" lon="10.3214284"><ele>365.0</ele><time>2026-04-19T07:40:35.342Z</time></trkpt><trkpt lat="42.7795541" lon="10.3213999"><ele>365.0</ele><time>2026-04-19T07:40:36.339Z</time></trkpt><trkpt lat="42.7794688" lon="10.321376"><ele>365.0</ele><time>2026-04-19T07:40:37.333Z</time></trkpt><trkpt lat="42.7793901" lon="10.3213665"><ele>365.83333333333337</ele><time>2026-04-19T07:40:38.334Z</time></trkpt><trkpt lat="42.7793142" lon="10.3213752"><ele>366.6666666666667</ele><time>2026-04-19T07:40:39.332Z</time></trkpt><trkpt lat="42.7792317" lon="10.321406"><ele>367.5</ele><time>2026-04-19T07:40:40.331Z</time></trkpt><trkpt lat="42.7791481" lon="10.3214392"><ele>368.3333333333333</ele><time>2026-04-19T07:40:41.33Z</time></trkpt><trkpt lat="42.7790674" lon="10.3214711"><ele>369.16666666666663</ele><time>2026-04-19T07:40:42.328Z</time></trkpt><trkpt lat="42.7789897" lon="10.3215049"><ele>370.0</ele><time>2026-04-19T07:40:43.328Z</time></trkpt><trkpt lat="42.7789137" lon="10.3215436"><ele>368.3333333333333</ele><time>2026-04-19T07:40:44.334Z</time></trkpt><trkpt lat="42.7788406" lon="10.3215938"><ele>366.66666666666663</ele><time>2026-04-19T07:40:45.333Z</time></trkpt><trkpt lat="42.7787694" lon="10.321641"><ele>365.0</ele><time>2026-04-19T07:40:46.337Z</time></trkpt><trkpt lat="42.7787041" lon="10.3216743"><ele>363.3333333333333</ele><time>2026-04-19T07:40:47.335Z</time></trkpt><trkpt lat="42.778607" lon="10.3216989"><ele>361.6666666666667</ele><time>2026-04-19T07:40:49.331Z</time></trkpt><trkpt lat="42.7785394" lon="10.3217688"><ele>360.0</ele><time>2026-04-19T07:40:51.334Z</time></trkpt><trkpt lat="42.7786422" lon="10.3218408"><ele>360.0</ele><time>2026-04-19T07:40:54.33Z</time></trkpt><trkpt lat="42.77884" lon="10.3218576"><ele>360.0</ele><time>2026-04-19T07:40:56.33Z</time></trkpt><trkpt lat="42.7789413" lon="10.3218742"><ele>360.0</ele><time>2026-04-19T07:40:57.334Z</time></trkpt><trkpt lat="42.7790453" lon="10.3218959"><ele>360.0</ele><time>2026-04-19T07:40:58.335Z</time></trkpt><trkpt lat="42.7791431" lon="10.3219136"><ele>360.0</ele><time>2026-04-19T07:40:59.334Z</time></trkpt><trkpt lat="42.7792396" lon="10.3219398"><ele>360.0</ele><time>2026-04-19T07:41:00.334Z</time></trkpt><trkpt lat="42.7793333" lon="10.3219848"><ele>360.0</ele><time>2026-04-19T07:41:01.336Z</time></trkpt><trkpt lat="42.7794164" lon="10.3220521"><ele>360.0</ele><time>2026-04-19T07:41:02.33Z</time></trkpt><trkpt lat="42.7794878" lon="10.3221328"><ele>360.0</ele><time>2026-04-19T07:41:03.334Z</time></trkpt><trkpt lat="42.779547" lon="10.3222248"><ele>357.8333333333333</ele><time>2026-04-19T07:41:04.331Z</time></trkpt><trkpt lat="42.7796096" lon="10.3223149"><ele>355.6666666666667</ele><time>2026-04-19T07:41:05.333Z</time></trkpt><trkpt lat="42.7796713" lon="10.3224046"><ele>353.5</ele><time>2026-04-19T07:41:06.335Z</time></trkpt><trkpt lat="42.7797217" lon="10.3224923"><ele>351.33333333333337</ele><time>2026-04-19T07:41:07.329Z</time></trkpt><trkpt lat="42.7797644" lon="10.3225778"><ele>349.1666666666667</ele><time>2026-04-19T07:41:08.324Z</time></trkpt><trkpt lat="42.7797972" lon="10.3226642"><ele>347.0</ele><time>2026-04-19T07:41:09.32Z</time></trkpt><trkpt lat="42.7798202" lon="10.3227494"><ele>347.0</ele><time>2026-04-19T07:41:10.326Z</time></trkpt><trkpt lat="42.7798315" lon="10.3228453"><ele>347.0</ele><time>2026-04-19T07:41:11.317Z</time></trkpt><trkpt lat="42.7798365" lon="10.3229477"><ele>347.0</ele><time>2026-04-19T07:41:12.328Z</time></trkpt><trkpt lat="42.7798452" lon="10.3230517"><ele>347.0</ele><time>2026-04-19T07:41:13.33Z</time></trkpt><trkpt lat="42.7798586" lon="10.3231579"><ele>347.0</ele><time>2026-04-19T07:41:14.329Z</time></trkpt><trkpt lat="42.7798713" lon="10.3232545"><ele>347.0</ele><time>2026-04-19T07:41:15.324Z</time></trkpt><trkpt lat="42.7799181" lon="10.3234377"><ele>344.6666666666667</ele><time>2026-04-19T07:41:17.322Z</time></trkpt><trkpt lat="42.779953" lon="10.3235261"><ele>342.33333333333337</ele><time>2026-04-19T07:41:18.328Z</time></trkpt><trkpt lat="42.7799978" lon="10.3236098"><ele>340.0</ele><time>2026-04-19T07:41:19.332Z</time></trkpt><trkpt lat="42.7800573" lon="10.3236788"><ele>337.6666666666667</ele><time>2026-04-19T07:41:20.327Z</time></trkpt><trkpt lat="42.7801313" lon="10.323734"><ele>335.3333333333333</ele><time>2026-04-19T07:41:21.331Z</time></trkpt><trkpt lat="42.7802085" lon="10.323782"><ele>333.0</ele><time>2026-04-19T07:41:22.333Z</time></trkpt><trkpt lat="42.7802882" lon="10.3238321"><ele>333.0</ele><time>2026-04-19T07:41:23.33Z</time></trkpt><trkpt lat="42.7803616" lon="10.323876"><ele>333.0</ele><time>2026-04-19T07:41:24.329Z</time></trkpt><trkpt lat="42.7804315" lon="10.3239303"><ele>333.0</ele><time>2026-04-19T07:41:25.332Z</time></trkpt><trkpt lat="42.7804857" lon="10.3239963"><ele>333.0</ele><time>2026-04-19T07:41:26.326Z</time></trkpt><trkpt lat="42.7805228" lon="10.3240688"><ele>333.0</ele><time>2026-04-19T07:41:27.327Z</time></trkpt><trkpt lat="42.7805461" lon="10.3241504"><ele>333.0</ele><time>2026-04-19T07:41:28.326Z</time></trkpt><trkpt lat="42.7805243" lon="10.324323"><ele>330.59999999999997</ele><time>2026-04-19T07:41:30.328Z</time></trkpt><trkpt lat="42.7804731" lon="10.324423"><ele>328.2</ele><time>2026-04-19T07:41:31.319Z</time></trkpt><trkpt lat="42.780424" lon="10.3245306"><ele>325.8</ele><time>2026-04-19T07:41:32.315Z</time></trkpt><trkpt lat="42.7803761" lon="10.3246497"><ele>323.4</ele><time>2026-04-19T07:41:33.319Z</time></trkpt><trkpt lat="42.7803426" lon="10.3247706"><ele>321.0</ele><time>2026-04-19T07:41:34.314Z</time></trkpt><trkpt lat="42.7803179" lon="10.3248903"><ele>316.8</ele><time>2026-04-19T07:41:35.316Z</time></trkpt><trkpt lat="42.780301" lon="10.3250078"><ele>312.6</ele><time>2026-04-19T07:41:36.317Z</time></trkpt><trkpt lat="42.7803067" lon="10.325239"><ele>308.4</ele><time>2026-04-19T07:41:38.323Z</time></trkpt><trkpt lat="42.7803338" lon="10.3253421"><ele>304.2</ele><time>2026-04-19T07:41:39.327Z</time></trkpt><trkpt lat="42.7803612" lon="10.3254288"><ele>300.0</ele><time>2026-04-19T07:41:40.334Z</time></trkpt><trkpt lat="42.7803873" lon="10.3255226"><ele>296.8333333333333</ele><time>2026-04-19T07:41:41.325Z</time></trkpt><trkpt lat="42.7803958" lon="10.3256195"><ele>293.6666666666667</ele><time>2026-04-19T07:41:42.329Z</time></trkpt><trkpt lat="42.7803849" lon="10.325712"><ele>290.5</ele><time>2026-04-19T07:41:43.329Z</time></trkpt><trkpt lat="42.7803451" lon="10.3258233"><ele>287.33333333333337</ele><time>2026-04-19T07:41:44.329Z</time></trkpt><trkpt lat="42.7803161" lon="10.3259378"><ele>284.1666666666667</ele><time>2026-04-19T07:41:45.329Z</time></trkpt><trkpt lat="42.7802973" lon="10.326043"><ele>281.0</ele><time>2026-04-19T07:41:46.337Z</time></trkpt><trkpt lat="42.7802929" lon="10.3261317"><ele>281.0</ele><time>2026-04-19T07:41:47.329Z</time></trkpt><trkpt lat="42.7803012" lon="10.3262821"><ele>281.0</ele><time>2026-04-19T07:41:49.337Z</time></trkpt><trkpt lat="42.7803162" lon="10.3263827"><ele>281.0</ele><time>2026-04-19T07:41:51.334Z</time></trkpt><trkpt lat="42.7803149" lon="10.3264787"><ele>281.0</ele><time>2026-04-19T07:41:56.338Z</time></trkpt><trkpt lat="42.7803031" lon="10.3265727"><ele>281.0</ele><time>2026-04-19T07:41:59.339Z</time></trkpt><trkpt lat="42.7804264" lon="10.3266693"><ele>281.0</ele><time>2026-04-19T07:42:08.339Z</time></trkpt><trkpt lat="42.7804964" lon="10.3265848"><ele>281.0</ele><time>2026-04-19T07:42:10.335Z</time></trkpt><trkpt lat="42.7805414" lon="10.3265198"><ele>281.0</ele><time>2026-04-19T07:42:11.329Z</time></trkpt><trkpt lat="42.7805873" lon="10.3264525"><ele>281.0</ele><time>2026-04-19T07:42:12.336Z</time></trkpt><trkpt lat="42.7806591" lon="10.3263417"><ele>281.0</ele><time>2026-04-19T07:42:14.337Z</time></trkpt><trkpt lat="42.7807246" lon="10.326226"><ele>281.0</ele><time>2026-04-19T07:42:16.332Z</time></trkpt><trkpt lat="42.7807803" lon="10.3260809"><ele>281.0</ele><time>2026-04-19T07:42:18.326Z</time></trkpt><trkpt lat="42.7808223" lon="10.3259935"><ele>281.0</ele><time>2026-04-19T07:42:19.329Z</time></trkpt><trkpt lat="42.7808653" lon="10.3259156"><ele>281.0</ele><time>2026-04-19T07:42:20.32Z</time></trkpt><trkpt lat="42.7809642" lon="10.3257731"><ele>281.0</ele><time>2026-04-19T07:42:22.328Z</time></trkpt><trkpt lat="42.7810226" lon="10.3257131"><ele>281.0</ele><time>2026-04-19T07:42:23.332Z</time></trkpt><trkpt lat="42.7811052" lon="10.3256813"><ele>277.6</ele><time>2026-04-19T07:42:24.327Z</time></trkpt><trkpt lat="42.7811933" lon="10.325661"><ele>274.20000000000005</ele><time>2026-04-19T07:42:25.329Z</time></trkpt><trkpt lat="42.781286" lon="10.3256628"><ele>270.79999999999995</ele><time>2026-04-19T07:42:26.331Z</time></trkpt><trkpt lat="42.7813802" lon="10.3256876"><ele>267.4</ele><time>2026-04-19T07:42:27.334Z</time></trkpt><trkpt lat="42.7814664" lon="10.325718"><ele>264.0</ele><time>2026-04-19T07:42:28.333Z</time></trkpt><trkpt lat="42.781552" lon="10.3257437"><ele>264.0</ele><time>2026-04-19T07:42:29.335Z</time></trkpt><trkpt lat="42.7816354" lon="10.3257649"><ele>264.0</ele><time>2026-04-19T07:42:30.333Z</time></trkpt><trkpt lat="42.7817152" lon="10.3257646"><ele>264.0</ele><time>2026-04-19T07:42:31.335Z</time></trkpt><trkpt lat="42.7817824" lon="10.3257482"><ele>264.0</ele><time>2026-04-19T07:42:32.331Z</time></trkpt><trkpt lat="42.781845" lon="10.3257134"><ele>264.0</ele><time>2026-04-19T07:42:33.331Z</time></trkpt><trkpt lat="42.7819091" lon="10.3256669"><ele>264.0</ele><time>2026-04-19T07:42:34.33Z</time></trkpt><trkpt lat="42.7819824" lon="10.3256191"><ele>261.8333333333333</ele><time>2026-04-19T07:42:35.333Z</time></trkpt><trkpt lat="42.7820682" lon="10.3255788"><ele>259.6666666666667</ele><time>2026-04-19T07:42:36.335Z</time></trkpt><trkpt lat="42.7821508" lon="10.3255477"><ele>257.5</ele><time>2026-04-19T07:42:37.336Z</time></trkpt><trkpt lat="42.7822204" lon="10.3255175"><ele>255.33333333333334</ele><time>2026-04-19T07:42:38.334Z</time></trkpt><trkpt lat="42.7823382" lon="10.3254595"><ele>253.16666666666669</ele><time>2026-04-19T07:42:40.342Z</time></trkpt><trkpt lat="42.7824031" lon="10.325426"><ele>251.0</ele><time>2026-04-19T07:42:41.337Z</time></trkpt><trkpt lat="42.7825257" lon="10.3254549"><ele>251.0</ele><time>2026-04-19T07:42:43.341Z</time></trkpt><trkpt lat="42.7825879" lon="10.3255399"><ele>251.00000000000003</ele><time>2026-04-19T07:42:44.344Z</time></trkpt><trkpt lat="42.7826523" lon="10.3256508"><ele>251.00000000000003</ele><time>2026-04-19T07:42:45.344Z</time></trkpt><trkpt lat="42.7826961" lon="10.3257885"><ele>251.0</ele><time>2026-04-19T07:42:46.346Z</time></trkpt><trkpt lat="42.7827192" lon="10.3259094"><ele>251.0</ele><time>2026-04-19T07:42:47.341Z</time></trkpt><trkpt lat="42.782731" lon="10.3260132"><ele>248.66666666666669</ele><time>2026-04-19T07:42:48.34Z</time></trkpt><trkpt lat="42.7827456" lon="10.3261049"><ele>246.33333333333334</ele><time>2026-04-19T07:42:49.344Z</time></trkpt><trkpt lat="42.7827747" lon="10.3261934"><ele>244.0</ele><time>2026-04-19T07:42:50.333Z</time></trkpt><trkpt lat="42.782823" lon="10.3262769"><ele>241.66666666666669</ele><time>2026-04-19T07:42:51.336Z</time></trkpt><trkpt lat="42.7828897" lon="10.3263666"><ele>239.33333333333334</ele><time>2026-04-19T07:42:52.35Z</time></trkpt><trkpt lat="42.7829629" lon="10.3264515"><ele>237.0</ele><time>2026-04-19T07:42:53.342Z</time></trkpt><trkpt lat="42.783026" lon="10.3265266"><ele>237.0</ele><time>2026-04-19T07:42:54.344Z</time></trkpt><trkpt lat="42.7830822" lon="10.3265802"><ele>237.0</ele><time>2026-04-19T07:42:55.345Z</time></trkpt><trkpt lat="42.7831813" lon="10.3266587"><ele>237.0</ele><time>2026-04-19T07:42:57.344Z</time></trkpt><trkpt lat="42.7832776" lon="10.3266971"><ele>237.0</ele><time>2026-04-19T07:42:59.343Z</time></trkpt><trkpt lat="42.7834045" lon="10.3267073"><ele>237.0</ele><time>2026-04-19T07:43:01.344Z</time></trkpt><trkpt lat="42.7835196" lon="10.3267128"><ele>233.25</ele><time>2026-04-19T07:43:03.345Z</time></trkpt><trkpt lat="42.7837426" lon="10.3267526"><ele>229.5</ele><time>2026-04-19T07:43:07.343Z</time></trkpt><trkpt lat="42.7837964" lon="10.3268208"><ele>225.75</ele><time>2026-04-19T07:43:08.339Z</time></trkpt><trkpt lat="42.7838381" lon="10.3268998"><ele>222.0</ele><time>2026-04-19T07:43:09.343Z</time></trkpt><trkpt lat="42.783896" lon="10.327014"><ele>222.0</ele><time>2026-04-19T07:43:11.335Z</time></trkpt><trkpt lat="42.7839279" lon="10.3270902"><ele>222.0</ele><time>2026-04-19T07:43:13.337Z</time></trkpt><trkpt lat="42.7839596" lon="10.3271841"><ele>222.0</ele><time>2026-04-19T07:43:17.344Z</time></trkpt><trkpt lat="42.7839631" lon="10.327281"><ele>222.0</ele><time>2026-04-19T07:49:19.35Z</time></trkpt><trkpt lat="42.7839977" lon="10.3275051"><ele>222.0</ele><time>2026-04-19T07:49:23.346Z</time></trkpt><trkpt lat="42.7840888" lon="10.3275912"><ele>220.75</ele><time>2026-04-19T07:49:25.352Z</time></trkpt><trkpt lat="42.7841951" lon="10.3276646"><ele>219.5</ele><time>2026-04-19T07:49:27.351Z</time></trkpt><trkpt lat="42.7843064" lon="10.3277213"><ele>218.25</ele><time>2026-04-19T07:49:29.355Z</time></trkpt><trkpt lat="42.7844159" lon="10.3277522"><ele>217.0</ele><time>2026-04-19T07:49:31.353Z</time></trkpt><trkpt lat="42.7845151" lon="10.3276863"><ele>212.8</ele><time>2026-04-19T07:49:33.349Z</time></trkpt><trkpt lat="42.7845611" lon="10.3275541"><ele>208.6</ele><time>2026-04-19T07:49:35.348Z</time></trkpt><trkpt lat="42.7845246" lon="10.3274161"><ele>204.4</ele><time>2026-04-19T07:49:37.349Z</time></trkpt><trkpt lat="42.7845366" lon="10.3273258"><ele>200.20000000000002</ele><time>2026-04-19T07:49:39.349Z</time></trkpt><trkpt lat="42.7845917" lon="10.3273964"><ele>196.0</ele><time>2026-04-19T07:49:43.35Z</time></trkpt><trkpt lat="42.7846083" lon="10.3276137"><ele>196.0</ele><time>2026-04-19T07:49:59.351Z</time></trkpt><trkpt lat="42.7846025" lon="10.3277691"><ele>196.0</ele><time>2026-04-19T07:50:01.346Z</time></trkpt><trkpt lat="42.7845692" lon="10.3279026"><ele>196.0</ele><time>2026-04-19T07:50:03.34Z</time></trkpt><trkpt lat="42.7844956" lon="10.3279873"><ele>196.0</ele><time>2026-04-19T07:50:05.339Z</time></trkpt><trkpt lat="42.7842588" lon="10.3280488"><ele>195.8</ele><time>2026-04-19T07:50:09.333Z</time></trkpt><trkpt lat="42.7841624" lon="10.3280631"><ele>195.60000000000002</ele><time>2026-04-19T07:50:11.339Z</time></trkpt><trkpt lat="42.7841353" lon="10.3281532"><ele>195.4</ele><time>2026-04-19T07:50:13.34Z</time></trkpt><trkpt lat="42.784212" lon="10.3281969"><ele>195.2</ele><time>2026-04-19T07:50:15.333Z</time></trkpt><trkpt lat="42.7843389" lon="10.3281994"><ele>195.0</ele><time>2026-04-19T07:50:17.336Z</time></trkpt><trkpt lat="42.784414" lon="10.3282159"><ele>193.83333333333334</ele><time>2026-04-19T07:50:18.331Z</time></trkpt><trkpt lat="42.7844905" lon="10.3282366"><ele>192.66666666666666</ele><time>2026-04-19T07:50:19.333Z</time></trkpt><trkpt lat="42.7845738" lon="10.32826"><ele>191.5</ele><time>2026-04-19T07:50:20.33Z</time></trkpt><trkpt lat="42.7846503" lon="10.3282805"><ele>190.33333333333331</ele><time>2026-04-19T07:50:21.329Z</time></trkpt><trkpt lat="42.7847234" lon="10.3282937"><ele>189.16666666666666</ele><time>2026-04-19T07:50:22.33Z</time></trkpt><trkpt lat="42.7847955" lon="10.3282981"><ele>188.0</ele><time>2026-04-19T07:50:23.331Z</time></trkpt><trkpt lat="42.7848727" lon="10.3282956"><ele>188.0</ele><time>2026-04-19T07:50:24.331Z</time></trkpt><trkpt lat="42.7849493" lon="10.3282768"><ele>188.0</ele><time>2026-04-19T07:50:25.331Z</time></trkpt><trkpt lat="42.7850217" lon="10.3282403"><ele>188.0</ele><time>2026-04-19T07:50:26.329Z</time></trkpt><trkpt lat="42.7851436" lon="10.328146"><ele>188.0</ele><time>2026-04-19T07:50:28.338Z</time></trkpt><trkpt lat="42.7852075" lon="10.3281285"><ele>188.0</ele><time>2026-04-19T07:50:29.34Z</time></trkpt><trkpt lat="42.7852756" lon="10.3281293"><ele>188.0</ele><time>2026-04-19T07:50:30.334Z</time></trkpt><trkpt lat="42.7853403" lon="10.3281512"><ele>186.16666666666666</ele><time>2026-04-19T07:50:31.338Z</time></trkpt><trkpt lat="42.7854028" lon="10.3281917"><ele>184.33333333333331</ele><time>2026-04-19T07:50:32.344Z</time></trkpt><trkpt lat="42.785464" lon="10.3282315"><ele>182.5</ele><time>2026-04-19T07:50:33.346Z</time></trkpt><trkpt lat="42.7855321" lon="10.3282671"><ele>180.66666666666666</ele><time>2026-04-19T07:50:34.341Z</time></trkpt><trkpt lat="42.7856029" lon="10.3282886"><ele>178.83333333333334</ele><time>2026-04-19T07:50:35.336Z</time></trkpt><trkpt lat="42.785672" lon="10.328306"><ele>177.0</ele><time>2026-04-19T07:50:36.349Z</time></trkpt><trkpt lat="42.7857774" lon="10.3283423"><ele>177.0</ele><time>2026-04-19T07:50:38.34Z</time></trkpt><trkpt lat="42.7858402" lon="10.328329"><ele>177.0</ele><time>2026-04-19T07:50:40.348Z</time></trkpt><trkpt lat="42.7858158" lon="10.3282411"><ele>177.0</ele><time>2026-04-19T07:50:42.337Z</time></trkpt><trkpt lat="42.7857584" lon="10.3281155"><ele>177.0</ele><time>2026-04-19T07:50:44.337Z</time></trkpt><trkpt lat="42.7857255" lon="10.32803"><ele>177.0</ele><time>2026-04-19T07:50:45.339Z</time></trkpt><trkpt lat="42.7856846" lon="10.3279283"><ele>177.0</ele><time>2026-04-19T07:50:46.338Z</time></trkpt><trkpt lat="42.7856395" lon="10.3278178"><ele>177.0</ele><time>2026-04-19T07:50:47.344Z</time></trkpt><trkpt lat="42.7855899" lon="10.3275896"><ele>177.0</ele><time>2026-04-19T07:50:49.344Z</time></trkpt><trkpt lat="42.7855853" lon="10.3274763"><ele>177.0</ele><time>2026-04-19T07:50:50.336Z</time></trkpt><trkpt lat="42.7855903" lon="10.3273631"><ele>177.0</ele><time>2026-04-19T07:50:51.348Z</time></trkpt><trkpt lat="42.7856143" lon="10.3272463"><ele>177.0</ele><time>2026-04-19T07:50:52.344Z</time></trkpt><trkpt lat="42.7856418" lon="10.3271287"><ele>176.5</ele><time>2026-04-19T07:50:53.337Z</time></trkpt><trkpt lat="42.7856628" lon="10.3270023"><ele>176.0</ele><time>2026-04-19T07:50:54.346Z</time></trkpt><trkpt lat="42.7856665" lon="10.3268966"><ele>175.5</ele><time>2026-04-19T07:50:55.341Z</time></trkpt><trkpt lat="42.7856511" lon="10.3268086"><ele>175.0</ele><time>2026-04-19T07:50:56.35Z</time></trkpt><trkpt lat="42.7856283" lon="10.3267266"><ele>174.5</ele><time>2026-04-19T07:50:57.345Z</time></trkpt><trkpt lat="42.7856028" lon="10.3266381"><ele>174.0</ele><time>2026-04-19T07:50:58.343Z</time></trkpt><trkpt lat="42.785574" lon="10.3265385"><ele>174.0</ele><time>2026-04-19T07:50:59.342Z</time></trkpt><trkpt lat="42.7855565" lon="10.3264378"><ele>174.0</ele><time>2026-04-19T07:51:00.342Z</time></trkpt><trkpt lat="42.7855646" lon="10.326338"><ele>174.0</ele><time>2026-04-19T07:51:01.341Z</time></trkpt><trkpt lat="42.785592" lon="10.3262459"><ele>174.0</ele><time>2026-04-19T07:51:02.333Z</time></trkpt><trkpt lat="42.7856285" lon="10.3261485"><ele>174.0</ele><time>2026-04-19T07:51:03.343Z</time></trkpt><trkpt lat="42.7856617" lon="10.3260426"><ele>174.0</ele><time>2026-04-19T07:51:04.34Z</time></trkpt><trkpt lat="42.7856793" lon="10.3259345"><ele>174.0</ele><time>2026-04-19T07:51:05.339Z</time></trkpt><trkpt lat="42.7856799" lon="10.3258168"><ele>174.0</ele><time>2026-04-19T07:51:06.333Z</time></trkpt><trkpt lat="42.7856675" lon="10.325698"><ele>174.0</ele><time>2026-04-19T07:51:07.34Z</time></trkpt><trkpt lat="42.7856493" lon="10.3255732"><ele>174.0</ele><time>2026-04-19T07:51:08.343Z</time></trkpt><trkpt lat="42.7856109" lon="10.3253467"><ele>174.0</ele><time>2026-04-19T07:51:10.337Z</time></trkpt><trkpt lat="42.7855811" lon="10.3252488"><ele>173.16666666666666</ele><time>2026-04-19T07:51:11.336Z</time></trkpt><trkpt lat="42.78555" lon="10.3251578"><ele>172.33333333333334</ele><time>2026-04-19T07:51:12.334Z</time></trkpt><trkpt lat="42.7855266" lon="10.3250627"><ele>171.5</ele><time>2026-04-19T07:51:13.331Z</time></trkpt><trkpt lat="42.78551" lon="10.3249538"><ele>170.66666666666669</ele><time>2026-04-19T07:51:14.34Z</time></trkpt><trkpt lat="42.7854929" lon="10.3248376"><ele>169.83333333333334</ele><time>2026-04-19T07:51:15.335Z</time></trkpt><trkpt lat="42.7854705" lon="10.3247349"><ele>169.0</ele><time>2026-04-19T07:51:16.337Z</time></trkpt><trkpt lat="42.78544" lon="10.3246371"><ele>167.42857142857144</ele><time>2026-04-19T07:51:17.34Z</time></trkpt><trkpt lat="42.7854145" lon="10.3245453"><ele>165.85714285714286</ele><time>2026-04-19T07:51:18.338Z</time></trkpt><trkpt lat="42.7853887" lon="10.3244526"><ele>164.28571428571428</ele><time>2026-04-19T07:51:19.328Z</time></trkpt><trkpt lat="42.785354" lon="10.324368"><ele>162.71428571428572</ele><time>2026-04-19T07:51:20.338Z</time></trkpt><trkpt lat="42.7853147" lon="10.3242925"><ele>161.14285714285714</ele><time>2026-04-19T07:51:21.334Z</time></trkpt><trkpt lat="42.7852718" lon="10.3242161"><ele>159.57142857142858</ele><time>2026-04-19T07:51:22.333Z</time></trkpt><trkpt lat="42.7852285" lon="10.3241359"><ele>158.0</ele><time>2026-04-19T07:51:23.338Z</time></trkpt><trkpt lat="42.7851896" lon="10.3240581"><ele>160.33333333333331</ele><time>2026-04-19T07:51:24.33Z</time></trkpt><trkpt lat="42.7851472" lon="10.3239801"><ele>162.66666666666666</ele><time>2026-04-19T07:51:25.334Z</time></trkpt><trkpt lat="42.7851077" lon="10.3238936"><ele>165.0</ele><time>2026-04-19T07:51:26.322Z</time></trkpt><trkpt lat="42.7850697" lon="10.3237977"><ele>167.33333333333334</ele><time>2026-04-19T07:51:27.32Z</time></trkpt><trkpt lat="42.7850371" lon="10.3236947"><ele>169.66666666666669</ele><time>2026-04-19T07:51:28.322Z</time></trkpt><trkpt lat="42.7850129" lon="10.3235923"><ele>172.0</ele><time>2026-04-19T07:51:29.323Z</time></trkpt><trkpt lat="42.7849638" lon="10.3233983"><ele>172.0</ele><time>2026-04-19T07:51:31.317Z</time></trkpt><trkpt lat="42.7849291" lon="10.3232987"><ele>172.0</ele><time>2026-04-19T07:51:32.316Z</time></trkpt><trkpt lat="42.7848901" lon="10.323205"><ele>172.0</ele><time>2026-04-19T07:51:33.316Z</time></trkpt><trkpt lat="42.7848636" lon="10.3231149"><ele>172.0</ele><time>2026-04-19T07:51:34.32Z</time></trkpt><trkpt lat="42.7848529" lon="10.3230287"><ele>172.0</ele><time>2026-04-19T07:51:35.327Z</time></trkpt><trkpt lat="42.7848514" lon="10.3228707"><ele>172.0</ele><time>2026-04-19T07:51:37.332Z</time></trkpt><trkpt lat="42.7848471" lon="10.3227842"><ele>170.6</ele><time>2026-04-19T07:51:38.325Z</time></trkpt><trkpt lat="42.784839" lon="10.3226279"><ele>169.2</ele><time>2026-04-19T07:51:40.328Z</time></trkpt><trkpt lat="42.7848648" lon="10.3224825"><ele>167.8</ele><time>2026-04-19T07:51:42.332Z</time></trkpt><trkpt lat="42.7849278" lon="10.3223401"><ele>166.4</ele><time>2026-04-19T07:51:44.339Z</time></trkpt><trkpt lat="42.7849433" lon="10.3222553"><ele>165.0</ele><time>2026-04-19T07:51:45.332Z</time></trkpt><trkpt lat="42.7848925" lon="10.3221073"><ele>164.6</ele><time>2026-04-19T07:51:47.336Z</time></trkpt><trkpt lat="42.7848476" lon="10.3220442"><ele>164.2</ele><time>2026-04-19T07:51:48.332Z</time></trkpt><trkpt lat="42.7848013" lon="10.3219856"><ele>163.8</ele><time>2026-04-19T07:51:49.337Z</time></trkpt><trkpt lat="42.784737" lon="10.3218799"><ele>163.4</ele><time>2026-04-19T07:51:51.326Z</time></trkpt><trkpt lat="42.7847767" lon="10.3216756"><ele>163.0</ele><time>2026-04-19T07:51:55.333Z</time></trkpt><trkpt lat="42.7848514" lon="10.3215901"><ele>163.0</ele><time>2026-04-19T07:51:57.329Z</time></trkpt><trkpt lat="42.7849429" lon="10.3215218"><ele>163.0</ele><time>2026-04-19T07:51:59.325Z</time></trkpt><trkpt lat="42.7850127" lon="10.3214878"><ele>163.0</ele><time>2026-04-19T07:52:00.321Z</time></trkpt><trkpt lat="42.7850893" lon="10.3214322"><ele>163.0</ele><time>2026-04-19T07:52:01.33Z</time></trkpt><trkpt lat="42.7851673" lon="10.3213621"><ele>163.0</ele><time>2026-04-19T07:52:02.331Z</time></trkpt><trkpt lat="42.7852377" lon="10.3212808"><ele>160.33333333333334</ele><time>2026-04-19T07:52:03.341Z</time></trkpt><trkpt lat="42.7852992" lon="10.3211928"><ele>157.66666666666669</ele><time>2026-04-19T07:52:04.335Z</time></trkpt><trkpt lat="42.7853379" lon="10.3210956"><ele>155.0</ele><time>2026-04-19T07:52:05.343Z</time></trkpt><trkpt lat="42.7853482" lon="10.3209829"><ele>152.33333333333334</ele><time>2026-04-19T07:52:06.33Z</time></trkpt><trkpt lat="42.7853323" lon="10.3208647"><ele>149.66666666666666</ele><time>2026-04-19T07:52:07.337Z</time></trkpt><trkpt lat="42.7852956" lon="10.3207702"><ele>147.0</ele><time>2026-04-19T07:52:08.339Z</time></trkpt><trkpt lat="42.7852392" lon="10.3207085"><ele>148.6</ele><time>2026-04-19T07:52:09.332Z</time></trkpt><trkpt lat="42.7851738" lon="10.3206365"><ele>150.2</ele><time>2026-04-19T07:52:10.333Z</time></trkpt><trkpt lat="42.7851265" lon="10.3205707"><ele>151.8</ele><time>2026-04-19T07:52:11.335Z</time></trkpt><trkpt lat="42.7851755" lon="10.3205004"><ele>153.4</ele><time>2026-04-19T07:52:33.336Z</time></trkpt><trkpt lat="42.7853113" lon="10.3204286"><ele>155.0</ele><time>2026-04-19T07:52:44.335Z</time></trkpt><trkpt lat="42.7853896" lon="10.3203945"><ele>155.0</ele><time>2026-04-19T07:52:47.326Z</time></trkpt><trkpt lat="42.7854519" lon="10.320364"><ele>155.0</ele><time>2026-04-19T07:52:50.331Z</time></trkpt><trkpt lat="42.7855255" lon="10.3203416"><ele>155.0</ele><time>2026-04-19T07:52:53.331Z</time></trkpt><trkpt lat="42.7856073" lon="10.32032"><ele>155.0</ele><time>2026-04-19T07:52:56.341Z</time></trkpt><trkpt lat="42.785757" lon="10.3202553"><ele>155.0</ele><time>2026-04-19T07:53:29.35Z</time></trkpt><trkpt lat="42.7858601" lon="10.3203781"><ele>155.0</ele><time>2026-04-19T07:53:37.337Z</time></trkpt><trkpt lat="42.7859227" lon="10.320439"><ele>155.0</ele><time>2026-04-19T07:53:40.34Z</time></trkpt><trkpt lat="42.7860012" lon="10.3203956"><ele>155.0</ele><time>2026-04-19T07:53:43.346Z</time></trkpt><trkpt lat="42.7860453" lon="10.3203057"><ele>155.0</ele><time>2026-04-19T07:53:47.344Z</time></trkpt><trkpt lat="42.7861036" lon="10.3202476"><ele>155.0</ele><time>2026-04-19T07:53:50.342Z</time></trkpt><trkpt lat="42.7862246" lon="10.3203771"><ele>150.16666666666666</ele><time>2026-04-19T07:53:58.345Z</time></trkpt><trkpt lat="42.7862958" lon="10.3204226"><ele>145.33333333333331</ele><time>2026-04-19T07:54:02.346Z</time></trkpt><trkpt lat="42.7863577" lon="10.3204646"><ele>140.5</ele><time>2026-04-19T07:54:05.346Z</time></trkpt><trkpt lat="42.7864197" lon="10.3204995"><ele>135.66666666666666</ele><time>2026-04-19T07:54:07.346Z</time></trkpt><trkpt lat="42.786492" lon="10.3205067"><ele>130.83333333333334</ele><time>2026-04-19T07:54:09.348Z</time></trkpt><trkpt lat="42.786583" lon="10.3204948"><ele>126.0</ele><time>2026-04-19T07:54:11.34Z</time></trkpt><trkpt lat="42.7867327" lon="10.3204904"><ele>126.0</ele><time>2026-04-19T07:54:15.339Z</time></trkpt><trkpt lat="42.786825" lon="10.3205149"><ele>126.0</ele><time>2026-04-19T07:54:18.337Z</time></trkpt><trkpt lat="42.7868908" lon="10.32047"><ele>126.0</ele><time>2026-04-19T07:54:20.338Z</time></trkpt><trkpt lat="42.7868379" lon="10.3203568"><ele>126.0</ele><time>2026-04-19T07:54:57.358Z</time></trkpt><trkpt lat="42.7868291" lon="10.3201581"><ele>126.0</ele><time>2026-04-19T07:55:01.333Z</time></trkpt><trkpt lat="42.7869489" lon="10.3201221"><ele>123.83333333333333</ele><time>2026-04-19T07:55:03.342Z</time></trkpt><trkpt lat="42.7870437" lon="10.3201094"><ele>121.66666666666666</ele><time>2026-04-19T07:55:04.333Z</time></trkpt><trkpt lat="42.7871402" lon="10.3200879"><ele>119.5</ele><time>2026-04-19T07:55:05.327Z</time></trkpt><trkpt lat="42.7872271" lon="10.3200581"><ele>117.33333333333333</ele><time>2026-04-19T07:55:06.33Z</time></trkpt><trkpt lat="42.7873021" lon="10.3200187"><ele>115.16666666666666</ele><time>2026-04-19T07:55:07.329Z</time></trkpt><trkpt lat="42.7873782" lon="10.3199731"><ele>113.0</ele><time>2026-04-19T07:55:08.332Z</time></trkpt><trkpt lat="42.787455" lon="10.3199212"><ele>112.99999999999999</ele><time>2026-04-19T07:55:09.329Z</time></trkpt><trkpt lat="42.7875293" lon="10.3198647"><ele>113.0</ele><time>2026-04-19T07:55:10.326Z</time></trkpt><trkpt lat="42.7875978" lon="10.3198056"><ele>113.0</ele><time>2026-04-19T07:55:11.33Z</time></trkpt><trkpt lat="42.7876646" lon="10.3197445"><ele>113.0</ele><time>2026-04-19T07:55:12.329Z</time></trkpt><trkpt lat="42.7877256" lon="10.3196869"><ele>112.99999999999999</ele><time>2026-04-19T07:55:13.328Z</time></trkpt><trkpt lat="42.7877853" lon="10.3196323"><ele>113.0</ele><time>2026-04-19T07:55:14.322Z</time></trkpt><trkpt lat="42.7878568" lon="10.3195221"><ele>110.0</ele><time>2026-04-19T07:55:16.327Z</time></trkpt><trkpt lat="42.7878038" lon="10.3194404"><ele>107.00000000000001</ele><time>2026-04-19T07:55:18.33Z</time></trkpt><trkpt lat="42.787649" lon="10.3194488"><ele>104.0</ele><time>2026-04-19T07:55:20.321Z</time></trkpt><trkpt lat="42.7875633" lon="10.3194672"><ele>101.0</ele><time>2026-04-19T07:55:21.322Z</time></trkpt><trkpt lat="42.7874898" lon="10.3194743"><ele>98.0</ele><time>2026-04-19T07:55:22.32Z</time></trkpt><trkpt lat="42.7874024" lon="10.319421"><ele>97.99999999999999</ele><time>2026-04-19T07:55:24.326Z</time></trkpt><trkpt lat="42.7874484" lon="10.319314"><ele>98.0</ele><time>2026-04-19T07:55:26.33Z</time></trkpt><trkpt lat="42.7875157" lon="10.3192499"><ele>98.0</ele><time>2026-04-19T07:55:27.327Z</time></trkpt><trkpt lat="42.7875965" lon="10.3191766"><ele>98.0</ele><time>2026-04-19T07:55:28.331Z</time></trkpt><trkpt lat="42.7876569" lon="10.3191091"><ele>97.99999999999999</ele><time>2026-04-19T07:55:29.332Z</time></trkpt><trkpt lat="42.7877072" lon="10.3190572"><ele>98.0</ele><time>2026-04-19T07:55:30.328Z</time></trkpt><trkpt lat="42.7878154" lon="10.3189963"><ele>95.49999999999999</ele><time>2026-04-19T07:55:32.327Z</time></trkpt><trkpt lat="42.7878843" lon="10.3190037"><ele>93.0</ele><time>2026-04-19T07:55:33.336Z</time></trkpt><trkpt lat="42.7879574" lon="10.3190187"><ele>90.5</ele><time>2026-04-19T07:55:34.332Z</time></trkpt><trkpt lat="42.7880332" lon="10.3190252"><ele>88.0</ele><time>2026-04-19T07:55:35.333Z</time></trkpt><trkpt lat="42.788111" lon="10.3190257"><ele>85.5</ele><time>2026-04-19T07:55:36.329Z</time></trkpt><trkpt lat="42.7881971" lon="10.3190251"><ele>83.0</ele><time>2026-04-19T07:55:37.325Z</time></trkpt><trkpt lat="42.7882858" lon="10.3190258"><ele>83.0</ele><time>2026-04-19T07:55:38.331Z</time></trkpt><trkpt lat="42.7883789" lon="10.3190231"><ele>83.0</ele><time>2026-04-19T07:55:39.328Z</time></trkpt><trkpt lat="42.7885709" lon="10.3190154"><ele>83.0</ele><time>2026-04-19T07:55:41.332Z</time></trkpt><trkpt lat="42.7886683" lon="10.3190172"><ele>83.0</ele><time>2026-04-19T07:55:42.333Z</time></trkpt><trkpt lat="42.7887629" lon="10.3190222"><ele>81.16666666666667</ele><time>2026-04-19T07:55:43.333Z</time></trkpt><trkpt lat="42.7888533" lon="10.3190193"><ele>79.33333333333334</ele><time>2026-04-19T07:55:44.331Z</time></trkpt><trkpt lat="42.788943" lon="10.3190153"><ele>77.5</ele><time>2026-04-19T07:55:45.331Z</time></trkpt><trkpt lat="42.7890299" lon="10.3190052"><ele>75.66666666666667</ele><time>2026-04-19T07:55:46.33Z</time></trkpt><trkpt lat="42.7891153" lon="10.3189945"><ele>73.83333333333333</ele><time>2026-04-19T07:55:47.333Z</time></trkpt><trkpt lat="42.7891977" lon="10.318987"><ele>72.0</ele><time>2026-04-19T07:55:48.333Z</time></trkpt><trkpt lat="42.7892804" lon="10.3189766"><ele>70.5</ele><time>2026-04-19T07:55:49.329Z</time></trkpt><trkpt lat="42.7893603" lon="10.3189669"><ele>69.0</ele><time>2026-04-19T07:55:50.333Z</time></trkpt><trkpt lat="42.7894412" lon="10.3189582"><ele>67.5</ele><time>2026-04-19T07:55:51.333Z</time></trkpt><trkpt lat="42.7895289" lon="10.3189472"><ele>66.0</ele><time>2026-04-19T07:55:52.331Z</time></trkpt><trkpt lat="42.789617" lon="10.3189314"><ele>64.5</ele><time>2026-04-19T07:55:53.327Z</time></trkpt><trkpt lat="42.789708" lon="10.3189077"><ele>63.0</ele><time>2026-04-19T07:55:54.33Z</time></trkpt><trkpt lat="42.7897998" lon="10.3188834"><ele>63.0</ele><time>2026-04-19T07:55:55.33Z</time></trkpt><trkpt lat="42.789889" lon="10.3188744"><ele>63.0</ele><time>2026-04-19T07:55:56.327Z</time></trkpt><trkpt lat="42.7899713" lon="10.3188854"><ele>63.0</ele><time>2026-04-19T07:55:57.326Z</time></trkpt><trkpt lat="42.7900463" lon="10.3189156"><ele>63.0</ele><time>2026-04-19T07:55:58.326Z</time></trkpt><trkpt lat="42.7901115" lon="10.3189543"><ele>63.0</ele><time>2026-04-19T07:55:59.331Z</time></trkpt><trkpt lat="42.7901735" lon="10.3189901"><ele>63.0</ele><time>2026-04-19T07:56:00.327Z</time></trkpt><trkpt lat="42.7903092" lon="10.3190198"><ele>60.2</ele><time>2026-04-19T07:56:02.325Z</time></trkpt><trkpt lat="42.7903947" lon="10.3190272"><ele>57.4</ele><time>2026-04-19T07:56:03.325Z</time></trkpt><trkpt lat="42.7904896" lon="10.3190481"><ele>54.6</ele><time>2026-04-19T07:56:04.323Z</time></trkpt><trkpt lat="42.7905929" lon="10.3190831"><ele>51.800000000000004</ele><time>2026-04-19T07:56:05.32Z</time></trkpt><trkpt lat="42.7906963" lon="10.3191291"><ele>49.0</ele><time>2026-04-19T07:56:06.326Z</time></trkpt><trkpt lat="42.7908028" lon="10.3191737"><ele>49.0</ele><time>2026-04-19T07:56:07.325Z</time></trkpt><trkpt lat="42.7909085" lon="10.3192072"><ele>49.0</ele><time>2026-04-19T07:56:08.325Z</time></trkpt><trkpt lat="42.7910122" lon="10.319223"><ele>49.0</ele><time>2026-04-19T07:56:09.331Z</time></trkpt><trkpt lat="42.7911121" lon="10.3192307"><ele>49.0</ele><time>2026-04-19T07:56:10.331Z</time></trkpt><trkpt lat="42.7912127" lon="10.3192378"><ele>49.0</ele><time>2026-04-19T07:56:11.331Z</time></trkpt><trkpt lat="42.7913097" lon="10.3192608"><ele>46.2</ele><time>2026-04-19T07:56:12.327Z</time></trkpt><trkpt lat="42.7914005" lon="10.3192978"><ele>43.400000000000006</ele><time>2026-04-19T07:56:13.328Z</time></trkpt><trkpt lat="42.7914881" lon="10.3193505"><ele>40.6</ele><time>2026-04-19T07:56:14.332Z</time></trkpt><trkpt lat="42.7915711" lon="10.319417"><ele>37.8</ele><time>2026-04-19T07:56:15.331Z</time></trkpt><trkpt lat="42.7916501" lon="10.3194848"><ele>35.0</ele><time>2026-04-19T07:56:16.33Z</time></trkpt><trkpt lat="42.7917354" lon="10.3195418"><ele>35.0</ele><time>2026-04-19T07:56:17.336Z</time></trkpt><trkpt lat="42.7918279" lon="10.3195762"><ele>35.0</ele><time>2026-04-19T07:56:18.331Z</time></trkpt><trkpt lat="42.7919268" lon="10.3195801"><ele>35.0</ele><time>2026-04-19T07:56:19.331Z</time></trkpt><trkpt lat="42.7920378" lon="10.3195687"><ele>35.0</ele><time>2026-04-19T07:56:20.333Z</time></trkpt><trkpt lat="42.7921526" lon="10.3195725"><ele>35.0</ele><time>2026-04-19T07:56:21.336Z</time></trkpt><trkpt lat="42.7923952" lon="10.3196079"><ele>33.8</ele><time>2026-04-19T07:56:23.334Z</time></trkpt><trkpt lat="42.7925094" lon="10.3196225"><ele>32.6</ele><time>2026-04-19T07:56:24.341Z</time></trkpt><trkpt lat="42.7926196" lon="10.3196294"><ele>31.4</ele><time>2026-04-19T07:56:25.344Z</time></trkpt><trkpt lat="42.7927299" lon="10.3196374"><ele>30.2</ele><time>2026-04-19T07:56:26.341Z</time></trkpt><trkpt lat="42.7928415" lon="10.3196476"><ele>29.0</ele><time>2026-04-19T07:56:27.344Z</time></trkpt><trkpt lat="42.7929521" lon="10.3196618"><ele>28.25</ele><time>2026-04-19T07:56:28.341Z</time></trkpt><trkpt lat="42.7930649" lon="10.3196759"><ele>27.5</ele><time>2026-04-19T07:56:29.35Z</time></trkpt><trkpt lat="42.793185" lon="10.3196936"><ele>26.75</ele><time>2026-04-19T07:56:30.349Z</time></trkpt><trkpt lat="42.7933088" lon="10.3197156"><ele>26.0</ele><time>2026-04-19T07:56:31.352Z</time></trkpt><trkpt lat="42.7934276" lon="10.3197383"><ele>24.6</ele><time>2026-04-19T07:56:32.351Z</time></trkpt><trkpt lat="42.7935423" lon="10.3197629"><ele>23.200000000000003</ele><time>2026-04-19T07:56:33.354Z</time></trkpt><trkpt lat="42.7936535" lon="10.3197874"><ele>21.799999999999997</ele><time>2026-04-19T07:56:34.346Z</time></trkpt><trkpt lat="42.7937572" lon="10.3198126"><ele>20.4</ele><time>2026-04-19T07:56:35.345Z</time></trkpt><trkpt lat="42.7938583" lon="10.3198355"><ele>19.0</ele><time>2026-04-19T07:56:36.354Z</time></trkpt><trkpt lat="42.7939545" lon="10.3198578"><ele>19.0</ele><time>2026-04-19T07:56:37.352Z</time></trkpt><trkpt lat="42.7940483" lon="10.3198788"><ele>19.0</ele><time>2026-04-19T07:56:38.352Z</time></trkpt><trkpt lat="42.7941461" lon="10.3199018"><ele>19.0</ele><time>2026-04-19T07:56:39.351Z</time></trkpt><trkpt lat="42.7942466" lon="10.3199282"><ele>19.0</ele><time>2026-04-19T07:56:40.352Z</time></trkpt><trkpt lat="42.794348" lon="10.319953"><ele>19.0</ele><time>2026-04-19T07:56:41.354Z</time></trkpt><trkpt lat="42.7944442" lon="10.3199754"><ele>18.599999999999998</ele><time>2026-04-19T07:56:42.351Z</time></trkpt><trkpt lat="42.794593" lon="10.32002"><ele>18.2</ele><time>2026-04-19T07:56:44.347Z</time></trkpt><trkpt lat="42.7946602" lon="10.3200486"><ele>17.799999999999997</ele><time>2026-04-19T07:56:46.351Z</time></trkpt><trkpt lat="42.7947404" lon="10.3199965"><ele>17.4</ele><time>2026-04-19T07:56:52.35Z</time></trkpt><trkpt lat="42.7947722" lon="10.3199224"><ele>17.0</ele><time>2026-04-19T07:56:53.345Z</time></trkpt><trkpt lat="42.7948041" lon="10.3198221"><ele>16.6</ele><time>2026-04-19T07:56:54.35Z</time></trkpt><trkpt lat="42.794837" lon="10.3196962"><ele>16.2</ele><time>2026-04-19T07:56:55.343Z</time></trkpt><trkpt lat="42.7948767" lon="10.3195591"><ele>15.8</ele><time>2026-04-19T07:56:56.343Z</time></trkpt><trkpt lat="42.7949197" lon="10.3194129"><ele>15.4</ele><time>2026-04-19T07:56:57.343Z</time></trkpt><trkpt lat="42.7949662" lon="10.3192543"><ele>15.0</ele><time>2026-04-19T07:56:58.352Z</time></trkpt><trkpt lat="42.7950199" lon="10.3190889"><ele>15.0</ele><time>2026-04-19T07:56:59.343Z</time></trkpt><trkpt lat="42.7950793" lon="10.3189155"><ele>15.0</ele><time>2026-04-19T07:57:00.345Z</time></trkpt><trkpt lat="42.7951413" lon="10.3187381"><ele>15.0</ele><time>2026-04-19T07:57:01.334Z</time></trkpt><trkpt lat="42.7952032" lon="10.3185527"><ele>15.0</ele><time>2026-04-19T07:57:02.348Z</time></trkpt><trkpt lat="42.7952651" lon="10.318349"><ele>15.0</ele><time>2026-04-19T07:57:03.339Z</time></trkpt><trkpt lat="42.7953668" lon="10.318021"><ele>15.0</ele><time>2026-04-19T07:57:05.347Z</time></trkpt><trkpt lat="42.7954037" lon="10.3179198"><ele>15.0</ele><time>2026-04-19T07:57:06.35Z</time></trkpt><trkpt lat="42.7954407" lon="10.3178246"><ele>15.0</ele><time>2026-04-19T07:57:07.344Z</time></trkpt><trkpt lat="42.7954909" lon="10.317762"><ele>15.0</ele><time>2026-04-19T07:57:08.35Z</time></trkpt><trkpt lat="42.7955621" lon="10.3177467"><ele>15.0</ele><time>2026-04-19T07:57:09.353Z</time></trkpt><trkpt lat="42.795643" lon="10.3177627"><ele>15.0</ele><time>2026-04-19T07:57:10.339Z</time></trkpt><trkpt lat="42.7957356" lon="10.3177899"><ele>15.0</ele><time>2026-04-19T07:57:11.345Z</time></trkpt><trkpt lat="42.7958449" lon="10.3178194"><ele>15.0</ele><time>2026-04-19T07:57:12.349Z</time></trkpt><trkpt lat="42.7959712" lon="10.3178535"><ele>13.75</ele><time>2026-04-19T07:57:13.35Z</time></trkpt><trkpt lat="42.7961107" lon="10.3178876"><ele>12.5</ele><time>2026-04-19T07:57:14.35Z</time></trkpt><trkpt lat="42.7962569" lon="10.3179185"><ele>11.25</ele><time>2026-04-19T07:57:15.352Z</time></trkpt><trkpt lat="42.7964037" lon="10.3179484"><ele>10.0</ele><time>2026-04-19T07:57:16.351Z</time></trkpt><trkpt lat="42.7965493" lon="10.3179775"><ele>10.0</ele><time>2026-04-19T07:57:17.352Z</time></trkpt><trkpt lat="42.7966826" lon="10.3180039"><ele>10.0</ele><time>2026-04-19T07:57:18.349Z</time></trkpt><trkpt lat="42.7968164" lon="10.3180341"><ele>10.0</ele><time>2026-04-19T07:57:19.35Z</time></trkpt><trkpt lat="42.7969526" lon="10.3180675"><ele>10.0</ele><time>2026-04-19T07:57:20.353Z</time></trkpt><trkpt lat="42.7970928" lon="10.3181015"><ele>9.0</ele><time>2026-04-19T07:57:21.352Z</time></trkpt><trkpt lat="42.7972367" lon="10.3181328"><ele>8.0</ele><time>2026-04-19T07:57:22.358Z</time></trkpt><trkpt lat="42.7973801" lon="10.3181638"><ele>7.0</ele><time>2026-04-19T07:57:23.354Z</time></trkpt><trkpt lat="42.7975221" lon="10.3182009"><ele>6.0</ele><time>2026-04-19T07:57:24.355Z</time></trkpt><trkpt lat="42.7978009" lon="10.3182494"><ele>5.5</ele><time>2026-04-19T07:57:26.349Z</time></trkpt><trkpt lat="42.7979228" lon="10.3182804"><ele>5.0</ele><time>2026-04-19T07:57:27.353Z</time></trkpt><trkpt lat="42.7980405" lon="10.3183101"><ele>4.5</ele><time>2026-04-19T07:57:28.353Z</time></trkpt><trkpt lat="42.798164" lon="10.318336"><ele>4.0</ele><time>2026-04-19T07:57:29.358Z</time></trkpt><trkpt lat="42.7982911" lon="10.318355"><ele>4.0</ele><time>2026-04-19T07:57:30.351Z</time></trkpt><trkpt lat="42.7984211" lon="10.3183737"><ele>4.0</ele><time>2026-04-19T07:57:31.35Z</time></trkpt><trkpt lat="42.798552" lon="10.318397"><ele>4.0</ele><time>2026-04-19T07:57:32.354Z</time></trkpt><trkpt lat="42.7986806" lon="10.3184224"><ele>4.0</ele><time>2026-04-19T07:57:33.354Z</time></trkpt><trkpt lat="42.7988108" lon="10.3184486"><ele>4.0</ele><time>2026-04-19T07:57:34.353Z</time></trkpt><trkpt lat="42.7989351" lon="10.3184737"><ele>4.0</ele><time>2026-04-19T07:57:35.353Z</time></trkpt><trkpt lat="42.7990511" lon="10.3185005"><ele>4.0</ele><time>2026-04-19T07:57:36.351Z</time></trkpt><trkpt lat="42.799149" lon="10.3185275"><ele>4.0</ele><time>2026-04-19T07:57:37.36Z</time></trkpt><trkpt lat="42.7992314" lon="10.3185597"><ele>4.0</ele><time>2026-04-19T07:57:38.354Z</time></trkpt><trkpt lat="42.7993048" lon="10.3185907"><ele>3.8000000000000003</ele><time>2026-04-19T07:57:39.346Z</time></trkpt><trkpt lat="42.7993697" lon="10.3186157"><ele>3.6000000000000005</ele><time>2026-04-19T07:57:40.349Z</time></trkpt><trkpt lat="42.7994742" lon="10.3186492"><ele>3.4</ele><time>2026-04-19T07:57:42.351Z</time></trkpt><trkpt lat="42.7995339" lon="10.3187059"><ele>3.2</ele><time>2026-04-19T07:57:45.348Z</time></trkpt><trkpt lat="42.7995597" lon="10.3189702"><ele>3.0</ele><time>2026-04-19T07:57:54.348Z</time></trkpt><trkpt lat="42.799652" lon="10.3190241"><ele>3.0</ele><time>2026-04-19T07:57:56.348Z</time></trkpt><trkpt lat="42.7997065" lon="10.3189714"><ele>3.0</ele><time>2026-04-19T07:57:57.35Z</time></trkpt><trkpt lat="42.7997437" lon="10.3188814"><ele>3.0</ele><time>2026-04-19T07:57:58.349Z</time></trkpt><trkpt lat="42.799764" lon="10.3187563"><ele>3.0</ele><time>2026-04-19T07:57:59.342Z</time></trkpt><trkpt lat="42.7997714" lon="10.3186088"><ele>3.0</ele><time>2026-04-19T07:58:00.35Z</time></trkpt><trkpt lat="42.7997671" lon="10.3184471"><ele>3.0</ele><time>2026-04-19T07:58:01.35Z</time></trkpt><trkpt lat="42.799743" lon="10.3182885"><ele>3.0</ele><time>2026-04-19T07:58:02.353Z</time></trkpt><trkpt lat="42.7996997" lon="10.318125"><ele>3.0</ele><time>2026-04-19T07:58:03.35Z</time></trkpt><trkpt lat="42.7996738" lon="10.3179581"><ele>3.0</ele><time>2026-04-19T07:58:04.353Z</time></trkpt><trkpt lat="42.7996768" lon="10.3177835"><ele>3.0</ele><time>2026-04-19T07:58:05.344Z</time></trkpt><trkpt lat="42.7996939" lon="10.3176022"><ele>3.0</ele><time>2026-04-19T07:58:06.343Z</time></trkpt><trkpt lat="42.799738" lon="10.3172095"><ele>3.0</ele><time>2026-04-19T07:58:08.349Z</time></trkpt><trkpt lat="42.7997551" lon="10.317004"><ele>2.75</ele><time>2026-04-19T07:58:09.34Z</time></trkpt><trkpt lat="42.7997759" lon="10.3168243"><ele>2.5</ele><time>2026-04-19T07:58:10.341Z</time></trkpt><trkpt lat="42.799797" lon="10.3166574"><ele>2.25</ele><time>2026-04-19T07:58:11.337Z</time></trkpt><trkpt lat="42.7998176" lon="10.3164849"><ele>2.0</ele><time>2026-04-19T07:58:12.343Z</time></trkpt><trkpt lat="42.7998391" lon="10.3163203"><ele>2.0</ele><time>2026-04-19T07:58:13.343Z</time></trkpt><trkpt lat="42.7998569" lon="10.3161673"><ele>2.0</ele><time>2026-04-19T07:58:14.346Z</time></trkpt><trkpt lat="42.7998732" lon="10.3160191"><ele>2.0</ele><time>2026-04-19T07:58:15.343Z</time></trkpt><trkpt lat="42.7998875" lon="10.3158708"><ele>2.0</ele><time>2026-04-19T07:58:16.347Z</time></trkpt><trkpt lat="42.7999011" lon="10.3157152"><ele>2.0</ele><time>2026-04-19T07:58:17.349Z</time></trkpt><trkpt lat="42.7999171" lon="10.3155503"><ele>2.0</ele><time>2026-04-19T07:58:18.347Z</time></trkpt><trkpt lat="42.7999369" lon="10.3153763"><ele>2.0</ele><time>2026-04-19T07:58:19.345Z</time></trkpt><trkpt lat="42.7999601" lon="10.315195"><ele>2.0</ele><time>2026-04-19T07:58:20.339Z</time></trkpt><trkpt lat="42.7999797" lon="10.3150125"><ele>2.0</ele><time>2026-04-19T07:58:21.343Z</time></trkpt><trkpt lat="42.7999951" lon="10.3148339"><ele>2.25</ele><time>2026-04-19T07:58:22.35Z</time></trkpt><trkpt lat="42.8000153" lon="10.3146565"><ele>2.5</ele><time>2026-04-19T07:58:23.349Z</time></trkpt><trkpt lat="42.8000403" lon="10.3144782"><ele>2.75</ele><time>2026-04-19T07:58:24.345Z</time></trkpt><trkpt lat="42.8000671" lon="10.3143038"><ele>3.0</ele><time>2026-04-19T07:58:25.353Z</time></trkpt><trkpt lat="42.8001008" lon="10.3141319"><ele>3.0</ele><time>2026-04-19T07:58:26.349Z</time></trkpt><trkpt lat="42.8001446" lon="10.3139576"><ele>3.0</ele><time>2026-04-19T07:58:27.339Z</time></trkpt><trkpt lat="42.800276" lon="10.3136005"><ele>3.0</ele><time>2026-04-19T07:58:29.349Z</time></trkpt><trkpt lat="42.8003539" lon="10.3134235"><ele>3.25</ele><time>2026-04-19T07:58:30.348Z</time></trkpt><trkpt lat="42.8004304" lon="10.3132524"><ele>3.5</ele><time>2026-04-19T07:58:31.35Z</time></trkpt><trkpt lat="42.8005048" lon="10.3130749"><ele>3.75</ele><time>2026-04-19T07:58:32.341Z</time></trkpt><trkpt lat="42.8005754" lon="10.3128975"><ele>4.0</ele><time>2026-04-19T07:58:33.354Z</time></trkpt><trkpt lat="42.8006529" lon="10.3127303"><ele>3.25</ele><time>2026-04-19T07:58:34.341Z</time></trkpt><trkpt lat="42.800732" lon="10.312562"><ele>2.5</ele><time>2026-04-19T07:58:35.341Z</time></trkpt><trkpt lat="42.8008104" lon="10.312401"><ele>1.75</ele><time>2026-04-19T07:58:36.346Z</time></trkpt><trkpt lat="42.8008861" lon="10.3122453"><ele>1.0</ele><time>2026-04-19T07:58:37.344Z</time></trkpt><trkpt lat="42.8009576" lon="10.312096"><ele>0.75</ele><time>2026-04-19T07:58:38.355Z</time></trkpt><trkpt lat="42.8010232" lon="10.311944"><ele>0.5</ele><time>2026-04-19T07:58:39.34Z</time></trkpt><trkpt lat="42.80109" lon="10.3117875"><ele>0.25</ele><time>2026-04-19T07:58:40.341Z</time></trkpt><trkpt lat="42.8011583" lon="10.3116187"><ele>0.0</ele><time>2026-04-19T07:58:41.349Z</time></trkpt><trkpt lat="42.8012316" lon="10.3114458"><ele>0.0</ele><time>2026-04-19T07:58:42.352Z</time></trkpt><trkpt lat="42.8013057" lon="10.3112687"><ele>0.0</ele><time>2026-04-19T07:58:43.344Z</time></trkpt><trkpt lat="42.8013782" lon="10.3110825"><ele>0.0</ele><time>2026-04-19T07:58:44.346Z</time></trkpt><trkpt lat="42.8014567" lon="10.3109013"><ele>0.0</ele><time>2026-04-19T07:58:45.347Z</time></trkpt><trkpt lat="42.8015398" lon="10.3107176"><ele>0.0</ele><time>2026-04-19T07:58:46.338Z</time></trkpt><trkpt lat="42.8016247" lon="10.3105313"><ele>0.0</ele><time>2026-04-19T07:58:47.348Z</time></trkpt><trkpt lat="42.8017102" lon="10.3103416"><ele>-0.5</ele><time>2026-04-19T07:58:48.355Z</time></trkpt><trkpt lat="42.8018662" lon="10.3099596"><ele>-1.0</ele><time>2026-04-19T07:58:50.353Z</time></trkpt><trkpt lat="42.8019384" lon="10.3097702"><ele>-1.3333333333333333</ele><time>2026-04-19T07:58:51.348Z</time></trkpt><trkpt lat="42.8020143" lon="10.3095796"><ele>-1.6666666666666665</ele><time>2026-04-19T07:58:52.356Z</time></trkpt><trkpt lat="42.8020867" lon="10.3093974"><ele>-2.0</ele><time>2026-04-19T07:58:53.352Z</time></trkpt><trkpt lat="42.8021621" lon="10.3092302"><ele>-2.0</ele><time>2026-04-19T07:58:54.35Z</time></trkpt><trkpt lat="42.8022349" lon="10.3090756"><ele>-2.0</ele><time>2026-04-19T07:58:55.346Z</time></trkpt><trkpt lat="42.8023116" lon="10.3089369"><ele>-2.0</ele><time>2026-04-19T07:58:56.348Z</time></trkpt><trkpt lat="42.8023892" lon="10.3088127"><ele>-2.0</ele><time>2026-04-19T07:58:57.344Z</time></trkpt><trkpt lat="42.8024651" lon="10.3087064"><ele>-1.6666666666666665</ele><time>2026-04-19T07:58:58.337Z</time></trkpt><trkpt lat="42.8025214" lon="10.3086458"><ele>-1.3333333333333333</ele><time>2026-04-19T07:58:59.356Z</time></trkpt><trkpt lat="42.8025877" lon="10.3086116"><ele>-1.0</ele><time>2026-04-19T07:59:01.351Z</time></trkpt><trkpt lat="42.8026837" lon="10.3085572"><ele>-0.6666666666666666</ele><time>2026-04-19T07:59:03.338Z</time></trkpt><trkpt lat="42.8027578" lon="10.3085165"><ele>-0.3333333333333333</ele><time>2026-04-19T07:59:04.345Z</time></trkpt><trkpt lat="42.8028289" lon="10.3084728"><ele>0.0</ele><time>2026-04-19T07:59:05.345Z</time></trkpt><trkpt lat="42.8028989" lon="10.3084267"><ele>0.0</ele><time>2026-04-19T07:59:06.35Z</time></trkpt><trkpt lat="42.8029704" lon="10.3083775"><ele>0.0</ele><time>2026-04-19T07:59:07.35Z</time></trkpt><trkpt lat="42.8030488" lon="10.3083331"><ele>0.0</ele><time>2026-04-19T07:59:08.339Z</time></trkpt><trkpt lat="42.8031372" lon="10.3082999"><ele>0.0</ele><time>2026-04-19T07:59:09.344Z</time></trkpt><trkpt lat="42.8033639" lon="10.3082837"><ele>0.6666666666666666</ele><time>2026-04-19T07:59:11.342Z</time></trkpt><trkpt lat="42.8035097" lon="10.3083101"><ele>1.3333333333333333</ele><time>2026-04-19T07:59:12.335Z</time></trkpt><trkpt lat="42.8036685" lon="10.3083434"><ele>2.0</ele><time>2026-04-19T07:59:13.332Z</time></trkpt><trkpt lat="42.8038465" lon="10.3083954"><ele>2.0</ele><time>2026-04-19T07:59:14.346Z</time></trkpt><trkpt lat="42.804033" lon="10.3084362"><ele>2.0</ele><time>2026-04-19T07:59:15.348Z</time></trkpt><trkpt lat="42.8042207" lon="10.3084745"><ele>2.0</ele><time>2026-04-19T07:59:16.349Z</time></trkpt><trkpt lat="42.8044064" lon="10.3085145"><ele>2.6666666666666665</ele><time>2026-04-19T07:59:17.352Z</time></trkpt><trkpt lat="42.8045872" lon="10.3085676"><ele>3.333333333333333</ele><time>2026-04-19T07:59:18.352Z</time></trkpt><trkpt lat="42.8047629" lon="10.3086236"><ele>4.0</ele><time>2026-04-19T07:59:19.347Z</time></trkpt><trkpt lat="42.8049408" lon="10.3086807"><ele>4.0</ele><time>2026-04-19T07:59:20.35Z</time></trkpt><trkpt lat="42.8051209" lon="10.308729"><ele>4.0</ele><time>2026-04-19T07:59:21.354Z</time></trkpt><trkpt lat="42.8053031" lon="10.3087705"><ele>4.0</ele><time>2026-04-19T07:59:22.357Z</time></trkpt><trkpt lat="42.8054844" lon="10.3088"><ele>4.666666666666666</ele><time>2026-04-19T07:59:23.357Z</time></trkpt><trkpt lat="42.805667" lon="10.3088128"><ele>5.333333333333333</ele><time>2026-04-19T07:59:24.356Z</time></trkpt><trkpt lat="42.8058398" lon="10.3088224"><ele>6.0</ele><time>2026-04-19T07:59:25.355Z</time></trkpt><trkpt lat="42.8060044" lon="10.3088193"><ele>6.333333333333334</ele><time>2026-04-19T07:59:26.357Z</time></trkpt><trkpt lat="42.806166" lon="10.308806"><ele>6.666666666666667</ele><time>2026-04-19T07:59:27.358Z</time></trkpt><trkpt lat="42.8063262" lon="10.3087853"><ele>7.0</ele><time>2026-04-19T07:59:28.359Z</time></trkpt><trkpt lat="42.8064809" lon="10.3087509"><ele>7.0</ele><time>2026-04-19T07:59:29.358Z</time></trkpt><trkpt lat="42.8066323" lon="10.3087227"><ele>7.0</ele><time>2026-04-19T07:59:30.351Z</time></trkpt><trkpt lat="42.8069472" lon="10.3086704"><ele>5.333333333333334</ele><time>2026-04-19T07:59:32.359Z</time></trkpt><trkpt lat="42.8071081" lon="10.3086508"><ele>3.666666666666667</ele><time>2026-04-19T07:59:33.358Z</time></trkpt><trkpt lat="42.8072721" lon="10.308642"><ele>2.0</ele><time>2026-04-19T07:59:34.358Z</time></trkpt><trkpt lat="42.8074383" lon="10.3086454"><ele>2.0</ele><time>2026-04-19T07:59:35.353Z</time></trkpt><trkpt lat="42.8076075" lon="10.3086543"><ele>2.0</ele><time>2026-04-19T07:59:36.356Z</time></trkpt><trkpt lat="42.8077777" lon="10.3086783"><ele>2.0</ele><time>2026-04-19T07:59:37.348Z</time></trkpt><trkpt lat="42.8079514" lon="10.3087026"><ele>1.3333333333333333</ele><time>2026-04-19T07:59:38.358Z</time></trkpt><trkpt lat="42.8081246" lon="10.3087327"><ele>0.6666666666666666</ele><time>2026-04-19T07:59:39.357Z</time></trkpt><trkpt lat="42.8083024" lon="10.3087704"><ele>0.0</ele><time>2026-04-19T07:59:40.361Z</time></trkpt><trkpt lat="42.8084804" lon="10.308806"><ele>0.3333333333333333</ele><time>2026-04-19T07:59:41.356Z</time></trkpt><trkpt lat="42.8086528" lon="10.3088475"><ele>0.6666666666666666</ele><time>2026-04-19T07:59:42.354Z</time></trkpt><trkpt lat="42.808816" lon="10.3088945"><ele>1.0</ele><time>2026-04-19T07:59:43.355Z</time></trkpt><trkpt lat="42.8089666" lon="10.3089414"><ele>1.0</ele><time>2026-04-19T07:59:44.354Z</time></trkpt><trkpt lat="42.8090973" lon="10.3089979"><ele>1.0</ele><time>2026-04-19T07:59:45.352Z</time></trkpt><trkpt lat="42.8091998" lon="10.3090644"><ele>1.0</ele><time>2026-04-19T07:59:46.357Z</time></trkpt><trkpt lat="42.809279" lon="10.3091375"><ele>1.0</ele><time>2026-04-19T07:59:47.35Z</time></trkpt><trkpt lat="42.8093368" lon="10.3091844"><ele>1.0</ele><time>2026-04-19T07:59:48.351Z</time></trkpt><trkpt lat="42.8093973" lon="10.3092625"><ele>1.25</ele><time>2026-04-19T07:59:50.35Z</time></trkpt><trkpt lat="42.8094433" lon="10.3093234"><ele>1.5</ele><time>2026-04-19T07:59:54.351Z</time></trkpt><trkpt lat="42.809635" lon="10.3094708"><ele>1.75</ele><time>2026-04-19T07:59:57.352Z</time></trkpt><trkpt lat="42.8097326" lon="10.3095112"><ele>2.0</ele><time>2026-04-19T07:59:58.353Z</time></trkpt><trkpt lat="42.8098341" lon="10.309507"><ele>2.0</ele><time>2026-04-19T07:59:59.354Z</time></trkpt><trkpt lat="42.8099187" lon="10.309458"><ele>2.0</ele><time>2026-04-19T08:00:00.348Z</time></trkpt><trkpt lat="42.8099803" lon="10.3093679"><ele>2.0</ele><time>2026-04-19T08:00:01.353Z</time></trkpt><trkpt lat="42.8100264" lon="10.309237"><ele>2.0</ele><time>2026-04-19T08:00:02.345Z</time></trkpt><trkpt lat="42.8100567" lon="10.3091015"><ele>2.0</ele><time>2026-04-19T08:00:03.346Z</time></trkpt><trkpt lat="42.8100633" lon="10.3089758"><ele>2.1666666666666665</ele><time>2026-04-19T08:00:04.346Z</time></trkpt><trkpt lat="42.8100617" lon="10.3088559"><ele>2.333333333333333</ele><time>2026-04-19T08:00:05.342Z</time></trkpt><trkpt lat="42.8100629" lon="10.3087384"><ele>2.5</ele><time>2026-04-19T08:00:06.337Z</time></trkpt><trkpt lat="42.8100708" lon="10.3086117"><ele>2.6666666666666665</ele><time>2026-04-19T08:00:07.349Z</time></trkpt><trkpt lat="42.8100906" lon="10.3084937"><ele>2.8333333333333335</ele><time>2026-04-19T08:00:08.344Z</time></trkpt><trkpt lat="42.8101225" lon="10.3083779"><ele>3.0</ele><time>2026-04-19T08:00:09.351Z</time></trkpt><trkpt lat="42.8101632" lon="10.3082627"><ele>3.0</ele><time>2026-04-19T08:00:10.344Z</time></trkpt><trkpt lat="42.8102046" lon="10.3081655"><ele>3.0</ele><time>2026-04-19T08:00:11.346Z</time></trkpt><trkpt lat="42.8102466" lon="10.3080931"><ele>3.0</ele><time>2026-04-19T08:00:12.338Z</time></trkpt><trkpt lat="42.8102884" lon="10.3080262"><ele>3.0</ele><time>2026-04-19T08:00:13.348Z</time></trkpt><trkpt lat="42.8103715" lon="10.3079044"><ele>3.0</ele><time>2026-04-19T08:00:15.336Z</time></trkpt><trkpt lat="42.8105238" lon="10.3076603"><ele>3.0</ele><time>2026-04-19T08:00:19.339Z</time></trkpt><trkpt lat="42.8105876" lon="10.3075478"><ele>3.0</ele><time>2026-04-19T08:00:21.341Z</time></trkpt><trkpt lat="42.8106189" lon="10.3074609"><ele>3.0</ele><time>2026-04-19T08:00:22.345Z</time></trkpt><trkpt lat="42.810663" lon="10.3073354"><ele>3.0</ele><time>2026-04-19T08:00:23.344Z</time></trkpt><trkpt lat="42.810721" lon="10.3071884"><ele>3.0</ele><time>2026-04-19T08:00:24.351Z</time></trkpt><trkpt lat="42.8107828" lon="10.3070463"><ele>3.5</ele><time>2026-04-19T08:00:25.346Z</time></trkpt><trkpt lat="42.8108484" lon="10.3069005"><ele>4.0</ele><time>2026-04-19T08:00:26.352Z</time></trkpt><trkpt lat="42.8109174" lon="10.3067505"><ele>4.5</ele><time>2026-04-19T08:00:27.35Z</time></trkpt><trkpt lat="42.8109926" lon="10.3065888"><ele>5.0</ele><time>2026-04-19T08:00:28.354Z</time></trkpt><trkpt lat="42.811083" lon="10.3064214"><ele>6.0</ele><time>2026-04-19T08:00:29.355Z</time></trkpt><trkpt lat="42.8111917" lon="10.3062541"><ele>7.0</ele><time>2026-04-19T08:00:30.353Z</time></trkpt><trkpt lat="42.8113131" lon="10.3061028"><ele>8.0</ele><time>2026-04-19T08:00:31.349Z</time></trkpt><trkpt lat="42.8114448" lon="10.3059427"><ele>8.0</ele><time>2026-04-19T08:00:32.344Z</time></trkpt><trkpt lat="42.8115725" lon="10.3057885"><ele>8.0</ele><time>2026-04-19T08:00:33.343Z</time></trkpt><trkpt lat="42.8116891" lon="10.3056447"><ele>8.0</ele><time>2026-04-19T08:00:34.343Z</time></trkpt><trkpt lat="42.8117951" lon="10.3055052"><ele>9.5</ele><time>2026-04-19T08:00:35.346Z</time></trkpt><trkpt lat="42.811902" lon="10.3053734"><ele>11.0</ele><time>2026-04-19T08:00:36.342Z</time></trkpt><trkpt lat="42.812132" lon="10.3050868"><ele>11.0</ele><time>2026-04-19T08:00:38.342Z</time></trkpt><trkpt lat="42.8122485" lon="10.3049501"><ele>11.0</ele><time>2026-04-19T08:00:39.353Z</time></trkpt><trkpt lat="42.8123672" lon="10.304804"><ele>11.0</ele><time>2026-04-19T08:00:40.346Z</time></trkpt><trkpt lat="42.8124832" lon="10.3046581"><ele>12.0</ele><time>2026-04-19T08:00:41.346Z</time></trkpt><trkpt lat="42.8126059" lon="10.304507"><ele>13.0</ele><time>2026-04-19T08:00:42.341Z</time></trkpt><trkpt lat="42.8127327" lon="10.3043489"><ele>14.0</ele><time>2026-04-19T08:00:43.35Z</time></trkpt><trkpt lat="42.8128612" lon="10.3041892"><ele>14.333333333333334</ele><time>2026-04-19T08:00:44.342Z</time></trkpt><trkpt lat="42.8129926" lon="10.3040268"><ele>14.666666666666668</ele><time>2026-04-19T08:00:45.342Z</time></trkpt><trkpt lat="42.8131195" lon="10.3038652"><ele>15.0</ele><time>2026-04-19T08:00:46.343Z</time></trkpt><trkpt lat="42.8132395" lon="10.3037068"><ele>15.75</ele><time>2026-04-19T08:00:47.349Z</time></trkpt><trkpt lat="42.8133503" lon="10.3035574"><ele>16.5</ele><time>2026-04-19T08:00:48.343Z</time></trkpt><trkpt lat="42.8134496" lon="10.3034144"><ele>17.25</ele><time>2026-04-19T08:00:49.349Z</time></trkpt><trkpt lat="42.8135291" lon="10.3032568"><ele>18.0</ele><time>2026-04-19T08:00:50.344Z</time></trkpt><trkpt lat="42.8135858" lon="10.3030734"><ele>20.333333333333336</ele><time>2026-04-19T08:00:51.346Z</time></trkpt><trkpt lat="42.8136141" lon="10.3028695"><ele>22.666666666666668</ele><time>2026-04-19T08:00:52.343Z</time></trkpt><trkpt lat="42.8136196" lon="10.3026588"><ele>25.0</ele><time>2026-04-19T08:00:53.337Z</time></trkpt><trkpt lat="42.8136238" lon="10.3024354"><ele>26.666666666666668</ele><time>2026-04-19T08:00:54.353Z</time></trkpt><trkpt lat="42.8136495" lon="10.3022123"><ele>28.333333333333336</ele><time>2026-04-19T08:00:55.347Z</time></trkpt><trkpt lat="42.8136925" lon="10.3019925"><ele>30.0</ele><time>2026-04-19T08:00:56.351Z</time></trkpt><trkpt lat="42.8137494" lon="10.3017798"><ele>32.0</ele><time>2026-04-19T08:00:57.348Z</time></trkpt><trkpt lat="42.8138857" lon="10.3013783"><ele>34.0</ele><time>2026-04-19T08:00:59.35Z</time></trkpt><trkpt lat="42.8139612" lon="10.301188"><ele>34.0</ele><time>2026-04-19T08:01:00.339Z</time></trkpt><trkpt lat="42.814043" lon="10.3010073"><ele>34.0</ele><time>2026-04-19T08:01:01.344Z</time></trkpt><trkpt lat="42.81412" lon="10.3008216"><ele>34.0</ele><time>2026-04-19T08:01:02.343Z</time></trkpt><trkpt lat="42.8141991" lon="10.3006338"><ele>35.25</ele><time>2026-04-19T08:01:03.336Z</time></trkpt><trkpt lat="42.8142787" lon="10.3004567"><ele>36.5</ele><time>2026-04-19T08:01:04.342Z</time></trkpt><trkpt lat="42.8143603" lon="10.3002927"><ele>37.75</ele><time>2026-04-19T08:01:05.342Z</time></trkpt><trkpt lat="42.8144415" lon="10.3001307"><ele>39.0</ele><time>2026-04-19T08:01:06.349Z</time></trkpt><trkpt lat="42.8145227" lon="10.2999619"><ele>39.0</ele><time>2026-04-19T08:01:07.341Z</time></trkpt><trkpt lat="42.8146077" lon="10.2997884"><ele>39.0</ele><time>2026-04-19T08:01:08.343Z</time></trkpt><trkpt lat="42.8147132" lon="10.2996331"><ele>39.0</ele><time>2026-04-19T08:01:09.342Z</time></trkpt><trkpt lat="42.8148392" lon="10.2995076"><ele>40.333333333333336</ele><time>2026-04-19T08:01:10.347Z</time></trkpt><trkpt lat="42.8149759" lon="10.2994102"><ele>41.66666666666667</ele><time>2026-04-19T08:01:11.345Z</time></trkpt><trkpt lat="42.8151285" lon="10.2993332"><ele>43.0</ele><time>2026-04-19T08:01:12.346Z</time></trkpt><trkpt lat="42.8152944" lon="10.2992552"><ele>43.0</ele><time>2026-04-19T08:01:13.345Z</time></trkpt><trkpt lat="42.8154651" lon="10.2991669"><ele>43.0</ele><time>2026-04-19T08:01:14.34Z</time></trkpt><trkpt lat="42.8156391" lon="10.299071"><ele>43.0</ele><time>2026-04-19T08:01:15.344Z</time></trkpt><trkpt lat="42.815811" lon="10.298964"><ele>44.333333333333336</ele><time>2026-04-19T08:01:16.351Z</time></trkpt><trkpt lat="42.8159825" lon="10.2988666"><ele>45.666666666666664</ele><time>2026-04-19T08:01:17.339Z</time></trkpt><trkpt lat="42.8161408" lon="10.298778"><ele>47.0</ele><time>2026-04-19T08:01:18.339Z</time></trkpt><trkpt lat="42.8164543" lon="10.2985997"><ele>47.666666666666664</ele><time>2026-04-19T08:01:20.337Z</time></trkpt><trkpt lat="42.8166114" lon="10.2984999"><ele>48.33333333333333</ele><time>2026-04-19T08:01:21.344Z</time></trkpt><trkpt lat="42.8167568" lon="10.2983744"><ele>49.0</ele><time>2026-04-19T08:01:22.338Z</time></trkpt><trkpt lat="42.8168894" lon="10.2982326"><ele>50.0</ele><time>2026-04-19T08:01:23.337Z</time></trkpt><trkpt lat="42.8170185" lon="10.2980992"><ele>51.0</ele><time>2026-04-19T08:01:24.351Z</time></trkpt><trkpt lat="42.8171461" lon="10.2979718"><ele>52.0</ele><time>2026-04-19T08:01:25.34Z</time></trkpt><trkpt lat="42.8172802" lon="10.297852"><ele>52.0</ele><time>2026-04-19T08:01:26.349Z</time></trkpt><trkpt lat="42.8174162" lon="10.2977369"><ele>52.0</ele><time>2026-04-19T08:01:27.339Z</time></trkpt><trkpt lat="42.8175459" lon="10.2976425"><ele>52.0</ele><time>2026-04-19T08:01:28.334Z</time></trkpt><trkpt lat="42.8176671" lon="10.2975547"><ele>52.0</ele><time>2026-04-19T08:01:29.339Z</time></trkpt><trkpt lat="42.8177786" lon="10.29747"><ele>46.5</ele><time>2026-04-19T08:01:30.33Z</time></trkpt><trkpt lat="42.817873" lon="10.2973695"><ele>41.0</ele><time>2026-04-19T08:01:31.34Z</time></trkpt><trkpt lat="42.817932" lon="10.29722"><ele>35.5</ele><time>2026-04-19T08:01:32.341Z</time></trkpt><trkpt lat="42.8179644" lon="10.2970246"><ele>30.0</ele><time>2026-04-19T08:01:33.349Z</time></trkpt><trkpt lat="42.8179621" lon="10.2967977"><ele>28.333333333333336</ele><time>2026-04-19T08:01:34.343Z</time></trkpt><trkpt lat="42.8179623" lon="10.2965732"><ele>26.666666666666668</ele><time>2026-04-19T08:01:35.342Z</time></trkpt><trkpt lat="42.817961" lon="10.2963454"><ele>25.0</ele><time>2026-04-19T08:01:36.349Z</time></trkpt><trkpt lat="42.8179581" lon="10.2961312"><ele>24.666666666666668</ele><time>2026-04-19T08:01:37.35Z</time></trkpt><trkpt lat="42.8179568" lon="10.2959293"><ele>24.333333333333336</ele><time>2026-04-19T08:01:38.349Z</time></trkpt><trkpt lat="42.8179236" lon="10.2957536"><ele>24.0</ele><time>2026-04-19T08:01:39.351Z</time></trkpt><trkpt lat="42.8177568" lon="10.2954809"><ele>24.0</ele><time>2026-04-19T08:01:41.334Z</time></trkpt><trkpt lat="42.8177022" lon="10.2953351"><ele>24.0</ele><time>2026-04-19T08:01:42.345Z</time></trkpt><trkpt lat="42.8176966" lon="10.2951704"><ele>24.0</ele><time>2026-04-19T08:01:43.348Z</time></trkpt><trkpt lat="42.8177316" lon="10.2950274"><ele>24.0</ele><time>2026-04-19T08:01:44.347Z</time></trkpt><trkpt lat="42.8177973" lon="10.2949044"><ele>24.0</ele><time>2026-04-19T08:01:45.348Z</time></trkpt><trkpt lat="42.8178875" lon="10.2948046"><ele>24.0</ele><time>2026-04-19T08:01:46.34Z</time></trkpt><trkpt lat="42.817977" lon="10.2947007"><ele>24.0</ele><time>2026-04-19T08:01:47.345Z</time></trkpt><trkpt lat="42.8180565" lon="10.294571"><ele>24.0</ele><time>2026-04-19T08:01:48.346Z</time></trkpt><trkpt lat="42.8181232" lon="10.2944147"><ele>24.4</ele><time>2026-04-19T08:01:49.354Z</time></trkpt><trkpt lat="42.8181505" lon="10.2942506"><ele>24.799999999999997</ele><time>2026-04-19T08:01:50.349Z</time></trkpt><trkpt lat="42.818131" lon="10.2941113"><ele>25.200000000000003</ele><time>2026-04-19T08:01:51.353Z</time></trkpt><trkpt lat="42.8180719" lon="10.2939926"><ele>25.6</ele><time>2026-04-19T08:01:52.354Z</time></trkpt><trkpt lat="42.8179856" lon="10.2938957"><ele>26.0</ele><time>2026-04-19T08:01:53.346Z</time></trkpt><trkpt lat="42.8178842" lon="10.2938126"><ele>25.0</ele><time>2026-04-19T08:01:54.346Z</time></trkpt><trkpt lat="42.8177595" lon="10.2937332"><ele>24.0</ele><time>2026-04-19T08:01:55.336Z</time></trkpt><trkpt lat="42.8176093" lon="10.2936672"><ele>23.0</ele><time>2026-04-19T08:01:56.343Z</time></trkpt><trkpt lat="42.8174604" lon="10.2936449"><ele>22.0</ele><time>2026-04-19T08:01:57.333Z</time></trkpt><trkpt lat="42.8173395" lon="10.2936309"><ele>23.8</ele><time>2026-04-19T08:01:58.323Z</time></trkpt><trkpt lat="42.8172281" lon="10.2936083"><ele>25.6</ele><time>2026-04-19T08:01:59.333Z</time></trkpt><trkpt lat="42.8171545" lon="10.2935562"><ele>27.400000000000002</ele><time>2026-04-19T08:02:00.325Z</time></trkpt><trkpt lat="42.8171517" lon="10.29335"><ele>29.200000000000003</ele><time>2026-04-19T08:02:02.322Z</time></trkpt><trkpt lat="42.8172036" lon="10.2932504"><ele>31.0</ele><time>2026-04-19T08:02:03.326Z</time></trkpt><trkpt lat="42.8172833" lon="10.2931758"><ele>31.0</ele><time>2026-04-19T08:02:04.321Z</time></trkpt><trkpt lat="42.8173774" lon="10.2931123"><ele>31.0</ele><time>2026-04-19T08:02:05.335Z</time></trkpt><trkpt lat="42.8174989" lon="10.2930574"><ele>31.0</ele><time>2026-04-19T08:02:06.328Z</time></trkpt><trkpt lat="42.8176414" lon="10.2929928"><ele>31.0</ele><time>2026-04-19T08:02:07.338Z</time></trkpt><trkpt lat="42.8177906" lon="10.2929256"><ele>33.25</ele><time>2026-04-19T08:02:08.339Z</time></trkpt><trkpt lat="42.8179422" lon="10.2928433"><ele>35.5</ele><time>2026-04-19T08:02:09.337Z</time></trkpt><trkpt lat="42.8180547" lon="10.2927186"><ele>37.75</ele><time>2026-04-19T08:02:10.34Z</time></trkpt><trkpt lat="42.8181349" lon="10.2925699"><ele>40.0</ele><time>2026-04-19T08:02:11.341Z</time></trkpt><trkpt lat="42.8182232" lon="10.2924543"><ele>40.0</ele><time>2026-04-19T08:02:12.344Z</time></trkpt><trkpt lat="42.8183237" lon="10.2924039"><ele>40.0</ele><time>2026-04-19T08:02:13.338Z</time></trkpt><trkpt lat="42.8184313" lon="10.2924367"><ele>40.0</ele><time>2026-04-19T08:02:14.334Z</time></trkpt><trkpt lat="42.8185497" lon="10.2924878"><ele>40.0</ele><time>2026-04-19T08:02:15.338Z</time></trkpt><trkpt lat="42.8186792" lon="10.2925282"><ele>38.75</ele><time>2026-04-19T08:02:16.339Z</time></trkpt><trkpt lat="42.8188181" lon="10.2925587"><ele>37.5</ele><time>2026-04-19T08:02:17.34Z</time></trkpt><trkpt lat="42.8189624" lon="10.2925702"><ele>36.25</ele><time>2026-04-19T08:02:18.348Z</time></trkpt><trkpt lat="42.8191063" lon="10.2925503"><ele>35.0</ele><time>2026-04-19T08:02:19.345Z</time></trkpt><trkpt lat="42.81923" lon="10.2924881"><ele>34.666666666666664</ele><time>2026-04-19T08:02:20.346Z</time></trkpt><trkpt lat="42.8193178" lon="10.292376"><ele>34.333333333333336</ele><time>2026-04-19T08:02:21.359Z</time></trkpt><trkpt lat="42.8193941" lon="10.2920817"><ele>34.0</ele><time>2026-04-19T08:02:23.346Z</time></trkpt><trkpt lat="42.8194023" lon="10.2919027"><ele>34.0</ele><time>2026-04-19T08:02:24.354Z</time></trkpt><trkpt lat="42.8194184" lon="10.2917173"><ele>34.0</ele><time>2026-04-19T08:02:25.348Z</time></trkpt><trkpt lat="42.8194451" lon="10.2915343"><ele>34.0</ele><time>2026-04-19T08:02:26.352Z</time></trkpt><trkpt lat="42.8194768" lon="10.2913743"><ele>34.0</ele><time>2026-04-19T08:02:27.35Z</time></trkpt><trkpt lat="42.819519" lon="10.291246"><ele>37.8</ele><time>2026-04-19T08:02:28.342Z</time></trkpt><trkpt lat="42.819584" lon="10.2911637"><ele>41.599999999999994</ele><time>2026-04-19T08:02:29.351Z</time></trkpt><trkpt lat="42.8196787" lon="10.2911482"><ele>45.4</ele><time>2026-04-19T08:02:30.346Z</time></trkpt><trkpt lat="42.8197876" lon="10.2911909"><ele>49.199999999999996</ele><time>2026-04-19T08:02:31.334Z</time></trkpt><trkpt lat="42.8199012" lon="10.2912522"><ele>53.0</ele><time>2026-04-19T08:02:32.336Z</time></trkpt><trkpt lat="42.8200199" lon="10.2913055"><ele>53.0</ele><time>2026-04-19T08:02:33.336Z</time></trkpt><trkpt lat="42.8201271" lon="10.2913442"><ele>53.0</ele><time>2026-04-19T08:02:34.339Z</time></trkpt><trkpt lat="42.8202124" lon="10.2913179"><ele>53.0</ele><time>2026-04-19T08:02:35.346Z</time></trkpt><trkpt lat="42.8202705" lon="10.2912189"><ele>53.0</ele><time>2026-04-19T08:02:36.348Z</time></trkpt><trkpt lat="42.8203166" lon="10.2910783"><ele>53.0</ele><time>2026-04-19T08:02:37.339Z</time></trkpt><trkpt lat="42.8203642" lon="10.290923"><ele>52.75</ele><time>2026-04-19T08:02:38.343Z</time></trkpt><trkpt lat="42.8204234" lon="10.2907707"><ele>52.5</ele><time>2026-04-19T08:02:39.346Z</time></trkpt><trkpt lat="42.8204999" lon="10.2906174"><ele>52.25</ele><time>2026-04-19T08:02:40.347Z</time></trkpt><trkpt lat="42.8205958" lon="10.2904718"><ele>52.0</ele><time>2026-04-19T08:02:41.345Z</time></trkpt><trkpt lat="42.820709" lon="10.2903414"><ele>52.0</ele><time>2026-04-19T08:02:42.342Z</time></trkpt><trkpt lat="42.8209609" lon="10.2901772"><ele>52.0</ele><time>2026-04-19T08:02:44.345Z</time></trkpt><trkpt lat="42.8210552" lon="10.2900866"><ele>52.0</ele><time>2026-04-19T08:02:45.354Z</time></trkpt><trkpt lat="42.8211019" lon="10.2899522"><ele>50.8</ele><time>2026-04-19T08:02:46.356Z</time></trkpt><trkpt lat="42.8211108" lon="10.2898109"><ele>49.6</ele><time>2026-04-19T08:02:47.355Z</time></trkpt><trkpt lat="42.8210674" lon="10.2896961"><ele>48.4</ele><time>2026-04-19T08:02:48.353Z</time></trkpt><trkpt lat="42.8209896" lon="10.2896166"><ele>47.199999999999996</ele><time>2026-04-19T08:02:49.339Z</time></trkpt><trkpt lat="42.8209073" lon="10.2895505"><ele>46.0</ele><time>2026-04-19T08:02:50.35Z</time></trkpt><trkpt lat="42.8208087" lon="10.2894866"><ele>46.0</ele><time>2026-04-19T08:02:51.35Z</time></trkpt><trkpt lat="42.8206974" lon="10.289405"><ele>46.0</ele><time>2026-04-19T08:02:52.342Z</time></trkpt><trkpt lat="42.8205805" lon="10.2893028"><ele>46.0</ele><time>2026-04-19T08:02:53.345Z</time></trkpt><trkpt lat="42.8204692" lon="10.2891873"><ele>46.0</ele><time>2026-04-19T08:02:54.341Z</time></trkpt><trkpt lat="42.8203591" lon="10.289069"><ele>46.0</ele><time>2026-04-19T08:02:55.341Z</time></trkpt><trkpt lat="42.8202443" lon="10.2889614"><ele>46.0</ele><time>2026-04-19T08:02:56.34Z</time></trkpt><trkpt lat="42.8201282" lon="10.2888799"><ele>46.0</ele><time>2026-04-19T08:02:57.341Z</time></trkpt><trkpt lat="42.8200086" lon="10.2888561"><ele>46.0</ele><time>2026-04-19T08:02:58.335Z</time></trkpt><trkpt lat="42.8198867" lon="10.2888752"><ele>41.25</ele><time>2026-04-19T08:02:59.343Z</time></trkpt><trkpt lat="42.8197677" lon="10.2888953"><ele>36.5</ele><time>2026-04-19T08:03:00.329Z</time></trkpt><trkpt lat="42.8196558" lon="10.2888716"><ele>31.75</ele><time>2026-04-19T08:03:01.334Z</time></trkpt><trkpt lat="42.8195677" lon="10.2887992"><ele>27.0</ele><time>2026-04-19T08:03:02.329Z</time></trkpt><trkpt lat="42.8195117" lon="10.2886557"><ele>27.0</ele><time>2026-04-19T08:03:03.327Z</time></trkpt><trkpt lat="42.8194091" lon="10.28835"><ele>27.0</ele><time>2026-04-19T08:03:05.338Z</time></trkpt><trkpt lat="42.8193222" lon="10.2882488"><ele>27.0</ele><time>2026-04-19T08:03:06.33Z</time></trkpt><trkpt lat="42.8192151" lon="10.2881757"><ele>29.25</ele><time>2026-04-19T08:03:07.341Z</time></trkpt><trkpt lat="42.8190836" lon="10.2881512"><ele>31.5</ele><time>2026-04-19T08:03:08.338Z</time></trkpt><trkpt lat="42.8189572" lon="10.2881589"><ele>33.75</ele><time>2026-04-19T08:03:09.338Z</time></trkpt><trkpt lat="42.8188336" lon="10.2882105"><ele>36.0</ele><time>2026-04-19T08:03:10.332Z</time></trkpt><trkpt lat="42.8187271" lon="10.2882573"><ele>36.0</ele><time>2026-04-19T08:03:11.327Z</time></trkpt><trkpt lat="42.8186297" lon="10.2882691"><ele>36.0</ele><time>2026-04-19T08:03:12.333Z</time></trkpt><trkpt lat="42.8185563" lon="10.2882235"><ele>36.0</ele><time>2026-04-19T08:03:13.33Z</time></trkpt><trkpt lat="42.8185036" lon="10.2881341"><ele>36.0</ele><time>2026-04-19T08:03:14.325Z</time></trkpt><trkpt lat="42.8184723" lon="10.2880054"><ele>36.0</ele><time>2026-04-19T08:03:15.324Z</time></trkpt><trkpt lat="42.8184432" lon="10.287842"><ele>33.75</ele><time>2026-04-19T08:03:16.329Z</time></trkpt><trkpt lat="42.8183893" lon="10.287688"><ele>31.5</ele><time>2026-04-19T08:03:17.324Z</time></trkpt><trkpt lat="42.818296" lon="10.2875753"><ele>29.25</ele><time>2026-04-19T08:03:18.331Z</time></trkpt><trkpt lat="42.8181737" lon="10.2875022"><ele>27.0</ele><time>2026-04-19T08:03:19.33Z</time></trkpt><trkpt lat="42.8180306" lon="10.2874465"><ele>27.0</ele><time>2026-04-19T08:03:20.327Z</time></trkpt><trkpt lat="42.8178967" lon="10.2873696"><ele>27.000000000000004</ele><time>2026-04-19T08:03:21.331Z</time></trkpt><trkpt lat="42.8178173" lon="10.2872518"><ele>27.000000000000004</ele><time>2026-04-19T08:03:22.327Z</time></trkpt><trkpt lat="42.8177984" lon="10.2871435"><ele>27.0</ele><time>2026-04-19T08:03:23.33Z</time></trkpt><trkpt lat="42.8178172" lon="10.2870575"><ele>27.0</ele><time>2026-04-19T08:03:24.328Z</time></trkpt><trkpt lat="42.8179247" lon="10.2869339"><ele>27.0</ele><time>2026-04-19T08:03:26.333Z</time></trkpt><trkpt lat="42.8180322" lon="10.286886"><ele>27.0</ele><time>2026-04-19T08:03:27.329Z</time></trkpt><trkpt lat="42.818144" lon="10.2868257"><ele>27.0</ele><time>2026-04-19T08:03:28.328Z</time></trkpt><trkpt lat="42.8182603" lon="10.2867633"><ele>27.0</ele><time>2026-04-19T08:03:29.336Z</time></trkpt><trkpt lat="42.8183839" lon="10.2867038"><ele>26.0</ele><time>2026-04-19T08:03:30.326Z</time></trkpt><trkpt lat="42.8185115" lon="10.2866384"><ele>25.0</ele><time>2026-04-19T08:03:31.33Z</time></trkpt><trkpt lat="42.8186285" lon="10.2865552"><ele>24.0</ele><time>2026-04-19T08:03:32.336Z</time></trkpt><trkpt lat="42.8187234" lon="10.28644"><ele>23.0</ele><time>2026-04-19T08:03:33.329Z</time></trkpt><trkpt lat="42.8187949" lon="10.2863042"><ele>25.799999999999997</ele><time>2026-04-19T08:03:34.326Z</time></trkpt><trkpt lat="42.8188524" lon="10.2861623"><ele>28.6</ele><time>2026-04-19T08:03:35.331Z</time></trkpt><trkpt lat="42.8189054" lon="10.286029"><ele>31.400000000000002</ele><time>2026-04-19T08:03:36.333Z</time></trkpt><trkpt lat="42.8189638" lon="10.285917"><ele>34.2</ele><time>2026-04-19T08:03:37.326Z</time></trkpt><trkpt lat="42.819033" lon="10.2858478"><ele>37.0</ele><time>2026-04-19T08:03:38.336Z</time></trkpt><trkpt lat="42.8191071" lon="10.2858269"><ele>37.0</ele><time>2026-04-19T08:03:39.339Z</time></trkpt><trkpt lat="42.8191873" lon="10.2858526"><ele>37.0</ele><time>2026-04-19T08:03:40.337Z</time></trkpt><trkpt lat="42.8192593" lon="10.2859121"><ele>37.0</ele><time>2026-04-19T08:03:41.34Z</time></trkpt><trkpt lat="42.8193289" lon="10.2859887"><ele>37.0</ele><time>2026-04-19T08:03:42.33Z</time></trkpt><trkpt lat="42.8194076" lon="10.2860563"><ele>37.0</ele><time>2026-04-19T08:03:43.334Z</time></trkpt><trkpt lat="42.8194943" lon="10.2860901"><ele>37.0</ele><time>2026-04-19T08:03:44.339Z</time></trkpt><trkpt lat="42.8195835" lon="10.2860973"><ele>37.6</ele><time>2026-04-19T08:03:45.338Z</time></trkpt><trkpt lat="42.8197417" lon="10.2860996"><ele>38.2</ele><time>2026-04-19T08:03:47.339Z</time></trkpt><trkpt lat="42.8198082" lon="10.2861126"><ele>38.8</ele><time>2026-04-19T08:03:48.342Z</time></trkpt><trkpt lat="42.8198998" lon="10.2861622"><ele>39.4</ele><time>2026-04-19T08:03:50.339Z</time></trkpt><trkpt lat="42.8199712" lon="10.2862377"><ele>40.0</ele><time>2026-04-19T08:03:52.338Z</time></trkpt><trkpt lat="42.8200638" lon="10.2863186"><ele>38.0</ele><time>2026-04-19T08:03:54.342Z</time></trkpt><trkpt lat="42.8201543" lon="10.2863669"><ele>36.0</ele><time>2026-04-19T08:03:56.345Z</time></trkpt><trkpt lat="42.8202529" lon="10.2863596"><ele>34.0</ele><time>2026-04-19T08:03:58.347Z</time></trkpt><trkpt lat="42.8203102" lon="10.2863167"><ele>32.0</ele><time>2026-04-19T08:03:59.343Z</time></trkpt><trkpt lat="42.8203664" lon="10.286244"><ele>30.000000000000004</ele><time>2026-04-19T08:04:00.355Z</time></trkpt><trkpt lat="42.8204136" lon="10.2861419"><ele>28.0</ele><time>2026-04-19T08:04:01.355Z</time></trkpt><trkpt lat="42.8204417" lon="10.2860165"><ele>28.0</ele><time>2026-04-19T08:04:02.35Z</time></trkpt><trkpt lat="42.8204555" lon="10.2858795"><ele>27.999999999999996</ele><time>2026-04-19T08:04:03.351Z</time></trkpt><trkpt lat="42.8204648" lon="10.28574"><ele>27.999999999999996</ele><time>2026-04-19T08:04:04.35Z</time></trkpt><trkpt lat="42.8204738" lon="10.2856132"><ele>28.0</ele><time>2026-04-19T08:04:05.347Z</time></trkpt><trkpt lat="42.8204854" lon="10.2855081"><ele>28.0</ele><time>2026-04-19T08:04:06.354Z</time></trkpt><trkpt lat="42.8205212" lon="10.2853011"><ele>29.333333333333336</ele><time>2026-04-19T08:04:08.351Z</time></trkpt><trkpt lat="42.8205441" lon="10.2851828"><ele>30.666666666666668</ele><time>2026-04-19T08:04:09.361Z</time></trkpt><trkpt lat="42.8205738" lon="10.2850712"><ele>32.0</ele><time>2026-04-19T08:04:10.345Z</time></trkpt><trkpt lat="42.8206075" lon="10.2849709"><ele>33.333333333333336</ele><time>2026-04-19T08:04:11.337Z</time></trkpt><trkpt lat="42.8206398" lon="10.2848853"><ele>34.666666666666664</ele><time>2026-04-19T08:04:12.345Z</time></trkpt><trkpt lat="42.8206885" lon="10.2847607"><ele>36.0</ele><time>2026-04-19T08:04:14.336Z</time></trkpt><trkpt lat="42.8206018" lon="10.2847813"><ele>36.0</ele><time>2026-04-19T08:05:07.335Z</time></trkpt><trkpt lat="42.820491" lon="10.2849006"><ele>36.0</ele><time>2026-04-19T08:05:09.342Z</time></trkpt><trkpt lat="42.8204282" lon="10.2849603"><ele>36.0</ele><time>2026-04-19T08:05:10.335Z</time></trkpt><trkpt lat="42.8203643" lon="10.2850271"><ele>36.0</ele><time>2026-04-19T08:05:11.339Z</time></trkpt><trkpt lat="42.8202997" lon="10.2851083"><ele>36.0</ele><time>2026-04-19T08:05:12.339Z</time></trkpt><trkpt lat="42.8202375" lon="10.2851835"><ele>36.0</ele><time>2026-04-19T08:05:13.33Z</time></trkpt><trkpt lat="42.8201831" lon="10.2852602"><ele>36.0</ele><time>2026-04-19T08:05:14.337Z</time></trkpt><trkpt lat="42.8201243" lon="10.2853359"><ele>36.0</ele><time>2026-04-19T08:05:15.333Z</time></trkpt><trkpt lat="42.8200684" lon="10.2853779"><ele>36.0</ele><time>2026-04-19T08:05:16.336Z</time></trkpt><trkpt lat="42.8199422" lon="10.2853962"><ele>36.0</ele><time>2026-04-19T08:05:18.338Z</time></trkpt><trkpt lat="42.8198749" lon="10.2853875"><ele>36.0</ele><time>2026-04-19T08:05:19.342Z</time></trkpt><trkpt lat="42.8198034" lon="10.2853661"><ele>39.166666666666664</ele><time>2026-04-19T08:05:20.342Z</time></trkpt><trkpt lat="42.8197337" lon="10.2853403"><ele>42.33333333333333</ele><time>2026-04-19T08:05:21.342Z</time></trkpt><trkpt lat="42.8196656" lon="10.2853076"><ele>45.5</ele><time>2026-04-19T08:05:22.347Z</time></trkpt><trkpt lat="42.819599" lon="10.2852689"><ele>48.666666666666664</ele><time>2026-04-19T08:05:23.331Z</time></trkpt><trkpt lat="42.8195411" lon="10.2852279"><ele>51.83333333333333</ele><time>2026-04-19T08:05:24.345Z</time></trkpt><trkpt lat="42.8194539" lon="10.2851079"><ele>55.0</ele><time>2026-04-19T08:05:26.334Z</time></trkpt><trkpt lat="42.8194193" lon="10.2850192"><ele>54.99999999999999</ele><time>2026-04-19T08:05:27.328Z</time></trkpt><trkpt lat="42.8193894" lon="10.2849224"><ele>55.0</ele><time>2026-04-19T08:05:28.326Z</time></trkpt><trkpt lat="42.8193099" lon="10.2847593"><ele>55.0</ele><time>2026-04-19T08:05:30.33Z</time></trkpt><trkpt lat="42.8192588" lon="10.2847002"><ele>55.0</ele><time>2026-04-19T08:05:31.322Z</time></trkpt><trkpt lat="42.819196" lon="10.2846542"><ele>54.99999999999999</ele><time>2026-04-19T08:05:32.324Z</time></trkpt><trkpt lat="42.8191257" lon="10.2846364"><ele>55.0</ele><time>2026-04-19T08:05:33.33Z</time></trkpt><trkpt lat="42.8190548" lon="10.2846575"><ele>58.14285714285714</ele><time>2026-04-19T08:05:34.322Z</time></trkpt><trkpt lat="42.8189877" lon="10.2846837"><ele>61.285714285714285</ele><time>2026-04-19T08:05:35.322Z</time></trkpt><trkpt lat="42.8189191" lon="10.2847088"><ele>64.42857142857143</ele><time>2026-04-19T08:05:36.325Z</time></trkpt><trkpt lat="42.818849" lon="10.2847133"><ele>67.57142857142857</ele><time>2026-04-19T08:05:37.325Z</time></trkpt><trkpt lat="42.8187783" lon="10.2846948"><ele>70.71428571428571</ele><time>2026-04-19T08:05:38.315Z</time></trkpt><trkpt lat="42.818709" lon="10.2846477"><ele>73.85714285714286</ele><time>2026-04-19T08:05:39.328Z</time></trkpt><trkpt lat="42.8186522" lon="10.2845802"><ele>77.0</ele><time>2026-04-19T08:05:40.323Z</time></trkpt><trkpt lat="42.8186046" lon="10.2845069"><ele>77.0</ele><time>2026-04-19T08:05:41.324Z</time></trkpt><trkpt lat="42.8185058" lon="10.2844389"><ele>77.0</ele><time>2026-04-19T08:05:43.319Z</time></trkpt><trkpt lat="42.8183899" lon="10.2843874"><ele>77.0</ele><time>2026-04-19T08:05:45.322Z</time></trkpt><trkpt lat="42.8183305" lon="10.2843565"><ele>77.0</ele><time>2026-04-19T08:05:46.314Z</time></trkpt><trkpt lat="42.81827" lon="10.284323"><ele>77.0</ele><time>2026-04-19T08:05:47.32Z</time></trkpt><trkpt lat="42.8181709" lon="10.2842766"><ele>77.0</ele><time>2026-04-19T08:05:49.319Z</time></trkpt><trkpt lat="42.8180263" lon="10.2844195"><ele>77.0</ele><time>2026-04-19T08:05:53.322Z</time></trkpt><trkpt lat="42.8179813" lon="10.2845003"><ele>77.0</ele><time>2026-04-19T08:05:54.323Z</time></trkpt><trkpt lat="42.8179352" lon="10.2845792"><ele>77.0</ele><time>2026-04-19T08:05:55.319Z</time></trkpt><trkpt lat="42.8178865" lon="10.2846524"><ele>77.0</ele><time>2026-04-19T08:05:56.324Z</time></trkpt><trkpt lat="42.8178186" lon="10.2847218"><ele>75.4</ele><time>2026-04-19T08:05:57.322Z</time></trkpt><trkpt lat="42.8177371" lon="10.2847808"><ele>73.80000000000001</ele><time>2026-04-19T08:05:58.32Z</time></trkpt><trkpt lat="42.8176375" lon="10.2848179"><ele>72.2</ele><time>2026-04-19T08:05:59.323Z</time></trkpt><trkpt lat="42.8175395" lon="10.2848175"><ele>70.60000000000001</ele><time>2026-04-19T08:06:00.323Z</time></trkpt><trkpt lat="42.8174508" lon="10.2848013"><ele>69.0</ele><time>2026-04-19T08:06:01.32Z</time></trkpt><trkpt lat="42.8173708" lon="10.2847763"><ele>72.0</ele><time>2026-04-19T08:06:02.321Z</time></trkpt><trkpt lat="42.8172963" lon="10.28474"><ele>75.0</ele><time>2026-04-19T08:06:03.323Z</time></trkpt><trkpt lat="42.8172276" lon="10.2846965"><ele>78.0</ele><time>2026-04-19T08:06:04.323Z</time></trkpt><trkpt lat="42.8171653" lon="10.2846393"><ele>81.0</ele><time>2026-04-19T08:06:05.32Z</time></trkpt><trkpt lat="42.8171096" lon="10.2845825"><ele>84.0</ele><time>2026-04-19T08:06:06.319Z</time></trkpt><trkpt lat="42.817055" lon="10.2845267"><ele>87.0</ele><time>2026-04-19T08:06:07.323Z</time></trkpt><trkpt lat="42.8170027" lon="10.2844707"><ele>90.0</ele><time>2026-04-19T08:06:08.322Z</time></trkpt><trkpt lat="42.8169435" lon="10.2844174"><ele>90.0</ele><time>2026-04-19T08:06:09.326Z</time></trkpt><trkpt lat="42.8168824" lon="10.2843601"><ele>90.0</ele><time>2026-04-19T08:06:10.326Z</time></trkpt><trkpt lat="42.8167639" lon="10.2842444"><ele>90.0</ele><time>2026-04-19T08:06:12.325Z</time></trkpt><trkpt lat="42.8167047" lon="10.2841859"><ele>90.0</ele><time>2026-04-19T08:06:13.323Z</time></trkpt><trkpt lat="42.8166443" lon="10.2841275"><ele>90.0</ele><time>2026-04-19T08:06:14.327Z</time></trkpt><trkpt lat="42.8165834" lon="10.2840656"><ele>90.0</ele><time>2026-04-19T08:06:15.325Z</time></trkpt><trkpt lat="42.8165275" lon="10.2840004"><ele>89.5</ele><time>2026-04-19T08:06:16.328Z</time></trkpt><trkpt lat="42.816478" lon="10.2839326"><ele>89.0</ele><time>2026-04-19T08:06:17.325Z</time></trkpt><trkpt lat="42.8164231" lon="10.283868"><ele>88.5</ele><time>2026-04-19T08:06:18.325Z</time></trkpt><trkpt lat="42.8163646" lon="10.2838206"><ele>88.0</ele><time>2026-04-19T08:06:19.326Z</time></trkpt><trkpt lat="42.8162546" lon="10.283715"><ele>87.5</ele><time>2026-04-19T08:06:21.325Z</time></trkpt><trkpt lat="42.8162063" lon="10.2836356"><ele>87.0</ele><time>2026-04-19T08:06:22.323Z</time></trkpt><trkpt lat="42.8161667" lon="10.2835582"><ele>88.83333333333333</ele><time>2026-04-19T08:06:23.33Z</time></trkpt><trkpt lat="42.8161214" lon="10.2834848"><ele>90.66666666666666</ele><time>2026-04-19T08:06:24.325Z</time></trkpt><trkpt lat="42.8160699" lon="10.2834161"><ele>92.5</ele><time>2026-04-19T08:06:25.322Z</time></trkpt><trkpt lat="42.8160206" lon="10.2833493"><ele>94.33333333333333</ele><time>2026-04-19T08:06:26.326Z</time></trkpt><trkpt lat="42.8159795" lon="10.283283"><ele>96.16666666666666</ele><time>2026-04-19T08:06:27.323Z</time></trkpt><trkpt lat="42.8159313" lon="10.2831468"><ele>98.0</ele><time>2026-04-19T08:06:29.322Z</time></trkpt><trkpt lat="42.8158622" lon="10.2830794"><ele>98.0</ele><time>2026-04-19T08:06:31.323Z</time></trkpt><trkpt lat="42.8156266" lon="10.28313"><ele>98.0</ele><time>2026-04-19T08:06:35.318Z</time></trkpt><trkpt lat="42.8155538" lon="10.2831399"><ele>98.0</ele><time>2026-04-19T08:06:36.32Z</time></trkpt><trkpt lat="42.8154864" lon="10.2831218"><ele>98.0</ele><time>2026-04-19T08:06:37.322Z</time></trkpt><trkpt lat="42.8154204" lon="10.2830854"><ele>102.71428571428572</ele><time>2026-04-19T08:06:38.316Z</time></trkpt><trkpt lat="42.8153572" lon="10.2830259"><ele>107.42857142857143</ele><time>2026-04-19T08:06:39.321Z</time></trkpt><trkpt lat="42.8153031" lon="10.2829459"><ele>112.14285714285714</ele><time>2026-04-19T08:06:40.322Z</time></trkpt><trkpt lat="42.8152474" lon="10.2828713"><ele>116.85714285714286</ele><time>2026-04-19T08:06:41.321Z</time></trkpt><trkpt lat="42.8151892" lon="10.2828195"><ele>121.57142857142858</ele><time>2026-04-19T08:06:42.318Z</time></trkpt><trkpt lat="42.8151272" lon="10.282793"><ele>126.28571428571429</ele><time>2026-04-19T08:06:43.316Z</time></trkpt><trkpt lat="42.8150572" lon="10.2827886"><ele>131.0</ele><time>2026-04-19T08:06:44.314Z</time></trkpt><trkpt lat="42.8149413" lon="10.282846"><ele>131.0</ele><time>2026-04-19T08:06:46.323Z</time></trkpt><trkpt lat="42.8148874" lon="10.282933"><ele>131.0</ele><time>2026-04-19T08:06:47.321Z</time></trkpt><trkpt lat="42.8148178" lon="10.2830106"><ele>131.0</ele><time>2026-04-19T08:06:48.323Z</time></trkpt><trkpt lat="42.8147351" lon="10.2830615"><ele>131.0</ele><time>2026-04-19T08:06:49.319Z</time></trkpt><trkpt lat="42.8146534" lon="10.2830873"><ele>131.0</ele><time>2026-04-19T08:06:50.325Z</time></trkpt><trkpt lat="42.8145752" lon="10.2830977"><ele>131.0</ele><time>2026-04-19T08:06:51.321Z</time></trkpt><trkpt lat="42.8144981" lon="10.2831044"><ele>133.0</ele><time>2026-04-19T08:06:52.321Z</time></trkpt><trkpt lat="42.8143454" lon="10.2831192"><ele>135.0</ele><time>2026-04-19T08:06:54.323Z</time></trkpt><trkpt lat="42.8142635" lon="10.2831178"><ele>137.0</ele><time>2026-04-19T08:06:55.32Z</time></trkpt><trkpt lat="42.8141841" lon="10.283102"><ele>139.0</ele><time>2026-04-19T08:06:56.322Z</time></trkpt><trkpt lat="42.8141119" lon="10.283079"><ele>141.0</ele><time>2026-04-19T08:06:57.32Z</time></trkpt><trkpt lat="42.8140417" lon="10.283055"><ele>141.0</ele><time>2026-04-19T08:06:58.318Z</time></trkpt><trkpt lat="42.8139693" lon="10.2830405"><ele>141.0</ele><time>2026-04-19T08:06:59.322Z</time></trkpt><trkpt lat="42.8138916" lon="10.2830412"><ele>141.0</ele><time>2026-04-19T08:07:00.322Z</time></trkpt><trkpt lat="42.813822" lon="10.283031"><ele>141.0</ele><time>2026-04-19T08:07:01.317Z</time></trkpt><trkpt lat="42.8137622" lon="10.2829941"><ele>141.0</ele><time>2026-04-19T08:07:02.317Z</time></trkpt><trkpt lat="42.8136779" lon="10.2828578"><ele>141.0</ele><time>2026-04-19T08:07:04.321Z</time></trkpt><trkpt lat="42.8136365" lon="10.2827791"><ele>141.0</ele><time>2026-04-19T08:07:05.321Z</time></trkpt><trkpt lat="42.813593" lon="10.2826962"><ele>141.0</ele><time>2026-04-19T08:07:06.318Z</time></trkpt><trkpt lat="42.8135607" lon="10.2826055"><ele>141.0</ele><time>2026-04-19T08:07:07.32Z</time></trkpt><trkpt lat="42.8135317" lon="10.2824998"><ele>141.0</ele><time>2026-04-19T08:07:08.321Z</time></trkpt><trkpt lat="42.8135037" lon="10.2823831"><ele>141.0</ele><time>2026-04-19T08:07:09.321Z</time></trkpt><trkpt lat="42.8134682" lon="10.2822871"><ele>141.0</ele><time>2026-04-19T08:07:10.317Z</time></trkpt><trkpt lat="42.81343" lon="10.2822135"><ele>142.0</ele><time>2026-04-19T08:07:11.318Z</time></trkpt><trkpt lat="42.8133797" lon="10.2821498"><ele>143.0</ele><time>2026-04-19T08:07:12.316Z</time></trkpt><trkpt lat="42.8133224" lon="10.282108"><ele>144.0</ele><time>2026-04-19T08:07:13.319Z</time></trkpt><trkpt lat="42.8131231" lon="10.2821485"><ele>145.0</ele><time>2026-04-19T08:07:16.323Z</time></trkpt><trkpt lat="42.8130456" lon="10.2821682"><ele>146.0</ele><time>2026-04-19T08:07:17.319Z</time></trkpt><trkpt lat="42.8129666" lon="10.2821889"><ele>146.0</ele><time>2026-04-19T08:07:18.326Z</time></trkpt><trkpt lat="42.8128923" lon="10.2822249"><ele>146.0</ele><time>2026-04-19T08:07:19.325Z</time></trkpt><trkpt lat="42.8128342" lon="10.2822773"><ele>146.0</ele><time>2026-04-19T08:07:20.323Z</time></trkpt><trkpt lat="42.812757" lon="10.2823818"><ele>146.0</ele><time>2026-04-19T08:07:22.32Z</time></trkpt><trkpt lat="42.8127826" lon="10.2822587"><ele>146.0</ele><time>2026-04-19T08:07:27.322Z</time></trkpt><trkpt lat="42.812848" lon="10.282196"><ele>146.0</ele><time>2026-04-19T08:07:28.318Z</time></trkpt><trkpt lat="42.8129138" lon="10.2821397"><ele>146.0</ele><time>2026-04-19T08:07:29.318Z</time></trkpt><trkpt lat="42.8129832" lon="10.282065"><ele>146.0</ele><time>2026-04-19T08:07:30.327Z</time></trkpt><trkpt lat="42.8130555" lon="10.2819855"><ele>146.0</ele><time>2026-04-19T08:07:31.323Z</time></trkpt><trkpt lat="42.8131314" lon="10.2819201"><ele>146.0</ele><time>2026-04-19T08:07:32.322Z</time></trkpt><trkpt lat="42.8131979" lon="10.2818626"><ele>146.0</ele><time>2026-04-19T08:07:33.322Z</time></trkpt><trkpt lat="42.8132572" lon="10.2818073"><ele>146.0</ele><time>2026-04-19T08:07:34.325Z</time></trkpt><trkpt lat="42.8133691" lon="10.2817047"><ele>146.0</ele><time>2026-04-19T08:07:36.322Z</time></trkpt><trkpt lat="42.8134275" lon="10.2816627"><ele>146.0</ele><time>2026-04-19T08:07:37.32Z</time></trkpt><trkpt lat="42.8135188" lon="10.2816272"><ele>146.0</ele><time>2026-04-19T08:07:39.325Z</time></trkpt><trkpt lat="42.813542" lon="10.2815145"><ele>146.0</ele><time>2026-04-19T08:07:42.33Z</time></trkpt><trkpt lat="42.8135155" lon="10.2814288"><ele>146.0</ele><time>2026-04-19T08:07:44.334Z</time></trkpt><trkpt lat="42.8134692" lon="10.2813593"><ele>146.0</ele><time>2026-04-19T08:07:46.333Z</time></trkpt><trkpt lat="42.8134097" lon="10.2812622"><ele>146.0</ele><time>2026-04-19T08:07:58.327Z</time></trkpt><trkpt lat="42.8132379" lon="10.2812067"><ele>146.0</ele><time>2026-04-19T08:08:02.329Z</time></trkpt><trkpt lat="42.8131611" lon="10.2813104"><ele>146.0</ele><time>2026-04-19T08:08:04.33Z</time></trkpt><trkpt lat="42.8130927" lon="10.2814446"><ele>146.0</ele><time>2026-04-19T08:08:06.333Z</time></trkpt><trkpt lat="42.8130488" lon="10.2815238"><ele>146.0</ele><time>2026-04-19T08:08:07.331Z</time></trkpt><trkpt lat="42.8129916" lon="10.2816025"><ele>146.0</ele><time>2026-04-19T08:08:08.327Z</time></trkpt><trkpt lat="42.8129221" lon="10.2816698"><ele>146.0</ele><time>2026-04-19T08:08:09.331Z</time></trkpt><trkpt lat="42.8128393" lon="10.2817277"><ele>146.0</ele><time>2026-04-19T08:08:10.327Z</time></trkpt><trkpt lat="42.8127429" lon="10.2817918"><ele>146.0</ele><time>2026-04-19T08:08:11.329Z</time></trkpt><trkpt lat="42.8126414" lon="10.2818464"><ele>148.66666666666666</ele><time>2026-04-19T08:08:12.328Z</time></trkpt><trkpt lat="42.8125531" lon="10.281874"><ele>151.33333333333331</ele><time>2026-04-19T08:08:13.328Z</time></trkpt><trkpt lat="42.8124755" lon="10.2818636"><ele>154.0</ele><time>2026-04-19T08:08:14.322Z</time></trkpt><trkpt lat="42.8123952" lon="10.2818312"><ele>156.66666666666666</ele><time>2026-04-19T08:08:15.322Z</time></trkpt><trkpt lat="42.8123131" lon="10.2818009"><ele>159.33333333333334</ele><time>2026-04-19T08:08:16.319Z</time></trkpt><trkpt lat="42.8122296" lon="10.2817749"><ele>162.0</ele><time>2026-04-19T08:08:17.323Z</time></trkpt><trkpt lat="42.812142" lon="10.2817497"><ele>162.0</ele><time>2026-04-19T08:08:18.325Z</time></trkpt><trkpt lat="42.8120558" lon="10.2817315"><ele>162.0</ele><time>2026-04-19T08:08:19.322Z</time></trkpt><trkpt lat="42.8118783" lon="10.2817238"><ele>162.0</ele><time>2026-04-19T08:08:21.324Z</time></trkpt><trkpt lat="42.8117927" lon="10.2817355"><ele>162.0</ele><time>2026-04-19T08:08:22.323Z</time></trkpt><trkpt lat="42.8117063" lon="10.2817597"><ele>162.0</ele><time>2026-04-19T08:08:23.321Z</time></trkpt><trkpt lat="42.8116203" lon="10.2818134"><ele>163.66666666666666</ele><time>2026-04-19T08:08:24.327Z</time></trkpt><trkpt lat="42.8115425" lon="10.2818858"><ele>165.33333333333334</ele><time>2026-04-19T08:08:25.321Z</time></trkpt><trkpt lat="42.8114811" lon="10.2819522"><ele>167.0</ele><time>2026-04-19T08:08:26.323Z</time></trkpt><trkpt lat="42.8114213" lon="10.2820083"><ele>168.66666666666669</ele><time>2026-04-19T08:08:27.325Z</time></trkpt><trkpt lat="42.8113544" lon="10.2820546"><ele>170.33333333333334</ele><time>2026-04-19T08:08:28.323Z</time></trkpt><trkpt lat="42.811286" lon="10.2820762"><ele>172.0</ele><time>2026-04-19T08:08:29.324Z</time></trkpt><trkpt lat="42.8112071" lon="10.2820861"><ele>172.00000000000003</ele><time>2026-04-19T08:08:30.322Z</time></trkpt><trkpt lat="42.8111248" lon="10.2820867"><ele>172.0</ele><time>2026-04-19T08:08:31.322Z</time></trkpt><trkpt lat="42.8110546" lon="10.2820837"><ele>172.0</ele><time>2026-04-19T08:08:32.318Z</time></trkpt><trkpt lat="42.8109857" lon="10.2820881"><ele>172.0</ele><time>2026-04-19T08:08:33.318Z</time></trkpt><trkpt lat="42.8109164" lon="10.2821001"><ele>172.0</ele><time>2026-04-19T08:08:34.32Z</time></trkpt><trkpt lat="42.8108474" lon="10.2821314"><ele>172.00000000000003</ele><time>2026-04-19T08:08:35.317Z</time></trkpt><trkpt lat="42.8107836" lon="10.2821885"><ele>172.0</ele><time>2026-04-19T08:08:36.322Z</time></trkpt><trkpt lat="42.8107251" lon="10.282267"><ele>171.5</ele><time>2026-04-19T08:08:37.325Z</time></trkpt><trkpt lat="42.810665" lon="10.2823541"><ele>171.0</ele><time>2026-04-19T08:08:38.323Z</time></trkpt><trkpt lat="42.8106113" lon="10.2824305"><ele>170.5</ele><time>2026-04-19T08:08:39.322Z</time></trkpt><trkpt lat="42.8105655" lon="10.2824916"><ele>170.0</ele><time>2026-04-19T08:08:40.321Z</time></trkpt><trkpt lat="42.8103432" lon="10.2825227"><ele>170.0</ele><time>2026-04-19T08:08:44.324Z</time></trkpt><trkpt lat="42.810276" lon="10.2824911"><ele>170.0</ele><time>2026-04-19T08:08:45.324Z</time></trkpt><trkpt lat="42.8101994" lon="10.2824558"><ele>170.0</ele><time>2026-04-19T08:08:46.323Z</time></trkpt><trkpt lat="42.8101243" lon="10.2824393"><ele>170.0</ele><time>2026-04-19T08:08:47.327Z</time></trkpt><trkpt lat="42.8100518" lon="10.2824497"><ele>170.0</ele><time>2026-04-19T08:08:48.326Z</time></trkpt><trkpt lat="42.8099817" lon="10.2824994"><ele>170.0</ele><time>2026-04-19T08:08:49.324Z</time></trkpt><trkpt lat="42.8099163" lon="10.2825529"><ele>173.5</ele><time>2026-04-19T08:08:50.323Z</time></trkpt><trkpt lat="42.8098525" lon="10.282597"><ele>177.0</ele><time>2026-04-19T08:08:51.325Z</time></trkpt><trkpt lat="42.8097852" lon="10.2826154"><ele>180.5</ele><time>2026-04-19T08:08:52.322Z</time></trkpt><trkpt lat="42.8097143" lon="10.2826296"><ele>184.0</ele><time>2026-04-19T08:08:53.323Z</time></trkpt><trkpt lat="42.8096404" lon="10.2826552"><ele>187.5</ele><time>2026-04-19T08:08:54.325Z</time></trkpt><trkpt lat="42.8095642" lon="10.2826964"><ele>191.0</ele><time>2026-04-19T08:08:55.318Z</time></trkpt><trkpt lat="42.8094898" lon="10.2827447"><ele>191.0</ele><time>2026-04-19T08:08:56.321Z</time></trkpt><trkpt lat="42.8094153" lon="10.2828007"><ele>191.0</ele><time>2026-04-19T08:08:57.321Z</time></trkpt><trkpt lat="42.8093463" lon="10.28286"><ele>191.0</ele><time>2026-04-19T08:08:58.322Z</time></trkpt><trkpt lat="42.8092706" lon="10.2829174"><ele>191.0</ele><time>2026-04-19T08:08:59.32Z</time></trkpt><trkpt lat="42.809192" lon="10.2829804"><ele>191.0</ele><time>2026-04-19T08:09:00.322Z</time></trkpt><trkpt lat="42.8091159" lon="10.2830443"><ele>191.0</ele><time>2026-04-19T08:09:01.322Z</time></trkpt><trkpt lat="42.8089572" lon="10.2831728"><ele>191.0</ele><time>2026-04-19T08:09:03.322Z</time></trkpt><trkpt lat="42.8088785" lon="10.2832346"><ele>191.0</ele><time>2026-04-19T08:09:04.317Z</time></trkpt><trkpt lat="42.8088169" lon="10.2833138"><ele>191.0</ele><time>2026-04-19T08:09:05.316Z</time></trkpt><trkpt lat="42.8087687" lon="10.2834152"><ele>191.0</ele><time>2026-04-19T08:09:06.317Z</time></trkpt><trkpt lat="42.8087384" lon="10.2835262"><ele>191.0</ele><time>2026-04-19T08:09:07.317Z</time></trkpt><trkpt lat="42.8087173" lon="10.2836371"><ele>191.0</ele><time>2026-04-19T08:09:08.317Z</time></trkpt><trkpt lat="42.8086998" lon="10.2837524"><ele>191.0</ele><time>2026-04-19T08:09:09.317Z</time></trkpt><trkpt lat="42.8086861" lon="10.2838748"><ele>191.0</ele><time>2026-04-19T08:09:10.319Z</time></trkpt><trkpt lat="42.8086718" lon="10.2839965"><ele>191.0</ele><time>2026-04-19T08:09:11.324Z</time></trkpt><trkpt lat="42.8086595" lon="10.2841193"><ele>191.0</ele><time>2026-04-19T08:09:12.326Z</time></trkpt><trkpt lat="42.8086687" lon="10.2842363"><ele>191.0</ele><time>2026-04-19T08:09:13.318Z</time></trkpt><trkpt lat="42.8086927" lon="10.2843459"><ele>191.0</ele><time>2026-04-19T08:09:14.322Z</time></trkpt><trkpt lat="42.80872" lon="10.2844471"><ele>190.5</ele><time>2026-04-19T08:09:15.318Z</time></trkpt><trkpt lat="42.8087522" lon="10.2845555"><ele>190.0</ele><time>2026-04-19T08:09:16.317Z</time></trkpt><trkpt lat="42.8087827" lon="10.2846674"><ele>189.5</ele><time>2026-04-19T08:09:17.318Z</time></trkpt><trkpt lat="42.8088089" lon="10.2847777"><ele>189.0</ele><time>2026-04-19T08:09:18.316Z</time></trkpt><trkpt lat="42.8088187" lon="10.2848917"><ele>188.5</ele><time>2026-04-19T08:09:19.318Z</time></trkpt><trkpt lat="42.8088166" lon="10.2849803"><ele>188.0</ele><time>2026-04-19T08:09:20.326Z</time></trkpt><trkpt lat="42.8087489" lon="10.2850758"><ele>189.60000000000002</ele><time>2026-04-19T08:09:22.329Z</time></trkpt><trkpt lat="42.8086024" lon="10.285082"><ele>191.20000000000002</ele><time>2026-04-19T08:09:26.329Z</time></trkpt><trkpt lat="42.8085234" lon="10.2850891"><ele>192.8</ele><time>2026-04-19T08:09:28.326Z</time></trkpt><trkpt lat="42.8083957" lon="10.2850871"><ele>194.4</ele><time>2026-04-19T08:09:30.325Z</time></trkpt><trkpt lat="42.8083133" lon="10.2850891"><ele>196.0</ele><time>2026-04-19T08:09:31.319Z</time></trkpt><trkpt lat="42.8082276" lon="10.2850872"><ele>197.16666666666666</ele><time>2026-04-19T08:09:32.318Z</time></trkpt><trkpt lat="42.808151" lon="10.2850672"><ele>198.33333333333331</ele><time>2026-04-19T08:09:33.322Z</time></trkpt><trkpt lat="42.8080844" lon="10.2850383"><ele>199.5</ele><time>2026-04-19T08:09:34.323Z</time></trkpt><trkpt lat="42.8080275" lon="10.2850009"><ele>200.66666666666669</ele><time>2026-04-19T08:09:35.326Z</time></trkpt><trkpt lat="42.8079094" lon="10.2849437"><ele>201.83333333333334</ele><time>2026-04-19T08:09:37.324Z</time></trkpt><trkpt lat="42.8078445" lon="10.284918"><ele>203.0</ele><time>2026-04-19T08:09:38.325Z</time></trkpt><trkpt lat="42.8077734" lon="10.284875"><ele>203.0</ele><time>2026-04-19T08:09:39.327Z</time></trkpt><trkpt lat="42.8077044" lon="10.2848186"><ele>203.0</ele><time>2026-04-19T08:09:40.325Z</time></trkpt><trkpt lat="42.8076409" lon="10.2847446"><ele>203.0</ele><time>2026-04-19T08:09:41.321Z</time></trkpt><trkpt lat="42.8075831" lon="10.2846529"><ele>203.0</ele><time>2026-04-19T08:09:42.32Z</time></trkpt><trkpt lat="42.8075329" lon="10.2845436"><ele>203.0</ele><time>2026-04-19T08:09:43.324Z</time></trkpt><trkpt lat="42.8074707" lon="10.2842733"><ele>206.2</ele><time>2026-04-19T08:09:45.323Z</time></trkpt><trkpt lat="42.8074222" lon="10.2841355"><ele>209.4</ele><time>2026-04-19T08:09:46.324Z</time></trkpt><trkpt lat="42.8073652" lon="10.2840146"><ele>212.59999999999997</ele><time>2026-04-19T08:09:47.325Z</time></trkpt><trkpt lat="42.807312" lon="10.2839022"><ele>215.79999999999998</ele><time>2026-04-19T08:09:48.324Z</time></trkpt><trkpt lat="42.8072653" lon="10.2837977"><ele>219.0</ele><time>2026-04-19T08:09:49.319Z</time></trkpt><trkpt lat="42.8072142" lon="10.2836971"><ele>219.2</ele><time>2026-04-19T08:09:50.321Z</time></trkpt><trkpt lat="42.8071458" lon="10.283588"><ele>219.39999999999998</ele><time>2026-04-19T08:09:51.317Z</time></trkpt><trkpt lat="42.8070725" lon="10.2834939"><ele>219.6</ele><time>2026-04-19T08:09:52.331Z</time></trkpt><trkpt lat="42.8069906" lon="10.2834129"><ele>219.8</ele><time>2026-04-19T08:09:53.315Z</time></trkpt><trkpt lat="42.8068998" lon="10.2833361"><ele>220.0</ele><time>2026-04-19T08:09:54.33Z</time></trkpt><trkpt lat="42.8068152" lon="10.2832637"><ele>220.0</ele><time>2026-04-19T08:09:55.326Z</time></trkpt><trkpt lat="42.806732" lon="10.2831953"><ele>220.0</ele><time>2026-04-19T08:09:56.33Z</time></trkpt><trkpt lat="42.8066504" lon="10.2831254"><ele>220.0</ele><time>2026-04-19T08:09:57.326Z</time></trkpt><trkpt lat="42.8065584" lon="10.2830492"><ele>220.0</ele><time>2026-04-19T08:09:58.326Z</time></trkpt><trkpt lat="42.8064674" lon="10.2829775"><ele>220.0</ele><time>2026-04-19T08:09:59.33Z</time></trkpt><trkpt lat="42.8063807" lon="10.2829102"><ele>221.6</ele><time>2026-04-19T08:10:00.331Z</time></trkpt><trkpt lat="42.8063082" lon="10.2828511"><ele>223.2</ele><time>2026-04-19T08:10:01.325Z</time></trkpt><trkpt lat="42.8062368" lon="10.2828031"><ele>224.8</ele><time>2026-04-19T08:10:02.324Z</time></trkpt><trkpt lat="42.8061629" lon="10.2827674"><ele>226.4</ele><time>2026-04-19T08:10:03.325Z</time></trkpt><trkpt lat="42.8060842" lon="10.2827573"><ele>228.0</ele><time>2026-04-19T08:10:04.322Z</time></trkpt><trkpt lat="42.8059252" lon="10.2828032"><ele>228.16666666666666</ele><time>2026-04-19T08:10:06.323Z</time></trkpt><trkpt lat="42.8058389" lon="10.2828322"><ele>228.33333333333331</ele><time>2026-04-19T08:10:07.323Z</time></trkpt><trkpt lat="42.8057603" lon="10.2828431"><ele>228.5</ele><time>2026-04-19T08:10:08.324Z</time></trkpt><trkpt lat="42.8056854" lon="10.2828168"><ele>228.66666666666666</ele><time>2026-04-19T08:10:09.324Z</time></trkpt><trkpt lat="42.805618" lon="10.2827688"><ele>228.83333333333331</ele><time>2026-04-19T08:10:10.325Z</time></trkpt><trkpt lat="42.8055571" lon="10.2826974"><ele>229.0</ele><time>2026-04-19T08:10:11.327Z</time></trkpt><trkpt lat="42.8054972" lon="10.2826173"><ele>229.0</ele><time>2026-04-19T08:10:12.329Z</time></trkpt><trkpt lat="42.805425" lon="10.2825491"><ele>228.99999999999997</ele><time>2026-04-19T08:10:13.322Z</time></trkpt><trkpt lat="42.805339" lon="10.2824943"><ele>228.99999999999997</ele><time>2026-04-19T08:10:14.322Z</time></trkpt><trkpt lat="42.8052461" lon="10.2824544"><ele>229.0</ele><time>2026-04-19T08:10:15.323Z</time></trkpt><trkpt lat="42.8051505" lon="10.2824349"><ele>229.0</ele><time>2026-04-19T08:10:16.322Z</time></trkpt><trkpt lat="42.8050616" lon="10.2824213"><ele>228.2</ele><time>2026-04-19T08:10:17.323Z</time></trkpt><trkpt lat="42.8049718" lon="10.2823997"><ele>227.39999999999998</ele><time>2026-04-19T08:10:18.324Z</time></trkpt><trkpt lat="42.8048734" lon="10.2823756"><ele>226.6</ele><time>2026-04-19T08:10:19.323Z</time></trkpt><trkpt lat="42.8047677" lon="10.2823554"><ele>225.8</ele><time>2026-04-19T08:10:20.328Z</time></trkpt><trkpt lat="42.8046672" lon="10.2823371"><ele>225.0</ele><time>2026-04-19T08:10:21.328Z</time></trkpt><trkpt lat="42.8045814" lon="10.28232"><ele>225.0</ele><time>2026-04-19T08:10:22.324Z</time></trkpt><trkpt lat="42.8045025" lon="10.2822991"><ele>225.0</ele><time>2026-04-19T08:10:23.331Z</time></trkpt><trkpt lat="42.8044338" lon="10.2822598"><ele>225.0</ele><time>2026-04-19T08:10:24.327Z</time></trkpt><trkpt lat="42.8043712" lon="10.2821964"><ele>225.0</ele><time>2026-04-19T08:10:25.324Z</time></trkpt><trkpt lat="42.8042544" lon="10.2820095"><ele>225.0</ele><time>2026-04-19T08:10:27.329Z</time></trkpt><trkpt lat="42.8042072" lon="10.2818887"><ele>225.4</ele><time>2026-04-19T08:10:28.33Z</time></trkpt><trkpt lat="42.8041597" lon="10.2817827"><ele>225.8</ele><time>2026-04-19T08:10:29.33Z</time></trkpt><trkpt lat="42.8040908" lon="10.2817031"><ele>226.2</ele><time>2026-04-19T08:10:30.322Z</time></trkpt><trkpt lat="42.8040098" lon="10.2816389"><ele>226.6</ele><time>2026-04-19T08:10:31.328Z</time></trkpt><trkpt lat="42.8039121" lon="10.2815896"><ele>227.0</ele><time>2026-04-19T08:10:32.322Z</time></trkpt><trkpt lat="42.803814" lon="10.2815587"><ele>227.0</ele><time>2026-04-19T08:10:33.321Z</time></trkpt><trkpt lat="42.8037201" lon="10.2815481"><ele>227.0</ele><time>2026-04-19T08:10:34.321Z</time></trkpt><trkpt lat="42.8036367" lon="10.2815601"><ele>227.0</ele><time>2026-04-19T08:10:35.32Z</time></trkpt><trkpt lat="42.8035612" lon="10.2816114"><ele>227.0</ele><time>2026-04-19T08:10:36.323Z</time></trkpt><trkpt lat="42.8034852" lon="10.2817199"><ele>227.0</ele><time>2026-04-19T08:10:37.321Z</time></trkpt><trkpt lat="42.8034099" lon="10.2818483"><ele>228.39999999999998</ele><time>2026-04-19T08:10:38.32Z</time></trkpt><trkpt lat="42.8033361" lon="10.2819836"><ele>229.79999999999998</ele><time>2026-04-19T08:10:39.323Z</time></trkpt><trkpt lat="42.8032746" lon="10.2820955"><ele>231.2</ele><time>2026-04-19T08:10:40.319Z</time></trkpt><trkpt lat="42.8032146" lon="10.2821928"><ele>232.6</ele><time>2026-04-19T08:10:41.323Z</time></trkpt><trkpt lat="42.8031477" lon="10.2822673"><ele>234.0</ele><time>2026-04-19T08:10:42.32Z</time></trkpt><trkpt lat="42.8030697" lon="10.282316"><ele>232.75</ele><time>2026-04-19T08:10:43.323Z</time></trkpt><trkpt lat="42.8029818" lon="10.2823541"><ele>231.5</ele><time>2026-04-19T08:10:44.326Z</time></trkpt><trkpt lat="42.8028918" lon="10.282405"><ele>230.25</ele><time>2026-04-19T08:10:45.326Z</time></trkpt><trkpt lat="42.8028058" lon="10.2824776"><ele>229.0</ele><time>2026-04-19T08:10:46.326Z</time></trkpt><trkpt lat="42.8026559" lon="10.2826487"><ele>229.0</ele><time>2026-04-19T08:10:48.322Z</time></trkpt><trkpt lat="42.8025933" lon="10.2827347"><ele>228.99999999999997</ele><time>2026-04-19T08:10:49.323Z</time></trkpt><trkpt lat="42.8025252" lon="10.2828377"><ele>228.99999999999997</ele><time>2026-04-19T08:10:50.326Z</time></trkpt><trkpt lat="42.8024604" lon="10.2829561"><ele>229.0</ele><time>2026-04-19T08:10:51.323Z</time></trkpt><trkpt lat="42.8024034" lon="10.2830757"><ele>229.0</ele><time>2026-04-19T08:10:52.325Z</time></trkpt><trkpt lat="42.8023602" lon="10.2831896"><ele>226.16666666666666</ele><time>2026-04-19T08:10:53.322Z</time></trkpt><trkpt lat="42.8023295" lon="10.2832815"><ele>223.33333333333331</ele><time>2026-04-19T08:10:54.327Z</time></trkpt><trkpt lat="42.80229" lon="10.2833589"><ele>220.5</ele><time>2026-04-19T08:10:55.328Z</time></trkpt><trkpt lat="42.8022378" lon="10.2834086"><ele>217.66666666666669</ele><time>2026-04-19T08:10:56.322Z</time></trkpt><trkpt lat="42.8021335" lon="10.2834691"><ele>214.83333333333334</ele><time>2026-04-19T08:10:58.323Z</time></trkpt><trkpt lat="42.8020438" lon="10.2834005"><ele>212.0</ele><time>2026-04-19T08:11:00.33Z</time></trkpt><trkpt lat="42.8020105" lon="10.2833033"><ele>212.0</ele><time>2026-04-19T08:11:01.314Z</time></trkpt><trkpt lat="42.8019876" lon="10.2832222"><ele>212.0</ele><time>2026-04-19T08:11:02.317Z</time></trkpt><trkpt lat="42.8019355" lon="10.283124"><ele>212.0</ele><time>2026-04-19T08:11:04.32Z</time></trkpt><trkpt lat="42.8018358" lon="10.2831285"><ele>212.0</ele><time>2026-04-19T08:11:06.321Z</time></trkpt><trkpt lat="42.8017297" lon="10.2831901"><ele>212.0</ele><time>2026-04-19T08:11:08.317Z</time></trkpt><trkpt lat="42.801597" lon="10.2832221"><ele>211.0</ele><time>2026-04-19T08:11:10.317Z</time></trkpt><trkpt lat="42.8014728" lon="10.2832006"><ele>210.0</ele><time>2026-04-19T08:11:12.312Z</time></trkpt><trkpt lat="42.8014013" lon="10.2831596"><ele>209.0</ele><time>2026-04-19T08:11:13.322Z</time></trkpt><trkpt lat="42.8013279" lon="10.2831147"><ele>208.0</ele><time>2026-04-19T08:11:14.32Z</time></trkpt><trkpt lat="42.8012717" lon="10.2830595"><ele>207.0</ele><time>2026-04-19T08:11:15.32Z</time></trkpt><trkpt lat="42.8011964" lon="10.282972"><ele>207.0</ele><time>2026-04-19T08:11:17.322Z</time></trkpt><trkpt lat="42.8011227" lon="10.2829561"><ele>207.0</ele><time>2026-04-19T08:11:19.321Z</time></trkpt><trkpt lat="42.801063" lon="10.2830285"><ele>207.0</ele><time>2026-04-19T08:11:21.321Z</time></trkpt><trkpt lat="42.8010041" lon="10.2831477"><ele>207.0</ele><time>2026-04-19T08:11:23.323Z</time></trkpt><trkpt lat="42.8009698" lon="10.2832245"><ele>207.0</ele><time>2026-04-19T08:11:24.319Z</time></trkpt><trkpt lat="42.8009313" lon="10.2833089"><ele>207.0</ele><time>2026-04-19T08:11:25.321Z</time></trkpt><trkpt lat="42.8008914" lon="10.283378"><ele>206.5</ele><time>2026-04-19T08:11:26.324Z</time></trkpt><trkpt lat="42.8008507" lon="10.2834549"><ele>206.0</ele><time>2026-04-19T08:11:27.322Z</time></trkpt><trkpt lat="42.8008074" lon="10.2835335"><ele>205.5</ele><time>2026-04-19T08:11:28.323Z</time></trkpt><trkpt lat="42.80076" lon="10.2836078"><ele>205.0</ele><time>2026-04-19T08:11:29.327Z</time></trkpt><trkpt lat="42.8006494" lon="10.2837175"><ele>204.5</ele><time>2026-04-19T08:11:31.325Z</time></trkpt><trkpt lat="42.8005895" lon="10.2837588"><ele>204.0</ele><time>2026-04-19T08:11:32.327Z</time></trkpt><trkpt lat="42.8005281" lon="10.283793"><ele>204.0</ele><time>2026-04-19T08:11:33.332Z</time></trkpt><trkpt lat="42.8004622" lon="10.2838212"><ele>204.0</ele><time>2026-04-19T08:11:34.326Z</time></trkpt><trkpt lat="42.8003954" lon="10.2838452"><ele>204.0</ele><time>2026-04-19T08:11:35.326Z</time></trkpt><trkpt lat="42.8003288" lon="10.2838606"><ele>204.0</ele><time>2026-04-19T08:11:36.327Z</time></trkpt><trkpt lat="42.800255" lon="10.2838708"><ele>204.0</ele><time>2026-04-19T08:11:37.327Z</time></trkpt><trkpt lat="42.8001718" lon="10.2838842"><ele>204.0</ele><time>2026-04-19T08:11:38.327Z</time></trkpt><trkpt lat="42.8000779" lon="10.2839026"><ele>203.0</ele><time>2026-04-19T08:11:39.326Z</time></trkpt><trkpt lat="42.7999811" lon="10.2839254"><ele>202.0</ele><time>2026-04-19T08:11:40.325Z</time></trkpt><trkpt lat="42.7998876" lon="10.2839513"><ele>201.0</ele><time>2026-04-19T08:11:41.325Z</time></trkpt><trkpt lat="42.7997955" lon="10.2839733"><ele>200.0</ele><time>2026-04-19T08:11:42.326Z</time></trkpt><trkpt lat="42.7997102" lon="10.2839894"><ele>199.0</ele><time>2026-04-19T08:11:43.327Z</time></trkpt><trkpt lat="42.799636" lon="10.2839929"><ele>198.0</ele><time>2026-04-19T08:11:44.324Z</time></trkpt><trkpt lat="42.7995287" lon="10.2839838"><ele>198.0</ele><time>2026-04-19T08:11:46.324Z</time></trkpt><trkpt lat="42.799429" lon="10.2839359"><ele>198.0</ele><time>2026-04-19T08:11:48.324Z</time></trkpt><trkpt lat="42.7993521" lon="10.2837995"><ele>198.0</ele><time>2026-04-19T08:11:50.325Z</time></trkpt><trkpt lat="42.79931" lon="10.2835567"><ele>198.0</ele><time>2026-04-19T08:11:52.318Z</time></trkpt><trkpt lat="42.7992939" lon="10.2834209"><ele>193.4</ele><time>2026-04-19T08:11:53.323Z</time></trkpt><trkpt lat="42.7992722" lon="10.2833005"><ele>188.8</ele><time>2026-04-19T08:11:54.316Z</time></trkpt><trkpt lat="42.7992493" lon="10.283193"><ele>184.2</ele><time>2026-04-19T08:11:55.315Z</time></trkpt><trkpt lat="42.7992281" lon="10.2830969"><ele>179.6</ele><time>2026-04-19T08:11:56.313Z</time></trkpt><trkpt lat="42.7991518" lon="10.2829452"><ele>175.0</ele><time>2026-04-19T08:11:58.314Z</time></trkpt><trkpt lat="42.7990981" lon="10.2828768"><ele>175.0</ele><time>2026-04-19T08:11:59.317Z</time></trkpt><trkpt lat="42.7990544" lon="10.2828123"><ele>175.0</ele><time>2026-04-19T08:12:00.327Z</time></trkpt><trkpt lat="42.7989997" lon="10.2826671"><ele>175.0</ele><time>2026-04-19T08:12:02.321Z</time></trkpt><trkpt lat="42.7989841" lon="10.2825796"><ele>175.0</ele><time>2026-04-19T08:12:03.327Z</time></trkpt><trkpt lat="42.7989697" lon="10.2824916"><ele>175.0</ele><time>2026-04-19T08:12:04.324Z</time></trkpt><trkpt lat="42.7989495" lon="10.2824"><ele>175.0</ele><time>2026-04-19T08:12:05.32Z</time></trkpt><trkpt lat="42.7989198" lon="10.2823113"><ele>176.16666666666669</ele><time>2026-04-19T08:12:06.323Z</time></trkpt><trkpt lat="42.7988826" lon="10.282224"><ele>177.33333333333334</ele><time>2026-04-19T08:12:07.325Z</time></trkpt><trkpt lat="42.7988435" lon="10.2821425"><ele>178.5</ele><time>2026-04-19T08:12:08.325Z</time></trkpt><trkpt lat="42.7988055" lon="10.2820636"><ele>179.66666666666666</ele><time>2026-04-19T08:12:09.322Z</time></trkpt><trkpt lat="42.7987699" lon="10.2819853"><ele>180.83333333333331</ele><time>2026-04-19T08:12:10.325Z</time></trkpt><trkpt lat="42.79871" lon="10.2818414"><ele>182.0</ele><time>2026-04-19T08:12:12.322Z</time></trkpt><trkpt lat="42.7986285" lon="10.2815786"><ele>181.5</ele><time>2026-04-19T08:12:16.326Z</time></trkpt><trkpt lat="42.7986307" lon="10.2814315"><ele>181.0</ele><time>2026-04-19T08:12:18.326Z</time></trkpt><trkpt lat="42.7986289" lon="10.2813413"><ele>180.5</ele><time>2026-04-19T08:12:19.322Z</time></trkpt><trkpt lat="42.7986297" lon="10.2812509"><ele>180.0</ele><time>2026-04-19T08:12:20.325Z</time></trkpt><trkpt lat="42.7986457" lon="10.2811016"><ele>179.5</ele><time>2026-04-19T08:12:22.325Z</time></trkpt><trkpt lat="42.7986462" lon="10.2809736"><ele>179.0</ele><time>2026-04-19T08:12:24.326Z</time></trkpt><trkpt lat="42.7986285" lon="10.2808439"><ele>179.0</ele><time>2026-04-19T08:12:26.321Z</time></trkpt><trkpt lat="42.7986593" lon="10.2807283"><ele>179.0</ele><time>2026-04-19T08:12:28.316Z</time></trkpt><trkpt lat="42.7987189" lon="10.2806144"><ele>179.0</ele><time>2026-04-19T08:12:30.322Z</time></trkpt><trkpt lat="42.7987579" lon="10.2805425"><ele>179.0</ele><time>2026-04-19T08:12:31.32Z</time></trkpt><trkpt lat="42.7988005" lon="10.2804505"><ele>179.0</ele><time>2026-04-19T08:12:32.318Z</time></trkpt><trkpt lat="42.7988439" lon="10.2803532"><ele>179.0</ele><time>2026-04-19T08:12:33.317Z</time></trkpt><trkpt lat="42.7989244" lon="10.2801559"><ele>179.16666666666666</ele><time>2026-04-19T08:12:35.314Z</time></trkpt><trkpt lat="42.7989498" lon="10.2800427"><ele>179.33333333333331</ele><time>2026-04-19T08:12:36.318Z</time></trkpt><trkpt lat="42.798962" lon="10.2799275"><ele>179.5</ele><time>2026-04-19T08:12:37.316Z</time></trkpt><trkpt lat="42.7989631" lon="10.2798142"><ele>179.66666666666666</ele><time>2026-04-19T08:12:38.318Z</time></trkpt><trkpt lat="42.7989408" lon="10.2797079"><ele>179.83333333333334</ele><time>2026-04-19T08:12:39.318Z</time></trkpt><trkpt lat="42.7989047" lon="10.2796012"><ele>180.0</ele><time>2026-04-19T08:12:40.319Z</time></trkpt><trkpt lat="42.7988678" lon="10.2794976"><ele>180.0</ele><time>2026-04-19T08:12:41.32Z</time></trkpt><trkpt lat="42.7988318" lon="10.2794023"><ele>180.0</ele><time>2026-04-19T08:12:42.32Z</time></trkpt><trkpt lat="42.7987911" lon="10.2793135"><ele>180.0</ele><time>2026-04-19T08:12:43.318Z</time></trkpt><trkpt lat="42.7987407" lon="10.2792364"><ele>180.0</ele><time>2026-04-19T08:12:44.316Z</time></trkpt><trkpt lat="42.7986896" lon="10.2791556"><ele>180.0</ele><time>2026-04-19T08:12:45.317Z</time></trkpt><trkpt lat="42.7986427" lon="10.2790665"><ele>180.0</ele><time>2026-04-19T08:12:46.321Z</time></trkpt><trkpt lat="42.7985996" lon="10.2789681"><ele>181.0</ele><time>2026-04-19T08:12:47.321Z</time></trkpt><trkpt lat="42.7985692" lon="10.2788609"><ele>182.0</ele><time>2026-04-19T08:12:48.322Z</time></trkpt><trkpt lat="42.7985391" lon="10.2787465"><ele>183.0</ele><time>2026-04-19T08:12:49.321Z</time></trkpt><trkpt lat="42.7985007" lon="10.2786359"><ele>184.0</ele><time>2026-04-19T08:12:50.322Z</time></trkpt><trkpt lat="42.7984549" lon="10.278539"><ele>185.0</ele><time>2026-04-19T08:12:51.319Z</time></trkpt><trkpt lat="42.7983956" lon="10.2784511"><ele>186.0</ele><time>2026-04-19T08:12:52.323Z</time></trkpt><trkpt lat="42.7983207" lon="10.2783697"><ele>182.5</ele><time>2026-04-19T08:12:53.321Z</time></trkpt><trkpt lat="42.7982413" lon="10.2782834"><ele>179.0</ele><time>2026-04-19T08:12:54.323Z</time></trkpt><trkpt lat="42.7981013" lon="10.2781111"><ele>175.5</ele><time>2026-04-19T08:12:56.324Z</time></trkpt><trkpt lat="42.7980484" lon="10.2780185"><ele>172.0</ele><time>2026-04-19T08:12:57.32Z</time></trkpt><trkpt lat="42.7980123" lon="10.277917"><ele>172.0</ele><time>2026-04-19T08:12:58.326Z</time></trkpt><trkpt lat="42.7979899" lon="10.2778104"><ele>172.0</ele><time>2026-04-19T08:12:59.322Z</time></trkpt><trkpt lat="42.7979821" lon="10.2776919"><ele>172.0</ele><time>2026-04-19T08:13:00.313Z</time></trkpt><trkpt lat="42.7979822" lon="10.2775721"><ele>172.0</ele><time>2026-04-19T08:13:01.317Z</time></trkpt><trkpt lat="42.7979814" lon="10.277445"><ele>172.0</ele><time>2026-04-19T08:13:02.321Z</time></trkpt><trkpt lat="42.7979762" lon="10.2773217"><ele>172.0</ele><time>2026-04-19T08:13:03.323Z</time></trkpt><trkpt lat="42.7979744" lon="10.2771931"><ele>170.33333333333334</ele><time>2026-04-19T08:13:04.319Z</time></trkpt><trkpt lat="42.7979735" lon="10.2770661"><ele>168.66666666666669</ele><time>2026-04-19T08:13:05.319Z</time></trkpt><trkpt lat="42.7979689" lon="10.2769495"><ele>167.0</ele><time>2026-04-19T08:13:06.319Z</time></trkpt><trkpt lat="42.7979583" lon="10.27683"><ele>165.33333333333334</ele><time>2026-04-19T08:13:07.319Z</time></trkpt><trkpt lat="42.7979524" lon="10.2767138"><ele>163.66666666666666</ele><time>2026-04-19T08:13:08.324Z</time></trkpt><trkpt lat="42.7979486" lon="10.2766028"><ele>162.0</ele><time>2026-04-19T08:13:09.32Z</time></trkpt><trkpt lat="42.7979483" lon="10.2764992"><ele>158.75</ele><time>2026-04-19T08:13:10.323Z</time></trkpt><trkpt lat="42.7979579" lon="10.276335"><ele>155.5</ele><time>2026-04-19T08:13:12.323Z</time></trkpt><trkpt lat="42.7979302" lon="10.2761912"><ele>152.25</ele><time>2026-04-19T08:13:14.325Z</time></trkpt><trkpt lat="42.7978804" lon="10.2761183"><ele>149.0</ele><time>2026-04-19T08:13:15.326Z</time></trkpt><trkpt lat="42.797721" lon="10.2759957"><ele>150.0</ele><time>2026-04-19T08:13:17.33Z</time></trkpt><trkpt lat="42.7976381" lon="10.2759699"><ele>151.0</ele><time>2026-04-19T08:13:18.334Z</time></trkpt><trkpt lat="42.7975611" lon="10.275957"><ele>152.0</ele><time>2026-04-19T08:13:19.334Z</time></trkpt><trkpt lat="42.7974889" lon="10.2759491"><ele>153.0</ele><time>2026-04-19T08:13:20.333Z</time></trkpt><trkpt lat="42.7973657" lon="10.275942"><ele>154.0</ele><time>2026-04-19T08:13:22.33Z</time></trkpt><trkpt lat="42.7972569" lon="10.2759181"><ele>154.0</ele><time>2026-04-19T08:13:24.33Z</time></trkpt><trkpt lat="42.7971676" lon="10.2758459"><ele>154.0</ele><time>2026-04-19T08:13:26.326Z</time></trkpt><trkpt lat="42.7971111" lon="10.2757325"><ele>154.0</ele><time>2026-04-19T08:13:28.331Z</time></trkpt><trkpt lat="42.7970581" lon="10.2755978"><ele>154.0</ele><time>2026-04-19T08:13:30.33Z</time></trkpt><trkpt lat="42.7969924" lon="10.2754514"><ele>154.0</ele><time>2026-04-19T08:13:32.325Z</time></trkpt><trkpt lat="42.7969698" lon="10.2753698"><ele>153.5</ele><time>2026-04-19T08:13:33.33Z</time></trkpt><trkpt lat="42.7969469" lon="10.2752856"><ele>153.0</ele><time>2026-04-19T08:13:34.324Z</time></trkpt><trkpt lat="42.7969305" lon="10.2751957"><ele>152.5</ele><time>2026-04-19T08:13:35.324Z</time></trkpt><trkpt lat="42.7969172" lon="10.2751021"><ele>152.0</ele><time>2026-04-19T08:13:36.33Z</time></trkpt><trkpt lat="42.796867" lon="10.2749407"><ele>151.5</ele><time>2026-04-19T08:13:38.323Z</time></trkpt><trkpt lat="42.7968179" lon="10.2748618"><ele>151.0</ele><time>2026-04-19T08:13:39.327Z</time></trkpt><trkpt lat="42.7967572" lon="10.2747772"><ele>150.0</ele><time>2026-04-19T08:13:40.326Z</time></trkpt><trkpt lat="42.7966846" lon="10.2746912"><ele>149.0</ele><time>2026-04-19T08:13:41.33Z</time></trkpt><trkpt lat="42.7966106" lon="10.27461"><ele>148.0</ele><time>2026-04-19T08:13:42.328Z</time></trkpt><trkpt lat="42.7965441" lon="10.274526"><ele>147.0</ele><time>2026-04-19T08:13:43.328Z</time></trkpt><trkpt lat="42.7964803" lon="10.274428"><ele>146.0</ele><time>2026-04-19T08:13:44.324Z</time></trkpt><trkpt lat="42.7964181" lon="10.2743205"><ele>146.0</ele><time>2026-04-19T08:13:45.33Z</time></trkpt><trkpt lat="42.7963545" lon="10.2742096"><ele>146.0</ele><time>2026-04-19T08:13:46.331Z</time></trkpt><trkpt lat="42.7962863" lon="10.2741027"><ele>146.0</ele><time>2026-04-19T08:13:47.333Z</time></trkpt><trkpt lat="42.7962172" lon="10.2740022"><ele>146.0</ele><time>2026-04-19T08:13:48.333Z</time></trkpt><trkpt lat="42.7961519" lon="10.2739098"><ele>146.0</ele><time>2026-04-19T08:13:49.331Z</time></trkpt><trkpt lat="42.7960871" lon="10.2738338"><ele>144.6</ele><time>2026-04-19T08:13:50.332Z</time></trkpt><trkpt lat="42.7960207" lon="10.2737687"><ele>143.2</ele><time>2026-04-19T08:13:51.332Z</time></trkpt><trkpt lat="42.7959602" lon="10.2737217"><ele>141.8</ele><time>2026-04-19T08:13:52.333Z</time></trkpt><trkpt lat="42.7958425" lon="10.2736705"><ele>140.4</ele><time>2026-04-19T08:13:54.334Z</time></trkpt><trkpt lat="42.7957267" lon="10.2736206"><ele>139.0</ele><time>2026-04-19T08:13:56.331Z</time></trkpt><trkpt lat="42.7956261" lon="10.2735312"><ele>139.0</ele><time>2026-04-19T08:13:58.326Z</time></trkpt><trkpt lat="42.7954984" lon="10.2733393"><ele>139.0</ele><time>2026-04-19T08:14:01.337Z</time></trkpt><trkpt lat="42.7954605" lon="10.2732604"><ele>139.0</ele><time>2026-04-19T08:14:02.326Z</time></trkpt><trkpt lat="42.7954243" lon="10.2731759"><ele>139.0</ele><time>2026-04-19T08:14:03.331Z</time></trkpt><trkpt lat="42.7953899" lon="10.2730917"><ele>139.0</ele><time>2026-04-19T08:14:04.331Z</time></trkpt><trkpt lat="42.7953615" lon="10.2730121"><ele>136.66666666666669</ele><time>2026-04-19T08:14:05.332Z</time></trkpt><trkpt lat="42.7953331" lon="10.2729336"><ele>134.33333333333334</ele><time>2026-04-19T08:14:06.327Z</time></trkpt><trkpt lat="42.7952932" lon="10.2728015"><ele>132.0</ele><time>2026-04-19T08:14:08.33Z</time></trkpt><trkpt lat="42.7952752" lon="10.2726657"><ele>129.66666666666666</ele><time>2026-04-19T08:14:10.336Z</time></trkpt><trkpt lat="42.7952767" lon="10.2725792"><ele>127.33333333333333</ele><time>2026-04-19T08:14:12.332Z</time></trkpt><trkpt lat="42.7952536" lon="10.2724846"><ele>125.0</ele><time>2026-04-19T08:15:56.353Z</time></trkpt><trkpt lat="42.7952006" lon="10.2722903"><ele>126.49999999999999</ele><time>2026-04-19T08:15:59.347Z</time></trkpt><trkpt lat="42.7951805" lon="10.2721939"><ele>128.0</ele><time>2026-04-19T08:16:00.343Z</time></trkpt><trkpt lat="42.7951554" lon="10.2720898"><ele>129.5</ele><time>2026-04-19T08:16:01.348Z</time></trkpt><trkpt lat="42.7951228" lon="10.271984"><ele>131.0</ele><time>2026-04-19T08:16:02.346Z</time></trkpt><trkpt lat="42.7950866" lon="10.2718714"><ele>132.5</ele><time>2026-04-19T08:16:03.344Z</time></trkpt><trkpt lat="42.7950461" lon="10.2717601"><ele>134.0</ele><time>2026-04-19T08:16:04.342Z</time></trkpt><trkpt lat="42.7949979" lon="10.2716383"><ele>134.0</ele><time>2026-04-19T08:16:05.34Z</time></trkpt><trkpt lat="42.7949308" lon="10.271511"><ele>134.0</ele><time>2026-04-19T08:16:06.338Z</time></trkpt><trkpt lat="42.7948474" lon="10.2713755"><ele>134.0</ele><time>2026-04-19T08:16:07.341Z</time></trkpt><trkpt lat="42.7947669" lon="10.271235"><ele>134.0</ele><time>2026-04-19T08:16:08.343Z</time></trkpt><trkpt lat="42.7946989" lon="10.2710786"><ele>132.25</ele><time>2026-04-19T08:16:09.343Z</time></trkpt><trkpt lat="42.79465" lon="10.2709131"><ele>130.5</ele><time>2026-04-19T08:16:10.338Z</time></trkpt><trkpt lat="42.7946155" lon="10.2707365"><ele>128.75</ele><time>2026-04-19T08:16:11.35Z</time></trkpt><trkpt lat="42.7946071" lon="10.2705563"><ele>127.0</ele><time>2026-04-19T08:16:12.34Z</time></trkpt><trkpt lat="42.7946106" lon="10.2703763"><ele>125.5</ele><time>2026-04-19T08:16:13.346Z</time></trkpt><trkpt lat="42.794617" lon="10.2701854"><ele>124.0</ele><time>2026-04-19T08:16:14.34Z</time></trkpt><trkpt lat="42.7946122" lon="10.2699873"><ele>122.5</ele><time>2026-04-19T08:16:15.333Z</time></trkpt><trkpt lat="42.7945758" lon="10.2697923"><ele>121.0</ele><time>2026-04-19T08:16:16.348Z</time></trkpt><trkpt lat="42.7944928" lon="10.2696122"><ele>137.0</ele><time>2026-04-19T08:16:17.346Z</time></trkpt><trkpt lat="42.7943209" lon="10.2692564"><ele>153.0</ele><time>2026-04-19T08:16:19.351Z</time></trkpt><trkpt lat="42.7942507" lon="10.2690669"><ele>151.5</ele><time>2026-04-19T08:16:20.348Z</time></trkpt><trkpt lat="42.7941827" lon="10.2688784"><ele>150.0</ele><time>2026-04-19T08:16:21.341Z</time></trkpt><trkpt lat="42.7941167" lon="10.2687009"><ele>148.5</ele><time>2026-04-19T08:16:22.338Z</time></trkpt><trkpt lat="42.7940746" lon="10.2685356"><ele>147.0</ele><time>2026-04-19T08:16:23.34Z</time></trkpt><trkpt lat="42.7940612" lon="10.2683881"><ele>147.0</ele><time>2026-04-19T08:16:24.342Z</time></trkpt><trkpt lat="42.7941046" lon="10.268219"><ele>147.0</ele><time>2026-04-19T08:16:25.342Z</time></trkpt><trkpt lat="42.7941902" lon="10.2680448"><ele>147.0</ele><time>2026-04-19T08:16:26.334Z</time></trkpt><trkpt lat="42.7942955" lon="10.267885"><ele>147.0</ele><time>2026-04-19T08:16:27.332Z</time></trkpt><trkpt lat="42.7944029" lon="10.2677487"><ele>142.0</ele><time>2026-04-19T08:16:28.329Z</time></trkpt><trkpt lat="42.7945144" lon="10.2676451"><ele>137.0</ele><time>2026-04-19T08:16:29.337Z</time></trkpt><trkpt lat="42.7946177" lon="10.2675339"><ele>132.0</ele><time>2026-04-19T08:16:30.336Z</time></trkpt><trkpt lat="42.7947061" lon="10.2674199"><ele>127.0</ele><time>2026-04-19T08:16:31.333Z</time></trkpt><trkpt lat="42.7947772" lon="10.2673019"><ele>127.39999999999999</ele><time>2026-04-19T08:16:32.342Z</time></trkpt><trkpt lat="42.7947998" lon="10.26715"><ele>127.79999999999998</ele><time>2026-04-19T08:16:33.342Z</time></trkpt><trkpt lat="42.7947712" lon="10.2670142"><ele>128.2</ele><time>2026-04-19T08:16:34.348Z</time></trkpt><trkpt lat="42.7947012" lon="10.2668904"><ele>128.6</ele><time>2026-04-19T08:16:35.349Z</time></trkpt><trkpt lat="42.7946029" lon="10.2668095"><ele>129.0</ele><time>2026-04-19T08:16:36.342Z</time></trkpt><trkpt lat="42.7944978" lon="10.2667922"><ele>129.0</ele><time>2026-04-19T08:16:37.345Z</time></trkpt><trkpt lat="42.7943841" lon="10.2668013"><ele>129.0</ele><time>2026-04-19T08:16:38.339Z</time></trkpt><trkpt lat="42.794137" lon="10.2668204"><ele>129.0</ele><time>2026-04-19T08:16:40.342Z</time></trkpt><trkpt lat="42.7940055" lon="10.2668164"><ele>131.75</ele><time>2026-04-19T08:16:41.341Z</time></trkpt><trkpt lat="42.7938811" lon="10.2667854"><ele>134.5</ele><time>2026-04-19T08:16:42.351Z</time></trkpt><trkpt lat="42.793776" lon="10.2667094"><ele>137.25</ele><time>2026-04-19T08:16:43.339Z</time></trkpt><trkpt lat="42.7937093" lon="10.266583"><ele>140.0</ele><time>2026-04-19T08:16:44.342Z</time></trkpt><trkpt lat="42.7936717" lon="10.266418"><ele>137.5</ele><time>2026-04-19T08:16:45.339Z</time></trkpt><trkpt lat="42.7936168" lon="10.2662727"><ele>135.0</ele><time>2026-04-19T08:16:46.337Z</time></trkpt><trkpt lat="42.7935362" lon="10.266166"><ele>132.5</ele><time>2026-04-19T08:16:47.343Z</time></trkpt><trkpt lat="42.7934369" lon="10.2661197"><ele>130.0</ele><time>2026-04-19T08:16:48.341Z</time></trkpt><trkpt lat="42.7933242" lon="10.2661431"><ele>130.0</ele><time>2026-04-19T08:16:49.347Z</time></trkpt><trkpt lat="42.7932066" lon="10.2662032"><ele>130.0</ele><time>2026-04-19T08:16:50.341Z</time></trkpt><trkpt lat="42.7930791" lon="10.2662544"><ele>130.0</ele><time>2026-04-19T08:16:51.34Z</time></trkpt><trkpt lat="42.7929495" lon="10.2662836"><ele>130.0</ele><time>2026-04-19T08:16:52.336Z</time></trkpt><trkpt lat="42.7928252" lon="10.2662775"><ele>130.0</ele><time>2026-04-19T08:16:53.337Z</time></trkpt><trkpt lat="42.7927086" lon="10.2662117"><ele>130.0</ele><time>2026-04-19T08:16:54.335Z</time></trkpt><trkpt lat="42.7926255" lon="10.2660933"><ele>130.0</ele><time>2026-04-19T08:16:55.335Z</time></trkpt><trkpt lat="42.7925551" lon="10.2659549"><ele>130.0</ele><time>2026-04-19T08:16:56.334Z</time></trkpt><trkpt lat="42.7924656" lon="10.2658388"><ele>133.33333333333334</ele><time>2026-04-19T08:16:57.33Z</time></trkpt><trkpt lat="42.7923568" lon="10.2657493"><ele>136.66666666666666</ele><time>2026-04-19T08:16:58.333Z</time></trkpt><trkpt lat="42.7922243" lon="10.265701"><ele>140.0</ele><time>2026-04-19T08:16:59.332Z</time></trkpt><trkpt lat="42.791942" lon="10.2656188"><ele>137.25</ele><time>2026-04-19T08:17:01.336Z</time></trkpt><trkpt lat="42.7918036" lon="10.2655811"><ele>134.5</ele><time>2026-04-19T08:17:02.332Z</time></trkpt><trkpt lat="42.7916723" lon="10.2655368"><ele>131.75</ele><time>2026-04-19T08:17:03.329Z</time></trkpt><trkpt lat="42.7915504" lon="10.2654889"><ele>129.0</ele><time>2026-04-19T08:17:04.328Z</time></trkpt><trkpt lat="42.7914363" lon="10.2654444"><ele>129.0</ele><time>2026-04-19T08:17:05.329Z</time></trkpt><trkpt lat="42.7913299" lon="10.2653928"><ele>129.0</ele><time>2026-04-19T08:17:06.33Z</time></trkpt><trkpt lat="42.79122" lon="10.2653251"><ele>129.0</ele><time>2026-04-19T08:17:07.321Z</time></trkpt><trkpt lat="42.7911188" lon="10.2652345"><ele>129.0</ele><time>2026-04-19T08:17:08.325Z</time></trkpt><trkpt lat="42.7910213" lon="10.2651304"><ele>134.4</ele><time>2026-04-19T08:17:09.326Z</time></trkpt><trkpt lat="42.7909348" lon="10.2650243"><ele>139.8</ele><time>2026-04-19T08:17:10.318Z</time></trkpt><trkpt lat="42.7908658" lon="10.2649142"><ele>145.2</ele><time>2026-04-19T08:17:11.331Z</time></trkpt><trkpt lat="42.7908463" lon="10.2647852"><ele>150.6</ele><time>2026-04-19T08:17:12.326Z</time></trkpt><trkpt lat="42.7908784" lon="10.2646757"><ele>156.0</ele><time>2026-04-19T08:17:13.325Z</time></trkpt><trkpt lat="42.7909368" lon="10.2645805"><ele>147.75</ele><time>2026-04-19T08:17:14.314Z</time></trkpt><trkpt lat="42.7910235" lon="10.2644721"><ele>139.5</ele><time>2026-04-19T08:17:15.327Z</time></trkpt><trkpt lat="42.7911159" lon="10.2643653"><ele>131.25</ele><time>2026-04-19T08:17:16.328Z</time></trkpt><trkpt lat="42.7912084" lon="10.2642591"><ele>123.0</ele><time>2026-04-19T08:17:17.331Z</time></trkpt><trkpt lat="42.791299" lon="10.2641503"><ele>123.0</ele><time>2026-04-19T08:17:18.333Z</time></trkpt><trkpt lat="42.7913888" lon="10.2640435"><ele>123.0</ele><time>2026-04-19T08:17:19.34Z</time></trkpt><trkpt lat="42.7914736" lon="10.2639406"><ele>123.0</ele><time>2026-04-19T08:17:20.338Z</time></trkpt><trkpt lat="42.7916071" lon="10.2636886"><ele>124.75</ele><time>2026-04-19T08:17:22.342Z</time></trkpt><trkpt lat="42.7916364" lon="10.2635322"><ele>126.5</ele><time>2026-04-19T08:17:23.337Z</time></trkpt><trkpt lat="42.7916295" lon="10.263376"><ele>128.25</ele><time>2026-04-19T08:17:24.341Z</time></trkpt><trkpt lat="42.7915986" lon="10.2632308"><ele>130.0</ele><time>2026-04-19T08:17:25.341Z</time></trkpt><trkpt lat="42.7915655" lon="10.2630929"><ele>131.25</ele><time>2026-04-19T08:17:26.338Z</time></trkpt><trkpt lat="42.7915492" lon="10.2629646"><ele>132.5</ele><time>2026-04-19T08:17:27.333Z</time></trkpt><trkpt lat="42.7915514" lon="10.262823"><ele>133.75</ele><time>2026-04-19T08:17:28.339Z</time></trkpt><trkpt lat="42.7915654" lon="10.262665"><ele>135.0</ele><time>2026-04-19T08:17:29.344Z</time></trkpt><trkpt lat="42.7916112" lon="10.2624905"><ele>138.33333333333334</ele><time>2026-04-19T08:17:30.343Z</time></trkpt><trkpt lat="42.7916847" lon="10.2622795"><ele>141.66666666666669</ele><time>2026-04-19T08:17:31.341Z</time></trkpt><trkpt lat="42.7917757" lon="10.2620419"><ele>145.0</ele><time>2026-04-19T08:17:32.326Z</time></trkpt><trkpt lat="42.7918597" lon="10.261824"><ele>140.75</ele><time>2026-04-19T08:17:33.329Z</time></trkpt><trkpt lat="42.7919484" lon="10.2616466"><ele>136.5</ele><time>2026-04-19T08:17:34.337Z</time></trkpt><trkpt lat="42.7920398" lon="10.2615051"><ele>132.25</ele><time>2026-04-19T08:17:35.342Z</time></trkpt><trkpt lat="42.7921449" lon="10.2614123"><ele>128.0</ele><time>2026-04-19T08:17:36.336Z</time></trkpt><trkpt lat="42.7922509" lon="10.2613235"><ele>128.0</ele><time>2026-04-19T08:17:37.338Z</time></trkpt><trkpt lat="42.7923313" lon="10.2612276"><ele>128.0</ele><time>2026-04-19T08:17:38.334Z</time></trkpt><trkpt lat="42.792385" lon="10.2610996"><ele>128.0</ele><time>2026-04-19T08:17:39.334Z</time></trkpt><trkpt lat="42.7924176" lon="10.2609422"><ele>128.0</ele><time>2026-04-19T08:17:40.333Z</time></trkpt><trkpt lat="42.7924364" lon="10.2607775"><ele>125.33333333333333</ele><time>2026-04-19T08:17:41.335Z</time></trkpt><trkpt lat="42.7925077" lon="10.2604703"><ele>122.66666666666666</ele><time>2026-04-19T08:17:43.338Z</time></trkpt><trkpt lat="42.7925787" lon="10.2603437"><ele>120.0</ele><time>2026-04-19T08:17:44.342Z</time></trkpt><trkpt lat="42.792673" lon="10.2602449"><ele>120.0</ele><time>2026-04-19T08:17:45.333Z</time></trkpt><trkpt lat="42.7927824" lon="10.2601492"><ele>120.0</ele><time>2026-04-19T08:17:46.335Z</time></trkpt><trkpt lat="42.7929011" lon="10.2600586"><ele>120.0</ele><time>2026-04-19T08:17:47.335Z</time></trkpt><trkpt lat="42.7930203" lon="10.2599687"><ele>120.0</ele><time>2026-04-19T08:17:48.33Z</time></trkpt><trkpt lat="42.793138" lon="10.2598802"><ele>120.0</ele><time>2026-04-19T08:17:49.336Z</time></trkpt><trkpt lat="42.7932492" lon="10.2597904"><ele>120.0</ele><time>2026-04-19T08:17:50.334Z</time></trkpt><trkpt lat="42.7933574" lon="10.2596945"><ele>120.0</ele><time>2026-04-19T08:17:51.331Z</time></trkpt><trkpt lat="42.7934633" lon="10.2595904"><ele>120.0</ele><time>2026-04-19T08:17:52.326Z</time></trkpt><trkpt lat="42.7935644" lon="10.259465"><ele>118.75</ele><time>2026-04-19T08:17:53.344Z</time></trkpt><trkpt lat="42.7936532" lon="10.2593094"><ele>117.5</ele><time>2026-04-19T08:17:54.339Z</time></trkpt><trkpt lat="42.7937084" lon="10.2591119"><ele>116.25</ele><time>2026-04-19T08:17:55.335Z</time></trkpt><trkpt lat="42.7937395" lon="10.2589377"><ele>115.0</ele><time>2026-04-19T08:17:56.338Z</time></trkpt><trkpt lat="42.7937428" lon="10.2587827"><ele>115.6</ele><time>2026-04-19T08:17:57.33Z</time></trkpt><trkpt lat="42.7937131" lon="10.2586559"><ele>116.2</ele><time>2026-04-19T08:17:58.332Z</time></trkpt><trkpt lat="42.7936532" lon="10.2585504"><ele>116.80000000000001</ele><time>2026-04-19T08:17:59.34Z</time></trkpt><trkpt lat="42.7935662" lon="10.2584782"><ele>117.4</ele><time>2026-04-19T08:18:00.336Z</time></trkpt><trkpt lat="42.7934572" lon="10.2584384"><ele>118.0</ele><time>2026-04-19T08:18:01.342Z</time></trkpt><trkpt lat="42.7933338" lon="10.2584133"><ele>118.0</ele><time>2026-04-19T08:18:02.334Z</time></trkpt><trkpt lat="42.7930614" lon="10.2583592"><ele>118.0</ele><time>2026-04-19T08:18:04.337Z</time></trkpt><trkpt lat="42.7929274" lon="10.2583365"><ele>118.0</ele><time>2026-04-19T08:18:05.337Z</time></trkpt><trkpt lat="42.7928004" lon="10.2583141"><ele>118.0</ele><time>2026-04-19T08:18:06.342Z</time></trkpt><trkpt lat="42.7926789" lon="10.2582965"><ele>118.0</ele><time>2026-04-19T08:18:07.339Z</time></trkpt><trkpt lat="42.7925635" lon="10.2582737"><ele>118.0</ele><time>2026-04-19T08:18:08.334Z</time></trkpt><trkpt lat="42.7924525" lon="10.2582395"><ele>118.0</ele><time>2026-04-19T08:18:09.333Z</time></trkpt><trkpt lat="42.7923494" lon="10.2581864"><ele>112.75</ele><time>2026-04-19T08:18:10.34Z</time></trkpt><trkpt lat="42.7922653" lon="10.2580929"><ele>107.5</ele><time>2026-04-19T08:18:11.342Z</time></trkpt><trkpt lat="42.7921947" lon="10.2579596"><ele>102.25</ele><time>2026-04-19T08:18:12.336Z</time></trkpt><trkpt lat="42.7921242" lon="10.2578108"><ele>97.0</ele><time>2026-04-19T08:18:13.334Z</time></trkpt><trkpt lat="42.7920473" lon="10.2576624"><ele>97.0</ele><time>2026-04-19T08:18:14.331Z</time></trkpt><trkpt lat="42.7919497" lon="10.257538"><ele>97.0</ele><time>2026-04-19T08:18:15.339Z</time></trkpt><trkpt lat="42.7918464" lon="10.2574402"><ele>97.0</ele><time>2026-04-19T08:18:16.337Z</time></trkpt><trkpt lat="42.7917373" lon="10.2573657"><ele>97.0</ele><time>2026-04-19T08:18:17.333Z</time></trkpt><trkpt lat="42.7916359" lon="10.2573227"><ele>97.8</ele><time>2026-04-19T08:18:18.343Z</time></trkpt><trkpt lat="42.7915392" lon="10.2573272"><ele>98.6</ele><time>2026-04-19T08:18:19.34Z</time></trkpt><trkpt lat="42.7914544" lon="10.257376"><ele>99.39999999999999</ele><time>2026-04-19T08:18:20.342Z</time></trkpt><trkpt lat="42.7913894" lon="10.2574802"><ele>100.19999999999999</ele><time>2026-04-19T08:18:21.341Z</time></trkpt><trkpt lat="42.7913418" lon="10.2576327"><ele>101.0</ele><time>2026-04-19T08:18:22.337Z</time></trkpt><trkpt lat="42.7913071" lon="10.2578073"><ele>106.33333333333333</ele><time>2026-04-19T08:18:23.339Z</time></trkpt><trkpt lat="42.7912633" lon="10.2581796"><ele>111.66666666666666</ele><time>2026-04-19T08:18:25.33Z</time></trkpt><trkpt lat="42.791247" lon="10.2583564"><ele>117.0</ele><time>2026-04-19T08:18:26.328Z</time></trkpt><trkpt lat="42.7912224" lon="10.258524"><ele>117.0</ele><time>2026-04-19T08:18:27.326Z</time></trkpt><trkpt lat="42.7911773" lon="10.2586567"><ele>116.99999999999999</ele><time>2026-04-19T08:18:28.321Z</time></trkpt><trkpt lat="42.7911067" lon="10.2587676"><ele>116.99999999999999</ele><time>2026-04-19T08:18:29.327Z</time></trkpt><trkpt lat="42.7910153" lon="10.2588359"><ele>117.0</ele><time>2026-04-19T08:18:30.324Z</time></trkpt><trkpt lat="42.7909068" lon="10.2588554"><ele>117.0</ele><time>2026-04-19T08:18:31.325Z</time></trkpt><trkpt lat="42.7907912" lon="10.2588388"><ele>114.8</ele><time>2026-04-19T08:18:32.325Z</time></trkpt><trkpt lat="42.7906756" lon="10.2588295"><ele>112.6</ele><time>2026-04-19T08:18:33.324Z</time></trkpt><trkpt lat="42.7905715" lon="10.2588734"><ele>110.39999999999999</ele><time>2026-04-19T08:18:34.324Z</time></trkpt><trkpt lat="42.7904885" lon="10.2589606"><ele>108.19999999999999</ele><time>2026-04-19T08:18:35.326Z</time></trkpt><trkpt lat="42.7904263" lon="10.2590907"><ele>106.0</ele><time>2026-04-19T08:18:36.326Z</time></trkpt><trkpt lat="42.7903886" lon="10.25925"><ele>106.00000000000001</ele><time>2026-04-19T08:18:37.328Z</time></trkpt><trkpt lat="42.7903646" lon="10.2594047"><ele>106.0</ele><time>2026-04-19T08:18:38.328Z</time></trkpt><trkpt lat="42.7903328" lon="10.259524"><ele>106.0</ele><time>2026-04-19T08:18:39.33Z</time></trkpt><trkpt lat="42.7902844" lon="10.2595993"><ele>106.0</ele><time>2026-04-19T08:18:40.326Z</time></trkpt><trkpt lat="42.7902153" lon="10.2596191"><ele>106.00000000000001</ele><time>2026-04-19T08:18:41.323Z</time></trkpt><trkpt lat="42.7901368" lon="10.2595761"><ele>106.0</ele><time>2026-04-19T08:18:42.326Z</time></trkpt><trkpt lat="42.7900631" lon="10.2594816"><ele>98.0</ele><time>2026-04-19T08:18:43.321Z</time></trkpt><trkpt lat="42.7899784" lon="10.2593672"><ele>90.0</ele><time>2026-04-19T08:18:44.322Z</time></trkpt><trkpt lat="42.7897593" lon="10.2592271"><ele>82.0</ele><time>2026-04-19T08:18:46.331Z</time></trkpt><trkpt lat="42.7896329" lon="10.2592276"><ele>82.0</ele><time>2026-04-19T08:18:47.326Z</time></trkpt><trkpt lat="42.7895049" lon="10.2592528"><ele>82.0</ele><time>2026-04-19T08:18:48.327Z</time></trkpt><trkpt lat="42.789381" lon="10.2592659"><ele>82.0</ele><time>2026-04-19T08:18:49.333Z</time></trkpt><trkpt lat="42.7892636" lon="10.2592392"><ele>82.0</ele><time>2026-04-19T08:18:50.331Z</time></trkpt><trkpt lat="42.7891529" lon="10.2592013"><ele>80.6</ele><time>2026-04-19T08:18:51.332Z</time></trkpt><trkpt lat="42.7890404" lon="10.2591955"><ele>79.19999999999999</ele><time>2026-04-19T08:18:52.336Z</time></trkpt><trkpt lat="42.7889364" lon="10.2592333"><ele>77.8</ele><time>2026-04-19T08:18:53.338Z</time></trkpt><trkpt lat="42.7888504" lon="10.2593212"><ele>76.4</ele><time>2026-04-19T08:18:54.336Z</time></trkpt><trkpt lat="42.7887795" lon="10.259455"><ele>75.0</ele><time>2026-04-19T08:18:55.334Z</time></trkpt><trkpt lat="42.7887047" lon="10.2596034"><ele>75.0</ele><time>2026-04-19T08:18:56.337Z</time></trkpt><trkpt lat="42.7886202" lon="10.259758"><ele>75.0</ele><time>2026-04-19T08:18:57.337Z</time></trkpt><trkpt lat="42.7885366" lon="10.2599115"><ele>75.0</ele><time>2026-04-19T08:18:58.331Z</time></trkpt><trkpt lat="42.7884566" lon="10.2600542"><ele>75.0</ele><time>2026-04-19T08:18:59.329Z</time></trkpt><trkpt lat="42.7883796" lon="10.2601834"><ele>75.0</ele><time>2026-04-19T08:19:00.326Z</time></trkpt><trkpt lat="42.7883074" lon="10.2602908"><ele>75.0</ele><time>2026-04-19T08:19:01.327Z</time></trkpt><trkpt lat="42.788238" lon="10.2603716"><ele>75.0</ele><time>2026-04-19T08:19:02.328Z</time></trkpt><trkpt lat="42.7881663" lon="10.2604121"><ele>75.0</ele><time>2026-04-19T08:19:03.328Z</time></trkpt><trkpt lat="42.7880839" lon="10.2604004"><ele>75.0</ele><time>2026-04-19T08:19:04.328Z</time></trkpt><trkpt lat="42.7880117" lon="10.2603219"><ele>75.0</ele><time>2026-04-19T08:19:05.327Z</time></trkpt><trkpt lat="42.7878983" lon="10.2600728"><ele>75.0</ele><time>2026-04-19T08:19:07.329Z</time></trkpt><trkpt lat="42.7878567" lon="10.2599059"><ele>75.0</ele><time>2026-04-19T08:19:08.334Z</time></trkpt><trkpt lat="42.7878088" lon="10.2597466"><ele>72.0</ele><time>2026-04-19T08:19:09.332Z</time></trkpt><trkpt lat="42.7877435" lon="10.259604"><ele>69.0</ele><time>2026-04-19T08:19:10.337Z</time></trkpt><trkpt lat="42.7876564" lon="10.2595118"><ele>66.0</ele><time>2026-04-19T08:19:11.339Z</time></trkpt><trkpt lat="42.7875523" lon="10.2594734"><ele>63.0</ele><time>2026-04-19T08:19:12.326Z</time></trkpt><trkpt lat="42.7874357" lon="10.2594921"><ele>61.75</ele><time>2026-04-19T08:19:13.341Z</time></trkpt><trkpt lat="42.787307" lon="10.2595531"><ele>60.5</ele><time>2026-04-19T08:19:14.335Z</time></trkpt><trkpt lat="42.7871802" lon="10.2596276"><ele>59.25</ele><time>2026-04-19T08:19:15.335Z</time></trkpt><trkpt lat="42.7870644" lon="10.2597174"><ele>58.0</ele><time>2026-04-19T08:19:16.33Z</time></trkpt><trkpt lat="42.7869634" lon="10.2598232"><ele>59.4</ele><time>2026-04-19T08:19:17.332Z</time></trkpt><trkpt lat="42.7868747" lon="10.2599318"><ele>60.8</ele><time>2026-04-19T08:19:18.329Z</time></trkpt><trkpt lat="42.7867912" lon="10.2600141"><ele>62.2</ele><time>2026-04-19T08:19:19.333Z</time></trkpt><trkpt lat="42.7867" lon="10.2600426"><ele>63.6</ele><time>2026-04-19T08:19:20.329Z</time></trkpt><trkpt lat="42.7866146" lon="10.2600155"><ele>65.0</ele><time>2026-04-19T08:19:21.33Z</time></trkpt><trkpt lat="42.786548" lon="10.2599532"><ele>65.0</ele><time>2026-04-19T08:19:22.328Z</time></trkpt><trkpt lat="42.786502" lon="10.2598373"><ele>65.0</ele><time>2026-04-19T08:19:23.34Z</time></trkpt><trkpt lat="42.7864814" lon="10.2596799"><ele>65.0</ele><time>2026-04-19T08:19:24.332Z</time></trkpt><trkpt lat="42.7864673" lon="10.2595002"><ele>65.0</ele><time>2026-04-19T08:19:25.34Z</time></trkpt><trkpt lat="42.786473" lon="10.2593162"><ele>65.0</ele><time>2026-04-19T08:19:26.344Z</time></trkpt><trkpt lat="42.786559" lon="10.2589856"><ele>65.0</ele><time>2026-04-19T08:19:28.334Z</time></trkpt><trkpt lat="42.7866317" lon="10.2588378"><ele>65.0</ele><time>2026-04-19T08:19:29.336Z</time></trkpt><trkpt lat="42.7867109" lon="10.2586838"><ele>65.0</ele><time>2026-04-19T08:19:30.334Z</time></trkpt><trkpt lat="42.7867936" lon="10.2585176"><ele>65.0</ele><time>2026-04-19T08:19:31.335Z</time></trkpt><trkpt lat="42.7868753" lon="10.2583467"><ele>65.0</ele><time>2026-04-19T08:19:32.34Z</time></trkpt><trkpt lat="42.7869491" lon="10.2581682"><ele>65.0</ele><time>2026-04-19T08:19:33.333Z</time></trkpt><trkpt lat="42.7870088" lon="10.2579767"><ele>60.5</ele><time>2026-04-19T08:19:34.333Z</time></trkpt><trkpt lat="42.7870623" lon="10.2577807"><ele>56.0</ele><time>2026-04-19T08:19:35.337Z</time></trkpt><trkpt lat="42.7871221" lon="10.2575973"><ele>51.5</ele><time>2026-04-19T08:19:36.337Z</time></trkpt><trkpt lat="42.7871688" lon="10.2574143"><ele>47.0</ele><time>2026-04-19T08:19:37.337Z</time></trkpt><trkpt lat="42.7871927" lon="10.2572274"><ele>46.75</ele><time>2026-04-19T08:19:38.332Z</time></trkpt><trkpt lat="42.7871933" lon="10.2570471"><ele>46.5</ele><time>2026-04-19T08:19:39.342Z</time></trkpt><trkpt lat="42.7871858" lon="10.2568689"><ele>46.25</ele><time>2026-04-19T08:19:40.338Z</time></trkpt><trkpt lat="42.7871838" lon="10.2566973"><ele>46.0</ele><time>2026-04-19T08:19:41.337Z</time></trkpt><trkpt lat="42.7871807" lon="10.2565359"><ele>45.4</ele><time>2026-04-19T08:19:42.342Z</time></trkpt><trkpt lat="42.7871741" lon="10.2563929"><ele>44.8</ele><time>2026-04-19T08:19:43.345Z</time></trkpt><trkpt lat="42.7871748" lon="10.2562863"><ele>44.199999999999996</ele><time>2026-04-19T08:19:44.34Z</time></trkpt><trkpt lat="42.7871996" lon="10.2561463"><ele>43.599999999999994</ele><time>2026-04-19T08:19:46.345Z</time></trkpt><trkpt lat="42.7872504" lon="10.2560093"><ele>43.0</ele><time>2026-04-19T08:19:48.35Z</time></trkpt><trkpt lat="42.7872892" lon="10.2557824"><ele>43.0</ele><time>2026-04-19T08:19:50.343Z</time></trkpt><trkpt lat="42.7872766" lon="10.2556652"><ele>43.0</ele><time>2026-04-19T08:19:51.347Z</time></trkpt><trkpt lat="42.7872348" lon="10.2555618"><ele>43.0</ele><time>2026-04-19T08:19:52.344Z</time></trkpt><trkpt lat="42.7871577" lon="10.2554916"><ele>43.0</ele><time>2026-04-19T08:19:53.345Z</time></trkpt><trkpt lat="42.7870584" lon="10.2554658"><ele>43.0</ele><time>2026-04-19T08:19:54.347Z</time></trkpt><trkpt lat="42.7869672" lon="10.2554858"><ele>42.0</ele><time>2026-04-19T08:19:55.335Z</time></trkpt><trkpt lat="42.7868836" lon="10.2554942"><ele>41.0</ele><time>2026-04-19T08:19:56.341Z</time></trkpt><trkpt lat="42.786798" lon="10.2554205"><ele>40.0</ele><time>2026-04-19T08:19:58.344Z</time></trkpt><trkpt lat="42.7868482" lon="10.2552605"><ele>39.0</ele><time>2026-04-19T08:20:00.338Z</time></trkpt><trkpt lat="42.7868948" lon="10.2551511"><ele>38.0</ele><time>2026-04-19T08:20:01.336Z</time></trkpt><trkpt lat="42.7869377" lon="10.2550277"><ele>38.0</ele><time>2026-04-19T08:20:02.332Z</time></trkpt><trkpt lat="42.7869828" lon="10.2549049"><ele>38.0</ele><time>2026-04-19T08:20:03.34Z</time></trkpt><trkpt lat="42.7870339" lon="10.2547865"><ele>38.0</ele><time>2026-04-19T08:20:04.338Z</time></trkpt><trkpt lat="42.7870944" lon="10.2546755"><ele>38.0</ele><time>2026-04-19T08:20:05.332Z</time></trkpt><trkpt lat="42.7871537" lon="10.2545503"><ele>38.0</ele><time>2026-04-19T08:20:06.341Z</time></trkpt><trkpt lat="42.7872134" lon="10.2544293"><ele>38.0</ele><time>2026-04-19T08:20:07.34Z</time></trkpt><trkpt lat="42.7872803" lon="10.2543135"><ele>38.0</ele><time>2026-04-19T08:20:08.338Z</time></trkpt><trkpt lat="42.7873555" lon="10.2542023"><ele>38.0</ele><time>2026-04-19T08:20:09.338Z</time></trkpt><trkpt lat="42.7875183" lon="10.2539901"><ele>38.0</ele><time>2026-04-19T08:20:11.338Z</time></trkpt><trkpt lat="42.7876038" lon="10.2538889"><ele>36.0</ele><time>2026-04-19T08:20:12.342Z</time></trkpt><trkpt lat="42.7876898" lon="10.2537926"><ele>34.0</ele><time>2026-04-19T08:20:13.341Z</time></trkpt><trkpt lat="42.7877732" lon="10.2537004"><ele>31.999999999999996</ele><time>2026-04-19T08:20:14.338Z</time></trkpt><trkpt lat="42.7878692" lon="10.2536252"><ele>30.0</ele><time>2026-04-19T08:20:15.341Z</time></trkpt><trkpt lat="42.7879786" lon="10.2535625"><ele>28.0</ele><time>2026-04-19T08:20:16.34Z</time></trkpt><trkpt lat="42.7880926" lon="10.2534968"><ele>28.0</ele><time>2026-04-19T08:20:17.339Z</time></trkpt><trkpt lat="42.7882021" lon="10.2534315"><ele>28.0</ele><time>2026-04-19T08:20:18.342Z</time></trkpt><trkpt lat="42.7883095" lon="10.2533597"><ele>28.0</ele><time>2026-04-19T08:20:19.352Z</time></trkpt><trkpt lat="42.7884147" lon="10.2532857"><ele>28.0</ele><time>2026-04-19T08:20:20.346Z</time></trkpt><trkpt lat="42.7885191" lon="10.2532052"><ele>26.75</ele><time>2026-04-19T08:20:21.344Z</time></trkpt><trkpt lat="42.7886224" lon="10.2531265"><ele>25.5</ele><time>2026-04-19T08:20:22.347Z</time></trkpt><trkpt lat="42.7887196" lon="10.253045"><ele>24.25</ele><time>2026-04-19T08:20:23.349Z</time></trkpt><trkpt lat="42.7888127" lon="10.2529663"><ele>23.0</ele><time>2026-04-19T08:20:24.347Z</time></trkpt><trkpt lat="42.7889016" lon="10.2528838"><ele>23.0</ele><time>2026-04-19T08:20:25.347Z</time></trkpt><trkpt lat="42.7889915" lon="10.2527977"><ele>23.0</ele><time>2026-04-19T08:20:26.347Z</time></trkpt><trkpt lat="42.7890796" lon="10.2526952"><ele>23.0</ele><time>2026-04-19T08:20:27.342Z</time></trkpt><trkpt lat="42.7891652" lon="10.2525795"><ele>23.0</ele><time>2026-04-19T08:20:28.343Z</time></trkpt><trkpt lat="42.7892483" lon="10.2524588"><ele>23.0</ele><time>2026-04-19T08:20:29.343Z</time></trkpt><trkpt lat="42.7893323" lon="10.2523483"><ele>23.0</ele><time>2026-04-19T08:20:30.342Z</time></trkpt><trkpt lat="42.7894959" lon="10.2521387"><ele>23.0</ele><time>2026-04-19T08:20:32.333Z</time></trkpt><trkpt lat="42.7895778" lon="10.2520391"><ele>21.75</ele><time>2026-04-19T08:20:33.343Z</time></trkpt><trkpt lat="42.7896581" lon="10.2519377"><ele>20.5</ele><time>2026-04-19T08:20:34.341Z</time></trkpt><trkpt lat="42.7897451" lon="10.25184"><ele>19.25</ele><time>2026-04-19T08:20:35.342Z</time></trkpt><trkpt lat="42.7898388" lon="10.2517389"><ele>18.0</ele><time>2026-04-19T08:20:36.338Z</time></trkpt><trkpt lat="42.7899272" lon="10.2516329"><ele>18.0</ele><time>2026-04-19T08:20:37.341Z</time></trkpt><trkpt lat="42.7900123" lon="10.2515282"><ele>18.0</ele><time>2026-04-19T08:20:38.343Z</time></trkpt><trkpt lat="42.7900956" lon="10.2514293"><ele>18.0</ele><time>2026-04-19T08:20:39.34Z</time></trkpt><trkpt lat="42.7901725" lon="10.2513367"><ele>18.0</ele><time>2026-04-19T08:20:40.343Z</time></trkpt><trkpt lat="42.7902486" lon="10.2512443"><ele>18.0</ele><time>2026-04-19T08:20:41.344Z</time></trkpt><trkpt lat="42.7903265" lon="10.2511469"><ele>16.2</ele><time>2026-04-19T08:20:42.341Z</time></trkpt><trkpt lat="42.790404" lon="10.2510507"><ele>14.4</ele><time>2026-04-19T08:20:43.339Z</time></trkpt><trkpt lat="42.7904815" lon="10.2509571"><ele>12.600000000000001</ele><time>2026-04-19T08:20:44.346Z</time></trkpt><trkpt lat="42.7905601" lon="10.2508696"><ele>10.8</ele><time>2026-04-19T08:20:45.342Z</time></trkpt><trkpt lat="42.7906361" lon="10.2507892"><ele>9.0</ele><time>2026-04-19T08:20:46.343Z</time></trkpt><trkpt lat="42.7907033" lon="10.2507204"><ele>9.0</ele><time>2026-04-19T08:20:47.341Z</time></trkpt><trkpt lat="42.7907528" lon="10.25066"><ele>9.0</ele><time>2026-04-19T08:20:48.339Z</time></trkpt><trkpt lat="42.7907954" lon="10.2505302"><ele>9.0</ele><time>2026-04-19T08:20:50.355Z</time></trkpt><trkpt lat="42.7907889" lon="10.2504375"><ele>9.0</ele><time>2026-04-19T08:20:51.34Z</time></trkpt><trkpt lat="42.7907628" lon="10.250196"><ele>9.0</ele><time>2026-04-19T08:20:53.343Z</time></trkpt><trkpt lat="42.790768" lon="10.2500643"><ele>8.6</ele><time>2026-04-19T08:20:54.337Z</time></trkpt><trkpt lat="42.7907973" lon="10.2499335"><ele>8.2</ele><time>2026-04-19T08:20:55.338Z</time></trkpt><trkpt lat="42.7908516" lon="10.2498058"><ele>7.799999999999999</ele><time>2026-04-19T08:20:56.338Z</time></trkpt><trkpt lat="42.7909162" lon="10.249681"><ele>7.3999999999999995</ele><time>2026-04-19T08:20:57.337Z</time></trkpt><trkpt lat="42.7909823" lon="10.2495621"><ele>7.0</ele><time>2026-04-19T08:20:58.339Z</time></trkpt><trkpt lat="42.7910375" lon="10.2494408"><ele>6.6</ele><time>2026-04-19T08:20:59.341Z</time></trkpt><trkpt lat="42.7910723" lon="10.2493243"><ele>6.199999999999999</ele><time>2026-04-19T08:21:00.337Z</time></trkpt><trkpt lat="42.7910724" lon="10.2492024"><ele>5.8</ele><time>2026-04-19T08:21:01.34Z</time></trkpt><trkpt lat="42.7910322" lon="10.2490863"><ele>5.4</ele><time>2026-04-19T08:21:02.326Z</time></trkpt><trkpt lat="42.7909627" lon="10.2489889"><ele>5.0</ele><time>2026-04-19T08:21:03.339Z</time></trkpt><trkpt lat="42.7908806" lon="10.2489219"><ele>4.333333333333334</ele><time>2026-04-19T08:21:04.338Z</time></trkpt><trkpt lat="42.7907974" lon="10.2488816"><ele>3.666666666666667</ele><time>2026-04-19T08:21:05.343Z</time></trkpt><trkpt lat="42.7907218" lon="10.2488312"><ele>3.0</ele><time>2026-04-19T08:21:06.343Z</time></trkpt><trkpt lat="42.7906456" lon="10.2487678"><ele>2.3333333333333335</ele><time>2026-04-19T08:21:07.342Z</time></trkpt><trkpt lat="42.7905635" lon="10.2487141"><ele>1.6666666666666665</ele><time>2026-04-19T08:21:08.344Z</time></trkpt><trkpt lat="42.790486" lon="10.2486753"><ele>1.0</ele><time>2026-04-19T08:21:09.338Z</time></trkpt><trkpt lat="42.7904181" lon="10.2486509"><ele>1.0</ele><time>2026-04-19T08:21:10.338Z</time></trkpt><trkpt lat="42.7903169" lon="10.2486184"><ele>1.0</ele><time>2026-04-19T08:21:12.342Z</time></trkpt><trkpt lat="42.7901703" lon="10.2485789"><ele>1.0</ele><time>2026-04-19T08:23:52.348Z</time></trkpt><trkpt lat="42.7899436" lon="10.2486145"><ele>1.5</ele><time>2026-04-19T08:23:56.341Z</time></trkpt><trkpt lat="42.7898911" lon="10.2486829"><ele>2.0</ele><time>2026-04-19T08:23:57.346Z</time></trkpt><trkpt lat="42.7898365" lon="10.2487577"><ele>2.5</ele><time>2026-04-19T08:23:58.343Z</time></trkpt><trkpt lat="42.7897805" lon="10.2488353"><ele>3.0</ele><time>2026-04-19T08:23:59.344Z</time></trkpt><trkpt lat="42.789723" lon="10.2489149"><ele>3.4999999999999996</ele><time>2026-04-19T08:24:00.346Z</time></trkpt><trkpt lat="42.7896711" lon="10.2489983"><ele>4.0</ele><time>2026-04-19T08:24:01.349Z</time></trkpt><trkpt lat="42.7896183" lon="10.2490884"><ele>4.333333333333333</ele><time>2026-04-19T08:24:02.344Z</time></trkpt><trkpt lat="42.7895585" lon="10.2491835"><ele>4.666666666666666</ele><time>2026-04-19T08:24:03.342Z</time></trkpt><trkpt lat="42.7894901" lon="10.2492881"><ele>5.0</ele><time>2026-04-19T08:24:04.346Z</time></trkpt><trkpt lat="42.7894251" lon="10.2493845"><ele>5.333333333333333</ele><time>2026-04-19T08:24:05.345Z</time></trkpt><trkpt lat="42.7893612" lon="10.2494514"><ele>5.666666666666667</ele><time>2026-04-19T08:24:06.345Z</time></trkpt><trkpt lat="42.7892994" lon="10.2494712"><ele>6.0</ele><time>2026-04-19T08:24:07.345Z</time></trkpt><trkpt lat="42.7892376" lon="10.2494365"><ele>6.0</ele><time>2026-04-19T08:24:08.343Z</time></trkpt><trkpt lat="42.7891764" lon="10.24935"><ele>6.0</ele><time>2026-04-19T08:24:09.334Z</time></trkpt><trkpt lat="42.7891066" lon="10.2492413"><ele>6.0</ele><time>2026-04-19T08:24:10.342Z</time></trkpt><trkpt lat="42.7890401" lon="10.2491125"><ele>6.0</ele><time>2026-04-19T08:24:11.345Z</time></trkpt><trkpt lat="42.7889793" lon="10.2489856"><ele>6.0</ele><time>2026-04-19T08:24:12.339Z</time></trkpt><trkpt lat="42.7889141" lon="10.2488764"><ele>6.0</ele><time>2026-04-19T08:24:13.346Z</time></trkpt><trkpt lat="42.7887903" lon="10.2488154"><ele>6.0</ele><time>2026-04-19T08:24:15.346Z</time></trkpt><trkpt lat="42.7887206" lon="10.2488736"><ele>6.0</ele><time>2026-04-19T08:24:16.347Z</time></trkpt><trkpt lat="42.7886446" lon="10.2489772"><ele>6.0</ele><time>2026-04-19T08:24:17.334Z</time></trkpt><trkpt lat="42.7885578" lon="10.2490522"><ele>6.0</ele><time>2026-04-19T08:24:18.333Z</time></trkpt><trkpt lat="42.7884606" lon="10.2490997"><ele>6.25</ele><time>2026-04-19T08:24:19.348Z</time></trkpt><trkpt lat="42.7883497" lon="10.2490945"><ele>6.5</ele><time>2026-04-19T08:24:20.343Z</time></trkpt><trkpt lat="42.7882457" lon="10.2490214"><ele>6.75</ele><time>2026-04-19T08:24:21.34Z</time></trkpt><trkpt lat="42.7881549" lon="10.2489164"><ele>7.0</ele><time>2026-04-19T08:24:22.334Z</time></trkpt><trkpt lat="42.7880598" lon="10.2488002"><ele>7.0</ele><time>2026-04-19T08:24:23.343Z</time></trkpt><trkpt lat="42.7879609" lon="10.2486722"><ele>7.0</ele><time>2026-04-19T08:24:24.339Z</time></trkpt><trkpt lat="42.7878662" lon="10.2485379"><ele>7.0</ele><time>2026-04-19T08:24:25.334Z</time></trkpt><trkpt lat="42.7877848" lon="10.2483908"><ele>7.0</ele><time>2026-04-19T08:24:26.342Z</time></trkpt><trkpt lat="42.787724" lon="10.2482465"><ele>10.2</ele><time>2026-04-19T08:24:27.338Z</time></trkpt><trkpt lat="42.7876747" lon="10.2481087"><ele>13.399999999999999</ele><time>2026-04-19T08:24:28.341Z</time></trkpt><trkpt lat="42.7876361" lon="10.2479784"><ele>16.599999999999998</ele><time>2026-04-19T08:24:29.343Z</time></trkpt><trkpt lat="42.787613" lon="10.2478578"><ele>19.799999999999997</ele><time>2026-04-19T08:24:30.337Z</time></trkpt><trkpt lat="42.7876255" lon="10.2477532"><ele>23.0</ele><time>2026-04-19T08:24:31.324Z</time></trkpt><trkpt lat="42.787658" lon="10.2476648"><ele>19.25</ele><time>2026-04-19T08:24:32.321Z</time></trkpt><trkpt lat="42.7877019" lon="10.2475805"><ele>15.5</ele><time>2026-04-19T08:24:33.325Z</time></trkpt><trkpt lat="42.787746" lon="10.2474875"><ele>11.75</ele><time>2026-04-19T08:24:34.325Z</time></trkpt><trkpt lat="42.7877998" lon="10.2472127"><ele>8.0</ele><time>2026-04-19T08:24:36.333Z</time></trkpt><trkpt lat="42.7878014" lon="10.2470469"><ele>8.0</ele><time>2026-04-19T08:24:37.331Z</time></trkpt><trkpt lat="42.7877959" lon="10.2468758"><ele>8.0</ele><time>2026-04-19T08:24:38.334Z</time></trkpt><trkpt lat="42.7877877" lon="10.2467215"><ele>8.0</ele><time>2026-04-19T08:24:39.338Z</time></trkpt><trkpt lat="42.7877784" lon="10.2466007"><ele>8.0</ele><time>2026-04-19T08:24:40.337Z</time></trkpt><trkpt lat="42.7877657" lon="10.2465147"><ele>8.0</ele><time>2026-04-19T08:24:41.341Z</time></trkpt><trkpt lat="42.787743" lon="10.2464304"><ele>7.4</ele><time>2026-04-19T08:24:44.333Z</time></trkpt><trkpt lat="42.7877403" lon="10.2463227"><ele>6.800000000000001</ele><time>2026-04-19T08:24:48.331Z</time></trkpt><trkpt lat="42.7876938" lon="10.24614"><ele>6.2</ele><time>2026-04-19T08:24:50.342Z</time></trkpt><trkpt lat="42.787619" lon="10.246042"><ele>5.6</ele><time>2026-04-19T08:24:51.333Z</time></trkpt><trkpt lat="42.7875224" lon="10.2459602"><ele>5.0</ele><time>2026-04-19T08:24:52.337Z</time></trkpt><trkpt lat="42.7873994" lon="10.2458974"><ele>8.666666666666666</ele><time>2026-04-19T08:24:53.337Z</time></trkpt><trkpt lat="42.7872772" lon="10.2458541"><ele>12.333333333333332</ele><time>2026-04-19T08:24:54.337Z</time></trkpt><trkpt lat="42.7871624" lon="10.2458213"><ele>16.0</ele><time>2026-04-19T08:24:55.337Z</time></trkpt><trkpt lat="42.7869565" lon="10.2457771"><ele>16.0</ele><time>2026-04-19T08:24:57.342Z</time></trkpt><trkpt lat="42.7868562" lon="10.2457536"><ele>16.0</ele><time>2026-04-19T08:24:58.336Z</time></trkpt><trkpt lat="42.7867532" lon="10.245725"><ele>16.0</ele><time>2026-04-19T08:24:59.342Z</time></trkpt><trkpt lat="42.7866479" lon="10.2456958"><ele>16.0</ele><time>2026-04-19T08:25:00.341Z</time></trkpt><trkpt lat="42.7865421" lon="10.2456695"><ele>16.0</ele><time>2026-04-19T08:25:01.341Z</time></trkpt><trkpt lat="42.7864395" lon="10.2456474"><ele>15.666666666666666</ele><time>2026-04-19T08:25:02.339Z</time></trkpt><trkpt lat="42.7863404" lon="10.2456367"><ele>15.333333333333332</ele><time>2026-04-19T08:25:03.332Z</time></trkpt><trkpt lat="42.7862458" lon="10.2456289"><ele>15.0</ele><time>2026-04-19T08:25:04.33Z</time></trkpt><trkpt lat="42.7861586" lon="10.2456135"><ele>14.666666666666668</ele><time>2026-04-19T08:25:05.325Z</time></trkpt><trkpt lat="42.7860817" lon="10.2455834"><ele>14.333333333333334</ele><time>2026-04-19T08:25:06.329Z</time></trkpt><trkpt lat="42.7860304" lon="10.245526"><ele>14.0</ele><time>2026-04-19T08:25:07.321Z</time></trkpt><trkpt lat="42.7859983" lon="10.2454429"><ele>12.833333333333334</ele><time>2026-04-19T08:25:08.33Z</time></trkpt><trkpt lat="42.7859935" lon="10.2453392"><ele>11.666666666666668</ele><time>2026-04-19T08:25:09.334Z</time></trkpt><trkpt lat="42.7859964" lon="10.2452259"><ele>10.5</ele><time>2026-04-19T08:25:10.334Z</time></trkpt><trkpt lat="42.7859992" lon="10.2451154"><ele>9.333333333333334</ele><time>2026-04-19T08:25:11.338Z</time></trkpt><trkpt lat="42.786009" lon="10.2450055"><ele>8.166666666666668</ele><time>2026-04-19T08:25:12.339Z</time></trkpt><trkpt lat="42.7860174" lon="10.2448922"><ele>7.0</ele><time>2026-04-19T08:25:13.338Z</time></trkpt><trkpt lat="42.786018" lon="10.2447736"><ele>6.25</ele><time>2026-04-19T08:25:14.337Z</time></trkpt><trkpt lat="42.7860109" lon="10.2446434"><ele>5.5</ele><time>2026-04-19T08:25:15.338Z</time></trkpt><trkpt lat="42.786003" lon="10.2445231"><ele>4.75</ele><time>2026-04-19T08:25:16.347Z</time></trkpt><trkpt lat="42.7859724" lon="10.2442703"><ele>4.0</ele><time>2026-04-19T08:25:19.358Z</time></trkpt><trkpt lat="42.7858835" lon="10.2442447"><ele>4.0</ele><time>2026-04-19T08:25:21.342Z</time></trkpt><trkpt lat="42.7858037" lon="10.2443141"><ele>4.0</ele><time>2026-04-19T08:25:23.341Z</time></trkpt><trkpt lat="42.7857209" lon="10.2444164"><ele>4.0</ele><time>2026-04-19T08:25:25.342Z</time></trkpt><trkpt lat="42.7856649" lon="10.2444914"><ele>4.0</ele><time>2026-04-19T08:25:26.342Z</time></trkpt><trkpt lat="42.7855993" lon="10.2445727"><ele>4.0</ele><time>2026-04-19T08:25:27.33Z</time></trkpt><trkpt lat="42.785525" lon="10.2446681"><ele>4.0</ele><time>2026-04-19T08:25:28.342Z</time></trkpt><trkpt lat="42.7854467" lon="10.2447732"><ele>4.0</ele><time>2026-04-19T08:25:29.346Z</time></trkpt><trkpt lat="42.7853687" lon="10.244883"><ele>4.0</ele><time>2026-04-19T08:25:30.341Z</time></trkpt><trkpt lat="42.7852966" lon="10.2449926"><ele>4.0</ele><time>2026-04-19T08:25:31.346Z</time></trkpt><trkpt lat="42.7852374" lon="10.2451074"><ele>4.0</ele><time>2026-04-19T08:25:32.342Z</time></trkpt><trkpt lat="42.7851935" lon="10.2452334"><ele>4.800000000000001</ele><time>2026-04-19T08:25:33.343Z</time></trkpt><trkpt lat="42.7851773" lon="10.2453618"><ele>5.6000000000000005</ele><time>2026-04-19T08:25:34.339Z</time></trkpt><trkpt lat="42.7851681" lon="10.2454847"><ele>6.4</ele><time>2026-04-19T08:25:35.336Z</time></trkpt><trkpt lat="42.7851469" lon="10.2455888"><ele>7.2</ele><time>2026-04-19T08:25:36.336Z</time></trkpt><trkpt lat="42.7851096" lon="10.2456591"><ele>8.0</ele><time>2026-04-19T08:25:37.343Z</time></trkpt><trkpt lat="42.7849692" lon="10.2456708"><ele>8.0</ele><time>2026-04-19T08:25:39.341Z</time></trkpt><trkpt lat="42.7848865" lon="10.2456414"><ele>8.0</ele><time>2026-04-19T08:25:40.341Z</time></trkpt><trkpt lat="42.7848001" lon="10.2456204"><ele>8.0</ele><time>2026-04-19T08:25:41.34Z</time></trkpt><trkpt lat="42.7847158" lon="10.2456167"><ele>8.0</ele><time>2026-04-19T08:25:42.331Z</time></trkpt><trkpt lat="42.7846147" lon="10.2456036"><ele>8.0</ele><time>2026-04-19T08:25:43.335Z</time></trkpt><trkpt lat="42.7844974" lon="10.2455764"><ele>8.0</ele><time>2026-04-19T08:25:44.334Z</time></trkpt><trkpt lat="42.7843682" lon="10.2455452"><ele>8.0</ele><time>2026-04-19T08:25:45.338Z</time></trkpt><trkpt lat="42.7842335" lon="10.2455144"><ele>8.0</ele><time>2026-04-19T08:25:46.341Z</time></trkpt><trkpt lat="42.7840984" lon="10.2454765"><ele>8.0</ele><time>2026-04-19T08:25:47.345Z</time></trkpt><trkpt lat="42.7839588" lon="10.2454366"><ele>8.5</ele><time>2026-04-19T08:25:48.335Z</time></trkpt><trkpt lat="42.7838311" lon="10.2454041"><ele>9.0</ele><time>2026-04-19T08:25:49.337Z</time></trkpt><trkpt lat="42.7837073" lon="10.2453686"><ele>9.5</ele><time>2026-04-19T08:25:50.339Z</time></trkpt><trkpt lat="42.7835884" lon="10.2453381"><ele>10.0</ele><time>2026-04-19T08:25:51.334Z</time></trkpt><trkpt lat="42.7834724" lon="10.2453105"><ele>11.0</ele><time>2026-04-19T08:25:52.336Z</time></trkpt><trkpt lat="42.7833561" lon="10.2452819"><ele>12.0</ele><time>2026-04-19T08:25:53.336Z</time></trkpt><trkpt lat="42.7832356" lon="10.2452491"><ele>13.0</ele><time>2026-04-19T08:25:54.336Z</time></trkpt><trkpt lat="42.7831117" lon="10.2451943"><ele>14.0</ele><time>2026-04-19T08:25:55.334Z</time></trkpt><trkpt lat="42.7829866" lon="10.2451106"><ele>14.0</ele><time>2026-04-19T08:25:56.34Z</time></trkpt><trkpt lat="42.7828624" lon="10.2450146"><ele>14.0</ele><time>2026-04-19T08:25:57.346Z</time></trkpt><trkpt lat="42.7827354" lon="10.2449241"><ele>14.0</ele><time>2026-04-19T08:25:58.342Z</time></trkpt><trkpt lat="42.7824455" lon="10.2447968"><ele>16.333333333333336</ele><time>2026-04-19T08:26:00.339Z</time></trkpt><trkpt lat="42.7822951" lon="10.2447947"><ele>18.666666666666668</ele><time>2026-04-19T08:26:01.341Z</time></trkpt><trkpt lat="42.7821374" lon="10.24482"><ele>21.0</ele><time>2026-04-19T08:26:02.333Z</time></trkpt><trkpt lat="42.7819813" lon="10.2448527"><ele>24.333333333333336</ele><time>2026-04-19T08:26:03.334Z</time></trkpt><trkpt lat="42.7818276" lon="10.2448958"><ele>27.666666666666668</ele><time>2026-04-19T08:26:04.338Z</time></trkpt><trkpt lat="42.7816764" lon="10.2449516"><ele>31.0</ele><time>2026-04-19T08:26:05.333Z</time></trkpt><trkpt lat="42.7815282" lon="10.2449993"><ele>31.0</ele><time>2026-04-19T08:26:06.328Z</time></trkpt><trkpt lat="42.7813845" lon="10.2450405"><ele>31.0</ele><time>2026-04-19T08:26:07.334Z</time></trkpt><trkpt lat="42.7812393" lon="10.2450844"><ele>31.0</ele><time>2026-04-19T08:26:08.335Z</time></trkpt><trkpt lat="42.7810976" lon="10.2451238"><ele>31.0</ele><time>2026-04-19T08:26:09.334Z</time></trkpt><trkpt lat="42.7809608" lon="10.2451743"><ele>32.5</ele><time>2026-04-19T08:26:10.333Z</time></trkpt><trkpt lat="42.780825" lon="10.2452419"><ele>34.0</ele><time>2026-04-19T08:26:11.331Z</time></trkpt><trkpt lat="42.7806887" lon="10.2453129"><ele>35.5</ele><time>2026-04-19T08:26:12.336Z</time></trkpt><trkpt lat="42.7805448" lon="10.245382"><ele>37.0</ele><time>2026-04-19T08:26:13.336Z</time></trkpt><trkpt lat="42.7803997" lon="10.2454573"><ele>37.0</ele><time>2026-04-19T08:26:14.336Z</time></trkpt><trkpt lat="42.7802552" lon="10.2455238"><ele>37.0</ele><time>2026-04-19T08:26:15.333Z</time></trkpt><trkpt lat="42.7801154" lon="10.2455871"><ele>37.0</ele><time>2026-04-19T08:26:16.336Z</time></trkpt><trkpt lat="42.7799768" lon="10.2456397"><ele>37.0</ele><time>2026-04-19T08:26:17.33Z</time></trkpt><trkpt lat="42.7798411" lon="10.2456894"><ele>40.66666666666667</ele><time>2026-04-19T08:26:18.335Z</time></trkpt><trkpt lat="42.7797003" lon="10.2457535"><ele>44.333333333333336</ele><time>2026-04-19T08:26:19.334Z</time></trkpt><trkpt lat="42.7794322" lon="10.2459142"><ele>48.0</ele><time>2026-04-19T08:26:21.33Z</time></trkpt><trkpt lat="42.7793033" lon="10.2460258"><ele>50.33333333333333</ele><time>2026-04-19T08:26:22.326Z</time></trkpt><trkpt lat="42.7791787" lon="10.2461437"><ele>52.666666666666664</ele><time>2026-04-19T08:26:23.33Z</time></trkpt><trkpt lat="42.779049" lon="10.2462434"><ele>55.0</ele><time>2026-04-19T08:26:24.329Z</time></trkpt><trkpt lat="42.7789108" lon="10.2463288"><ele>55.0</ele><time>2026-04-19T08:26:25.331Z</time></trkpt><trkpt lat="42.7787709" lon="10.2464005"><ele>55.0</ele><time>2026-04-19T08:26:26.335Z</time></trkpt><trkpt lat="42.7786333" lon="10.2464512"><ele>55.0</ele><time>2026-04-19T08:26:27.33Z</time></trkpt><trkpt lat="42.7784954" lon="10.2464838"><ele>55.0</ele><time>2026-04-19T08:26:28.331Z</time></trkpt><trkpt lat="42.7783626" lon="10.2465022"><ele>53.5</ele><time>2026-04-19T08:26:29.328Z</time></trkpt><trkpt lat="42.7782253" lon="10.2465"><ele>52.0</ele><time>2026-04-19T08:26:30.332Z</time></trkpt><trkpt lat="42.7780717" lon="10.2464958"><ele>50.5</ele><time>2026-04-19T08:26:31.327Z</time></trkpt><trkpt lat="42.7779247" lon="10.2464698"><ele>49.0</ele><time>2026-04-19T08:26:32.325Z</time></trkpt><trkpt lat="42.7777755" lon="10.2464097"><ele>50.0</ele><time>2026-04-19T08:26:33.325Z</time></trkpt><trkpt lat="42.7776195" lon="10.2463286"><ele>51.0</ele><time>2026-04-19T08:26:34.326Z</time></trkpt><trkpt lat="42.7774671" lon="10.2462461"><ele>52.0</ele><time>2026-04-19T08:26:35.327Z</time></trkpt><trkpt lat="42.7773203" lon="10.2461536"><ele>52.0</ele><time>2026-04-19T08:26:36.328Z</time></trkpt><trkpt lat="42.7771832" lon="10.2460707"><ele>52.0</ele><time>2026-04-19T08:26:37.329Z</time></trkpt><trkpt lat="42.77704" lon="10.2459782"><ele>52.0</ele><time>2026-04-19T08:26:38.328Z</time></trkpt><trkpt lat="42.7769112" lon="10.2458682"><ele>50.5</ele><time>2026-04-19T08:26:39.328Z</time></trkpt><trkpt lat="42.7767966" lon="10.2457389"><ele>49.0</ele><time>2026-04-19T08:26:40.325Z</time></trkpt><trkpt lat="42.7765682" lon="10.245459"><ele>49.0</ele><time>2026-04-19T08:26:42.329Z</time></trkpt><trkpt lat="42.7764559" lon="10.2453175"><ele>49.0</ele><time>2026-04-19T08:26:43.33Z</time></trkpt><trkpt lat="42.7763411" lon="10.245175"><ele>49.0</ele><time>2026-04-19T08:26:44.329Z</time></trkpt><trkpt lat="42.7762181" lon="10.2450432"><ele>49.0</ele><time>2026-04-19T08:26:45.328Z</time></trkpt><trkpt lat="42.7760969" lon="10.2449055"><ele>49.0</ele><time>2026-04-19T08:26:46.329Z</time></trkpt><trkpt lat="42.7759775" lon="10.2447479"><ele>49.0</ele><time>2026-04-19T08:26:47.331Z</time></trkpt><trkpt lat="42.7758453" lon="10.2445945"><ele>44.666666666666664</ele><time>2026-04-19T08:26:48.335Z</time></trkpt><trkpt lat="42.7757069" lon="10.2444619"><ele>40.33333333333333</ele><time>2026-04-19T08:26:49.336Z</time></trkpt><trkpt lat="42.7755696" lon="10.2443502"><ele>36.0</ele><time>2026-04-19T08:26:50.334Z</time></trkpt><trkpt lat="42.7754347" lon="10.2442476"><ele>36.0</ele><time>2026-04-19T08:26:51.333Z</time></trkpt><trkpt lat="42.7753069" lon="10.2441406"><ele>36.0</ele><time>2026-04-19T08:26:52.336Z</time></trkpt><trkpt lat="42.7751803" lon="10.2440262"><ele>36.0</ele><time>2026-04-19T08:26:53.335Z</time></trkpt><trkpt lat="42.7750532" lon="10.2439075"><ele>34.25</ele><time>2026-04-19T08:26:54.335Z</time></trkpt><trkpt lat="42.7749309" lon="10.2437936"><ele>32.5</ele><time>2026-04-19T08:26:55.332Z</time></trkpt><trkpt lat="42.7748048" lon="10.2436915"><ele>30.75</ele><time>2026-04-19T08:26:56.335Z</time></trkpt><trkpt lat="42.7746877" lon="10.24359"><ele>29.0</ele><time>2026-04-19T08:26:57.334Z</time></trkpt><trkpt lat="42.7745718" lon="10.2434885"><ele>29.0</ele><time>2026-04-19T08:26:58.333Z</time></trkpt><trkpt lat="42.7744518" lon="10.243386"><ele>29.0</ele><time>2026-04-19T08:26:59.336Z</time></trkpt><trkpt lat="42.7743356" lon="10.243274"><ele>29.0</ele><time>2026-04-19T08:27:00.334Z</time></trkpt><trkpt lat="42.774222" lon="10.2431581"><ele>29.0</ele><time>2026-04-19T08:27:01.341Z</time></trkpt><trkpt lat="42.7740265" lon="10.2429074"><ele>27.25</ele><time>2026-04-19T08:27:03.337Z</time></trkpt><trkpt lat="42.7739303" lon="10.242791"><ele>25.5</ele><time>2026-04-19T08:27:04.336Z</time></trkpt><trkpt lat="42.7738353" lon="10.2426764"><ele>23.75</ele><time>2026-04-19T08:27:05.337Z</time></trkpt><trkpt lat="42.7737495" lon="10.2425699"><ele>22.0</ele><time>2026-04-19T08:27:06.336Z</time></trkpt><trkpt lat="42.7736694" lon="10.2424619"><ele>22.0</ele><time>2026-04-19T08:27:07.335Z</time></trkpt><trkpt lat="42.7735979" lon="10.2423367"><ele>22.0</ele><time>2026-04-19T08:27:08.334Z</time></trkpt><trkpt lat="42.7735301" lon="10.2421985"><ele>22.0</ele><time>2026-04-19T08:27:09.338Z</time></trkpt><trkpt lat="42.7734731" lon="10.2420645"><ele>22.0</ele><time>2026-04-19T08:27:10.339Z</time></trkpt><trkpt lat="42.7734242" lon="10.2419243"><ele>21.25</ele><time>2026-04-19T08:27:11.338Z</time></trkpt><trkpt lat="42.773383" lon="10.2417781"><ele>20.5</ele><time>2026-04-19T08:27:12.335Z</time></trkpt><trkpt lat="42.7733492" lon="10.2416233"><ele>19.75</ele><time>2026-04-19T08:27:13.333Z</time></trkpt><trkpt lat="42.7733202" lon="10.2414646"><ele>19.0</ele><time>2026-04-19T08:27:14.336Z</time></trkpt><trkpt lat="42.773291" lon="10.2413069"><ele>19.0</ele><time>2026-04-19T08:27:15.335Z</time></trkpt><trkpt lat="42.7732608" lon="10.2411466"><ele>19.0</ele><time>2026-04-19T08:27:16.335Z</time></trkpt><trkpt lat="42.7732236" lon="10.2409837"><ele>19.0</ele><time>2026-04-19T08:27:17.334Z</time></trkpt><trkpt lat="42.7731737" lon="10.240825"><ele>19.0</ele><time>2026-04-19T08:27:18.33Z</time></trkpt><trkpt lat="42.7731112" lon="10.2406737"><ele>19.0</ele><time>2026-04-19T08:27:19.335Z</time></trkpt><trkpt lat="42.7730313" lon="10.2405305"><ele>19.0</ele><time>2026-04-19T08:27:20.331Z</time></trkpt><trkpt lat="42.772948" lon="10.2403978"><ele>19.0</ele><time>2026-04-19T08:27:21.328Z</time></trkpt><trkpt lat="42.7728658" lon="10.2402691"><ele>19.0</ele><time>2026-04-19T08:27:22.331Z</time></trkpt><trkpt lat="42.7727102" lon="10.2400139"><ele>19.0</ele><time>2026-04-19T08:27:24.335Z</time></trkpt><trkpt lat="42.7726371" lon="10.2398833"><ele>19.0</ele><time>2026-04-19T08:27:25.34Z</time></trkpt><trkpt lat="42.7725641" lon="10.2397592"><ele>19.0</ele><time>2026-04-19T08:27:26.337Z</time></trkpt><trkpt lat="42.7724958" lon="10.239641"><ele>19.0</ele><time>2026-04-19T08:27:27.335Z</time></trkpt><trkpt lat="42.7724338" lon="10.2395295"><ele>19.0</ele><time>2026-04-19T08:27:28.338Z</time></trkpt><trkpt lat="42.7723717" lon="10.2394216"><ele>19.0</ele><time>2026-04-19T08:27:29.338Z</time></trkpt><trkpt lat="42.7723043" lon="10.2393141"><ele>19.0</ele><time>2026-04-19T08:27:30.338Z</time></trkpt><trkpt lat="42.7722301" lon="10.2391995"><ele>19.0</ele><time>2026-04-19T08:27:31.336Z</time></trkpt><trkpt lat="42.7721483" lon="10.2390911"><ele>19.0</ele><time>2026-04-19T08:27:32.342Z</time></trkpt><trkpt lat="42.7720622" lon="10.2389889"><ele>19.5</ele><time>2026-04-19T08:27:33.334Z</time></trkpt><trkpt lat="42.7719743" lon="10.2388942"><ele>20.0</ele><time>2026-04-19T08:27:34.335Z</time></trkpt><trkpt lat="42.7718772" lon="10.2388042"><ele>20.5</ele><time>2026-04-19T08:27:35.334Z</time></trkpt><trkpt lat="42.7717808" lon="10.2387243"><ele>21.0</ele><time>2026-04-19T08:27:36.331Z</time></trkpt><trkpt lat="42.7716825" lon="10.2386503"><ele>20.2</ele><time>2026-04-19T08:27:37.331Z</time></trkpt><trkpt lat="42.7715859" lon="10.2385797"><ele>19.400000000000002</ele><time>2026-04-19T08:27:38.332Z</time></trkpt><trkpt lat="42.7714879" lon="10.2385181"><ele>18.6</ele><time>2026-04-19T08:27:39.33Z</time></trkpt><trkpt lat="42.7713867" lon="10.2384692"><ele>17.8</ele><time>2026-04-19T08:27:40.329Z</time></trkpt><trkpt lat="42.7712815" lon="10.2384388"><ele>17.0</ele><time>2026-04-19T08:27:41.332Z</time></trkpt><trkpt lat="42.7711729" lon="10.2384249"><ele>17.0</ele><time>2026-04-19T08:27:42.335Z</time></trkpt><trkpt lat="42.7710644" lon="10.2384245"><ele>17.0</ele><time>2026-04-19T08:27:43.335Z</time></trkpt><trkpt lat="42.7708507" lon="10.2384597"><ele>17.0</ele><time>2026-04-19T08:27:45.337Z</time></trkpt><trkpt lat="42.7707428" lon="10.2384864"><ele>17.0</ele><time>2026-04-19T08:27:46.337Z</time></trkpt><trkpt lat="42.7706381" lon="10.2385034"><ele>16.4</ele><time>2026-04-19T08:27:47.335Z</time></trkpt><trkpt lat="42.770535" lon="10.2385126"><ele>15.799999999999999</ele><time>2026-04-19T08:27:48.334Z</time></trkpt><trkpt lat="42.7704329" lon="10.2385124"><ele>15.2</ele><time>2026-04-19T08:27:49.335Z</time></trkpt><trkpt lat="42.7703335" lon="10.2385004"><ele>14.6</ele><time>2026-04-19T08:27:50.337Z</time></trkpt><trkpt lat="42.7702346" lon="10.2384893"><ele>14.0</ele><time>2026-04-19T08:27:51.333Z</time></trkpt><trkpt lat="42.7701415" lon="10.2384971"><ele>13.833333333333334</ele><time>2026-04-19T08:27:52.334Z</time></trkpt><trkpt lat="42.7700618" lon="10.2385316"><ele>13.666666666666668</ele><time>2026-04-19T08:27:53.333Z</time></trkpt><trkpt lat="42.7699853" lon="10.2385698"><ele>13.5</ele><time>2026-04-19T08:27:54.338Z</time></trkpt><trkpt lat="42.7699051" lon="10.2386076"><ele>13.333333333333332</ele><time>2026-04-19T08:27:55.332Z</time></trkpt><trkpt lat="42.7698203" lon="10.2386354"><ele>13.166666666666666</ele><time>2026-04-19T08:27:56.342Z</time></trkpt><trkpt lat="42.7697248" lon="10.2386567"><ele>13.0</ele><time>2026-04-19T08:27:57.333Z</time></trkpt><trkpt lat="42.7696206" lon="10.2386647"><ele>13.0</ele><time>2026-04-19T08:27:58.335Z</time></trkpt><trkpt lat="42.7695123" lon="10.2386722"><ele>13.0</ele><time>2026-04-19T08:27:59.341Z</time></trkpt><trkpt lat="42.7693978" lon="10.2386731"><ele>13.0</ele><time>2026-04-19T08:28:00.336Z</time></trkpt><trkpt lat="42.7692849" lon="10.2386711"><ele>13.0</ele><time>2026-04-19T08:28:01.338Z</time></trkpt><trkpt lat="42.7691716" lon="10.2386618"><ele>13.0</ele><time>2026-04-19T08:28:02.334Z</time></trkpt><trkpt lat="42.7690627" lon="10.2386573"><ele>13.0</ele><time>2026-04-19T08:28:03.339Z</time></trkpt><trkpt lat="42.7689544" lon="10.2386609"><ele>13.0</ele><time>2026-04-19T08:28:04.334Z</time></trkpt><trkpt lat="42.7687457" lon="10.2386848"><ele>13.0</ele><time>2026-04-19T08:28:06.327Z</time></trkpt><trkpt lat="42.7686532" lon="10.2387032"><ele>13.0</ele><time>2026-04-19T08:28:07.324Z</time></trkpt><trkpt lat="42.7685675" lon="10.23872"><ele>12.833333333333332</ele><time>2026-04-19T08:28:08.33Z</time></trkpt><trkpt lat="42.7684896" lon="10.2387423"><ele>12.666666666666666</ele><time>2026-04-19T08:28:09.329Z</time></trkpt><trkpt lat="42.7684269" lon="10.2387609"><ele>12.5</ele><time>2026-04-19T08:28:10.324Z</time></trkpt><trkpt lat="42.7683193" lon="10.238796"><ele>12.333333333333332</ele><time>2026-04-19T08:28:12.32Z</time></trkpt><trkpt lat="42.7682582" lon="10.2388206"><ele>12.166666666666666</ele><time>2026-04-19T08:28:14.333Z</time></trkpt><trkpt lat="42.7682177" lon="10.238888"><ele>12.0</ele><time>2026-04-19T08:28:17.338Z</time></trkpt><trkpt lat="42.7682108" lon="10.2390288"><ele>11.75</ele><time>2026-04-19T08:28:19.339Z</time></trkpt><trkpt lat="42.7681258" lon="10.2391112"><ele>11.5</ele><time>2026-04-19T08:28:21.339Z</time></trkpt><trkpt lat="42.7680551" lon="10.2391919"><ele>11.25</ele><time>2026-04-19T08:28:23.339Z</time></trkpt><trkpt lat="42.7679783" lon="10.2392428"><ele>11.0</ele><time>2026-04-19T08:28:25.333Z</time></trkpt><trkpt lat="42.767746" lon="10.2392255"><ele>10.8</ele><time>2026-04-19T08:28:28.339Z</time></trkpt><trkpt lat="42.7676439" lon="10.2392114"><ele>10.600000000000001</ele><time>2026-04-19T08:28:29.343Z</time></trkpt><trkpt lat="42.7675502" lon="10.2392005"><ele>10.4</ele><time>2026-04-19T08:28:30.337Z</time></trkpt><trkpt lat="42.7674591" lon="10.2391933"><ele>10.2</ele><time>2026-04-19T08:28:31.34Z</time></trkpt><trkpt lat="42.767373" lon="10.2391865"><ele>10.0</ele><time>2026-04-19T08:28:32.339Z</time></trkpt><trkpt lat="42.7672913" lon="10.2391802"><ele>10.0</ele><time>2026-04-19T08:28:33.336Z</time></trkpt><trkpt lat="42.7672106" lon="10.2391787"><ele>10.0</ele><time>2026-04-19T08:28:34.346Z</time></trkpt><trkpt lat="42.7671338" lon="10.239181"><ele>10.0</ele><time>2026-04-19T08:28:35.339Z</time></trkpt><trkpt lat="42.7670546" lon="10.2391858"><ele>10.0</ele><time>2026-04-19T08:28:36.344Z</time></trkpt><trkpt lat="42.7669743" lon="10.2391869"><ele>10.0</ele><time>2026-04-19T08:28:37.342Z</time></trkpt><trkpt lat="42.7668923" lon="10.2391903"><ele>10.0</ele><time>2026-04-19T08:28:38.342Z</time></trkpt><trkpt lat="42.766808" lon="10.2391986"><ele>9.5</ele><time>2026-04-19T08:28:39.342Z</time></trkpt><trkpt lat="42.7667228" lon="10.2392082"><ele>9.0</ele><time>2026-04-19T08:28:40.34Z</time></trkpt><trkpt lat="42.7666419" lon="10.239215"><ele>8.5</ele><time>2026-04-19T08:28:41.34Z</time></trkpt><trkpt lat="42.7665632" lon="10.2392261"><ele>8.0</ele><time>2026-04-19T08:28:42.341Z</time></trkpt><trkpt lat="42.7664858" lon="10.239241"><ele>7.500000000000001</ele><time>2026-04-19T08:28:43.343Z</time></trkpt><trkpt lat="42.7664022" lon="10.2392632"><ele>7.0</ele><time>2026-04-19T08:28:44.34Z</time></trkpt><trkpt lat="42.7663144" lon="10.2392787"><ele>7.0</ele><time>2026-04-19T08:28:45.341Z</time></trkpt><trkpt lat="42.7662233" lon="10.2392898"><ele>7.0</ele><time>2026-04-19T08:28:46.341Z</time></trkpt><trkpt lat="42.7660117" lon="10.2393321"><ele>7.0</ele><time>2026-04-19T08:28:48.344Z</time></trkpt><trkpt lat="42.7658843" lon="10.2393564"><ele>7.0</ele><time>2026-04-19T08:28:49.341Z</time></trkpt><trkpt lat="42.7657456" lon="10.239379"><ele>7.25</ele><time>2026-04-19T08:28:50.337Z</time></trkpt><trkpt lat="42.7656007" lon="10.2394096"><ele>7.5</ele><time>2026-04-19T08:28:51.342Z</time></trkpt><trkpt lat="42.7654607" lon="10.2394413"><ele>7.75</ele><time>2026-04-19T08:28:52.343Z</time></trkpt><trkpt lat="42.765342" lon="10.2394646"><ele>8.0</ele><time>2026-04-19T08:28:53.346Z</time></trkpt><trkpt lat="42.7652338" lon="10.2394854"><ele>7.800000000000001</ele><time>2026-04-19T08:28:54.346Z</time></trkpt><trkpt lat="42.7651158" lon="10.2395153"><ele>7.6000000000000005</ele><time>2026-04-19T08:28:55.346Z</time></trkpt><trkpt lat="42.7650005" lon="10.2395438"><ele>7.3999999999999995</ele><time>2026-04-19T08:28:56.349Z</time></trkpt><trkpt lat="42.7648929" lon="10.2395657"><ele>7.199999999999999</ele><time>2026-04-19T08:28:57.347Z</time></trkpt><trkpt lat="42.7647956" lon="10.2395817"><ele>7.0</ele><time>2026-04-19T08:28:58.344Z</time></trkpt><trkpt lat="42.7646962" lon="10.2396042"><ele>7.0</ele><time>2026-04-19T08:28:59.346Z</time></trkpt><trkpt lat="42.7645961" lon="10.2396278"><ele>6.999999999999999</ele><time>2026-04-19T08:29:00.345Z</time></trkpt><trkpt lat="42.7644918" lon="10.2396497"><ele>6.999999999999999</ele><time>2026-04-19T08:29:01.345Z</time></trkpt><trkpt lat="42.764384" lon="10.2396678"><ele>7.0</ele><time>2026-04-19T08:29:02.342Z</time></trkpt><trkpt lat="42.7642758" lon="10.2396814"><ele>7.0</ele><time>2026-04-19T08:29:03.346Z</time></trkpt><trkpt lat="42.76417" lon="10.2397021"><ele>7.0</ele><time>2026-04-19T08:29:04.342Z</time></trkpt><trkpt lat="42.7640628" lon="10.2397285"><ele>7.0</ele><time>2026-04-19T08:29:05.347Z</time></trkpt><trkpt lat="42.7639559" lon="10.2397605"><ele>7.0</ele><time>2026-04-19T08:29:06.342Z</time></trkpt><trkpt lat="42.7638458" lon="10.2397921"><ele>7.0</ele><time>2026-04-19T08:29:07.343Z</time></trkpt><trkpt lat="42.7636144" lon="10.2398337"><ele>6.6</ele><time>2026-04-19T08:29:09.352Z</time></trkpt><trkpt lat="42.7634988" lon="10.2398459"><ele>6.199999999999999</ele><time>2026-04-19T08:29:10.344Z</time></trkpt><trkpt lat="42.7633908" lon="10.2398605"><ele>5.8</ele><time>2026-04-19T08:29:11.345Z</time></trkpt><trkpt lat="42.763295" lon="10.2398687"><ele>5.4</ele><time>2026-04-19T08:29:12.341Z</time></trkpt><trkpt lat="42.7632089" lon="10.2398714"><ele>5.0</ele><time>2026-04-19T08:29:13.342Z</time></trkpt><trkpt lat="42.7631297" lon="10.2398686"><ele>5.0</ele><time>2026-04-19T08:29:14.342Z</time></trkpt><trkpt lat="42.7630583" lon="10.2398665"><ele>5.0</ele><time>2026-04-19T08:29:15.341Z</time></trkpt><trkpt lat="42.762968" lon="10.2398657"><ele>5.0</ele><time>2026-04-19T08:29:17.338Z</time></trkpt><trkpt lat="42.7628916" lon="10.2398529"><ele>5.0</ele><time>2026-04-19T08:29:21.334Z</time></trkpt><trkpt lat="42.7627668" lon="10.2398718"><ele>5.0</ele><time>2026-04-19T08:29:23.345Z</time></trkpt><trkpt lat="42.7626883" lon="10.2398994"><ele>5.0</ele><time>2026-04-19T08:29:24.339Z</time></trkpt><trkpt lat="42.7625995" lon="10.2399333"><ele>4.75</ele><time>2026-04-19T08:29:25.343Z</time></trkpt><trkpt lat="42.7624999" lon="10.2399728"><ele>4.5</ele><time>2026-04-19T08:29:26.343Z</time></trkpt><trkpt lat="42.7623961" lon="10.2400139"><ele>4.25</ele><time>2026-04-19T08:29:27.346Z</time></trkpt><trkpt lat="42.7622857" lon="10.2400535"><ele>4.0</ele><time>2026-04-19T08:29:28.35Z</time></trkpt><trkpt lat="42.7620576" lon="10.2401435"><ele>4.0</ele><time>2026-04-19T08:29:30.347Z</time></trkpt><trkpt lat="42.761945" lon="10.24019"><ele>4.0</ele><time>2026-04-19T08:29:31.348Z</time></trkpt><trkpt lat="42.7618431" lon="10.240234"><ele>4.0</ele><time>2026-04-19T08:29:32.347Z</time></trkpt><trkpt lat="42.7617411" lon="10.2402786"><ele>4.0</ele><time>2026-04-19T08:29:33.344Z</time></trkpt><trkpt lat="42.7616345" lon="10.2403269"><ele>4.0</ele><time>2026-04-19T08:29:34.346Z</time></trkpt><trkpt lat="42.7615263" lon="10.2403785"><ele>4.0</ele><time>2026-04-19T08:29:35.344Z</time></trkpt><trkpt lat="42.7614144" lon="10.2404297"><ele>4.0</ele><time>2026-04-19T08:29:36.347Z</time></trkpt><trkpt lat="42.7613096" lon="10.2404766"><ele>4.0</ele><time>2026-04-19T08:29:37.342Z</time></trkpt><trkpt lat="42.7612095" lon="10.2405229"><ele>4.0</ele><time>2026-04-19T08:29:38.343Z</time></trkpt><trkpt lat="42.7611127" lon="10.2405653"><ele>4.0</ele><time>2026-04-19T08:29:39.343Z</time></trkpt><trkpt lat="42.7610149" lon="10.2406051"><ele>4.0</ele><time>2026-04-19T08:29:40.341Z</time></trkpt><trkpt lat="42.7609123" lon="10.2406513"><ele>4.0</ele><time>2026-04-19T08:29:41.34Z</time></trkpt><trkpt lat="42.7608099" lon="10.2406982"><ele>4.0</ele><time>2026-04-19T08:29:42.34Z</time></trkpt><trkpt lat="42.7607025" lon="10.2407467"><ele>4.0</ele><time>2026-04-19T08:29:43.337Z</time></trkpt><trkpt lat="42.760588" lon="10.2407963"><ele>4.0</ele><time>2026-04-19T08:29:44.338Z</time></trkpt><trkpt lat="42.7604734" lon="10.2408474"><ele>4.0</ele><time>2026-04-19T08:29:45.34Z</time></trkpt><trkpt lat="42.760361" lon="10.2408971"><ele>4.0</ele><time>2026-04-19T08:29:46.341Z</time></trkpt><trkpt lat="42.7602559" lon="10.2409449"><ele>4.0</ele><time>2026-04-19T08:29:47.341Z</time></trkpt><trkpt lat="42.7601507" lon="10.240993"><ele>4.0</ele><time>2026-04-19T08:29:48.343Z</time></trkpt><trkpt lat="42.7600475" lon="10.2410394"><ele>4.0</ele><time>2026-04-19T08:29:49.344Z</time></trkpt><trkpt lat="42.7598377" lon="10.2411358"><ele>3.8000000000000003</ele><time>2026-04-19T08:29:51.344Z</time></trkpt><trkpt lat="42.759729" lon="10.241185"><ele>3.6000000000000005</ele><time>2026-04-19T08:29:52.344Z</time></trkpt><trkpt lat="42.759621" lon="10.2412341"><ele>3.4</ele><time>2026-04-19T08:29:53.347Z</time></trkpt><trkpt lat="42.7595162" lon="10.2412797"><ele>3.2</ele><time>2026-04-19T08:29:54.345Z</time></trkpt><trkpt lat="42.7594131" lon="10.2413201"><ele>3.0</ele><time>2026-04-19T08:29:55.345Z</time></trkpt><trkpt lat="42.7593135" lon="10.2413606"><ele>2.8</ele><time>2026-04-19T08:29:56.346Z</time></trkpt><trkpt lat="42.7592132" lon="10.2414031"><ele>2.5999999999999996</ele><time>2026-04-19T08:29:57.342Z</time></trkpt><trkpt lat="42.7591132" lon="10.2414488"><ele>2.4000000000000004</ele><time>2026-04-19T08:29:58.348Z</time></trkpt><trkpt lat="42.759015" lon="10.2414925"><ele>2.2</ele><time>2026-04-19T08:29:59.349Z</time></trkpt><trkpt lat="42.7589189" lon="10.2415312"><ele>2.0</ele><time>2026-04-19T08:30:00.343Z</time></trkpt><trkpt lat="42.7588256" lon="10.2415689"><ele>2.2</ele><time>2026-04-19T08:30:01.347Z</time></trkpt><trkpt lat="42.7587343" lon="10.2416041"><ele>2.4000000000000004</ele><time>2026-04-19T08:30:02.342Z</time></trkpt><trkpt lat="42.7586424" lon="10.2416419"><ele>2.5999999999999996</ele><time>2026-04-19T08:30:03.342Z</time></trkpt><trkpt lat="42.7585499" lon="10.2416786"><ele>2.8</ele><time>2026-04-19T08:30:04.342Z</time></trkpt><trkpt lat="42.758456" lon="10.2417172"><ele>3.0</ele><time>2026-04-19T08:30:05.343Z</time></trkpt><trkpt lat="42.7583582" lon="10.2417598"><ele>3.0</ele><time>2026-04-19T08:30:06.341Z</time></trkpt><trkpt lat="42.7582564" lon="10.2418061"><ele>3.0</ele><time>2026-04-19T08:30:07.35Z</time></trkpt><trkpt lat="42.7581517" lon="10.2418498"><ele>3.0</ele><time>2026-04-19T08:30:08.342Z</time></trkpt><trkpt lat="42.7580468" lon="10.2418926"><ele>3.0</ele><time>2026-04-19T08:30:09.356Z</time></trkpt><trkpt lat="42.7579447" lon="10.241936"><ele>3.0</ele><time>2026-04-19T08:30:10.34Z</time></trkpt><trkpt lat="42.7577456" lon="10.2420164"><ele>2.8333333333333335</ele><time>2026-04-19T08:30:12.344Z</time></trkpt><trkpt lat="42.7576486" lon="10.2420575"><ele>2.6666666666666665</ele><time>2026-04-19T08:30:13.346Z</time></trkpt><trkpt lat="42.7575538" lon="10.2420967"><ele>2.5</ele><time>2026-04-19T08:30:14.345Z</time></trkpt><trkpt lat="42.757464" lon="10.2421352"><ele>2.333333333333333</ele><time>2026-04-19T08:30:15.342Z</time></trkpt><trkpt lat="42.7573878" lon="10.2421699"><ele>2.1666666666666665</ele><time>2026-04-19T08:30:16.344Z</time></trkpt><trkpt lat="42.7573246" lon="10.2422049"><ele>2.0</ele><time>2026-04-19T08:30:17.343Z</time></trkpt><trkpt lat="42.7572655" lon="10.2422392"><ele>2.0</ele><time>2026-04-19T08:30:18.342Z</time></trkpt><trkpt lat="42.7571359" lon="10.2422804"><ele>2.0</ele><time>2026-04-19T08:30:20.342Z</time></trkpt><trkpt lat="42.7570575" lon="10.242312"><ele>2.0</ele><time>2026-04-19T08:30:21.342Z</time></trkpt><trkpt lat="42.7569696" lon="10.2423484"><ele>2.0</ele><time>2026-04-19T08:30:22.343Z</time></trkpt><trkpt lat="42.7568734" lon="10.2423867"><ele>2.0</ele><time>2026-04-19T08:30:23.344Z</time></trkpt><trkpt lat="42.7567733" lon="10.2424275"><ele>2.0</ele><time>2026-04-19T08:30:24.344Z</time></trkpt><trkpt lat="42.7566736" lon="10.2424692"><ele>2.0</ele><time>2026-04-19T08:30:25.344Z</time></trkpt><trkpt lat="42.7565681" lon="10.2425135"><ele>2.0</ele><time>2026-04-19T08:30:26.344Z</time></trkpt><trkpt lat="42.7564586" lon="10.2425558"><ele>2.0</ele><time>2026-04-19T08:30:27.343Z</time></trkpt><trkpt lat="42.7563557" lon="10.2425967"><ele>2.0</ele><time>2026-04-19T08:30:28.344Z</time></trkpt><trkpt lat="42.7562564" lon="10.242639"><ele>2.0</ele><time>2026-04-19T08:30:29.346Z</time></trkpt><trkpt lat="42.7561574" lon="10.2426796"><ele>2.0</ele><time>2026-04-19T08:30:30.344Z</time></trkpt><trkpt lat="42.7560571" lon="10.2427202"><ele>2.0</ele><time>2026-04-19T08:30:31.343Z</time></trkpt><trkpt lat="42.7558686" lon="10.242798"><ele>2.0</ele><time>2026-04-19T08:30:33.34Z</time></trkpt><trkpt lat="42.7557824" lon="10.2428343"><ele>1.6</ele><time>2026-04-19T08:30:34.342Z</time></trkpt><trkpt lat="42.755694" lon="10.2428724"><ele>1.2000000000000002</ele><time>2026-04-19T08:30:35.34Z</time></trkpt><trkpt lat="42.7556058" lon="10.2429101"><ele>0.8</ele><time>2026-04-19T08:30:36.34Z</time></trkpt><trkpt lat="42.7555125" lon="10.2429451"><ele>0.4</ele><time>2026-04-19T08:30:37.339Z</time></trkpt><trkpt lat="42.7554154" lon="10.2429843"><ele>0.0</ele><time>2026-04-19T08:30:38.344Z</time></trkpt><trkpt lat="42.7553232" lon="10.2430202"><ele>0.0</ele><time>2026-04-19T08:30:39.345Z</time></trkpt><trkpt lat="42.7552358" lon="10.2430536"><ele>0.0</ele><time>2026-04-19T08:30:40.341Z</time></trkpt><trkpt lat="42.7551501" lon="10.2430815"><ele>0.0</ele><time>2026-04-19T08:30:41.341Z</time></trkpt><trkpt lat="42.7550764" lon="10.2431007"><ele>0.0</ele><time>2026-04-19T08:30:42.34Z</time></trkpt><trkpt lat="42.7550121" lon="10.2431173"><ele>0.0</ele><time>2026-04-19T08:30:43.337Z</time></trkpt><trkpt lat="42.7549487" lon="10.2431403"><ele>0.0</ele><time>2026-04-19T08:30:44.338Z</time></trkpt><trkpt lat="42.7548762" lon="10.2431668"><ele>0.0</ele><time>2026-04-19T08:30:45.338Z</time></trkpt><trkpt lat="42.754793" lon="10.2431982"><ele>0.0</ele><time>2026-04-19T08:30:46.341Z</time></trkpt><trkpt lat="42.7547085" lon="10.2432287"><ele>0.0</ele><time>2026-04-19T08:30:47.34Z</time></trkpt><trkpt lat="42.7546214" lon="10.2432588"><ele>0.0</ele><time>2026-04-19T08:30:48.339Z</time></trkpt><trkpt lat="42.7545338" lon="10.2432892"><ele>0.0</ele><time>2026-04-19T08:30:49.345Z</time></trkpt><trkpt lat="42.7544507" lon="10.2433163"><ele>0.0</ele><time>2026-04-19T08:30:50.34Z</time></trkpt><trkpt lat="42.7543631" lon="10.2433462"><ele>0.0</ele><time>2026-04-19T08:30:51.339Z</time></trkpt><trkpt lat="42.7542713" lon="10.24338"><ele>0.0</ele><time>2026-04-19T08:30:52.339Z</time></trkpt><trkpt lat="42.7540918" lon="10.243443"><ele>0.0</ele><time>2026-04-19T08:30:54.341Z</time></trkpt><trkpt lat="42.7540104" lon="10.2434721"><ele>0.0</ele><time>2026-04-19T08:30:55.341Z</time></trkpt><trkpt lat="42.7539327" lon="10.2435018"><ele>0.0</ele><time>2026-04-19T08:30:56.344Z</time></trkpt><trkpt lat="42.7538523" lon="10.2435329"><ele>0.0</ele><time>2026-04-19T08:30:57.34Z</time></trkpt><trkpt lat="42.7537703" lon="10.2435604"><ele>0.0</ele><time>2026-04-19T08:30:58.341Z</time></trkpt><trkpt lat="42.7536851" lon="10.2435881"><ele>0.0</ele><time>2026-04-19T08:30:59.343Z</time></trkpt><trkpt lat="42.7536002" lon="10.2436213"><ele>0.0</ele><time>2026-04-19T08:31:00.343Z</time></trkpt><trkpt lat="42.7535155" lon="10.2436541"><ele>0.0</ele><time>2026-04-19T08:31:01.347Z</time></trkpt><trkpt lat="42.7534293" lon="10.2436872"><ele>0.0</ele><time>2026-04-19T08:31:02.34Z</time></trkpt><trkpt lat="42.7533461" lon="10.2437191"><ele>0.0</ele><time>2026-04-19T08:31:03.341Z</time></trkpt><trkpt lat="42.7532688" lon="10.243754"><ele>0.0</ele><time>2026-04-19T08:31:04.336Z</time></trkpt><trkpt lat="42.7531973" lon="10.2437842"><ele>0.0</ele><time>2026-04-19T08:31:05.338Z</time></trkpt><trkpt lat="42.7531367" lon="10.2438106"><ele>0.0</ele><time>2026-04-19T08:31:06.339Z</time></trkpt><trkpt lat="42.7530581" lon="10.2438407"><ele>0.0</ele><time>2026-04-19T08:31:08.34Z</time></trkpt><trkpt lat="42.7529914" lon="10.2438675"><ele>0.0</ele><time>2026-04-19T08:31:13.341Z</time></trkpt><trkpt lat="42.7530897" lon="10.2439816"><ele>-0.2</ele><time>2026-04-19T08:31:20.341Z</time></trkpt><trkpt lat="42.7531935" lon="10.2440163"><ele>-0.4</ele><time>2026-04-19T08:31:22.333Z</time></trkpt><trkpt lat="42.753255" lon="10.2440448"><ele>-0.6000000000000001</ele><time>2026-04-19T08:31:31.342Z</time></trkpt><trkpt lat="42.7533368" lon="10.2440751"><ele>-0.8</ele><time>2026-04-19T08:31:33.336Z</time></trkpt><trkpt lat="42.7534338" lon="10.2441648"><ele>-1.0</ele><time>2026-04-19T08:31:35.335Z</time></trkpt><trkpt lat="42.7536068" lon="10.2442968"><ele>-1.0</ele><time>2026-04-19T08:31:37.339Z</time></trkpt><trkpt lat="42.7537204" lon="10.2443702"><ele>-1.0</ele><time>2026-04-19T08:31:38.341Z</time></trkpt><trkpt lat="42.7538302" lon="10.2444399"><ele>-1.0</ele><time>2026-04-19T08:31:39.338Z</time></trkpt><trkpt lat="42.7539203" lon="10.2444994"><ele>-1.0</ele><time>2026-04-19T08:31:40.339Z</time></trkpt><trkpt lat="42.7539908" lon="10.2445533"><ele>-1.0</ele><time>2026-04-19T08:31:41.339Z</time></trkpt><trkpt lat="42.7540552" lon="10.2446007"><ele>-1.0</ele><time>2026-04-19T08:31:42.339Z</time></trkpt><trkpt lat="42.7541177" lon="10.2446454"><ele>-0.9999999999999999</ele><time>2026-04-19T08:31:43.338Z</time></trkpt><trkpt lat="42.7541811" lon="10.2446943"><ele>-1.0</ele><time>2026-04-19T08:31:44.335Z</time></trkpt><trkpt lat="42.75425" lon="10.2447511"><ele>-1.0</ele><time>2026-04-19T08:31:45.341Z</time></trkpt><trkpt lat="42.7543212" lon="10.2448081"><ele>-0.9999999999999999</ele><time>2026-04-19T08:31:46.339Z</time></trkpt><trkpt lat="42.7543861" lon="10.2448554"><ele>-1.0</ele><time>2026-04-19T08:31:47.337Z</time></trkpt><trkpt lat="42.7544439" lon="10.2448919"><ele>-1.0</ele><time>2026-04-19T08:31:48.341Z</time></trkpt><trkpt lat="42.7545475" lon="10.2449618"><ele>-0.8333333333333333</ele><time>2026-04-19T08:31:50.341Z</time></trkpt><trkpt lat="42.7546044" lon="10.2450031"><ele>-0.6666666666666666</ele><time>2026-04-19T08:31:51.336Z</time></trkpt><trkpt lat="42.7546644" lon="10.2450537"><ele>-0.5</ele><time>2026-04-19T08:31:52.335Z</time></trkpt><trkpt lat="42.7547304" lon="10.2451211"><ele>-0.3333333333333333</ele><time>2026-04-19T08:31:53.336Z</time></trkpt><trkpt lat="42.7548016" lon="10.2452104"><ele>-0.16666666666666666</ele><time>2026-04-19T08:31:54.337Z</time></trkpt><trkpt lat="42.7548801" lon="10.2453051"><ele>0.0</ele><time>2026-04-19T08:31:55.339Z</time></trkpt><trkpt lat="42.7549621" lon="10.2453945"><ele>0.0</ele><time>2026-04-19T08:31:56.34Z</time></trkpt><trkpt lat="42.7551398" lon="10.2455681"><ele>0.0</ele><time>2026-04-19T08:31:58.338Z</time></trkpt><trkpt lat="42.7552357" lon="10.245655"><ele>0.0</ele><time>2026-04-19T08:31:59.342Z</time></trkpt><trkpt lat="42.7553196" lon="10.245741"><ele>0.0</ele><time>2026-04-19T08:32:00.339Z</time></trkpt><trkpt lat="42.7553807" lon="10.2458208"><ele>0.16666666666666666</ele><time>2026-04-19T08:32:01.343Z</time></trkpt><trkpt lat="42.7554172" lon="10.2459154"><ele>0.3333333333333333</ele><time>2026-04-19T08:32:03.335Z</time></trkpt><trkpt lat="42.755326" lon="10.2460295"><ele>0.5</ele><time>2026-04-19T08:32:08.335Z</time></trkpt><trkpt lat="42.7552613" lon="10.2460875"><ele>0.6666666666666666</ele><time>2026-04-19T08:32:09.335Z</time></trkpt><trkpt lat="42.7551961" lon="10.2461533"><ele>0.8333333333333333</ele><time>2026-04-19T08:32:10.335Z</time></trkpt><trkpt lat="42.7551326" lon="10.2462339"><ele>1.0</ele><time>2026-04-19T08:32:11.338Z</time></trkpt><trkpt lat="42.7550713" lon="10.2463304"><ele>1.0</ele><time>2026-04-19T08:32:12.331Z</time></trkpt><trkpt lat="42.7549998" lon="10.2464383"><ele>1.0</ele><time>2026-04-19T08:32:13.338Z</time></trkpt><trkpt lat="42.7549218" lon="10.2465577"><ele>1.0</ele><time>2026-04-19T08:32:14.335Z</time></trkpt><trkpt lat="42.7548436" lon="10.2466777"><ele>1.0</ele><time>2026-04-19T08:32:15.341Z</time></trkpt><trkpt lat="42.7547675" lon="10.2467956"><ele>1.25</ele><time>2026-04-19T08:32:16.339Z</time></trkpt><trkpt lat="42.7546938" lon="10.2469038"><ele>1.5</ele><time>2026-04-19T08:32:17.343Z</time></trkpt><trkpt lat="42.7545479" lon="10.2470687"><ele>1.75</ele><time>2026-04-19T08:32:19.344Z</time></trkpt><trkpt lat="42.7544828" lon="10.2471263"><ele>2.0</ele><time>2026-04-19T08:32:20.34Z</time></trkpt><trkpt lat="42.7543898" lon="10.2471865"><ele>2.0</ele><time>2026-04-19T08:32:22.342Z</time></trkpt><trkpt lat="42.7543094" lon="10.2471961"><ele>2.0</ele><time>2026-04-19T08:32:25.34Z</time></trkpt><trkpt lat="42.7541918" lon="10.2472442"><ele>2.0</ele><time>2026-04-19T08:32:27.341Z</time></trkpt><trkpt lat="42.754112" lon="10.2473001"><ele>2.0</ele><time>2026-04-19T08:32:28.335Z</time></trkpt><trkpt lat="42.7540256" lon="10.247383"><ele>2.0</ele><time>2026-04-19T08:32:29.341Z</time></trkpt><trkpt lat="42.753945" lon="10.247483"><ele>2.75</ele><time>2026-04-19T08:32:30.338Z</time></trkpt><trkpt lat="42.753867" lon="10.2475914"><ele>3.5</ele><time>2026-04-19T08:32:31.338Z</time></trkpt><trkpt lat="42.7537835" lon="10.2477069"><ele>4.25</ele><time>2026-04-19T08:32:32.337Z</time></trkpt><trkpt lat="42.753697" lon="10.2478268"><ele>5.0</ele><time>2026-04-19T08:32:33.333Z</time></trkpt><trkpt lat="42.7536087" lon="10.2479385"><ele>4.8</ele><time>2026-04-19T08:32:34.333Z</time></trkpt><trkpt lat="42.7535247" lon="10.248035"><ele>4.6</ele><time>2026-04-19T08:32:35.336Z</time></trkpt><trkpt lat="42.7534419" lon="10.2481306"><ele>4.4</ele><time>2026-04-19T08:32:36.337Z</time></trkpt><trkpt lat="42.7533691" lon="10.2482227"><ele>4.2</ele><time>2026-04-19T08:32:37.343Z</time></trkpt><trkpt lat="42.7533067" lon="10.2483116"><ele>4.0</ele><time>2026-04-19T08:32:38.338Z</time></trkpt><trkpt lat="42.7531955" lon="10.2484689"><ele>4.6</ele><time>2026-04-19T08:32:40.343Z</time></trkpt><trkpt lat="42.753157" lon="10.2485374"><ele>5.2</ele><time>2026-04-19T08:32:41.335Z</time></trkpt><trkpt lat="42.7530956" lon="10.2486553"><ele>5.799999999999999</ele><time>2026-04-19T08:32:43.334Z</time></trkpt><trkpt lat="42.7530016" lon="10.2487055"><ele>6.3999999999999995</ele><time>2026-04-19T08:32:45.333Z</time></trkpt><trkpt lat="42.7528788" lon="10.2486524"><ele>7.0</ele><time>2026-04-19T08:32:47.331Z</time></trkpt><trkpt lat="42.752786" lon="10.248614"><ele>6.199999999999999</ele><time>2026-04-19T08:32:48.335Z</time></trkpt><trkpt lat="42.752689" lon="10.2485666"><ele>5.3999999999999995</ele><time>2026-04-19T08:32:49.34Z</time></trkpt><trkpt lat="42.7525995" lon="10.2485076"><ele>4.6</ele><time>2026-04-19T08:32:50.336Z</time></trkpt><trkpt lat="42.7525169" lon="10.2484508"><ele>3.8</ele><time>2026-04-19T08:32:51.339Z</time></trkpt><trkpt lat="42.7524377" lon="10.2483976"><ele>3.0</ele><time>2026-04-19T08:32:52.342Z</time></trkpt><trkpt lat="42.7523558" lon="10.2483654"><ele>3.0</ele><time>2026-04-19T08:32:53.342Z</time></trkpt><trkpt lat="42.7522761" lon="10.2483524"><ele>3.0</ele><time>2026-04-19T08:32:54.342Z</time></trkpt><trkpt lat="42.7522008" lon="10.2483607"><ele>3.0</ele><time>2026-04-19T08:32:55.337Z</time></trkpt><trkpt lat="42.7521316" lon="10.248386"><ele>3.0</ele><time>2026-04-19T08:32:56.346Z</time></trkpt><trkpt lat="42.752076" lon="10.2484439"><ele>3.0</ele><time>2026-04-19T08:32:57.339Z</time></trkpt><trkpt lat="42.7520371" lon="10.248526"><ele>3.0</ele><time>2026-04-19T08:32:58.343Z</time></trkpt><trkpt lat="42.7520155" lon="10.2486366"><ele>3.0</ele><time>2026-04-19T08:32:59.338Z</time></trkpt><trkpt lat="42.7519791" lon="10.2488655"><ele>3.0</ele><time>2026-04-19T08:33:01.338Z</time></trkpt><trkpt lat="42.7519648" lon="10.2489766"><ele>3.0</ele><time>2026-04-19T08:33:02.337Z</time></trkpt><trkpt lat="42.7519457" lon="10.2490734"><ele>3.0</ele><time>2026-04-19T08:33:03.338Z</time></trkpt><trkpt lat="42.7518894" lon="10.2491679"><ele>3.0</ele><time>2026-04-19T08:33:05.335Z</time></trkpt><trkpt lat="42.7517613" lon="10.2491053"><ele>3.5999999999999996</ele><time>2026-04-19T08:33:07.338Z</time></trkpt><trkpt lat="42.7516775" lon="10.249081"><ele>4.199999999999999</ele><time>2026-04-19T08:33:08.331Z</time></trkpt><trkpt lat="42.7515853" lon="10.2490646"><ele>4.8</ele><time>2026-04-19T08:33:09.332Z</time></trkpt><trkpt lat="42.7514931" lon="10.2490786"><ele>5.3999999999999995</ele><time>2026-04-19T08:33:10.333Z</time></trkpt><trkpt lat="42.7513957" lon="10.249138"><ele>6.0</ele><time>2026-04-19T08:33:11.332Z</time></trkpt><trkpt lat="42.7513021" lon="10.249223"><ele>6.0</ele><time>2026-04-19T08:33:12.337Z</time></trkpt><trkpt lat="42.751214" lon="10.2493113"><ele>6.0</ele><time>2026-04-19T08:33:13.343Z</time></trkpt><trkpt lat="42.7511273" lon="10.2493994"><ele>6.0</ele><time>2026-04-19T08:33:14.34Z</time></trkpt><trkpt lat="42.7510429" lon="10.2494862"><ele>6.0</ele><time>2026-04-19T08:33:15.337Z</time></trkpt><trkpt lat="42.7509553" lon="10.2495664"><ele>6.0</ele><time>2026-04-19T08:33:16.34Z</time></trkpt><trkpt lat="42.7508671" lon="10.249641"><ele>7.75</ele><time>2026-04-19T08:33:17.342Z</time></trkpt><trkpt lat="42.7507871" lon="10.2496948"><ele>9.5</ele><time>2026-04-19T08:33:18.336Z</time></trkpt><trkpt lat="42.7507258" lon="10.2497461"><ele>11.25</ele><time>2026-04-19T08:33:19.347Z</time></trkpt><trkpt lat="42.7507084" lon="10.2498641"><ele>13.0</ele><time>2026-04-19T08:33:21.335Z</time></trkpt><trkpt lat="42.7508109" lon="10.2501184"><ele>15.5</ele><time>2026-04-19T08:33:24.333Z</time></trkpt><trkpt lat="42.7508282" lon="10.2502206"><ele>18.0</ele><time>2026-04-19T08:33:25.326Z</time></trkpt><trkpt lat="42.7508352" lon="10.2503352"><ele>20.5</ele><time>2026-04-19T08:33:26.332Z</time></trkpt><trkpt lat="42.7508348" lon="10.2504627"><ele>23.0</ele><time>2026-04-19T08:33:27.333Z</time></trkpt><trkpt lat="42.7508431" lon="10.2506012"><ele>25.500000000000004</ele><time>2026-04-19T08:33:28.335Z</time></trkpt><trkpt lat="42.7508419" lon="10.2507266"><ele>28.0</ele><time>2026-04-19T08:33:29.339Z</time></trkpt><trkpt lat="42.7508233" lon="10.2508143"><ele>28.0</ele><time>2026-04-19T08:33:30.333Z</time></trkpt><trkpt lat="42.7507381" lon="10.2508146"><ele>28.0</ele><time>2026-04-19T08:33:32.335Z</time></trkpt><trkpt lat="42.7507011" lon="10.2507426"><ele>28.0</ele><time>2026-04-19T08:33:33.338Z</time></trkpt><trkpt lat="42.7506724" lon="10.2506358"><ele>28.0</ele><time>2026-04-19T08:33:34.336Z</time></trkpt><trkpt lat="42.750629" lon="10.2505494"><ele>28.0</ele><time>2026-04-19T08:33:35.339Z</time></trkpt><trkpt lat="42.750573" lon="10.2505018"><ele>28.0</ele><time>2026-04-19T08:33:36.343Z</time></trkpt><trkpt lat="42.7505077" lon="10.2505245"><ele>28.0</ele><time>2026-04-19T08:33:37.336Z</time></trkpt><trkpt lat="42.7504466" lon="10.2506141"><ele>30.0</ele><time>2026-04-19T08:33:38.338Z</time></trkpt><trkpt lat="42.7503929" lon="10.2507472"><ele>32.0</ele><time>2026-04-19T08:33:39.335Z</time></trkpt><trkpt lat="42.7503288" lon="10.2508867"><ele>34.0</ele><time>2026-04-19T08:33:40.336Z</time></trkpt><trkpt lat="42.750263" lon="10.2510323"><ele>36.0</ele><time>2026-04-19T08:33:41.335Z</time></trkpt><trkpt lat="42.7502147" lon="10.251161"><ele>36.0</ele><time>2026-04-19T08:33:42.34Z</time></trkpt><trkpt lat="42.7502368" lon="10.2513565"><ele>36.0</ele><time>2026-04-19T08:33:44.343Z</time></trkpt><trkpt lat="42.7502937" lon="10.2514529"><ele>36.0</ele><time>2026-04-19T08:33:45.334Z</time></trkpt><trkpt lat="42.7503422" lon="10.2515711"><ele>36.0</ele><time>2026-04-19T08:33:46.337Z</time></trkpt><trkpt lat="42.7503554" lon="10.2516743"><ele>36.0</ele><time>2026-04-19T08:33:47.342Z</time></trkpt><trkpt lat="42.7502823" lon="10.2517074"><ele>37.166666666666664</ele><time>2026-04-19T08:33:49.345Z</time></trkpt><trkpt lat="42.7502416" lon="10.2516366"><ele>38.333333333333336</ele><time>2026-04-19T08:33:50.33Z</time></trkpt><trkpt lat="42.7501913" lon="10.2515458"><ele>39.5</ele><time>2026-04-19T08:33:51.334Z</time></trkpt><trkpt lat="42.7501345" lon="10.2514913"><ele>40.66666666666667</ele><time>2026-04-19T08:33:52.342Z</time></trkpt><trkpt lat="42.7500469" lon="10.2515629"><ele>41.833333333333336</ele><time>2026-04-19T08:33:54.344Z</time></trkpt><trkpt lat="42.750051" lon="10.2516527"><ele>43.0</ele><time>2026-04-19T08:33:55.342Z</time></trkpt><trkpt lat="42.7500867" lon="10.2517668"><ele>47.75</ele><time>2026-04-19T08:33:56.337Z</time></trkpt><trkpt lat="42.7501309" lon="10.2518979"><ele>52.5</ele><time>2026-04-19T08:33:57.336Z</time></trkpt><trkpt lat="42.7501607" lon="10.2520422"><ele>57.25</ele><time>2026-04-19T08:33:58.338Z</time></trkpt><trkpt lat="42.7501802" lon="10.2522182"><ele>62.0</ele><time>2026-04-19T08:33:59.344Z</time></trkpt><trkpt lat="42.7501803" lon="10.2524133"><ele>64.75</ele><time>2026-04-19T08:34:00.336Z</time></trkpt><trkpt lat="42.7501555" lon="10.2525778"><ele>67.5</ele><time>2026-04-19T08:34:01.343Z</time></trkpt><trkpt lat="42.7501059" lon="10.2527024"><ele>70.25</ele><time>2026-04-19T08:34:02.341Z</time></trkpt><trkpt lat="42.7500328" lon="10.2527978"><ele>73.0</ele><time>2026-04-19T08:34:03.331Z</time></trkpt><trkpt lat="42.7498524" lon="10.2529633"><ele>73.0</ele><time>2026-04-19T08:34:05.328Z</time></trkpt><trkpt lat="42.749766" lon="10.2530744"><ele>73.0</ele><time>2026-04-19T08:34:06.325Z</time></trkpt><trkpt lat="42.7496827" lon="10.2532111"><ele>73.0</ele><time>2026-04-19T08:34:07.325Z</time></trkpt><trkpt lat="42.749607" lon="10.2533713"><ele>73.0</ele><time>2026-04-19T08:34:08.324Z</time></trkpt><trkpt lat="42.7495378" lon="10.2534999"><ele>72.33333333333333</ele><time>2026-04-19T08:34:09.325Z</time></trkpt><trkpt lat="42.7494705" lon="10.2535903"><ele>71.66666666666666</ele><time>2026-04-19T08:34:10.329Z</time></trkpt><trkpt lat="42.7493951" lon="10.2536561"><ele>71.0</ele><time>2026-04-19T08:34:11.329Z</time></trkpt><trkpt lat="42.7493264" lon="10.2536907"><ele>70.33333333333333</ele><time>2026-04-19T08:34:12.327Z</time></trkpt><trkpt lat="42.7492587" lon="10.2537245"><ele>69.66666666666667</ele><time>2026-04-19T08:34:13.331Z</time></trkpt><trkpt lat="42.7492033" lon="10.2537833"><ele>69.0</ele><time>2026-04-19T08:34:14.334Z</time></trkpt><trkpt lat="42.7491728" lon="10.2538698"><ele>75.2</ele><time>2026-04-19T08:34:15.338Z</time></trkpt><trkpt lat="42.7491593" lon="10.2539941"><ele>81.4</ele><time>2026-04-19T08:34:16.328Z</time></trkpt><trkpt lat="42.7491491" lon="10.2541306"><ele>87.6</ele><time>2026-04-19T08:34:17.327Z</time></trkpt><trkpt lat="42.7491433" lon="10.254266"><ele>93.8</ele><time>2026-04-19T08:34:18.329Z</time></trkpt><trkpt lat="42.7491397" lon="10.2543954"><ele>100.0</ele><time>2026-04-19T08:34:19.333Z</time></trkpt><trkpt lat="42.7491514" lon="10.2545215"><ele>100.0</ele><time>2026-04-19T08:34:20.331Z</time></trkpt><trkpt lat="42.7491732" lon="10.2546369"><ele>100.0</ele><time>2026-04-19T08:34:21.334Z</time></trkpt><trkpt lat="42.7491926" lon="10.2547437"><ele>100.0</ele><time>2026-04-19T08:34:22.329Z</time></trkpt><trkpt lat="42.7492023" lon="10.2548382"><ele>100.0</ele><time>2026-04-19T08:34:23.337Z</time></trkpt><trkpt lat="42.7492025" lon="10.2549656"><ele>100.0</ele><time>2026-04-19T08:34:25.331Z</time></trkpt><trkpt lat="42.7491862" lon="10.2551488"><ele>100.75</ele><time>2026-04-19T08:38:23.358Z</time></trkpt><trkpt lat="42.7489858" lon="10.255202"><ele>101.5</ele><time>2026-04-19T08:38:27.351Z</time></trkpt><trkpt lat="42.7488884" lon="10.2552484"><ele>102.25</ele><time>2026-04-19T08:38:29.352Z</time></trkpt><trkpt lat="42.7489444" lon="10.2552972"><ele>103.0</ele><time>2026-04-19T08:38:33.351Z</time></trkpt><trkpt lat="42.7490199" lon="10.2552276"><ele>103.0</ele><time>2026-04-19T08:38:35.348Z</time></trkpt><trkpt lat="42.7491043" lon="10.2551565"><ele>103.0</ele><time>2026-04-19T08:38:37.351Z</time></trkpt><trkpt lat="42.74916" lon="10.2551097"><ele>103.0</ele><time>2026-04-19T08:38:39.351Z</time></trkpt><trkpt lat="42.7492027" lon="10.2551906"><ele>103.0</ele><time>2026-04-19T08:38:44.348Z</time></trkpt><trkpt lat="42.7490989" lon="10.2553128"><ele>103.0</ele><time>2026-04-19T08:38:52.345Z</time></trkpt><trkpt lat="42.749033" lon="10.2554216"><ele>103.0</ele><time>2026-04-19T08:38:55.35Z</time></trkpt><trkpt lat="42.7490042" lon="10.2555094"><ele>103.0</ele><time>2026-04-19T08:38:57.348Z</time></trkpt><trkpt lat="42.7490164" lon="10.2556274"><ele>103.0</ele><time>2026-04-19T08:39:16.349Z</time></trkpt><trkpt lat="42.7491246" lon="10.2558041"><ele>103.0</ele><time>2026-04-19T08:39:20.345Z</time></trkpt><trkpt lat="42.7492065" lon="10.255878"><ele>103.0</ele><time>2026-04-19T08:39:22.339Z</time></trkpt><trkpt lat="42.7492406" lon="10.2560012"><ele>104.0</ele><time>2026-04-19T08:39:24.346Z</time></trkpt><trkpt lat="42.7492045" lon="10.256161"><ele>105.0</ele><time>2026-04-19T08:39:26.346Z</time></trkpt><trkpt lat="42.7491695" lon="10.2563015"><ele>106.00000000000001</ele><time>2026-04-19T08:39:28.346Z</time></trkpt><trkpt lat="42.7491721" lon="10.256439"><ele>107.0</ele><time>2026-04-19T08:39:30.347Z</time></trkpt><trkpt lat="42.749187" lon="10.2565629"><ele>108.0</ele><time>2026-04-19T08:39:32.348Z</time></trkpt><trkpt lat="42.7491991" lon="10.2566544"><ele>108.4</ele><time>2026-04-19T08:39:34.352Z</time></trkpt><trkpt lat="42.7492208" lon="10.2567582"><ele>108.80000000000001</ele><time>2026-04-19T08:39:36.35Z</time></trkpt><trkpt lat="42.7492472" lon="10.2568503"><ele>109.2</ele><time>2026-04-19T08:39:38.347Z</time></trkpt><trkpt lat="42.7492791" lon="10.2570794"><ele>109.6</ele><time>2026-04-19T08:39:42.342Z</time></trkpt><trkpt lat="42.7492456" lon="10.257159"><ele>110.0</ele><time>2026-04-19T08:39:44.342Z</time></trkpt><trkpt lat="42.7492717" lon="10.2572923"><ele>111.16666666666666</ele><time>2026-04-19T08:39:47.34Z</time></trkpt><trkpt lat="42.7493114" lon="10.2574164"><ele>112.33333333333333</ele><time>2026-04-19T08:39:49.348Z</time></trkpt><trkpt lat="42.7493199" lon="10.2575184"><ele>113.5</ele><time>2026-04-19T08:39:51.342Z</time></trkpt><trkpt lat="42.7493214" lon="10.2576219"><ele>114.66666666666666</ele><time>2026-04-19T08:39:53.343Z</time></trkpt><trkpt lat="42.7493216" lon="10.2577262"><ele>115.83333333333333</ele><time>2026-04-19T08:39:55.347Z</time></trkpt><trkpt lat="42.74931" lon="10.2578179"><ele>117.0</ele><time>2026-04-19T08:39:57.339Z</time></trkpt><trkpt lat="42.7492607" lon="10.2578896"><ele>117.0</ele><time>2026-04-19T08:40:00.335Z</time></trkpt><trkpt lat="42.7493176" lon="10.2575971"><ele>117.0</ele><time>2026-04-19T08:44:07.345Z</time></trkpt><trkpt lat="42.7493205" lon="10.2574867"><ele>117.0</ele><time>2026-04-19T08:44:09.345Z</time></trkpt><trkpt lat="42.7493202" lon="10.2573656"><ele>117.0</ele><time>2026-04-19T08:44:12.348Z</time></trkpt><trkpt lat="42.7492915" lon="10.2572528"><ele>115.83333333333333</ele><time>2026-04-19T08:44:15.345Z</time></trkpt><trkpt lat="42.7492717" lon="10.2571673"><ele>114.66666666666666</ele><time>2026-04-19T08:44:17.345Z</time></trkpt><trkpt lat="42.7492757" lon="10.2570733"><ele>113.5</ele><time>2026-04-19T08:44:20.342Z</time></trkpt><trkpt lat="42.749299" lon="10.2569612"><ele>112.33333333333333</ele><time>2026-04-19T08:44:23.347Z</time></trkpt><trkpt lat="42.7492883" lon="10.2568673"><ele>111.16666666666666</ele><time>2026-04-19T08:44:25.345Z</time></trkpt><trkpt lat="42.7492263" lon="10.2566757"><ele>110.0</ele><time>2026-04-19T08:44:30.344Z</time></trkpt><trkpt lat="42.7492042" lon="10.2565654"><ele>109.66666666666666</ele><time>2026-04-19T08:44:33.352Z</time></trkpt><trkpt lat="42.7491928" lon="10.2564528"><ele>109.33333333333333</ele><time>2026-04-19T08:44:36.344Z</time></trkpt><trkpt lat="42.7491896" lon="10.2563419"><ele>109.0</ele><time>2026-04-19T08:44:38.344Z</time></trkpt><trkpt lat="42.7491915" lon="10.25622"><ele>108.66666666666666</ele><time>2026-04-19T08:44:40.347Z</time></trkpt><trkpt lat="42.7492004" lon="10.2561221"><ele>108.33333333333333</ele><time>2026-04-19T08:44:42.337Z</time></trkpt><trkpt lat="42.7492229" lon="10.2559881"><ele>108.0</ele><time>2026-04-19T08:44:44.344Z</time></trkpt><trkpt lat="42.7492158" lon="10.2558615"><ele>108.0</ele><time>2026-04-19T08:44:46.341Z</time></trkpt><trkpt lat="42.7490873" lon="10.2557172"><ele>108.00000000000001</ele><time>2026-04-19T08:44:50.346Z</time></trkpt><trkpt lat="42.7490275" lon="10.25564"><ele>108.00000000000001</ele><time>2026-04-19T08:44:52.345Z</time></trkpt><trkpt lat="42.7490082" lon="10.2555534"><ele>108.0</ele><time>2026-04-19T08:44:54.348Z</time></trkpt><trkpt lat="42.7490248" lon="10.2554443"><ele>108.0</ele><time>2026-04-19T08:44:57.346Z</time></trkpt><trkpt lat="42.7490713" lon="10.2553645"><ele>107.0</ele><time>2026-04-19T08:45:00.345Z</time></trkpt><trkpt lat="42.749129" lon="10.2553113"><ele>106.00000000000001</ele><time>2026-04-19T08:45:03.344Z</time></trkpt><trkpt lat="42.7491986" lon="10.255276"><ele>105.0</ele><time>2026-04-19T08:45:06.341Z</time></trkpt><trkpt lat="42.7492163" lon="10.255181"><ele>104.0</ele><time>2026-04-19T08:45:09.343Z</time></trkpt><trkpt lat="42.7490762" lon="10.2551576"><ele>103.0</ele><time>2026-04-19T08:45:15.34Z</time></trkpt><trkpt lat="42.7489802" lon="10.2552101"><ele>103.0</ele><time>2026-04-19T08:45:17.345Z</time></trkpt><trkpt lat="42.7489003" lon="10.2552469"><ele>103.0</ele><time>2026-04-19T08:45:19.343Z</time></trkpt><trkpt lat="42.7488937" lon="10.2553829"><ele>103.0</ele><time>2026-04-19T08:45:45.345Z</time></trkpt><trkpt lat="42.7489009" lon="10.2556991"><ele>103.0</ele><time>2026-04-19T08:45:48.347Z</time></trkpt><trkpt lat="42.7488993" lon="10.2558524"><ele>104.25</ele><time>2026-04-19T08:45:49.342Z</time></trkpt><trkpt lat="42.7488937" lon="10.2560172"><ele>105.5</ele><time>2026-04-19T08:45:50.339Z</time></trkpt><trkpt lat="42.7488841" lon="10.2561831"><ele>106.75</ele><time>2026-04-19T08:45:51.333Z</time></trkpt><trkpt lat="42.7488743" lon="10.2563364"><ele>108.0</ele><time>2026-04-19T08:45:52.327Z</time></trkpt><trkpt lat="42.7488749" lon="10.256485"><ele>108.5</ele><time>2026-04-19T08:45:53.331Z</time></trkpt><trkpt lat="42.7488869" lon="10.2566413"><ele>109.0</ele><time>2026-04-19T08:45:54.329Z</time></trkpt><trkpt lat="42.7489104" lon="10.2568044"><ele>109.5</ele><time>2026-04-19T08:45:55.337Z</time></trkpt><trkpt lat="42.7489281" lon="10.256955"><ele>110.0</ele><time>2026-04-19T08:45:56.337Z</time></trkpt><trkpt lat="42.7489424" lon="10.2570937"><ele>109.99999999999999</ele><time>2026-04-19T08:45:57.335Z</time></trkpt><trkpt lat="42.748939" lon="10.2572284"><ele>110.0</ele><time>2026-04-19T08:45:58.334Z</time></trkpt><trkpt lat="42.7489182" lon="10.2573545"><ele>110.0</ele><time>2026-04-19T08:45:59.339Z</time></trkpt><trkpt lat="42.7488826" lon="10.2574668"><ele>110.0</ele><time>2026-04-19T08:46:00.339Z</time></trkpt><trkpt lat="42.7488304" lon="10.2575542"><ele>109.99999999999999</ele><time>2026-04-19T08:46:01.346Z</time></trkpt><trkpt lat="42.7487582" lon="10.2576062"><ele>110.0</ele><time>2026-04-19T08:46:02.337Z</time></trkpt><trkpt lat="42.7486694" lon="10.2576216"><ele>111.75</ele><time>2026-04-19T08:46:03.332Z</time></trkpt><trkpt lat="42.7485705" lon="10.2576198"><ele>113.5</ele><time>2026-04-19T08:46:04.342Z</time></trkpt><trkpt lat="42.7484763" lon="10.257623"><ele>115.25</ele><time>2026-04-19T08:46:05.341Z</time></trkpt><trkpt lat="42.748387" lon="10.2576279"><ele>117.0</ele><time>2026-04-19T08:46:06.345Z</time></trkpt><trkpt lat="42.7482191" lon="10.257599"><ele>114.0</ele><time>2026-04-19T08:46:08.344Z</time></trkpt><trkpt lat="42.7481434" lon="10.2575902"><ele>111.0</ele><time>2026-04-19T08:46:09.341Z</time></trkpt><trkpt lat="42.7480701" lon="10.2576056"><ele>108.0</ele><time>2026-04-19T08:46:10.341Z</time></trkpt><trkpt lat="42.7479917" lon="10.257654"><ele>105.0</ele><time>2026-04-19T08:46:11.34Z</time></trkpt><trkpt lat="42.7479172" lon="10.2577185"><ele>102.0</ele><time>2026-04-19T08:46:12.342Z</time></trkpt><trkpt lat="42.7478367" lon="10.2577853"><ele>99.0</ele><time>2026-04-19T08:46:13.344Z</time></trkpt><trkpt lat="42.7477606" lon="10.2578543"><ele>99.4</ele><time>2026-04-19T08:46:14.347Z</time></trkpt><trkpt lat="42.7476861" lon="10.2579231"><ele>99.80000000000001</ele><time>2026-04-19T08:46:15.345Z</time></trkpt><trkpt lat="42.7476102" lon="10.2579815"><ele>100.19999999999999</ele><time>2026-04-19T08:46:16.344Z</time></trkpt><trkpt lat="42.7475329" lon="10.2580332"><ele>100.6</ele><time>2026-04-19T08:46:17.341Z</time></trkpt><trkpt lat="42.7474656" lon="10.2580576"><ele>101.0</ele><time>2026-04-19T08:46:18.344Z</time></trkpt><trkpt lat="42.7473587" lon="10.2581503"><ele>101.0</ele><time>2026-04-19T08:46:20.342Z</time></trkpt><trkpt lat="42.7473267" lon="10.2582292"><ele>101.0</ele><time>2026-04-19T08:46:21.345Z</time></trkpt><trkpt lat="42.7473196" lon="10.2583348"><ele>101.0</ele><time>2026-04-19T08:46:22.337Z</time></trkpt><trkpt lat="42.7473306" lon="10.258463"><ele>101.0</ele><time>2026-04-19T08:46:23.343Z</time></trkpt><trkpt lat="42.7473533" lon="10.2586161"><ele>101.0</ele><time>2026-04-19T08:46:24.343Z</time></trkpt><trkpt lat="42.747375" lon="10.2587714"><ele>101.0</ele><time>2026-04-19T08:46:25.337Z</time></trkpt><trkpt lat="42.7473841" lon="10.2589153"><ele>101.0</ele><time>2026-04-19T08:46:26.339Z</time></trkpt><trkpt lat="42.7473732" lon="10.259041"><ele>101.0</ele><time>2026-04-19T08:46:27.332Z</time></trkpt><trkpt lat="42.7472968" lon="10.2592642"><ele>101.0</ele><time>2026-04-19T08:46:29.337Z</time></trkpt><trkpt lat="42.7472547" lon="10.2593792"><ele>101.0</ele><time>2026-04-19T08:46:30.337Z</time></trkpt><trkpt lat="42.7472215" lon="10.2595053"><ele>101.0</ele><time>2026-04-19T08:46:31.343Z</time></trkpt><trkpt lat="42.7471983" lon="10.2596286"><ele>101.0</ele><time>2026-04-19T08:46:32.336Z</time></trkpt><trkpt lat="42.747178" lon="10.2597495"><ele>101.0</ele><time>2026-04-19T08:46:33.335Z</time></trkpt><trkpt lat="42.7471611" lon="10.2598625"><ele>101.0</ele><time>2026-04-19T08:46:34.335Z</time></trkpt><trkpt lat="42.7471479" lon="10.259977"><ele>101.0</ele><time>2026-04-19T08:46:35.333Z</time></trkpt><trkpt lat="42.7471305" lon="10.2600829"><ele>101.0</ele><time>2026-04-19T08:46:36.334Z</time></trkpt><trkpt lat="42.7470998" lon="10.2601759"><ele>101.0</ele><time>2026-04-19T08:46:37.341Z</time></trkpt><trkpt lat="42.7470372" lon="10.2603096"><ele>101.0</ele><time>2026-04-19T08:46:39.336Z</time></trkpt><trkpt lat="42.7469682" lon="10.2604095"><ele>101.0</ele><time>2026-04-19T08:46:41.337Z</time></trkpt><trkpt lat="42.7468717" lon="10.2604852"><ele>97.75</ele><time>2026-04-19T08:46:43.334Z</time></trkpt><trkpt lat="42.746771" lon="10.2605527"><ele>94.5</ele><time>2026-04-19T08:46:45.334Z</time></trkpt><trkpt lat="42.7466663" lon="10.2606196"><ele>91.25</ele><time>2026-04-19T08:46:47.335Z</time></trkpt><trkpt lat="42.7466075" lon="10.2606546"><ele>88.0</ele><time>2026-04-19T08:46:48.335Z</time></trkpt><trkpt lat="42.7464349" lon="10.2607213"><ele>86.4</ele><time>2026-04-19T08:46:51.33Z</time></trkpt><trkpt lat="42.7463678" lon="10.2607924"><ele>84.80000000000001</ele><time>2026-04-19T08:46:53.325Z</time></trkpt><trkpt lat="42.7464076" lon="10.2608744"><ele>83.2</ele><time>2026-04-19T08:47:51.328Z</time></trkpt><trkpt lat="42.7465917" lon="10.2608702"><ele>81.6</ele><time>2026-04-19T08:47:54.326Z</time></trkpt><trkpt lat="42.7466781" lon="10.2608651"><ele>80.0</ele><time>2026-04-19T08:47:55.334Z</time></trkpt><trkpt lat="42.7467658" lon="10.260861"><ele>80.0</ele><time>2026-04-19T08:47:56.333Z</time></trkpt><trkpt lat="42.7468492" lon="10.2608607"><ele>80.0</ele><time>2026-04-19T08:47:57.329Z</time></trkpt><trkpt lat="42.7469321" lon="10.2608629"><ele>80.0</ele><time>2026-04-19T08:47:58.333Z</time></trkpt><trkpt lat="42.7470226" lon="10.2608718"><ele>80.0</ele><time>2026-04-19T08:47:59.329Z</time></trkpt><trkpt lat="42.7471206" lon="10.2608892"><ele>80.0</ele><time>2026-04-19T08:48:00.327Z</time></trkpt><trkpt lat="42.7472115" lon="10.2609203"><ele>80.5</ele><time>2026-04-19T08:48:01.332Z</time></trkpt><trkpt lat="42.7472981" lon="10.2609486"><ele>81.0</ele><time>2026-04-19T08:48:02.326Z</time></trkpt><trkpt lat="42.7473795" lon="10.2609598"><ele>81.5</ele><time>2026-04-19T08:48:03.327Z</time></trkpt><trkpt lat="42.7474569" lon="10.260956"><ele>82.0</ele><time>2026-04-19T08:48:04.325Z</time></trkpt><trkpt lat="42.7475286" lon="10.2609428"><ele>82.5</ele><time>2026-04-19T08:48:05.322Z</time></trkpt><trkpt lat="42.7475976" lon="10.2609417"><ele>83.0</ele><time>2026-04-19T08:48:06.318Z</time></trkpt><trkpt lat="42.7476619" lon="10.2609694"><ele>85.80000000000001</ele><time>2026-04-19T08:48:07.319Z</time></trkpt><trkpt lat="42.747717" lon="10.2610214"><ele>88.6</ele><time>2026-04-19T08:48:08.322Z</time></trkpt><trkpt lat="42.7477665" lon="10.2610764"><ele>91.4</ele><time>2026-04-19T08:48:09.32Z</time></trkpt><trkpt lat="42.7478681" lon="10.2611538"><ele>94.19999999999999</ele><time>2026-04-19T08:48:11.323Z</time></trkpt><trkpt lat="42.7479499" lon="10.2612231"><ele>97.0</ele><time>2026-04-19T08:48:13.322Z</time></trkpt><trkpt lat="42.7479599" lon="10.2614586"><ele>97.0</ele><time>2026-04-19T08:48:17.327Z</time></trkpt><trkpt lat="42.7478971" lon="10.2615787"><ele>97.0</ele><time>2026-04-19T08:48:19.333Z</time></trkpt><trkpt lat="42.7478274" lon="10.2617081"><ele>97.0</ele><time>2026-04-19T08:48:21.33Z</time></trkpt><trkpt lat="42.7477464" lon="10.2618409"><ele>97.0</ele><time>2026-04-19T08:48:23.329Z</time></trkpt><trkpt lat="42.7477019" lon="10.2619216"><ele>97.0</ele><time>2026-04-19T08:48:24.326Z</time></trkpt><trkpt lat="42.7476572" lon="10.2620189"><ele>93.16666666666667</ele><time>2026-04-19T08:48:25.329Z</time></trkpt><trkpt lat="42.7476147" lon="10.2621181"><ele>89.33333333333334</ele><time>2026-04-19T08:48:26.333Z</time></trkpt><trkpt lat="42.7475783" lon="10.2622189"><ele>85.5</ele><time>2026-04-19T08:48:27.332Z</time></trkpt><trkpt lat="42.7475461" lon="10.2623172"><ele>81.66666666666667</ele><time>2026-04-19T08:48:28.334Z</time></trkpt><trkpt lat="42.7475228" lon="10.2624142"><ele>77.83333333333334</ele><time>2026-04-19T08:48:29.335Z</time></trkpt><trkpt lat="42.747511" lon="10.2625075"><ele>74.0</ele><time>2026-04-19T08:48:30.338Z</time></trkpt><trkpt lat="42.7475037" lon="10.2625981"><ele>74.0</ele><time>2026-04-19T08:48:31.338Z</time></trkpt><trkpt lat="42.7475035" lon="10.2626939"><ele>74.0</ele><time>2026-04-19T08:48:32.335Z</time></trkpt><trkpt lat="42.747517" lon="10.2627901"><ele>74.0</ele><time>2026-04-19T08:48:33.335Z</time></trkpt><trkpt lat="42.7475483" lon="10.2628862"><ele>74.0</ele><time>2026-04-19T08:48:34.333Z</time></trkpt><trkpt lat="42.7476554" lon="10.2630596"><ele>74.0</ele><time>2026-04-19T08:48:36.341Z</time></trkpt><trkpt lat="42.747731" lon="10.2631225"><ele>78.16666666666667</ele><time>2026-04-19T08:48:37.335Z</time></trkpt><trkpt lat="42.7478145" lon="10.2631638"><ele>82.33333333333334</ele><time>2026-04-19T08:48:38.32Z</time></trkpt><trkpt lat="42.7479055" lon="10.2631938"><ele>86.5</ele><time>2026-04-19T08:48:39.335Z</time></trkpt><trkpt lat="42.7479909" lon="10.2632282"><ele>90.66666666666667</ele><time>2026-04-19T08:48:40.325Z</time></trkpt><trkpt lat="42.7480745" lon="10.2632695"><ele>94.83333333333333</ele><time>2026-04-19T08:48:41.33Z</time></trkpt><trkpt lat="42.7481482" lon="10.263319"><ele>99.0</ele><time>2026-04-19T08:48:42.323Z</time></trkpt><trkpt lat="42.7482078" lon="10.2633744"><ele>99.0</ele><time>2026-04-19T08:48:43.326Z</time></trkpt><trkpt lat="42.748269" lon="10.2635098"><ele>99.0</ele><time>2026-04-19T08:48:45.329Z</time></trkpt><trkpt lat="42.748258" lon="10.263604"><ele>99.0</ele><time>2026-04-19T08:48:46.325Z</time></trkpt><trkpt lat="42.7482258" lon="10.2637027"><ele>99.0</ele><time>2026-04-19T08:48:47.327Z</time></trkpt><trkpt lat="42.7481804" lon="10.2638038"><ele>99.0</ele><time>2026-04-19T08:48:48.326Z</time></trkpt><trkpt lat="42.7481329" lon="10.2639116"><ele>99.0</ele><time>2026-04-19T08:48:49.331Z</time></trkpt><trkpt lat="42.7480982" lon="10.2640247"><ele>97.80000000000001</ele><time>2026-04-19T08:48:50.328Z</time></trkpt><trkpt lat="42.7480814" lon="10.2641241"><ele>96.60000000000001</ele><time>2026-04-19T08:48:51.33Z</time></trkpt><trkpt lat="42.748076" lon="10.264232"><ele>95.4</ele><time>2026-04-19T08:48:53.332Z</time></trkpt><trkpt lat="42.7480953" lon="10.2643626"><ele>94.2</ele><time>2026-04-19T08:49:19.333Z</time></trkpt><trkpt lat="42.748134" lon="10.2645436"><ele>93.0</ele><time>2026-04-19T08:49:21.325Z</time></trkpt><trkpt lat="42.7481692" lon="10.2646247"><ele>93.0</ele><time>2026-04-19T08:49:22.326Z</time></trkpt><trkpt lat="42.7482499" lon="10.2647468"><ele>93.0</ele><time>2026-04-19T08:49:24.327Z</time></trkpt><trkpt lat="42.748293" lon="10.2648129"><ele>93.0</ele><time>2026-04-19T08:49:25.332Z</time></trkpt><trkpt lat="42.7483593" lon="10.2649071"><ele>93.0</ele><time>2026-04-19T08:49:27.325Z</time></trkpt><trkpt lat="42.7484098" lon="10.2649689"><ele>93.0</ele><time>2026-04-19T08:49:29.332Z</time></trkpt><trkpt lat="42.7484612" lon="10.2650415"><ele>93.0</ele><time>2026-04-19T08:49:31.33Z</time></trkpt><trkpt lat="42.7485415" lon="10.2651139"><ele>97.60000000000001</ele><time>2026-04-19T08:49:33.325Z</time></trkpt><trkpt lat="42.7486326" lon="10.2651365"><ele>102.2</ele><time>2026-04-19T08:49:35.331Z</time></trkpt><trkpt lat="42.7487167" lon="10.2651653"><ele>106.8</ele><time>2026-04-19T08:49:37.325Z</time></trkpt><trkpt lat="42.7487872" lon="10.2652714"><ele>111.4</ele><time>2026-04-19T08:49:39.325Z</time></trkpt><trkpt lat="42.7488445" lon="10.2653471"><ele>116.0</ele><time>2026-04-19T08:49:40.327Z</time></trkpt><trkpt lat="42.7489407" lon="10.2654866"><ele>116.0</ele><time>2026-04-19T08:49:42.323Z</time></trkpt><trkpt lat="42.7489765" lon="10.265559"><ele>116.0</ele><time>2026-04-19T08:49:43.328Z</time></trkpt><trkpt lat="42.749043" lon="10.2656914"><ele>116.0</ele><time>2026-04-19T08:49:45.325Z</time></trkpt><trkpt lat="42.749124" lon="10.2657792"><ele>116.0</ele><time>2026-04-19T08:49:47.326Z</time></trkpt><trkpt lat="42.7492186" lon="10.2658074"><ele>116.0</ele><time>2026-04-19T08:49:49.329Z</time></trkpt><trkpt lat="42.7493011" lon="10.2657792"><ele>113.33333333333333</ele><time>2026-04-19T08:49:51.326Z</time></trkpt><trkpt lat="42.7493848" lon="10.2657366"><ele>110.66666666666666</ele><time>2026-04-19T08:49:53.325Z</time></trkpt><trkpt lat="42.7494411" lon="10.2657969"><ele>108.0</ele><time>2026-04-19T08:49:56.324Z</time></trkpt><trkpt lat="42.7494165" lon="10.2659288"><ele>105.33333333333334</ele><time>2026-04-19T08:49:58.321Z</time></trkpt><trkpt lat="42.7493852" lon="10.2660207"><ele>102.66666666666667</ele><time>2026-04-19T08:49:59.323Z</time></trkpt><trkpt lat="42.749358" lon="10.26613"><ele>100.0</ele><time>2026-04-19T08:50:00.328Z</time></trkpt><trkpt lat="42.7493333" lon="10.2662432"><ele>99.0</ele><time>2026-04-19T08:50:01.33Z</time></trkpt><trkpt lat="42.7493214" lon="10.2664635"><ele>98.0</ele><time>2026-04-19T08:50:03.327Z</time></trkpt><trkpt lat="42.7493295" lon="10.2665536"><ele>97.0</ele><time>2026-04-19T08:50:04.328Z</time></trkpt><trkpt lat="42.7493431" lon="10.2666479"><ele>96.0</ele><time>2026-04-19T08:50:05.325Z</time></trkpt><trkpt lat="42.7493581" lon="10.2667316"><ele>95.0</ele><time>2026-04-19T08:50:06.324Z</time></trkpt><trkpt lat="42.7493793" lon="10.2668777"><ele>101.6</ele><time>2026-04-19T08:50:08.323Z</time></trkpt><trkpt lat="42.7493926" lon="10.2669987"><ele>108.2</ele><time>2026-04-19T08:50:10.325Z</time></trkpt><trkpt lat="42.7494127" lon="10.2670948"><ele>114.80000000000001</ele><time>2026-04-19T08:50:12.33Z</time></trkpt><trkpt lat="42.7494735" lon="10.2672247"><ele>121.4</ele><time>2026-04-19T08:50:14.334Z</time></trkpt><trkpt lat="42.7495741" lon="10.2673326"><ele>128.0</ele><time>2026-04-19T08:50:16.326Z</time></trkpt><trkpt lat="42.749688" lon="10.2673804"><ele>128.0</ele><time>2026-04-19T08:50:18.325Z</time></trkpt><trkpt lat="42.7497847" lon="10.2674418"><ele>128.0</ele><time>2026-04-19T08:50:20.325Z</time></trkpt><trkpt lat="42.7498462" lon="10.2675394"><ele>128.0</ele><time>2026-04-19T08:50:22.324Z</time></trkpt><trkpt lat="42.7500045" lon="10.2677204"><ele>128.0</ele><time>2026-04-19T08:50:26.325Z</time></trkpt><trkpt lat="42.7500799" lon="10.2677744"><ele>127.99999999999999</ele><time>2026-04-19T08:50:28.321Z</time></trkpt><trkpt lat="42.7501345" lon="10.267851"><ele>128.0</ele><time>2026-04-19T08:50:30.326Z</time></trkpt><trkpt lat="42.7501918" lon="10.2679115"><ele>128.0</ele><time>2026-04-19T08:50:32.325Z</time></trkpt><trkpt lat="42.7502727" lon="10.2679562"><ele>128.0</ele><time>2026-04-19T08:50:34.322Z</time></trkpt><trkpt lat="42.7503335" lon="10.2680267"><ele>127.99999999999999</ele><time>2026-04-19T08:50:36.328Z</time></trkpt><trkpt lat="42.7503727" lon="10.2681069"><ele>128.0</ele><time>2026-04-19T08:50:38.326Z</time></trkpt><trkpt lat="42.7504014" lon="10.2682146"><ele>133.4</ele><time>2026-04-19T08:50:40.318Z</time></trkpt><trkpt lat="42.7504653" lon="10.2683343"><ele>138.8</ele><time>2026-04-19T08:50:42.318Z</time></trkpt><trkpt lat="42.7505252" lon="10.2684722"><ele>144.2</ele><time>2026-04-19T08:50:44.317Z</time></trkpt><trkpt lat="42.7505738" lon="10.2686381"><ele>149.6</ele><time>2026-04-19T08:50:46.319Z</time></trkpt><trkpt lat="42.7506121" lon="10.2687173"><ele>155.0</ele><time>2026-04-19T08:50:47.323Z</time></trkpt><trkpt lat="42.7507007" lon="10.2688246"><ele>155.0</ele><time>2026-04-19T08:50:49.329Z</time></trkpt><trkpt lat="42.7507757" lon="10.2689162"><ele>155.0</ele><time>2026-04-19T08:50:51.324Z</time></trkpt><trkpt lat="42.7508344" lon="10.2690238"><ele>155.0</ele><time>2026-04-19T08:50:53.328Z</time></trkpt><trkpt lat="42.7509019" lon="10.269138"><ele>155.0</ele><time>2026-04-19T08:50:55.321Z</time></trkpt><trkpt lat="42.75098" lon="10.269224"><ele>155.0</ele><time>2026-04-19T08:50:57.323Z</time></trkpt><trkpt lat="42.7510442" lon="10.2693138"><ele>152.4</ele><time>2026-04-19T08:50:59.323Z</time></trkpt><trkpt lat="42.7510623" lon="10.2694166"><ele>149.8</ele><time>2026-04-19T08:51:01.319Z</time></trkpt><trkpt lat="42.7511253" lon="10.2694233"><ele>147.2</ele><time>2026-04-19T08:51:05.319Z</time></trkpt><trkpt lat="42.7511223" lon="10.2691708"><ele>144.6</ele><time>2026-04-19T08:51:08.32Z</time></trkpt><trkpt lat="42.7510826" lon="10.269067"><ele>142.0</ele><time>2026-04-19T08:51:09.322Z</time></trkpt><trkpt lat="42.7510304" lon="10.2689511"><ele>144.16666666666669</ele><time>2026-04-19T08:51:10.323Z</time></trkpt><trkpt lat="42.7509783" lon="10.2688411"><ele>146.33333333333334</ele><time>2026-04-19T08:51:11.325Z</time></trkpt><trkpt lat="42.7509354" lon="10.2687266"><ele>148.5</ele><time>2026-04-19T08:51:12.32Z</time></trkpt><trkpt lat="42.7509093" lon="10.2686255"><ele>150.66666666666666</ele><time>2026-04-19T08:51:13.322Z</time></trkpt><trkpt lat="42.7508912" lon="10.2685341"><ele>152.83333333333331</ele><time>2026-04-19T08:51:14.322Z</time></trkpt><trkpt lat="42.7508837" lon="10.268446"><ele>155.0</ele><time>2026-04-19T08:51:15.322Z</time></trkpt><trkpt lat="42.7508825" lon="10.2683594"><ele>155.0</ele><time>2026-04-19T08:51:16.329Z</time></trkpt><trkpt lat="42.7508803" lon="10.2682204"><ele>155.0</ele><time>2026-04-19T08:51:18.318Z</time></trkpt><trkpt lat="42.750873" lon="10.2681295"><ele>155.0</ele><time>2026-04-19T08:51:20.321Z</time></trkpt><trkpt lat="42.7509575" lon="10.2681486"><ele>155.0</ele><time>2026-04-19T08:51:23.324Z</time></trkpt><trkpt lat="42.751011" lon="10.2682259"><ele>155.0</ele><time>2026-04-19T08:51:25.322Z</time></trkpt><trkpt lat="42.7510334" lon="10.2683267"><ele>155.0</ele><time>2026-04-19T08:51:27.322Z</time></trkpt><trkpt lat="42.7511029" lon="10.268508"><ele>163.8</ele><time>2026-04-19T08:51:31.325Z</time></trkpt><trkpt lat="42.7511583" lon="10.2686134"><ele>172.6</ele><time>2026-04-19T08:51:33.323Z</time></trkpt><trkpt lat="42.7512199" lon="10.2687053"><ele>181.39999999999998</ele><time>2026-04-19T08:51:35.318Z</time></trkpt><trkpt lat="42.7512948" lon="10.2687848"><ele>190.2</ele><time>2026-04-19T08:51:37.326Z</time></trkpt><trkpt lat="42.7513766" lon="10.268839"><ele>199.0</ele><time>2026-04-19T08:51:39.321Z</time></trkpt><trkpt lat="42.7514555" lon="10.2688776"><ele>194.75</ele><time>2026-04-19T08:53:42.321Z</time></trkpt><trkpt lat="42.7516561" lon="10.26896"><ele>190.5</ele><time>2026-04-19T08:53:45.322Z</time></trkpt><trkpt lat="42.7516929" lon="10.2690564"><ele>186.25</ele><time>2026-04-19T08:53:48.321Z</time></trkpt><trkpt lat="42.7516929" lon="10.2692297"><ele>182.0</ele><time>2026-04-19T08:53:50.33Z</time></trkpt><trkpt lat="42.7517103" lon="10.2693342"><ele>182.0</ele><time>2026-04-19T08:53:51.323Z</time></trkpt><trkpt lat="42.7517215" lon="10.2694209"><ele>182.0</ele><time>2026-04-19T08:53:52.328Z</time></trkpt><trkpt lat="42.7517417" lon="10.2695423"><ele>182.0</ele><time>2026-04-19T08:53:54.33Z</time></trkpt><trkpt lat="42.751787" lon="10.2696649"><ele>182.0</ele><time>2026-04-19T08:53:56.328Z</time></trkpt><trkpt lat="42.7518489" lon="10.269794"><ele>182.0</ele><time>2026-04-19T08:53:58.325Z</time></trkpt><trkpt lat="42.7518706" lon="10.2699142"><ele>182.75</ele><time>2026-04-19T08:54:00.323Z</time></trkpt><trkpt lat="42.7518191" lon="10.270007"><ele>183.5</ele><time>2026-04-19T08:54:02.322Z</time></trkpt><trkpt lat="42.7517178" lon="10.270055"><ele>184.25</ele><time>2026-04-19T08:54:04.323Z</time></trkpt><trkpt lat="42.7515857" lon="10.2702284"><ele>185.0</ele><time>2026-04-19T08:54:08.332Z</time></trkpt><trkpt lat="42.7515768" lon="10.2703546"><ele>185.0</ele><time>2026-04-19T08:54:10.33Z</time></trkpt><trkpt lat="42.7515526" lon="10.2704896"><ele>185.0</ele><time>2026-04-19T08:54:12.333Z</time></trkpt><trkpt lat="42.7514921" lon="10.2705444"><ele>185.0</ele><time>2026-04-19T08:54:14.336Z</time></trkpt><trkpt lat="42.7514329" lon="10.2706171"><ele>185.0</ele><time>2026-04-19T08:54:16.335Z</time></trkpt><trkpt lat="42.7513508" lon="10.2706924"><ele>185.0</ele><time>2026-04-19T08:54:18.334Z</time></trkpt><trkpt lat="42.7512738" lon="10.2707734"><ele>189.75</ele><time>2026-04-19T08:54:20.331Z</time></trkpt><trkpt lat="42.7512096" lon="10.2708817"><ele>194.5</ele><time>2026-04-19T08:54:22.332Z</time></trkpt><trkpt lat="42.7511457" lon="10.2709755"><ele>199.25</ele><time>2026-04-19T08:54:24.327Z</time></trkpt><trkpt lat="42.7511622" lon="10.2710793"><ele>204.0</ele><time>2026-04-19T08:54:27.331Z</time></trkpt><trkpt lat="42.7513359" lon="10.271003"><ele>204.0</ele><time>2026-04-19T08:54:31.336Z</time></trkpt><trkpt lat="42.7514261" lon="10.2709284"><ele>204.0</ele><time>2026-04-19T08:54:33.333Z</time></trkpt><trkpt lat="42.751506" lon="10.2709089"><ele>204.0</ele><time>2026-04-19T08:54:35.326Z</time></trkpt><trkpt lat="42.7515996" lon="10.2709222"><ele>204.0</ele><time>2026-04-19T08:54:37.337Z</time></trkpt><trkpt lat="42.7517098" lon="10.2709303"><ele>204.0</ele><time>2026-04-19T08:54:39.334Z</time></trkpt><trkpt lat="42.7518177" lon="10.2709246"><ele>208.79999999999998</ele><time>2026-04-19T08:54:41.334Z</time></trkpt><trkpt lat="42.751897" lon="10.2708903"><ele>213.6</ele><time>2026-04-19T08:54:43.337Z</time></trkpt><trkpt lat="42.7519613" lon="10.2708351"><ele>218.4</ele><time>2026-04-19T08:54:45.341Z</time></trkpt><trkpt lat="42.7520052" lon="10.2707548"><ele>223.2</ele><time>2026-04-19T08:54:47.336Z</time></trkpt><trkpt lat="42.7520584" lon="10.2706695"><ele>228.0</ele><time>2026-04-19T08:54:49.339Z</time></trkpt><trkpt lat="42.7521878" lon="10.2705596"><ele>229.60000000000002</ele><time>2026-04-19T08:54:53.345Z</time></trkpt><trkpt lat="42.7522546" lon="10.2706439"><ele>231.20000000000002</ele><time>2026-04-19T08:54:56.342Z</time></trkpt><trkpt lat="42.7522296" lon="10.2707695"><ele>232.8</ele><time>2026-04-19T08:54:58.343Z</time></trkpt><trkpt lat="42.7521726" lon="10.2708975"><ele>234.4</ele><time>2026-04-19T08:55:00.343Z</time></trkpt><trkpt lat="42.7521324" lon="10.2710113"><ele>236.0</ele><time>2026-04-19T08:55:02.34Z</time></trkpt><trkpt lat="42.7520989" lon="10.2711121"><ele>236.0</ele><time>2026-04-19T08:55:04.347Z</time></trkpt><trkpt lat="42.7520547" lon="10.271209"><ele>236.00000000000003</ele><time>2026-04-19T08:55:06.347Z</time></trkpt><trkpt lat="42.7520199" lon="10.2713058"><ele>236.00000000000003</ele><time>2026-04-19T08:55:08.35Z</time></trkpt><trkpt lat="42.7519964" lon="10.2714051"><ele>236.0</ele><time>2026-04-19T08:55:10.347Z</time></trkpt><trkpt lat="42.7519799" lon="10.2716161"><ele>236.0</ele><time>2026-04-19T08:55:14.342Z</time></trkpt><trkpt lat="42.7520552" lon="10.2717417"><ele>238.16666666666669</ele><time>2026-04-19T08:55:16.35Z</time></trkpt><trkpt lat="42.7521049" lon="10.2717976"><ele>240.33333333333334</ele><time>2026-04-19T08:55:17.341Z</time></trkpt><trkpt lat="42.7521554" lon="10.2718541"><ele>242.5</ele><time>2026-04-19T08:55:18.349Z</time></trkpt><trkpt lat="42.75221" lon="10.2719132"><ele>244.66666666666669</ele><time>2026-04-19T08:55:19.351Z</time></trkpt><trkpt lat="42.7522554" lon="10.2719779"><ele>246.83333333333334</ele><time>2026-04-19T08:55:20.347Z</time></trkpt><trkpt lat="42.75233" lon="10.2721136"><ele>249.0</ele><time>2026-04-19T08:55:22.341Z</time></trkpt><trkpt lat="42.7523954" lon="10.272232"><ele>248.6</ele><time>2026-04-19T08:55:24.352Z</time></trkpt><trkpt lat="42.7524492" lon="10.2723481"><ele>248.2</ele><time>2026-04-19T08:55:26.347Z</time></trkpt><trkpt lat="42.7525005" lon="10.2724656"><ele>247.79999999999998</ele><time>2026-04-19T08:55:28.348Z</time></trkpt><trkpt lat="42.7525393" lon="10.2725865"><ele>247.39999999999998</ele><time>2026-04-19T08:55:30.342Z</time></trkpt><trkpt lat="42.7525855" lon="10.2726965"><ele>247.0</ele><time>2026-04-19T08:55:32.344Z</time></trkpt><trkpt lat="42.752666" lon="10.27289"><ele>247.0</ele><time>2026-04-19T08:55:37.344Z</time></trkpt><trkpt lat="42.7526813" lon="10.2730112"><ele>247.0</ele><time>2026-04-19T08:55:43.351Z</time></trkpt><trkpt lat="42.7527269" lon="10.2731096"><ele>247.0</ele><time>2026-04-19T08:55:45.344Z</time></trkpt><trkpt lat="42.752799" lon="10.2732078"><ele>247.0</ele><time>2026-04-19T08:55:47.344Z</time></trkpt><trkpt lat="42.752883" lon="10.2733124"><ele>247.0</ele><time>2026-04-19T08:55:49.327Z</time></trkpt><trkpt lat="42.7529485" lon="10.2734078"><ele>252.33333333333331</ele><time>2026-04-19T08:55:51.327Z</time></trkpt><trkpt lat="42.7529881" lon="10.2734784"><ele>257.66666666666663</ele><time>2026-04-19T08:55:52.339Z</time></trkpt><trkpt lat="42.753031" lon="10.2735575"><ele>263.0</ele><time>2026-04-19T08:55:53.344Z</time></trkpt><trkpt lat="42.753126" lon="10.2736962"><ele>268.3333333333333</ele><time>2026-04-19T08:55:55.343Z</time></trkpt><trkpt lat="42.7531811" lon="10.2738036"><ele>273.6666666666667</ele><time>2026-04-19T08:55:57.338Z</time></trkpt><trkpt lat="42.7531829" lon="10.2738925"><ele>279.0</ele><time>2026-04-19T08:55:59.342Z</time></trkpt><trkpt lat="42.753116" lon="10.2739722"><ele>279.0</ele><time>2026-04-19T08:56:01.345Z</time></trkpt><trkpt lat="42.7530536" lon="10.2740457"><ele>279.0</ele><time>2026-04-19T08:56:03.347Z</time></trkpt><trkpt lat="42.7529914" lon="10.274105"><ele>279.0</ele><time>2026-04-19T08:58:29.351Z</time></trkpt><trkpt lat="42.7527992" lon="10.2742316"><ele>279.0</ele><time>2026-04-19T08:58:32.34Z</time></trkpt><trkpt lat="42.7527261" lon="10.2743291"><ele>279.59999999999997</ele><time>2026-04-19T08:58:33.334Z</time></trkpt><trkpt lat="42.7526504" lon="10.2744425"><ele>280.2</ele><time>2026-04-19T08:58:34.344Z</time></trkpt><trkpt lat="42.7525789" lon="10.2745435"><ele>280.79999999999995</ele><time>2026-04-19T08:58:35.34Z</time></trkpt><trkpt lat="42.7525109" lon="10.2746424"><ele>281.4</ele><time>2026-04-19T08:58:36.342Z</time></trkpt><trkpt lat="42.7524497" lon="10.2747336"><ele>282.0</ele><time>2026-04-19T08:58:37.347Z</time></trkpt><trkpt lat="42.7523805" lon="10.2748186"><ele>282.0</ele><time>2026-04-19T08:58:38.343Z</time></trkpt><trkpt lat="42.7523165" lon="10.2748888"><ele>282.0</ele><time>2026-04-19T08:58:39.345Z</time></trkpt><trkpt lat="42.7522582" lon="10.2749355"><ele>282.0</ele><time>2026-04-19T08:58:40.35Z</time></trkpt><trkpt lat="42.7521306" lon="10.2749224"><ele>282.0</ele><time>2026-04-19T08:58:42.345Z</time></trkpt><trkpt lat="42.752057" lon="10.2749171"><ele>282.0</ele><time>2026-04-19T08:58:43.346Z</time></trkpt><trkpt lat="42.7519849" lon="10.2749239"><ele>282.0</ele><time>2026-04-19T08:58:44.345Z</time></trkpt><trkpt lat="42.7519088" lon="10.2749444"><ele>282.0</ele><time>2026-04-19T08:58:45.346Z</time></trkpt><trkpt lat="42.7518409" lon="10.2749937"><ele>282.0</ele><time>2026-04-19T08:58:46.36Z</time></trkpt><trkpt lat="42.7517823" lon="10.2750718"><ele>282.0</ele><time>2026-04-19T08:58:47.351Z</time></trkpt><trkpt lat="42.7517329" lon="10.2751798"><ele>282.0</ele><time>2026-04-19T08:58:48.346Z</time></trkpt><trkpt lat="42.7517021" lon="10.2753053"><ele>282.0</ele><time>2026-04-19T08:58:49.359Z</time></trkpt><trkpt lat="42.7516883" lon="10.2754348"><ele>282.0</ele><time>2026-04-19T08:58:50.355Z</time></trkpt><trkpt lat="42.7516591" lon="10.2756597"><ele>282.0</ele><time>2026-04-19T08:58:52.352Z</time></trkpt><trkpt lat="42.7516183" lon="10.2758256"><ele>282.0</ele><time>2026-04-19T08:58:54.358Z</time></trkpt><trkpt lat="42.751589" lon="10.2759156"><ele>282.0</ele><time>2026-04-19T08:58:55.358Z</time></trkpt><trkpt lat="42.7515577" lon="10.2759977"><ele>282.0</ele><time>2026-04-19T08:58:56.355Z</time></trkpt><trkpt lat="42.7515254" lon="10.2760887"><ele>282.0</ele><time>2026-04-19T08:58:57.357Z</time></trkpt><trkpt lat="42.7514897" lon="10.2761884"><ele>282.0</ele><time>2026-04-19T08:58:58.359Z</time></trkpt><trkpt lat="42.7514501" lon="10.2762885"><ele>282.0</ele><time>2026-04-19T08:58:59.358Z</time></trkpt><trkpt lat="42.7514083" lon="10.2763868"><ele>282.0</ele><time>2026-04-19T08:59:00.361Z</time></trkpt><trkpt lat="42.7513729" lon="10.2764867"><ele>282.0</ele><time>2026-04-19T08:59:01.36Z</time></trkpt><trkpt lat="42.7513413" lon="10.2765919"><ele>282.0</ele><time>2026-04-19T08:59:02.358Z</time></trkpt><trkpt lat="42.7513069" lon="10.2767059"><ele>282.0</ele><time>2026-04-19T08:59:03.357Z</time></trkpt><trkpt lat="42.7512775" lon="10.2768299"><ele>282.0</ele><time>2026-04-19T08:59:04.356Z</time></trkpt><trkpt lat="42.7512495" lon="10.2769668"><ele>284.4</ele><time>2026-04-19T08:59:05.353Z</time></trkpt><trkpt lat="42.7512179" lon="10.2771078"><ele>286.79999999999995</ele><time>2026-04-19T08:59:06.358Z</time></trkpt><trkpt lat="42.751183" lon="10.2772378"><ele>289.2</ele><time>2026-04-19T08:59:07.347Z</time></trkpt><trkpt lat="42.7511465" lon="10.2773502"><ele>291.59999999999997</ele><time>2026-04-19T08:59:08.357Z</time></trkpt><trkpt lat="42.7511093" lon="10.2774517"><ele>294.0</ele><time>2026-04-19T08:59:09.359Z</time></trkpt><trkpt lat="42.7510638" lon="10.2776043"><ele>295.25</ele><time>2026-04-19T08:59:11.35Z</time></trkpt><trkpt lat="42.750992" lon="10.2779196"><ele>296.5</ele><time>2026-04-19T08:59:15.351Z</time></trkpt><trkpt lat="42.750973" lon="10.2780142"><ele>297.75</ele><time>2026-04-19T08:59:16.35Z</time></trkpt><trkpt lat="42.7509621" lon="10.2781162"><ele>299.0</ele><time>2026-04-19T08:59:17.357Z</time></trkpt><trkpt lat="42.7509671" lon="10.2782017"><ele>299.0</ele><time>2026-04-19T08:59:18.353Z</time></trkpt><trkpt lat="42.7510185" lon="10.2782637"><ele>299.0</ele><time>2026-04-19T08:59:20.359Z</time></trkpt><trkpt lat="42.7510803" lon="10.2782833"><ele>299.0</ele><time>2026-04-19T08:59:34.369Z</time></trkpt><trkpt lat="42.7509444" lon="10.2783395"><ele>299.0</ele><time>2026-04-19T08:59:49.359Z</time></trkpt><trkpt lat="42.7509998" lon="10.2782778"><ele>299.0</ele><time>2026-04-19T08:59:56.346Z</time></trkpt><trkpt lat="42.7507589" lon="10.2785104"><ele>299.0</ele><time>2026-04-19T09:01:38.337Z</time></trkpt><trkpt lat="42.7506996" lon="10.2785626"><ele>299.0</ele><time>2026-04-19T09:01:39.343Z</time></trkpt><trkpt lat="42.7506416" lon="10.2786191"><ele>299.0</ele><time>2026-04-19T09:01:40.342Z</time></trkpt><trkpt lat="42.7505825" lon="10.2786727"><ele>299.0</ele><time>2026-04-19T09:01:41.342Z</time></trkpt><trkpt lat="42.7505237" lon="10.2787212"><ele>299.0</ele><time>2026-04-19T09:01:42.342Z</time></trkpt><trkpt lat="42.7504644" lon="10.2787658"><ele>299.0</ele><time>2026-04-19T09:01:43.346Z</time></trkpt><trkpt lat="42.750405" lon="10.2788002"><ele>299.0</ele><time>2026-04-19T09:01:44.342Z</time></trkpt><trkpt lat="42.7503022" lon="10.2787746"><ele>299.0</ele><time>2026-04-19T09:01:46.334Z</time></trkpt><trkpt lat="42.7502176" lon="10.2786869"><ele>299.0</ele><time>2026-04-19T09:01:48.344Z</time></trkpt><trkpt lat="42.7501216" lon="10.2787168"><ele>299.0</ele><time>2026-04-19T09:01:50.338Z</time></trkpt><trkpt lat="42.7500672" lon="10.2787624"><ele>299.0</ele><time>2026-04-19T09:01:51.347Z</time></trkpt><trkpt lat="42.7500049" lon="10.2788045"><ele>299.0</ele><time>2026-04-19T09:01:52.328Z</time></trkpt><trkpt lat="42.7498954" lon="10.2788077"><ele>299.0</ele><time>2026-04-19T09:01:54.342Z</time></trkpt><trkpt lat="42.7497948" lon="10.278748"><ele>300.2</ele><time>2026-04-19T09:01:56.34Z</time></trkpt><trkpt lat="42.7496095" lon="10.2787381"><ele>301.4</ele><time>2026-04-19T09:01:59.348Z</time></trkpt><trkpt lat="42.7495439" lon="10.2787454"><ele>302.6</ele><time>2026-04-19T09:02:00.342Z</time></trkpt><trkpt lat="42.7494813" lon="10.2787756"><ele>303.8</ele><time>2026-04-19T09:02:01.34Z</time></trkpt><trkpt lat="42.7494235" lon="10.2788202"><ele>305.0</ele><time>2026-04-19T09:02:02.339Z</time></trkpt><trkpt lat="42.7493656" lon="10.2788648"><ele>305.0</ele><time>2026-04-19T09:02:03.338Z</time></trkpt><trkpt lat="42.7492625" lon="10.2789303"><ele>305.0</ele><time>2026-04-19T09:02:05.337Z</time></trkpt><trkpt lat="42.7491814" lon="10.278961"><ele>305.0</ele><time>2026-04-19T09:02:07.339Z</time></trkpt><trkpt lat="42.7490965" lon="10.2789676"><ele>305.0</ele><time>2026-04-19T09:02:09.341Z</time></trkpt><trkpt lat="42.749025" lon="10.2789278"><ele>305.0</ele><time>2026-04-19T09:02:11.345Z</time></trkpt><trkpt lat="42.7489573" lon="10.2789137"><ele>305.0</ele><time>2026-04-19T09:02:13.342Z</time></trkpt><trkpt lat="42.7488619" lon="10.2789511"><ele>307.0</ele><time>2026-04-19T09:02:24.346Z</time></trkpt><trkpt lat="42.7487303" lon="10.2791887"><ele>309.0</ele><time>2026-04-19T09:02:28.341Z</time></trkpt><trkpt lat="42.7487294" lon="10.2792991"><ele>311.0</ele><time>2026-04-19T09:02:30.346Z</time></trkpt><trkpt lat="42.7487227" lon="10.279419"><ele>313.0</ele><time>2026-04-19T09:02:32.343Z</time></trkpt><trkpt lat="42.7486632" lon="10.2795361"><ele>313.0</ele><time>2026-04-19T09:02:34.341Z</time></trkpt><trkpt lat="42.7486251" lon="10.2796132"><ele>313.0</ele><time>2026-04-19T09:02:35.34Z</time></trkpt><trkpt lat="42.7485876" lon="10.2797033"><ele>313.0</ele><time>2026-04-19T09:02:36.346Z</time></trkpt><trkpt lat="42.7485486" lon="10.2797902"><ele>313.0</ele><time>2026-04-19T09:02:37.35Z</time></trkpt><trkpt lat="42.7485122" lon="10.2798628"><ele>313.0</ele><time>2026-04-19T09:02:38.346Z</time></trkpt><trkpt lat="42.7484296" lon="10.2799759"><ele>313.0</ele><time>2026-04-19T09:02:40.348Z</time></trkpt><trkpt lat="42.7483684" lon="10.2800639"><ele>311.75</ele><time>2026-04-19T09:02:42.346Z</time></trkpt><trkpt lat="42.7483263" lon="10.2801499"><ele>310.5</ele><time>2026-04-19T09:02:44.349Z</time></trkpt><trkpt lat="42.7482693" lon="10.2802293"><ele>309.25</ele><time>2026-04-19T09:02:46.347Z</time></trkpt><trkpt lat="42.7481192" lon="10.2803466"><ele>308.0</ele><time>2026-04-19T09:02:50.346Z</time></trkpt><trkpt lat="42.7480087" lon="10.2804381"><ele>308.0</ele><time>2026-04-19T09:02:52.348Z</time></trkpt><trkpt lat="42.7479159" lon="10.2805103"><ele>308.0</ele><time>2026-04-19T09:02:54.347Z</time></trkpt><trkpt lat="42.7478167" lon="10.2805384"><ele>308.0</ele><time>2026-04-19T09:02:56.34Z</time></trkpt><trkpt lat="42.7477407" lon="10.2804938"><ele>308.0</ele><time>2026-04-19T09:02:58.349Z</time></trkpt><trkpt lat="42.7476639" lon="10.2804481"><ele>308.0</ele><time>2026-04-19T09:03:00.341Z</time></trkpt><trkpt lat="42.7475842" lon="10.2804819"><ele>305.8</ele><time>2026-04-19T09:03:02.346Z</time></trkpt><trkpt lat="42.7475188" lon="10.2805541"><ele>303.6</ele><time>2026-04-19T09:03:04.347Z</time></trkpt><trkpt lat="42.7474355" lon="10.2806156"><ele>301.4</ele><time>2026-04-19T09:03:07.345Z</time></trkpt><trkpt lat="42.7472846" lon="10.2806538"><ele>299.2</ele><time>2026-04-19T09:03:15.35Z</time></trkpt><trkpt lat="42.747198" lon="10.2806635"><ele>297.0</ele><time>2026-04-19T09:03:21.334Z</time></trkpt><trkpt lat="42.7471232" lon="10.2806704"><ele>297.0</ele><time>2026-04-19T09:03:23.341Z</time></trkpt><trkpt lat="42.7470482" lon="10.2806985"><ele>297.0</ele><time>2026-04-19T09:03:25.331Z</time></trkpt><trkpt lat="42.7469459" lon="10.280808"><ele>297.0</ele><time>2026-04-19T09:03:27.336Z</time></trkpt><trkpt lat="42.7468901" lon="10.2808753"><ele>297.0</ele><time>2026-04-19T09:03:28.349Z</time></trkpt><trkpt lat="42.7467172" lon="10.2809687"><ele>295.2</ele><time>2026-04-19T09:03:31.344Z</time></trkpt><trkpt lat="42.7466009" lon="10.280987"><ele>293.4</ele><time>2026-04-19T09:03:33.347Z</time></trkpt><trkpt lat="42.7464731" lon="10.2809945"><ele>291.6</ele><time>2026-04-19T09:03:35.341Z</time></trkpt><trkpt lat="42.7464066" lon="10.2810018"><ele>289.8</ele><time>2026-04-19T09:03:36.35Z</time></trkpt><trkpt lat="42.7463427" lon="10.2810079"><ele>288.0</ele><time>2026-04-19T09:03:37.343Z</time></trkpt><trkpt lat="42.7462292" lon="10.2810032"><ele>288.0</ele><time>2026-04-19T09:03:39.343Z</time></trkpt><trkpt lat="42.7461347" lon="10.2809927"><ele>288.0</ele><time>2026-04-19T09:03:41.348Z</time></trkpt><trkpt lat="42.7460362" lon="10.2810148"><ele>288.0</ele><time>2026-04-19T09:03:43.335Z</time></trkpt><trkpt lat="42.7459178" lon="10.2810153"><ele>288.0</ele><time>2026-04-19T09:03:45.334Z</time></trkpt><trkpt lat="42.7458058" lon="10.281032"><ele>288.0</ele><time>2026-04-19T09:03:47.346Z</time></trkpt><trkpt lat="42.7457014" lon="10.2810667"><ele>287.25</ele><time>2026-04-19T09:03:49.345Z</time></trkpt><trkpt lat="42.7455048" lon="10.2811326"><ele>286.5</ele><time>2026-04-19T09:03:53.347Z</time></trkpt><trkpt lat="42.7454153" lon="10.2811883"><ele>285.75</ele><time>2026-04-19T09:03:55.338Z</time></trkpt><trkpt lat="42.7453255" lon="10.2812206"><ele>285.0</ele><time>2026-04-19T09:03:57.346Z</time></trkpt><trkpt lat="42.7452211" lon="10.2812396"><ele>284.2</ele><time>2026-04-19T09:03:59.355Z</time></trkpt><trkpt lat="42.7451108" lon="10.2812665"><ele>283.4</ele><time>2026-04-19T09:04:01.348Z</time></trkpt><trkpt lat="42.7450027" lon="10.2813186"><ele>282.6</ele><time>2026-04-19T09:04:03.346Z</time></trkpt><trkpt lat="42.7449406" lon="10.2813502"><ele>281.8</ele><time>2026-04-19T09:04:04.344Z</time></trkpt><trkpt lat="42.7448778" lon="10.2813788"><ele>281.0</ele><time>2026-04-19T09:04:05.347Z</time></trkpt><trkpt lat="42.7447788" lon="10.2814537"><ele>281.0</ele><time>2026-04-19T09:04:07.34Z</time></trkpt><trkpt lat="42.7447143" lon="10.2815254"><ele>281.0</ele><time>2026-04-19T09:04:09.345Z</time></trkpt><trkpt lat="42.7446494" lon="10.2815195"><ele>281.0</ele><time>2026-04-19T09:04:16.349Z</time></trkpt><trkpt lat="42.7448649" lon="10.2814078"><ele>281.0</ele><time>2026-04-19T09:18:24.352Z</time></trkpt><trkpt lat="42.7449804" lon="10.2813572"><ele>280.8</ele><time>2026-04-19T09:18:26.353Z</time></trkpt><trkpt lat="42.7450873" lon="10.2813121"><ele>280.6</ele><time>2026-04-19T09:18:28.363Z</time></trkpt><trkpt lat="42.7451885" lon="10.2812631"><ele>280.4</ele><time>2026-04-19T09:18:30.363Z</time></trkpt><trkpt lat="42.7453136" lon="10.2812289"><ele>280.2</ele><time>2026-04-19T09:18:32.362Z</time></trkpt><trkpt lat="42.7453757" lon="10.2812142"><ele>280.0</ele><time>2026-04-19T09:18:33.359Z</time></trkpt><trkpt lat="42.7454379" lon="10.2811989"><ele>281.0</ele><time>2026-04-19T09:18:34.354Z</time></trkpt><trkpt lat="42.7455359" lon="10.281151"><ele>282.0</ele><time>2026-04-19T09:18:36.359Z</time></trkpt><trkpt lat="42.7456311" lon="10.2810985"><ele>283.0</ele><time>2026-04-19T09:18:38.359Z</time></trkpt><trkpt lat="42.7457461" lon="10.2810685"><ele>284.0</ele><time>2026-04-19T09:18:40.351Z</time></trkpt><trkpt lat="42.7458127" lon="10.28105"><ele>285.0</ele><time>2026-04-19T09:18:41.358Z</time></trkpt><trkpt lat="42.7459539" lon="10.2810198"><ele>285.0</ele><time>2026-04-19T09:18:43.358Z</time></trkpt><trkpt lat="42.7460195" lon="10.2810173"><ele>285.0</ele><time>2026-04-19T09:18:44.355Z</time></trkpt><trkpt lat="42.7460846" lon="10.281018"><ele>285.0</ele><time>2026-04-19T09:18:45.358Z</time></trkpt><trkpt lat="42.7461944" lon="10.2810104"><ele>285.0</ele><time>2026-04-19T09:18:47.35Z</time></trkpt><trkpt lat="42.7462999" lon="10.2810001"><ele>285.0</ele><time>2026-04-19T09:18:49.358Z</time></trkpt><trkpt lat="42.7464258" lon="10.2810197"><ele>285.5</ele><time>2026-04-19T09:18:51.351Z</time></trkpt><trkpt lat="42.7464897" lon="10.2810103"><ele>286.0</ele><time>2026-04-19T09:18:52.353Z</time></trkpt><trkpt lat="42.7465522" lon="10.2809953"><ele>286.5</ele><time>2026-04-19T09:18:53.359Z</time></trkpt><trkpt lat="42.746679" lon="10.2809725"><ele>287.0</ele><time>2026-04-19T09:18:55.357Z</time></trkpt><trkpt lat="42.7467464" lon="10.2809603"><ele>287.5</ele><time>2026-04-19T09:18:56.357Z</time></trkpt><trkpt lat="42.7468123" lon="10.2809419"><ele>288.0</ele><time>2026-04-19T09:18:57.353Z</time></trkpt><trkpt lat="42.7468771" lon="10.2809106"><ele>289.5</ele><time>2026-04-19T09:18:58.352Z</time></trkpt><trkpt lat="42.7469353" lon="10.2808654"><ele>291.0</ele><time>2026-04-19T09:18:59.358Z</time></trkpt><trkpt lat="42.7469839" lon="10.2807979"><ele>292.5</ele><time>2026-04-19T09:19:00.356Z</time></trkpt><trkpt lat="42.7470323" lon="10.2807342"><ele>294.0</ele><time>2026-04-19T09:19:01.35Z</time></trkpt><trkpt lat="42.7471087" lon="10.280671"><ele>295.5</ele><time>2026-04-19T09:19:03.351Z</time></trkpt><trkpt lat="42.7472633" lon="10.2806463"><ele>297.0</ele><time>2026-04-19T09:19:07.347Z</time></trkpt><trkpt lat="42.7473263" lon="10.2806426"><ele>297.0</ele><time>2026-04-19T09:19:10.345Z</time></trkpt><trkpt lat="42.7473899" lon="10.2806414"><ele>297.0</ele><time>2026-04-19T09:19:25.356Z</time></trkpt><trkpt lat="42.7475197" lon="10.2805972"><ele>297.0</ele><time>2026-04-19T09:19:33.35Z</time></trkpt><trkpt lat="42.7475703" lon="10.2805417"><ele>297.0</ele><time>2026-04-19T09:19:36.339Z</time></trkpt><trkpt lat="42.7476672" lon="10.2804842"><ele>297.0</ele><time>2026-04-19T09:19:46.353Z</time></trkpt><trkpt lat="42.7478784" lon="10.280548"><ele>299.75</ele><time>2026-04-19T09:19:50.351Z</time></trkpt><trkpt lat="42.7479866" lon="10.2805041"><ele>302.5</ele><time>2026-04-19T09:19:52.354Z</time></trkpt><trkpt lat="42.7480743" lon="10.2804087"><ele>305.25</ele><time>2026-04-19T09:19:54.356Z</time></trkpt><trkpt lat="42.7481801" lon="10.2803137"><ele>308.0</ele><time>2026-04-19T09:19:56.357Z</time></trkpt><trkpt lat="42.7482766" lon="10.2802607"><ele>308.0</ele><time>2026-04-19T09:19:58.358Z</time></trkpt><trkpt lat="42.7483377" lon="10.2801659"><ele>308.0</ele><time>2026-04-19T09:20:00.355Z</time></trkpt><trkpt lat="42.7483984" lon="10.2800584"><ele>308.0</ele><time>2026-04-19T09:20:02.357Z</time></trkpt><trkpt lat="42.7484558" lon="10.2799473"><ele>308.0</ele><time>2026-04-19T09:20:04.355Z</time></trkpt><trkpt lat="42.7485341" lon="10.2798432"><ele>308.0</ele><time>2026-04-19T09:20:06.36Z</time></trkpt><trkpt lat="42.7485956" lon="10.2797136"><ele>308.83333333333337</ele><time>2026-04-19T09:20:08.354Z</time></trkpt><trkpt lat="42.7486632" lon="10.2795356"><ele>309.6666666666667</ele><time>2026-04-19T09:20:10.361Z</time></trkpt><trkpt lat="42.7487061" lon="10.2794504"><ele>310.5</ele><time>2026-04-19T09:20:11.362Z</time></trkpt><trkpt lat="42.7487457" lon="10.2793749"><ele>311.3333333333333</ele><time>2026-04-19T09:20:12.351Z</time></trkpt><trkpt lat="42.7487722" lon="10.2792535"><ele>312.16666666666663</ele><time>2026-04-19T09:20:14.358Z</time></trkpt><trkpt lat="42.7487688" lon="10.2791674"><ele>313.0</ele><time>2026-04-19T09:20:16.361Z</time></trkpt><trkpt lat="42.7487896" lon="10.2790689"><ele>313.0</ele><time>2026-04-19T09:20:18.358Z</time></trkpt><trkpt lat="42.7488445" lon="10.2789705"><ele>313.0</ele><time>2026-04-19T09:20:20.354Z</time></trkpt><trkpt lat="42.7489391" lon="10.2789217"><ele>313.0</ele><time>2026-04-19T09:20:22.358Z</time></trkpt><trkpt lat="42.7490487" lon="10.2789172"><ele>313.0</ele><time>2026-04-19T09:20:24.347Z</time></trkpt><trkpt lat="42.7491523" lon="10.2789565"><ele>313.0</ele><time>2026-04-19T09:20:26.36Z</time></trkpt><trkpt lat="42.7492329" lon="10.2790126"><ele>313.0</ele><time>2026-04-19T09:20:28.359Z</time></trkpt><trkpt lat="42.7493014" lon="10.2790084"><ele>313.0</ele><time>2026-04-19T09:20:30.361Z</time></trkpt><trkpt lat="42.749425" lon="10.2788667"><ele>313.0</ele><time>2026-04-19T09:20:35.348Z</time></trkpt><trkpt lat="42.749551" lon="10.2787919"><ele>313.0</ele><time>2026-04-19T09:20:37.354Z</time></trkpt><trkpt lat="42.7496341" lon="10.278768"><ele>312.3333333333333</ele><time>2026-04-19T09:20:38.354Z</time></trkpt><trkpt lat="42.7497221" lon="10.278757"><ele>311.66666666666663</ele><time>2026-04-19T09:20:39.354Z</time></trkpt><trkpt lat="42.7498025" lon="10.2787516"><ele>311.0</ele><time>2026-04-19T09:20:40.36Z</time></trkpt><trkpt lat="42.7498725" lon="10.2787519"><ele>310.3333333333333</ele><time>2026-04-19T09:20:41.352Z</time></trkpt><trkpt lat="42.7499358" lon="10.2787745"><ele>309.6666666666667</ele><time>2026-04-19T09:20:42.354Z</time></trkpt><trkpt lat="42.7500365" lon="10.2788219"><ele>309.0</ele><time>2026-04-19T09:20:44.357Z</time></trkpt><trkpt lat="42.7501358" lon="10.2787582"><ele>309.0</ele><time>2026-04-19T09:20:46.354Z</time></trkpt><trkpt lat="42.7501921" lon="10.2787153"><ele>309.0</ele><time>2026-04-19T09:20:47.358Z</time></trkpt><trkpt lat="42.7503053" lon="10.2786933"><ele>309.0</ele><time>2026-04-19T09:20:49.36Z</time></trkpt><trkpt lat="42.750403" lon="10.2787782"><ele>309.0</ele><time>2026-04-19T09:20:51.354Z</time></trkpt><trkpt lat="42.7505857" lon="10.2786976"><ele>307.3333333333333</ele><time>2026-04-19T09:20:54.352Z</time></trkpt><trkpt lat="42.7506603" lon="10.2786258"><ele>305.6666666666667</ele><time>2026-04-19T09:20:55.351Z</time></trkpt><trkpt lat="42.7507275" lon="10.2785587"><ele>304.0</ele><time>2026-04-19T09:20:56.353Z</time></trkpt><trkpt lat="42.7507859" lon="10.2784953"><ele>302.33333333333337</ele><time>2026-04-19T09:20:57.354Z</time></trkpt><trkpt lat="42.7508393" lon="10.278439"><ele>300.6666666666667</ele><time>2026-04-19T09:20:58.354Z</time></trkpt><trkpt lat="42.7508922" lon="10.2783914"><ele>299.0</ele><time>2026-04-19T09:20:59.348Z</time></trkpt><trkpt lat="42.750975" lon="10.278326"><ele>299.0</ele><time>2026-04-19T09:21:01.349Z</time></trkpt><trkpt lat="42.7510395" lon="10.2783241"><ele>299.0</ele><time>2026-04-19T09:21:05.357Z</time></trkpt><trkpt lat="42.7510439" lon="10.2784163"><ele>299.0</ele><time>2026-04-19T09:21:15.354Z</time></trkpt><trkpt lat="42.7510643" lon="10.2786924"><ele>299.0</ele><time>2026-04-19T09:21:18.35Z</time></trkpt><trkpt lat="42.7510616" lon="10.2787901"><ele>299.0</ele><time>2026-04-19T09:21:19.35Z</time></trkpt><trkpt lat="42.7510579" lon="10.2788978"><ele>298.1666666666667</ele><time>2026-04-19T09:21:20.35Z</time></trkpt><trkpt lat="42.7510474" lon="10.2790081"><ele>297.33333333333337</ele><time>2026-04-19T09:21:21.354Z</time></trkpt><trkpt lat="42.7510333" lon="10.2791153"><ele>296.5</ele><time>2026-04-19T09:21:22.354Z</time></trkpt><trkpt lat="42.751011" lon="10.2792138"><ele>295.6666666666667</ele><time>2026-04-19T09:21:23.354Z</time></trkpt><trkpt lat="42.7509765" lon="10.2793013"><ele>294.8333333333333</ele><time>2026-04-19T09:21:24.351Z</time></trkpt><trkpt lat="42.7509357" lon="10.2793944"><ele>294.0</ele><time>2026-04-19T09:21:25.345Z</time></trkpt><trkpt lat="42.7509082" lon="10.2794894"><ele>294.0</ele><time>2026-04-19T09:21:26.35Z</time></trkpt><trkpt lat="42.7508894" lon="10.279587"><ele>294.0</ele><time>2026-04-19T09:21:27.354Z</time></trkpt><trkpt lat="42.7508669" lon="10.2796824"><ele>294.0</ele><time>2026-04-19T09:21:28.351Z</time></trkpt><trkpt lat="42.7508335" lon="10.2797613"><ele>294.0</ele><time>2026-04-19T09:21:29.349Z</time></trkpt><trkpt lat="42.7507843" lon="10.2798283"><ele>294.0</ele><time>2026-04-19T09:21:30.356Z</time></trkpt><trkpt lat="42.750716" lon="10.2798727"><ele>294.0</ele><time>2026-04-19T09:21:31.36Z</time></trkpt><trkpt lat="42.7506394" lon="10.2798829"><ele>294.0</ele><time>2026-04-19T09:21:32.345Z</time></trkpt><trkpt lat="42.7505614" lon="10.2798752"><ele>292.59999999999997</ele><time>2026-04-19T09:21:33.345Z</time></trkpt><trkpt lat="42.7504795" lon="10.279855"><ele>291.2</ele><time>2026-04-19T09:21:34.35Z</time></trkpt><trkpt lat="42.7504038" lon="10.2798351"><ele>289.79999999999995</ele><time>2026-04-19T09:21:35.348Z</time></trkpt><trkpt lat="42.7503294" lon="10.2798304"><ele>288.4</ele><time>2026-04-19T09:21:36.35Z</time></trkpt><trkpt lat="42.7501954" lon="10.2799302"><ele>287.0</ele><time>2026-04-19T09:21:38.349Z</time></trkpt><trkpt lat="42.7501342" lon="10.2799873"><ele>287.0</ele><time>2026-04-19T09:21:39.349Z</time></trkpt><trkpt lat="42.7500683" lon="10.2800286"><ele>287.0</ele><time>2026-04-19T09:21:40.346Z</time></trkpt><trkpt lat="42.7499987" lon="10.2800594"><ele>287.0</ele><time>2026-04-19T09:21:41.349Z</time></trkpt><trkpt lat="42.7499202" lon="10.280085"><ele>287.0</ele><time>2026-04-19T09:21:42.348Z</time></trkpt><trkpt lat="42.7498331" lon="10.280097"><ele>287.0</ele><time>2026-04-19T09:21:43.345Z</time></trkpt><trkpt lat="42.7497385" lon="10.2801045"><ele>287.0</ele><time>2026-04-19T09:21:44.351Z</time></trkpt><trkpt lat="42.7496398" lon="10.2801091"><ele>287.0</ele><time>2026-04-19T09:21:45.35Z</time></trkpt><trkpt lat="42.749541" lon="10.280119"><ele>287.0</ele><time>2026-04-19T09:21:46.351Z</time></trkpt><trkpt lat="42.749443" lon="10.2801357"><ele>287.0</ele><time>2026-04-19T09:21:47.353Z</time></trkpt><trkpt lat="42.7493545" lon="10.2801548"><ele>287.0</ele><time>2026-04-19T09:21:48.347Z</time></trkpt><trkpt lat="42.7492747" lon="10.2801846"><ele>287.0</ele><time>2026-04-19T09:21:49.351Z</time></trkpt><trkpt lat="42.749207" lon="10.280233"><ele>287.0</ele><time>2026-04-19T09:21:50.342Z</time></trkpt><trkpt lat="42.7491462" lon="10.2803024"><ele>288.8</ele><time>2026-04-19T09:21:51.348Z</time></trkpt><trkpt lat="42.7490871" lon="10.2804012"><ele>290.6</ele><time>2026-04-19T09:21:52.347Z</time></trkpt><trkpt lat="42.7490336" lon="10.2805222"><ele>292.40000000000003</ele><time>2026-04-19T09:21:53.347Z</time></trkpt><trkpt lat="42.7489897" lon="10.2806495"><ele>294.2</ele><time>2026-04-19T09:21:54.345Z</time></trkpt><trkpt lat="42.7489606" lon="10.2807727"><ele>296.0</ele><time>2026-04-19T09:21:55.345Z</time></trkpt><trkpt lat="42.7489381" lon="10.2808807"><ele>292.2</ele><time>2026-04-19T09:21:56.346Z</time></trkpt><trkpt lat="42.7489063" lon="10.2809791"><ele>288.40000000000003</ele><time>2026-04-19T09:21:57.346Z</time></trkpt><trkpt lat="42.7488063" lon="10.2811331"><ele>284.6</ele><time>2026-04-19T09:21:59.347Z</time></trkpt><trkpt lat="42.7487379" lon="10.2811819"><ele>280.8</ele><time>2026-04-19T09:22:00.349Z</time></trkpt><trkpt lat="42.7486598" lon="10.28121"><ele>277.0</ele><time>2026-04-19T09:22:01.355Z</time></trkpt><trkpt lat="42.7485694" lon="10.2812366"><ele>280.3333333333333</ele><time>2026-04-19T09:22:02.353Z</time></trkpt><trkpt lat="42.7484795" lon="10.2812687"><ele>283.66666666666663</ele><time>2026-04-19T09:22:03.354Z</time></trkpt><trkpt lat="42.748394" lon="10.2813031"><ele>287.0</ele><time>2026-04-19T09:22:04.348Z</time></trkpt><trkpt lat="42.7483181" lon="10.2813393"><ele>290.3333333333333</ele><time>2026-04-19T09:22:05.347Z</time></trkpt><trkpt lat="42.7482476" lon="10.2813638"><ele>293.6666666666667</ele><time>2026-04-19T09:22:06.346Z</time></trkpt><trkpt lat="42.748181" lon="10.2813739"><ele>297.0</ele><time>2026-04-19T09:22:07.351Z</time></trkpt><trkpt lat="42.7480936" lon="10.2813834"><ele>291.2</ele><time>2026-04-19T09:22:09.353Z</time></trkpt><trkpt lat="42.7481016" lon="10.2814694"><ele>285.4</ele><time>2026-04-19T09:22:12.346Z</time></trkpt><trkpt lat="42.7482328" lon="10.281521"><ele>279.6</ele><time>2026-04-19T09:22:14.342Z</time></trkpt><trkpt lat="42.7483227" lon="10.2815248"><ele>273.8</ele><time>2026-04-19T09:22:15.344Z</time></trkpt><trkpt lat="42.7484098" lon="10.2815265"><ele>268.0</ele><time>2026-04-19T09:22:16.346Z</time></trkpt><trkpt lat="42.7484917" lon="10.2815331"><ele>266.0</ele><time>2026-04-19T09:22:17.345Z</time></trkpt><trkpt lat="42.7485779" lon="10.2815476"><ele>264.0</ele><time>2026-04-19T09:22:18.348Z</time></trkpt><trkpt lat="42.748756" lon="10.2815869"><ele>262.0</ele><time>2026-04-19T09:22:20.342Z</time></trkpt><trkpt lat="42.7488466" lon="10.2816054"><ele>260.0</ele><time>2026-04-19T09:22:21.347Z</time></trkpt><trkpt lat="42.7489327" lon="10.2816183"><ele>258.0</ele><time>2026-04-19T09:22:22.347Z</time></trkpt><trkpt lat="42.7490127" lon="10.2816357"><ele>258.0</ele><time>2026-04-19T09:22:23.351Z</time></trkpt><trkpt lat="42.7490958" lon="10.2816525"><ele>258.0</ele><time>2026-04-19T09:22:24.345Z</time></trkpt><trkpt lat="42.7491861" lon="10.2816648"><ele>258.0</ele><time>2026-04-19T09:22:25.35Z</time></trkpt><trkpt lat="42.7492739" lon="10.2816638"><ele>258.0</ele><time>2026-04-19T09:22:26.348Z</time></trkpt><trkpt lat="42.7493492" lon="10.2816446"><ele>258.0</ele><time>2026-04-19T09:22:27.344Z</time></trkpt><trkpt lat="42.7494208" lon="10.281611"><ele>258.0</ele><time>2026-04-19T09:22:28.351Z</time></trkpt><trkpt lat="42.7494888" lon="10.2815431"><ele>259.2</ele><time>2026-04-19T09:22:29.354Z</time></trkpt><trkpt lat="42.7495381" lon="10.2814351"><ele>260.4</ele><time>2026-04-19T09:22:30.35Z</time></trkpt><trkpt lat="42.7495675" lon="10.2812971"><ele>261.59999999999997</ele><time>2026-04-19T09:22:31.35Z</time></trkpt><trkpt lat="42.7495786" lon="10.2811578"><ele>262.8</ele><time>2026-04-19T09:22:32.344Z</time></trkpt><trkpt lat="42.7495769" lon="10.2810372"><ele>264.0</ele><time>2026-04-19T09:22:33.342Z</time></trkpt><trkpt lat="42.7495798" lon="10.2809503"><ele>264.0</ele><time>2026-04-19T09:22:34.35Z</time></trkpt><trkpt lat="42.7496345" lon="10.2808873"><ele>264.0</ele><time>2026-04-19T09:22:36.341Z</time></trkpt><trkpt lat="42.7496976" lon="10.2809168"><ele>264.0</ele><time>2026-04-19T09:22:37.331Z</time></trkpt><trkpt lat="42.749773" lon="10.280961"><ele>264.0</ele><time>2026-04-19T09:22:38.345Z</time></trkpt><trkpt lat="42.7498733" lon="10.2810274"><ele>264.0</ele><time>2026-04-19T09:22:39.344Z</time></trkpt><trkpt lat="42.7500669" lon="10.2810881"><ele>264.0</ele><time>2026-04-19T09:22:41.345Z</time></trkpt><trkpt lat="42.7501651" lon="10.2810792"><ele>264.0</ele><time>2026-04-19T09:22:42.348Z</time></trkpt><trkpt lat="42.7502658" lon="10.2810596"><ele>264.0</ele><time>2026-04-19T09:22:43.352Z</time></trkpt><trkpt lat="42.750373" lon="10.2810342"><ele>264.0</ele><time>2026-04-19T09:22:44.344Z</time></trkpt><trkpt lat="42.7504931" lon="10.2809954"><ele>264.0</ele><time>2026-04-19T09:22:45.348Z</time></trkpt><trkpt lat="42.7506275" lon="10.2809532"><ele>261.5</ele><time>2026-04-19T09:22:46.346Z</time></trkpt><trkpt lat="42.7507646" lon="10.2809069"><ele>259.0</ele><time>2026-04-19T09:22:47.345Z</time></trkpt><trkpt lat="42.7508973" lon="10.2808498"><ele>256.5</ele><time>2026-04-19T09:22:48.344Z</time></trkpt><trkpt lat="42.7510209" lon="10.2807788"><ele>254.0</ele><time>2026-04-19T09:22:49.354Z</time></trkpt><trkpt lat="42.7511234" lon="10.2807078"><ele>256.0</ele><time>2026-04-19T09:22:50.34Z</time></trkpt><trkpt lat="42.7512155" lon="10.2806344"><ele>258.0</ele><time>2026-04-19T09:22:51.35Z</time></trkpt><trkpt lat="42.7512949" lon="10.2805645"><ele>260.0</ele><time>2026-04-19T09:22:52.345Z</time></trkpt><trkpt lat="42.7513686" lon="10.280493"><ele>262.0</ele><time>2026-04-19T09:22:53.342Z</time></trkpt><trkpt lat="42.7514392" lon="10.280429"><ele>264.0</ele><time>2026-04-19T09:22:54.347Z</time></trkpt><trkpt lat="42.7515133" lon="10.2803888"><ele>264.0</ele><time>2026-04-19T09:22:55.343Z</time></trkpt><trkpt lat="42.7515749" lon="10.2803697"><ele>264.0</ele><time>2026-04-19T09:22:56.345Z</time></trkpt><trkpt lat="42.7516782" lon="10.2802958"><ele>264.0</ele><time>2026-04-19T09:22:58.355Z</time></trkpt><trkpt lat="42.7517109" lon="10.2802168"><ele>264.0</ele><time>2026-04-19T09:22:59.352Z</time></trkpt><trkpt lat="42.7517363" lon="10.2801155"><ele>264.0</ele><time>2026-04-19T09:23:00.346Z</time></trkpt><trkpt lat="42.7518866" lon="10.2799702"><ele>263.6666666666667</ele><time>2026-04-19T09:23:03.344Z</time></trkpt><trkpt lat="42.7519638" lon="10.2799314"><ele>263.3333333333333</ele><time>2026-04-19T09:23:04.342Z</time></trkpt><trkpt lat="42.7520293" lon="10.2798739"><ele>263.0</ele><time>2026-04-19T09:23:05.339Z</time></trkpt><trkpt lat="42.752088" lon="10.2798168"><ele>262.66666666666663</ele><time>2026-04-19T09:23:06.344Z</time></trkpt><trkpt lat="42.7521345" lon="10.2797422"><ele>262.3333333333333</ele><time>2026-04-19T09:23:07.344Z</time></trkpt><trkpt lat="42.7521734" lon="10.2796539"><ele>262.0</ele><time>2026-04-19T09:23:08.342Z</time></trkpt><trkpt lat="42.7522062" lon="10.2795573"><ele>262.0</ele><time>2026-04-19T09:23:09.354Z</time></trkpt><trkpt lat="42.7522371" lon="10.2794615"><ele>262.0</ele><time>2026-04-19T09:23:10.355Z</time></trkpt><trkpt lat="42.7522664" lon="10.2793614"><ele>262.0</ele><time>2026-04-19T09:23:11.353Z</time></trkpt><trkpt lat="42.7522984" lon="10.2792558"><ele>262.0</ele><time>2026-04-19T09:23:12.351Z</time></trkpt><trkpt lat="42.7523314" lon="10.2791443"><ele>262.0</ele><time>2026-04-19T09:23:13.346Z</time></trkpt><trkpt lat="42.7523655" lon="10.2790208"><ele>262.0</ele><time>2026-04-19T09:23:14.346Z</time></trkpt><trkpt lat="42.7523904" lon="10.2788977"><ele>265.0</ele><time>2026-04-19T09:23:15.343Z</time></trkpt><trkpt lat="42.7524158" lon="10.2787785"><ele>268.0</ele><time>2026-04-19T09:23:16.341Z</time></trkpt><trkpt lat="42.752435" lon="10.278667"><ele>271.0</ele><time>2026-04-19T09:23:17.337Z</time></trkpt><trkpt lat="42.7524534" lon="10.2785815"><ele>274.0</ele><time>2026-04-19T09:23:18.336Z</time></trkpt><trkpt lat="42.7525292" lon="10.2785326"><ele>277.0</ele><time>2026-04-19T09:23:20.345Z</time></trkpt><trkpt lat="42.7525848" lon="10.2785797"><ele>280.0</ele><time>2026-04-19T09:23:21.335Z</time></trkpt><trkpt lat="42.7527188" lon="10.2787317"><ele>281.6</ele><time>2026-04-19T09:23:23.349Z</time></trkpt><trkpt lat="42.7527879" lon="10.2788246"><ele>283.2</ele><time>2026-04-19T09:23:24.345Z</time></trkpt><trkpt lat="42.7528534" lon="10.2789198"><ele>284.8</ele><time>2026-04-19T09:23:25.342Z</time></trkpt><trkpt lat="42.7529112" lon="10.2790241"><ele>286.4</ele><time>2026-04-19T09:23:26.344Z</time></trkpt><trkpt lat="42.7529751" lon="10.2791169"><ele>288.0</ele><time>2026-04-19T09:23:27.346Z</time></trkpt><trkpt lat="42.7530512" lon="10.2792056"><ele>285.0</ele><time>2026-04-19T09:23:28.346Z</time></trkpt><trkpt lat="42.7531278" lon="10.2792692"><ele>282.0</ele><time>2026-04-19T09:23:29.347Z</time></trkpt><trkpt lat="42.7532019" lon="10.2793148"><ele>279.0</ele><time>2026-04-19T09:23:30.345Z</time></trkpt><trkpt lat="42.7532788" lon="10.2793571"><ele>276.0</ele><time>2026-04-19T09:23:31.349Z</time></trkpt><trkpt lat="42.7533443" lon="10.2793962"><ele>273.0</ele><time>2026-04-19T09:23:32.346Z</time></trkpt><trkpt lat="42.7533923" lon="10.2794983"><ele>270.0</ele><time>2026-04-19T09:23:34.342Z</time></trkpt><trkpt lat="42.7533468" lon="10.2796628"><ele>270.0</ele><time>2026-04-19T09:23:36.34Z</time></trkpt><trkpt lat="42.7533335" lon="10.2797603"><ele>270.0</ele><time>2026-04-19T09:23:37.343Z</time></trkpt><trkpt lat="42.7533245" lon="10.2798721"><ele>270.0</ele><time>2026-04-19T09:23:38.342Z</time></trkpt><trkpt lat="42.7533129" lon="10.2799879"><ele>270.0</ele><time>2026-04-19T09:23:39.342Z</time></trkpt><trkpt lat="42.7532972" lon="10.2801048"><ele>270.0</ele><time>2026-04-19T09:23:40.345Z</time></trkpt><trkpt lat="42.7532861" lon="10.2802175"><ele>270.0</ele><time>2026-04-19T09:23:41.343Z</time></trkpt><trkpt lat="42.7532739" lon="10.2803327"><ele>268.8</ele><time>2026-04-19T09:23:42.341Z</time></trkpt><trkpt lat="42.7532626" lon="10.2805565"><ele>267.6</ele><time>2026-04-19T09:23:44.343Z</time></trkpt><trkpt lat="42.7532545" lon="10.2806588"><ele>266.4</ele><time>2026-04-19T09:23:45.346Z</time></trkpt><trkpt lat="42.7532508" lon="10.2807619"><ele>265.2</ele><time>2026-04-19T09:23:46.34Z</time></trkpt><trkpt lat="42.7532506" lon="10.2808719"><ele>264.0</ele><time>2026-04-19T09:23:47.343Z</time></trkpt><trkpt lat="42.7532593" lon="10.2809849"><ele>263.0</ele><time>2026-04-19T09:23:48.342Z</time></trkpt><trkpt lat="42.7532734" lon="10.2811041"><ele>262.0</ele><time>2026-04-19T09:23:49.344Z</time></trkpt><trkpt lat="42.7532958" lon="10.28123"><ele>261.0</ele><time>2026-04-19T09:23:50.346Z</time></trkpt><trkpt lat="42.7533279" lon="10.2813492"><ele>260.0</ele><time>2026-04-19T09:23:51.348Z</time></trkpt><trkpt lat="42.753369" lon="10.2814613"><ele>259.0</ele><time>2026-04-19T09:23:52.344Z</time></trkpt><trkpt lat="42.753417" lon="10.2815623"><ele>259.2</ele><time>2026-04-19T09:23:53.349Z</time></trkpt><trkpt lat="42.7534774" lon="10.2816546"><ele>259.4</ele><time>2026-04-19T09:23:54.341Z</time></trkpt><trkpt lat="42.7535525" lon="10.2817439"><ele>259.6</ele><time>2026-04-19T09:23:55.344Z</time></trkpt><trkpt lat="42.7536476" lon="10.281827"><ele>259.8</ele><time>2026-04-19T09:23:56.35Z</time></trkpt><trkpt lat="42.7537471" lon="10.28188"><ele>260.0</ele><time>2026-04-19T09:23:57.347Z</time></trkpt><trkpt lat="42.7538466" lon="10.2819096"><ele>260.0</ele><time>2026-04-19T09:23:58.353Z</time></trkpt><trkpt lat="42.7539357" lon="10.2819321"><ele>260.0</ele><time>2026-04-19T09:23:59.357Z</time></trkpt><trkpt lat="42.7540085" lon="10.2819644"><ele>260.0</ele><time>2026-04-19T09:24:00.351Z</time></trkpt><trkpt lat="42.7540718" lon="10.2820138"><ele>260.0</ele><time>2026-04-19T09:24:01.354Z</time></trkpt><trkpt lat="42.7541279" lon="10.2820821"><ele>260.0</ele><time>2026-04-19T09:24:02.351Z</time></trkpt><trkpt lat="42.7541785" lon="10.2821696"><ele>260.0</ele><time>2026-04-19T09:24:03.349Z</time></trkpt><trkpt lat="42.7542691" lon="10.282395"><ele>257.33333333333337</ele><time>2026-04-19T09:24:05.342Z</time></trkpt><trkpt lat="42.7543284" lon="10.282522"><ele>254.66666666666669</ele><time>2026-04-19T09:24:06.35Z</time></trkpt><trkpt lat="42.7543911" lon="10.2826343"><ele>252.0</ele><time>2026-04-19T09:24:07.343Z</time></trkpt><trkpt lat="42.754449" lon="10.2827185"><ele>249.33333333333331</ele><time>2026-04-19T09:24:08.351Z</time></trkpt><trkpt lat="42.7545039" lon="10.2827737"><ele>246.66666666666666</ele><time>2026-04-19T09:24:09.351Z</time></trkpt><trkpt lat="42.7545644" lon="10.2827992"><ele>244.0</ele><time>2026-04-19T09:24:10.348Z</time></trkpt><trkpt lat="42.7546372" lon="10.2827834"><ele>242.79999999999998</ele><time>2026-04-19T09:24:11.355Z</time></trkpt><trkpt lat="42.7547206" lon="10.2827304"><ele>241.59999999999997</ele><time>2026-04-19T09:24:12.341Z</time></trkpt><trkpt lat="42.7547917" lon="10.2826573"><ele>240.4</ele><time>2026-04-19T09:24:13.352Z</time></trkpt><trkpt lat="42.7548487" lon="10.2825471"><ele>239.2</ele><time>2026-04-19T09:24:14.349Z</time></trkpt><trkpt lat="42.754902" lon="10.2824059"><ele>238.0</ele><time>2026-04-19T09:24:15.344Z</time></trkpt><trkpt lat="42.7549506" lon="10.2822573"><ele>241.4</ele><time>2026-04-19T09:24:16.347Z</time></trkpt><trkpt lat="42.7549987" lon="10.2821102"><ele>244.8</ele><time>2026-04-19T09:24:17.345Z</time></trkpt><trkpt lat="42.7550394" lon="10.2819709"><ele>248.2</ele><time>2026-04-19T09:24:18.35Z</time></trkpt><trkpt lat="42.7550729" lon="10.2818401"><ele>251.6</ele><time>2026-04-19T09:24:19.353Z</time></trkpt><trkpt lat="42.7550995" lon="10.2817221"><ele>255.0</ele><time>2026-04-19T09:24:20.351Z</time></trkpt><trkpt lat="42.7551201" lon="10.2816224"><ele>255.0</ele><time>2026-04-19T09:24:21.35Z</time></trkpt><trkpt lat="42.7551669" lon="10.2814937"><ele>255.0</ele><time>2026-04-19T09:24:23.344Z</time></trkpt><trkpt lat="42.7552574" lon="10.2814735"><ele>255.0</ele><time>2026-04-19T09:24:25.342Z</time></trkpt><trkpt lat="42.7554373" lon="10.2815869"><ele>255.0</ele><time>2026-04-19T09:24:27.343Z</time></trkpt><trkpt lat="42.7555238" lon="10.2816623"><ele>255.2</ele><time>2026-04-19T09:24:28.348Z</time></trkpt><trkpt lat="42.7556042" lon="10.2817351"><ele>255.4</ele><time>2026-04-19T09:24:29.346Z</time></trkpt><trkpt lat="42.7556873" lon="10.2818074"><ele>255.60000000000002</ele><time>2026-04-19T09:24:30.34Z</time></trkpt><trkpt lat="42.7557757" lon="10.2818778"><ele>255.8</ele><time>2026-04-19T09:24:31.344Z</time></trkpt><trkpt lat="42.7558615" lon="10.2819404"><ele>256.0</ele><time>2026-04-19T09:24:32.334Z</time></trkpt><trkpt lat="42.7559424" lon="10.2820041"><ele>255.99999999999997</ele><time>2026-04-19T09:24:33.333Z</time></trkpt><trkpt lat="42.7560226" lon="10.2820735"><ele>256.0</ele><time>2026-04-19T09:24:34.338Z</time></trkpt><trkpt lat="42.7561016" lon="10.2821442"><ele>256.0</ele><time>2026-04-19T09:24:35.335Z</time></trkpt><trkpt lat="42.7561703" lon="10.2822163"><ele>256.0</ele><time>2026-04-19T09:24:36.329Z</time></trkpt><trkpt lat="42.7562258" lon="10.2822855"><ele>255.99999999999997</ele><time>2026-04-19T09:24:37.328Z</time></trkpt><trkpt lat="42.7562692" lon="10.2823686"><ele>256.0</ele><time>2026-04-19T09:24:38.331Z</time></trkpt><trkpt lat="42.7562989" lon="10.2824708"><ele>255.33333333333331</ele><time>2026-04-19T09:24:39.336Z</time></trkpt><trkpt lat="42.7563089" lon="10.2825703"><ele>254.66666666666666</ele><time>2026-04-19T09:24:40.334Z</time></trkpt><trkpt lat="42.7563171" lon="10.28266"><ele>254.0</ele><time>2026-04-19T09:24:41.337Z</time></trkpt><trkpt lat="42.7563328" lon="10.2827637"><ele>253.33333333333331</ele><time>2026-04-19T09:24:42.347Z</time></trkpt><trkpt lat="42.7563531" lon="10.2828851"><ele>252.66666666666666</ele><time>2026-04-19T09:24:43.342Z</time></trkpt><trkpt lat="42.7563657" lon="10.2830123"><ele>252.0</ele><time>2026-04-19T09:24:44.34Z</time></trkpt><trkpt lat="42.7563648" lon="10.283118"><ele>248.75</ele><time>2026-04-19T09:24:45.346Z</time></trkpt><trkpt lat="42.7563824" lon="10.2832267"><ele>245.5</ele><time>2026-04-19T09:24:46.34Z</time></trkpt><trkpt lat="42.7564982" lon="10.2834315"><ele>242.25</ele><time>2026-04-19T09:24:48.345Z</time></trkpt><trkpt lat="42.7565873" lon="10.2835254"><ele>239.0</ele><time>2026-04-19T09:24:49.35Z</time></trkpt><trkpt lat="42.7566682" lon="10.2836109"><ele>239.00000000000003</ele><time>2026-04-19T09:24:50.351Z</time></trkpt><trkpt lat="42.7567413" lon="10.2836928"><ele>239.0</ele><time>2026-04-19T09:24:51.349Z</time></trkpt><trkpt lat="42.7568057" lon="10.2837783"><ele>239.0</ele><time>2026-04-19T09:24:52.342Z</time></trkpt><trkpt lat="42.7568632" lon="10.2838695"><ele>239.0</ele><time>2026-04-19T09:24:53.351Z</time></trkpt><trkpt lat="42.7569117" lon="10.2839654"><ele>239.00000000000003</ele><time>2026-04-19T09:24:54.346Z</time></trkpt><trkpt lat="42.7569581" lon="10.2840672"><ele>239.0</ele><time>2026-04-19T09:24:55.348Z</time></trkpt><trkpt lat="42.7570129" lon="10.2841662"><ele>236.83333333333334</ele><time>2026-04-19T09:24:56.347Z</time></trkpt><trkpt lat="42.7570738" lon="10.2842511"><ele>234.66666666666669</ele><time>2026-04-19T09:24:57.345Z</time></trkpt><trkpt lat="42.7571369" lon="10.284316"><ele>232.5</ele><time>2026-04-19T09:24:58.351Z</time></trkpt><trkpt lat="42.7572042" lon="10.2843922"><ele>230.33333333333331</ele><time>2026-04-19T09:24:59.352Z</time></trkpt><trkpt lat="42.7572675" lon="10.2844696"><ele>228.16666666666666</ele><time>2026-04-19T09:25:00.354Z</time></trkpt><trkpt lat="42.7573327" lon="10.2845353"><ele>226.0</ele><time>2026-04-19T09:25:01.356Z</time></trkpt><trkpt lat="42.7574063" lon="10.2845726"><ele>225.99999999999997</ele><time>2026-04-19T09:25:02.352Z</time></trkpt><trkpt lat="42.7574881" lon="10.2845742"><ele>226.0</ele><time>2026-04-19T09:25:03.351Z</time></trkpt><trkpt lat="42.7575701" lon="10.28454"><ele>226.0</ele><time>2026-04-19T09:25:04.343Z</time></trkpt><trkpt lat="42.7576447" lon="10.2844888"><ele>226.0</ele><time>2026-04-19T09:25:05.346Z</time></trkpt><trkpt lat="42.7577114" lon="10.284433"><ele>225.99999999999997</ele><time>2026-04-19T09:25:06.346Z</time></trkpt><trkpt lat="42.7577784" lon="10.2843774"><ele>226.0</ele><time>2026-04-19T09:25:07.344Z</time></trkpt><trkpt lat="42.7578934" lon="10.2842416"><ele>226.16666666666666</ele><time>2026-04-19T09:25:09.346Z</time></trkpt><trkpt lat="42.7579359" lon="10.2841615"><ele>226.33333333333331</ele><time>2026-04-19T09:25:10.342Z</time></trkpt><trkpt lat="42.7579743" lon="10.2840733"><ele>226.5</ele><time>2026-04-19T09:25:11.343Z</time></trkpt><trkpt lat="42.7580077" lon="10.2839809"><ele>226.66666666666669</ele><time>2026-04-19T09:25:12.345Z</time></trkpt><trkpt lat="42.7580739" lon="10.2838675"><ele>226.83333333333334</ele><time>2026-04-19T09:25:14.342Z</time></trkpt><trkpt lat="42.7581606" lon="10.2838675"><ele>227.0</ele><time>2026-04-19T09:25:16.352Z</time></trkpt><trkpt lat="42.7582453" lon="10.2839919"><ele>225.16666666666669</ele><time>2026-04-19T09:25:18.351Z</time></trkpt><trkpt lat="42.758278" lon="10.2840843"><ele>223.33333333333334</ele><time>2026-04-19T09:25:19.35Z</time></trkpt><trkpt lat="42.7583162" lon="10.2841682"><ele>221.5</ele><time>2026-04-19T09:25:20.353Z</time></trkpt><trkpt lat="42.7583647" lon="10.2842596"><ele>219.66666666666669</ele><time>2026-04-19T09:25:21.349Z</time></trkpt><trkpt lat="42.7584137" lon="10.2843502"><ele>217.83333333333334</ele><time>2026-04-19T09:25:22.349Z</time></trkpt><trkpt lat="42.7584624" lon="10.2844334"><ele>216.0</ele><time>2026-04-19T09:25:23.354Z</time></trkpt><trkpt lat="42.7585172" lon="10.2845067"><ele>215.20000000000002</ele><time>2026-04-19T09:25:24.353Z</time></trkpt><trkpt lat="42.7585782" lon="10.2845754"><ele>214.40000000000003</ele><time>2026-04-19T09:25:25.347Z</time></trkpt><trkpt lat="42.7586467" lon="10.2846476"><ele>213.6</ele><time>2026-04-19T09:25:26.351Z</time></trkpt><trkpt lat="42.7587236" lon="10.2847172"><ele>212.8</ele><time>2026-04-19T09:25:27.351Z</time></trkpt><trkpt lat="42.7588022" lon="10.2847926"><ele>212.0</ele><time>2026-04-19T09:25:28.354Z</time></trkpt><trkpt lat="42.7589511" lon="10.2849477"><ele>210.50000000000003</ele><time>2026-04-19T09:25:30.354Z</time></trkpt><trkpt lat="42.7590138" lon="10.2850241"><ele>209.0</ele><time>2026-04-19T09:25:31.354Z</time></trkpt><trkpt lat="42.7590665" lon="10.2851038"><ele>207.5</ele><time>2026-04-19T09:25:32.353Z</time></trkpt><trkpt lat="42.7591191" lon="10.2851698"><ele>206.0</ele><time>2026-04-19T09:25:33.353Z</time></trkpt><trkpt lat="42.759172" lon="10.2852288"><ele>204.50000000000003</ele><time>2026-04-19T09:25:34.351Z</time></trkpt><trkpt lat="42.759266" lon="10.2853126"><ele>203.0</ele><time>2026-04-19T09:25:36.348Z</time></trkpt><trkpt lat="42.7593256" lon="10.2853527"><ele>203.0</ele><time>2026-04-19T09:25:38.35Z</time></trkpt><trkpt lat="42.7592314" lon="10.2853955"><ele>203.0</ele><time>2026-04-19T09:25:53.354Z</time></trkpt><trkpt lat="42.7590893" lon="10.2853837"><ele>203.0</ele><time>2026-04-19T09:25:55.351Z</time></trkpt><trkpt lat="42.7590224" lon="10.2853873"><ele>203.0</ele><time>2026-04-19T09:25:56.345Z</time></trkpt><trkpt lat="42.7589564" lon="10.2853855"><ele>203.0</ele><time>2026-04-19T09:25:57.349Z</time></trkpt><trkpt lat="42.7588504" lon="10.2853748"><ele>203.00000000000003</ele><time>2026-04-19T09:25:59.346Z</time></trkpt><trkpt lat="42.7587412" lon="10.285344"><ele>203.0</ele><time>2026-04-19T09:26:01.346Z</time></trkpt><trkpt lat="42.7586502" lon="10.2853446"><ele>203.0</ele><time>2026-04-19T09:26:03.342Z</time></trkpt><trkpt lat="42.7586065" lon="10.2854373"><ele>203.0</ele><time>2026-04-19T09:26:05.343Z</time></trkpt><trkpt lat="42.7586153" lon="10.2855565"><ele>203.00000000000003</ele><time>2026-04-19T09:26:07.346Z</time></trkpt><trkpt lat="42.7586254" lon="10.2856516"><ele>203.0</ele><time>2026-04-19T09:26:09.347Z</time></trkpt><trkpt lat="42.7585822" lon="10.2857386"><ele>199.2</ele><time>2026-04-19T09:26:12.346Z</time></trkpt><trkpt lat="42.7584994" lon="10.28577"><ele>195.4</ele><time>2026-04-19T09:26:15.353Z</time></trkpt><trkpt lat="42.7583421" lon="10.2858195"><ele>191.6</ele><time>2026-04-19T09:26:20.344Z</time></trkpt><trkpt lat="42.7582629" lon="10.285853"><ele>187.79999999999998</ele><time>2026-04-19T09:26:22.35Z</time></trkpt><trkpt lat="42.7581676" lon="10.285938"><ele>184.0</ele><time>2026-04-19T09:26:24.344Z</time></trkpt><trkpt lat="42.7581167" lon="10.2859896"><ele>184.0</ele><time>2026-04-19T09:26:25.348Z</time></trkpt><trkpt lat="42.7580226" lon="10.2860922"><ele>184.0</ele><time>2026-04-19T09:26:27.344Z</time></trkpt><trkpt lat="42.7579231" lon="10.2861785"><ele>184.0</ele><time>2026-04-19T09:26:29.346Z</time></trkpt><trkpt lat="42.757824" lon="10.2862416"><ele>184.0</ele><time>2026-04-19T09:26:31.35Z</time></trkpt><trkpt lat="42.7577324" lon="10.2862868"><ele>184.0</ele><time>2026-04-19T09:26:33.351Z</time></trkpt><trkpt lat="42.7576408" lon="10.2863193"><ele>184.6</ele><time>2026-04-19T09:26:35.343Z</time></trkpt><trkpt lat="42.7575446" lon="10.28636"><ele>185.2</ele><time>2026-04-19T09:26:37.345Z</time></trkpt><trkpt lat="42.757371" lon="10.2864267"><ele>185.79999999999998</ele><time>2026-04-19T09:26:41.348Z</time></trkpt><trkpt lat="42.7573021" lon="10.2864367"><ele>186.39999999999998</ele><time>2026-04-19T09:26:43.347Z</time></trkpt><trkpt lat="42.7572306" lon="10.2864283"><ele>187.0</ele><time>2026-04-19T09:26:45.344Z</time></trkpt><trkpt lat="42.7571201" lon="10.2863968"><ele>187.0</ele><time>2026-04-19T09:26:47.342Z</time></trkpt><trkpt lat="42.7570115" lon="10.2863613"><ele>187.0</ele><time>2026-04-19T09:26:49.342Z</time></trkpt><trkpt lat="42.7569168" lon="10.2862959"><ele>187.0</ele><time>2026-04-19T09:26:51.344Z</time></trkpt><trkpt lat="42.7568319" lon="10.2862035"><ele>187.0</ele><time>2026-04-19T09:26:53.347Z</time></trkpt><trkpt lat="42.7567516" lon="10.2860723"><ele>182.39999999999998</ele><time>2026-04-19T09:26:55.341Z</time></trkpt><trkpt lat="42.7567003" lon="10.2859818"><ele>177.79999999999998</ele><time>2026-04-19T09:26:56.338Z</time></trkpt><trkpt lat="42.7566414" lon="10.2858939"><ele>173.2</ele><time>2026-04-19T09:26:57.341Z</time></trkpt><trkpt lat="42.756584" lon="10.2858157"><ele>168.6</ele><time>2026-04-19T09:26:58.339Z</time></trkpt><trkpt lat="42.7564777" lon="10.2856802"><ele>164.0</ele><time>2026-04-19T09:27:00.34Z</time></trkpt><trkpt lat="42.7564287" lon="10.2856146"><ele>168.16666666666666</ele><time>2026-04-19T09:27:01.345Z</time></trkpt><trkpt lat="42.7563814" lon="10.2855457"><ele>172.33333333333331</ele><time>2026-04-19T09:27:02.339Z</time></trkpt><trkpt lat="42.7563352" lon="10.2854808"><ele>176.5</ele><time>2026-04-19T09:27:03.34Z</time></trkpt><trkpt lat="42.7562864" lon="10.2854119"><ele>180.66666666666666</ele><time>2026-04-19T09:27:04.351Z</time></trkpt><trkpt lat="42.7562289" lon="10.2853356"><ele>184.83333333333334</ele><time>2026-04-19T09:27:05.337Z</time></trkpt><trkpt lat="42.7561671" lon="10.2852495"><ele>189.0</ele><time>2026-04-19T09:27:06.341Z</time></trkpt><trkpt lat="42.756111" lon="10.2851642"><ele>189.0</ele><time>2026-04-19T09:27:07.345Z</time></trkpt><trkpt lat="42.7560578" lon="10.2850752"><ele>189.0</ele><time>2026-04-19T09:27:08.342Z</time></trkpt><trkpt lat="42.7560064" lon="10.2849787"><ele>189.0</ele><time>2026-04-19T09:27:09.34Z</time></trkpt><trkpt lat="42.7559484" lon="10.2848715"><ele>189.0</ele><time>2026-04-19T09:27:10.34Z</time></trkpt><trkpt lat="42.7558861" lon="10.2847562"><ele>189.0</ele><time>2026-04-19T09:27:11.341Z</time></trkpt><trkpt lat="42.7558288" lon="10.2846412"><ele>187.33333333333334</ele><time>2026-04-19T09:27:12.344Z</time></trkpt><trkpt lat="42.7557772" lon="10.2845246"><ele>185.66666666666666</ele><time>2026-04-19T09:27:13.341Z</time></trkpt><trkpt lat="42.7557294" lon="10.2844062"><ele>184.0</ele><time>2026-04-19T09:27:14.346Z</time></trkpt><trkpt lat="42.7556789" lon="10.2842941"><ele>182.33333333333331</ele><time>2026-04-19T09:27:15.335Z</time></trkpt><trkpt lat="42.7556283" lon="10.2842038"><ele>180.66666666666666</ele><time>2026-04-19T09:27:16.33Z</time></trkpt><trkpt lat="42.7555785" lon="10.2841472"><ele>179.0</ele><time>2026-04-19T09:27:17.342Z</time></trkpt><trkpt lat="42.7555158" lon="10.2841648"><ele>179.0</ele><time>2026-04-19T09:27:19.328Z</time></trkpt><trkpt lat="42.7553966" lon="10.2844072"><ele>179.0</ele><time>2026-04-19T09:27:23.33Z</time></trkpt><trkpt lat="42.7553589" lon="10.2844801"><ele>179.0</ele><time>2026-04-19T09:27:24.325Z</time></trkpt><trkpt lat="42.7553118" lon="10.2845568"><ele>179.0</ele><time>2026-04-19T09:27:25.326Z</time></trkpt><trkpt lat="42.7552662" lon="10.2846231"><ele>179.0</ele><time>2026-04-19T09:27:26.326Z</time></trkpt><trkpt lat="42.7551971" lon="10.28472"><ele>174.5</ele><time>2026-04-19T09:27:28.334Z</time></trkpt><trkpt lat="42.755131" lon="10.2848402"><ele>170.0</ele><time>2026-04-19T09:27:30.325Z</time></trkpt><trkpt lat="42.7550966" lon="10.2849141"><ele>165.5</ele><time>2026-04-19T09:27:31.334Z</time></trkpt><trkpt lat="42.7550572" lon="10.2850026"><ele>161.0</ele><time>2026-04-19T09:27:32.33Z</time></trkpt><trkpt lat="42.7550076" lon="10.2850903"><ele>156.5</ele><time>2026-04-19T09:27:33.331Z</time></trkpt><trkpt lat="42.7549576" lon="10.2851845"><ele>152.0</ele><time>2026-04-19T09:27:34.325Z</time></trkpt><trkpt lat="42.7549159" lon="10.2852796"><ele>152.0</ele><time>2026-04-19T09:27:35.33Z</time></trkpt><trkpt lat="42.7548807" lon="10.2853717"><ele>152.0</ele><time>2026-04-19T09:27:36.327Z</time></trkpt><trkpt lat="42.7548515" lon="10.2854531"><ele>152.0</ele><time>2026-04-19T09:27:37.326Z</time></trkpt><trkpt lat="42.7548033" lon="10.2855872"><ele>152.0</ele><time>2026-04-19T09:27:39.321Z</time></trkpt><trkpt lat="42.7547761" lon="10.2856882"><ele>152.0</ele><time>2026-04-19T09:27:41.328Z</time></trkpt><trkpt lat="42.7546835" lon="10.2859062"><ele>146.6</ele><time>2026-04-19T09:27:45.331Z</time></trkpt><trkpt lat="42.7546281" lon="10.2860321"><ele>141.2</ele><time>2026-04-19T09:27:47.33Z</time></trkpt><trkpt lat="42.7545748" lon="10.2861574"><ele>135.8</ele><time>2026-04-19T09:27:49.332Z</time></trkpt><trkpt lat="42.7545409" lon="10.2862354"><ele>130.4</ele><time>2026-04-19T09:27:56.337Z</time></trkpt><trkpt lat="42.7544563" lon="10.2863285"><ele>125.0</ele><time>2026-04-19T09:27:58.342Z</time></trkpt><trkpt lat="42.7543901" lon="10.2863683"><ele>129.25</ele><time>2026-04-19T09:27:59.344Z</time></trkpt><trkpt lat="42.7542699" lon="10.286366"><ele>133.5</ele><time>2026-04-19T09:28:01.354Z</time></trkpt><trkpt lat="42.7542072" lon="10.2863147"><ele>137.75</ele><time>2026-04-19T09:28:02.342Z</time></trkpt><trkpt lat="42.7540739" lon="10.286142"><ele>142.0</ele><time>2026-04-19T09:28:04.342Z</time></trkpt><trkpt lat="42.754012" lon="10.2860426"><ele>142.0</ele><time>2026-04-19T09:28:05.341Z</time></trkpt><trkpt lat="42.7539627" lon="10.2859488"><ele>142.0</ele><time>2026-04-19T09:28:06.34Z</time></trkpt><trkpt lat="42.7539225" lon="10.285839"><ele>142.0</ele><time>2026-04-19T09:28:07.345Z</time></trkpt><trkpt lat="42.7538903" lon="10.2857089"><ele>142.0</ele><time>2026-04-19T09:28:08.339Z</time></trkpt><trkpt lat="42.7538608" lon="10.2855998"><ele>142.0</ele><time>2026-04-19T09:28:09.339Z</time></trkpt><trkpt lat="42.7538364" lon="10.2855128"><ele>142.0</ele><time>2026-04-19T09:28:10.336Z</time></trkpt><trkpt lat="42.7537966" lon="10.2853891"><ele>145.66666666666669</ele><time>2026-04-19T09:28:12.337Z</time></trkpt><trkpt lat="42.7537457" lon="10.2852437"><ele>149.33333333333334</ele><time>2026-04-19T09:28:14.33Z</time></trkpt><trkpt lat="42.7537092" lon="10.2851591"><ele>153.0</ele><time>2026-04-19T09:28:15.335Z</time></trkpt><trkpt lat="42.7536673" lon="10.2850653"><ele>156.66666666666666</ele><time>2026-04-19T09:28:16.333Z</time></trkpt><trkpt lat="42.7536261" lon="10.2849783"><ele>160.33333333333331</ele><time>2026-04-19T09:28:17.333Z</time></trkpt><trkpt lat="42.7535845" lon="10.2848993"><ele>164.0</ele><time>2026-04-19T09:28:18.329Z</time></trkpt><trkpt lat="42.7535482" lon="10.2848201"><ele>164.25</ele><time>2026-04-19T09:28:19.334Z</time></trkpt><trkpt lat="42.7535087" lon="10.2847332"><ele>164.5</ele><time>2026-04-19T09:28:20.331Z</time></trkpt><trkpt lat="42.7534708" lon="10.2846612"><ele>164.75</ele><time>2026-04-19T09:28:21.326Z</time></trkpt><trkpt lat="42.7533912" lon="10.2846079"><ele>165.0</ele><time>2026-04-19T09:28:23.323Z</time></trkpt><trkpt lat="42.7531723" lon="10.2847061"><ele>165.0</ele><time>2026-04-19T09:28:26.319Z</time></trkpt><trkpt lat="42.7530797" lon="10.2847411"><ele>165.0</ele><time>2026-04-19T09:28:27.326Z</time></trkpt><trkpt lat="42.7529934" lon="10.2847744"><ele>165.0</ele><time>2026-04-19T09:28:28.325Z</time></trkpt><trkpt lat="42.7529077" lon="10.2848035"><ele>165.0</ele><time>2026-04-19T09:28:29.329Z</time></trkpt><trkpt lat="42.7528402" lon="10.284811"><ele>165.0</ele><time>2026-04-19T09:28:30.327Z</time></trkpt><trkpt lat="42.752735" lon="10.284803"><ele>165.0</ele><time>2026-04-19T09:28:32.333Z</time></trkpt><trkpt lat="42.7526437" lon="10.284787"><ele>163.33333333333334</ele><time>2026-04-19T09:28:34.332Z</time></trkpt><trkpt lat="42.7525557" lon="10.284763"><ele>161.66666666666666</ele><time>2026-04-19T09:28:36.333Z</time></trkpt><trkpt lat="42.7524776" lon="10.2847468"><ele>160.0</ele><time>2026-04-19T09:28:38.332Z</time></trkpt><trkpt lat="42.7524082" lon="10.2847261"><ele>158.33333333333331</ele><time>2026-04-19T09:28:40.327Z</time></trkpt><trkpt lat="42.7523348" lon="10.2847005"><ele>156.66666666666666</ele><time>2026-04-19T09:28:42.327Z</time></trkpt><trkpt lat="42.7522533" lon="10.2846907"><ele>155.0</ele><time>2026-04-19T09:28:44.327Z</time></trkpt><trkpt lat="42.7521371" lon="10.2848055"><ele>146.0</ele><time>2026-04-19T09:28:48.321Z</time></trkpt><trkpt lat="42.7521251" lon="10.2849326"><ele>137.0</ele><time>2026-04-19T09:28:50.33Z</time></trkpt><trkpt lat="42.7521459" lon="10.2850286"><ele>128.0</ele><time>2026-04-19T09:29:33.324Z</time></trkpt><trkpt lat="42.7522195" lon="10.2853106"><ele>119.0</ele><time>2026-04-19T09:29:36.322Z</time></trkpt><trkpt lat="42.7522412" lon="10.2854282"><ele>119.0</ele><time>2026-04-19T09:29:37.318Z</time></trkpt><trkpt lat="42.7522635" lon="10.2855334"><ele>119.0</ele><time>2026-04-19T09:29:38.321Z</time></trkpt><trkpt lat="42.7522819" lon="10.285625"><ele>119.0</ele><time>2026-04-19T09:29:39.328Z</time></trkpt><trkpt lat="42.7523157" lon="10.2857613"><ele>119.0</ele><time>2026-04-19T09:29:41.327Z</time></trkpt><trkpt lat="42.7523414" lon="10.2858876"><ele>119.0</ele><time>2026-04-19T09:29:43.329Z</time></trkpt><trkpt lat="42.7523431" lon="10.2860424"><ele>116.66666666666666</ele><time>2026-04-19T09:29:45.321Z</time></trkpt><trkpt lat="42.7523429" lon="10.2861364"><ele>114.33333333333333</ele><time>2026-04-19T09:29:46.326Z</time></trkpt><trkpt lat="42.7523273" lon="10.286238"><ele>112.0</ele><time>2026-04-19T09:29:47.323Z</time></trkpt><trkpt lat="42.7523009" lon="10.2863454"><ele>109.66666666666666</ele><time>2026-04-19T09:29:48.327Z</time></trkpt><trkpt lat="42.7522778" lon="10.2864576"><ele>107.33333333333333</ele><time>2026-04-19T09:29:49.325Z</time></trkpt><trkpt lat="42.752258" lon="10.2865851"><ele>105.0</ele><time>2026-04-19T09:29:50.325Z</time></trkpt><trkpt lat="42.7522411" lon="10.2867065"><ele>103.33333333333333</ele><time>2026-04-19T09:29:51.329Z</time></trkpt><trkpt lat="42.7522286" lon="10.2868187"><ele>101.66666666666667</ele><time>2026-04-19T09:29:52.329Z</time></trkpt><trkpt lat="42.752214" lon="10.2869215"><ele>100.0</ele><time>2026-04-19T09:29:53.332Z</time></trkpt><trkpt lat="42.7521926" lon="10.2870165"><ele>98.33333333333334</ele><time>2026-04-19T09:29:54.33Z</time></trkpt><trkpt lat="42.7521537" lon="10.2871878"><ele>96.66666666666667</ele><time>2026-04-19T09:29:56.338Z</time></trkpt><trkpt lat="42.7521332" lon="10.2872702"><ele>95.0</ele><time>2026-04-19T09:29:57.342Z</time></trkpt><trkpt lat="42.7521068" lon="10.2874132"><ele>96.83333333333334</ele><time>2026-04-19T09:29:59.343Z</time></trkpt><trkpt lat="42.7520688" lon="10.2875282"><ele>98.66666666666667</ele><time>2026-04-19T09:30:01.344Z</time></trkpt><trkpt lat="42.7520056" lon="10.287616"><ele>100.5</ele><time>2026-04-19T09:30:03.341Z</time></trkpt><trkpt lat="42.7519175" lon="10.287649"><ele>102.33333333333334</ele><time>2026-04-19T09:30:05.332Z</time></trkpt><trkpt lat="42.7518495" lon="10.2876719"><ele>104.16666666666667</ele><time>2026-04-19T09:30:06.339Z</time></trkpt><trkpt lat="42.7517765" lon="10.2876989"><ele>106.0</ele><time>2026-04-19T09:30:07.343Z</time></trkpt><trkpt lat="42.7516715" lon="10.28773"><ele>106.0</ele><time>2026-04-19T09:30:09.342Z</time></trkpt><trkpt lat="42.7515873" lon="10.2877204"><ele>106.0</ele><time>2026-04-19T09:30:11.345Z</time></trkpt><trkpt lat="42.7515134" lon="10.287699"><ele>106.0</ele><time>2026-04-19T09:30:13.342Z</time></trkpt><trkpt lat="42.7514432" lon="10.2876592"><ele>106.0</ele><time>2026-04-19T09:30:15.344Z</time></trkpt><trkpt lat="42.7512947" lon="10.2875826"><ele>106.0</ele><time>2026-04-19T09:30:19.347Z</time></trkpt><trkpt lat="42.751209" lon="10.2875537"><ele>106.0</ele><time>2026-04-19T09:30:21.343Z</time></trkpt><trkpt lat="42.7511138" lon="10.2875297"><ele>106.0</ele><time>2026-04-19T09:30:23.345Z</time></trkpt><trkpt lat="42.7510197" lon="10.2875225"><ele>106.0</ele><time>2026-04-19T09:30:25.344Z</time></trkpt><trkpt lat="42.750918" lon="10.2875318"><ele>106.0</ele><time>2026-04-19T09:30:27.345Z</time></trkpt><trkpt lat="42.7508103" lon="10.2875401"><ele>106.0</ele><time>2026-04-19T09:30:29.338Z</time></trkpt><trkpt lat="42.7507074" lon="10.2875553"><ele>104.0</ele><time>2026-04-19T09:30:31.35Z</time></trkpt><trkpt lat="42.7506158" lon="10.2875774"><ele>102.0</ele><time>2026-04-19T09:30:33.347Z</time></trkpt><trkpt lat="42.7505167" lon="10.2876016"><ele>100.0</ele><time>2026-04-19T09:30:35.344Z</time></trkpt><trkpt lat="42.7504139" lon="10.2876342"><ele>98.0</ele><time>2026-04-19T09:30:37.34Z</time></trkpt><trkpt lat="42.7503084" lon="10.2878067"><ele>97.99999999999999</ele><time>2026-04-19T09:30:40.331Z</time></trkpt><trkpt lat="42.7503144" lon="10.2878927"><ele>98.0</ele><time>2026-04-19T09:30:41.345Z</time></trkpt><trkpt lat="42.7503817" lon="10.2880217"><ele>98.0</ele><time>2026-04-19T09:30:43.339Z</time></trkpt><trkpt lat="42.7504572" lon="10.2881026"><ele>98.0</ele><time>2026-04-19T09:30:45.34Z</time></trkpt><trkpt lat="42.7505384" lon="10.2881489"><ele>97.99999999999999</ele><time>2026-04-19T09:30:47.345Z</time></trkpt><trkpt lat="42.7506156" lon="10.2881644"><ele>98.0</ele><time>2026-04-19T09:30:49.339Z</time></trkpt><trkpt lat="42.7507125" lon="10.2881426"><ele>94.2</ele><time>2026-04-19T09:30:51.343Z</time></trkpt><trkpt lat="42.7507928" lon="10.2881175"><ele>90.4</ele><time>2026-04-19T09:30:53.351Z</time></trkpt><trkpt lat="42.7508583" lon="10.2881082"><ele>86.60000000000001</ele><time>2026-04-19T09:30:55.341Z</time></trkpt><trkpt lat="42.7509231" lon="10.2881134"><ele>82.80000000000001</ele><time>2026-04-19T09:30:57.342Z</time></trkpt><trkpt lat="42.750993" lon="10.288116"><ele>79.0</ele><time>2026-04-19T09:30:59.345Z</time></trkpt><trkpt lat="42.7511702" lon="10.2881635"><ele>79.0</ele><time>2026-04-19T09:31:03.338Z</time></trkpt><trkpt lat="42.7512474" lon="10.2882114"><ele>79.0</ele><time>2026-04-19T09:31:05.334Z</time></trkpt><trkpt lat="42.7513152" lon="10.2882661"><ele>79.0</ele><time>2026-04-19T09:31:07.336Z</time></trkpt><trkpt lat="42.7513752" lon="10.288319"><ele>79.0</ele><time>2026-04-19T09:31:09.337Z</time></trkpt><trkpt lat="42.751433" lon="10.2883664"><ele>79.0</ele><time>2026-04-19T09:31:11.341Z</time></trkpt><trkpt lat="42.751505" lon="10.2884226"><ele>79.0</ele><time>2026-04-19T09:31:14.338Z</time></trkpt><trkpt lat="42.7515653" lon="10.2884761"><ele>79.0</ele><time>2026-04-19T09:31:16.34Z</time></trkpt><trkpt lat="42.7516358" lon="10.2885608"><ele>79.0</ele><time>2026-04-19T09:33:22.34Z</time></trkpt><trkpt lat="42.7518284" lon="10.2886791"><ele>79.0</ele><time>2026-04-19T09:33:26.337Z</time></trkpt><trkpt lat="42.7519028" lon="10.2887174"><ele>79.0</ele><time>2026-04-19T09:33:28.345Z</time></trkpt><trkpt lat="42.7519727" lon="10.2887465"><ele>77.0</ele><time>2026-04-19T09:33:30.352Z</time></trkpt><trkpt lat="42.7520362" lon="10.2887743"><ele>75.0</ele><time>2026-04-19T09:33:32.347Z</time></trkpt><trkpt lat="42.7521248" lon="10.2888098"><ele>73.0</ele><time>2026-04-19T09:33:35.352Z</time></trkpt><trkpt lat="42.752207" lon="10.2888233"><ele>71.0</ele><time>2026-04-19T09:33:37.349Z</time></trkpt><trkpt lat="42.7522955" lon="10.2888304"><ele>69.0</ele><time>2026-04-19T09:33:39.339Z</time></trkpt><trkpt lat="42.7523754" lon="10.2888309"><ele>67.0</ele><time>2026-04-19T09:33:41.345Z</time></trkpt><trkpt lat="42.7524618" lon="10.2888217"><ele>67.0</ele><time>2026-04-19T09:33:43.342Z</time></trkpt><trkpt lat="42.7526317" lon="10.2887444"><ele>67.0</ele><time>2026-04-19T09:33:47.348Z</time></trkpt><trkpt lat="42.7527116" lon="10.2886971"><ele>67.0</ele><time>2026-04-19T09:33:49.347Z</time></trkpt><trkpt lat="42.752789" lon="10.2886282"><ele>67.0</ele><time>2026-04-19T09:33:51.346Z</time></trkpt><trkpt lat="42.7528597" lon="10.2885225"><ele>67.0</ele><time>2026-04-19T09:33:53.35Z</time></trkpt><trkpt lat="42.7529289" lon="10.2883983"><ele>67.0</ele><time>2026-04-19T09:33:55.343Z</time></trkpt><trkpt lat="42.7530057" lon="10.2882651"><ele>67.0</ele><time>2026-04-19T09:33:57.343Z</time></trkpt><trkpt lat="42.7530397" lon="10.2881713"><ele>67.0</ele><time>2026-04-19T09:33:58.342Z</time></trkpt><trkpt lat="42.7530721" lon="10.288084"><ele>67.0</ele><time>2026-04-19T09:33:59.345Z</time></trkpt><trkpt lat="42.7531072" lon="10.2880018"><ele>67.0</ele><time>2026-04-19T09:34:00.342Z</time></trkpt><trkpt lat="42.7531515" lon="10.287932"><ele>67.0</ele><time>2026-04-19T09:34:01.339Z</time></trkpt><trkpt lat="42.7532474" lon="10.2878661"><ele>67.0</ele><time>2026-04-19T09:34:03.342Z</time></trkpt><trkpt lat="42.7533383" lon="10.2879245"><ele>67.0</ele><time>2026-04-19T09:34:05.343Z</time></trkpt><trkpt lat="42.7533859" lon="10.288239"><ele>65.16666666666666</ele><time>2026-04-19T09:34:08.337Z</time></trkpt><trkpt lat="42.753417" lon="10.2883521"><ele>63.33333333333333</ele><time>2026-04-19T09:34:09.333Z</time></trkpt><trkpt lat="42.7534593" lon="10.2884528"><ele>61.5</ele><time>2026-04-19T09:34:10.339Z</time></trkpt><trkpt lat="42.7535068" lon="10.28855"><ele>59.66666666666667</ele><time>2026-04-19T09:34:11.342Z</time></trkpt><trkpt lat="42.7535561" lon="10.288633"><ele>57.833333333333336</ele><time>2026-04-19T09:34:12.347Z</time></trkpt><trkpt lat="42.7536089" lon="10.2887002"><ele>56.0</ele><time>2026-04-19T09:34:13.342Z</time></trkpt><trkpt lat="42.7536642" lon="10.2887565"><ele>56.00000000000001</ele><time>2026-04-19T09:34:14.345Z</time></trkpt><trkpt lat="42.7537222" lon="10.2887998"><ele>56.0</ele><time>2026-04-19T09:34:15.349Z</time></trkpt><trkpt lat="42.7537859" lon="10.2888352"><ele>56.0</ele><time>2026-04-19T09:34:16.339Z</time></trkpt><trkpt lat="42.7538559" lon="10.2888622"><ele>56.0</ele><time>2026-04-19T09:34:17.346Z</time></trkpt><trkpt lat="42.7539349" lon="10.2888625"><ele>56.00000000000001</ele><time>2026-04-19T09:34:18.342Z</time></trkpt><trkpt lat="42.7540197" lon="10.2888405"><ele>56.0</ele><time>2026-04-19T09:34:19.346Z</time></trkpt><trkpt lat="42.754108" lon="10.2888"><ele>56.00000000000001</ele><time>2026-04-19T09:34:20.344Z</time></trkpt><trkpt lat="42.7542019" lon="10.2887505"><ele>56.0</ele><time>2026-04-19T09:34:21.349Z</time></trkpt><trkpt lat="42.7542936" lon="10.2886959"><ele>56.0</ele><time>2026-04-19T09:34:22.345Z</time></trkpt><trkpt lat="42.7543763" lon="10.2886609"><ele>56.0</ele><time>2026-04-19T09:34:23.345Z</time></trkpt><trkpt lat="42.7544488" lon="10.2886503"><ele>56.00000000000001</ele><time>2026-04-19T09:34:24.343Z</time></trkpt><trkpt lat="42.7545122" lon="10.2886661"><ele>56.0</ele><time>2026-04-19T09:34:25.343Z</time></trkpt><trkpt lat="42.7545634" lon="10.2888043"><ele>56.199999999999996</ele><time>2026-04-19T09:34:27.338Z</time></trkpt><trkpt lat="42.7545638" lon="10.289002"><ele>56.39999999999999</ele><time>2026-04-19T09:34:29.345Z</time></trkpt><trkpt lat="42.7545692" lon="10.2891083"><ele>56.6</ele><time>2026-04-19T09:34:30.349Z</time></trkpt><trkpt lat="42.7545863" lon="10.2892051"><ele>56.8</ele><time>2026-04-19T09:34:31.35Z</time></trkpt><trkpt lat="42.7546035" lon="10.2892919"><ele>57.0</ele><time>2026-04-19T09:34:32.347Z</time></trkpt><trkpt lat="42.7546436" lon="10.2894553"><ele>57.0</ele><time>2026-04-19T09:34:34.343Z</time></trkpt><trkpt lat="42.7546869" lon="10.2896131"><ele>57.0</ele><time>2026-04-19T09:34:36.35Z</time></trkpt><trkpt lat="42.7547113" lon="10.2896936"><ele>57.0</ele><time>2026-04-19T09:34:37.349Z</time></trkpt><trkpt lat="42.7547383" lon="10.2897803"><ele>57.0</ele><time>2026-04-19T09:34:38.348Z</time></trkpt><trkpt lat="42.7547673" lon="10.2898638"><ele>57.0</ele><time>2026-04-19T09:34:39.348Z</time></trkpt><trkpt lat="42.7547996" lon="10.2899491"><ele>57.0</ele><time>2026-04-19T09:34:40.348Z</time></trkpt><trkpt lat="42.7548317" lon="10.2900235"><ele>54.0</ele><time>2026-04-19T09:34:41.349Z</time></trkpt><trkpt lat="42.7548906" lon="10.2901569"><ele>51.0</ele><time>2026-04-19T09:34:43.345Z</time></trkpt><trkpt lat="42.7549355" lon="10.290309"><ele>48.0</ele><time>2026-04-19T09:34:45.344Z</time></trkpt><trkpt lat="42.754956" lon="10.2904079"><ele>45.0</ele><time>2026-04-19T09:34:46.342Z</time></trkpt><trkpt lat="42.7549831" lon="10.2905139"><ele>42.0</ele><time>2026-04-19T09:34:47.344Z</time></trkpt><trkpt lat="42.7550116" lon="10.2906269"><ele>40.2</ele><time>2026-04-19T09:34:48.349Z</time></trkpt><trkpt lat="42.7550424" lon="10.2908345"><ele>38.400000000000006</ele><time>2026-04-19T09:34:50.35Z</time></trkpt><trkpt lat="42.7550088" lon="10.2909961"><ele>36.599999999999994</ele><time>2026-04-19T09:34:52.346Z</time></trkpt><trkpt lat="42.7549946" lon="10.2910825"><ele>34.8</ele><time>2026-04-19T09:34:53.35Z</time></trkpt><trkpt lat="42.7549914" lon="10.2911798"><ele>33.0</ele><time>2026-04-19T09:34:54.346Z</time></trkpt><trkpt lat="42.7550003" lon="10.2912858"><ele>33.0</ele><time>2026-04-19T09:34:55.346Z</time></trkpt><trkpt lat="42.7550168" lon="10.291403"><ele>33.0</ele><time>2026-04-19T09:34:56.352Z</time></trkpt><trkpt lat="42.7550442" lon="10.2915269"><ele>33.0</ele><time>2026-04-19T09:34:57.347Z</time></trkpt><trkpt lat="42.7550806" lon="10.2916552"><ele>33.0</ele><time>2026-04-19T09:34:58.351Z</time></trkpt><trkpt lat="42.755123" lon="10.2917788"><ele>33.0</ele><time>2026-04-19T09:34:59.35Z</time></trkpt><trkpt lat="42.7551641" lon="10.2918883"><ele>32.833333333333336</ele><time>2026-04-19T09:35:00.349Z</time></trkpt><trkpt lat="42.7552098" lon="10.2919863"><ele>32.666666666666664</ele><time>2026-04-19T09:35:01.353Z</time></trkpt><trkpt lat="42.7552557" lon="10.2920664"><ele>32.5</ele><time>2026-04-19T09:35:02.347Z</time></trkpt><trkpt lat="42.7553091" lon="10.292137"><ele>32.33333333333333</ele><time>2026-04-19T09:35:03.347Z</time></trkpt><trkpt lat="42.7553689" lon="10.2922041"><ele>32.166666666666664</ele><time>2026-04-19T09:35:04.344Z</time></trkpt><trkpt lat="42.7554334" lon="10.2922602"><ele>32.0</ele><time>2026-04-19T09:35:05.343Z</time></trkpt><trkpt lat="42.7554991" lon="10.2922947"><ele>32.0</ele><time>2026-04-19T09:35:06.348Z</time></trkpt><trkpt lat="42.7555629" lon="10.2923216"><ele>32.0</ele><time>2026-04-19T09:35:07.354Z</time></trkpt><trkpt lat="42.7556538" lon="10.2924143"><ele>32.0</ele><time>2026-04-19T09:35:09.351Z</time></trkpt><trkpt lat="42.7556908" lon="10.2926376"><ele>32.0</ele><time>2026-04-19T09:35:12.341Z</time></trkpt><trkpt lat="42.7557327" lon="10.2927095"><ele>32.0</ele><time>2026-04-19T09:35:13.349Z</time></trkpt><trkpt lat="42.7558013" lon="10.2927566"><ele>31.999999999999996</ele><time>2026-04-19T09:35:14.347Z</time></trkpt><trkpt lat="42.755882" lon="10.2927881"><ele>32.0</ele><time>2026-04-19T09:35:15.35Z</time></trkpt><trkpt lat="42.7559629" lon="10.2928257"><ele>32.0</ele><time>2026-04-19T09:35:16.345Z</time></trkpt><trkpt lat="42.7560356" lon="10.2928768"><ele>32.0</ele><time>2026-04-19T09:35:17.343Z</time></trkpt><trkpt lat="42.7560984" lon="10.2929432"><ele>31.999999999999996</ele><time>2026-04-19T09:35:18.347Z</time></trkpt><trkpt lat="42.756152" lon="10.2930268"><ele>32.0</ele><time>2026-04-19T09:35:19.345Z</time></trkpt><trkpt lat="42.7562049" lon="10.2931168"><ele>32.666666666666664</ele><time>2026-04-19T09:35:20.349Z</time></trkpt><trkpt lat="42.7562587" lon="10.2932108"><ele>33.33333333333333</ele><time>2026-04-19T09:35:21.348Z</time></trkpt><trkpt lat="42.7563099" lon="10.2932963"><ele>34.0</ele><time>2026-04-19T09:35:22.348Z</time></trkpt><trkpt lat="42.7563608" lon="10.2933722"><ele>34.666666666666664</ele><time>2026-04-19T09:35:23.352Z</time></trkpt><trkpt lat="42.7564196" lon="10.2934406"><ele>35.333333333333336</ele><time>2026-04-19T09:35:24.351Z</time></trkpt><trkpt lat="42.7564854" lon="10.2935167"><ele>36.0</ele><time>2026-04-19T09:35:25.348Z</time></trkpt><trkpt lat="42.7565471" lon="10.2936079"><ele>36.0</ele><time>2026-04-19T09:35:26.354Z</time></trkpt><trkpt lat="42.7566071" lon="10.2937043"><ele>36.0</ele><time>2026-04-19T09:35:27.353Z</time></trkpt><trkpt lat="42.7566668" lon="10.2937886"><ele>36.0</ele><time>2026-04-19T09:35:28.344Z</time></trkpt><trkpt lat="42.7567351" lon="10.2938557"><ele>36.0</ele><time>2026-04-19T09:35:29.345Z</time></trkpt><trkpt lat="42.7568117" lon="10.2938963"><ele>36.0</ele><time>2026-04-19T09:35:30.353Z</time></trkpt><trkpt lat="42.7569616" lon="10.293936"><ele>36.333333333333336</ele><time>2026-04-19T09:35:32.35Z</time></trkpt><trkpt lat="42.7570225" lon="10.2939897"><ele>36.666666666666664</ele><time>2026-04-19T09:35:33.348Z</time></trkpt><trkpt lat="42.7570762" lon="10.2940661"><ele>37.0</ele><time>2026-04-19T09:35:34.347Z</time></trkpt><trkpt lat="42.7571386" lon="10.2941459"><ele>37.33333333333333</ele><time>2026-04-19T09:35:35.348Z</time></trkpt><trkpt lat="42.7572037" lon="10.2942304"><ele>37.666666666666664</ele><time>2026-04-19T09:35:36.347Z</time></trkpt><trkpt lat="42.7572714" lon="10.2943216"><ele>38.0</ele><time>2026-04-19T09:35:37.352Z</time></trkpt><trkpt lat="42.7573388" lon="10.2944244"><ele>38.0</ele><time>2026-04-19T09:35:38.349Z</time></trkpt><trkpt lat="42.7574069" lon="10.2945278"><ele>38.0</ele><time>2026-04-19T09:35:39.351Z</time></trkpt><trkpt lat="42.7574685" lon="10.2946299"><ele>38.0</ele><time>2026-04-19T09:35:40.346Z</time></trkpt><trkpt lat="42.7575213" lon="10.294731"><ele>38.0</ele><time>2026-04-19T09:35:41.344Z</time></trkpt><trkpt lat="42.7575626" lon="10.2948251"><ele>38.0</ele><time>2026-04-19T09:35:42.344Z</time></trkpt><trkpt lat="42.757601" lon="10.2949079"><ele>38.0</ele><time>2026-04-19T09:35:43.35Z</time></trkpt><trkpt lat="42.7576447" lon="10.2949809"><ele>36.8</ele><time>2026-04-19T09:35:44.342Z</time></trkpt><trkpt lat="42.7576987" lon="10.2950408"><ele>35.599999999999994</ele><time>2026-04-19T09:35:45.342Z</time></trkpt><trkpt lat="42.757762" lon="10.2950872"><ele>34.400000000000006</ele><time>2026-04-19T09:35:46.347Z</time></trkpt><trkpt lat="42.7578465" lon="10.2951089"><ele>33.2</ele><time>2026-04-19T09:35:47.35Z</time></trkpt><trkpt lat="42.7579709" lon="10.2950994"><ele>32.0</ele><time>2026-04-19T09:35:48.347Z</time></trkpt><trkpt lat="42.7580926" lon="10.2950856"><ele>32.0</ele><time>2026-04-19T09:35:49.352Z</time></trkpt><trkpt lat="42.7581996" lon="10.2950745"><ele>32.0</ele><time>2026-04-19T09:35:50.345Z</time></trkpt><trkpt lat="42.7582895" lon="10.2950519"><ele>32.0</ele><time>2026-04-19T09:35:51.339Z</time></trkpt><trkpt lat="42.7584422" lon="10.2949899"><ele>32.0</ele><time>2026-04-19T09:35:53.354Z</time></trkpt><trkpt lat="42.7585069" lon="10.2949956"><ele>32.0</ele><time>2026-04-19T09:35:54.345Z</time></trkpt><trkpt lat="42.7585662" lon="10.2950251"><ele>33.857142857142854</ele><time>2026-04-19T09:35:55.343Z</time></trkpt><trkpt lat="42.7586244" lon="10.2950622"><ele>35.71428571428571</ele><time>2026-04-19T09:35:56.346Z</time></trkpt><trkpt lat="42.7586834" lon="10.2951062"><ele>37.57142857142857</ele><time>2026-04-19T09:35:57.345Z</time></trkpt><trkpt lat="42.7587426" lon="10.2951594"><ele>39.42857142857143</ele><time>2026-04-19T09:35:58.354Z</time></trkpt><trkpt lat="42.7588035" lon="10.2952161"><ele>41.28571428571429</ele><time>2026-04-19T09:35:59.35Z</time></trkpt><trkpt lat="42.7588657" lon="10.295285"><ele>43.14285714285714</ele><time>2026-04-19T09:36:00.346Z</time></trkpt><trkpt lat="42.7589225" lon="10.2953704"><ele>45.0</ele><time>2026-04-19T09:36:01.349Z</time></trkpt><trkpt lat="42.758977" lon="10.2954715"><ele>45.0</ele><time>2026-04-19T09:36:02.349Z</time></trkpt><trkpt lat="42.7590302" lon="10.2955708"><ele>45.0</ele><time>2026-04-19T09:36:03.354Z</time></trkpt><trkpt lat="42.7590874" lon="10.2956564"><ele>45.0</ele><time>2026-04-19T09:36:04.344Z</time></trkpt><trkpt lat="42.7591522" lon="10.2957355"><ele>45.0</ele><time>2026-04-19T09:36:05.343Z</time></trkpt><trkpt lat="42.7592151" lon="10.2958104"><ele>45.0</ele><time>2026-04-19T09:36:06.347Z</time></trkpt><trkpt lat="42.7592691" lon="10.2958823"><ele>45.0</ele><time>2026-04-19T09:36:07.344Z</time></trkpt><trkpt lat="42.7593004" lon="10.2959571"><ele>43.5</ele><time>2026-04-19T09:36:08.342Z</time></trkpt><trkpt lat="42.7593094" lon="10.2960475"><ele>42.0</ele><time>2026-04-19T09:36:09.341Z</time></trkpt><trkpt lat="42.7593221" lon="10.2961507"><ele>40.5</ele><time>2026-04-19T09:36:10.345Z</time></trkpt><trkpt lat="42.7593373" lon="10.2962521"><ele>39.0</ele><time>2026-04-19T09:36:11.346Z</time></trkpt><trkpt lat="42.7593413" lon="10.2963491"><ele>37.5</ele><time>2026-04-19T09:36:12.342Z</time></trkpt><trkpt lat="42.7593015" lon="10.2965373"><ele>36.0</ele><time>2026-04-19T09:36:14.341Z</time></trkpt><trkpt lat="42.7592679" lon="10.2966427"><ele>35.4</ele><time>2026-04-19T09:36:15.348Z</time></trkpt><trkpt lat="42.7592396" lon="10.2967596"><ele>34.8</ele><time>2026-04-19T09:36:16.348Z</time></trkpt><trkpt lat="42.7592229" lon="10.2968847"><ele>34.199999999999996</ele><time>2026-04-19T09:36:17.347Z</time></trkpt><trkpt lat="42.7592175" lon="10.2970158"><ele>33.6</ele><time>2026-04-19T09:36:18.349Z</time></trkpt><trkpt lat="42.7592211" lon="10.2971406"><ele>33.0</ele><time>2026-04-19T09:36:19.35Z</time></trkpt><trkpt lat="42.7592327" lon="10.2972612"><ele>32.833333333333336</ele><time>2026-04-19T09:36:20.347Z</time></trkpt><trkpt lat="42.7592538" lon="10.2973766"><ele>32.666666666666664</ele><time>2026-04-19T09:36:21.347Z</time></trkpt><trkpt lat="42.7592803" lon="10.2974886"><ele>32.5</ele><time>2026-04-19T09:36:22.348Z</time></trkpt><trkpt lat="42.759307" lon="10.2976042"><ele>32.33333333333333</ele><time>2026-04-19T09:36:23.353Z</time></trkpt><trkpt lat="42.7593332" lon="10.2977191"><ele>32.166666666666664</ele><time>2026-04-19T09:36:24.348Z</time></trkpt><trkpt lat="42.7593602" lon="10.2978301"><ele>32.0</ele><time>2026-04-19T09:36:25.349Z</time></trkpt><trkpt lat="42.759382" lon="10.2979462"><ele>31.999999999999996</ele><time>2026-04-19T09:36:26.347Z</time></trkpt><trkpt lat="42.7594001" lon="10.2980628"><ele>32.0</ele><time>2026-04-19T09:36:27.346Z</time></trkpt><trkpt lat="42.7594146" lon="10.2981751"><ele>32.0</ele><time>2026-04-19T09:36:28.347Z</time></trkpt><trkpt lat="42.7594261" lon="10.2982856"><ele>32.0</ele><time>2026-04-19T09:36:29.345Z</time></trkpt><trkpt lat="42.7594412" lon="10.298382"><ele>31.999999999999996</ele><time>2026-04-19T09:36:30.346Z</time></trkpt><trkpt lat="42.7595007" lon="10.2984802"><ele>32.0</ele><time>2026-04-19T09:36:32.346Z</time></trkpt><trkpt lat="42.7595692" lon="10.2984164"><ele>32.0</ele><time>2026-04-19T09:36:34.352Z</time></trkpt><trkpt lat="42.7596685" lon="10.2981338"><ele>32.0</ele><time>2026-04-19T09:36:37.349Z</time></trkpt><trkpt lat="42.7597487" lon="10.2980445"><ele>32.0</ele><time>2026-04-19T09:36:38.339Z</time></trkpt><trkpt lat="42.7598519" lon="10.2979648"><ele>32.0</ele><time>2026-04-19T09:36:39.345Z</time></trkpt><trkpt lat="42.7599584" lon="10.2979002"><ele>32.0</ele><time>2026-04-19T09:36:40.343Z</time></trkpt><trkpt lat="42.7600556" lon="10.2978506"><ele>32.0</ele><time>2026-04-19T09:36:41.348Z</time></trkpt><trkpt lat="42.7601475" lon="10.2978089"><ele>32.0</ele><time>2026-04-19T09:36:42.345Z</time></trkpt><trkpt lat="42.7602384" lon="10.2977691"><ele>32.0</ele><time>2026-04-19T09:36:43.339Z</time></trkpt><trkpt lat="42.7603254" lon="10.2977342"><ele>30.200000000000003</ele><time>2026-04-19T09:36:44.345Z</time></trkpt><trkpt lat="42.7604143" lon="10.2977009"><ele>28.400000000000002</ele><time>2026-04-19T09:36:45.346Z</time></trkpt><trkpt lat="42.7605065" lon="10.2976604"><ele>26.6</ele><time>2026-04-19T09:36:46.341Z</time></trkpt><trkpt lat="42.7606075" lon="10.297603"><ele>24.799999999999997</ele><time>2026-04-19T09:36:47.347Z</time></trkpt><trkpt lat="42.7607104" lon="10.2975359"><ele>23.0</ele><time>2026-04-19T09:36:48.349Z</time></trkpt><trkpt lat="42.7608109" lon="10.2974709"><ele>23.0</ele><time>2026-04-19T09:36:49.346Z</time></trkpt><trkpt lat="42.7609073" lon="10.2974114"><ele>23.0</ele><time>2026-04-19T09:36:50.35Z</time></trkpt><trkpt lat="42.7610094" lon="10.2973646"><ele>23.0</ele><time>2026-04-19T09:36:51.347Z</time></trkpt><trkpt lat="42.761113" lon="10.2973134"><ele>23.0</ele><time>2026-04-19T09:36:52.338Z</time></trkpt><trkpt lat="42.7612014" lon="10.2972408"><ele>23.0</ele><time>2026-04-19T09:36:53.345Z</time></trkpt><trkpt lat="42.761277" lon="10.2971221"><ele>21.666666666666668</ele><time>2026-04-19T09:36:54.339Z</time></trkpt><trkpt lat="42.7613515" lon="10.2969932"><ele>20.333333333333332</ele><time>2026-04-19T09:36:55.342Z</time></trkpt><trkpt lat="42.7615213" lon="10.2967627"><ele>19.0</ele><time>2026-04-19T09:36:57.344Z</time></trkpt><trkpt lat="42.7616168" lon="10.2966583"><ele>19.0</ele><time>2026-04-19T09:36:58.346Z</time></trkpt><trkpt lat="42.7617071" lon="10.296572"><ele>19.0</ele><time>2026-04-19T09:36:59.342Z</time></trkpt><trkpt lat="42.7617875" lon="10.2965072"><ele>19.0</ele><time>2026-04-19T09:37:00.342Z</time></trkpt><trkpt lat="42.7618632" lon="10.2964469"><ele>19.0</ele><time>2026-04-19T09:37:01.342Z</time></trkpt><trkpt lat="42.7619287" lon="10.2963844"><ele>19.0</ele><time>2026-04-19T09:37:02.343Z</time></trkpt><trkpt lat="42.7619622" lon="10.2963031"><ele>19.0</ele><time>2026-04-19T09:37:03.347Z</time></trkpt><trkpt lat="42.7619406" lon="10.2961569"><ele>18.4</ele><time>2026-04-19T09:37:05.344Z</time></trkpt><trkpt lat="42.7619076" lon="10.2960526"><ele>17.799999999999997</ele><time>2026-04-19T09:37:07.342Z</time></trkpt><trkpt lat="42.7619988" lon="10.2961372"><ele>17.200000000000003</ele><time>2026-04-19T09:37:11.341Z</time></trkpt><trkpt lat="42.7620595" lon="10.2962507"><ele>16.6</ele><time>2026-04-19T09:37:12.344Z</time></trkpt><trkpt lat="42.7621253" lon="10.2963737"><ele>16.0</ele><time>2026-04-19T09:37:13.341Z</time></trkpt><trkpt lat="42.7621946" lon="10.2965014"><ele>15.0</ele><time>2026-04-19T09:37:14.342Z</time></trkpt><trkpt lat="42.7622704" lon="10.2966346"><ele>14.0</ele><time>2026-04-19T09:37:15.343Z</time></trkpt><trkpt lat="42.7623499" lon="10.2967762"><ele>13.0</ele><time>2026-04-19T09:37:16.354Z</time></trkpt><trkpt lat="42.7624965" lon="10.2970817"><ele>13.0</ele><time>2026-04-19T09:37:18.346Z</time></trkpt><trkpt lat="42.7625503" lon="10.2972391"><ele>13.0</ele><time>2026-04-19T09:37:19.35Z</time></trkpt><trkpt lat="42.7625887" lon="10.2973912"><ele>13.0</ele><time>2026-04-19T09:37:20.355Z</time></trkpt><trkpt lat="42.7625943" lon="10.2975492"><ele>13.0</ele><time>2026-04-19T09:37:21.345Z</time></trkpt><trkpt lat="42.7625756" lon="10.2976996"><ele>12.75</ele><time>2026-04-19T09:37:22.346Z</time></trkpt><trkpt lat="42.7625242" lon="10.2978457"><ele>12.5</ele><time>2026-04-19T09:37:23.347Z</time></trkpt><trkpt lat="42.7624632" lon="10.2979903"><ele>12.25</ele><time>2026-04-19T09:37:24.353Z</time></trkpt><trkpt lat="42.7624063" lon="10.2981446"><ele>12.0</ele><time>2026-04-19T09:37:25.352Z</time></trkpt><trkpt lat="42.7623566" lon="10.2983089"><ele>12.0</ele><time>2026-04-19T09:37:26.349Z</time></trkpt><trkpt lat="42.762322" lon="10.2984779"><ele>12.0</ele><time>2026-04-19T09:37:27.34Z</time></trkpt><trkpt lat="42.7622904" lon="10.2986433"><ele>12.0</ele><time>2026-04-19T09:37:28.349Z</time></trkpt><trkpt lat="42.7622563" lon="10.2988084"><ele>12.0</ele><time>2026-04-19T09:37:29.347Z</time></trkpt><trkpt lat="42.7622204" lon="10.2989726"><ele>12.25</ele><time>2026-04-19T09:37:30.349Z</time></trkpt><trkpt lat="42.7621833" lon="10.2991404"><ele>12.5</ele><time>2026-04-19T09:37:31.353Z</time></trkpt><trkpt lat="42.7621444" lon="10.2993066"><ele>12.75</ele><time>2026-04-19T09:37:32.348Z</time></trkpt><trkpt lat="42.7620969" lon="10.2994659"><ele>13.0</ele><time>2026-04-19T09:37:33.344Z</time></trkpt><trkpt lat="42.7620331" lon="10.2996192"><ele>13.0</ele><time>2026-04-19T09:37:34.341Z</time></trkpt><trkpt lat="42.7619552" lon="10.2997739"><ele>13.0</ele><time>2026-04-19T09:37:35.35Z</time></trkpt><trkpt lat="42.7618778" lon="10.2999342"><ele>13.0</ele><time>2026-04-19T09:37:36.351Z</time></trkpt><trkpt lat="42.7618045" lon="10.3000985"><ele>13.0</ele><time>2026-04-19T09:37:37.344Z</time></trkpt><trkpt lat="42.7617216" lon="10.3004408"><ele>11.0</ele><time>2026-04-19T09:37:39.342Z</time></trkpt><trkpt lat="42.7617231" lon="10.3006229"><ele>9.0</ele><time>2026-04-19T09:37:40.344Z</time></trkpt><trkpt lat="42.7617436" lon="10.3007928"><ele>7.0</ele><time>2026-04-19T09:37:41.348Z</time></trkpt><trkpt lat="42.7617698" lon="10.3009617"><ele>5.0</ele><time>2026-04-19T09:37:42.346Z</time></trkpt><trkpt lat="42.7617927" lon="10.3011308"><ele>5.0</ele><time>2026-04-19T09:37:43.345Z</time></trkpt><trkpt lat="42.761811" lon="10.3012975"><ele>5.0</ele><time>2026-04-19T09:37:44.343Z</time></trkpt><trkpt lat="42.7618227" lon="10.3014719"><ele>5.0</ele><time>2026-04-19T09:37:45.345Z</time></trkpt><trkpt lat="42.7618352" lon="10.3016543"><ele>5.0</ele><time>2026-04-19T09:37:46.349Z</time></trkpt><trkpt lat="42.7618407" lon="10.3018315"><ele>5.0</ele><time>2026-04-19T09:37:47.35Z</time></trkpt><trkpt lat="42.7618452" lon="10.3020074"><ele>5.0</ele><time>2026-04-19T09:37:48.348Z</time></trkpt><trkpt lat="42.7618521" lon="10.3021863"><ele>5.0</ele><time>2026-04-19T09:37:49.346Z</time></trkpt><trkpt lat="42.7618612" lon="10.3023664"><ele>5.0</ele><time>2026-04-19T09:37:50.348Z</time></trkpt><trkpt lat="42.7618673" lon="10.3025456"><ele>5.5</ele><time>2026-04-19T09:37:51.35Z</time></trkpt><trkpt lat="42.7618739" lon="10.3027309"><ele>6.0</ele><time>2026-04-19T09:37:52.351Z</time></trkpt><trkpt lat="42.7618797" lon="10.3029167"><ele>6.5</ele><time>2026-04-19T09:37:53.351Z</time></trkpt><trkpt lat="42.7618864" lon="10.3031028"><ele>7.0</ele><time>2026-04-19T09:37:54.35Z</time></trkpt><trkpt lat="42.761892" lon="10.3032913"><ele>7.0</ele><time>2026-04-19T09:37:55.347Z</time></trkpt><trkpt lat="42.7618971" lon="10.303467"><ele>7.0</ele><time>2026-04-19T09:37:56.348Z</time></trkpt><trkpt lat="42.7618973" lon="10.3036484"><ele>7.0</ele><time>2026-04-19T09:37:57.347Z</time></trkpt><trkpt lat="42.7619023" lon="10.3038364"><ele>7.0</ele><time>2026-04-19T09:37:58.346Z</time></trkpt><trkpt lat="42.7619091" lon="10.3042144"><ele>7.5</ele><time>2026-04-19T09:38:00.343Z</time></trkpt><trkpt lat="42.7619129" lon="10.3044089"><ele>8.0</ele><time>2026-04-19T09:38:01.35Z</time></trkpt><trkpt lat="42.761923" lon="10.3045892"><ele>8.5</ele><time>2026-04-19T09:38:02.341Z</time></trkpt><trkpt lat="42.7619351" lon="10.3047712"><ele>9.0</ele><time>2026-04-19T09:38:03.342Z</time></trkpt><trkpt lat="42.7619413" lon="10.3049553"><ele>9.0</ele><time>2026-04-19T09:38:04.344Z</time></trkpt><trkpt lat="42.7619492" lon="10.3051408"><ele>9.0</ele><time>2026-04-19T09:38:05.341Z</time></trkpt><trkpt lat="42.7619587" lon="10.3053318"><ele>9.0</ele><time>2026-04-19T09:38:06.341Z</time></trkpt><trkpt lat="42.7619668" lon="10.3055179"><ele>9.0</ele><time>2026-04-19T09:38:07.347Z</time></trkpt><trkpt lat="42.7619783" lon="10.3057005"><ele>8.25</ele><time>2026-04-19T09:38:08.348Z</time></trkpt><trkpt lat="42.7619877" lon="10.3058684"><ele>7.5</ele><time>2026-04-19T09:38:09.349Z</time></trkpt><trkpt lat="42.7619999" lon="10.3060293"><ele>6.75</ele><time>2026-04-19T09:38:10.348Z</time></trkpt><trkpt lat="42.7620084" lon="10.3061983"><ele>6.0</ele><time>2026-04-19T09:38:11.349Z</time></trkpt><trkpt lat="42.7620118" lon="10.3063656"><ele>6.0</ele><time>2026-04-19T09:38:12.355Z</time></trkpt><trkpt lat="42.7620178" lon="10.3065275"><ele>6.0</ele><time>2026-04-19T09:38:13.351Z</time></trkpt><trkpt lat="42.7620214" lon="10.3066915"><ele>6.0</ele><time>2026-04-19T09:38:14.353Z</time></trkpt><trkpt lat="42.7620212" lon="10.3068577"><ele>6.0</ele><time>2026-04-19T09:38:15.35Z</time></trkpt><trkpt lat="42.7620142" lon="10.307025"><ele>6.0</ele><time>2026-04-19T09:38:16.354Z</time></trkpt><trkpt lat="42.7620013" lon="10.307195"><ele>6.0</ele><time>2026-04-19T09:38:17.337Z</time></trkpt><trkpt lat="42.7619816" lon="10.3073617"><ele>6.0</ele><time>2026-04-19T09:38:18.351Z</time></trkpt><trkpt lat="42.7619542" lon="10.307532"><ele>6.0</ele><time>2026-04-19T09:38:19.351Z</time></trkpt><trkpt lat="42.7618881" lon="10.3078769"><ele>5.25</ele><time>2026-04-19T09:38:21.345Z</time></trkpt><trkpt lat="42.7618542" lon="10.3080527"><ele>4.5</ele><time>2026-04-19T09:38:22.348Z</time></trkpt><trkpt lat="42.7618206" lon="10.3082327"><ele>3.75</ele><time>2026-04-19T09:38:23.35Z</time></trkpt><trkpt lat="42.7617829" lon="10.308417"><ele>3.0</ele><time>2026-04-19T09:38:24.347Z</time></trkpt><trkpt lat="42.7617328" lon="10.3086029"><ele>2.75</ele><time>2026-04-19T09:38:25.346Z</time></trkpt><trkpt lat="42.7616712" lon="10.3087815"><ele>2.5</ele><time>2026-04-19T09:38:26.344Z</time></trkpt><trkpt lat="42.7615954" lon="10.3089591"><ele>2.25</ele><time>2026-04-19T09:38:27.339Z</time></trkpt><trkpt lat="42.7615209" lon="10.3091396"><ele>2.0</ele><time>2026-04-19T09:38:28.344Z</time></trkpt><trkpt lat="42.7614483" lon="10.3093199"><ele>3.0</ele><time>2026-04-19T09:38:29.345Z</time></trkpt><trkpt lat="42.7613824" lon="10.3095036"><ele>4.0</ele><time>2026-04-19T09:38:30.342Z</time></trkpt><trkpt lat="42.7613244" lon="10.3096857"><ele>5.0</ele><time>2026-04-19T09:38:31.345Z</time></trkpt><trkpt lat="42.7612752" lon="10.3098725"><ele>6.0</ele><time>2026-04-19T09:38:32.341Z</time></trkpt><trkpt lat="42.7612311" lon="10.3100563"><ele>5.75</ele><time>2026-04-19T09:38:33.338Z</time></trkpt><trkpt lat="42.7611784" lon="10.3102416"><ele>5.5</ele><time>2026-04-19T09:38:34.337Z</time></trkpt><trkpt lat="42.7611177" lon="10.3104207"><ele>5.25</ele><time>2026-04-19T09:38:35.338Z</time></trkpt><trkpt lat="42.7610578" lon="10.31059"><ele>5.0</ele><time>2026-04-19T09:38:36.341Z</time></trkpt><trkpt lat="42.7609922" lon="10.3107652"><ele>5.0</ele><time>2026-04-19T09:38:37.343Z</time></trkpt><trkpt lat="42.7609293" lon="10.3109359"><ele>5.0</ele><time>2026-04-19T09:38:38.339Z</time></trkpt><trkpt lat="42.760872" lon="10.3110931"><ele>5.0</ele><time>2026-04-19T09:38:39.337Z</time></trkpt><trkpt lat="42.760826" lon="10.3112309"><ele>5.0</ele><time>2026-04-19T09:38:40.345Z</time></trkpt><trkpt lat="42.7607347" lon="10.311514"><ele>4.75</ele><time>2026-04-19T09:38:42.343Z</time></trkpt><trkpt lat="42.7606944" lon="10.3116671"><ele>4.5</ele><time>2026-04-19T09:38:43.343Z</time></trkpt><trkpt lat="42.7606739" lon="10.3118276"><ele>4.25</ele><time>2026-04-19T09:38:44.34Z</time></trkpt><trkpt lat="42.7606718" lon="10.3119895"><ele>4.0</ele><time>2026-04-19T09:38:45.337Z</time></trkpt><trkpt lat="42.76068" lon="10.3121612"><ele>4.0</ele><time>2026-04-19T09:38:46.342Z</time></trkpt><trkpt lat="42.7606904" lon="10.3123282"><ele>4.0</ele><time>2026-04-19T09:38:47.346Z</time></trkpt><trkpt lat="42.7606944" lon="10.312482"><ele>4.0</ele><time>2026-04-19T09:38:48.34Z</time></trkpt><trkpt lat="42.7606874" lon="10.3126211"><ele>4.0</ele><time>2026-04-19T09:38:49.347Z</time></trkpt><trkpt lat="42.760672" lon="10.3127446"><ele>4.0</ele><time>2026-04-19T09:38:50.344Z</time></trkpt><trkpt lat="42.760654" lon="10.3128469"><ele>4.0</ele><time>2026-04-19T09:38:51.338Z</time></trkpt><trkpt lat="42.7606365" lon="10.3129361"><ele>4.0</ele><time>2026-04-19T09:38:52.337Z</time></trkpt><trkpt lat="42.7606048" lon="10.3130709"><ele>4.0</ele><time>2026-04-19T09:38:54.342Z</time></trkpt><trkpt lat="42.7605266" lon="10.31304"><ele>4.0</ele><time>2026-04-19T09:39:01.347Z</time></trkpt></trkseg><trkseg><trkpt lat="42.8157492" lon="10.4277642"><ele>15.0</ele><time>2026-04-19T12:15:26.945Z</time></trkpt><trkpt lat="42.8156949" lon="10.427826"><ele>15.0</ele><time>2026-04-19T12:15:38.755Z</time></trkpt><trkpt lat="42.81559" lon="10.4278211"><ele>15.0</ele><time>2026-04-19T12:18:09.307Z</time></trkpt><trkpt lat="42.8157014" lon="10.4278723"><ele>15.0</ele><time>2026-04-19T12:19:03.304Z</time></trkpt><trkpt lat="42.815818" lon="10.4279314"><ele>15.0</ele><time>2026-04-19T12:19:05.304Z</time></trkpt><trkpt lat="42.8158736" lon="10.4279804"><ele>13.5</ele><time>2026-04-19T12:19:06.301Z</time></trkpt><trkpt lat="42.8159153" lon="10.4280528"><ele>12.0</ele><time>2026-04-19T12:19:07.304Z</time></trkpt><trkpt lat="42.8159671" lon="10.4281691"><ele>10.5</ele><time>2026-04-19T12:19:09.305Z</time></trkpt><trkpt lat="42.816015" lon="10.4282703"><ele>9.0</ele><time>2026-04-19T12:19:12.306Z</time></trkpt><trkpt lat="42.8160752" lon="10.4283222"><ele>7.5</ele><time>2026-04-19T12:19:14.306Z</time></trkpt><trkpt lat="42.816156" lon="10.4283783"><ele>6.0</ele><time>2026-04-19T12:19:16.302Z</time></trkpt><trkpt lat="42.8162689" lon="10.4284626"><ele>6.0</ele><time>2026-04-19T12:19:18.308Z</time></trkpt><trkpt lat="42.8163694" lon="10.4285441"><ele>6.0</ele><time>2026-04-19T12:19:20.304Z</time></trkpt><trkpt lat="42.8164754" lon="10.4286309"><ele>6.0</ele><time>2026-04-19T12:19:22.305Z</time></trkpt><trkpt lat="42.8165383" lon="10.4286782"><ele>6.0</ele><time>2026-04-19T12:19:23.309Z</time></trkpt><trkpt lat="42.8166048" lon="10.4287242"><ele>6.0</ele><time>2026-04-19T12:19:24.303Z</time></trkpt><trkpt lat="42.8166662" lon="10.4287669"><ele>5.5</ele><time>2026-04-19T12:19:25.307Z</time></trkpt><trkpt lat="42.8167788" lon="10.4288488"><ele>5.0</ele><time>2026-04-19T12:19:27.305Z</time></trkpt><trkpt lat="42.8168425" lon="10.428881"><ele>4.5</ele><time>2026-04-19T12:19:28.305Z</time></trkpt><trkpt lat="42.8169126" lon="10.428898"><ele>4.0</ele><time>2026-04-19T12:19:29.306Z</time></trkpt><trkpt lat="42.8169863" lon="10.4289043"><ele>3.5</ele><time>2026-04-19T12:19:30.304Z</time></trkpt><trkpt lat="42.8170568" lon="10.4288991"><ele>3.0</ele><time>2026-04-19T12:19:31.306Z</time></trkpt><trkpt lat="42.8171263" lon="10.4288858"><ele>3.0</ele><time>2026-04-19T12:19:32.305Z</time></trkpt><trkpt lat="42.8172025" lon="10.4288684"><ele>3.0</ele><time>2026-04-19T12:19:33.304Z</time></trkpt><trkpt lat="42.8172853" lon="10.4288569"><ele>3.0</ele><time>2026-04-19T12:19:34.301Z</time></trkpt><trkpt lat="42.8173712" lon="10.4288522"><ele>3.0</ele><time>2026-04-19T12:19:35.305Z</time></trkpt><trkpt lat="42.8174657" lon="10.4288563"><ele>3.0</ele><time>2026-04-19T12:19:36.302Z</time></trkpt><trkpt lat="42.8175603" lon="10.4288771"><ele>3.0</ele><time>2026-04-19T12:19:37.309Z</time></trkpt><trkpt lat="42.8176576" lon="10.4289105"><ele>3.5999999999999996</ele><time>2026-04-19T12:19:38.304Z</time></trkpt><trkpt lat="42.817753" lon="10.4289531"><ele>4.199999999999999</ele><time>2026-04-19T12:19:39.304Z</time></trkpt><trkpt lat="42.8178443" lon="10.428996"><ele>4.8</ele><time>2026-04-19T12:19:40.305Z</time></trkpt><trkpt lat="42.8179306" lon="10.4290419"><ele>5.3999999999999995</ele><time>2026-04-19T12:19:41.305Z</time></trkpt><trkpt lat="42.8180153" lon="10.4290894"><ele>6.0</ele><time>2026-04-19T12:19:42.304Z</time></trkpt><trkpt lat="42.8181026" lon="10.429137"><ele>6.0</ele><time>2026-04-19T12:19:43.302Z</time></trkpt><trkpt lat="42.8181974" lon="10.4291888"><ele>6.0</ele><time>2026-04-19T12:19:44.303Z</time></trkpt><trkpt lat="42.8182946" lon="10.4292488"><ele>6.0</ele><time>2026-04-19T12:19:45.301Z</time></trkpt><trkpt lat="42.8183923" lon="10.4293138"><ele>6.0</ele><time>2026-04-19T12:19:46.302Z</time></trkpt><trkpt lat="42.8184815" lon="10.4293739"><ele>6.0</ele><time>2026-04-19T12:19:47.298Z</time></trkpt><trkpt lat="42.8185626" lon="10.4294204"><ele>6.5</ele><time>2026-04-19T12:19:48.311Z</time></trkpt><trkpt lat="42.8186226" lon="10.4294578"><ele>7.0</ele><time>2026-04-19T12:19:49.305Z</time></trkpt><trkpt lat="42.8187065" lon="10.429486"><ele>7.5</ele><time>2026-04-19T12:19:51.309Z</time></trkpt><trkpt lat="42.8187922" lon="10.4294454"><ele>8.0</ele><time>2026-04-19T12:19:53.305Z</time></trkpt><trkpt lat="42.8188613" lon="10.4294301"><ele>8.5</ele><time>2026-04-19T12:19:54.307Z</time></trkpt><trkpt lat="42.8189438" lon="10.4294214"><ele>9.0</ele><time>2026-04-19T12:19:55.301Z</time></trkpt><trkpt lat="42.8190454" lon="10.4294277"><ele>9.0</ele><time>2026-04-19T12:19:56.304Z</time></trkpt><trkpt lat="42.8191562" lon="10.42944"><ele>9.0</ele><time>2026-04-19T12:19:57.306Z</time></trkpt><trkpt lat="42.8192776" lon="10.4294564"><ele>9.0</ele><time>2026-04-19T12:19:58.307Z</time></trkpt><trkpt lat="42.8194" lon="10.4294773"><ele>9.0</ele><time>2026-04-19T12:19:59.306Z</time></trkpt><trkpt lat="42.8195265" lon="10.4294989"><ele>9.75</ele><time>2026-04-19T12:20:00.307Z</time></trkpt><trkpt lat="42.8196564" lon="10.4295221"><ele>10.5</ele><time>2026-04-19T12:20:01.309Z</time></trkpt><trkpt lat="42.8197869" lon="10.4295426"><ele>11.25</ele><time>2026-04-19T12:20:02.307Z</time></trkpt><trkpt lat="42.8199181" lon="10.4295574"><ele>12.0</ele><time>2026-04-19T12:20:03.305Z</time></trkpt><trkpt lat="42.8200436" lon="10.4295657"><ele>13.75</ele><time>2026-04-19T12:20:04.307Z</time></trkpt><trkpt lat="42.8201668" lon="10.4295516"><ele>15.5</ele><time>2026-04-19T12:20:05.304Z</time></trkpt><trkpt lat="42.8202805" lon="10.4295121"><ele>17.25</ele><time>2026-04-19T12:20:06.302Z</time></trkpt><trkpt lat="42.8203854" lon="10.4294389"><ele>19.0</ele><time>2026-04-19T12:20:07.306Z</time></trkpt><trkpt lat="42.8204916" lon="10.429346"><ele>19.0</ele><time>2026-04-19T12:20:08.305Z</time></trkpt><trkpt lat="42.8206036" lon="10.4292535"><ele>19.0</ele><time>2026-04-19T12:20:09.308Z</time></trkpt><trkpt lat="42.8207209" lon="10.4291614"><ele>19.0</ele><time>2026-04-19T12:20:10.305Z</time></trkpt><trkpt lat="42.8208395" lon="10.4290658"><ele>19.0</ele><time>2026-04-19T12:20:11.308Z</time></trkpt><trkpt lat="42.8209628" lon="10.4289642"><ele>21.25</ele><time>2026-04-19T12:20:12.303Z</time></trkpt><trkpt lat="42.8210873" lon="10.4288621"><ele>23.5</ele><time>2026-04-19T12:20:13.306Z</time></trkpt><trkpt lat="42.8212045" lon="10.4287745"><ele>25.75</ele><time>2026-04-19T12:20:14.307Z</time></trkpt><trkpt lat="42.8213094" lon="10.428692"><ele>28.0</ele><time>2026-04-19T12:20:15.304Z</time></trkpt><trkpt lat="42.8214118" lon="10.4286174"><ele>28.0</ele><time>2026-04-19T12:20:16.307Z</time></trkpt><trkpt lat="42.8215167" lon="10.4285289"><ele>28.0</ele><time>2026-04-19T12:20:17.306Z</time></trkpt><trkpt lat="42.8216236" lon="10.4284509"><ele>28.0</ele><time>2026-04-19T12:20:18.305Z</time></trkpt><trkpt lat="42.8217277" lon="10.4283876"><ele>28.0</ele><time>2026-04-19T12:20:19.304Z</time></trkpt><trkpt lat="42.8218212" lon="10.428345"><ele>29.4</ele><time>2026-04-19T12:20:20.298Z</time></trkpt><trkpt lat="42.8219097" lon="10.4283274"><ele>30.799999999999997</ele><time>2026-04-19T12:20:21.303Z</time></trkpt><trkpt lat="42.8220017" lon="10.4283427"><ele>32.2</ele><time>2026-04-19T12:20:22.301Z</time></trkpt><trkpt lat="42.8221028" lon="10.4283965"><ele>33.6</ele><time>2026-04-19T12:20:23.298Z</time></trkpt><trkpt lat="42.8222043" lon="10.4284697"><ele>35.0</ele><time>2026-04-19T12:20:24.3Z</time></trkpt><trkpt lat="42.8223068" lon="10.4285311"><ele>35.0</ele><time>2026-04-19T12:20:25.3Z</time></trkpt><trkpt lat="42.822415" lon="10.4285671"><ele>35.0</ele><time>2026-04-19T12:20:26.292Z</time></trkpt><trkpt lat="42.8225232" lon="10.4285617"><ele>35.0</ele><time>2026-04-19T12:20:27.304Z</time></trkpt><trkpt lat="42.8226295" lon="10.4285026"><ele>35.0</ele><time>2026-04-19T12:20:28.298Z</time></trkpt><trkpt lat="42.8227124" lon="10.428398"><ele>35.0</ele><time>2026-04-19T12:20:29.3Z</time></trkpt><trkpt lat="42.82278" lon="10.4282575"><ele>36.0</ele><time>2026-04-19T12:20:30.3Z</time></trkpt><trkpt lat="42.8228455" lon="10.4281093"><ele>37.0</ele><time>2026-04-19T12:20:31.298Z</time></trkpt><trkpt lat="42.8229209" lon="10.4279873"><ele>38.0</ele><time>2026-04-19T12:20:32.302Z</time></trkpt><trkpt lat="42.8230089" lon="10.4279002"><ele>39.0</ele><time>2026-04-19T12:20:33.3Z</time></trkpt><trkpt lat="42.8231082" lon="10.4278566"><ele>39.0</ele><time>2026-04-19T12:20:34.301Z</time></trkpt><trkpt lat="42.8232099" lon="10.4278739"><ele>39.0</ele><time>2026-04-19T12:20:35.309Z</time></trkpt><trkpt lat="42.8233173" lon="10.4279364"><ele>39.0</ele><time>2026-04-19T12:20:36.3Z</time></trkpt><trkpt lat="42.8234307" lon="10.4280104"><ele>39.0</ele><time>2026-04-19T12:20:37.3Z</time></trkpt><trkpt lat="42.8235524" lon="10.4280861"><ele>38.0</ele><time>2026-04-19T12:20:38.301Z</time></trkpt><trkpt lat="42.8236804" lon="10.4281464"><ele>37.0</ele><time>2026-04-19T12:20:39.301Z</time></trkpt><trkpt lat="42.8238108" lon="10.4281734"><ele>36.0</ele><time>2026-04-19T12:20:40.298Z</time></trkpt><trkpt lat="42.8239252" lon="10.4281504"><ele>35.0</ele><time>2026-04-19T12:20:41.305Z</time></trkpt><trkpt lat="42.8240204" lon="10.4280778"><ele>38.0</ele><time>2026-04-19T12:20:42.304Z</time></trkpt><trkpt lat="42.8241046" lon="10.4279461"><ele>41.0</ele><time>2026-04-19T12:20:43.308Z</time></trkpt><trkpt lat="42.8241765" lon="10.4277865"><ele>44.0</ele><time>2026-04-19T12:20:44.297Z</time></trkpt><trkpt lat="42.8242559" lon="10.4276517"><ele>47.0</ele><time>2026-04-19T12:20:45.299Z</time></trkpt><trkpt lat="42.8243337" lon="10.4275309"><ele>47.8</ele><time>2026-04-19T12:20:46.298Z</time></trkpt><trkpt lat="42.8244094" lon="10.4274171"><ele>48.6</ele><time>2026-04-19T12:20:47.302Z</time></trkpt><trkpt lat="42.8244927" lon="10.4273219"><ele>49.4</ele><time>2026-04-19T12:20:48.3Z</time></trkpt><trkpt lat="42.8245787" lon="10.4272858"><ele>50.199999999999996</ele><time>2026-04-19T12:20:49.299Z</time></trkpt><trkpt lat="42.8246666" lon="10.4273137"><ele>51.0</ele><time>2026-04-19T12:20:50.297Z</time></trkpt><trkpt lat="42.8247455" lon="10.4273946"><ele>51.0</ele><time>2026-04-19T12:20:51.305Z</time></trkpt><trkpt lat="42.8248061" lon="10.4275097"><ele>51.0</ele><time>2026-04-19T12:20:52.3Z</time></trkpt><trkpt lat="42.8248398" lon="10.4276535"><ele>51.0</ele><time>2026-04-19T12:20:53.308Z</time></trkpt><trkpt lat="42.8248661" lon="10.427829"><ele>51.0</ele><time>2026-04-19T12:20:54.3Z</time></trkpt><trkpt lat="42.824897" lon="10.4280181"><ele>50.0</ele><time>2026-04-19T12:20:55.303Z</time></trkpt><trkpt lat="42.8249332" lon="10.428214"><ele>49.0</ele><time>2026-04-19T12:20:56.312Z</time></trkpt><trkpt lat="42.8249762" lon="10.4284126"><ele>48.0</ele><time>2026-04-19T12:20:57.303Z</time></trkpt><trkpt lat="42.8250207" lon="10.4286233"><ele>46.5</ele><time>2026-04-19T12:20:58.31Z</time></trkpt><trkpt lat="42.8250697" lon="10.4288191"><ele>45.0</ele><time>2026-04-19T12:20:59.308Z</time></trkpt><trkpt lat="42.8251442" lon="10.4289913"><ele>43.5</ele><time>2026-04-19T12:21:00.303Z</time></trkpt><trkpt lat="42.8252356" lon="10.4291282"><ele>42.0</ele><time>2026-04-19T12:21:01.305Z</time></trkpt><trkpt lat="42.8253396" lon="10.4292475"><ele>47.5</ele><time>2026-04-19T12:21:02.306Z</time></trkpt><trkpt lat="42.8254388" lon="10.4293386"><ele>53.0</ele><time>2026-04-19T12:21:03.309Z</time></trkpt><trkpt lat="42.8255318" lon="10.4294099"><ele>58.5</ele><time>2026-04-19T12:21:04.303Z</time></trkpt><trkpt lat="42.8256362" lon="10.4294629"><ele>64.0</ele><time>2026-04-19T12:21:05.306Z</time></trkpt><trkpt lat="42.8257484" lon="10.4294866"><ele>64.0</ele><time>2026-04-19T12:21:06.301Z</time></trkpt><trkpt lat="42.8258694" lon="10.4294887"><ele>64.0</ele><time>2026-04-19T12:21:07.304Z</time></trkpt><trkpt lat="42.8259981" lon="10.4295078"><ele>64.0</ele><time>2026-04-19T12:21:08.303Z</time></trkpt><trkpt lat="42.826116" lon="10.4295682"><ele>64.0</ele><time>2026-04-19T12:21:09.306Z</time></trkpt><trkpt lat="42.8262137" lon="10.4296658"><ele>66.5</ele><time>2026-04-19T12:21:10.304Z</time></trkpt><trkpt lat="42.8262898" lon="10.4297971"><ele>69.0</ele><time>2026-04-19T12:21:11.299Z</time></trkpt><trkpt lat="42.8263461" lon="10.4299448"><ele>71.5</ele><time>2026-04-19T12:21:12.304Z</time></trkpt><trkpt lat="42.8263823" lon="10.4301115"><ele>74.0</ele><time>2026-04-19T12:21:13.305Z</time></trkpt><trkpt lat="42.8264212" lon="10.4302903"><ele>74.0</ele><time>2026-04-19T12:21:14.307Z</time></trkpt><trkpt lat="42.8264872" lon="10.4304532"><ele>74.0</ele><time>2026-04-19T12:21:15.308Z</time></trkpt><trkpt lat="42.8265739" lon="10.4305715"><ele>74.0</ele><time>2026-04-19T12:21:16.306Z</time></trkpt><trkpt lat="42.8266882" lon="10.4306606"><ele>74.0</ele><time>2026-04-19T12:21:17.306Z</time></trkpt><trkpt lat="42.8268091" lon="10.4307286"><ele>74.0</ele><time>2026-04-19T12:21:18.304Z</time></trkpt><trkpt lat="42.8269347" lon="10.4307925"><ele>74.0</ele><time>2026-04-19T12:21:19.304Z</time></trkpt><trkpt lat="42.827065" lon="10.4308389"><ele>74.0</ele><time>2026-04-19T12:21:20.3Z</time></trkpt><trkpt lat="42.8271933" lon="10.4308505"><ele>74.0</ele><time>2026-04-19T12:21:21.311Z</time></trkpt><trkpt lat="42.8273175" lon="10.4308063"><ele>74.0</ele><time>2026-04-19T12:21:22.308Z</time></trkpt><trkpt lat="42.8274455" lon="10.4307199"><ele>74.0</ele><time>2026-04-19T12:21:23.304Z</time></trkpt><trkpt lat="42.8275788" lon="10.4306479"><ele>74.0</ele><time>2026-04-19T12:21:24.299Z</time></trkpt><trkpt lat="42.8276953" lon="10.4306276"><ele>74.0</ele><time>2026-04-19T12:21:25.305Z</time></trkpt><trkpt lat="42.8277924" lon="10.4306676"><ele>80.25</ele><time>2026-04-19T12:21:26.305Z</time></trkpt><trkpt lat="42.8278795" lon="10.4307619"><ele>86.5</ele><time>2026-04-19T12:21:27.307Z</time></trkpt><trkpt lat="42.8279548" lon="10.4309102"><ele>92.75</ele><time>2026-04-19T12:21:28.301Z</time></trkpt><trkpt lat="42.8280326" lon="10.431065"><ele>99.0</ele><time>2026-04-19T12:21:29.305Z</time></trkpt><trkpt lat="42.8281107" lon="10.4312261"><ele>95.25</ele><time>2026-04-19T12:21:30.304Z</time></trkpt><trkpt lat="42.8281903" lon="10.4313961"><ele>91.5</ele><time>2026-04-19T12:21:31.306Z</time></trkpt><trkpt lat="42.8282512" lon="10.4315772"><ele>87.75</ele><time>2026-04-19T12:21:32.303Z</time></trkpt><trkpt lat="42.8282867" lon="10.4317571"><ele>84.0</ele><time>2026-04-19T12:21:33.306Z</time></trkpt><trkpt lat="42.828311" lon="10.4319216"><ele>84.0</ele><time>2026-04-19T12:21:34.307Z</time></trkpt><trkpt lat="42.8283553" lon="10.4320731"><ele>84.0</ele><time>2026-04-19T12:21:35.305Z</time></trkpt><trkpt lat="42.8284316" lon="10.4322018"><ele>84.0</ele><time>2026-04-19T12:21:36.305Z</time></trkpt><trkpt lat="42.8285453" lon="10.4322962"><ele>84.0</ele><time>2026-04-19T12:21:37.307Z</time></trkpt><trkpt lat="42.8286663" lon="10.4323742"><ele>85.25</ele><time>2026-04-19T12:21:38.308Z</time></trkpt><trkpt lat="42.8287844" lon="10.4324639"><ele>86.5</ele><time>2026-04-19T12:21:39.305Z</time></trkpt><trkpt lat="42.828897" lon="10.4325484"><ele>87.75</ele><time>2026-04-19T12:21:40.303Z</time></trkpt><trkpt lat="42.8290085" lon="10.4326146"><ele>89.0</ele><time>2026-04-19T12:21:41.301Z</time></trkpt><trkpt lat="42.8291234" lon="10.4326584"><ele>89.0</ele><time>2026-04-19T12:21:42.298Z</time></trkpt><trkpt lat="42.8292407" lon="10.4326821"><ele>89.0</ele><time>2026-04-19T12:21:43.3Z</time></trkpt><trkpt lat="42.8293661" lon="10.4327227"><ele>89.0</ele><time>2026-04-19T12:21:44.301Z</time></trkpt><trkpt lat="42.8294785" lon="10.4328043"><ele>89.0</ele><time>2026-04-19T12:21:45.3Z</time></trkpt><trkpt lat="42.8295739" lon="10.4329095"><ele>85.0</ele><time>2026-04-19T12:21:46.293Z</time></trkpt><trkpt lat="42.8296526" lon="10.4330259"><ele>81.0</ele><time>2026-04-19T12:21:47.301Z</time></trkpt><trkpt lat="42.8297288" lon="10.4331423"><ele>77.0</ele><time>2026-04-19T12:21:48.304Z</time></trkpt><trkpt lat="42.8298187" lon="10.4332414"><ele>73.0</ele><time>2026-04-19T12:21:49.306Z</time></trkpt><trkpt lat="42.8299196" lon="10.4333089"><ele>73.0</ele><time>2026-04-19T12:21:50.306Z</time></trkpt><trkpt lat="42.8300462" lon="10.4333399"><ele>73.0</ele><time>2026-04-19T12:21:51.306Z</time></trkpt><trkpt lat="42.8301737" lon="10.4333651"><ele>73.0</ele><time>2026-04-19T12:21:52.305Z</time></trkpt><trkpt lat="42.8302946" lon="10.4333987"><ele>73.0</ele><time>2026-04-19T12:21:53.306Z</time></trkpt><trkpt lat="42.8304083" lon="10.4334441"><ele>76.5</ele><time>2026-04-19T12:21:54.299Z</time></trkpt><trkpt lat="42.8305123" lon="10.4334988"><ele>80.0</ele><time>2026-04-19T12:21:55.301Z</time></trkpt><trkpt lat="42.8306203" lon="10.4335505"><ele>83.5</ele><time>2026-04-19T12:21:56.3Z</time></trkpt><trkpt lat="42.8307382" lon="10.4335828"><ele>87.0</ele><time>2026-04-19T12:21:57.299Z</time></trkpt><trkpt lat="42.8308642" lon="10.4335948"><ele>85.5</ele><time>2026-04-19T12:21:58.306Z</time></trkpt><trkpt lat="42.8309917" lon="10.4335994"><ele>84.0</ele><time>2026-04-19T12:21:59.298Z</time></trkpt><trkpt lat="42.8311128" lon="10.4336079"><ele>82.5</ele><time>2026-04-19T12:22:00.305Z</time></trkpt><trkpt lat="42.8312276" lon="10.4336312"><ele>81.0</ele><time>2026-04-19T12:22:01.3Z</time></trkpt><trkpt lat="42.8313368" lon="10.4336685"><ele>81.0</ele><time>2026-04-19T12:22:02.299Z</time></trkpt><trkpt lat="42.8314326" lon="10.4337308"><ele>81.0</ele><time>2026-04-19T12:22:03.303Z</time></trkpt><trkpt lat="42.8315273" lon="10.4338064"><ele>81.0</ele><time>2026-04-19T12:22:04.308Z</time></trkpt><trkpt lat="42.8316243" lon="10.433875"><ele>81.0</ele><time>2026-04-19T12:22:05.304Z</time></trkpt><trkpt lat="42.8317335" lon="10.4339235"><ele>81.0</ele><time>2026-04-19T12:22:06.301Z</time></trkpt><trkpt lat="42.8318536" lon="10.4339381"><ele>74.25</ele><time>2026-04-19T12:22:07.302Z</time></trkpt><trkpt lat="42.8319786" lon="10.4339367"><ele>67.5</ele><time>2026-04-19T12:22:08.305Z</time></trkpt><trkpt lat="42.8321045" lon="10.4339305"><ele>60.75</ele><time>2026-04-19T12:22:09.307Z</time></trkpt><trkpt lat="42.8322251" lon="10.4339033"><ele>54.0</ele><time>2026-04-19T12:22:10.301Z</time></trkpt><trkpt lat="42.8323377" lon="10.4338574"><ele>52.75</ele><time>2026-04-19T12:22:11.304Z</time></trkpt><trkpt lat="42.8324423" lon="10.4337945"><ele>51.5</ele><time>2026-04-19T12:22:12.306Z</time></trkpt><trkpt lat="42.8325303" lon="10.433702"><ele>50.25</ele><time>2026-04-19T12:22:13.302Z</time></trkpt><trkpt lat="42.8325989" lon="10.4335843"><ele>49.0</ele><time>2026-04-19T12:22:14.309Z</time></trkpt><trkpt lat="42.8326418" lon="10.4334322"><ele>49.0</ele><time>2026-04-19T12:22:15.304Z</time></trkpt><trkpt lat="42.8326551" lon="10.4332655"><ele>49.0</ele><time>2026-04-19T12:22:16.3Z</time></trkpt><trkpt lat="42.832642" lon="10.4331138"><ele>49.0</ele><time>2026-04-19T12:22:17.307Z</time></trkpt><trkpt lat="42.8326191" lon="10.4329741"><ele>49.0</ele><time>2026-04-19T12:22:18.3Z</time></trkpt><trkpt lat="42.8325923" lon="10.4328477"><ele>49.0</ele><time>2026-04-19T12:22:19.292Z</time></trkpt><trkpt lat="42.832573" lon="10.4327401"><ele>51.166666666666664</ele><time>2026-04-19T12:22:20.303Z</time></trkpt><trkpt lat="42.8325604" lon="10.4326308"><ele>53.33333333333333</ele><time>2026-04-19T12:22:21.298Z</time></trkpt><trkpt lat="42.8325603" lon="10.4325155"><ele>55.5</ele><time>2026-04-19T12:22:22.293Z</time></trkpt><trkpt lat="42.832572" lon="10.4324115"><ele>57.66666666666667</ele><time>2026-04-19T12:22:23.296Z</time></trkpt><trkpt lat="42.8326087" lon="10.4323348"><ele>59.833333333333336</ele><time>2026-04-19T12:22:24.297Z</time></trkpt><trkpt lat="42.8326703" lon="10.432294"><ele>62.0</ele><time>2026-04-19T12:22:25.3Z</time></trkpt><trkpt lat="42.8327589" lon="10.4322867"><ele>62.0</ele><time>2026-04-19T12:22:26.292Z</time></trkpt><trkpt lat="42.8328691" lon="10.4323026"><ele>62.0</ele><time>2026-04-19T12:22:27.29Z</time></trkpt><trkpt lat="42.8329969" lon="10.4323189"><ele>62.0</ele><time>2026-04-19T12:22:28.288Z</time></trkpt><trkpt lat="42.8331342" lon="10.4323266"><ele>62.0</ele><time>2026-04-19T12:22:29.301Z</time></trkpt><trkpt lat="42.833263" lon="10.4323545"><ele>62.0</ele><time>2026-04-19T12:22:30.297Z</time></trkpt><trkpt lat="42.8333838" lon="10.4324333"><ele>62.0</ele><time>2026-04-19T12:22:31.301Z</time></trkpt><trkpt lat="42.8334942" lon="10.4325606"><ele>62.0</ele><time>2026-04-19T12:22:32.293Z</time></trkpt><trkpt lat="42.8336059" lon="10.4326945"><ele>62.0</ele><time>2026-04-19T12:22:33.296Z</time></trkpt><trkpt lat="42.8337166" lon="10.4328229"><ele>63.0</ele><time>2026-04-19T12:22:34.3Z</time></trkpt><trkpt lat="42.8338348" lon="10.4329514"><ele>64.0</ele><time>2026-04-19T12:22:35.302Z</time></trkpt><trkpt lat="42.8339564" lon="10.4330912"><ele>65.0</ele><time>2026-04-19T12:22:36.301Z</time></trkpt><trkpt lat="42.8340804" lon="10.4332193"><ele>61.5</ele><time>2026-04-19T12:22:37.3Z</time></trkpt><trkpt lat="42.8341978" lon="10.4333341"><ele>58.0</ele><time>2026-04-19T12:22:38.302Z</time></trkpt><trkpt lat="42.8343044" lon="10.4334428"><ele>54.5</ele><time>2026-04-19T12:22:39.302Z</time></trkpt><trkpt lat="42.8344041" lon="10.4335432"><ele>51.0</ele><time>2026-04-19T12:22:40.304Z</time></trkpt><trkpt lat="42.8345015" lon="10.4336446"><ele>51.0</ele><time>2026-04-19T12:22:41.307Z</time></trkpt><trkpt lat="42.8346135" lon="10.4337259"><ele>51.0</ele><time>2026-04-19T12:22:42.304Z</time></trkpt><trkpt lat="42.8347383" lon="10.433782"><ele>51.0</ele><time>2026-04-19T12:22:43.299Z</time></trkpt><trkpt lat="42.8348721" lon="10.4338169"><ele>51.0</ele><time>2026-04-19T12:22:44.3Z</time></trkpt><trkpt lat="42.8350104" lon="10.4338227"><ele>46.5</ele><time>2026-04-19T12:22:45.302Z</time></trkpt><trkpt lat="42.8351527" lon="10.4338374"><ele>42.0</ele><time>2026-04-19T12:22:46.304Z</time></trkpt><trkpt lat="42.8352923" lon="10.4338752"><ele>37.5</ele><time>2026-04-19T12:22:47.295Z</time></trkpt><trkpt lat="42.8354312" lon="10.4339308"><ele>33.0</ele><time>2026-04-19T12:22:48.301Z</time></trkpt><trkpt lat="42.8355533" lon="10.4339751"><ele>33.0</ele><time>2026-04-19T12:22:49.302Z</time></trkpt><trkpt lat="42.8356791" lon="10.433987"><ele>33.0</ele><time>2026-04-19T12:22:50.304Z</time></trkpt><trkpt lat="42.8358096" lon="10.4339818"><ele>33.0</ele><time>2026-04-19T12:22:51.305Z</time></trkpt><trkpt lat="42.8359375" lon="10.4339449"><ele>33.0</ele><time>2026-04-19T12:22:52.305Z</time></trkpt><trkpt lat="42.8360711" lon="10.4339042"><ele>33.0</ele><time>2026-04-19T12:22:53.305Z</time></trkpt><trkpt lat="42.8361887" lon="10.4338699"><ele>33.0</ele><time>2026-04-19T12:22:54.303Z</time></trkpt><trkpt lat="42.8363023" lon="10.4338213"><ele>33.0</ele><time>2026-04-19T12:22:55.304Z</time></trkpt><trkpt lat="42.8364124" lon="10.4337459"><ele>33.0</ele><time>2026-04-19T12:22:56.306Z</time></trkpt><trkpt lat="42.8365069" lon="10.4336142"><ele>33.0</ele><time>2026-04-19T12:22:57.304Z</time></trkpt><trkpt lat="42.8365841" lon="10.4334508"><ele>33.0</ele><time>2026-04-19T12:22:58.3Z</time></trkpt><trkpt lat="42.8366615" lon="10.433302"><ele>33.0</ele><time>2026-04-19T12:22:59.297Z</time></trkpt><trkpt lat="42.8367453" lon="10.4331658"><ele>33.0</ele><time>2026-04-19T12:23:00.293Z</time></trkpt><trkpt lat="42.8368128" lon="10.4330152"><ele>34.199999999999996</ele><time>2026-04-19T12:23:01.3Z</time></trkpt><trkpt lat="42.8368587" lon="10.4328474"><ele>35.4</ele><time>2026-04-19T12:23:02.3Z</time></trkpt><trkpt lat="42.83689" lon="10.4326999"><ele>36.599999999999994</ele><time>2026-04-19T12:23:03.296Z</time></trkpt><trkpt lat="42.836919" lon="10.4325538"><ele>37.8</ele><time>2026-04-19T12:23:04.294Z</time></trkpt><trkpt lat="42.8369498" lon="10.4324322"><ele>39.0</ele><time>2026-04-19T12:23:05.297Z</time></trkpt><trkpt lat="42.8369954" lon="10.4323433"><ele>39.0</ele><time>2026-04-19T12:23:06.298Z</time></trkpt><trkpt lat="42.8371296" lon="10.4323565"><ele>39.0</ele><time>2026-04-19T12:23:08.296Z</time></trkpt><trkpt lat="42.8371867" lon="10.4324553"><ele>39.0</ele><time>2026-04-19T12:23:09.293Z</time></trkpt><trkpt lat="42.8372216" lon="10.4325846"><ele>39.0</ele><time>2026-04-19T12:23:10.293Z</time></trkpt><trkpt lat="42.837242" lon="10.4327416"><ele>39.0</ele><time>2026-04-19T12:23:11.3Z</time></trkpt><trkpt lat="42.8372524" lon="10.4329303"><ele>37.333333333333336</ele><time>2026-04-19T12:23:12.3Z</time></trkpt><trkpt lat="42.8372633" lon="10.4331552"><ele>35.66666666666667</ele><time>2026-04-19T12:23:13.296Z</time></trkpt><trkpt lat="42.8372745" lon="10.4334046"><ele>34.0</ele><time>2026-04-19T12:23:14.294Z</time></trkpt><trkpt lat="42.8372823" lon="10.4336643"><ele>32.66666666666667</ele><time>2026-04-19T12:23:15.296Z</time></trkpt><trkpt lat="42.8372761" lon="10.4339351"><ele>31.333333333333336</ele><time>2026-04-19T12:23:16.292Z</time></trkpt><trkpt lat="42.8372664" lon="10.4341925"><ele>30.0</ele><time>2026-04-19T12:23:17.297Z</time></trkpt><trkpt lat="42.8372481" lon="10.4344376"><ele>32.0</ele><time>2026-04-19T12:23:18.296Z</time></trkpt><trkpt lat="42.8372309" lon="10.4346639"><ele>34.0</ele><time>2026-04-19T12:23:19.296Z</time></trkpt><trkpt lat="42.8371987" lon="10.4348466"><ele>36.0</ele><time>2026-04-19T12:23:20.299Z</time></trkpt><trkpt lat="42.8371452" lon="10.4350039"><ele>38.0</ele><time>2026-04-19T12:23:21.3Z</time></trkpt><trkpt lat="42.8370526" lon="10.4351444"><ele>38.0</ele><time>2026-04-19T12:23:22.292Z</time></trkpt><trkpt lat="42.8369504" lon="10.4353057"><ele>38.0</ele><time>2026-04-19T12:23:23.297Z</time></trkpt><trkpt lat="42.8368573" lon="10.4354652"><ele>38.0</ele><time>2026-04-19T12:23:24.298Z</time></trkpt><trkpt lat="42.8367721" lon="10.4356321"><ele>35.5</ele><time>2026-04-19T12:23:25.297Z</time></trkpt><trkpt lat="42.836707" lon="10.4358074"><ele>33.0</ele><time>2026-04-19T12:23:26.304Z</time></trkpt><trkpt lat="42.8366649" lon="10.4359807"><ele>30.5</ele><time>2026-04-19T12:23:27.299Z</time></trkpt><trkpt lat="42.8366384" lon="10.4361474"><ele>28.0</ele><time>2026-04-19T12:23:28.304Z</time></trkpt><trkpt lat="42.8366402" lon="10.4363156"><ele>28.000000000000004</ele><time>2026-04-19T12:23:29.307Z</time></trkpt><trkpt lat="42.8366521" lon="10.4364699"><ele>28.0</ele><time>2026-04-19T12:23:30.309Z</time></trkpt><trkpt lat="42.8366806" lon="10.4366004"><ele>28.0</ele><time>2026-04-19T12:23:31.313Z</time></trkpt><trkpt lat="42.8367302" lon="10.4366983"><ele>28.0</ele><time>2026-04-19T12:23:32.313Z</time></trkpt><trkpt lat="42.8367961" lon="10.4367397"><ele>28.000000000000004</ele><time>2026-04-19T12:23:33.314Z</time></trkpt><trkpt lat="42.83686" lon="10.4367203"><ele>28.0</ele><time>2026-04-19T12:23:34.307Z</time></trkpt><trkpt lat="42.8369073" lon="10.4366396"><ele>32.8</ele><time>2026-04-19T12:23:35.313Z</time></trkpt><trkpt lat="42.8369357" lon="10.436516"><ele>37.599999999999994</ele><time>2026-04-19T12:23:36.307Z</time></trkpt><trkpt lat="42.8369473" lon="10.4363576"><ele>42.400000000000006</ele><time>2026-04-19T12:23:37.306Z</time></trkpt><trkpt lat="42.8369646" lon="10.4361947"><ele>47.2</ele><time>2026-04-19T12:23:38.303Z</time></trkpt><trkpt lat="42.8369944" lon="10.4360419"><ele>52.0</ele><time>2026-04-19T12:23:39.307Z</time></trkpt><trkpt lat="42.8370327" lon="10.4359214"><ele>51.99999999999999</ele><time>2026-04-19T12:23:40.306Z</time></trkpt><trkpt lat="42.8370813" lon="10.4358388"><ele>52.0</ele><time>2026-04-19T12:23:41.308Z</time></trkpt><trkpt lat="42.8371813" lon="10.4358612"><ele>52.0</ele><time>2026-04-19T12:23:43.292Z</time></trkpt><trkpt lat="42.8372024" lon="10.4359509"><ele>52.0</ele><time>2026-04-19T12:23:44.302Z</time></trkpt><trkpt lat="42.8371918" lon="10.4360667"><ele>51.99999999999999</ele><time>2026-04-19T12:23:45.296Z</time></trkpt><trkpt lat="42.8371515" lon="10.4361938"><ele>52.0</ele><time>2026-04-19T12:23:46.294Z</time></trkpt><trkpt lat="42.8370965" lon="10.4363347"><ele>52.75</ele><time>2026-04-19T12:23:47.297Z</time></trkpt><trkpt lat="42.8370471" lon="10.4364958"><ele>53.5</ele><time>2026-04-19T12:23:48.307Z</time></trkpt><trkpt lat="42.8370325" lon="10.4366612"><ele>54.25</ele><time>2026-04-19T12:23:49.309Z</time></trkpt><trkpt lat="42.8370537" lon="10.436809"><ele>55.0</ele><time>2026-04-19T12:23:50.306Z</time></trkpt><trkpt lat="42.8371227" lon="10.4369393"><ele>55.0</ele><time>2026-04-19T12:23:51.307Z</time></trkpt><trkpt lat="42.8372185" lon="10.4370585"><ele>55.0</ele><time>2026-04-19T12:23:52.302Z</time></trkpt><trkpt lat="42.837327" lon="10.4371814"><ele>55.0</ele><time>2026-04-19T12:23:53.306Z</time></trkpt><trkpt lat="42.8374311" lon="10.4373419"><ele>55.0</ele><time>2026-04-19T12:23:54.305Z</time></trkpt><trkpt lat="42.8375184" lon="10.4375143"><ele>51.5</ele><time>2026-04-19T12:23:55.302Z</time></trkpt><trkpt lat="42.837607" lon="10.4376661"><ele>48.0</ele><time>2026-04-19T12:23:56.304Z</time></trkpt><trkpt lat="42.8377039" lon="10.4377886"><ele>44.5</ele><time>2026-04-19T12:23:57.306Z</time></trkpt><trkpt lat="42.8378094" lon="10.437874"><ele>41.0</ele><time>2026-04-19T12:23:58.306Z</time></trkpt><trkpt lat="42.8379236" lon="10.4379276"><ele>40.5</ele><time>2026-04-19T12:23:59.305Z</time></trkpt><trkpt lat="42.8380461" lon="10.437966"><ele>40.0</ele><time>2026-04-19T12:24:00.308Z</time></trkpt><trkpt lat="42.8381683" lon="10.4380111"><ele>39.5</ele><time>2026-04-19T12:24:01.306Z</time></trkpt><trkpt lat="42.8382803" lon="10.4380711"><ele>39.0</ele><time>2026-04-19T12:24:02.301Z</time></trkpt><trkpt lat="42.8383869" lon="10.4381592"><ele>41.5</ele><time>2026-04-19T12:24:03.3Z</time></trkpt><trkpt lat="42.8384798" lon="10.4382675"><ele>44.0</ele><time>2026-04-19T12:24:04.304Z</time></trkpt><trkpt lat="42.8385656" lon="10.438387"><ele>46.5</ele><time>2026-04-19T12:24:05.304Z</time></trkpt><trkpt lat="42.8386582" lon="10.4384875"><ele>49.0</ele><time>2026-04-19T12:24:06.303Z</time></trkpt><trkpt lat="42.8387638" lon="10.4385625"><ele>49.0</ele><time>2026-04-19T12:24:07.304Z</time></trkpt><trkpt lat="42.8388685" lon="10.4386152"><ele>49.0</ele><time>2026-04-19T12:24:08.304Z</time></trkpt><trkpt lat="42.8389766" lon="10.4386567"><ele>49.0</ele><time>2026-04-19T12:24:09.3Z</time></trkpt><trkpt lat="42.839079" lon="10.4386972"><ele>49.0</ele><time>2026-04-19T12:24:10.3Z</time></trkpt><trkpt lat="42.8391876" lon="10.438727"><ele>49.0</ele><time>2026-04-19T12:24:11.297Z</time></trkpt><trkpt lat="42.839306" lon="10.4387395"><ele>49.25</ele><time>2026-04-19T12:24:12.296Z</time></trkpt><trkpt lat="42.8394351" lon="10.4387268"><ele>49.5</ele><time>2026-04-19T12:24:13.3Z</time></trkpt><trkpt lat="42.8395654" lon="10.4387153"><ele>49.75</ele><time>2026-04-19T12:24:14.301Z</time></trkpt><trkpt lat="42.8396937" lon="10.4387172"><ele>50.0</ele><time>2026-04-19T12:24:15.3Z</time></trkpt><trkpt lat="42.839819" lon="10.4387269"><ele>50.0</ele><time>2026-04-19T12:24:16.301Z</time></trkpt><trkpt lat="42.8399363" lon="10.4387544"><ele>50.0</ele><time>2026-04-19T12:24:17.296Z</time></trkpt><trkpt lat="42.8400515" lon="10.4388138"><ele>50.0</ele><time>2026-04-19T12:24:18.295Z</time></trkpt><trkpt lat="42.8401614" lon="10.4389005"><ele>50.0</ele><time>2026-04-19T12:24:19.296Z</time></trkpt><trkpt lat="42.8402761" lon="10.4389973"><ele>45.25</ele><time>2026-04-19T12:24:20.301Z</time></trkpt><trkpt lat="42.8404054" lon="10.4390622"><ele>40.5</ele><time>2026-04-19T12:24:21.295Z</time></trkpt><trkpt lat="42.8405343" lon="10.4390908"><ele>35.75</ele><time>2026-04-19T12:24:22.301Z</time></trkpt><trkpt lat="42.8406609" lon="10.4390883"><ele>31.0</ele><time>2026-04-19T12:24:23.297Z</time></trkpt><trkpt lat="42.8407885" lon="10.439092"><ele>31.0</ele><time>2026-04-19T12:24:24.298Z</time></trkpt><trkpt lat="42.8409111" lon="10.4390977"><ele>31.0</ele><time>2026-04-19T12:24:25.296Z</time></trkpt><trkpt lat="42.8410242" lon="10.4391018"><ele>31.0</ele><time>2026-04-19T12:24:26.294Z</time></trkpt><trkpt lat="42.8411202" lon="10.43911"><ele>31.0</ele><time>2026-04-19T12:24:27.298Z</time></trkpt><trkpt lat="42.8412052" lon="10.4391149"><ele>31.0</ele><time>2026-04-19T12:24:28.298Z</time></trkpt><trkpt lat="42.8412807" lon="10.4391151"><ele>31.666666666666668</ele><time>2026-04-19T12:24:29.298Z</time></trkpt><trkpt lat="42.8413442" lon="10.4391167"><ele>32.333333333333336</ele><time>2026-04-19T12:24:30.297Z</time></trkpt><trkpt lat="42.8414437" lon="10.4391025"><ele>33.0</ele><time>2026-04-19T12:24:32.293Z</time></trkpt><trkpt lat="42.8415061" lon="10.439064"><ele>33.666666666666664</ele><time>2026-04-19T12:24:34.297Z</time></trkpt><trkpt lat="42.8415161" lon="10.4389776"><ele>34.33333333333333</ele><time>2026-04-19T12:24:38.298Z</time></trkpt><trkpt lat="42.8414519" lon="10.4389394"><ele>35.0</ele><time>2026-04-19T12:24:40.299Z</time></trkpt><trkpt lat="42.8413357" lon="10.4389203"><ele>35.0</ele><time>2026-04-19T12:24:42.297Z</time></trkpt><trkpt lat="42.8412566" lon="10.4389158"><ele>35.0</ele><time>2026-04-19T12:24:43.299Z</time></trkpt><trkpt lat="42.8411618" lon="10.4389126"><ele>35.0</ele><time>2026-04-19T12:24:44.3Z</time></trkpt><trkpt lat="42.8410624" lon="10.4389092"><ele>35.0</ele><time>2026-04-19T12:24:45.297Z</time></trkpt><trkpt lat="42.840958" lon="10.438908"><ele>35.0</ele><time>2026-04-19T12:24:46.293Z</time></trkpt><trkpt lat="42.8408478" lon="10.4389108"><ele>34.0</ele><time>2026-04-19T12:24:47.297Z</time></trkpt><trkpt lat="42.8407271" lon="10.4389167"><ele>33.0</ele><time>2026-04-19T12:24:48.298Z</time></trkpt><trkpt lat="42.8405997" lon="10.4389088"><ele>32.0</ele><time>2026-04-19T12:24:49.302Z</time></trkpt><trkpt lat="42.8404654" lon="10.438893"><ele>31.0</ele><time>2026-04-19T12:24:50.302Z</time></trkpt><trkpt lat="42.8403477" lon="10.4388715"><ele>31.0</ele><time>2026-04-19T12:24:51.305Z</time></trkpt><trkpt lat="42.8402463" lon="10.4388352"><ele>31.0</ele><time>2026-04-19T12:24:52.293Z</time></trkpt><trkpt lat="42.8401626" lon="10.4387622"><ele>31.0</ele><time>2026-04-19T12:24:53.303Z</time></trkpt><trkpt lat="42.8400935" lon="10.4386598"><ele>31.0</ele><time>2026-04-19T12:24:54.297Z</time></trkpt><trkpt lat="42.8400277" lon="10.4385475"><ele>31.0</ele><time>2026-04-19T12:24:55.3Z</time></trkpt><trkpt lat="42.8399587" lon="10.4384798"><ele>34.8</ele><time>2026-04-19T12:24:56.296Z</time></trkpt><trkpt lat="42.8398792" lon="10.4384386"><ele>38.6</ele><time>2026-04-19T12:24:57.3Z</time></trkpt><trkpt lat="42.8397906" lon="10.4383805"><ele>42.4</ele><time>2026-04-19T12:24:58.297Z</time></trkpt><trkpt lat="42.8396946" lon="10.4383292"><ele>46.2</ele><time>2026-04-19T12:24:59.298Z</time></trkpt><trkpt lat="42.8395931" lon="10.4382919"><ele>50.0</ele><time>2026-04-19T12:25:00.299Z</time></trkpt><trkpt lat="42.8394878" lon="10.4382835"><ele>50.0</ele><time>2026-04-19T12:25:01.3Z</time></trkpt><trkpt lat="42.8393851" lon="10.4382874"><ele>50.0</ele><time>2026-04-19T12:25:02.296Z</time></trkpt><trkpt lat="42.8392885" lon="10.4382924"><ele>50.0</ele><time>2026-04-19T12:25:03.295Z</time></trkpt><trkpt lat="42.8392209" lon="10.4382729"><ele>50.0</ele><time>2026-04-19T12:25:04.305Z</time></trkpt><trkpt lat="42.8392088" lon="10.4381685"><ele>50.0</ele><time>2026-04-19T12:25:06.303Z</time></trkpt><trkpt lat="42.8393146" lon="10.4381345"><ele>50.0</ele><time>2026-04-19T12:25:08.299Z</time></trkpt><trkpt lat="42.8394154" lon="10.4381431"><ele>50.0</ele><time>2026-04-19T12:25:09.292Z</time></trkpt><trkpt lat="42.8395054" lon="10.4381709"><ele>50.0</ele><time>2026-04-19T12:25:10.29Z</time></trkpt><trkpt lat="42.8395821" lon="10.4381718"><ele>50.0</ele><time>2026-04-19T12:25:11.301Z</time></trkpt><trkpt lat="42.8396334" lon="10.4380735"><ele>50.0</ele><time>2026-04-19T12:25:13.293Z</time></trkpt><trkpt lat="42.8395575" lon="10.4379944"><ele>50.0</ele><time>2026-04-19T12:25:15.296Z</time></trkpt><trkpt lat="42.8394853" lon="10.4379732"><ele>50.0</ele><time>2026-04-19T12:25:16.296Z</time></trkpt><trkpt lat="42.839396" lon="10.4379508"><ele>50.0</ele><time>2026-04-19T12:25:17.302Z</time></trkpt><trkpt lat="42.8392812" lon="10.4379237"><ele>50.0</ele><time>2026-04-19T12:25:18.295Z</time></trkpt><trkpt lat="42.8391713" lon="10.4379122"><ele>50.0</ele><time>2026-04-19T12:25:19.297Z</time></trkpt><trkpt lat="42.8390778" lon="10.4379049"><ele>54.2</ele><time>2026-04-19T12:25:20.302Z</time></trkpt><trkpt lat="42.8390118" lon="10.4378803"><ele>58.4</ele><time>2026-04-19T12:25:21.307Z</time></trkpt><trkpt lat="42.8389897" lon="10.4377895"><ele>62.599999999999994</ele><time>2026-04-19T12:25:23.305Z</time></trkpt><trkpt lat="42.8390988" lon="10.4377312"><ele>66.8</ele><time>2026-04-19T12:25:25.303Z</time></trkpt><trkpt lat="42.8391884" lon="10.4377151"><ele>71.0</ele><time>2026-04-19T12:25:26.315Z</time></trkpt><trkpt lat="42.8393261" lon="10.4377259"><ele>71.0</ele><time>2026-04-19T12:25:27.327Z</time></trkpt><trkpt lat="42.8394594" lon="10.4377297"><ele>71.0</ele><time>2026-04-19T12:25:28.336Z</time></trkpt><trkpt lat="42.8395629" lon="10.4377146"><ele>71.0</ele><time>2026-04-19T12:25:29.312Z</time></trkpt><trkpt lat="42.8396291" lon="10.4376727"><ele>71.0</ele><time>2026-04-19T12:25:30.316Z</time></trkpt><trkpt lat="42.8396613" lon="10.4375929"><ele>71.0</ele><time>2026-04-19T12:25:31.305Z</time></trkpt><trkpt lat="42.8396701" lon="10.4374686"><ele>71.0</ele><time>2026-04-19T12:25:32.315Z</time></trkpt><trkpt lat="42.8396501" lon="10.4373178"><ele>71.0</ele><time>2026-04-19T12:25:33.305Z</time></trkpt><trkpt lat="42.8395989" lon="10.4371459"><ele>71.0</ele><time>2026-04-19T12:25:34.308Z</time></trkpt><trkpt lat="42.839527" lon="10.4369774"><ele>71.0</ele><time>2026-04-19T12:25:35.312Z</time></trkpt><trkpt lat="42.8394657" lon="10.436847"><ele>71.0</ele><time>2026-04-19T12:25:36.307Z</time></trkpt><trkpt lat="42.8394211" lon="10.4367419"><ele>71.0</ele><time>2026-04-19T12:25:37.316Z</time></trkpt><trkpt lat="42.8393854" lon="10.4366546"><ele>71.0</ele><time>2026-04-19T12:25:38.305Z</time></trkpt><trkpt lat="42.8393542" lon="10.436571"><ele>71.0</ele><time>2026-04-19T12:25:39.306Z</time></trkpt><trkpt lat="42.8393315" lon="10.4364884"><ele>71.0</ele><time>2026-04-19T12:25:40.312Z</time></trkpt><trkpt lat="42.8392899" lon="10.4363445"><ele>71.0</ele><time>2026-04-19T12:25:42.31Z</time></trkpt><trkpt lat="42.8392373" lon="10.4361939"><ele>72.0</ele><time>2026-04-19T12:25:44.309Z</time></trkpt><trkpt lat="42.8391968" lon="10.4360495"><ele>73.0</ele><time>2026-04-19T12:25:46.317Z</time></trkpt><trkpt lat="42.8391761" lon="10.4359129"><ele>74.0</ele><time>2026-04-19T12:25:48.315Z</time></trkpt><trkpt lat="42.8391684" lon="10.4357448"><ele>75.0</ele><time>2026-04-19T12:25:50.315Z</time></trkpt><trkpt lat="42.8391947" lon="10.4355972"><ele>75.0</ele><time>2026-04-19T12:25:52.313Z</time></trkpt><trkpt lat="42.8392415" lon="10.435493"><ele>75.0</ele><time>2026-04-19T12:25:54.315Z</time></trkpt><trkpt lat="42.8392911" lon="10.4354004"><ele>75.0</ele><time>2026-04-19T12:25:56.315Z</time></trkpt><trkpt lat="42.839349" lon="10.4353057"><ele>75.0</ele><time>2026-04-19T12:25:58.312Z</time></trkpt><trkpt lat="42.8393899" lon="10.4351998"><ele>75.0</ele><time>2026-04-19T12:26:00.313Z</time></trkpt><trkpt lat="42.8393868" lon="10.4350688"><ele>75.0</ele><time>2026-04-19T12:26:02.315Z</time></trkpt><trkpt lat="42.8393731" lon="10.4349696"><ele>77.4</ele><time>2026-04-19T12:26:04.329Z</time></trkpt><trkpt lat="42.8394024" lon="10.4348561"><ele>79.8</ele><time>2026-04-19T12:26:07.325Z</time></trkpt><trkpt lat="42.8394547" lon="10.4347735"><ele>82.19999999999999</ele><time>2026-04-19T12:26:09.319Z</time></trkpt><trkpt lat="42.839533" lon="10.4346003"><ele>84.6</ele><time>2026-04-19T12:26:11.31Z</time></trkpt><trkpt lat="42.8395666" lon="10.4344663"><ele>87.0</ele><time>2026-04-19T12:26:12.313Z</time></trkpt><trkpt lat="42.839594" lon="10.4343247"><ele>88.66666666666667</ele><time>2026-04-19T12:26:13.316Z</time></trkpt><trkpt lat="42.8396142" lon="10.4341972"><ele>90.33333333333334</ele><time>2026-04-19T12:26:14.32Z</time></trkpt><trkpt lat="42.8396254" lon="10.4340744"><ele>92.0</ele><time>2026-04-19T12:26:15.317Z</time></trkpt><trkpt lat="42.839621" lon="10.4339741"><ele>93.66666666666667</ele><time>2026-04-19T12:26:16.306Z</time></trkpt><trkpt lat="42.8396057" lon="10.4338789"><ele>95.33333333333334</ele><time>2026-04-19T12:26:17.321Z</time></trkpt><trkpt lat="42.8395705" lon="10.4338068"><ele>97.0</ele><time>2026-04-19T12:26:18.32Z</time></trkpt><trkpt lat="42.8395086" lon="10.4337554"><ele>97.19999999999999</ele><time>2026-04-19T12:26:19.323Z</time></trkpt><trkpt lat="42.8394119" lon="10.4337278"><ele>97.4</ele><time>2026-04-19T12:26:20.31Z</time></trkpt><trkpt lat="42.8392943" lon="10.4337188"><ele>97.6</ele><time>2026-04-19T12:26:21.314Z</time></trkpt><trkpt lat="42.8391776" lon="10.4337025"><ele>97.80000000000001</ele><time>2026-04-19T12:26:22.309Z</time></trkpt><trkpt lat="42.8390921" lon="10.4336787"><ele>98.0</ele><time>2026-04-19T12:26:23.311Z</time></trkpt><trkpt lat="42.8390264" lon="10.4336471"><ele>98.0</ele><time>2026-04-19T12:26:24.315Z</time></trkpt><trkpt lat="42.8389529" lon="10.4335674"><ele>98.0</ele><time>2026-04-19T12:26:26.32Z</time></trkpt><trkpt lat="42.8390366" lon="10.4335076"><ele>98.0</ele><time>2026-04-19T12:26:29.314Z</time></trkpt><trkpt lat="42.8391216" lon="10.4335465"><ele>98.0</ele><time>2026-04-19T12:26:30.312Z</time></trkpt><trkpt lat="42.8392264" lon="10.4336134"><ele>98.0</ele><time>2026-04-19T12:26:31.307Z</time></trkpt><trkpt lat="42.8393396" lon="10.4336471"><ele>101.0</ele><time>2026-04-19T12:26:32.306Z</time></trkpt><trkpt lat="42.8394631" lon="10.4336447"><ele>104.0</ele><time>2026-04-19T12:26:33.304Z</time></trkpt><trkpt lat="42.8395739" lon="10.433611"><ele>107.0</ele><time>2026-04-19T12:26:34.3Z</time></trkpt><trkpt lat="42.8396855" lon="10.4335642"><ele>110.0</ele><time>2026-04-19T12:26:35.305Z</time></trkpt><trkpt lat="42.8397946" lon="10.4335212"><ele>109.99999999999999</ele><time>2026-04-19T12:26:36.302Z</time></trkpt><trkpt lat="42.8398985" lon="10.4334932"><ele>110.0</ele><time>2026-04-19T12:26:37.307Z</time></trkpt><trkpt lat="42.8399913" lon="10.4334667"><ele>110.0</ele><time>2026-04-19T12:26:38.303Z</time></trkpt><trkpt lat="42.8400695" lon="10.433446"><ele>110.0</ele><time>2026-04-19T12:26:39.301Z</time></trkpt><trkpt lat="42.8401356" lon="10.433405"><ele>109.99999999999999</ele><time>2026-04-19T12:26:40.306Z</time></trkpt><trkpt lat="42.8401867" lon="10.4333245"><ele>110.0</ele><time>2026-04-19T12:26:41.308Z</time></trkpt><trkpt lat="42.8401919" lon="10.4331704"><ele>110.0</ele><time>2026-04-19T12:26:43.304Z</time></trkpt><trkpt lat="42.8400899" lon="10.4330811"><ele>110.0</ele><time>2026-04-19T12:26:45.303Z</time></trkpt><trkpt lat="42.8400022" lon="10.433057"><ele>110.0</ele><time>2026-04-19T12:26:46.306Z</time></trkpt><trkpt lat="42.8399075" lon="10.4330771"><ele>110.0</ele><time>2026-04-19T12:26:47.3Z</time></trkpt><trkpt lat="42.8397988" lon="10.4331473"><ele>110.0</ele><time>2026-04-19T12:26:48.3Z</time></trkpt><trkpt lat="42.8396771" lon="10.433229"><ele>110.0</ele><time>2026-04-19T12:26:49.298Z</time></trkpt><trkpt lat="42.8395539" lon="10.4332831"><ele>110.0</ele><time>2026-04-19T12:26:50.303Z</time></trkpt><trkpt lat="42.8394271" lon="10.4333005"><ele>110.0</ele><time>2026-04-19T12:26:51.309Z</time></trkpt><trkpt lat="42.8393123" lon="10.4332927"><ele>110.0</ele><time>2026-04-19T12:26:52.31Z</time></trkpt><trkpt lat="42.8392299" lon="10.4332691"><ele>110.0</ele><time>2026-04-19T12:26:53.309Z</time></trkpt><trkpt lat="42.8391973" lon="10.433175"><ele>110.0</ele><time>2026-04-19T12:26:55.308Z</time></trkpt><trkpt lat="42.8392928" lon="10.4331268"><ele>110.0</ele><time>2026-04-19T12:26:57.307Z</time></trkpt><trkpt lat="42.8393756" lon="10.4331259"><ele>110.0</ele><time>2026-04-19T12:26:58.31Z</time></trkpt><trkpt lat="42.8394941" lon="10.4331194"><ele>110.0</ele><time>2026-04-19T12:26:59.301Z</time></trkpt><trkpt lat="42.8396136" lon="10.4330835"><ele>110.0</ele><time>2026-04-19T12:27:00.302Z</time></trkpt><trkpt lat="42.8397229" lon="10.4330169"><ele>110.0</ele><time>2026-04-19T12:27:01.302Z</time></trkpt><trkpt lat="42.8398282" lon="10.4329121"><ele>110.0</ele><time>2026-04-19T12:27:02.305Z</time></trkpt><trkpt lat="42.8399284" lon="10.4328234"><ele>110.0</ele><time>2026-04-19T12:27:03.302Z</time></trkpt><trkpt lat="42.8400067" lon="10.432771"><ele>114.4</ele><time>2026-04-19T12:27:04.301Z</time></trkpt><trkpt lat="42.8400847" lon="10.4327517"><ele>118.8</ele><time>2026-04-19T12:27:05.303Z</time></trkpt><trkpt lat="42.8401709" lon="10.4327717"><ele>123.19999999999999</ele><time>2026-04-19T12:27:06.303Z</time></trkpt><trkpt lat="42.840284" lon="10.4328358"><ele>127.6</ele><time>2026-04-19T12:27:07.302Z</time></trkpt><trkpt lat="42.840392" lon="10.432897"><ele>132.0</ele><time>2026-04-19T12:27:08.313Z</time></trkpt><trkpt lat="42.8404926" lon="10.4329619"><ele>130.5</ele><time>2026-04-19T12:27:09.306Z</time></trkpt><trkpt lat="42.8405797" lon="10.4330346"><ele>129.0</ele><time>2026-04-19T12:27:10.307Z</time></trkpt><trkpt lat="42.8406455" lon="10.4331145"><ele>127.5</ele><time>2026-04-19T12:27:11.308Z</time></trkpt><trkpt lat="42.8406938" lon="10.4331768"><ele>126.0</ele><time>2026-04-19T12:27:12.309Z</time></trkpt><trkpt lat="42.8407559" lon="10.4331916"><ele>124.5</ele><time>2026-04-19T12:27:14.309Z</time></trkpt><trkpt lat="42.8407646" lon="10.433083"><ele>123.0</ele><time>2026-04-19T12:27:16.309Z</time></trkpt><trkpt lat="42.8407344" lon="10.4329994"><ele>128.25</ele><time>2026-04-19T12:27:17.313Z</time></trkpt><trkpt lat="42.8406785" lon="10.4329104"><ele>133.5</ele><time>2026-04-19T12:27:18.306Z</time></trkpt><trkpt lat="42.8405897" lon="10.4328053"><ele>138.75</ele><time>2026-04-19T12:27:19.313Z</time></trkpt><trkpt lat="42.8404808" lon="10.4326784"><ele>144.0</ele><time>2026-04-19T12:27:20.303Z</time></trkpt><trkpt lat="42.8403732" lon="10.4325604"><ele>144.0</ele><time>2026-04-19T12:27:21.309Z</time></trkpt><trkpt lat="42.8402581" lon="10.4324525"><ele>144.0</ele><time>2026-04-19T12:27:22.303Z</time></trkpt><trkpt lat="42.8401362" lon="10.4323639"><ele>144.0</ele><time>2026-04-19T12:27:23.306Z</time></trkpt><trkpt lat="42.840019" lon="10.4322976"><ele>144.0</ele><time>2026-04-19T12:27:24.305Z</time></trkpt><trkpt lat="42.839919" lon="10.4322602"><ele>141.6</ele><time>2026-04-19T12:27:25.305Z</time></trkpt><trkpt lat="42.8398318" lon="10.4322651"><ele>139.2</ele><time>2026-04-19T12:27:26.307Z</time></trkpt><trkpt lat="42.839743" lon="10.4323144"><ele>136.79999999999998</ele><time>2026-04-19T12:27:27.299Z</time></trkpt><trkpt lat="42.839642" lon="10.4324087"><ele>134.4</ele><time>2026-04-19T12:27:28.299Z</time></trkpt><trkpt lat="42.839556" lon="10.4325196"><ele>132.0</ele><time>2026-04-19T12:27:29.304Z</time></trkpt><trkpt lat="42.8394899" lon="10.4325837"><ele>132.0</ele><time>2026-04-19T12:27:30.31Z</time></trkpt><trkpt lat="42.8394162" lon="10.4325653"><ele>132.0</ele><time>2026-04-19T12:27:32.303Z</time></trkpt><trkpt lat="42.8394509" lon="10.4324484"><ele>132.0</ele><time>2026-04-19T12:27:34.302Z</time></trkpt><trkpt lat="42.8395495" lon="10.4323129"><ele>132.0</ele><time>2026-04-19T12:27:36.311Z</time></trkpt><trkpt lat="42.8396506" lon="10.4322177"><ele>132.0</ele><time>2026-04-19T12:27:37.306Z</time></trkpt><trkpt lat="42.8397611" lon="10.4321245"><ele>137.75</ele><time>2026-04-19T12:27:38.302Z</time></trkpt><trkpt lat="42.8398653" lon="10.4320589"><ele>143.5</ele><time>2026-04-19T12:27:39.302Z</time></trkpt><trkpt lat="42.8399647" lon="10.4320371"><ele>149.25</ele><time>2026-04-19T12:27:40.306Z</time></trkpt><trkpt lat="42.8400785" lon="10.4320706"><ele>155.0</ele><time>2026-04-19T12:27:41.298Z</time></trkpt><trkpt lat="42.8402157" lon="10.4321305"><ele>151.33333333333331</ele><time>2026-04-19T12:27:42.3Z</time></trkpt><trkpt lat="42.8403723" lon="10.4321934"><ele>147.66666666666666</ele><time>2026-04-19T12:27:43.3Z</time></trkpt><trkpt lat="42.8405225" lon="10.4322497"><ele>144.0</ele><time>2026-04-19T12:27:44.301Z</time></trkpt><trkpt lat="42.8406552" lon="10.4323046"><ele>144.0</ele><time>2026-04-19T12:27:45.303Z</time></trkpt><trkpt lat="42.8407743" lon="10.4323811"><ele>144.0</ele><time>2026-04-19T12:27:46.304Z</time></trkpt><trkpt lat="42.8409042" lon="10.4324307"><ele>144.0</ele><time>2026-04-19T12:27:47.303Z</time></trkpt><trkpt lat="42.8410416" lon="10.4324629"><ele>144.0</ele><time>2026-04-19T12:27:48.306Z</time></trkpt><trkpt lat="42.8411828" lon="10.4324794"><ele>146.2</ele><time>2026-04-19T12:27:49.303Z</time></trkpt><trkpt lat="42.8413086" lon="10.4324958"><ele>148.4</ele><time>2026-04-19T12:27:50.296Z</time></trkpt><trkpt lat="42.8414145" lon="10.4325219"><ele>150.6</ele><time>2026-04-19T12:27:51.308Z</time></trkpt><trkpt lat="42.8415005" lon="10.4325509"><ele>152.8</ele><time>2026-04-19T12:27:52.304Z</time></trkpt><trkpt lat="42.8415718" lon="10.4325731"><ele>155.0</ele><time>2026-04-19T12:27:53.31Z</time></trkpt><trkpt lat="42.8416549" lon="10.4325084"><ele>155.0</ele><time>2026-04-19T12:27:55.309Z</time></trkpt><trkpt lat="42.8416316" lon="10.4323904"><ele>155.0</ele><time>2026-04-19T12:27:57.301Z</time></trkpt><trkpt lat="42.8415708" lon="10.4323527"><ele>155.0</ele><time>2026-04-19T12:27:58.313Z</time></trkpt><trkpt lat="42.8414728" lon="10.4323088"><ele>155.0</ele><time>2026-04-19T12:27:59.305Z</time></trkpt><trkpt lat="42.8413368" lon="10.4322397"><ele>155.0</ele><time>2026-04-19T12:28:00.312Z</time></trkpt><trkpt lat="42.8411772" lon="10.4321522"><ele>159.33333333333331</ele><time>2026-04-19T12:28:01.303Z</time></trkpt><trkpt lat="42.8409943" lon="10.4320509"><ele>163.66666666666666</ele><time>2026-04-19T12:28:02.306Z</time></trkpt><trkpt lat="42.8408042" lon="10.4319387"><ele>168.0</ele><time>2026-04-19T12:28:03.308Z</time></trkpt><trkpt lat="42.8406386" lon="10.4318265"><ele>168.0</ele><time>2026-04-19T12:28:04.31Z</time></trkpt><trkpt lat="42.8404989" lon="10.4317067"><ele>168.0</ele><time>2026-04-19T12:28:05.307Z</time></trkpt><trkpt lat="42.8403711" lon="10.4315993"><ele>168.0</ele><time>2026-04-19T12:28:06.313Z</time></trkpt><trkpt lat="42.8402638" lon="10.4315073"><ele>168.0</ele><time>2026-04-19T12:28:07.31Z</time></trkpt><trkpt lat="42.8401739" lon="10.4314441"><ele>170.0</ele><time>2026-04-19T12:28:08.313Z</time></trkpt><trkpt lat="42.8400688" lon="10.4313833"><ele>172.0</ele><time>2026-04-19T12:28:09.309Z</time></trkpt><trkpt lat="42.8399883" lon="10.4313384"><ele>174.0</ele><time>2026-04-19T12:28:10.311Z</time></trkpt><trkpt lat="42.8399317" lon="10.4312544"><ele>176.0</ele><time>2026-04-19T12:28:12.31Z</time></trkpt><trkpt lat="42.840027" lon="10.4311903"><ele>178.0</ele><time>2026-04-19T12:28:14.312Z</time></trkpt><trkpt lat="42.8400921" lon="10.4312191"><ele>175.5</ele><time>2026-04-19T12:28:15.306Z</time></trkpt><trkpt lat="42.8401833" lon="10.4312742"><ele>173.0</ele><time>2026-04-19T12:28:16.297Z</time></trkpt><trkpt lat="42.8402985" lon="10.4313648"><ele>170.5</ele><time>2026-04-19T12:28:17.311Z</time></trkpt><trkpt lat="42.8404203" lon="10.4314557"><ele>168.0</ele><time>2026-04-19T12:28:18.296Z</time></trkpt><trkpt lat="42.8405515" lon="10.4315301"><ele>168.0</ele><time>2026-04-19T12:28:19.314Z</time></trkpt><trkpt lat="42.8407039" lon="10.431573"><ele>168.0</ele><time>2026-04-19T12:28:20.303Z</time></trkpt><trkpt lat="42.8408778" lon="10.4315798"><ele>168.0</ele><time>2026-04-19T12:28:21.316Z</time></trkpt><trkpt lat="42.8410551" lon="10.431579"><ele>170.33333333333334</ele><time>2026-04-19T12:28:22.307Z</time></trkpt><trkpt lat="42.8412272" lon="10.4315754"><ele>172.66666666666669</ele><time>2026-04-19T12:28:23.309Z</time></trkpt><trkpt lat="42.841396" lon="10.431553"><ele>175.0</ele><time>2026-04-19T12:28:24.304Z</time></trkpt><trkpt lat="42.8415437" lon="10.4315444"><ele>175.0</ele><time>2026-04-19T12:28:25.308Z</time></trkpt><trkpt lat="42.841672" lon="10.4315432"><ele>175.0</ele><time>2026-04-19T12:28:26.304Z</time></trkpt><trkpt lat="42.841783" lon="10.4315354"><ele>175.0</ele><time>2026-04-19T12:28:27.305Z</time></trkpt><trkpt lat="42.8418758" lon="10.4315192"><ele>175.0</ele><time>2026-04-19T12:28:28.307Z</time></trkpt><trkpt lat="42.8419618" lon="10.4314929"><ele>175.0</ele><time>2026-04-19T12:28:29.309Z</time></trkpt><trkpt lat="42.8420288" lon="10.4314645"><ele>175.66666666666669</ele><time>2026-04-19T12:28:30.309Z</time></trkpt><trkpt lat="42.8420994" lon="10.4314414"><ele>176.33333333333334</ele><time>2026-04-19T12:28:31.311Z</time></trkpt><trkpt lat="42.8421714" lon="10.4314212"><ele>177.0</ele><time>2026-04-19T12:28:32.308Z</time></trkpt><trkpt lat="42.8422402" lon="10.4313893"><ele>177.66666666666666</ele><time>2026-04-19T12:28:33.309Z</time></trkpt><trkpt lat="42.842331" lon="10.4313073"><ele>178.33333333333331</ele><time>2026-04-19T12:28:35.307Z</time></trkpt><trkpt lat="42.8423806" lon="10.4312292"><ele>179.0</ele><time>2026-04-19T12:28:37.308Z</time></trkpt><trkpt lat="42.8424429" lon="10.431183"><ele>179.0</ele><time>2026-04-19T12:28:39.309Z</time></trkpt><trkpt lat="42.842495" lon="10.4311104"><ele>179.0</ele><time>2026-04-19T12:28:41.315Z</time></trkpt><trkpt lat="42.8425064" lon="10.4310244"><ele>179.0</ele><time>2026-04-19T12:28:42.311Z</time></trkpt><trkpt lat="42.8425117" lon="10.4309083"><ele>179.0</ele><time>2026-04-19T12:28:43.303Z</time></trkpt><trkpt lat="42.8425087" lon="10.4307856"><ele>179.0</ele><time>2026-04-19T12:28:44.302Z</time></trkpt><trkpt lat="42.8425061" lon="10.4306804"><ele>179.0</ele><time>2026-04-19T12:28:45.304Z</time></trkpt><trkpt lat="42.8425132" lon="10.4305107"><ele>177.66666666666666</ele><time>2026-04-19T12:28:47.3Z</time></trkpt><trkpt lat="42.8425277" lon="10.4303418"><ele>176.33333333333331</ele><time>2026-04-19T12:28:49.299Z</time></trkpt><trkpt lat="42.8425392" lon="10.430253"><ele>175.0</ele><time>2026-04-19T12:28:50.303Z</time></trkpt><trkpt lat="42.8425573" lon="10.4301605"><ele>173.66666666666666</ele><time>2026-04-19T12:28:51.295Z</time></trkpt><trkpt lat="42.8425855" lon="10.4300633"><ele>172.33333333333334</ele><time>2026-04-19T12:28:52.279Z</time></trkpt><trkpt lat="42.8426125" lon="10.4299755"><ele>171.0</ele><time>2026-04-19T12:28:53.284Z</time></trkpt><trkpt lat="42.8426298" lon="10.4298822"><ele>170.20000000000002</ele><time>2026-04-19T12:28:54.283Z</time></trkpt><trkpt lat="42.8426429" lon="10.4297917"><ele>169.4</ele><time>2026-04-19T12:28:55.277Z</time></trkpt><trkpt lat="42.8426698" lon="10.4296397"><ele>168.6</ele><time>2026-04-19T12:28:57.297Z</time></trkpt><trkpt lat="42.8427385" lon="10.4294984"><ele>167.8</ele><time>2026-04-19T12:28:59.301Z</time></trkpt><trkpt lat="42.8428005" lon="10.4293673"><ele>167.0</ele><time>2026-04-19T12:29:01.301Z</time></trkpt><trkpt lat="42.8428233" lon="10.4292791"><ele>165.33333333333331</ele><time>2026-04-19T12:29:02.292Z</time></trkpt><trkpt lat="42.8428464" lon="10.4291949"><ele>163.66666666666666</ele><time>2026-04-19T12:29:03.292Z</time></trkpt><trkpt lat="42.84287" lon="10.4291111"><ele>162.0</ele><time>2026-04-19T12:29:04.296Z</time></trkpt><trkpt lat="42.8428848" lon="10.4290205"><ele>160.33333333333334</ele><time>2026-04-19T12:29:05.287Z</time></trkpt><trkpt lat="42.8428568" lon="10.4288713"><ele>158.66666666666669</ele><time>2026-04-19T12:29:07.3Z</time></trkpt><trkpt lat="42.8427807" lon="10.4287783"><ele>157.0</ele><time>2026-04-19T12:29:09.291Z</time></trkpt><trkpt lat="42.8427394" lon="10.4286892"><ele>157.0</ele><time>2026-04-19T12:29:11.3Z</time></trkpt><trkpt lat="42.8428302" lon="10.4287818"><ele>157.0</ele><time>2026-04-19T12:29:14.289Z</time></trkpt><trkpt lat="42.8428951" lon="10.4288291"><ele>157.0</ele><time>2026-04-19T12:29:15.292Z</time></trkpt><trkpt lat="42.8429638" lon="10.4288434"><ele>157.0</ele><time>2026-04-19T12:29:16.295Z</time></trkpt><trkpt lat="42.8430268" lon="10.4288186"><ele>157.0</ele><time>2026-04-19T12:29:17.302Z</time></trkpt><trkpt lat="42.8430942" lon="10.428736"><ele>157.0</ele><time>2026-04-19T12:29:19.294Z</time></trkpt><trkpt lat="42.8430868" lon="10.428624"><ele>155.2</ele><time>2026-04-19T12:29:59.288Z</time></trkpt><trkpt lat="42.8430148" lon="10.4285322"><ele>153.39999999999998</ele><time>2026-04-19T12:30:01.296Z</time></trkpt><trkpt lat="42.8429772" lon="10.4284225"><ele>151.60000000000002</ele><time>2026-04-19T12:30:03.29Z</time></trkpt><trkpt lat="42.842983" lon="10.4282837"><ele>149.8</ele><time>2026-04-19T12:30:05.285Z</time></trkpt><trkpt lat="42.8430084" lon="10.4281439"><ele>148.0</ele><time>2026-04-19T12:30:07.301Z</time></trkpt><trkpt lat="42.8430277" lon="10.4280261"><ele>148.0</ele><time>2026-04-19T12:30:09.301Z</time></trkpt><trkpt lat="42.8430424" lon="10.4278845"><ele>148.0</ele><time>2026-04-19T12:30:11.307Z</time></trkpt><trkpt lat="42.8430775" lon="10.4277435"><ele>148.0</ele><time>2026-04-19T12:30:13.311Z</time></trkpt><trkpt lat="42.8431205" lon="10.4276093"><ele>148.0</ele><time>2026-04-19T12:30:15.299Z</time></trkpt><trkpt lat="42.8431591" lon="10.427473"><ele>148.0</ele><time>2026-04-19T12:30:17.307Z</time></trkpt><trkpt lat="42.843171" lon="10.4273151"><ele>148.0</ele><time>2026-04-19T12:30:19.302Z</time></trkpt><trkpt lat="42.8431643" lon="10.427222"><ele>148.0</ele><time>2026-04-19T12:30:20.3Z</time></trkpt><trkpt lat="42.8431613" lon="10.4271235"><ele>148.0</ele><time>2026-04-19T12:30:21.308Z</time></trkpt><trkpt lat="42.8431489" lon="10.4269691"><ele>148.0</ele><time>2026-04-19T12:30:23.309Z</time></trkpt><trkpt lat="42.8431426" lon="10.4268214"><ele>148.0</ele><time>2026-04-19T12:30:25.308Z</time></trkpt><trkpt lat="42.8431209" lon="10.4266703"><ele>148.6</ele><time>2026-04-19T12:30:27.305Z</time></trkpt><trkpt lat="42.8430343" lon="10.4265584"><ele>149.20000000000002</ele><time>2026-04-19T12:30:29.306Z</time></trkpt><trkpt lat="42.8429432" lon="10.4265324"><ele>149.8</ele><time>2026-04-19T12:30:31.308Z</time></trkpt><trkpt lat="42.8428702" lon="10.4265706"><ele>150.4</ele><time>2026-04-19T12:30:33.305Z</time></trkpt><trkpt lat="42.8428104" lon="10.426511"><ele>151.0</ele><time>2026-04-19T12:30:36.305Z</time></trkpt><trkpt lat="42.8428213" lon="10.4263833"><ele>151.0</ele><time>2026-04-19T12:30:39.301Z</time></trkpt><trkpt lat="42.8428048" lon="10.4262446"><ele>151.0</ele><time>2026-04-19T12:30:41.303Z</time></trkpt><trkpt lat="42.8428232" lon="10.4261151"><ele>151.0</ele><time>2026-04-19T12:30:44.301Z</time></trkpt><trkpt lat="42.8428601" lon="10.4260138"><ele>151.0</ele><time>2026-04-19T12:30:46.303Z</time></trkpt><trkpt lat="42.8428955" lon="10.4259402"><ele>151.0</ele><time>2026-04-19T12:30:48.293Z</time></trkpt><trkpt lat="42.84293" lon="10.4258434"><ele>151.0</ele><time>2026-04-19T12:30:50.304Z</time></trkpt><trkpt lat="42.8429803" lon="10.4257666"><ele>151.0</ele><time>2026-04-19T12:30:52.307Z</time></trkpt><trkpt lat="42.8430145" lon="10.4256681"><ele>151.0</ele><time>2026-04-19T12:30:54.3Z</time></trkpt><trkpt lat="42.8430449" lon="10.4255865"><ele>151.0</ele><time>2026-04-19T12:30:56.306Z</time></trkpt><trkpt lat="42.8431" lon="10.4254965"><ele>151.0</ele><time>2026-04-19T12:30:59.3Z</time></trkpt><trkpt lat="42.8431323" lon="10.4253986"><ele>151.0</ele><time>2026-04-19T12:31:01.307Z</time></trkpt><trkpt lat="42.8431585" lon="10.4253179"><ele>151.0</ele><time>2026-04-19T12:31:03.305Z</time></trkpt><trkpt lat="42.8432045" lon="10.4252256"><ele>151.16666666666669</ele><time>2026-04-19T12:31:06.301Z</time></trkpt><trkpt lat="42.8432206" lon="10.4251085"><ele>151.33333333333334</ele><time>2026-04-19T12:31:09.304Z</time></trkpt><trkpt lat="42.8432352" lon="10.4250205"><ele>151.5</ele><time>2026-04-19T12:31:11.298Z</time></trkpt><trkpt lat="42.8432856" lon="10.4249137"><ele>151.66666666666666</ele><time>2026-04-19T12:31:14.3Z</time></trkpt><trkpt lat="42.8433027" lon="10.4247866"><ele>151.83333333333331</ele><time>2026-04-19T12:31:17.302Z</time></trkpt><trkpt lat="42.8433197" lon="10.4246879"><ele>152.0</ele><time>2026-04-19T12:31:19.299Z</time></trkpt><trkpt lat="42.8433264" lon="10.4245977"><ele>152.7142857142857</ele><time>2026-04-19T12:31:21.303Z</time></trkpt><trkpt lat="42.843332" lon="10.4245073"><ele>153.42857142857144</ele><time>2026-04-19T12:31:23.294Z</time></trkpt><trkpt lat="42.8433347" lon="10.4244188"><ele>154.14285714285714</ele><time>2026-04-19T12:31:25.298Z</time></trkpt><trkpt lat="42.8433338" lon="10.4242952"><ele>154.85714285714283</ele><time>2026-04-19T12:31:28.292Z</time></trkpt><trkpt lat="42.8433718" lon="10.4242053"><ele>155.57142857142856</ele><time>2026-04-19T12:31:30.295Z</time></trkpt><trkpt lat="42.8433897" lon="10.4241158"><ele>156.28571428571428</ele><time>2026-04-19T12:31:32.294Z</time></trkpt><trkpt lat="42.8434057" lon="10.4240088"><ele>157.0</ele><time>2026-04-19T12:31:35.306Z</time></trkpt><trkpt lat="42.8433992" lon="10.4238928"><ele>157.0</ele><time>2026-04-19T12:31:39.286Z</time></trkpt><trkpt lat="42.8433588" lon="10.4238072"><ele>157.0</ele><time>2026-04-19T12:32:01.302Z</time></trkpt><trkpt lat="42.8433467" lon="10.4237043"><ele>157.0</ele><time>2026-04-19T12:32:35.308Z</time></trkpt><trkpt lat="42.843317" lon="10.4236085"><ele>157.0</ele><time>2026-04-19T12:32:37.298Z</time></trkpt><trkpt lat="42.8433067" lon="10.4234816"><ele>157.0</ele><time>2026-04-19T12:32:39.295Z</time></trkpt><trkpt lat="42.8433029" lon="10.4233347"><ele>157.0</ele><time>2026-04-19T12:32:41.295Z</time></trkpt><trkpt lat="42.8432872" lon="10.4231929"><ele>157.0</ele><time>2026-04-19T12:32:43.296Z</time></trkpt><trkpt lat="42.8432676" lon="10.4230326"><ele>157.0</ele><time>2026-04-19T12:32:45.3Z</time></trkpt><trkpt lat="42.8432314" lon="10.4228869"><ele>157.0</ele><time>2026-04-19T12:32:47.295Z</time></trkpt><trkpt lat="42.8431789" lon="10.4227492"><ele>157.0</ele><time>2026-04-19T12:32:49.3Z</time></trkpt><trkpt lat="42.8431548" lon="10.4226657"><ele>157.0</ele><time>2026-04-19T12:32:50.303Z</time></trkpt><trkpt lat="42.8431013" lon="10.4225341"><ele>154.6</ele><time>2026-04-19T12:32:52.3Z</time></trkpt><trkpt lat="42.843032" lon="10.4224313"><ele>152.2</ele><time>2026-04-19T12:32:54.293Z</time></trkpt><trkpt lat="42.842947" lon="10.4223224"><ele>149.8</ele><time>2026-04-19T12:32:56.3Z</time></trkpt><trkpt lat="42.8428708" lon="10.4222155"><ele>147.4</ele><time>2026-04-19T12:32:58.294Z</time></trkpt><trkpt lat="42.8428197" lon="10.4221648"><ele>145.0</ele><time>2026-04-19T12:33:00.288Z</time></trkpt><trkpt lat="42.8427762" lon="10.4220749"><ele>143.4</ele><time>2026-04-19T12:33:03.296Z</time></trkpt><trkpt lat="42.8427414" lon="10.421952"><ele>141.8</ele><time>2026-04-19T12:33:05.294Z</time></trkpt><trkpt lat="42.8426914" lon="10.4217996"><ele>140.2</ele><time>2026-04-19T12:33:07.297Z</time></trkpt><trkpt lat="42.8426366" lon="10.4216593"><ele>138.6</ele><time>2026-04-19T12:33:09.294Z</time></trkpt><trkpt lat="42.8426027" lon="10.4215392"><ele>137.0</ele><time>2026-04-19T12:33:11.3Z</time></trkpt><trkpt lat="42.8425834" lon="10.4214308"><ele>140.66666666666666</ele><time>2026-04-19T12:33:13.301Z</time></trkpt><trkpt lat="42.8425719" lon="10.4213224"><ele>144.33333333333331</ele><time>2026-04-19T12:33:15.299Z</time></trkpt><trkpt lat="42.8425723" lon="10.4212305"><ele>148.0</ele><time>2026-04-19T12:33:17.302Z</time></trkpt><trkpt lat="42.8425895" lon="10.4211209"><ele>151.66666666666666</ele><time>2026-04-19T12:33:20.306Z</time></trkpt><trkpt lat="42.8426045" lon="10.4210336"><ele>155.33333333333334</ele><time>2026-04-19T12:33:22.304Z</time></trkpt><trkpt lat="42.8425986" lon="10.4209238"><ele>159.0</ele><time>2026-04-19T12:33:24.316Z</time></trkpt><trkpt lat="42.8425825" lon="10.4208128"><ele>158.83333333333334</ele><time>2026-04-19T12:33:26.306Z</time></trkpt><trkpt lat="42.8425602" lon="10.420629"><ele>158.66666666666666</ele><time>2026-04-19T12:33:28.308Z</time></trkpt><trkpt lat="42.8425417" lon="10.4205323"><ele>158.5</ele><time>2026-04-19T12:33:29.307Z</time></trkpt><trkpt lat="42.8425189" lon="10.4204435"><ele>158.33333333333331</ele><time>2026-04-19T12:33:30.305Z</time></trkpt><trkpt lat="42.8424914" lon="10.4203598"><ele>158.16666666666666</ele><time>2026-04-19T12:33:31.305Z</time></trkpt><trkpt lat="42.8424563" lon="10.4202804"><ele>158.0</ele><time>2026-04-19T12:33:32.312Z</time></trkpt><trkpt lat="42.8424185" lon="10.4202036"><ele>158.0</ele><time>2026-04-19T12:33:33.308Z</time></trkpt><trkpt lat="42.842353" lon="10.420114"><ele>158.0</ele><time>2026-04-19T12:33:35.316Z</time></trkpt><trkpt lat="42.8422994" lon="10.42005"><ele>158.0</ele><time>2026-04-19T12:33:37.309Z</time></trkpt><trkpt lat="42.8422497" lon="10.4199782"><ele>158.0</ele><time>2026-04-19T12:33:39.312Z</time></trkpt><trkpt lat="42.84218" lon="10.4198692"><ele>158.0</ele><time>2026-04-19T12:33:41.328Z</time></trkpt><trkpt lat="42.8420979" lon="10.4197895"><ele>158.0</ele><time>2026-04-19T12:33:43.323Z</time></trkpt><trkpt lat="42.8420296" lon="10.4197728"><ele>158.00000000000003</ele><time>2026-04-19T12:33:45.319Z</time></trkpt><trkpt lat="42.8419734" lon="10.4197261"><ele>158.0</ele><time>2026-04-19T12:33:47.317Z</time></trkpt><trkpt lat="42.8419103" lon="10.4196789"><ele>158.0</ele><time>2026-04-19T12:33:49.316Z</time></trkpt><trkpt lat="42.8418535" lon="10.4196016"><ele>158.0</ele><time>2026-04-19T12:33:51.313Z</time></trkpt><trkpt lat="42.841822" lon="10.4195258"><ele>158.0</ele><time>2026-04-19T12:33:53.319Z</time></trkpt><trkpt lat="42.841786" lon="10.4194355"><ele>158.00000000000003</ele><time>2026-04-19T12:33:56.312Z</time></trkpt><trkpt lat="42.841727" lon="10.419393"><ele>158.0</ele><time>2026-04-19T12:33:58.309Z</time></trkpt><trkpt lat="42.8417047" lon="10.4192911"><ele>158.0</ele><time>2026-04-19T12:34:01.306Z</time></trkpt><trkpt lat="42.8417326" lon="10.419214"><ele>158.0</ele><time>2026-04-19T12:34:04.314Z</time></trkpt><trkpt lat="42.8417706" lon="10.4191334"><ele>158.0</ele><time>2026-04-19T12:34:07.306Z</time></trkpt><trkpt lat="42.8417806" lon="10.4190479"><ele>158.0</ele><time>2026-04-19T12:34:10.311Z</time></trkpt><trkpt lat="42.8417896" lon="10.4189147"><ele>158.0</ele><time>2026-04-19T12:34:13.305Z</time></trkpt><trkpt lat="42.8417855" lon="10.4188049"><ele>158.0</ele><time>2026-04-19T12:34:15.3Z</time></trkpt><trkpt lat="42.8417725" lon="10.4186387"><ele>158.0</ele><time>2026-04-19T12:34:17.3Z</time></trkpt><trkpt lat="42.8417673" lon="10.4184953"><ele>158.0</ele><time>2026-04-19T12:34:19.297Z</time></trkpt><trkpt lat="42.8417865" lon="10.4183991"><ele>158.0</ele><time>2026-04-19T12:34:21.308Z</time></trkpt><trkpt lat="42.841825" lon="10.4182629"><ele>158.0</ele><time>2026-04-19T12:34:23.295Z</time></trkpt><trkpt lat="42.841848" lon="10.4181638"><ele>158.0</ele><time>2026-04-19T12:34:24.289Z</time></trkpt><trkpt lat="42.8418672" lon="10.4180654"><ele>158.0</ele><time>2026-04-19T12:34:25.299Z</time></trkpt><trkpt lat="42.8418656" lon="10.4179033"><ele>156.16666666666666</ele><time>2026-04-19T12:34:27.292Z</time></trkpt><trkpt lat="42.8418545" lon="10.4178038"><ele>154.33333333333331</ele><time>2026-04-19T12:34:28.3Z</time></trkpt><trkpt lat="42.841834" lon="10.4176876"><ele>152.5</ele><time>2026-04-19T12:34:29.291Z</time></trkpt><trkpt lat="42.8418075" lon="10.417566"><ele>150.66666666666666</ele><time>2026-04-19T12:34:30.297Z</time></trkpt><trkpt lat="42.8417788" lon="10.417463"><ele>148.83333333333334</ele><time>2026-04-19T12:34:31.297Z</time></trkpt><trkpt lat="42.841756" lon="10.4173786"><ele>147.0</ele><time>2026-04-19T12:34:32.295Z</time></trkpt><trkpt lat="42.841715" lon="10.4172308"><ele>143.4</ele><time>2026-04-19T12:34:34.303Z</time></trkpt><trkpt lat="42.8416653" lon="10.4171082"><ele>139.79999999999998</ele><time>2026-04-19T12:34:36.298Z</time></trkpt><trkpt lat="42.8416071" lon="10.4169641"><ele>136.2</ele><time>2026-04-19T12:34:38.304Z</time></trkpt><trkpt lat="42.8415538" lon="10.416865"><ele>132.6</ele><time>2026-04-19T12:34:40.303Z</time></trkpt><trkpt lat="42.8414985" lon="10.4167761"><ele>129.0</ele><time>2026-04-19T12:34:42.299Z</time></trkpt><trkpt lat="42.841413" lon="10.416705"><ele>129.0</ele><time>2026-04-19T12:34:44.298Z</time></trkpt><trkpt lat="42.8413086" lon="10.4166755"><ele>129.0</ele><time>2026-04-19T12:34:46.306Z</time></trkpt><trkpt lat="42.8411815" lon="10.4166541"><ele>129.0</ele><time>2026-04-19T12:34:48.306Z</time></trkpt><trkpt lat="42.841109" lon="10.4166514"><ele>129.0</ele><time>2026-04-19T12:34:49.299Z</time></trkpt><trkpt lat="42.8410441" lon="10.4166509"><ele>129.0</ele><time>2026-04-19T12:34:50.301Z</time></trkpt><trkpt lat="42.8409753" lon="10.4166143"><ele>129.0</ele><time>2026-04-19T12:34:52.302Z</time></trkpt><trkpt lat="42.8409507" lon="10.4164923"><ele>129.33333333333334</ele><time>2026-04-19T12:34:54.3Z</time></trkpt><trkpt lat="42.8409307" lon="10.4163708"><ele>129.66666666666666</ele><time>2026-04-19T12:34:56.302Z</time></trkpt><trkpt lat="42.840957" lon="10.4162831"><ele>130.0</ele><time>2026-04-19T12:37:42.323Z</time></trkpt><trkpt lat="42.84097" lon="10.4161965"><ele>130.33333333333331</ele><time>2026-04-19T12:37:46.317Z</time></trkpt><trkpt lat="42.8410323" lon="10.4161126"><ele>130.66666666666666</ele><time>2026-04-19T12:37:48.321Z</time></trkpt><trkpt lat="42.8411261" lon="10.4160208"><ele>131.0</ele><time>2026-04-19T12:37:50.318Z</time></trkpt><trkpt lat="42.8412016" lon="10.4158752"><ele>129.83333333333331</ele><time>2026-04-19T12:37:52.321Z</time></trkpt><trkpt lat="42.8412367" lon="10.4157796"><ele>128.66666666666666</ele><time>2026-04-19T12:37:53.323Z</time></trkpt><trkpt lat="42.8412726" lon="10.4156729"><ele>127.5</ele><time>2026-04-19T12:37:54.323Z</time></trkpt><trkpt lat="42.8413124" lon="10.4155784"><ele>126.33333333333334</ele><time>2026-04-19T12:37:55.321Z</time></trkpt><trkpt lat="42.8413555" lon="10.4154877"><ele>125.16666666666667</ele><time>2026-04-19T12:37:56.327Z</time></trkpt><trkpt lat="42.8414093" lon="10.4154081"><ele>124.0</ele><time>2026-04-19T12:37:57.324Z</time></trkpt><trkpt lat="42.8414653" lon="10.4153456"><ele>126.66666666666667</ele><time>2026-04-19T12:37:58.336Z</time></trkpt><trkpt lat="42.8415159" lon="10.415287"><ele>129.33333333333334</ele><time>2026-04-19T12:37:59.327Z</time></trkpt><trkpt lat="42.8415337" lon="10.415144"><ele>132.0</ele><time>2026-04-19T12:38:01.333Z</time></trkpt><trkpt lat="42.8414944" lon="10.415069"><ele>134.66666666666666</ele><time>2026-04-19T12:38:02.332Z</time></trkpt><trkpt lat="42.8414627" lon="10.4149121"><ele>137.33333333333331</ele><time>2026-04-19T12:38:04.329Z</time></trkpt><trkpt lat="42.8414806" lon="10.4148287"><ele>140.0</ele><time>2026-04-19T12:38:05.328Z</time></trkpt><trkpt lat="42.841478" lon="10.4146823"><ele>142.2</ele><time>2026-04-19T12:38:07.327Z</time></trkpt><trkpt lat="42.8414005" lon="10.4145276"><ele>144.4</ele><time>2026-04-19T12:38:09.33Z</time></trkpt><trkpt lat="42.8413548" lon="10.4144356"><ele>146.6</ele><time>2026-04-19T12:38:10.331Z</time></trkpt><trkpt lat="42.8413137" lon="10.4143245"><ele>148.8</ele><time>2026-04-19T12:38:11.329Z</time></trkpt><trkpt lat="42.8412791" lon="10.4141999"><ele>151.0</ele><time>2026-04-19T12:38:12.333Z</time></trkpt><trkpt lat="42.8412445" lon="10.4140753"><ele>151.0</ele><time>2026-04-19T12:38:13.331Z</time></trkpt><trkpt lat="42.8412083" lon="10.4139597"><ele>151.0</ele><time>2026-04-19T12:38:14.333Z</time></trkpt><trkpt lat="42.8411779" lon="10.4138417"><ele>151.0</ele><time>2026-04-19T12:38:15.332Z</time></trkpt><trkpt lat="42.841158" lon="10.4137247"><ele>151.0</ele><time>2026-04-19T12:38:16.33Z</time></trkpt><trkpt lat="42.8411447" lon="10.4136192"><ele>151.0</ele><time>2026-04-19T12:38:17.331Z</time></trkpt><trkpt lat="42.8411383" lon="10.4135283"><ele>151.0</ele><time>2026-04-19T12:38:18.332Z</time></trkpt><trkpt lat="42.8411793" lon="10.4134001"><ele>151.6</ele><time>2026-04-19T12:38:20.323Z</time></trkpt><trkpt lat="42.8412754" lon="10.4132919"><ele>152.2</ele><time>2026-04-19T12:38:22.328Z</time></trkpt><trkpt lat="42.8413181" lon="10.4131489"><ele>152.8</ele><time>2026-04-19T12:38:24.334Z</time></trkpt><trkpt lat="42.8413084" lon="10.4130461"><ele>153.4</ele><time>2026-04-19T12:38:25.322Z</time></trkpt><trkpt lat="42.8412967" lon="10.4129489"><ele>154.0</ele><time>2026-04-19T12:38:26.323Z</time></trkpt><trkpt lat="42.8412292" lon="10.4128416"><ele>154.2</ele><time>2026-04-19T12:38:28.329Z</time></trkpt><trkpt lat="42.841156" lon="10.4128341"><ele>154.4</ele><time>2026-04-19T12:38:29.321Z</time></trkpt><trkpt lat="42.8410693" lon="10.412837"><ele>154.6</ele><time>2026-04-19T12:38:30.317Z</time></trkpt><trkpt lat="42.8409696" lon="10.4128387"><ele>154.8</ele><time>2026-04-19T12:38:31.317Z</time></trkpt><trkpt lat="42.8408673" lon="10.4128349"><ele>155.0</ele><time>2026-04-19T12:38:32.319Z</time></trkpt><trkpt lat="42.840769" lon="10.4128271"><ele>154.66666666666666</ele><time>2026-04-19T12:38:33.316Z</time></trkpt><trkpt lat="42.8406829" lon="10.4128184"><ele>154.33333333333331</ele><time>2026-04-19T12:38:34.317Z</time></trkpt><trkpt lat="42.8406038" lon="10.4128375"><ele>154.0</ele><time>2026-04-19T12:38:35.322Z</time></trkpt><trkpt lat="42.8405302" lon="10.4128871"><ele>153.66666666666666</ele><time>2026-04-19T12:38:36.319Z</time></trkpt><trkpt lat="42.8404546" lon="10.4129654"><ele>153.33333333333334</ele><time>2026-04-19T12:38:37.324Z</time></trkpt><trkpt lat="42.8403722" lon="10.413044"><ele>153.0</ele><time>2026-04-19T12:38:38.329Z</time></trkpt><trkpt lat="42.8402913" lon="10.4131073"><ele>153.0</ele><time>2026-04-19T12:38:39.327Z</time></trkpt><trkpt lat="42.8402144" lon="10.4131458"><ele>153.0</ele><time>2026-04-19T12:38:40.323Z</time></trkpt><trkpt lat="42.8401412" lon="10.4131676"><ele>153.0</ele><time>2026-04-19T12:38:41.32Z</time></trkpt><trkpt lat="42.8400753" lon="10.4131888"><ele>153.0</ele><time>2026-04-19T12:38:42.324Z</time></trkpt><trkpt lat="42.8400131" lon="10.4132204"><ele>153.0</ele><time>2026-04-19T12:38:43.326Z</time></trkpt><trkpt lat="42.8399494" lon="10.41327"><ele>153.0</ele><time>2026-04-19T12:38:44.321Z</time></trkpt><trkpt lat="42.8398926" lon="10.4133342"><ele>153.0</ele><time>2026-04-19T12:38:45.326Z</time></trkpt><trkpt lat="42.8398349" lon="10.4134235"><ele>154.33333333333334</ele><time>2026-04-19T12:38:46.325Z</time></trkpt><trkpt lat="42.8397865" lon="10.4135258"><ele>155.66666666666666</ele><time>2026-04-19T12:38:47.326Z</time></trkpt><trkpt lat="42.8397382" lon="10.4136167"><ele>157.0</ele><time>2026-04-19T12:38:48.322Z</time></trkpt><trkpt lat="42.839677" lon="10.4136863"><ele>158.33333333333331</ele><time>2026-04-19T12:38:49.328Z</time></trkpt><trkpt lat="42.8396132" lon="10.4137371"><ele>159.66666666666666</ele><time>2026-04-19T12:38:50.325Z</time></trkpt><trkpt lat="42.8395472" lon="10.4137732"><ele>161.0</ele><time>2026-04-19T12:38:51.324Z</time></trkpt><trkpt lat="42.8394827" lon="10.4138224"><ele>161.0</ele><time>2026-04-19T12:38:52.322Z</time></trkpt><trkpt lat="42.8394227" lon="10.4138718"><ele>161.0</ele><time>2026-04-19T12:38:53.325Z</time></trkpt><trkpt lat="42.839372" lon="10.413927"><ele>161.0</ele><time>2026-04-19T12:38:54.319Z</time></trkpt><trkpt lat="42.839328" lon="10.4139934"><ele>161.0</ele><time>2026-04-19T12:38:55.305Z</time></trkpt><trkpt lat="42.8392824" lon="10.4140658"><ele>161.0</ele><time>2026-04-19T12:38:56.317Z</time></trkpt><trkpt lat="42.8392286" lon="10.4141352"><ele>161.0</ele><time>2026-04-19T12:38:57.318Z</time></trkpt><trkpt lat="42.8391244" lon="10.4141447"><ele>161.0</ele><time>2026-04-19T12:38:59.318Z</time></trkpt><trkpt lat="42.8389892" lon="10.4141483"><ele>164.5</ele><time>2026-04-19T12:39:01.327Z</time></trkpt><trkpt lat="42.838912" lon="10.4141833"><ele>168.0</ele><time>2026-04-19T12:39:02.321Z</time></trkpt><trkpt lat="42.8388384" lon="10.4142248"><ele>171.5</ele><time>2026-04-19T12:39:03.321Z</time></trkpt><trkpt lat="42.8387675" lon="10.4142663"><ele>175.0</ele><time>2026-04-19T12:39:04.326Z</time></trkpt><trkpt lat="42.8386974" lon="10.414308"><ele>178.5</ele><time>2026-04-19T12:39:05.325Z</time></trkpt><trkpt lat="42.8386206" lon="10.4143503"><ele>182.0</ele><time>2026-04-19T12:39:06.325Z</time></trkpt><trkpt lat="42.8385445" lon="10.4143921"><ele>182.0</ele><time>2026-04-19T12:39:07.32Z</time></trkpt><trkpt lat="42.8384729" lon="10.4144329"><ele>182.0</ele><time>2026-04-19T12:39:08.316Z</time></trkpt><trkpt lat="42.8383586" lon="10.4144323"><ele>182.0</ele><time>2026-04-19T12:39:10.319Z</time></trkpt><trkpt lat="42.8382559" lon="10.4143504"><ele>182.0</ele><time>2026-04-19T12:39:12.323Z</time></trkpt><trkpt lat="42.8382" lon="10.4142931"><ele>182.0</ele><time>2026-04-19T12:39:13.326Z</time></trkpt><trkpt lat="42.8381399" lon="10.4142315"><ele>185.33333333333331</ele><time>2026-04-19T12:39:14.325Z</time></trkpt><trkpt lat="42.8380905" lon="10.4141778"><ele>188.66666666666666</ele><time>2026-04-19T12:39:15.317Z</time></trkpt><trkpt lat="42.83802" lon="10.4141167"><ele>192.0</ele><time>2026-04-19T12:39:17.319Z</time></trkpt><trkpt lat="42.8380897" lon="10.414146"><ele>195.33333333333331</ele><time>2026-04-19T12:39:25.32Z</time></trkpt><trkpt lat="42.838157" lon="10.4142109"><ele>198.66666666666666</ele><time>2026-04-19T12:39:26.316Z</time></trkpt><trkpt lat="42.8382374" lon="10.4142683"><ele>202.0</ele><time>2026-04-19T12:39:27.316Z</time></trkpt><trkpt lat="42.838321" lon="10.4143089"><ele>202.0</ele><time>2026-04-19T12:39:28.316Z</time></trkpt><trkpt lat="42.8384065" lon="10.4143175"><ele>202.0</ele><time>2026-04-19T12:39:29.319Z</time></trkpt><trkpt lat="42.8384929" lon="10.4142975"><ele>202.0</ele><time>2026-04-19T12:39:30.324Z</time></trkpt><trkpt lat="42.8385844" lon="10.4142485"><ele>202.0</ele><time>2026-04-19T12:39:31.326Z</time></trkpt><trkpt lat="42.8386804" lon="10.414166"><ele>202.0</ele><time>2026-04-19T12:39:32.326Z</time></trkpt><trkpt lat="42.8387796" lon="10.41406"><ele>201.0</ele><time>2026-04-19T12:39:33.318Z</time></trkpt><trkpt lat="42.8388706" lon="10.4139322"><ele>200.0</ele><time>2026-04-19T12:39:34.316Z</time></trkpt><trkpt lat="42.8389587" lon="10.413792"><ele>199.0</ele><time>2026-04-19T12:39:35.316Z</time></trkpt><trkpt lat="42.8390491" lon="10.4136406"><ele>198.0</ele><time>2026-04-19T12:39:36.314Z</time></trkpt><trkpt lat="42.8391252" lon="10.4134756"><ele>198.0</ele><time>2026-04-19T12:39:37.316Z</time></trkpt><trkpt lat="42.8391888" lon="10.4132956"><ele>198.0</ele><time>2026-04-19T12:39:38.317Z</time></trkpt><trkpt lat="42.8392518" lon="10.4131143"><ele>198.0</ele><time>2026-04-19T12:39:39.316Z</time></trkpt><trkpt lat="42.8393086" lon="10.4129334"><ele>198.0</ele><time>2026-04-19T12:39:40.31Z</time></trkpt><trkpt lat="42.8393613" lon="10.4127669"><ele>192.25</ele><time>2026-04-19T12:39:41.309Z</time></trkpt><trkpt lat="42.8394097" lon="10.4126048"><ele>186.5</ele><time>2026-04-19T12:39:42.307Z</time></trkpt><trkpt lat="42.8394543" lon="10.4124591"><ele>180.75</ele><time>2026-04-19T12:39:43.312Z</time></trkpt><trkpt lat="42.839511" lon="10.4123192"><ele>175.0</ele><time>2026-04-19T12:39:44.311Z</time></trkpt><trkpt lat="42.8395801" lon="10.4121753"><ele>176.5</ele><time>2026-04-19T12:39:45.308Z</time></trkpt><trkpt lat="42.8396518" lon="10.4120274"><ele>178.0</ele><time>2026-04-19T12:39:46.31Z</time></trkpt><trkpt lat="42.8397089" lon="10.411864"><ele>179.5</ele><time>2026-04-19T12:39:47.312Z</time></trkpt><trkpt lat="42.8397546" lon="10.4116866"><ele>181.0</ele><time>2026-04-19T12:39:48.313Z</time></trkpt><trkpt lat="42.8397892" lon="10.4115004"><ele>181.25</ele><time>2026-04-19T12:39:49.314Z</time></trkpt><trkpt lat="42.8398058" lon="10.4112964"><ele>181.5</ele><time>2026-04-19T12:39:50.315Z</time></trkpt><trkpt lat="42.8398112" lon="10.4111049"><ele>181.75</ele><time>2026-04-19T12:39:51.316Z</time></trkpt><trkpt lat="42.8397892" lon="10.4109056"><ele>182.0</ele><time>2026-04-19T12:39:52.316Z</time></trkpt><trkpt lat="42.8397602" lon="10.4107267"><ele>182.0</ele><time>2026-04-19T12:39:53.312Z</time></trkpt><trkpt lat="42.8397247" lon="10.4105595"><ele>182.0</ele><time>2026-04-19T12:39:54.312Z</time></trkpt><trkpt lat="42.8396906" lon="10.410423"><ele>182.0</ele><time>2026-04-19T12:39:55.313Z</time></trkpt><trkpt lat="42.8396741" lon="10.4103073"><ele>182.0</ele><time>2026-04-19T12:39:56.308Z</time></trkpt><trkpt lat="42.8396757" lon="10.4102024"><ele>182.0</ele><time>2026-04-19T12:39:57.304Z</time></trkpt><trkpt lat="42.8397194" lon="10.4100651"><ele>182.6</ele><time>2026-04-19T12:39:59.301Z</time></trkpt><trkpt lat="42.8397873" lon="10.4100456"><ele>183.2</ele><time>2026-04-19T12:40:00.301Z</time></trkpt><trkpt lat="42.839876" lon="10.410021"><ele>183.8</ele><time>2026-04-19T12:40:01.315Z</time></trkpt><trkpt lat="42.839963" lon="10.4099724"><ele>184.4</ele><time>2026-04-19T12:40:02.311Z</time></trkpt><trkpt lat="42.8400428" lon="10.4098866"><ele>185.0</ele><time>2026-04-19T12:40:03.312Z</time></trkpt><trkpt lat="42.8401075" lon="10.4097757"><ele>185.0</ele><time>2026-04-19T12:40:04.318Z</time></trkpt><trkpt lat="42.8401378" lon="10.4096262"><ele>185.0</ele><time>2026-04-19T12:40:05.313Z</time></trkpt><trkpt lat="42.8401382" lon="10.4094664"><ele>185.0</ele><time>2026-04-19T12:40:06.312Z</time></trkpt><trkpt lat="42.8401203" lon="10.4093058"><ele>185.0</ele><time>2026-04-19T12:40:07.313Z</time></trkpt><trkpt lat="42.8400816" lon="10.4091303"><ele>185.0</ele><time>2026-04-19T12:40:08.311Z</time></trkpt><trkpt lat="42.8400387" lon="10.4089447"><ele>185.0</ele><time>2026-04-19T12:40:09.308Z</time></trkpt><trkpt lat="42.8399903" lon="10.4087523"><ele>185.0</ele><time>2026-04-19T12:40:10.305Z</time></trkpt><trkpt lat="42.8399363" lon="10.4085555"><ele>185.0</ele><time>2026-04-19T12:40:11.307Z</time></trkpt><trkpt lat="42.8398821" lon="10.4083572"><ele>182.25</ele><time>2026-04-19T12:40:12.307Z</time></trkpt><trkpt lat="42.8398339" lon="10.4081729"><ele>179.5</ele><time>2026-04-19T12:40:13.306Z</time></trkpt><trkpt lat="42.8397931" lon="10.4080082"><ele>176.75</ele><time>2026-04-19T12:40:14.315Z</time></trkpt><trkpt lat="42.8397392" lon="10.4078518"><ele>174.0</ele><time>2026-04-19T12:40:15.315Z</time></trkpt><trkpt lat="42.8396557" lon="10.4077198"><ele>176.25</ele><time>2026-04-19T12:40:16.315Z</time></trkpt><trkpt lat="42.8395512" lon="10.4076316"><ele>178.5</ele><time>2026-04-19T12:40:17.316Z</time></trkpt><trkpt lat="42.8394276" lon="10.4075656"><ele>180.75</ele><time>2026-04-19T12:40:18.317Z</time></trkpt><trkpt lat="42.8392969" lon="10.4075015"><ele>183.0</ele><time>2026-04-19T12:40:19.314Z</time></trkpt><trkpt lat="42.8391567" lon="10.4074426"><ele>183.0</ele><time>2026-04-19T12:40:20.319Z</time></trkpt><trkpt lat="42.8390098" lon="10.4073924"><ele>183.0</ele><time>2026-04-19T12:40:21.322Z</time></trkpt><trkpt lat="42.8388695" lon="10.4073451"><ele>183.0</ele><time>2026-04-19T12:40:22.319Z</time></trkpt><trkpt lat="42.8387365" lon="10.4073098"><ele>183.0</ele><time>2026-04-19T12:40:23.32Z</time></trkpt><trkpt lat="42.8386283" lon="10.4072773"><ele>183.0</ele><time>2026-04-19T12:40:24.31Z</time></trkpt><trkpt lat="42.8385399" lon="10.4072568"><ele>183.0</ele><time>2026-04-19T12:40:25.308Z</time></trkpt><trkpt lat="42.8384795" lon="10.4072092"><ele>183.0</ele><time>2026-04-19T12:40:26.31Z</time></trkpt><trkpt lat="42.8384299" lon="10.4070779"><ele>183.0</ele><time>2026-04-19T12:40:28.31Z</time></trkpt><trkpt lat="42.8384697" lon="10.4069222"><ele>183.0</ele><time>2026-04-19T12:40:30.308Z</time></trkpt><trkpt lat="42.8386063" lon="10.4068188"><ele>182.0</ele><time>2026-04-19T12:40:32.306Z</time></trkpt><trkpt lat="42.8387345" lon="10.4067682"><ele>181.0</ele><time>2026-04-19T12:40:33.301Z</time></trkpt><trkpt lat="42.8388741" lon="10.4067072"><ele>180.0</ele><time>2026-04-19T12:40:34.306Z</time></trkpt><trkpt lat="42.8389994" lon="10.4066352"><ele>179.0</ele><time>2026-04-19T12:40:35.3Z</time></trkpt><trkpt lat="42.8391217" lon="10.4065675"><ele>179.0</ele><time>2026-04-19T12:40:36.295Z</time></trkpt><trkpt lat="42.8392563" lon="10.4065253"><ele>179.0</ele><time>2026-04-19T12:40:37.295Z</time></trkpt><trkpt lat="42.8394042" lon="10.4064954"><ele>179.0</ele><time>2026-04-19T12:40:38.297Z</time></trkpt><trkpt lat="42.8395513" lon="10.4064745"><ele>179.0</ele><time>2026-04-19T12:40:39.299Z</time></trkpt><trkpt lat="42.8396872" lon="10.4064364"><ele>176.5</ele><time>2026-04-19T12:40:40.296Z</time></trkpt><trkpt lat="42.8398162" lon="10.4064052"><ele>174.0</ele><time>2026-04-19T12:40:41.302Z</time></trkpt><trkpt lat="42.8399476" lon="10.4063888"><ele>171.5</ele><time>2026-04-19T12:40:42.303Z</time></trkpt><trkpt lat="42.8400808" lon="10.4063967"><ele>169.0</ele><time>2026-04-19T12:40:43.304Z</time></trkpt><trkpt lat="42.8402186" lon="10.4064199"><ele>166.0</ele><time>2026-04-19T12:40:44.306Z</time></trkpt><trkpt lat="42.8403571" lon="10.4064551"><ele>163.0</ele><time>2026-04-19T12:40:45.307Z</time></trkpt><trkpt lat="42.8404892" lon="10.4064699"><ele>160.0</ele><time>2026-04-19T12:40:46.309Z</time></trkpt><trkpt lat="42.8406163" lon="10.4064423"><ele>157.0</ele><time>2026-04-19T12:40:47.308Z</time></trkpt><trkpt lat="42.8407356" lon="10.4063813"><ele>160.5</ele><time>2026-04-19T12:40:48.308Z</time></trkpt><trkpt lat="42.8408483" lon="10.4063199"><ele>164.0</ele><time>2026-04-19T12:40:49.307Z</time></trkpt><trkpt lat="42.8409666" lon="10.406286"><ele>167.5</ele><time>2026-04-19T12:40:50.313Z</time></trkpt><trkpt lat="42.8410866" lon="10.4062853"><ele>171.0</ele><time>2026-04-19T12:40:51.306Z</time></trkpt><trkpt lat="42.8412062" lon="10.4063132"><ele>166.5</ele><time>2026-04-19T12:40:52.308Z</time></trkpt><trkpt lat="42.8413331" lon="10.4063541"><ele>162.0</ele><time>2026-04-19T12:40:53.308Z</time></trkpt><trkpt lat="42.841461" lon="10.4063962"><ele>157.5</ele><time>2026-04-19T12:40:54.31Z</time></trkpt><trkpt lat="42.841597" lon="10.4064341"><ele>153.0</ele><time>2026-04-19T12:40:55.306Z</time></trkpt><trkpt lat="42.8417334" lon="10.4064578"><ele>149.25</ele><time>2026-04-19T12:40:56.31Z</time></trkpt><trkpt lat="42.8418737" lon="10.4064683"><ele>145.5</ele><time>2026-04-19T12:40:57.305Z</time></trkpt><trkpt lat="42.8420128" lon="10.4064568"><ele>141.75</ele><time>2026-04-19T12:40:58.318Z</time></trkpt><trkpt lat="42.8421401" lon="10.4064082"><ele>138.0</ele><time>2026-04-19T12:40:59.309Z</time></trkpt><trkpt lat="42.8422426" lon="10.4063541"><ele>140.4</ele><time>2026-04-19T12:41:00.314Z</time></trkpt><trkpt lat="42.8423208" lon="10.4062777"><ele>142.8</ele><time>2026-04-19T12:41:01.324Z</time></trkpt><trkpt lat="42.8423752" lon="10.4061558"><ele>145.2</ele><time>2026-04-19T12:41:02.314Z</time></trkpt><trkpt lat="42.8424127" lon="10.4060342"><ele>147.6</ele><time>2026-04-19T12:41:03.334Z</time></trkpt><trkpt lat="42.8423811" lon="10.4059001"><ele>150.0</ele><time>2026-04-19T12:41:04.318Z</time></trkpt><trkpt lat="42.8423488" lon="10.4057744"><ele>150.0</ele><time>2026-04-19T12:41:05.32Z</time></trkpt><trkpt lat="42.8423276" lon="10.4056526"><ele>150.0</ele><time>2026-04-19T12:41:06.324Z</time></trkpt><trkpt lat="42.8423461" lon="10.4055444"><ele>150.0</ele><time>2026-04-19T12:41:07.325Z</time></trkpt><trkpt lat="42.8424023" lon="10.4054422"><ele>150.0</ele><time>2026-04-19T12:41:08.317Z</time></trkpt><trkpt lat="42.8424804" lon="10.4053224"><ele>150.0</ele><time>2026-04-19T12:41:09.319Z</time></trkpt><trkpt lat="42.842548" lon="10.4051805"><ele>149.75</ele><time>2026-04-19T12:41:10.318Z</time></trkpt><trkpt lat="42.8426046" lon="10.4050102"><ele>149.5</ele><time>2026-04-19T12:41:11.328Z</time></trkpt><trkpt lat="42.8426255" lon="10.4048161"><ele>149.25</ele><time>2026-04-19T12:41:12.319Z</time></trkpt><trkpt lat="42.842618" lon="10.4046238"><ele>149.0</ele><time>2026-04-19T12:41:13.32Z</time></trkpt><trkpt lat="42.8425848" lon="10.4044504"><ele>149.0</ele><time>2026-04-19T12:41:14.317Z</time></trkpt><trkpt lat="42.8425356" lon="10.4042912"><ele>149.0</ele><time>2026-04-19T12:41:15.316Z</time></trkpt><trkpt lat="42.8424707" lon="10.4041549"><ele>149.0</ele><time>2026-04-19T12:41:16.318Z</time></trkpt><trkpt lat="42.842384" lon="10.404063"><ele>149.0</ele><time>2026-04-19T12:41:17.321Z</time></trkpt><trkpt lat="42.8422847" lon="10.4039983"><ele>149.0</ele><time>2026-04-19T12:41:18.312Z</time></trkpt><trkpt lat="42.8422089" lon="10.4039322"><ele>149.0</ele><time>2026-04-19T12:41:19.311Z</time></trkpt><trkpt lat="42.8421464" lon="10.4038639"><ele>149.0</ele><time>2026-04-19T12:41:20.314Z</time></trkpt><trkpt lat="42.8421525" lon="10.4036956"><ele>149.0</ele><time>2026-04-19T12:41:22.307Z</time></trkpt><trkpt lat="42.8422293" lon="10.4036367"><ele>149.0</ele><time>2026-04-19T12:41:23.309Z</time></trkpt><trkpt lat="42.8423488" lon="10.4035618"><ele>150.0</ele><time>2026-04-19T12:41:24.303Z</time></trkpt><trkpt lat="42.842474" lon="10.4034568"><ele>151.0</ele><time>2026-04-19T12:41:25.304Z</time></trkpt><trkpt lat="42.8425756" lon="10.4032965"><ele>152.0</ele><time>2026-04-19T12:41:26.31Z</time></trkpt><trkpt lat="42.8426718" lon="10.4031342"><ele>145.0</ele><time>2026-04-19T12:41:27.305Z</time></trkpt><trkpt lat="42.8427722" lon="10.4029692"><ele>138.0</ele><time>2026-04-19T12:41:28.319Z</time></trkpt><trkpt lat="42.8428542" lon="10.402779"><ele>131.0</ele><time>2026-04-19T12:41:29.316Z</time></trkpt><trkpt lat="42.8429335" lon="10.4025991"><ele>131.0</ele><time>2026-04-19T12:41:30.313Z</time></trkpt><trkpt lat="42.8429854" lon="10.4024008"><ele>131.0</ele><time>2026-04-19T12:41:31.321Z</time></trkpt><trkpt lat="42.8430043" lon="10.4022119"><ele>131.0</ele><time>2026-04-19T12:41:32.323Z</time></trkpt><trkpt lat="42.843001" lon="10.4020445"><ele>131.0</ele><time>2026-04-19T12:41:33.319Z</time></trkpt><trkpt lat="42.8429532" lon="10.4019091"><ele>131.66666666666666</ele><time>2026-04-19T12:41:34.327Z</time></trkpt><trkpt lat="42.8429008" lon="10.4017979"><ele>132.33333333333331</ele><time>2026-04-19T12:41:35.319Z</time></trkpt><trkpt lat="42.842865" lon="10.4017059"><ele>133.0</ele><time>2026-04-19T12:41:36.329Z</time></trkpt><trkpt lat="42.8428811" lon="10.4016099"><ele>133.66666666666666</ele><time>2026-04-19T12:41:37.309Z</time></trkpt><trkpt lat="42.8429349" lon="10.401517"><ele>134.33333333333334</ele><time>2026-04-19T12:41:38.312Z</time></trkpt><trkpt lat="42.8430076" lon="10.4014414"><ele>135.0</ele><time>2026-04-19T12:41:39.31Z</time></trkpt><trkpt lat="42.843095" lon="10.4013521"><ele>136.25</ele><time>2026-04-19T12:41:40.308Z</time></trkpt><trkpt lat="42.8431796" lon="10.4012288"><ele>137.5</ele><time>2026-04-19T12:41:41.323Z</time></trkpt><trkpt lat="42.8432593" lon="10.4010508"><ele>138.75</ele><time>2026-04-19T12:41:42.315Z</time></trkpt><trkpt lat="42.843321" lon="10.4008717"><ele>140.0</ele><time>2026-04-19T12:41:43.31Z</time></trkpt><trkpt lat="42.8433699" lon="10.4006994"><ele>140.0</ele><time>2026-04-19T12:41:44.314Z</time></trkpt><trkpt lat="42.8434015" lon="10.4005334"><ele>140.0</ele><time>2026-04-19T12:41:45.32Z</time></trkpt><trkpt lat="42.8434475" lon="10.4003986"><ele>140.0</ele><time>2026-04-19T12:41:46.32Z</time></trkpt><trkpt lat="42.8434987" lon="10.400303"><ele>140.0</ele><time>2026-04-19T12:41:47.324Z</time></trkpt><trkpt lat="42.8435833" lon="10.4002526"><ele>140.0</ele><time>2026-04-19T12:41:48.318Z</time></trkpt><trkpt lat="42.8436798" lon="10.4002705"><ele>139.2</ele><time>2026-04-19T12:41:49.321Z</time></trkpt><trkpt lat="42.8437806" lon="10.4003504"><ele>138.4</ele><time>2026-04-19T12:41:50.325Z</time></trkpt><trkpt lat="42.8438445" lon="10.4004559"><ele>137.6</ele><time>2026-04-19T12:41:51.324Z</time></trkpt><trkpt lat="42.8438889" lon="10.4005836"><ele>136.8</ele><time>2026-04-19T12:41:52.332Z</time></trkpt><trkpt lat="42.8439041" lon="10.4007381"><ele>136.0</ele><time>2026-04-19T12:41:53.324Z</time></trkpt><trkpt lat="42.8439117" lon="10.4009013"><ele>136.0</ele><time>2026-04-19T12:41:54.324Z</time></trkpt><trkpt lat="42.8439205" lon="10.4010565"><ele>136.0</ele><time>2026-04-19T12:41:55.322Z</time></trkpt><trkpt lat="42.8439316" lon="10.4012054"><ele>136.0</ele><time>2026-04-19T12:41:56.32Z</time></trkpt><trkpt lat="42.8439496" lon="10.4013473"><ele>136.0</ele><time>2026-04-19T12:41:57.315Z</time></trkpt><trkpt lat="42.8439857" lon="10.401481"><ele>136.0</ele><time>2026-04-19T12:41:58.325Z</time></trkpt><trkpt lat="42.8440432" lon="10.4015736"><ele>135.5</ele><time>2026-04-19T12:41:59.325Z</time></trkpt><trkpt lat="42.844116" lon="10.4016143"><ele>135.0</ele><time>2026-04-19T12:42:00.331Z</time></trkpt><trkpt lat="42.8441856" lon="10.4015947"><ele>134.5</ele><time>2026-04-19T12:42:01.327Z</time></trkpt><trkpt lat="42.844259" lon="10.4015282"><ele>134.0</ele><time>2026-04-19T12:42:02.321Z</time></trkpt><trkpt lat="42.8443258" lon="10.4014465"><ele>133.5</ele><time>2026-04-19T12:42:03.321Z</time></trkpt><trkpt lat="42.8443883" lon="10.4013854"><ele>133.0</ele><time>2026-04-19T12:42:04.323Z</time></trkpt><trkpt lat="42.8444529" lon="10.4013961"><ele>136.20000000000002</ele><time>2026-04-19T12:42:05.328Z</time></trkpt><trkpt lat="42.8444983" lon="10.4014623"><ele>139.4</ele><time>2026-04-19T12:42:06.326Z</time></trkpt><trkpt lat="42.8445241" lon="10.401561"><ele>142.60000000000002</ele><time>2026-04-19T12:42:07.325Z</time></trkpt><trkpt lat="42.8445323" lon="10.401692"><ele>145.8</ele><time>2026-04-19T12:42:08.313Z</time></trkpt><trkpt lat="42.8445425" lon="10.4018488"><ele>149.0</ele><time>2026-04-19T12:42:09.312Z</time></trkpt><trkpt lat="42.8445529" lon="10.4019921"><ele>149.0</ele><time>2026-04-19T12:42:10.317Z</time></trkpt><trkpt lat="42.8445875" lon="10.4021357"><ele>149.0</ele><time>2026-04-19T12:42:11.325Z</time></trkpt><trkpt lat="42.8446635" lon="10.4022736"><ele>149.0</ele><time>2026-04-19T12:42:12.314Z</time></trkpt><trkpt lat="42.8447663" lon="10.4024088"><ele>149.0</ele><time>2026-04-19T12:42:13.323Z</time></trkpt><trkpt lat="42.8448924" lon="10.4025584"><ele>148.25</ele><time>2026-04-19T12:42:14.317Z</time></trkpt><trkpt lat="42.8450191" lon="10.4026996"><ele>147.5</ele><time>2026-04-19T12:42:15.316Z</time></trkpt><trkpt lat="42.8451214" lon="10.4028269"><ele>146.75</ele><time>2026-04-19T12:42:16.312Z</time></trkpt><trkpt lat="42.8452024" lon="10.4029498"><ele>146.0</ele><time>2026-04-19T12:42:17.312Z</time></trkpt><trkpt lat="42.8452935" lon="10.4030423"><ele>146.0</ele><time>2026-04-19T12:42:18.313Z</time></trkpt><trkpt lat="42.8453996" lon="10.4031106"><ele>146.0</ele><time>2026-04-19T12:42:19.306Z</time></trkpt><trkpt lat="42.8454977" lon="10.4031255"><ele>146.0</ele><time>2026-04-19T12:42:20.313Z</time></trkpt><trkpt lat="42.845597" lon="10.4031009"><ele>146.0</ele><time>2026-04-19T12:42:21.315Z</time></trkpt><trkpt lat="42.8456913" lon="10.4030429"><ele>146.0</ele><time>2026-04-19T12:42:22.314Z</time></trkpt><trkpt lat="42.8457844" lon="10.4029452"><ele>146.0</ele><time>2026-04-19T12:42:23.312Z</time></trkpt><trkpt lat="42.845873" lon="10.4028256"><ele>146.0</ele><time>2026-04-19T12:42:24.308Z</time></trkpt><trkpt lat="42.8459621" lon="10.4026944"><ele>146.0</ele><time>2026-04-19T12:42:25.308Z</time></trkpt><trkpt lat="42.8460531" lon="10.4025711"><ele>146.0</ele><time>2026-04-19T12:42:26.304Z</time></trkpt><trkpt lat="42.8461357" lon="10.4024516"><ele>148.0</ele><time>2026-04-19T12:42:27.301Z</time></trkpt><trkpt lat="42.8462153" lon="10.4023432"><ele>150.0</ele><time>2026-04-19T12:42:28.303Z</time></trkpt><trkpt lat="42.8463058" lon="10.402256"><ele>152.0</ele><time>2026-04-19T12:42:29.304Z</time></trkpt><trkpt lat="42.846404" lon="10.4021868"><ele>154.0</ele><time>2026-04-19T12:42:30.306Z</time></trkpt><trkpt lat="42.8465054" lon="10.4021515"><ele>156.0</ele><time>2026-04-19T12:42:31.306Z</time></trkpt><trkpt lat="42.8466259" lon="10.4021403"><ele>156.0</ele><time>2026-04-19T12:42:32.3Z</time></trkpt><trkpt lat="42.8467551" lon="10.4021313"><ele>156.0</ele><time>2026-04-19T12:42:33.308Z</time></trkpt><trkpt lat="42.8468818" lon="10.4021202"><ele>156.0</ele><time>2026-04-19T12:42:34.306Z</time></trkpt><trkpt lat="42.846988" lon="10.402087"><ele>156.0</ele><time>2026-04-19T12:42:35.3Z</time></trkpt><trkpt lat="42.8470725" lon="10.4020448"><ele>156.2</ele><time>2026-04-19T12:42:36.306Z</time></trkpt><trkpt lat="42.8471384" lon="10.402019"><ele>156.39999999999998</ele><time>2026-04-19T12:42:37.303Z</time></trkpt><trkpt lat="42.847234" lon="10.4021133"><ele>156.6</ele><time>2026-04-19T12:42:39.303Z</time></trkpt><trkpt lat="42.8472579" lon="10.4022285"><ele>156.79999999999998</ele><time>2026-04-19T12:42:40.302Z</time></trkpt><trkpt lat="42.8472495" lon="10.402363"><ele>157.0</ele><time>2026-04-19T12:42:41.309Z</time></trkpt><trkpt lat="42.8472109" lon="10.4024757"><ele>156.0</ele><time>2026-04-19T12:42:42.297Z</time></trkpt><trkpt lat="42.8471464" lon="10.4025728"><ele>155.0</ele><time>2026-04-19T12:42:43.309Z</time></trkpt><trkpt lat="42.8470523" lon="10.4026646"><ele>154.0</ele><time>2026-04-19T12:42:44.31Z</time></trkpt><trkpt lat="42.8469317" lon="10.4027687"><ele>153.0</ele><time>2026-04-19T12:42:45.303Z</time></trkpt><trkpt lat="42.8468114" lon="10.4028781"><ele>149.25</ele><time>2026-04-19T12:42:46.301Z</time></trkpt><trkpt lat="42.8466993" lon="10.4029962"><ele>145.5</ele><time>2026-04-19T12:42:47.3Z</time></trkpt><trkpt lat="42.8466086" lon="10.4031428"><ele>141.75</ele><time>2026-04-19T12:42:48.302Z</time></trkpt><trkpt lat="42.8465356" lon="10.403326"><ele>138.0</ele><time>2026-04-19T12:42:49.3Z</time></trkpt><trkpt lat="42.8464771" lon="10.4035188"><ele>138.0</ele><time>2026-04-19T12:42:50.298Z</time></trkpt><trkpt lat="42.8464299" lon="10.4036925"><ele>138.0</ele><time>2026-04-19T12:42:51.312Z</time></trkpt><trkpt lat="42.8463893" lon="10.403843"><ele>138.0</ele><time>2026-04-19T12:42:52.297Z</time></trkpt><trkpt lat="42.8463235" lon="10.4039732"><ele>138.0</ele><time>2026-04-19T12:42:53.313Z</time></trkpt><trkpt lat="42.8462308" lon="10.404097"><ele>141.0</ele><time>2026-04-19T12:42:54.305Z</time></trkpt><trkpt lat="42.8461384" lon="10.4042303"><ele>144.0</ele><time>2026-04-19T12:42:55.312Z</time></trkpt><trkpt lat="42.846042" lon="10.40435"><ele>147.0</ele><time>2026-04-19T12:42:56.307Z</time></trkpt><trkpt lat="42.8459477" lon="10.404447"><ele>150.0</ele><time>2026-04-19T12:42:57.315Z</time></trkpt><trkpt lat="42.8458568" lon="10.404532"><ele>146.25</ele><time>2026-04-19T12:42:58.319Z</time></trkpt><trkpt lat="42.8457727" lon="10.4046367"><ele>142.5</ele><time>2026-04-19T12:42:59.314Z</time></trkpt><trkpt lat="42.8456973" lon="10.4047596"><ele>138.75</ele><time>2026-04-19T12:43:00.316Z</time></trkpt><trkpt lat="42.8456429" lon="10.4049028"><ele>135.0</ele><time>2026-04-19T12:43:01.324Z</time></trkpt><trkpt lat="42.8456266" lon="10.4050698"><ele>135.0</ele><time>2026-04-19T12:43:02.318Z</time></trkpt><trkpt lat="42.8456464" lon="10.4052431"><ele>135.0</ele><time>2026-04-19T12:43:03.318Z</time></trkpt><trkpt lat="42.845688" lon="10.4054254"><ele>135.0</ele><time>2026-04-19T12:43:04.312Z</time></trkpt><trkpt lat="42.8457354" lon="10.4056079"><ele>135.0</ele><time>2026-04-19T12:43:05.319Z</time></trkpt><trkpt lat="42.8457821" lon="10.4057908"><ele>135.25</ele><time>2026-04-19T12:43:06.316Z</time></trkpt><trkpt lat="42.8458329" lon="10.4059716"><ele>135.5</ele><time>2026-04-19T12:43:07.322Z</time></trkpt><trkpt lat="42.8458933" lon="10.4061438"><ele>135.75</ele><time>2026-04-19T12:43:08.326Z</time></trkpt><trkpt lat="42.8459782" lon="10.4062984"><ele>136.0</ele><time>2026-04-19T12:43:09.326Z</time></trkpt><trkpt lat="42.8460798" lon="10.4064351"><ele>136.0</ele><time>2026-04-19T12:43:10.319Z</time></trkpt><trkpt lat="42.8461832" lon="10.4065553"><ele>136.0</ele><time>2026-04-19T12:43:11.319Z</time></trkpt><trkpt lat="42.8462914" lon="10.4066744"><ele>136.0</ele><time>2026-04-19T12:43:12.315Z</time></trkpt><trkpt lat="42.8463826" lon="10.4068054"><ele>136.0</ele><time>2026-04-19T12:43:13.323Z</time></trkpt><trkpt lat="42.8464431" lon="10.4069565"><ele>136.0</ele><time>2026-04-19T12:43:14.319Z</time></trkpt><trkpt lat="42.8464696" lon="10.4070938"><ele>136.0</ele><time>2026-04-19T12:43:15.308Z</time></trkpt><trkpt lat="42.8464864" lon="10.4072308"><ele>136.0</ele><time>2026-04-19T12:43:16.311Z</time></trkpt><trkpt lat="42.8465092" lon="10.4073648"><ele>136.0</ele><time>2026-04-19T12:43:17.321Z</time></trkpt><trkpt lat="42.8465608" lon="10.407491"><ele>136.0</ele><time>2026-04-19T12:43:18.323Z</time></trkpt><trkpt lat="42.8466453" lon="10.4076052"><ele>134.0</ele><time>2026-04-19T12:43:19.322Z</time></trkpt><trkpt lat="42.8467483" lon="10.4077161"><ele>132.0</ele><time>2026-04-19T12:43:20.316Z</time></trkpt><trkpt lat="42.8468644" lon="10.4078346"><ele>130.0</ele><time>2026-04-19T12:43:21.318Z</time></trkpt><trkpt lat="42.8469781" lon="10.4079607"><ele>128.0</ele><time>2026-04-19T12:43:22.314Z</time></trkpt><trkpt lat="42.8470802" lon="10.4080904"><ele>128.0</ele><time>2026-04-19T12:43:23.317Z</time></trkpt><trkpt lat="42.8471655" lon="10.408221"><ele>128.0</ele><time>2026-04-19T12:43:24.304Z</time></trkpt><trkpt lat="42.8472309" lon="10.4083567"><ele>128.0</ele><time>2026-04-19T12:43:25.307Z</time></trkpt><trkpt lat="42.8472729" lon="10.4084893"><ele>128.0</ele><time>2026-04-19T12:43:26.304Z</time></trkpt><trkpt lat="42.8472986" lon="10.4086327"><ele>128.0</ele><time>2026-04-19T12:43:27.308Z</time></trkpt><trkpt lat="42.847291" lon="10.4087751"><ele>128.0</ele><time>2026-04-19T12:43:28.318Z</time></trkpt><trkpt lat="42.847279" lon="10.4089155"><ele>128.0</ele><time>2026-04-19T12:43:29.312Z</time></trkpt><trkpt lat="42.8472989" lon="10.4090309"><ele>128.0</ele><time>2026-04-19T12:43:30.329Z</time></trkpt><trkpt lat="42.8473448" lon="10.4091172"><ele>128.0</ele><time>2026-04-19T12:43:31.327Z</time></trkpt><trkpt lat="42.8474227" lon="10.4091515"><ele>128.8</ele><time>2026-04-19T12:43:32.325Z</time></trkpt><trkpt lat="42.8475149" lon="10.4091283"><ele>129.60000000000002</ele><time>2026-04-19T12:43:33.318Z</time></trkpt><trkpt lat="42.8476016" lon="10.4090681"><ele>130.39999999999998</ele><time>2026-04-19T12:43:34.324Z</time></trkpt><trkpt lat="42.8476886" lon="10.4089641"><ele>131.2</ele><time>2026-04-19T12:43:35.316Z</time></trkpt><trkpt lat="42.8477797" lon="10.4088631"><ele>132.0</ele><time>2026-04-19T12:43:36.314Z</time></trkpt><trkpt lat="42.8478687" lon="10.4087774"><ele>132.0</ele><time>2026-04-19T12:43:37.313Z</time></trkpt><trkpt lat="42.847956" lon="10.4087218"><ele>132.0</ele><time>2026-04-19T12:43:38.308Z</time></trkpt><trkpt lat="42.8480516" lon="10.4086835"><ele>132.0</ele><time>2026-04-19T12:43:39.31Z</time></trkpt><trkpt lat="42.8481562" lon="10.4087039"><ele>132.0</ele><time>2026-04-19T12:43:40.312Z</time></trkpt><trkpt lat="42.848258" lon="10.4087716"><ele>132.0</ele><time>2026-04-19T12:43:41.311Z</time></trkpt><trkpt lat="42.8483411" lon="10.4088701"><ele>126.0</ele><time>2026-04-19T12:43:42.304Z</time></trkpt><trkpt lat="42.8484365" lon="10.4089724"><ele>120.0</ele><time>2026-04-19T12:43:43.316Z</time></trkpt><trkpt lat="42.8485335" lon="10.4090567"><ele>114.0</ele><time>2026-04-19T12:43:44.311Z</time></trkpt><trkpt lat="42.8486318" lon="10.4091206"><ele>108.0</ele><time>2026-04-19T12:43:45.32Z</time></trkpt><trkpt lat="42.8487393" lon="10.409135"><ele>107.5</ele><time>2026-04-19T12:43:46.32Z</time></trkpt><trkpt lat="42.8488553" lon="10.4091057"><ele>107.0</ele><time>2026-04-19T12:43:47.319Z</time></trkpt><trkpt lat="42.8489729" lon="10.4090303"><ele>106.5</ele><time>2026-04-19T12:43:48.317Z</time></trkpt><trkpt lat="42.8491061" lon="10.4089552"><ele>106.0</ele><time>2026-04-19T12:43:49.319Z</time></trkpt><trkpt lat="42.8492344" lon="10.4088883"><ele>106.0</ele><time>2026-04-19T12:43:50.313Z</time></trkpt><trkpt lat="42.8493551" lon="10.4088432"><ele>106.0</ele><time>2026-04-19T12:43:51.321Z</time></trkpt><trkpt lat="42.8494767" lon="10.4088356"><ele>106.0</ele><time>2026-04-19T12:43:52.31Z</time></trkpt><trkpt lat="42.8496014" lon="10.4088518"><ele>106.0</ele><time>2026-04-19T12:43:53.313Z</time></trkpt><trkpt lat="42.8497256" lon="10.4089068"><ele>106.0</ele><time>2026-04-19T12:43:54.319Z</time></trkpt><trkpt lat="42.8498428" lon="10.4089931"><ele>106.0</ele><time>2026-04-19T12:43:55.317Z</time></trkpt><trkpt lat="42.8499761" lon="10.4090655"><ele>106.0</ele><time>2026-04-19T12:43:56.317Z</time></trkpt><trkpt lat="42.8501102" lon="10.4091208"><ele>106.0</ele><time>2026-04-19T12:43:57.315Z</time></trkpt><trkpt lat="42.8502416" lon="10.4091717"><ele>108.0</ele><time>2026-04-19T12:43:58.313Z</time></trkpt><trkpt lat="42.8503623" lon="10.4092181"><ele>110.0</ele><time>2026-04-19T12:43:59.314Z</time></trkpt><trkpt lat="42.8504678" lon="10.4092793"><ele>112.0</ele><time>2026-04-19T12:44:00.312Z</time></trkpt><trkpt lat="42.8505572" lon="10.4093631"><ele>114.0</ele><time>2026-04-19T12:44:01.318Z</time></trkpt><trkpt lat="42.8506242" lon="10.4094829"><ele>114.0</ele><time>2026-04-19T12:44:02.312Z</time></trkpt><trkpt lat="42.8506899" lon="10.4095827"><ele>114.0</ele><time>2026-04-19T12:44:03.317Z</time></trkpt><trkpt lat="42.8507674" lon="10.4096421"><ele>114.0</ele><time>2026-04-19T12:44:04.322Z</time></trkpt><trkpt lat="42.8508654" lon="10.4096681"><ele>114.0</ele><time>2026-04-19T12:44:05.315Z</time></trkpt><trkpt lat="42.8509678" lon="10.4096834"><ele>114.0</ele><time>2026-04-19T12:44:06.315Z</time></trkpt><trkpt lat="42.8510668" lon="10.4097191"><ele>113.25</ele><time>2026-04-19T12:44:07.32Z</time></trkpt><trkpt lat="42.8511553" lon="10.4097871"><ele>112.5</ele><time>2026-04-19T12:44:08.319Z</time></trkpt><trkpt lat="42.8512242" lon="10.4099141"><ele>111.75</ele><time>2026-04-19T12:44:09.318Z</time></trkpt><trkpt lat="42.8512867" lon="10.4100723"><ele>111.0</ele><time>2026-04-19T12:44:10.314Z</time></trkpt><trkpt lat="42.8513417" lon="10.4102182"><ele>111.0</ele><time>2026-04-19T12:44:11.329Z</time></trkpt><trkpt lat="42.8513828" lon="10.4103685"><ele>111.0</ele><time>2026-04-19T12:44:12.318Z</time></trkpt><trkpt lat="42.8514113" lon="10.4105234"><ele>111.0</ele><time>2026-04-19T12:44:13.322Z</time></trkpt><trkpt lat="42.8514058" lon="10.4106896"><ele>111.0</ele><time>2026-04-19T12:44:14.326Z</time></trkpt><trkpt lat="42.8513654" lon="10.4108638"><ele>108.75</ele><time>2026-04-19T12:44:15.323Z</time></trkpt><trkpt lat="42.8513324" lon="10.4110311"><ele>106.5</ele><time>2026-04-19T12:44:16.32Z</time></trkpt><trkpt lat="42.8513064" lon="10.4111918"><ele>104.25</ele><time>2026-04-19T12:44:17.32Z</time></trkpt><trkpt lat="42.8512931" lon="10.4113479"><ele>102.0</ele><time>2026-04-19T12:44:18.32Z</time></trkpt><trkpt lat="42.8513065" lon="10.41149"><ele>99.5</ele><time>2026-04-19T12:44:19.329Z</time></trkpt><trkpt lat="42.8513631" lon="10.4116252"><ele>97.0</ele><time>2026-04-19T12:44:20.328Z</time></trkpt><trkpt lat="42.8514662" lon="10.4117467"><ele>94.5</ele><time>2026-04-19T12:44:21.328Z</time></trkpt><trkpt lat="42.8515931" lon="10.4118584"><ele>92.0</ele><time>2026-04-19T12:44:22.319Z</time></trkpt><trkpt lat="42.8517302" lon="10.4119834"><ele>91.33333333333334</ele><time>2026-04-19T12:44:23.325Z</time></trkpt><trkpt lat="42.8518635" lon="10.4121134"><ele>90.66666666666667</ele><time>2026-04-19T12:44:24.317Z</time></trkpt><trkpt lat="42.8519863" lon="10.412237"><ele>90.0</ele><time>2026-04-19T12:44:25.316Z</time></trkpt><trkpt lat="42.8520927" lon="10.4123621"><ele>90.0</ele><time>2026-04-19T12:44:26.321Z</time></trkpt><trkpt lat="42.852187" lon="10.4124923"><ele>90.0</ele><time>2026-04-19T12:44:27.322Z</time></trkpt><trkpt lat="42.852271" lon="10.4126198"><ele>90.0</ele><time>2026-04-19T12:44:28.32Z</time></trkpt><trkpt lat="42.8523487" lon="10.4127454"><ele>90.0</ele><time>2026-04-19T12:44:29.319Z</time></trkpt><trkpt lat="42.8524198" lon="10.4128823"><ele>86.75</ele><time>2026-04-19T12:44:30.324Z</time></trkpt><trkpt lat="42.8524807" lon="10.4130116"><ele>83.5</ele><time>2026-04-19T12:44:31.323Z</time></trkpt><trkpt lat="42.8525489" lon="10.4131308"><ele>80.25</ele><time>2026-04-19T12:44:32.319Z</time></trkpt><trkpt lat="42.8526491" lon="10.4132339"><ele>77.0</ele><time>2026-04-19T12:44:33.321Z</time></trkpt><trkpt lat="42.8527582" lon="10.4133245"><ele>76.75</ele><time>2026-04-19T12:44:34.321Z</time></trkpt><trkpt lat="42.8528654" lon="10.413406"><ele>76.5</ele><time>2026-04-19T12:44:35.313Z</time></trkpt><trkpt lat="42.8529709" lon="10.4134761"><ele>76.25</ele><time>2026-04-19T12:44:36.324Z</time></trkpt><trkpt lat="42.853074" lon="10.4135059"><ele>76.0</ele><time>2026-04-19T12:44:37.322Z</time></trkpt><trkpt lat="42.8531822" lon="10.4134828"><ele>76.0</ele><time>2026-04-19T12:44:38.326Z</time></trkpt><trkpt lat="42.8532797" lon="10.4134139"><ele>76.0</ele><time>2026-04-19T12:44:39.325Z</time></trkpt><trkpt lat="42.8533637" lon="10.4133027"><ele>76.0</ele><time>2026-04-19T12:44:40.327Z</time></trkpt><trkpt lat="42.853428" lon="10.4131576"><ele>76.0</ele><time>2026-04-19T12:44:41.328Z</time></trkpt><trkpt lat="42.8534899" lon="10.4130114"><ele>78.25</ele><time>2026-04-19T12:44:42.317Z</time></trkpt><trkpt lat="42.8535516" lon="10.4128637"><ele>80.5</ele><time>2026-04-19T12:44:43.321Z</time></trkpt><trkpt lat="42.8536239" lon="10.4127285"><ele>82.75</ele><time>2026-04-19T12:44:44.321Z</time></trkpt><trkpt lat="42.8536974" lon="10.4126164"><ele>85.0</ele><time>2026-04-19T12:44:45.319Z</time></trkpt><trkpt lat="42.8537725" lon="10.4125234"><ele>85.0</ele><time>2026-04-19T12:44:46.321Z</time></trkpt><trkpt lat="42.8538459" lon="10.4124758"><ele>85.0</ele><time>2026-04-19T12:44:47.317Z</time></trkpt><trkpt lat="42.8539555" lon="10.4125464"><ele>85.0</ele><time>2026-04-19T12:44:49.312Z</time></trkpt><trkpt lat="42.8540019" lon="10.4126577"><ele>85.0</ele><time>2026-04-19T12:44:50.311Z</time></trkpt><trkpt lat="42.8540232" lon="10.4128109"><ele>85.0</ele><time>2026-04-19T12:44:51.303Z</time></trkpt><trkpt lat="42.8540116" lon="10.4129712"><ele>81.25</ele><time>2026-04-19T12:44:52.312Z</time></trkpt><trkpt lat="42.8540019" lon="10.4131213"><ele>77.5</ele><time>2026-04-19T12:44:53.316Z</time></trkpt><trkpt lat="42.8540183" lon="10.4132565"><ele>73.75</ele><time>2026-04-19T12:44:54.315Z</time></trkpt><trkpt lat="42.8540861" lon="10.4133675"><ele>70.0</ele><time>2026-04-19T12:44:55.317Z</time></trkpt><trkpt lat="42.854203" lon="10.4134559"><ele>69.0</ele><time>2026-04-19T12:44:56.308Z</time></trkpt><trkpt lat="42.8543203" lon="10.4135573"><ele>68.0</ele><time>2026-04-19T12:44:57.315Z</time></trkpt><trkpt lat="42.8544311" lon="10.4136513"><ele>67.0</ele><time>2026-04-19T12:44:58.32Z</time></trkpt><trkpt lat="42.8545432" lon="10.4137191"><ele>66.0</ele><time>2026-04-19T12:44:59.319Z</time></trkpt><trkpt lat="42.8546483" lon="10.4137298"><ele>66.0</ele><time>2026-04-19T12:45:00.326Z</time></trkpt><trkpt lat="42.8547623" lon="10.4136757"><ele>66.0</ele><time>2026-04-19T12:45:01.327Z</time></trkpt><trkpt lat="42.8548785" lon="10.413577"><ele>66.0</ele><time>2026-04-19T12:45:02.321Z</time></trkpt><trkpt lat="42.8549862" lon="10.4134778"><ele>66.0</ele><time>2026-04-19T12:45:03.318Z</time></trkpt><trkpt lat="42.8550947" lon="10.4133984"><ele>63.4</ele><time>2026-04-19T12:45:04.313Z</time></trkpt><trkpt lat="42.8551962" lon="10.4133293"><ele>60.8</ele><time>2026-04-19T12:45:05.316Z</time></trkpt><trkpt lat="42.8552823" lon="10.4132512"><ele>58.199999999999996</ele><time>2026-04-19T12:45:06.312Z</time></trkpt><trkpt lat="42.8553529" lon="10.4131581"><ele>55.599999999999994</ele><time>2026-04-19T12:45:07.318Z</time></trkpt><trkpt lat="42.8553956" lon="10.4130054"><ele>53.0</ele><time>2026-04-19T12:45:08.314Z</time></trkpt><trkpt lat="42.8554001" lon="10.4128311"><ele>53.0</ele><time>2026-04-19T12:45:09.321Z</time></trkpt><trkpt lat="42.8553904" lon="10.4126654"><ele>53.0</ele><time>2026-04-19T12:45:10.311Z</time></trkpt><trkpt lat="42.8553765" lon="10.4125151"><ele>53.0</ele><time>2026-04-19T12:45:11.312Z</time></trkpt><trkpt lat="42.8553885" lon="10.4123775"><ele>53.0</ele><time>2026-04-19T12:45:12.312Z</time></trkpt><trkpt lat="42.8554143" lon="10.4122482"><ele>53.0</ele><time>2026-04-19T12:45:13.316Z</time></trkpt><trkpt lat="42.8554583" lon="10.4121611"><ele>53.00000000000001</ele><time>2026-04-19T12:45:14.313Z</time></trkpt><trkpt lat="42.8555228" lon="10.4121368"><ele>53.0</ele><time>2026-04-19T12:45:15.311Z</time></trkpt><trkpt lat="42.8555949" lon="10.4121847"><ele>53.0</ele><time>2026-04-19T12:45:16.306Z</time></trkpt><trkpt lat="42.8556591" lon="10.4122713"><ele>53.0</ele><time>2026-04-19T12:45:17.299Z</time></trkpt><trkpt lat="42.8557292" lon="10.412361"><ele>53.00000000000001</ele><time>2026-04-19T12:45:18.309Z</time></trkpt><trkpt lat="42.8558184" lon="10.4124305"><ele>53.0</ele><time>2026-04-19T12:45:19.315Z</time></trkpt><trkpt lat="42.8559121" lon="10.4124251"><ele>53.0</ele><time>2026-04-19T12:45:20.316Z</time></trkpt><trkpt lat="42.8560104" lon="10.4123475"><ele>53.0</ele><time>2026-04-19T12:45:21.317Z</time></trkpt><trkpt lat="42.8560796" lon="10.4122124"><ele>53.0</ele><time>2026-04-19T12:45:22.316Z</time></trkpt><trkpt lat="42.8561269" lon="10.4120401"><ele>53.0</ele><time>2026-04-19T12:45:23.317Z</time></trkpt><trkpt lat="42.8561474" lon="10.4118671"><ele>53.0</ele><time>2026-04-19T12:45:24.319Z</time></trkpt><trkpt lat="42.8561443" lon="10.4117065"><ele>53.0</ele><time>2026-04-19T12:45:25.315Z</time></trkpt><trkpt lat="42.856127" lon="10.4115674"><ele>53.0</ele><time>2026-04-19T12:45:26.316Z</time></trkpt><trkpt lat="42.8561123" lon="10.4114513"><ele>53.0</ele><time>2026-04-19T12:45:27.318Z</time></trkpt><trkpt lat="42.8561471" lon="10.4113146"><ele>53.0</ele><time>2026-04-19T12:45:29.308Z</time></trkpt><trkpt lat="42.8562684" lon="10.4113991"><ele>53.0</ele><time>2026-04-19T12:45:31.315Z</time></trkpt><trkpt lat="42.8563471" lon="10.4115075"><ele>53.0</ele><time>2026-04-19T12:45:32.305Z</time></trkpt><trkpt lat="42.8564315" lon="10.4116161"><ele>53.0</ele><time>2026-04-19T12:45:33.309Z</time></trkpt><trkpt lat="42.8565279" lon="10.4117245"><ele>53.0</ele><time>2026-04-19T12:45:34.308Z</time></trkpt><trkpt lat="42.856626" lon="10.4118317"><ele>53.0</ele><time>2026-04-19T12:45:35.314Z</time></trkpt><trkpt lat="42.8567285" lon="10.4119428"><ele>53.0</ele><time>2026-04-19T12:45:36.303Z</time></trkpt><trkpt lat="42.856806" lon="10.4120549"><ele>53.0</ele><time>2026-04-19T12:45:37.313Z</time></trkpt><trkpt lat="42.8568489" lon="10.4121856"><ele>53.0</ele><time>2026-04-19T12:45:38.31Z</time></trkpt><trkpt lat="42.8568648" lon="10.4123273"><ele>52.8</ele><time>2026-04-19T12:45:39.307Z</time></trkpt><trkpt lat="42.8568648" lon="10.4124787"><ele>52.599999999999994</ele><time>2026-04-19T12:45:40.33Z</time></trkpt><trkpt lat="42.8568551" lon="10.4126276"><ele>52.400000000000006</ele><time>2026-04-19T12:45:41.32Z</time></trkpt><trkpt lat="42.8568419" lon="10.4127718"><ele>52.2</ele><time>2026-04-19T12:45:42.321Z</time></trkpt><trkpt lat="42.8568436" lon="10.4129014"><ele>52.0</ele><time>2026-04-19T12:45:43.327Z</time></trkpt><trkpt lat="42.8568808" lon="10.4130047"><ele>52.0</ele><time>2026-04-19T12:45:44.33Z</time></trkpt><trkpt lat="42.8569584" lon="10.4130614"><ele>52.0</ele><time>2026-04-19T12:45:45.33Z</time></trkpt><trkpt lat="42.8570522" lon="10.4130659"><ele>52.0</ele><time>2026-04-19T12:45:46.328Z</time></trkpt><trkpt lat="42.8571594" lon="10.4130293"><ele>52.0</ele><time>2026-04-19T12:45:47.318Z</time></trkpt><trkpt lat="42.8572688" lon="10.412985"><ele>52.0</ele><time>2026-04-19T12:45:48.321Z</time></trkpt><trkpt lat="42.857372" lon="10.4129472"><ele>52.0</ele><time>2026-04-19T12:45:49.316Z</time></trkpt><trkpt lat="42.8574612" lon="10.4129332"><ele>52.0</ele><time>2026-04-19T12:45:50.321Z</time></trkpt><trkpt lat="42.8575275" lon="10.4129629"><ele>52.0</ele><time>2026-04-19T12:45:51.313Z</time></trkpt><trkpt lat="42.8575298" lon="10.4131508"><ele>52.0</ele><time>2026-04-19T12:45:53.323Z</time></trkpt><trkpt lat="42.8574869" lon="10.413276"><ele>52.0</ele><time>2026-04-19T12:45:54.313Z</time></trkpt><trkpt lat="42.8574457" lon="10.4133987"><ele>49.8</ele><time>2026-04-19T12:45:55.319Z</time></trkpt><trkpt lat="42.8574052" lon="10.4135307"><ele>47.6</ele><time>2026-04-19T12:45:56.314Z</time></trkpt><trkpt lat="42.8573827" lon="10.4136692"><ele>45.4</ele><time>2026-04-19T12:45:57.316Z</time></trkpt><trkpt lat="42.8573791" lon="10.4138158"><ele>43.199999999999996</ele><time>2026-04-19T12:45:58.313Z</time></trkpt><trkpt lat="42.8574034" lon="10.4139481"><ele>41.0</ele><time>2026-04-19T12:45:59.327Z</time></trkpt><trkpt lat="42.8574654" lon="10.4140595"><ele>39.199999999999996</ele><time>2026-04-19T12:46:00.323Z</time></trkpt><trkpt lat="42.8575424" lon="10.4141528"><ele>37.4</ele><time>2026-04-19T12:46:01.322Z</time></trkpt><trkpt lat="42.8576329" lon="10.4142422"><ele>35.6</ele><time>2026-04-19T12:46:02.318Z</time></trkpt><trkpt lat="42.8577071" lon="10.4143326"><ele>33.8</ele><time>2026-04-19T12:46:03.325Z</time></trkpt><trkpt lat="42.8577545" lon="10.4144387"><ele>32.0</ele><time>2026-04-19T12:46:04.317Z</time></trkpt><trkpt lat="42.8577775" lon="10.4145565"><ele>36.0</ele><time>2026-04-19T12:46:05.316Z</time></trkpt><trkpt lat="42.8577718" lon="10.4146656"><ele>40.0</ele><time>2026-04-19T12:46:06.312Z</time></trkpt><trkpt lat="42.8577372" lon="10.4147769"><ele>44.0</ele><time>2026-04-19T12:46:07.315Z</time></trkpt><trkpt lat="42.8576846" lon="10.4148856"><ele>48.0</ele><time>2026-04-19T12:46:08.313Z</time></trkpt><trkpt lat="42.8576408" lon="10.4150088"><ele>52.0</ele><time>2026-04-19T12:46:09.322Z</time></trkpt><trkpt lat="42.8576322" lon="10.415141"><ele>52.0</ele><time>2026-04-19T12:46:10.324Z</time></trkpt><trkpt lat="42.8576569" lon="10.415278"><ele>52.0</ele><time>2026-04-19T12:46:11.32Z</time></trkpt><trkpt lat="42.8576902" lon="10.4154099"><ele>52.0</ele><time>2026-04-19T12:46:12.323Z</time></trkpt><trkpt lat="42.8577264" lon="10.4155394"><ele>52.0</ele><time>2026-04-19T12:46:13.332Z</time></trkpt><trkpt lat="42.857764" lon="10.4156618"><ele>52.0</ele><time>2026-04-19T12:46:14.326Z</time></trkpt><trkpt lat="42.8578005" lon="10.4157854"><ele>48.6</ele><time>2026-04-19T12:46:15.323Z</time></trkpt><trkpt lat="42.857842" lon="10.4159025"><ele>45.2</ele><time>2026-04-19T12:46:16.326Z</time></trkpt><trkpt lat="42.8578857" lon="10.4160169"><ele>41.8</ele><time>2026-04-19T12:46:17.329Z</time></trkpt><trkpt lat="42.8579308" lon="10.4161309"><ele>38.4</ele><time>2026-04-19T12:46:18.329Z</time></trkpt><trkpt lat="42.8579762" lon="10.4162392"><ele>35.0</ele><time>2026-04-19T12:46:19.327Z</time></trkpt><trkpt lat="42.8580176" lon="10.4163441"><ele>32.5</ele><time>2026-04-19T12:46:20.319Z</time></trkpt><trkpt lat="42.8580596" lon="10.4164379"><ele>30.0</ele><time>2026-04-19T12:46:21.329Z</time></trkpt><trkpt lat="42.858102" lon="10.4165214"><ele>27.5</ele><time>2026-04-19T12:46:22.33Z</time></trkpt><trkpt lat="42.8581533" lon="10.416609"><ele>25.0</ele><time>2026-04-19T12:46:23.328Z</time></trkpt><trkpt lat="42.8582102" lon="10.4167014"><ele>22.5</ele><time>2026-04-19T12:46:24.317Z</time></trkpt><trkpt lat="42.8582722" lon="10.4167907"><ele>20.0</ele><time>2026-04-19T12:46:25.323Z</time></trkpt><trkpt lat="42.8583522" lon="10.4168854"><ele>20.0</ele><time>2026-04-19T12:46:26.322Z</time></trkpt><trkpt lat="42.8584227" lon="10.4170013"><ele>20.0</ele><time>2026-04-19T12:46:27.321Z</time></trkpt><trkpt lat="42.8584855" lon="10.4171308"><ele>20.0</ele><time>2026-04-19T12:46:28.322Z</time></trkpt><trkpt lat="42.8585394" lon="10.4172606"><ele>20.0</ele><time>2026-04-19T12:46:29.323Z</time></trkpt><trkpt lat="42.8585877" lon="10.4173808"><ele>20.0</ele><time>2026-04-19T12:46:30.323Z</time></trkpt><trkpt lat="42.8586511" lon="10.4174815"><ele>20.666666666666668</ele><time>2026-04-19T12:46:31.329Z</time></trkpt><trkpt lat="42.8587214" lon="10.4175628"><ele>21.333333333333336</ele><time>2026-04-19T12:46:32.325Z</time></trkpt><trkpt lat="42.858793" lon="10.4176399"><ele>22.0</ele><time>2026-04-19T12:46:33.328Z</time></trkpt><trkpt lat="42.8588571" lon="10.4177214"><ele>22.666666666666668</ele><time>2026-04-19T12:46:34.321Z</time></trkpt><trkpt lat="42.8589128" lon="10.4178048"><ele>23.333333333333332</ele><time>2026-04-19T12:46:35.327Z</time></trkpt><trkpt lat="42.8589655" lon="10.4178844"><ele>24.0</ele><time>2026-04-19T12:46:36.323Z</time></trkpt><trkpt lat="42.8590221" lon="10.4179644"><ele>23.166666666666668</ele><time>2026-04-19T12:46:37.325Z</time></trkpt><trkpt lat="42.8590743" lon="10.4180491"><ele>22.333333333333332</ele><time>2026-04-19T12:46:38.329Z</time></trkpt><trkpt lat="42.8591331" lon="10.4181365"><ele>21.5</ele><time>2026-04-19T12:46:39.327Z</time></trkpt><trkpt lat="42.859199" lon="10.4182211"><ele>20.666666666666664</ele><time>2026-04-19T12:46:40.326Z</time></trkpt><trkpt lat="42.8592679" lon="10.4182968"><ele>19.833333333333332</ele><time>2026-04-19T12:46:41.328Z</time></trkpt><trkpt lat="42.8593347" lon="10.4183608"><ele>19.0</ele><time>2026-04-19T12:46:42.325Z</time></trkpt><trkpt lat="42.8593983" lon="10.4184155"><ele>19.0</ele><time>2026-04-19T12:46:43.332Z</time></trkpt><trkpt lat="42.8594986" lon="10.4184881"><ele>19.0</ele><time>2026-04-19T12:46:45.324Z</time></trkpt><trkpt lat="42.8594285" lon="10.4185311"><ele>19.0</ele><time>2026-04-19T12:46:50.33Z</time></trkpt><trkpt lat="42.8593387" lon="10.4185071"><ele>19.0</ele><time>2026-04-19T12:46:51.324Z</time></trkpt><trkpt lat="42.8592265" lon="10.4184989"><ele>19.0</ele><time>2026-04-19T12:46:52.32Z</time></trkpt><trkpt lat="42.8591183" lon="10.4185024"><ele>17.5</ele><time>2026-04-19T12:46:53.329Z</time></trkpt><trkpt lat="42.8589989" lon="10.4185077"><ele>16.0</ele><time>2026-04-19T12:46:54.327Z</time></trkpt><trkpt lat="42.8588817" lon="10.4185114"><ele>14.5</ele><time>2026-04-19T12:46:55.33Z</time></trkpt><trkpt lat="42.8587709" lon="10.4185125"><ele>13.0</ele><time>2026-04-19T12:46:56.335Z</time></trkpt><trkpt lat="42.858665" lon="10.4185131"><ele>12.999999999999998</ele><time>2026-04-19T12:46:57.331Z</time></trkpt><trkpt lat="42.8585725" lon="10.4185066"><ele>13.0</ele><time>2026-04-19T12:46:58.327Z</time></trkpt><trkpt lat="42.85848" lon="10.4185025"><ele>13.0</ele><time>2026-04-19T12:46:59.33Z</time></trkpt><trkpt lat="42.8583947" lon="10.4184918"><ele>13.0</ele><time>2026-04-19T12:47:00.326Z</time></trkpt><trkpt lat="42.8583166" lon="10.4184788"><ele>12.999999999999998</ele><time>2026-04-19T12:47:01.322Z</time></trkpt><trkpt lat="42.858242" lon="10.4184844"><ele>13.0</ele><time>2026-04-19T12:47:02.334Z</time></trkpt><trkpt lat="42.8581835" lon="10.4185246"><ele>12.0</ele><time>2026-04-19T12:47:03.334Z</time></trkpt><trkpt lat="42.8581652" lon="10.4186785"><ele>11.0</ele><time>2026-04-19T12:47:05.329Z</time></trkpt><trkpt lat="42.8582168" lon="10.4187756"><ele>10.0</ele><time>2026-04-19T12:47:06.319Z</time></trkpt><trkpt lat="42.858273" lon="10.4188732"><ele>9.0</ele><time>2026-04-19T12:47:07.321Z</time></trkpt><trkpt lat="42.8583388" lon="10.4189717"><ele>8.0</ele><time>2026-04-19T12:47:08.321Z</time></trkpt><trkpt lat="42.8584079" lon="10.4190684"><ele>7.800000000000001</ele><time>2026-04-19T12:47:09.32Z</time></trkpt><trkpt lat="42.8584784" lon="10.4191691"><ele>7.6000000000000005</ele><time>2026-04-19T12:47:10.323Z</time></trkpt><trkpt lat="42.8585425" lon="10.4192688"><ele>7.3999999999999995</ele><time>2026-04-19T12:47:11.325Z</time></trkpt><trkpt lat="42.8586068" lon="10.419371"><ele>7.199999999999999</ele><time>2026-04-19T12:47:12.322Z</time></trkpt><trkpt lat="42.8586674" lon="10.4194678"><ele>7.0</ele><time>2026-04-19T12:47:13.325Z</time></trkpt><trkpt lat="42.8587221" lon="10.4195647"><ele>6.666666666666667</ele><time>2026-04-19T12:47:14.328Z</time></trkpt><trkpt lat="42.8587691" lon="10.4196602"><ele>6.333333333333334</ele><time>2026-04-19T12:47:15.326Z</time></trkpt><trkpt lat="42.8588172" lon="10.4197558"><ele>6.0</ele><time>2026-04-19T12:47:16.324Z</time></trkpt><trkpt lat="42.8588596" lon="10.419857"><ele>5.666666666666667</ele><time>2026-04-19T12:47:17.327Z</time></trkpt><trkpt lat="42.8588926" lon="10.419985"><ele>5.333333333333334</ele><time>2026-04-19T12:47:18.326Z</time></trkpt><trkpt lat="42.8589136" lon="10.420111"><ele>5.0</ele><time>2026-04-19T12:47:19.322Z</time></trkpt><trkpt lat="42.8589395" lon="10.420231"><ele>5.0</ele><time>2026-04-19T12:47:20.329Z</time></trkpt><trkpt lat="42.8589659" lon="10.420346"><ele>5.0</ele><time>2026-04-19T12:47:21.329Z</time></trkpt><trkpt lat="42.8589887" lon="10.4204511"><ele>5.0</ele><time>2026-04-19T12:47:22.326Z</time></trkpt><trkpt lat="42.859009" lon="10.4205497"><ele>5.0</ele><time>2026-04-19T12:47:23.32Z</time></trkpt><trkpt lat="42.8590362" lon="10.420631"><ele>5.0</ele><time>2026-04-19T12:47:24.32Z</time></trkpt><trkpt lat="42.8590917" lon="10.4206988"><ele>5.0</ele><time>2026-04-19T12:47:25.316Z</time></trkpt><trkpt lat="42.8591563" lon="10.4207661"><ele>5.0</ele><time>2026-04-19T12:47:26.313Z</time></trkpt><trkpt lat="42.8592338" lon="10.4208396"><ele>5.0</ele><time>2026-04-19T12:47:27.321Z</time></trkpt><trkpt lat="42.8593101" lon="10.4209013"><ele>5.0</ele><time>2026-04-19T12:47:28.32Z</time></trkpt><trkpt lat="42.8593889" lon="10.4209476"><ele>5.0</ele><time>2026-04-19T12:47:29.318Z</time></trkpt><trkpt lat="42.8594497" lon="10.4209856"><ele>5.0</ele><time>2026-04-19T12:47:30.32Z</time></trkpt><trkpt lat="42.8595327" lon="10.4210538"><ele>5.0</ele><time>2026-04-19T12:47:32.318Z</time></trkpt><trkpt lat="42.8595449" lon="10.4211536"><ele>4.4</ele><time>2026-04-19T12:47:34.329Z</time></trkpt><trkpt lat="42.8594449" lon="10.4213173"><ele>3.8</ele><time>2026-04-19T12:47:36.331Z</time></trkpt><trkpt lat="42.8593791" lon="10.42141"><ele>3.2</ele><time>2026-04-19T12:47:37.325Z</time></trkpt><trkpt lat="42.8593073" lon="10.4214877"><ele>2.6</ele><time>2026-04-19T12:47:38.324Z</time></trkpt><trkpt lat="42.8592398" lon="10.421566"><ele>2.0</ele><time>2026-04-19T12:47:39.323Z</time></trkpt><trkpt lat="42.8591721" lon="10.4216474"><ele>1.9999999999999998</ele><time>2026-04-19T12:47:40.325Z</time></trkpt><trkpt lat="42.8591074" lon="10.4217369"><ele>2.0</ele><time>2026-04-19T12:47:41.321Z</time></trkpt><trkpt lat="42.8590419" lon="10.4218283"><ele>2.0</ele><time>2026-04-19T12:47:42.32Z</time></trkpt><trkpt lat="42.8589734" lon="10.4219138"><ele>2.0</ele><time>2026-04-19T12:47:43.319Z</time></trkpt><trkpt lat="42.8589211" lon="10.4219966"><ele>1.9999999999999998</ele><time>2026-04-19T12:47:44.331Z</time></trkpt><trkpt lat="42.8588797" lon="10.422067"><ele>2.0</ele><time>2026-04-19T12:47:45.323Z</time></trkpt><trkpt lat="42.8588427" lon="10.4221393"><ele>1.8333333333333333</ele><time>2026-04-19T12:47:46.33Z</time></trkpt><trkpt lat="42.85882" lon="10.4222617"><ele>1.6666666666666665</ele><time>2026-04-19T12:47:48.322Z</time></trkpt><trkpt lat="42.8588486" lon="10.4223686"><ele>1.5</ele><time>2026-04-19T12:47:51.327Z</time></trkpt><trkpt lat="42.8588791" lon="10.4224622"><ele>1.3333333333333333</ele><time>2026-04-19T12:47:55.331Z</time></trkpt><trkpt lat="42.8589265" lon="10.4225213"><ele>1.1666666666666665</ele><time>2026-04-19T12:49:52.342Z</time></trkpt><trkpt lat="42.8589057" lon="10.4226268"><ele>1.0</ele><time>2026-04-19T12:53:28.337Z</time></trkpt><trkpt lat="42.8588494" lon="10.4227269"><ele>0.9999999999999999</ele><time>2026-04-19T12:53:30.33Z</time></trkpt><trkpt lat="42.8588022" lon="10.4228335"><ele>1.0</ele><time>2026-04-19T12:53:32.321Z</time></trkpt><trkpt lat="42.8587636" lon="10.4229229"><ele>1.0</ele><time>2026-04-19T12:53:34.322Z</time></trkpt><trkpt lat="42.8587199" lon="10.4229953"><ele>1.0</ele><time>2026-04-19T12:53:38.325Z</time></trkpt><trkpt lat="42.8586989" lon="10.4230909"><ele>0.9999999999999999</ele><time>2026-04-19T12:56:13.34Z</time></trkpt><trkpt lat="42.8586617" lon="10.4231613"><ele>1.0</ele><time>2026-04-19T12:56:14.322Z</time></trkpt><trkpt lat="42.8586004" lon="10.4232318"><ele>0.8</ele><time>2026-04-19T12:56:15.329Z</time></trkpt><trkpt lat="42.8585241" lon="10.4233052"><ele>0.6000000000000001</ele><time>2026-04-19T12:56:16.323Z</time></trkpt><trkpt lat="42.8584446" lon="10.423391"><ele>0.4</ele><time>2026-04-19T12:56:17.327Z</time></trkpt><trkpt lat="42.8583548" lon="10.4234749"><ele>0.2</ele><time>2026-04-19T12:56:18.336Z</time></trkpt><trkpt lat="42.8582654" lon="10.4235657"><ele>0.0</ele><time>2026-04-19T12:56:19.331Z</time></trkpt><trkpt lat="42.8581845" lon="10.4236659"><ele>0.25</ele><time>2026-04-19T12:56:20.335Z</time></trkpt><trkpt lat="42.8580962" lon="10.423771"><ele>0.5</ele><time>2026-04-19T12:56:21.334Z</time></trkpt><trkpt lat="42.8580086" lon="10.4238695"><ele>0.75</ele><time>2026-04-19T12:56:22.336Z</time></trkpt><trkpt lat="42.8579273" lon="10.4239707"><ele>1.0</ele><time>2026-04-19T12:56:23.341Z</time></trkpt><trkpt lat="42.8578391" lon="10.4240735"><ele>1.0</ele><time>2026-04-19T12:56:24.336Z</time></trkpt><trkpt lat="42.8577539" lon="10.4241875"><ele>1.0</ele><time>2026-04-19T12:56:25.335Z</time></trkpt><trkpt lat="42.8576734" lon="10.4243187"><ele>1.0</ele><time>2026-04-19T12:56:26.333Z</time></trkpt><trkpt lat="42.8575888" lon="10.4244809"><ele>1.0</ele><time>2026-04-19T12:56:27.327Z</time></trkpt><trkpt lat="42.8574986" lon="10.4246427"><ele>1.4</ele><time>2026-04-19T12:56:28.334Z</time></trkpt><trkpt lat="42.8574174" lon="10.4247849"><ele>1.8</ele><time>2026-04-19T12:56:29.335Z</time></trkpt><trkpt lat="42.8573574" lon="10.4249152"><ele>2.1999999999999997</ele><time>2026-04-19T12:56:30.332Z</time></trkpt><trkpt lat="42.8572939" lon="10.4250358"><ele>2.6</ele><time>2026-04-19T12:56:31.333Z</time></trkpt><trkpt lat="42.8572356" lon="10.4251307"><ele>3.0</ele><time>2026-04-19T12:56:32.328Z</time></trkpt><trkpt lat="42.857139" lon="10.4251872"><ele>3.0</ele><time>2026-04-19T12:56:33.318Z</time></trkpt><trkpt lat="42.8570222" lon="10.4252436"><ele>3.0</ele><time>2026-04-19T12:56:34.324Z</time></trkpt><trkpt lat="42.8569033" lon="10.4252935"><ele>3.0</ele><time>2026-04-19T12:56:35.333Z</time></trkpt><trkpt lat="42.8567808" lon="10.4253619"><ele>3.0</ele><time>2026-04-19T12:56:36.333Z</time></trkpt><trkpt lat="42.8566547" lon="10.4254415"><ele>2.75</ele><time>2026-04-19T12:56:37.341Z</time></trkpt><trkpt lat="42.8565325" lon="10.4255191"><ele>2.5</ele><time>2026-04-19T12:56:38.333Z</time></trkpt><trkpt lat="42.856422" lon="10.4255958"><ele>2.25</ele><time>2026-04-19T12:56:39.336Z</time></trkpt><trkpt lat="42.8563265" lon="10.42566"><ele>2.0</ele><time>2026-04-19T12:56:40.335Z</time></trkpt><trkpt lat="42.8562488" lon="10.4257325"><ele>1.9999999999999998</ele><time>2026-04-19T12:56:41.334Z</time></trkpt><trkpt lat="42.8562008" lon="10.4258191"><ele>2.0</ele><time>2026-04-19T12:56:42.328Z</time></trkpt><trkpt lat="42.8561762" lon="10.4259039"><ele>2.0</ele><time>2026-04-19T12:56:43.333Z</time></trkpt><trkpt lat="42.8561137" lon="10.425884"><ele>2.0</ele><time>2026-04-19T12:56:46.327Z</time></trkpt><trkpt lat="42.8560627" lon="10.4257851"><ele>1.9999999999999998</ele><time>2026-04-19T12:56:48.327Z</time></trkpt><trkpt lat="42.8559972" lon="10.4256931"><ele>2.0</ele><time>2026-04-19T12:56:50.325Z</time></trkpt><trkpt lat="42.8559074" lon="10.4256112"><ele>2.5</ele><time>2026-04-19T12:56:52.326Z</time></trkpt><trkpt lat="42.8558546" lon="10.4255623"><ele>3.0</ele><time>2026-04-19T12:56:53.325Z</time></trkpt><trkpt lat="42.8558039" lon="10.4255102"><ele>3.5</ele><time>2026-04-19T12:56:54.317Z</time></trkpt><trkpt lat="42.8556956" lon="10.4254066"><ele>4.0</ele><time>2026-04-19T12:56:56.313Z</time></trkpt><trkpt lat="42.8556391" lon="10.4253442"><ele>4.5</ele><time>2026-04-19T12:56:57.317Z</time></trkpt><trkpt lat="42.8555727" lon="10.4252795"><ele>5.0</ele><time>2026-04-19T12:56:58.317Z</time></trkpt><trkpt lat="42.8554986" lon="10.4252174"><ele>5.0</ele><time>2026-04-19T12:56:59.313Z</time></trkpt><trkpt lat="42.8554153" lon="10.425146"><ele>5.0</ele><time>2026-04-19T12:57:00.316Z</time></trkpt><trkpt lat="42.855324" lon="10.425078"><ele>5.0</ele><time>2026-04-19T12:57:01.317Z</time></trkpt><trkpt lat="42.8552365" lon="10.4250066"><ele>5.0</ele><time>2026-04-19T12:57:02.333Z</time></trkpt><trkpt lat="42.8551497" lon="10.424924"><ele>5.0</ele><time>2026-04-19T12:57:03.313Z</time></trkpt><trkpt lat="42.8550678" lon="10.4248376"><ele>5.4</ele><time>2026-04-19T12:57:04.332Z</time></trkpt><trkpt lat="42.8549792" lon="10.4247581"><ele>5.8</ele><time>2026-04-19T12:57:05.317Z</time></trkpt><trkpt lat="42.8548933" lon="10.4246859"><ele>6.199999999999999</ele><time>2026-04-19T12:57:06.329Z</time></trkpt><trkpt lat="42.854804" lon="10.4246202"><ele>6.6</ele><time>2026-04-19T12:57:07.316Z</time></trkpt><trkpt lat="42.8547259" lon="10.4245565"><ele>7.0</ele><time>2026-04-19T12:57:08.322Z</time></trkpt><trkpt lat="42.8546562" lon="10.4244976"><ele>7.0</ele><time>2026-04-19T12:57:09.32Z</time></trkpt><trkpt lat="42.8545957" lon="10.4244434"><ele>7.0</ele><time>2026-04-19T12:57:10.32Z</time></trkpt><trkpt lat="42.8545446" lon="10.4243896"><ele>7.0</ele><time>2026-04-19T12:57:11.317Z</time></trkpt><trkpt lat="42.854505" lon="10.4243227"><ele>7.0</ele><time>2026-04-19T12:57:12.32Z</time></trkpt><trkpt lat="42.8544824" lon="10.4242408"><ele>7.0</ele><time>2026-04-19T12:57:13.319Z</time></trkpt><trkpt lat="42.8544624" lon="10.4241317"><ele>7.0</ele><time>2026-04-19T12:57:14.324Z</time></trkpt><trkpt lat="42.8544475" lon="10.4240131"><ele>7.0</ele><time>2026-04-19T12:57:15.325Z</time></trkpt><trkpt lat="42.854435" lon="10.4239037"><ele>7.666666666666667</ele><time>2026-04-19T12:57:16.327Z</time></trkpt><trkpt lat="42.8544252" lon="10.4238023"><ele>8.333333333333334</ele><time>2026-04-19T12:57:17.325Z</time></trkpt><trkpt lat="42.8543996" lon="10.4236958"><ele>9.0</ele><time>2026-04-19T12:57:18.325Z</time></trkpt><trkpt lat="42.8543685" lon="10.423586"><ele>9.666666666666666</ele><time>2026-04-19T12:57:19.327Z</time></trkpt><trkpt lat="42.8543375" lon="10.4234708"><ele>10.333333333333332</ele><time>2026-04-19T12:57:20.335Z</time></trkpt><trkpt lat="42.8542792" lon="10.4233513"><ele>11.0</ele><time>2026-04-19T12:57:21.343Z</time></trkpt><trkpt lat="42.8542251" lon="10.4232387"><ele>11.0</ele><time>2026-04-19T12:57:22.336Z</time></trkpt><trkpt lat="42.8541612" lon="10.4231299"><ele>11.0</ele><time>2026-04-19T12:57:23.332Z</time></trkpt><trkpt lat="42.854093" lon="10.4230237"><ele>11.0</ele><time>2026-04-19T12:57:24.333Z</time></trkpt><trkpt lat="42.8540251" lon="10.4229347"><ele>11.0</ele><time>2026-04-19T12:57:25.335Z</time></trkpt><trkpt lat="42.8539447" lon="10.4228447"><ele>11.0</ele><time>2026-04-19T12:57:26.334Z</time></trkpt><trkpt lat="42.8538644" lon="10.4227606"><ele>10.8</ele><time>2026-04-19T12:57:27.328Z</time></trkpt><trkpt lat="42.8537904" lon="10.4226868"><ele>10.600000000000001</ele><time>2026-04-19T12:57:28.33Z</time></trkpt><trkpt lat="42.8537115" lon="10.4226202"><ele>10.4</ele><time>2026-04-19T12:57:29.334Z</time></trkpt><trkpt lat="42.8536286" lon="10.4225478"><ele>10.2</ele><time>2026-04-19T12:57:30.332Z</time></trkpt><trkpt lat="42.8535582" lon="10.4224638"><ele>10.0</ele><time>2026-04-19T12:57:31.33Z</time></trkpt><trkpt lat="42.853492" lon="10.422382"><ele>10.0</ele><time>2026-04-19T12:57:32.331Z</time></trkpt><trkpt lat="42.8534271" lon="10.422305"><ele>10.0</ele><time>2026-04-19T12:57:33.333Z</time></trkpt><trkpt lat="42.853365" lon="10.42223"><ele>10.0</ele><time>2026-04-19T12:57:34.332Z</time></trkpt><trkpt lat="42.8533072" lon="10.4221465"><ele>10.0</ele><time>2026-04-19T12:57:35.335Z</time></trkpt><trkpt lat="42.8532514" lon="10.4220637"><ele>10.0</ele><time>2026-04-19T12:57:36.336Z</time></trkpt><trkpt lat="42.853203" lon="10.4219854"><ele>10.0</ele><time>2026-04-19T12:57:37.323Z</time></trkpt><trkpt lat="42.8531518" lon="10.4219149"><ele>10.0</ele><time>2026-04-19T12:57:38.337Z</time></trkpt><trkpt lat="42.8531076" lon="10.4218445"><ele>10.0</ele><time>2026-04-19T12:57:39.331Z</time></trkpt><trkpt lat="42.853064" lon="10.4217762"><ele>10.0</ele><time>2026-04-19T12:57:40.335Z</time></trkpt><trkpt lat="42.8530206" lon="10.4217104"><ele>10.0</ele><time>2026-04-19T12:57:41.332Z</time></trkpt><trkpt lat="42.8529789" lon="10.4216453"><ele>10.0</ele><time>2026-04-19T12:57:42.336Z</time></trkpt><trkpt lat="42.8529325" lon="10.4215829"><ele>10.0</ele><time>2026-04-19T12:57:43.335Z</time></trkpt><trkpt lat="42.8528903" lon="10.42151"><ele>10.0</ele><time>2026-04-19T12:57:44.332Z</time></trkpt><trkpt lat="42.8528393" lon="10.4214281"><ele>10.0</ele><time>2026-04-19T12:57:45.322Z</time></trkpt><trkpt lat="42.8527858" lon="10.4213314"><ele>10.0</ele><time>2026-04-19T12:57:46.328Z</time></trkpt><trkpt lat="42.8527223" lon="10.4212227"><ele>10.0</ele><time>2026-04-19T12:57:47.334Z</time></trkpt><trkpt lat="42.8526487" lon="10.4211104"><ele>10.0</ele><time>2026-04-19T12:57:48.337Z</time></trkpt><trkpt lat="42.852565" lon="10.4209963"><ele>10.0</ele><time>2026-04-19T12:57:49.325Z</time></trkpt><trkpt lat="42.8524872" lon="10.4208822"><ele>10.0</ele><time>2026-04-19T12:57:50.332Z</time></trkpt><trkpt lat="42.8524134" lon="10.4207776"><ele>10.0</ele><time>2026-04-19T12:57:51.33Z</time></trkpt><trkpt lat="42.8523472" lon="10.4206813"><ele>10.0</ele><time>2026-04-19T12:57:52.336Z</time></trkpt><trkpt lat="42.8522784" lon="10.4205996"><ele>10.0</ele><time>2026-04-19T12:57:53.332Z</time></trkpt><trkpt lat="42.8522106" lon="10.4205196"><ele>10.0</ele><time>2026-04-19T12:57:54.34Z</time></trkpt><trkpt lat="42.85214" lon="10.4204409"><ele>10.0</ele><time>2026-04-19T12:57:55.332Z</time></trkpt><trkpt lat="42.8520675" lon="10.4203706"><ele>10.0</ele><time>2026-04-19T12:57:56.336Z</time></trkpt><trkpt lat="42.8519909" lon="10.4203021"><ele>10.0</ele><time>2026-04-19T12:57:57.337Z</time></trkpt><trkpt lat="42.8519119" lon="10.4202279"><ele>10.0</ele><time>2026-04-19T12:57:58.34Z</time></trkpt><trkpt lat="42.8518367" lon="10.4201576"><ele>10.0</ele><time>2026-04-19T12:57:59.332Z</time></trkpt><trkpt lat="42.8517689" lon="10.4200848"><ele>10.8</ele><time>2026-04-19T12:58:00.339Z</time></trkpt><trkpt lat="42.8517002" lon="10.4200052"><ele>11.6</ele><time>2026-04-19T12:58:01.338Z</time></trkpt><trkpt lat="42.8516319" lon="10.4199212"><ele>12.399999999999999</ele><time>2026-04-19T12:58:02.345Z</time></trkpt><trkpt lat="42.8515612" lon="10.4198369"><ele>13.2</ele><time>2026-04-19T12:58:03.339Z</time></trkpt><trkpt lat="42.8514881" lon="10.4197528"><ele>14.0</ele><time>2026-04-19T12:58:04.342Z</time></trkpt><trkpt lat="42.8514131" lon="10.4196679"><ele>14.0</ele><time>2026-04-19T12:58:05.338Z</time></trkpt><trkpt lat="42.8513356" lon="10.4195844"><ele>13.999999999999998</ele><time>2026-04-19T12:58:06.345Z</time></trkpt><trkpt lat="42.8512538" lon="10.419501"><ele>13.999999999999998</ele><time>2026-04-19T12:58:07.334Z</time></trkpt><trkpt lat="42.8511735" lon="10.4194219"><ele>14.0</ele><time>2026-04-19T12:58:08.341Z</time></trkpt><trkpt lat="42.851097" lon="10.4193358"><ele>14.0</ele><time>2026-04-19T12:58:09.343Z</time></trkpt><trkpt lat="42.8510218" lon="10.4192424"><ele>14.500000000000002</ele><time>2026-04-19T12:58:10.342Z</time></trkpt><trkpt lat="42.8509502" lon="10.4191591"><ele>15.0</ele><time>2026-04-19T12:58:11.332Z</time></trkpt><trkpt lat="42.8508827" lon="10.4190877"><ele>15.5</ele><time>2026-04-19T12:58:12.337Z</time></trkpt><trkpt lat="42.8508235" lon="10.4190295"><ele>16.0</ele><time>2026-04-19T12:58:13.335Z</time></trkpt><trkpt lat="42.8507467" lon="10.4189342"><ele>16.5</ele><time>2026-04-19T12:58:15.325Z</time></trkpt><trkpt lat="42.8506949" lon="10.4188329"><ele>17.0</ele><time>2026-04-19T12:58:17.323Z</time></trkpt><trkpt lat="42.8507056" lon="10.4187022"><ele>17.2</ele><time>2026-04-19T12:58:19.328Z</time></trkpt><trkpt lat="42.8507307" lon="10.4186225"><ele>17.4</ele><time>2026-04-19T12:58:20.324Z</time></trkpt><trkpt lat="42.8506914" lon="10.4185148"><ele>17.6</ele><time>2026-04-19T12:58:22.32Z</time></trkpt><trkpt lat="42.8505781" lon="10.4184567"><ele>17.8</ele><time>2026-04-19T12:58:24.321Z</time></trkpt><trkpt lat="42.8504956" lon="10.418414"><ele>18.0</ele><time>2026-04-19T12:58:25.325Z</time></trkpt><trkpt lat="42.8504021" lon="10.4183693"><ele>18.0</ele><time>2026-04-19T12:58:26.315Z</time></trkpt><trkpt lat="42.8503075" lon="10.4183382"><ele>18.0</ele><time>2026-04-19T12:58:27.313Z</time></trkpt><trkpt lat="42.8502168" lon="10.4183116"><ele>18.0</ele><time>2026-04-19T12:58:28.325Z</time></trkpt><trkpt lat="42.8501393" lon="10.4182787"><ele>18.0</ele><time>2026-04-19T12:58:29.315Z</time></trkpt><trkpt lat="42.8500779" lon="10.4182298"><ele>18.0</ele><time>2026-04-19T12:58:30.323Z</time></trkpt><trkpt lat="42.8500175" lon="10.4181758"><ele>18.0</ele><time>2026-04-19T12:58:31.317Z</time></trkpt><trkpt lat="42.8499505" lon="10.4181007"><ele>19.6</ele><time>2026-04-19T12:58:32.324Z</time></trkpt><trkpt lat="42.8498875" lon="10.4180198"><ele>21.200000000000003</ele><time>2026-04-19T12:58:33.318Z</time></trkpt><trkpt lat="42.8498205" lon="10.4179352"><ele>22.8</ele><time>2026-04-19T12:58:34.315Z</time></trkpt><trkpt lat="42.8497451" lon="10.4178627"><ele>24.400000000000002</ele><time>2026-04-19T12:58:35.318Z</time></trkpt><trkpt lat="42.8496625" lon="10.4178098"><ele>26.0</ele><time>2026-04-19T12:58:36.314Z</time></trkpt><trkpt lat="42.8495737" lon="10.4177643"><ele>26.4</ele><time>2026-04-19T12:58:37.326Z</time></trkpt><trkpt lat="42.8494852" lon="10.4177253"><ele>26.8</ele><time>2026-04-19T12:58:38.32Z</time></trkpt><trkpt lat="42.8493933" lon="10.4176692"><ele>27.199999999999996</ele><time>2026-04-19T12:58:39.32Z</time></trkpt><trkpt lat="42.8493063" lon="10.4176102"><ele>27.599999999999998</ele><time>2026-04-19T12:58:40.314Z</time></trkpt><trkpt lat="42.8492201" lon="10.4175648"><ele>28.0</ele><time>2026-04-19T12:58:41.322Z</time></trkpt><trkpt lat="42.8491429" lon="10.4175335"><ele>28.500000000000004</ele><time>2026-04-19T12:58:42.316Z</time></trkpt><trkpt lat="42.8490693" lon="10.4175029"><ele>29.0</ele><time>2026-04-19T12:58:43.321Z</time></trkpt><trkpt lat="42.849006" lon="10.4174751"><ele>29.5</ele><time>2026-04-19T12:58:44.313Z</time></trkpt><trkpt lat="42.8489435" lon="10.4174459"><ele>30.0</ele><time>2026-04-19T12:58:45.318Z</time></trkpt><trkpt lat="42.8488409" lon="10.4174035"><ele>30.500000000000004</ele><time>2026-04-19T12:58:47.32Z</time></trkpt><trkpt lat="42.8487298" lon="10.4173811"><ele>31.0</ele><time>2026-04-19T12:58:49.319Z</time></trkpt><trkpt lat="42.8486192" lon="10.4173808"><ele>31.000000000000004</ele><time>2026-04-19T12:58:51.32Z</time></trkpt><trkpt lat="42.8485547" lon="10.4173691"><ele>31.0</ele><time>2026-04-19T12:58:52.317Z</time></trkpt><trkpt lat="42.8484263" lon="10.4173439"><ele>31.0</ele><time>2026-04-19T12:58:54.321Z</time></trkpt><trkpt lat="42.8483532" lon="10.4173291"><ele>31.0</ele><time>2026-04-19T12:58:55.314Z</time></trkpt><trkpt lat="42.8482797" lon="10.4173156"><ele>31.000000000000004</ele><time>2026-04-19T12:58:56.316Z</time></trkpt><trkpt lat="42.8481996" lon="10.4173002"><ele>31.0</ele><time>2026-04-19T12:58:57.315Z</time></trkpt><trkpt lat="42.8481237" lon="10.4172918"><ele>31.500000000000004</ele><time>2026-04-19T12:58:58.321Z</time></trkpt><trkpt lat="42.8480592" lon="10.4172708"><ele>32.0</ele><time>2026-04-19T12:58:59.327Z</time></trkpt><trkpt lat="42.8479985" lon="10.4172331"><ele>32.5</ele><time>2026-04-19T12:59:00.318Z</time></trkpt><trkpt lat="42.8479391" lon="10.4171789"><ele>33.0</ele><time>2026-04-19T12:59:01.318Z</time></trkpt><trkpt lat="42.8478841" lon="10.4171193"><ele>33.5</ele><time>2026-04-19T12:59:02.317Z</time></trkpt><trkpt lat="42.8477789" lon="10.4170347"><ele>34.0</ele><time>2026-04-19T12:59:04.322Z</time></trkpt><trkpt lat="42.8477161" lon="10.4169942"><ele>33.5</ele><time>2026-04-19T12:59:05.334Z</time></trkpt><trkpt lat="42.8475938" lon="10.416965"><ele>33.0</ele><time>2026-04-19T12:59:07.332Z</time></trkpt><trkpt lat="42.8475297" lon="10.416979"><ele>32.5</ele><time>2026-04-19T12:59:08.337Z</time></trkpt><trkpt lat="42.8474644" lon="10.4169922"><ele>32.0</ele><time>2026-04-19T12:59:09.33Z</time></trkpt><trkpt lat="42.8473406" lon="10.4170051"><ele>31.500000000000004</ele><time>2026-04-19T12:59:11.332Z</time></trkpt><trkpt lat="42.8472753" lon="10.4170077"><ele>31.0</ele><time>2026-04-19T12:59:12.331Z</time></trkpt><trkpt lat="42.8472106" lon="10.4170093"><ele>31.000000000000004</ele><time>2026-04-19T12:59:13.327Z</time></trkpt><trkpt lat="42.8470875" lon="10.4170577"><ele>31.0</ele><time>2026-04-19T12:59:15.324Z</time></trkpt><trkpt lat="42.8470143" lon="10.4170857"><ele>31.0</ele><time>2026-04-19T12:59:16.326Z</time></trkpt><trkpt lat="42.8469372" lon="10.4171095"><ele>31.0</ele><time>2026-04-19T12:59:17.328Z</time></trkpt><trkpt lat="42.8468571" lon="10.4171383"><ele>31.000000000000004</ele><time>2026-04-19T12:59:18.328Z</time></trkpt><trkpt lat="42.846777" lon="10.417167"><ele>31.0</ele><time>2026-04-19T12:59:19.314Z</time></trkpt><trkpt lat="42.8466995" lon="10.4171837"><ele>31.833333333333336</ele><time>2026-04-19T12:59:20.316Z</time></trkpt><trkpt lat="42.8466162" lon="10.4171995"><ele>32.66666666666667</ele><time>2026-04-19T12:59:21.325Z</time></trkpt><trkpt lat="42.8465361" lon="10.4172152"><ele>33.5</ele><time>2026-04-19T12:59:22.305Z</time></trkpt><trkpt lat="42.8464637" lon="10.4172244"><ele>34.333333333333336</ele><time>2026-04-19T12:59:23.318Z</time></trkpt><trkpt lat="42.8463634" lon="10.417232"><ele>35.166666666666664</ele><time>2026-04-19T12:59:25.317Z</time></trkpt><trkpt lat="42.8462971" lon="10.4172377"><ele>36.0</ele><time>2026-04-19T12:59:27.318Z</time></trkpt><trkpt lat="42.846224" lon="10.4172278"><ele>36.0</ele><time>2026-04-19T12:59:36.314Z</time></trkpt><trkpt lat="42.846162" lon="10.4172531"><ele>36.0</ele><time>2026-04-19T12:59:38.31Z</time></trkpt><trkpt lat="42.8460809" lon="10.4172961"><ele>36.0</ele><time>2026-04-19T12:59:41.31Z</time></trkpt><trkpt lat="42.845997" lon="10.4172716"><ele>36.0</ele><time>2026-04-19T12:59:44.32Z</time></trkpt><trkpt lat="42.8459216" lon="10.4172491"><ele>36.0</ele><time>2026-04-19T12:59:46.317Z</time></trkpt><trkpt lat="42.8458255" lon="10.4172224"><ele>36.0</ele><time>2026-04-19T12:59:48.317Z</time></trkpt><trkpt lat="42.8457372" lon="10.4172032"><ele>37.166666666666664</ele><time>2026-04-19T12:59:50.31Z</time></trkpt><trkpt lat="42.8456462" lon="10.4171965"><ele>38.333333333333336</ele><time>2026-04-19T12:59:52.309Z</time></trkpt><trkpt lat="42.8455663" lon="10.4171934"><ele>39.5</ele><time>2026-04-19T12:59:54.317Z</time></trkpt><trkpt lat="42.845479" lon="10.417186"><ele>40.66666666666667</ele><time>2026-04-19T12:59:56.318Z</time></trkpt><trkpt lat="42.8454066" lon="10.417177"><ele>41.833333333333336</ele><time>2026-04-19T12:59:58.312Z</time></trkpt><trkpt lat="42.8453406" lon="10.4171594"><ele>43.0</ele><time>2026-04-19T13:00:00.309Z</time></trkpt><trkpt lat="42.8452747" lon="10.4171356"><ele>46.0</ele><time>2026-04-19T13:00:02.306Z</time></trkpt><trkpt lat="42.8451942" lon="10.4171176"><ele>49.0</ele><time>2026-04-19T13:00:06.312Z</time></trkpt><trkpt lat="42.8451303" lon="10.4170649"><ele>52.0</ele><time>2026-04-19T13:00:09.314Z</time></trkpt><trkpt lat="42.8450471" lon="10.4170101"><ele>55.0</ele><time>2026-04-19T13:00:12.313Z</time></trkpt><trkpt lat="42.8449722" lon="10.41695"><ele>57.99999999999999</ele><time>2026-04-19T13:00:14.304Z</time></trkpt><trkpt lat="42.8449086" lon="10.4169002"><ele>61.0</ele><time>2026-04-19T13:00:16.309Z</time></trkpt><trkpt lat="42.8448429" lon="10.4168592"><ele>61.666666666666664</ele><time>2026-04-19T13:00:18.318Z</time></trkpt><trkpt lat="42.8447685" lon="10.4167984"><ele>62.33333333333333</ele><time>2026-04-19T13:00:20.305Z</time></trkpt><trkpt lat="42.8446996" lon="10.4166868"><ele>63.0</ele><time>2026-04-19T13:00:22.313Z</time></trkpt><trkpt lat="42.8446608" lon="10.4165774"><ele>63.66666666666667</ele><time>2026-04-19T13:00:24.317Z</time></trkpt><trkpt lat="42.8446268" lon="10.4165015"><ele>64.33333333333334</ele><time>2026-04-19T13:00:26.319Z</time></trkpt><trkpt lat="42.8445923" lon="10.4164095"><ele>65.0</ele><time>2026-04-19T13:00:29.318Z</time></trkpt><trkpt lat="42.8445622" lon="10.4163299"><ele>69.16666666666667</ele><time>2026-04-19T13:00:58.323Z</time></trkpt><trkpt lat="42.8445352" lon="10.4162185"><ele>73.33333333333334</ele><time>2026-04-19T13:01:01.328Z</time></trkpt><trkpt lat="42.8445024" lon="10.4161411"><ele>77.5</ele><time>2026-04-19T13:01:04.322Z</time></trkpt><trkpt lat="42.8444537" lon="10.4160762"><ele>81.66666666666667</ele><time>2026-04-19T13:01:07.308Z</time></trkpt><trkpt lat="42.8443994" lon="10.4160195"><ele>85.83333333333333</ele><time>2026-04-19T13:01:38.304Z</time></trkpt><trkpt lat="42.8443419" lon="10.4159329"><ele>90.0</ele><time>2026-04-19T13:01:40.305Z</time></trkpt><trkpt lat="42.8442984" lon="10.4158165"><ele>89.0</ele><time>2026-04-19T13:01:42.317Z</time></trkpt><trkpt lat="42.8442588" lon="10.4157012"><ele>88.0</ele><time>2026-04-19T13:01:44.312Z</time></trkpt><trkpt lat="42.8442121" lon="10.4156056"><ele>87.0</ele><time>2026-04-19T13:01:46.316Z</time></trkpt><trkpt lat="42.8441591" lon="10.4155061"><ele>86.0</ele><time>2026-04-19T13:01:48.313Z</time></trkpt><trkpt lat="42.8441033" lon="10.4154073"><ele>85.0</ele><time>2026-04-19T13:01:50.314Z</time></trkpt><trkpt lat="42.8440533" lon="10.4153357"><ele>84.0</ele><time>2026-04-19T13:01:52.314Z</time></trkpt><trkpt lat="42.8439881" lon="10.4152358"><ele>87.33333333333333</ele><time>2026-04-19T13:01:55.312Z</time></trkpt><trkpt lat="42.8439249" lon="10.4151809"><ele>90.66666666666666</ele><time>2026-04-19T13:01:57.31Z</time></trkpt><trkpt lat="42.8438375" lon="10.4151278"><ele>94.0</ele><time>2026-04-19T13:01:59.312Z</time></trkpt><trkpt lat="42.8437708" lon="10.4150607"><ele>97.33333333333333</ele><time>2026-04-19T13:02:01.313Z</time></trkpt><trkpt lat="42.8437172" lon="10.4149932"><ele>100.66666666666666</ele><time>2026-04-19T13:02:03.309Z</time></trkpt><trkpt lat="42.8436774" lon="10.4149245"><ele>104.0</ele><time>2026-04-19T13:02:05.317Z</time></trkpt><trkpt lat="42.8436357" lon="10.4148571"><ele>103.99999999999999</ele><time>2026-04-19T13:02:07.313Z</time></trkpt><trkpt lat="42.8435694" lon="10.4148138"><ele>104.0</ele><time>2026-04-19T13:02:10.32Z</time></trkpt><trkpt lat="42.8435018" lon="10.414832"><ele>104.0</ele><time>2026-04-19T13:02:13.317Z</time></trkpt><trkpt lat="42.8434316" lon="10.4149009"><ele>104.0</ele><time>2026-04-19T13:02:16.317Z</time></trkpt><trkpt lat="42.8433449" lon="10.4149355"><ele>103.99999999999999</ele><time>2026-04-19T13:02:19.306Z</time></trkpt><trkpt lat="42.8432873" lon="10.4149957"><ele>104.0</ele><time>2026-04-19T13:02:21.312Z</time></trkpt><trkpt lat="42.8431929" lon="10.4150594"><ele>105.0</ele><time>2026-04-19T13:02:23.317Z</time></trkpt><trkpt lat="42.8430894" lon="10.4150718"><ele>106.0</ele><time>2026-04-19T13:02:25.316Z</time></trkpt><trkpt lat="42.8430142" lon="10.4150025"><ele>107.0</ele><time>2026-04-19T13:02:27.312Z</time></trkpt><trkpt lat="42.8429041" lon="10.4149376"><ele>108.0</ele><time>2026-04-19T13:02:29.318Z</time></trkpt><trkpt lat="42.842784" lon="10.4149314"><ele>109.0</ele><time>2026-04-19T13:02:31.317Z</time></trkpt><trkpt lat="42.8426978" lon="10.4149292"><ele>111.83333333333334</ele><time>2026-04-19T13:02:33.315Z</time></trkpt><trkpt lat="42.8426234" lon="10.4149523"><ele>114.66666666666667</ele><time>2026-04-19T13:02:35.322Z</time></trkpt><trkpt lat="42.8425576" lon="10.4150014"><ele>117.5</ele><time>2026-04-19T13:02:45.332Z</time></trkpt><trkpt lat="42.8425017" lon="10.4150635"><ele>120.33333333333334</ele><time>2026-04-19T13:02:47.323Z</time></trkpt><trkpt lat="42.8424354" lon="10.4151575"><ele>123.16666666666667</ele><time>2026-04-19T13:02:49.312Z</time></trkpt><trkpt lat="42.8423574" lon="10.4152703"><ele>126.0</ele><time>2026-04-19T13:02:51.308Z</time></trkpt><trkpt lat="42.8422559" lon="10.4153335"><ele>126.0</ele><time>2026-04-19T13:02:53.318Z</time></trkpt><trkpt lat="42.8421367" lon="10.415353"><ele>126.0</ele><time>2026-04-19T13:02:55.313Z</time></trkpt><trkpt lat="42.8420244" lon="10.4153933"><ele>126.0</ele><time>2026-04-19T13:02:57.311Z</time></trkpt><trkpt lat="42.8419073" lon="10.4154231"><ele>126.0</ele><time>2026-04-19T13:02:59.316Z</time></trkpt><trkpt lat="42.8417897" lon="10.4154421"><ele>128.8</ele><time>2026-04-19T13:03:01.317Z</time></trkpt><trkpt lat="42.8416843" lon="10.4154562"><ele>131.6</ele><time>2026-04-19T13:03:03.32Z</time></trkpt><trkpt lat="42.8415867" lon="10.4154568"><ele>134.4</ele><time>2026-04-19T13:03:05.321Z</time></trkpt><trkpt lat="42.8415016" lon="10.4154444"><ele>137.2</ele><time>2026-04-19T13:03:07.329Z</time></trkpt><trkpt lat="42.8414376" lon="10.415421"><ele>140.0</ele><time>2026-04-19T13:03:10.331Z</time></trkpt><trkpt lat="42.84151" lon="10.4153131"><ele>140.0</ele><time>2026-04-19T13:03:15.329Z</time></trkpt><trkpt lat="42.8415006" lon="10.4151753"><ele>140.0</ele><time>2026-04-19T13:03:17.324Z</time></trkpt><trkpt lat="42.8414591" lon="10.4150249"><ele>140.0</ele><time>2026-04-19T13:03:19.323Z</time></trkpt><trkpt lat="42.841469" lon="10.4148509"><ele>140.0</ele><time>2026-04-19T13:03:21.326Z</time></trkpt><trkpt lat="42.8414761" lon="10.4147581"><ele>140.0</ele><time>2026-04-19T13:03:22.325Z</time></trkpt><trkpt lat="42.8414668" lon="10.4146678"><ele>142.2</ele><time>2026-04-19T13:03:23.325Z</time></trkpt><trkpt lat="42.8414461" lon="10.4145766"><ele>144.4</ele><time>2026-04-19T13:03:24.325Z</time></trkpt><trkpt lat="42.8414054" lon="10.4144768"><ele>146.6</ele><time>2026-04-19T13:03:25.326Z</time></trkpt><trkpt lat="42.841359" lon="10.4143606"><ele>148.8</ele><time>2026-04-19T13:03:26.338Z</time></trkpt><trkpt lat="42.8413147" lon="10.4142347"><ele>151.0</ele><time>2026-04-19T13:03:27.33Z</time></trkpt><trkpt lat="42.8412781" lon="10.4141021"><ele>151.0</ele><time>2026-04-19T13:03:28.337Z</time></trkpt><trkpt lat="42.8412337" lon="10.4139741"><ele>151.0</ele><time>2026-04-19T13:03:29.329Z</time></trkpt><trkpt lat="42.841193" lon="10.4138441"><ele>151.0</ele><time>2026-04-19T13:03:30.323Z</time></trkpt><trkpt lat="42.841162" lon="10.4137099"><ele>151.0</ele><time>2026-04-19T13:03:31.336Z</time></trkpt><trkpt lat="42.8411436" lon="10.4135889"><ele>151.0</ele><time>2026-04-19T13:03:32.327Z</time></trkpt><trkpt lat="42.8411317" lon="10.4134908"><ele>151.5</ele><time>2026-04-19T13:03:33.315Z</time></trkpt><trkpt lat="42.8411658" lon="10.4133602"><ele>152.0</ele><time>2026-04-19T13:03:35.33Z</time></trkpt><trkpt lat="42.8412597" lon="10.4132721"><ele>152.5</ele><time>2026-04-19T13:03:37.33Z</time></trkpt><trkpt lat="42.8412887" lon="10.4131909"><ele>153.0</ele><time>2026-04-19T13:03:38.333Z</time></trkpt><trkpt lat="42.8412976" lon="10.4130979"><ele>153.5</ele><time>2026-04-19T13:03:39.332Z</time></trkpt><trkpt lat="42.841287" lon="10.4130014"><ele>154.0</ele><time>2026-04-19T13:03:40.326Z</time></trkpt><trkpt lat="42.8412741" lon="10.4129156"><ele>154.2</ele><time>2026-04-19T13:03:41.333Z</time></trkpt><trkpt lat="42.8412091" lon="10.4128327"><ele>154.4</ele><time>2026-04-19T13:03:43.326Z</time></trkpt><trkpt lat="42.8410865" lon="10.4128343"><ele>154.6</ele><time>2026-04-19T13:03:45.32Z</time></trkpt><trkpt lat="42.8410066" lon="10.4128376"><ele>154.8</ele><time>2026-04-19T13:03:46.326Z</time></trkpt><trkpt lat="42.8409207" lon="10.4128327"><ele>155.0</ele><time>2026-04-19T13:03:47.313Z</time></trkpt><trkpt lat="42.8408306" lon="10.4128313"><ele>154.66666666666666</ele><time>2026-04-19T13:03:48.312Z</time></trkpt><trkpt lat="42.8407426" lon="10.4128342"><ele>154.33333333333331</ele><time>2026-04-19T13:03:49.314Z</time></trkpt><trkpt lat="42.8406551" lon="10.4128554"><ele>154.0</ele><time>2026-04-19T13:03:50.319Z</time></trkpt><trkpt lat="42.8405765" lon="10.4129021"><ele>153.66666666666666</ele><time>2026-04-19T13:03:51.314Z</time></trkpt><trkpt lat="42.8405086" lon="10.4129688"><ele>153.33333333333334</ele><time>2026-04-19T13:03:52.324Z</time></trkpt><trkpt lat="42.8404392" lon="10.413034"><ele>153.0</ele><time>2026-04-19T13:03:53.326Z</time></trkpt><trkpt lat="42.8403671" lon="10.4130837"><ele>153.0</ele><time>2026-04-19T13:03:54.332Z</time></trkpt><trkpt lat="42.8402909" lon="10.4131206"><ele>153.0</ele><time>2026-04-19T13:03:55.321Z</time></trkpt><trkpt lat="42.8402125" lon="10.4131514"><ele>153.0</ele><time>2026-04-19T13:03:56.327Z</time></trkpt><trkpt lat="42.8401313" lon="10.4131728"><ele>153.0</ele><time>2026-04-19T13:03:57.324Z</time></trkpt><trkpt lat="42.8400583" lon="10.4132014"><ele>153.0</ele><time>2026-04-19T13:03:58.333Z</time></trkpt><trkpt lat="42.8399847" lon="10.4132493"><ele>153.0</ele><time>2026-04-19T13:03:59.32Z</time></trkpt><trkpt lat="42.8399184" lon="10.4133078"><ele>155.0</ele><time>2026-04-19T13:04:00.331Z</time></trkpt><trkpt lat="42.8398602" lon="10.4133794"><ele>157.0</ele><time>2026-04-19T13:04:01.333Z</time></trkpt><trkpt lat="42.8398097" lon="10.4134712"><ele>159.0</ele><time>2026-04-19T13:04:02.325Z</time></trkpt><trkpt lat="42.8397636" lon="10.4135654"><ele>161.0</ele><time>2026-04-19T13:04:03.328Z</time></trkpt><trkpt lat="42.839712" lon="10.4136439"><ele>163.0</ele><time>2026-04-19T13:04:04.328Z</time></trkpt><trkpt lat="42.8396472" lon="10.4137127"><ele>165.0</ele><time>2026-04-19T13:04:05.325Z</time></trkpt><trkpt lat="42.8395783" lon="10.4137582"><ele>165.00000000000003</ele><time>2026-04-19T13:04:06.328Z</time></trkpt><trkpt lat="42.8395114" lon="10.4137994"><ele>165.0</ele><time>2026-04-19T13:04:07.321Z</time></trkpt><trkpt lat="42.8394469" lon="10.4138506"><ele>165.0</ele><time>2026-04-19T13:04:08.316Z</time></trkpt><trkpt lat="42.8393857" lon="10.4139048"><ele>165.0</ele><time>2026-04-19T13:04:09.327Z</time></trkpt><trkpt lat="42.8393316" lon="10.4139704"><ele>165.0</ele><time>2026-04-19T13:04:10.314Z</time></trkpt><trkpt lat="42.839289" lon="10.4140434"><ele>165.00000000000003</ele><time>2026-04-19T13:04:11.321Z</time></trkpt><trkpt lat="42.8392458" lon="10.4141178"><ele>165.0</ele><time>2026-04-19T13:04:12.317Z</time></trkpt><trkpt lat="42.8391459" lon="10.4141627"><ele>167.83333333333334</ele><time>2026-04-19T13:04:14.327Z</time></trkpt><trkpt lat="42.839044" lon="10.4141508"><ele>170.66666666666666</ele><time>2026-04-19T13:04:16.327Z</time></trkpt><trkpt lat="42.8389272" lon="10.4142021"><ele>173.5</ele><time>2026-04-19T13:04:18.323Z</time></trkpt><trkpt lat="42.8388645" lon="10.4142391"><ele>176.33333333333331</ele><time>2026-04-19T13:04:19.319Z</time></trkpt><trkpt lat="42.8387999" lon="10.4142758"><ele>179.16666666666666</ele><time>2026-04-19T13:04:20.323Z</time></trkpt><trkpt lat="42.8387385" lon="10.4143084"><ele>182.0</ele><time>2026-04-19T13:04:21.307Z</time></trkpt><trkpt lat="42.8386788" lon="10.4143484"><ele>182.0</ele><time>2026-04-19T13:04:22.323Z</time></trkpt><trkpt lat="42.8386188" lon="10.414386"><ele>182.0</ele><time>2026-04-19T13:04:23.328Z</time></trkpt><trkpt lat="42.8385549" lon="10.4144241"><ele>182.0</ele><time>2026-04-19T13:04:24.324Z</time></trkpt><trkpt lat="42.8384901" lon="10.4144484"><ele>182.0</ele><time>2026-04-19T13:04:25.326Z</time></trkpt><trkpt lat="42.8383749" lon="10.4144253"><ele>182.0</ele><time>2026-04-19T13:04:27.325Z</time></trkpt><trkpt lat="42.8383162" lon="10.4143782"><ele>182.0</ele><time>2026-04-19T13:04:28.336Z</time></trkpt><trkpt lat="42.8382463" lon="10.4143181"><ele>185.33333333333331</ele><time>2026-04-19T13:04:29.33Z</time></trkpt><trkpt lat="42.8381766" lon="10.4142514"><ele>188.66666666666666</ele><time>2026-04-19T13:04:30.332Z</time></trkpt><trkpt lat="42.8381077" lon="10.4141863"><ele>192.0</ele><time>2026-04-19T13:04:31.326Z</time></trkpt><trkpt lat="42.8380213" lon="10.4141071"><ele>195.33333333333331</ele><time>2026-04-19T13:04:33.326Z</time></trkpt><trkpt lat="42.837966" lon="10.4140369"><ele>198.66666666666666</ele><time>2026-04-19T13:04:36.332Z</time></trkpt><trkpt lat="42.8379256" lon="10.4139685"><ele>202.0</ele><time>2026-04-19T13:04:38.318Z</time></trkpt><trkpt lat="42.8378471" lon="10.4139188"><ele>202.0</ele><time>2026-04-19T13:04:40.324Z</time></trkpt><trkpt lat="42.8377214" lon="10.4139124"><ele>202.0</ele><time>2026-04-19T13:04:42.322Z</time></trkpt><trkpt lat="42.8376454" lon="10.413918"><ele>202.0</ele><time>2026-04-19T13:04:43.314Z</time></trkpt><trkpt lat="42.8375597" lon="10.4139223"><ele>202.0</ele><time>2026-04-19T13:04:44.313Z</time></trkpt><trkpt lat="42.837464" lon="10.4139105"><ele>202.0</ele><time>2026-04-19T13:04:45.315Z</time></trkpt><trkpt lat="42.8373668" lon="10.4138731"><ele>208.25</ele><time>2026-04-19T13:04:46.315Z</time></trkpt><trkpt lat="42.8372694" lon="10.4138158"><ele>214.5</ele><time>2026-04-19T13:04:47.309Z</time></trkpt><trkpt lat="42.8371622" lon="10.4137504"><ele>220.75</ele><time>2026-04-19T13:04:48.318Z</time></trkpt><trkpt lat="42.8370497" lon="10.4136886"><ele>227.0</ele><time>2026-04-19T13:04:49.315Z</time></trkpt><trkpt lat="42.8369311" lon="10.4136367"><ele>227.0</ele><time>2026-04-19T13:04:50.314Z</time></trkpt><trkpt lat="42.8368067" lon="10.4135991"><ele>227.0</ele><time>2026-04-19T13:04:51.316Z</time></trkpt><trkpt lat="42.8366934" lon="10.4135876"><ele>227.0</ele><time>2026-04-19T13:04:52.316Z</time></trkpt><trkpt lat="42.8365849" lon="10.4136113"><ele>227.0</ele><time>2026-04-19T13:04:53.314Z</time></trkpt><trkpt lat="42.8364774" lon="10.4136709"><ele>226.75</ele><time>2026-04-19T13:04:54.312Z</time></trkpt><trkpt lat="42.8363774" lon="10.4137786"><ele>226.5</ele><time>2026-04-19T13:04:55.317Z</time></trkpt><trkpt lat="42.8362898" lon="10.4139127"><ele>226.25</ele><time>2026-04-19T13:04:56.313Z</time></trkpt><trkpt lat="42.8362026" lon="10.4140537"><ele>226.0</ele><time>2026-04-19T13:04:57.309Z</time></trkpt><trkpt lat="42.8361143" lon="10.4141838"><ele>223.5</ele><time>2026-04-19T13:04:58.321Z</time></trkpt><trkpt lat="42.8360082" lon="10.4142796"><ele>221.0</ele><time>2026-04-19T13:04:59.316Z</time></trkpt><trkpt lat="42.835899" lon="10.4143419"><ele>218.5</ele><time>2026-04-19T13:05:00.317Z</time></trkpt><trkpt lat="42.8357665" lon="10.4143766"><ele>216.0</ele><time>2026-04-19T13:05:01.321Z</time></trkpt><trkpt lat="42.8356237" lon="10.414385"><ele>216.0</ele><time>2026-04-19T13:05:02.309Z</time></trkpt><trkpt lat="42.8354787" lon="10.4143809"><ele>216.0</ele><time>2026-04-19T13:05:03.318Z</time></trkpt><trkpt lat="42.8353268" lon="10.4143475"><ele>216.0</ele><time>2026-04-19T13:05:04.315Z</time></trkpt><trkpt lat="42.8351846" lon="10.4142912"><ele>216.0</ele><time>2026-04-19T13:05:05.313Z</time></trkpt><trkpt lat="42.8350433" lon="10.4142377"><ele>217.25</ele><time>2026-04-19T13:05:06.317Z</time></trkpt><trkpt lat="42.8349052" lon="10.4141834"><ele>218.5</ele><time>2026-04-19T13:05:07.317Z</time></trkpt><trkpt lat="42.8347775" lon="10.4141368"><ele>219.75</ele><time>2026-04-19T13:05:08.312Z</time></trkpt><trkpt lat="42.834663" lon="10.4140793"><ele>221.0</ele><time>2026-04-19T13:05:09.309Z</time></trkpt><trkpt lat="42.8345585" lon="10.4140247"><ele>221.00000000000003</ele><time>2026-04-19T13:05:10.309Z</time></trkpt><trkpt lat="42.8344769" lon="10.4139358"><ele>221.0</ele><time>2026-04-19T13:05:11.306Z</time></trkpt><trkpt lat="42.8343968" lon="10.4138467"><ele>221.0</ele><time>2026-04-19T13:05:12.312Z</time></trkpt><trkpt lat="42.8343279" lon="10.4137981"><ele>221.0</ele><time>2026-04-19T13:05:13.309Z</time></trkpt><trkpt lat="42.8342583" lon="10.4138176"><ele>221.00000000000003</ele><time>2026-04-19T13:05:14.306Z</time></trkpt><trkpt lat="42.8341944" lon="10.4138688"><ele>221.0</ele><time>2026-04-19T13:05:15.305Z</time></trkpt><trkpt lat="42.8341385" lon="10.4139411"><ele>223.25</ele><time>2026-04-19T13:05:16.307Z</time></trkpt><trkpt lat="42.8341015" lon="10.4140536"><ele>225.5</ele><time>2026-04-19T13:05:17.298Z</time></trkpt><trkpt lat="42.8340716" lon="10.4142056"><ele>227.75</ele><time>2026-04-19T13:05:18.297Z</time></trkpt><trkpt lat="42.8340444" lon="10.4143703"><ele>230.0</ele><time>2026-04-19T13:05:19.299Z</time></trkpt><trkpt lat="42.8340025" lon="10.4145254"><ele>225.25</ele><time>2026-04-19T13:05:20.296Z</time></trkpt><trkpt lat="42.8339394" lon="10.4146608"><ele>220.5</ele><time>2026-04-19T13:05:21.302Z</time></trkpt><trkpt lat="42.8338532" lon="10.414793"><ele>215.75</ele><time>2026-04-19T13:05:22.298Z</time></trkpt><trkpt lat="42.833756" lon="10.4149183"><ele>211.0</ele><time>2026-04-19T13:05:23.299Z</time></trkpt><trkpt lat="42.8336502" lon="10.4150238"><ele>211.0</ele><time>2026-04-19T13:05:24.306Z</time></trkpt><trkpt lat="42.8335419" lon="10.4150954"><ele>211.0</ele><time>2026-04-19T13:05:25.301Z</time></trkpt><trkpt lat="42.8334355" lon="10.4151284"><ele>211.0</ele><time>2026-04-19T13:05:26.304Z</time></trkpt><trkpt lat="42.8333332" lon="10.4151239"><ele>211.0</ele><time>2026-04-19T13:05:27.303Z</time></trkpt><trkpt lat="42.8332471" lon="10.4150593"><ele>211.0</ele><time>2026-04-19T13:05:28.311Z</time></trkpt><trkpt lat="42.8331683" lon="10.4149621"><ele>214.20000000000002</ele><time>2026-04-19T13:05:29.302Z</time></trkpt><trkpt lat="42.8330773" lon="10.4148749"><ele>217.4</ele><time>2026-04-19T13:05:30.303Z</time></trkpt><trkpt lat="42.8329753" lon="10.4148126"><ele>220.6</ele><time>2026-04-19T13:05:31.307Z</time></trkpt><trkpt lat="42.8328803" lon="10.4147936"><ele>223.8</ele><time>2026-04-19T13:05:32.3Z</time></trkpt><trkpt lat="42.832792" lon="10.4148221"><ele>227.0</ele><time>2026-04-19T13:05:33.303Z</time></trkpt><trkpt lat="42.8327077" lon="10.4149034"><ele>231.5</ele><time>2026-04-19T13:05:34.305Z</time></trkpt><trkpt lat="42.8326307" lon="10.4150256"><ele>236.0</ele><time>2026-04-19T13:05:35.305Z</time></trkpt><trkpt lat="42.8325701" lon="10.4151572"><ele>240.5</ele><time>2026-04-19T13:05:36.299Z</time></trkpt><trkpt lat="42.8325013" lon="10.4152857"><ele>245.0</ele><time>2026-04-19T13:05:37.295Z</time></trkpt><trkpt lat="42.8324283" lon="10.4154228"><ele>240.0</ele><time>2026-04-19T13:05:38.3Z</time></trkpt><trkpt lat="42.8323523" lon="10.4155588"><ele>235.0</ele><time>2026-04-19T13:05:39.297Z</time></trkpt><trkpt lat="42.8322863" lon="10.4156968"><ele>230.0</ele><time>2026-04-19T13:05:40.301Z</time></trkpt><trkpt lat="42.8322188" lon="10.4158477"><ele>225.0</ele><time>2026-04-19T13:05:41.298Z</time></trkpt><trkpt lat="42.8321474" lon="10.4159921"><ele>225.0</ele><time>2026-04-19T13:05:42.296Z</time></trkpt><trkpt lat="42.8320619" lon="10.4161298"><ele>225.0</ele><time>2026-04-19T13:05:43.3Z</time></trkpt><trkpt lat="42.8319558" lon="10.4162673"><ele>225.0</ele><time>2026-04-19T13:05:44.303Z</time></trkpt><trkpt lat="42.8318459" lon="10.416399"><ele>225.0</ele><time>2026-04-19T13:05:45.307Z</time></trkpt><trkpt lat="42.8317413" lon="10.416536"><ele>228.5</ele><time>2026-04-19T13:05:46.301Z</time></trkpt><trkpt lat="42.8316515" lon="10.416668"><ele>232.0</ele><time>2026-04-19T13:05:47.308Z</time></trkpt><trkpt lat="42.8315732" lon="10.4167987"><ele>235.5</ele><time>2026-04-19T13:05:48.311Z</time></trkpt><trkpt lat="42.8314914" lon="10.4169021"><ele>239.0</ele><time>2026-04-19T13:05:49.307Z</time></trkpt><trkpt lat="42.8313855" lon="10.4169707"><ele>239.0</ele><time>2026-04-19T13:05:50.307Z</time></trkpt><trkpt lat="42.8312859" lon="10.4170151"><ele>239.0</ele><time>2026-04-19T13:05:51.299Z</time></trkpt><trkpt lat="42.8311856" lon="10.4171002"><ele>239.0</ele><time>2026-04-19T13:05:52.302Z</time></trkpt><trkpt lat="42.8310988" lon="10.4172365"><ele>239.0</ele><time>2026-04-19T13:05:53.302Z</time></trkpt><trkpt lat="42.8310089" lon="10.4173772"><ele>239.5</ele><time>2026-04-19T13:05:54.307Z</time></trkpt><trkpt lat="42.8309161" lon="10.4175076"><ele>240.0</ele><time>2026-04-19T13:05:55.303Z</time></trkpt><trkpt lat="42.8308236" lon="10.4176338"><ele>240.5</ele><time>2026-04-19T13:05:56.304Z</time></trkpt><trkpt lat="42.8307199" lon="10.4177476"><ele>241.0</ele><time>2026-04-19T13:05:57.303Z</time></trkpt><trkpt lat="42.8305945" lon="10.4178211"><ele>241.0</ele><time>2026-04-19T13:05:58.309Z</time></trkpt><trkpt lat="42.8304598" lon="10.4178708"><ele>241.0</ele><time>2026-04-19T13:05:59.301Z</time></trkpt><trkpt lat="42.8303357" lon="10.4179394"><ele>241.0</ele><time>2026-04-19T13:06:00.305Z</time></trkpt><trkpt lat="42.8302198" lon="10.4180327"><ele>241.0</ele><time>2026-04-19T13:06:01.304Z</time></trkpt><trkpt lat="42.8301158" lon="10.4181407"><ele>240.20000000000002</ele><time>2026-04-19T13:06:02.306Z</time></trkpt><trkpt lat="42.8300232" lon="10.4182534"><ele>239.40000000000003</ele><time>2026-04-19T13:06:03.303Z</time></trkpt><trkpt lat="42.8299297" lon="10.4183403"><ele>238.6</ele><time>2026-04-19T13:06:04.317Z</time></trkpt><trkpt lat="42.8298396" lon="10.418391"><ele>237.8</ele><time>2026-04-19T13:06:05.313Z</time></trkpt><trkpt lat="42.8297448" lon="10.4183964"><ele>237.0</ele><time>2026-04-19T13:06:06.312Z</time></trkpt><trkpt lat="42.8296434" lon="10.418368"><ele>237.0</ele><time>2026-04-19T13:06:07.308Z</time></trkpt><trkpt lat="42.8295299" lon="10.4183191"><ele>237.0</ele><time>2026-04-19T13:06:08.313Z</time></trkpt><trkpt lat="42.8294104" lon="10.4182686"><ele>237.0</ele><time>2026-04-19T13:06:09.307Z</time></trkpt><trkpt lat="42.829277" lon="10.4182131"><ele>237.0</ele><time>2026-04-19T13:06:10.307Z</time></trkpt><trkpt lat="42.8291506" lon="10.4181328"><ele>235.33333333333331</ele><time>2026-04-19T13:06:11.31Z</time></trkpt><trkpt lat="42.8290254" lon="10.4180238"><ele>233.66666666666666</ele><time>2026-04-19T13:06:12.3Z</time></trkpt><trkpt lat="42.8289025" lon="10.4178938"><ele>232.0</ele><time>2026-04-19T13:06:13.326Z</time></trkpt><trkpt lat="42.8287936" lon="10.4177601"><ele>230.5</ele><time>2026-04-19T13:06:14.317Z</time></trkpt><trkpt lat="42.8286943" lon="10.4176536"><ele>229.0</ele><time>2026-04-19T13:06:15.317Z</time></trkpt><trkpt lat="42.8285908" lon="10.4175367"><ele>227.5</ele><time>2026-04-19T13:06:16.313Z</time></trkpt><trkpt lat="42.8284991" lon="10.4173801"><ele>226.0</ele><time>2026-04-19T13:06:17.323Z</time></trkpt><trkpt lat="42.8284233" lon="10.4172081"><ele>228.5</ele><time>2026-04-19T13:06:18.329Z</time></trkpt><trkpt lat="42.8283447" lon="10.4170486"><ele>231.0</ele><time>2026-04-19T13:06:19.328Z</time></trkpt><trkpt lat="42.8282746" lon="10.4168893"><ele>233.5</ele><time>2026-04-19T13:06:20.32Z</time></trkpt><trkpt lat="42.8282095" lon="10.4167288"><ele>236.0</ele><time>2026-04-19T13:06:21.326Z</time></trkpt><trkpt lat="42.8281439" lon="10.4165891"><ele>236.0</ele><time>2026-04-19T13:06:22.322Z</time></trkpt><trkpt lat="42.828077" lon="10.4164458"><ele>236.0</ele><time>2026-04-19T13:06:23.322Z</time></trkpt><trkpt lat="42.82802" lon="10.416292"><ele>236.0</ele><time>2026-04-19T13:06:24.324Z</time></trkpt><trkpt lat="42.8279647" lon="10.4161329"><ele>236.0</ele><time>2026-04-19T13:06:25.324Z</time></trkpt><trkpt lat="42.8279036" lon="10.4159762"><ele>238.75</ele><time>2026-04-19T13:06:26.325Z</time></trkpt><trkpt lat="42.8278442" lon="10.4158157"><ele>241.5</ele><time>2026-04-19T13:06:27.32Z</time></trkpt><trkpt lat="42.827783" lon="10.415656"><ele>244.25</ele><time>2026-04-19T13:06:28.324Z</time></trkpt><trkpt lat="42.827723" lon="10.4155111"><ele>247.0</ele><time>2026-04-19T13:06:29.324Z</time></trkpt><trkpt lat="42.8276703" lon="10.4153755"><ele>244.8</ele><time>2026-04-19T13:06:30.323Z</time></trkpt><trkpt lat="42.8276181" lon="10.4152477"><ele>242.6</ele><time>2026-04-19T13:06:31.318Z</time></trkpt><trkpt lat="42.8275544" lon="10.4151371"><ele>240.40000000000003</ele><time>2026-04-19T13:06:32.322Z</time></trkpt><trkpt lat="42.8274826" lon="10.415071"><ele>238.20000000000002</ele><time>2026-04-19T13:06:33.319Z</time></trkpt><trkpt lat="42.8273971" lon="10.4150721"><ele>236.0</ele><time>2026-04-19T13:06:34.328Z</time></trkpt><trkpt lat="42.827299" lon="10.4151158"><ele>236.0</ele><time>2026-04-19T13:06:35.318Z</time></trkpt><trkpt lat="42.8271826" lon="10.4151657"><ele>236.0</ele><time>2026-04-19T13:06:36.317Z</time></trkpt><trkpt lat="42.8270589" lon="10.415204"><ele>236.0</ele><time>2026-04-19T13:06:37.321Z</time></trkpt><trkpt lat="42.8269376" lon="10.4152186"><ele>236.0</ele><time>2026-04-19T13:06:38.315Z</time></trkpt><trkpt lat="42.8268123" lon="10.415181"><ele>232.75</ele><time>2026-04-19T13:06:39.324Z</time></trkpt><trkpt lat="42.8266953" lon="10.4151143"><ele>229.5</ele><time>2026-04-19T13:06:40.322Z</time></trkpt><trkpt lat="42.8265875" lon="10.4150318"><ele>226.25</ele><time>2026-04-19T13:06:41.326Z</time></trkpt><trkpt lat="42.8264918" lon="10.4149299"><ele>223.0</ele><time>2026-04-19T13:06:42.332Z</time></trkpt><trkpt lat="42.826418" lon="10.4147973"><ele>224.5</ele><time>2026-04-19T13:06:43.334Z</time></trkpt><trkpt lat="42.8263673" lon="10.4146278"><ele>226.0</ele><time>2026-04-19T13:06:44.33Z</time></trkpt><trkpt lat="42.8263191" lon="10.4144395"><ele>227.5</ele><time>2026-04-19T13:06:45.329Z</time></trkpt><trkpt lat="42.8262673" lon="10.4142623"><ele>229.0</ele><time>2026-04-19T13:06:46.328Z</time></trkpt><trkpt lat="42.8262187" lon="10.4140988"><ele>229.0</ele><time>2026-04-19T13:06:47.324Z</time></trkpt><trkpt lat="42.826178" lon="10.4139466"><ele>229.0</ele><time>2026-04-19T13:06:48.33Z</time></trkpt><trkpt lat="42.8261567" lon="10.4137883"><ele>229.0</ele><time>2026-04-19T13:06:49.32Z</time></trkpt><trkpt lat="42.8261531" lon="10.4136293"><ele>229.0</ele><time>2026-04-19T13:06:50.331Z</time></trkpt><trkpt lat="42.8261571" lon="10.4134745"><ele>228.75</ele><time>2026-04-19T13:06:51.329Z</time></trkpt><trkpt lat="42.826164" lon="10.4133178"><ele>228.5</ele><time>2026-04-19T13:06:52.333Z</time></trkpt><trkpt lat="42.826175" lon="10.4131535"><ele>228.25</ele><time>2026-04-19T13:06:53.33Z</time></trkpt><trkpt lat="42.826187" lon="10.4129754"><ele>228.0</ele><time>2026-04-19T13:06:54.325Z</time></trkpt><trkpt lat="42.8262097" lon="10.4127919"><ele>227.5</ele><time>2026-04-19T13:06:55.321Z</time></trkpt><trkpt lat="42.8262393" lon="10.4126204"><ele>227.0</ele><time>2026-04-19T13:06:56.321Z</time></trkpt><trkpt lat="42.8262785" lon="10.4124621"><ele>226.5</ele><time>2026-04-19T13:06:57.322Z</time></trkpt><trkpt lat="42.8263053" lon="10.4123061"><ele>226.0</ele><time>2026-04-19T13:06:58.321Z</time></trkpt><trkpt lat="42.82631" lon="10.4121492"><ele>226.0</ele><time>2026-04-19T13:06:59.317Z</time></trkpt><trkpt lat="42.8262894" lon="10.4119951"><ele>226.0</ele><time>2026-04-19T13:07:00.327Z</time></trkpt><trkpt lat="42.8262262" lon="10.4118487"><ele>226.0</ele><time>2026-04-19T13:07:01.331Z</time></trkpt><trkpt lat="42.8261236" lon="10.4116914"><ele>226.0</ele><time>2026-04-19T13:07:02.323Z</time></trkpt><trkpt lat="42.8260019" lon="10.4115229"><ele>219.66666666666666</ele><time>2026-04-19T13:07:03.328Z</time></trkpt><trkpt lat="42.8258974" lon="10.411353"><ele>213.33333333333331</ele><time>2026-04-19T13:07:04.329Z</time></trkpt><trkpt lat="42.8257919" lon="10.4111956"><ele>207.0</ele><time>2026-04-19T13:07:05.329Z</time></trkpt><trkpt lat="42.8256942" lon="10.411053"><ele>207.0</ele><time>2026-04-19T13:07:06.329Z</time></trkpt><trkpt lat="42.8256026" lon="10.4109074"><ele>207.0</ele><time>2026-04-19T13:07:07.332Z</time></trkpt><trkpt lat="42.8255038" lon="10.41076"><ele>207.0</ele><time>2026-04-19T13:07:08.332Z</time></trkpt><trkpt lat="42.8253971" lon="10.4106282"><ele>207.0</ele><time>2026-04-19T13:07:09.335Z</time></trkpt><trkpt lat="42.825293" lon="10.4105115"><ele>205.5</ele><time>2026-04-19T13:07:10.329Z</time></trkpt><trkpt lat="42.8251823" lon="10.4104065"><ele>204.0</ele><time>2026-04-19T13:07:11.327Z</time></trkpt><trkpt lat="42.8250811" lon="10.410303"><ele>202.5</ele><time>2026-04-19T13:07:12.326Z</time></trkpt><trkpt lat="42.8249912" lon="10.4102046"><ele>201.0</ele><time>2026-04-19T13:07:13.317Z</time></trkpt><trkpt lat="42.8249152" lon="10.4100953"><ele>201.0</ele><time>2026-04-19T13:07:14.32Z</time></trkpt><trkpt lat="42.8248732" lon="10.4099695"><ele>201.0</ele><time>2026-04-19T13:07:15.32Z</time></trkpt><trkpt lat="42.8248527" lon="10.4098175"><ele>201.0</ele><time>2026-04-19T13:07:16.318Z</time></trkpt><trkpt lat="42.824837" lon="10.4096761"><ele>201.0</ele><time>2026-04-19T13:07:17.32Z</time></trkpt><trkpt lat="42.8248388" lon="10.4095353"><ele>201.0</ele><time>2026-04-19T13:07:18.317Z</time></trkpt><trkpt lat="42.8248451" lon="10.4094104"><ele>201.20000000000002</ele><time>2026-04-19T13:07:19.326Z</time></trkpt><trkpt lat="42.8248601" lon="10.4092863"><ele>201.4</ele><time>2026-04-19T13:07:20.319Z</time></trkpt><trkpt lat="42.8248783" lon="10.4091567"><ele>201.6</ele><time>2026-04-19T13:07:21.323Z</time></trkpt><trkpt lat="42.8249025" lon="10.4090236"><ele>201.8</ele><time>2026-04-19T13:07:22.319Z</time></trkpt><trkpt lat="42.8249305" lon="10.4088908"><ele>202.0</ele><time>2026-04-19T13:07:23.329Z</time></trkpt><trkpt lat="42.8249621" lon="10.4087685"><ele>200.99999999999997</ele><time>2026-04-19T13:07:24.312Z</time></trkpt><trkpt lat="42.8249978" lon="10.408663"><ele>200.0</ele><time>2026-04-19T13:07:25.319Z</time></trkpt><trkpt lat="42.8250366" lon="10.4085584"><ele>199.0</ele><time>2026-04-19T13:07:26.321Z</time></trkpt><trkpt lat="42.8250725" lon="10.4084477"><ele>198.0</ele><time>2026-04-19T13:07:27.317Z</time></trkpt><trkpt lat="42.8250924" lon="10.4083272"><ele>196.99999999999997</ele><time>2026-04-19T13:07:28.316Z</time></trkpt><trkpt lat="42.8250941" lon="10.4082005"><ele>196.0</ele><time>2026-04-19T13:07:29.321Z</time></trkpt><trkpt lat="42.8250667" lon="10.4080571"><ele>197.5</ele><time>2026-04-19T13:07:30.316Z</time></trkpt><trkpt lat="42.8250244" lon="10.4078884"><ele>199.0</ele><time>2026-04-19T13:07:31.316Z</time></trkpt><trkpt lat="42.8249792" lon="10.407696"><ele>200.5</ele><time>2026-04-19T13:07:32.319Z</time></trkpt><trkpt lat="42.8249298" lon="10.407503"><ele>202.0</ele><time>2026-04-19T13:07:33.319Z</time></trkpt><trkpt lat="42.8248628" lon="10.4073055"><ele>204.66666666666666</ele><time>2026-04-19T13:07:34.316Z</time></trkpt><trkpt lat="42.8247804" lon="10.407109"><ele>207.33333333333331</ele><time>2026-04-19T13:07:35.323Z</time></trkpt><trkpt lat="42.8247012" lon="10.4069107"><ele>210.0</ele><time>2026-04-19T13:07:36.323Z</time></trkpt><trkpt lat="42.8246267" lon="10.4067192"><ele>210.0</ele><time>2026-04-19T13:07:37.324Z</time></trkpt><trkpt lat="42.8245578" lon="10.4065353"><ele>210.0</ele><time>2026-04-19T13:07:38.321Z</time></trkpt><trkpt lat="42.8244816" lon="10.4063864"><ele>210.0</ele><time>2026-04-19T13:07:39.324Z</time></trkpt><trkpt lat="42.8244026" lon="10.4062756"><ele>210.0</ele><time>2026-04-19T13:07:40.319Z</time></trkpt><trkpt lat="42.8243366" lon="10.4062132"><ele>209.6</ele><time>2026-04-19T13:07:41.325Z</time></trkpt><trkpt lat="42.8242463" lon="10.4061936"><ele>209.2</ele><time>2026-04-19T13:07:42.321Z</time></trkpt><trkpt lat="42.8241381" lon="10.4062028"><ele>208.8</ele><time>2026-04-19T13:07:43.317Z</time></trkpt><trkpt lat="42.8240248" lon="10.4062491"><ele>208.4</ele><time>2026-04-19T13:07:44.312Z</time></trkpt><trkpt lat="42.8239017" lon="10.4062887"><ele>208.0</ele><time>2026-04-19T13:07:45.309Z</time></trkpt><trkpt lat="42.8237804" lon="10.4063172"><ele>208.0</ele><time>2026-04-19T13:07:46.312Z</time></trkpt><trkpt lat="42.8236646" lon="10.4063214"><ele>208.0</ele><time>2026-04-19T13:07:47.322Z</time></trkpt><trkpt lat="42.8235692" lon="10.4062856"><ele>208.0</ele><time>2026-04-19T13:07:48.322Z</time></trkpt><trkpt lat="42.8235078" lon="10.4061946"><ele>208.0</ele><time>2026-04-19T13:07:49.317Z</time></trkpt><trkpt lat="42.8234591" lon="10.4060571"><ele>208.0</ele><time>2026-04-19T13:07:50.32Z</time></trkpt><trkpt lat="42.8234075" lon="10.4058969"><ele>209.60000000000002</ele><time>2026-04-19T13:07:51.319Z</time></trkpt><trkpt lat="42.8233508" lon="10.405727"><ele>211.20000000000002</ele><time>2026-04-19T13:07:52.324Z</time></trkpt><trkpt lat="42.8233004" lon="10.40558"><ele>212.8</ele><time>2026-04-19T13:07:53.313Z</time></trkpt><trkpt lat="42.8232364" lon="10.405464"><ele>214.4</ele><time>2026-04-19T13:07:54.314Z</time></trkpt><trkpt lat="42.8231702" lon="10.4053891"><ele>216.0</ele><time>2026-04-19T13:07:55.311Z</time></trkpt><trkpt lat="42.8231031" lon="10.4053793"><ele>216.0</ele><time>2026-04-19T13:07:56.317Z</time></trkpt><trkpt lat="42.8230313" lon="10.4054315"><ele>216.0</ele><time>2026-04-19T13:07:57.315Z</time></trkpt><trkpt lat="42.8229417" lon="10.4055319"><ele>216.0</ele><time>2026-04-19T13:07:58.321Z</time></trkpt><trkpt lat="42.8228429" lon="10.4056635"><ele>216.0</ele><time>2026-04-19T13:07:59.312Z</time></trkpt><trkpt lat="42.8227308" lon="10.4057776"><ele>209.0</ele><time>2026-04-19T13:08:00.307Z</time></trkpt><trkpt lat="42.8226036" lon="10.4058853"><ele>202.0</ele><time>2026-04-19T13:08:01.316Z</time></trkpt><trkpt lat="42.8224659" lon="10.4059876"><ele>195.0</ele><time>2026-04-19T13:08:02.311Z</time></trkpt><trkpt lat="42.822307" lon="10.4060889"><ele>195.0</ele><time>2026-04-19T13:08:03.312Z</time></trkpt><trkpt lat="42.8221516" lon="10.4061671"><ele>195.0</ele><time>2026-04-19T13:08:04.317Z</time></trkpt><trkpt lat="42.8220127" lon="10.4062322"><ele>195.0</ele><time>2026-04-19T13:08:05.312Z</time></trkpt><trkpt lat="42.8218848" lon="10.4062811"><ele>195.0</ele><time>2026-04-19T13:08:06.31Z</time></trkpt><trkpt lat="42.8217723" lon="10.4063091"><ele>195.0</ele><time>2026-04-19T13:08:07.314Z</time></trkpt><trkpt lat="42.8216745" lon="10.4062913"><ele>195.0</ele><time>2026-04-19T13:08:08.32Z</time></trkpt><trkpt lat="42.8215725" lon="10.406233"><ele>195.0</ele><time>2026-04-19T13:08:09.329Z</time></trkpt><trkpt lat="42.8214814" lon="10.4061221"><ele>195.0</ele><time>2026-04-19T13:08:10.326Z</time></trkpt><trkpt lat="42.8213858" lon="10.4059942"><ele>195.0</ele><time>2026-04-19T13:08:11.323Z</time></trkpt><trkpt lat="42.8212792" lon="10.4058485"><ele>195.0</ele><time>2026-04-19T13:08:12.327Z</time></trkpt><trkpt lat="42.8211732" lon="10.4057085"><ele>195.0</ele><time>2026-04-19T13:08:13.332Z</time></trkpt><trkpt lat="42.8210771" lon="10.4055577"><ele>195.0</ele><time>2026-04-19T13:08:14.33Z</time></trkpt><trkpt lat="42.8209983" lon="10.4053821"><ele>191.33333333333334</ele><time>2026-04-19T13:08:15.324Z</time></trkpt><trkpt lat="42.8209311" lon="10.4051925"><ele>187.66666666666669</ele><time>2026-04-19T13:08:16.32Z</time></trkpt><trkpt lat="42.8208765" lon="10.4049916"><ele>184.0</ele><time>2026-04-19T13:08:17.327Z</time></trkpt><trkpt lat="42.8208377" lon="10.4047931"><ele>183.5</ele><time>2026-04-19T13:08:18.319Z</time></trkpt><trkpt lat="42.8208114" lon="10.404616"><ele>183.0</ele><time>2026-04-19T13:08:19.323Z</time></trkpt><trkpt lat="42.820803" lon="10.4044553"><ele>182.5</ele><time>2026-04-19T13:08:20.324Z</time></trkpt><trkpt lat="42.8208298" lon="10.4043032"><ele>182.0</ele><time>2026-04-19T13:08:21.321Z</time></trkpt><trkpt lat="42.8208741" lon="10.4041807"><ele>182.0</ele><time>2026-04-19T13:08:22.321Z</time></trkpt><trkpt lat="42.8209509" lon="10.404095"><ele>182.0</ele><time>2026-04-19T13:08:23.324Z</time></trkpt><trkpt lat="42.8210292" lon="10.4040224"><ele>182.0</ele><time>2026-04-19T13:08:24.309Z</time></trkpt><trkpt lat="42.821096" lon="10.4039236"><ele>182.0</ele><time>2026-04-19T13:08:25.32Z</time></trkpt><trkpt lat="42.821108" lon="10.4038186"><ele>182.0</ele><time>2026-04-19T13:08:26.306Z</time></trkpt><trkpt lat="42.8210918" lon="10.4036957"><ele>184.0</ele><time>2026-04-19T13:08:27.307Z</time></trkpt><trkpt lat="42.8210475" lon="10.4035769"><ele>186.0</ele><time>2026-04-19T13:08:28.305Z</time></trkpt><trkpt lat="42.820992" lon="10.4034536"><ele>188.0</ele><time>2026-04-19T13:08:29.307Z</time></trkpt><trkpt lat="42.8209161" lon="10.4033392"><ele>190.0</ele><time>2026-04-19T13:08:30.311Z</time></trkpt><trkpt lat="42.8208232" lon="10.4032491"><ele>192.0</ele><time>2026-04-19T13:08:31.312Z</time></trkpt><trkpt lat="42.8207061" lon="10.4031852"><ele>192.0</ele><time>2026-04-19T13:08:32.316Z</time></trkpt><trkpt lat="42.8205598" lon="10.4031439"><ele>192.0</ele><time>2026-04-19T13:08:33.309Z</time></trkpt><trkpt lat="42.8204037" lon="10.4031067"><ele>192.0</ele><time>2026-04-19T13:08:34.312Z</time></trkpt><trkpt lat="42.8202373" lon="10.4031039"><ele>187.0</ele><time>2026-04-19T13:08:35.316Z</time></trkpt><trkpt lat="42.8200573" lon="10.40312"><ele>182.0</ele><time>2026-04-19T13:08:36.316Z</time></trkpt><trkpt lat="42.8198625" lon="10.4031182"><ele>177.0</ele><time>2026-04-19T13:08:37.315Z</time></trkpt><trkpt lat="42.8196881" lon="10.403096"><ele>177.0</ele><time>2026-04-19T13:08:38.317Z</time></trkpt><trkpt lat="42.8195293" lon="10.4030635"><ele>177.0</ele><time>2026-04-19T13:08:39.316Z</time></trkpt><trkpt lat="42.8193885" lon="10.4030191"><ele>177.0</ele><time>2026-04-19T13:08:40.315Z</time></trkpt><trkpt lat="42.8192508" lon="10.4029622"><ele>177.0</ele><time>2026-04-19T13:08:41.317Z</time></trkpt><trkpt lat="42.8191218" lon="10.4028848"><ele>180.75</ele><time>2026-04-19T13:08:42.323Z</time></trkpt><trkpt lat="42.8190097" lon="10.4027964"><ele>184.5</ele><time>2026-04-19T13:08:43.316Z</time></trkpt><trkpt lat="42.8189049" lon="10.4027107"><ele>188.25</ele><time>2026-04-19T13:08:44.321Z</time></trkpt><trkpt lat="42.8188097" lon="10.4026125"><ele>192.0</ele><time>2026-04-19T13:08:45.325Z</time></trkpt><trkpt lat="42.8187176" lon="10.4024962"><ele>192.0</ele><time>2026-04-19T13:08:46.32Z</time></trkpt><trkpt lat="42.8186353" lon="10.4023472"><ele>192.0</ele><time>2026-04-19T13:08:47.32Z</time></trkpt><trkpt lat="42.8185852" lon="10.4021833"><ele>192.0</ele><time>2026-04-19T13:08:48.32Z</time></trkpt><trkpt lat="42.818538" lon="10.4020361"><ele>192.0</ele><time>2026-04-19T13:08:49.321Z</time></trkpt><trkpt lat="42.8184828" lon="10.4019"><ele>191.0</ele><time>2026-04-19T13:08:50.322Z</time></trkpt><trkpt lat="42.8184232" lon="10.4017716"><ele>190.0</ele><time>2026-04-19T13:08:51.309Z</time></trkpt><trkpt lat="42.8183522" lon="10.4016678"><ele>189.0</ele><time>2026-04-19T13:08:52.315Z</time></trkpt><trkpt lat="42.8182751" lon="10.4016245"><ele>188.0</ele><time>2026-04-19T13:08:53.316Z</time></trkpt><trkpt lat="42.8181937" lon="10.401633"><ele>187.0</ele><time>2026-04-19T13:08:54.322Z</time></trkpt><trkpt lat="42.8181083" lon="10.4016934"><ele>187.0</ele><time>2026-04-19T13:08:55.313Z</time></trkpt><trkpt lat="42.8180259" lon="10.4017972"><ele>187.0</ele><time>2026-04-19T13:08:56.312Z</time></trkpt><trkpt lat="42.817938" lon="10.4019134"><ele>187.0</ele><time>2026-04-19T13:08:57.314Z</time></trkpt><trkpt lat="42.8178411" lon="10.402034"><ele>187.0</ele><time>2026-04-19T13:08:58.318Z</time></trkpt><trkpt lat="42.817732" lon="10.402157"><ele>182.5</ele><time>2026-04-19T13:08:59.312Z</time></trkpt><trkpt lat="42.8176171" lon="10.402262"><ele>178.0</ele><time>2026-04-19T13:09:00.312Z</time></trkpt><trkpt lat="42.8174959" lon="10.4023626"><ele>173.5</ele><time>2026-04-19T13:09:01.312Z</time></trkpt><trkpt lat="42.8173789" lon="10.4024467"><ele>169.0</ele><time>2026-04-19T13:09:02.317Z</time></trkpt><trkpt lat="42.8172666" lon="10.4025207"><ele>169.0</ele><time>2026-04-19T13:09:03.317Z</time></trkpt><trkpt lat="42.8171672" lon="10.4025823"><ele>169.0</ele><time>2026-04-19T13:09:04.317Z</time></trkpt><trkpt lat="42.8170874" lon="10.402634"><ele>169.0</ele><time>2026-04-19T13:09:05.318Z</time></trkpt><trkpt lat="42.8170267" lon="10.402668"><ele>169.0</ele><time>2026-04-19T13:09:06.321Z</time></trkpt><trkpt lat="42.816933" lon="10.4027003"><ele>169.0</ele><time>2026-04-19T13:09:08.332Z</time></trkpt><trkpt lat="42.8168731" lon="10.4026318"><ele>169.0</ele><time>2026-04-19T13:09:11.331Z</time></trkpt><trkpt lat="42.8168446" lon="10.4025165"><ele>168.83333333333334</ele><time>2026-04-19T13:09:13.324Z</time></trkpt><trkpt lat="42.8168075" lon="10.4024304"><ele>168.66666666666669</ele><time>2026-04-19T13:09:14.325Z</time></trkpt><trkpt lat="42.816752" lon="10.4023445"><ele>168.5</ele><time>2026-04-19T13:09:15.326Z</time></trkpt><trkpt lat="42.8166819" lon="10.4022641"><ele>168.33333333333334</ele><time>2026-04-19T13:09:16.327Z</time></trkpt><trkpt lat="42.8165989" lon="10.4021922"><ele>168.16666666666666</ele><time>2026-04-19T13:09:17.328Z</time></trkpt><trkpt lat="42.816513" lon="10.4021329"><ele>168.0</ele><time>2026-04-19T13:09:18.326Z</time></trkpt><trkpt lat="42.8164232" lon="10.402082"><ele>170.8</ele><time>2026-04-19T13:09:19.332Z</time></trkpt><trkpt lat="42.8163311" lon="10.4020319"><ele>173.60000000000002</ele><time>2026-04-19T13:09:20.325Z</time></trkpt><trkpt lat="42.8162346" lon="10.4019705"><ele>176.39999999999998</ele><time>2026-04-19T13:09:21.324Z</time></trkpt><trkpt lat="42.8161428" lon="10.4018833"><ele>179.2</ele><time>2026-04-19T13:09:22.324Z</time></trkpt><trkpt lat="42.8160608" lon="10.401769"><ele>182.0</ele><time>2026-04-19T13:09:23.325Z</time></trkpt><trkpt lat="42.8159786" lon="10.4016346"><ele>178.5</ele><time>2026-04-19T13:09:24.323Z</time></trkpt><trkpt lat="42.8159017" lon="10.4014955"><ele>175.0</ele><time>2026-04-19T13:09:25.326Z</time></trkpt><trkpt lat="42.8158257" lon="10.4013558"><ele>171.5</ele><time>2026-04-19T13:09:26.325Z</time></trkpt><trkpt lat="42.8157662" lon="10.4012212"><ele>168.0</ele><time>2026-04-19T13:09:27.323Z</time></trkpt><trkpt lat="42.8157136" lon="10.4011003"><ele>168.0</ele><time>2026-04-19T13:09:28.327Z</time></trkpt><trkpt lat="42.8156543" lon="10.4009963"><ele>168.0</ele><time>2026-04-19T13:09:29.319Z</time></trkpt><trkpt lat="42.8155788" lon="10.4009169"><ele>168.0</ele><time>2026-04-19T13:09:30.328Z</time></trkpt><trkpt lat="42.8154914" lon="10.40089"><ele>168.0</ele><time>2026-04-19T13:09:31.312Z</time></trkpt><trkpt lat="42.8153972" lon="10.4008925"><ele>168.0</ele><time>2026-04-19T13:09:32.313Z</time></trkpt><trkpt lat="42.8153018" lon="10.4009081"><ele>168.0</ele><time>2026-04-19T13:09:33.312Z</time></trkpt><trkpt lat="42.8152022" lon="10.4009215"><ele>168.0</ele><time>2026-04-19T13:09:34.316Z</time></trkpt><trkpt lat="42.8151058" lon="10.4009451"><ele>168.0</ele><time>2026-04-19T13:09:35.316Z</time></trkpt><trkpt lat="42.8150099" lon="10.4009898"><ele>168.0</ele><time>2026-04-19T13:09:36.318Z</time></trkpt><trkpt lat="42.8149286" lon="10.4010764"><ele>168.0</ele><time>2026-04-19T13:09:37.313Z</time></trkpt><trkpt lat="42.81488" lon="10.4012109"><ele>161.75</ele><time>2026-04-19T13:09:38.318Z</time></trkpt><trkpt lat="42.8148568" lon="10.4013764"><ele>155.5</ele><time>2026-04-19T13:09:39.314Z</time></trkpt><trkpt lat="42.8148322" lon="10.4015514"><ele>149.25</ele><time>2026-04-19T13:09:40.314Z</time></trkpt><trkpt lat="42.8147989" lon="10.4017286"><ele>143.0</ele><time>2026-04-19T13:09:41.314Z</time></trkpt><trkpt lat="42.8147705" lon="10.4019014"><ele>143.0</ele><time>2026-04-19T13:09:42.316Z</time></trkpt><trkpt lat="42.8147503" lon="10.4020746"><ele>143.0</ele><time>2026-04-19T13:09:43.316Z</time></trkpt><trkpt lat="42.8147245" lon="10.4022466"><ele>143.0</ele><time>2026-04-19T13:09:44.316Z</time></trkpt><trkpt lat="42.8146977" lon="10.4024143"><ele>143.0</ele><time>2026-04-19T13:09:45.317Z</time></trkpt><trkpt lat="42.8146696" lon="10.4025717"><ele>140.20000000000002</ele><time>2026-04-19T13:09:46.312Z</time></trkpt><trkpt lat="42.8146408" lon="10.4027178"><ele>137.4</ele><time>2026-04-19T13:09:47.314Z</time></trkpt><trkpt lat="42.8146055" lon="10.4028576"><ele>134.60000000000002</ele><time>2026-04-19T13:09:48.316Z</time></trkpt><trkpt lat="42.8145621" lon="10.4029726"><ele>131.8</ele><time>2026-04-19T13:09:49.32Z</time></trkpt><trkpt lat="42.8144906" lon="10.40307"><ele>129.0</ele><time>2026-04-19T13:09:50.325Z</time></trkpt><trkpt lat="42.8143888" lon="10.4031309"><ele>127.75</ele><time>2026-04-19T13:09:51.324Z</time></trkpt><trkpt lat="42.8142593" lon="10.403172"><ele>126.5</ele><time>2026-04-19T13:09:52.315Z</time></trkpt><trkpt lat="42.814117" lon="10.403207"><ele>125.25</ele><time>2026-04-19T13:09:53.324Z</time></trkpt><trkpt lat="42.8139687" lon="10.4032514"><ele>124.0</ele><time>2026-04-19T13:09:54.322Z</time></trkpt><trkpt lat="42.8138048" lon="10.403311"><ele>124.0</ele><time>2026-04-19T13:09:55.327Z</time></trkpt><trkpt lat="42.8136457" lon="10.4033721"><ele>124.0</ele><time>2026-04-19T13:09:56.332Z</time></trkpt><trkpt lat="42.8134997" lon="10.4034171"><ele>124.0</ele><time>2026-04-19T13:09:57.322Z</time></trkpt><trkpt lat="42.8133774" lon="10.4034377"><ele>124.0</ele><time>2026-04-19T13:09:58.329Z</time></trkpt><trkpt lat="42.8132713" lon="10.4034278"><ele>125.80000000000001</ele><time>2026-04-19T13:09:59.327Z</time></trkpt><trkpt lat="42.8131871" lon="10.4033714"><ele>127.60000000000001</ele><time>2026-04-19T13:10:00.328Z</time></trkpt><trkpt lat="42.8131267" lon="10.4032679"><ele>129.4</ele><time>2026-04-19T13:10:01.327Z</time></trkpt><trkpt lat="42.8130681" lon="10.4031404"><ele>131.20000000000002</ele><time>2026-04-19T13:10:02.328Z</time></trkpt><trkpt lat="42.8130087" lon="10.4029912"><ele>133.0</ele><time>2026-04-19T13:10:03.327Z</time></trkpt><trkpt lat="42.8129433" lon="10.402823"><ele>137.66666666666669</ele><time>2026-04-19T13:10:04.325Z</time></trkpt><trkpt lat="42.8128694" lon="10.4026472"><ele>142.33333333333334</ele><time>2026-04-19T13:10:05.329Z</time></trkpt><trkpt lat="42.8127841" lon="10.4024679"><ele>147.0</ele><time>2026-04-19T13:10:06.325Z</time></trkpt><trkpt lat="42.8126913" lon="10.4022924"><ele>144.79999999999998</ele><time>2026-04-19T13:10:07.322Z</time></trkpt><trkpt lat="42.8126068" lon="10.4021533"><ele>142.6</ele><time>2026-04-19T13:10:08.322Z</time></trkpt><trkpt lat="42.8125471" lon="10.4020291"><ele>140.39999999999998</ele><time>2026-04-19T13:10:09.324Z</time></trkpt><trkpt lat="42.8125141" lon="10.4019125"><ele>138.2</ele><time>2026-04-19T13:10:10.317Z</time></trkpt><trkpt lat="42.8125226" lon="10.4018039"><ele>136.0</ele><time>2026-04-19T13:10:11.313Z</time></trkpt><trkpt lat="42.8125624" lon="10.4017061"><ele>136.0</ele><time>2026-04-19T13:10:12.314Z</time></trkpt><trkpt lat="42.8126256" lon="10.4016105"><ele>136.0</ele><time>2026-04-19T13:10:13.305Z</time></trkpt><trkpt lat="42.8126964" lon="10.4015012"><ele>136.0</ele><time>2026-04-19T13:10:14.313Z</time></trkpt><trkpt lat="42.8127414" lon="10.4013805"><ele>136.0</ele><time>2026-04-19T13:10:15.308Z</time></trkpt><trkpt lat="42.8127622" lon="10.4012611"><ele>136.0</ele><time>2026-04-19T13:10:16.306Z</time></trkpt><trkpt lat="42.8127528" lon="10.4011518"><ele>138.0</ele><time>2026-04-19T13:10:17.313Z</time></trkpt><trkpt lat="42.8127076" lon="10.4010633"><ele>140.0</ele><time>2026-04-19T13:10:18.311Z</time></trkpt><trkpt lat="42.8126218" lon="10.4010144"><ele>142.0</ele><time>2026-04-19T13:10:19.315Z</time></trkpt><trkpt lat="42.8125017" lon="10.4009992"><ele>144.0</ele><time>2026-04-19T13:10:20.317Z</time></trkpt><trkpt lat="42.8123722" lon="10.4010236"><ele>146.0</ele><time>2026-04-19T13:10:21.315Z</time></trkpt><trkpt lat="42.812241" lon="10.4010803"><ele>146.0</ele><time>2026-04-19T13:10:22.326Z</time></trkpt><trkpt lat="42.8121087" lon="10.4011882"><ele>146.0</ele><time>2026-04-19T13:10:23.324Z</time></trkpt><trkpt lat="42.8119807" lon="10.4013294"><ele>146.0</ele><time>2026-04-19T13:10:24.313Z</time></trkpt><trkpt lat="42.8118431" lon="10.4014716"><ele>143.33333333333331</ele><time>2026-04-19T13:10:25.321Z</time></trkpt><trkpt lat="42.8116969" lon="10.401586"><ele>140.66666666666666</ele><time>2026-04-19T13:10:26.316Z</time></trkpt><trkpt lat="42.8115494" lon="10.4016861"><ele>138.0</ele><time>2026-04-19T13:10:27.329Z</time></trkpt><trkpt lat="42.8114146" lon="10.4017877"><ele>138.0</ele><time>2026-04-19T13:10:28.32Z</time></trkpt><trkpt lat="42.8112967" lon="10.4018747"><ele>138.0</ele><time>2026-04-19T13:10:29.322Z</time></trkpt><trkpt lat="42.8112041" lon="10.4019326"><ele>138.0</ele><time>2026-04-19T13:10:30.323Z</time></trkpt><trkpt lat="42.8111441" lon="10.4019696"><ele>138.0</ele><time>2026-04-19T13:10:31.314Z</time></trkpt><trkpt lat="42.8110665" lon="10.4020268"><ele>138.0</ele><time>2026-04-19T13:10:33.317Z</time></trkpt><trkpt lat="42.8109775" lon="10.4020682"><ele>137.66666666666666</ele><time>2026-04-19T13:10:36.326Z</time></trkpt><trkpt lat="42.8109357" lon="10.4021444"><ele>137.33333333333334</ele><time>2026-04-19T13:10:37.325Z</time></trkpt><trkpt lat="42.8109063" lon="10.4022274"><ele>137.0</ele><time>2026-04-19T13:10:38.328Z</time></trkpt><trkpt lat="42.8108822" lon="10.4023315"><ele>136.66666666666669</ele><time>2026-04-19T13:10:39.316Z</time></trkpt><trkpt lat="42.8108545" lon="10.4024489"><ele>136.33333333333334</ele><time>2026-04-19T13:10:40.334Z</time></trkpt><trkpt lat="42.8108275" lon="10.4025793"><ele>136.0</ele><time>2026-04-19T13:10:41.325Z</time></trkpt><trkpt lat="42.8107842" lon="10.4026934"><ele>136.0</ele><time>2026-04-19T13:10:42.323Z</time></trkpt><trkpt lat="42.8107217" lon="10.4027888"><ele>136.0</ele><time>2026-04-19T13:10:43.328Z</time></trkpt><trkpt lat="42.8106422" lon="10.4028397"><ele>136.0</ele><time>2026-04-19T13:10:44.32Z</time></trkpt><trkpt lat="42.8105542" lon="10.4028704"><ele>136.0</ele><time>2026-04-19T13:10:45.318Z</time></trkpt><trkpt lat="42.8104665" lon="10.402876"><ele>136.0</ele><time>2026-04-19T13:10:46.316Z</time></trkpt><trkpt lat="42.810371" lon="10.4028824"><ele>136.0</ele><time>2026-04-19T13:10:47.324Z</time></trkpt><trkpt lat="42.8102857" lon="10.4028921"><ele>136.0</ele><time>2026-04-19T13:10:48.323Z</time></trkpt><trkpt lat="42.8102098" lon="10.4029019"><ele>136.0</ele><time>2026-04-19T13:10:49.324Z</time></trkpt><trkpt lat="42.8101443" lon="10.4029083"><ele>136.0</ele><time>2026-04-19T13:10:50.327Z</time></trkpt><trkpt lat="42.8100164" lon="10.4029441"><ele>136.0</ele><time>2026-04-19T13:10:52.321Z</time></trkpt><trkpt lat="42.8099452" lon="10.402974"><ele>136.0</ele><time>2026-04-19T13:10:53.326Z</time></trkpt><trkpt lat="42.8098727" lon="10.4029968"><ele>134.6</ele><time>2026-04-19T13:10:54.323Z</time></trkpt><trkpt lat="42.8097952" lon="10.4030113"><ele>133.2</ele><time>2026-04-19T13:10:55.321Z</time></trkpt><trkpt lat="42.8097131" lon="10.4030204"><ele>131.8</ele><time>2026-04-19T13:10:56.33Z</time></trkpt><trkpt lat="42.8096196" lon="10.4030563"><ele>130.4</ele><time>2026-04-19T13:10:57.325Z</time></trkpt><trkpt lat="42.8095205" lon="10.4031214"><ele>129.0</ele><time>2026-04-19T13:10:58.334Z</time></trkpt><trkpt lat="42.8094215" lon="10.4032116"><ele>129.0</ele><time>2026-04-19T13:10:59.32Z</time></trkpt><trkpt lat="42.8093268" lon="10.4033177"><ele>129.0</ele><time>2026-04-19T13:11:00.327Z</time></trkpt><trkpt lat="42.8092411" lon="10.4034489"><ele>129.0</ele><time>2026-04-19T13:11:01.317Z</time></trkpt><trkpt lat="42.809155" lon="10.4035683"><ele>129.0</ele><time>2026-04-19T13:11:02.307Z</time></trkpt><trkpt lat="42.80906" lon="10.4036719"><ele>128.0</ele><time>2026-04-19T13:11:03.315Z</time></trkpt><trkpt lat="42.8089642" lon="10.4037685"><ele>127.0</ele><time>2026-04-19T13:11:04.316Z</time></trkpt><trkpt lat="42.8088707" lon="10.4038677"><ele>126.0</ele><time>2026-04-19T13:11:05.31Z</time></trkpt><trkpt lat="42.8087812" lon="10.4039804"><ele>125.0</ele><time>2026-04-19T13:11:06.316Z</time></trkpt><trkpt lat="42.8086964" lon="10.4040965"><ele>125.0</ele><time>2026-04-19T13:11:07.312Z</time></trkpt><trkpt lat="42.808606" lon="10.4042179"><ele>125.0</ele><time>2026-04-19T13:11:08.308Z</time></trkpt><trkpt lat="42.8085107" lon="10.4043316"><ele>125.0</ele><time>2026-04-19T13:11:09.311Z</time></trkpt><trkpt lat="42.8084125" lon="10.4044389"><ele>125.0</ele><time>2026-04-19T13:11:10.308Z</time></trkpt><trkpt lat="42.8083167" lon="10.4045431"><ele>121.5</ele><time>2026-04-19T13:11:11.304Z</time></trkpt><trkpt lat="42.8082235" lon="10.4046488"><ele>118.0</ele><time>2026-04-19T13:11:12.31Z</time></trkpt><trkpt lat="42.8081335" lon="10.4047571"><ele>114.5</ele><time>2026-04-19T13:11:13.309Z</time></trkpt><trkpt lat="42.8080428" lon="10.4048779"><ele>111.0</ele><time>2026-04-19T13:11:14.315Z</time></trkpt><trkpt lat="42.8079541" lon="10.4050109"><ele>111.0</ele><time>2026-04-19T13:11:15.313Z</time></trkpt><trkpt lat="42.8078688" lon="10.4051486"><ele>111.0</ele><time>2026-04-19T13:11:16.312Z</time></trkpt><trkpt lat="42.8077822" lon="10.4052827"><ele>111.0</ele><time>2026-04-19T13:11:17.307Z</time></trkpt><trkpt lat="42.8077005" lon="10.4054173"><ele>111.0</ele><time>2026-04-19T13:11:18.314Z</time></trkpt><trkpt lat="42.8076292" lon="10.4055654"><ele>106.0</ele><time>2026-04-19T13:11:19.314Z</time></trkpt><trkpt lat="42.8075731" lon="10.4057285"><ele>101.0</ele><time>2026-04-19T13:11:20.316Z</time></trkpt><trkpt lat="42.8075374" lon="10.4059114"><ele>96.0</ele><time>2026-04-19T13:11:21.313Z</time></trkpt><trkpt lat="42.8075121" lon="10.4060947"><ele>91.0</ele><time>2026-04-19T13:11:22.313Z</time></trkpt><trkpt lat="42.8075096" lon="10.4062751"><ele>90.5</ele><time>2026-04-19T13:11:23.32Z</time></trkpt><trkpt lat="42.8075132" lon="10.4064571"><ele>90.0</ele><time>2026-04-19T13:11:24.318Z</time></trkpt><trkpt lat="42.8074958" lon="10.4066299"><ele>89.5</ele><time>2026-04-19T13:11:25.309Z</time></trkpt><trkpt lat="42.807464" lon="10.4067927"><ele>89.0</ele><time>2026-04-19T13:11:26.316Z</time></trkpt><trkpt lat="42.8074173" lon="10.4069477"><ele>89.0</ele><time>2026-04-19T13:11:27.313Z</time></trkpt><trkpt lat="42.8073662" lon="10.4071003"><ele>89.0</ele><time>2026-04-19T13:11:28.316Z</time></trkpt><trkpt lat="42.8073097" lon="10.4072479"><ele>89.0</ele><time>2026-04-19T13:11:29.328Z</time></trkpt><trkpt lat="42.8072479" lon="10.407396"><ele>89.0</ele><time>2026-04-19T13:11:30.315Z</time></trkpt><trkpt lat="42.8071895" lon="10.4075461"><ele>88.25</ele><time>2026-04-19T13:11:31.317Z</time></trkpt><trkpt lat="42.8071468" lon="10.4077098"><ele>87.5</ele><time>2026-04-19T13:11:32.311Z</time></trkpt><trkpt lat="42.8071196" lon="10.4078941"><ele>86.75</ele><time>2026-04-19T13:11:33.311Z</time></trkpt><trkpt lat="42.8071089" lon="10.4080812"><ele>86.0</ele><time>2026-04-19T13:11:34.319Z</time></trkpt><trkpt lat="42.8071052" lon="10.4082567"><ele>84.25</ele><time>2026-04-19T13:11:35.324Z</time></trkpt><trkpt lat="42.8071025" lon="10.4084206"><ele>82.5</ele><time>2026-04-19T13:11:36.322Z</time></trkpt><trkpt lat="42.8070942" lon="10.4085859"><ele>80.75</ele><time>2026-04-19T13:11:37.324Z</time></trkpt><trkpt lat="42.8070817" lon="10.4087532"><ele>79.0</ele><time>2026-04-19T13:11:38.319Z</time></trkpt><trkpt lat="42.8070633" lon="10.408917"><ele>77.4</ele><time>2026-04-19T13:11:39.314Z</time></trkpt><trkpt lat="42.8070366" lon="10.4090714"><ele>75.80000000000001</ele><time>2026-04-19T13:11:40.317Z</time></trkpt><trkpt lat="42.8069998" lon="10.4092146"><ele>74.19999999999999</ele><time>2026-04-19T13:11:41.321Z</time></trkpt><trkpt lat="42.806954" lon="10.4093476"><ele>72.6</ele><time>2026-04-19T13:11:42.323Z</time></trkpt><trkpt lat="42.8069114" lon="10.4094742"><ele>71.0</ele><time>2026-04-19T13:11:43.324Z</time></trkpt><trkpt lat="42.806875" lon="10.4095861"><ele>71.2</ele><time>2026-04-19T13:11:44.322Z</time></trkpt><trkpt lat="42.806844" lon="10.4096935"><ele>71.39999999999999</ele><time>2026-04-19T13:11:45.32Z</time></trkpt><trkpt lat="42.806803" lon="10.4098001"><ele>71.6</ele><time>2026-04-19T13:11:46.321Z</time></trkpt><trkpt lat="42.8067403" lon="10.4098977"><ele>71.8</ele><time>2026-04-19T13:11:47.324Z</time></trkpt><trkpt lat="42.8066633" lon="10.4099814"><ele>72.0</ele><time>2026-04-19T13:11:48.32Z</time></trkpt><trkpt lat="42.8065777" lon="10.4100607"><ele>72.0</ele><time>2026-04-19T13:11:49.327Z</time></trkpt><trkpt lat="42.8064859" lon="10.41013"><ele>72.0</ele><time>2026-04-19T13:11:50.323Z</time></trkpt><trkpt lat="42.8063838" lon="10.4101893"><ele>72.0</ele><time>2026-04-19T13:11:51.323Z</time></trkpt><trkpt lat="42.8062734" lon="10.4102391"><ele>72.0</ele><time>2026-04-19T13:11:52.327Z</time></trkpt><trkpt lat="42.8061598" lon="10.4102734"><ele>72.0</ele><time>2026-04-19T13:11:53.325Z</time></trkpt><trkpt lat="42.8060411" lon="10.410304"><ele>71.4</ele><time>2026-04-19T13:11:54.326Z</time></trkpt><trkpt lat="42.805924" lon="10.410342"><ele>70.80000000000001</ele><time>2026-04-19T13:11:55.321Z</time></trkpt><trkpt lat="42.8058125" lon="10.4103767"><ele>70.2</ele><time>2026-04-19T13:11:56.321Z</time></trkpt><trkpt lat="42.8057067" lon="10.410413"><ele>69.60000000000001</ele><time>2026-04-19T13:11:57.325Z</time></trkpt><trkpt lat="42.8056073" lon="10.4104478"><ele>69.0</ele><time>2026-04-19T13:11:58.324Z</time></trkpt><trkpt lat="42.8055118" lon="10.4104798"><ele>69.60000000000001</ele><time>2026-04-19T13:11:59.328Z</time></trkpt><trkpt lat="42.805415" lon="10.4105108"><ele>70.2</ele><time>2026-04-19T13:12:00.32Z</time></trkpt><trkpt lat="42.8053178" lon="10.4105435"><ele>70.80000000000001</ele><time>2026-04-19T13:12:01.323Z</time></trkpt><trkpt lat="42.8052178" lon="10.4105762"><ele>71.4</ele><time>2026-04-19T13:12:02.328Z</time></trkpt><trkpt lat="42.8051217" lon="10.4106068"><ele>72.0</ele><time>2026-04-19T13:12:03.321Z</time></trkpt><trkpt lat="42.8050285" lon="10.410644"><ele>72.0</ele><time>2026-04-19T13:12:04.315Z</time></trkpt><trkpt lat="42.804935" lon="10.4106734"><ele>72.0</ele><time>2026-04-19T13:12:05.317Z</time></trkpt><trkpt lat="42.804843" lon="10.4107125"><ele>72.0</ele><time>2026-04-19T13:12:06.316Z</time></trkpt><trkpt lat="42.8047585" lon="10.410763"><ele>72.0</ele><time>2026-04-19T13:12:07.316Z</time></trkpt><trkpt lat="42.8046768" lon="10.4108325"><ele>72.0</ele><time>2026-04-19T13:12:08.309Z</time></trkpt><trkpt lat="42.8045935" lon="10.4109159"><ele>72.0</ele><time>2026-04-19T13:12:09.312Z</time></trkpt><trkpt lat="42.8045193" lon="10.4110255"><ele>72.0</ele><time>2026-04-19T13:12:10.313Z</time></trkpt><trkpt lat="42.804451" lon="10.4111569"><ele>72.0</ele><time>2026-04-19T13:12:11.303Z</time></trkpt><trkpt lat="42.8043902" lon="10.4113032"><ele>72.0</ele><time>2026-04-19T13:12:12.31Z</time></trkpt><trkpt lat="42.8043315" lon="10.4114591"><ele>68.75</ele><time>2026-04-19T13:12:13.307Z</time></trkpt><trkpt lat="42.8042799" lon="10.4116175"><ele>65.5</ele><time>2026-04-19T13:12:14.313Z</time></trkpt><trkpt lat="42.8042325" lon="10.4117783"><ele>62.25</ele><time>2026-04-19T13:12:15.312Z</time></trkpt><trkpt lat="42.8041855" lon="10.4119367"><ele>59.0</ele><time>2026-04-19T13:12:16.308Z</time></trkpt><trkpt lat="42.804137" lon="10.4120968"><ele>60.75</ele><time>2026-04-19T13:12:17.314Z</time></trkpt><trkpt lat="42.8040873" lon="10.4122526"><ele>62.5</ele><time>2026-04-19T13:12:18.314Z</time></trkpt><trkpt lat="42.8040337" lon="10.4124014"><ele>64.25</ele><time>2026-04-19T13:12:19.316Z</time></trkpt><trkpt lat="42.8039721" lon="10.4125388"><ele>66.0</ele><time>2026-04-19T13:12:20.311Z</time></trkpt><trkpt lat="42.8038973" lon="10.412653"><ele>66.0</ele><time>2026-04-19T13:12:21.32Z</time></trkpt><trkpt lat="42.8038024" lon="10.4127503"><ele>66.0</ele><time>2026-04-19T13:12:22.318Z</time></trkpt><trkpt lat="42.8037034" lon="10.4128306"><ele>66.0</ele><time>2026-04-19T13:12:23.318Z</time></trkpt><trkpt lat="42.803604" lon="10.4129066"><ele>66.0</ele><time>2026-04-19T13:12:24.319Z</time></trkpt><trkpt lat="42.8035053" lon="10.4129813"><ele>64.0</ele><time>2026-04-19T13:12:25.321Z</time></trkpt><trkpt lat="42.803412" lon="10.413053"><ele>61.99999999999999</ele><time>2026-04-19T13:12:26.318Z</time></trkpt><trkpt lat="42.8033217" lon="10.4131351"><ele>59.99999999999999</ele><time>2026-04-19T13:12:27.316Z</time></trkpt><trkpt lat="42.8032386" lon="10.4132316"><ele>58.0</ele><time>2026-04-19T13:12:28.321Z</time></trkpt><trkpt lat="42.8031695" lon="10.4133436"><ele>56.0</ele><time>2026-04-19T13:12:29.313Z</time></trkpt><trkpt lat="42.8031174" lon="10.4134596"><ele>56.0</ele><time>2026-04-19T13:12:30.318Z</time></trkpt><trkpt lat="42.8030745" lon="10.4135771"><ele>55.99999999999999</ele><time>2026-04-19T13:12:31.316Z</time></trkpt><trkpt lat="42.8030263" lon="10.4137032"><ele>55.99999999999999</ele><time>2026-04-19T13:12:32.319Z</time></trkpt><trkpt lat="42.8029549" lon="10.413807"><ele>56.0</ele><time>2026-04-19T13:12:33.32Z</time></trkpt><trkpt lat="42.8028624" lon="10.4138675"><ele>56.0</ele><time>2026-04-19T13:12:34.319Z</time></trkpt><trkpt lat="42.8027513" lon="10.4138832"><ele>55.199999999999996</ele><time>2026-04-19T13:12:35.311Z</time></trkpt><trkpt lat="42.8026388" lon="10.4138906"><ele>54.39999999999999</ele><time>2026-04-19T13:12:36.313Z</time></trkpt><trkpt lat="42.8025253" lon="10.4139043"><ele>53.6</ele><time>2026-04-19T13:12:37.316Z</time></trkpt><trkpt lat="42.8024171" lon="10.4139348"><ele>52.8</ele><time>2026-04-19T13:12:38.314Z</time></trkpt><trkpt lat="42.8023161" lon="10.4139836"><ele>52.0</ele><time>2026-04-19T13:12:39.32Z</time></trkpt><trkpt lat="42.8022223" lon="10.4140471"><ele>52.0</ele><time>2026-04-19T13:12:40.317Z</time></trkpt><trkpt lat="42.8021396" lon="10.4141279"><ele>52.0</ele><time>2026-04-19T13:12:41.324Z</time></trkpt><trkpt lat="42.8020703" lon="10.4142302"><ele>52.0</ele><time>2026-04-19T13:12:42.318Z</time></trkpt><trkpt lat="42.8020013" lon="10.4143452"><ele>52.0</ele><time>2026-04-19T13:12:43.32Z</time></trkpt><trkpt lat="42.8019302" lon="10.4144723"><ele>52.0</ele><time>2026-04-19T13:12:44.32Z</time></trkpt><trkpt lat="42.8018605" lon="10.4146002"><ele>50.33333333333333</ele><time>2026-04-19T13:12:45.318Z</time></trkpt><trkpt lat="42.8017943" lon="10.4147152"><ele>48.666666666666664</ele><time>2026-04-19T13:12:46.312Z</time></trkpt><trkpt lat="42.8017328" lon="10.4148131"><ele>47.0</ele><time>2026-04-19T13:12:47.316Z</time></trkpt><trkpt lat="42.801679" lon="10.4148952"><ele>45.33333333333333</ele><time>2026-04-19T13:12:48.312Z</time></trkpt><trkpt lat="42.8016367" lon="10.4149686"><ele>43.666666666666664</ele><time>2026-04-19T13:12:49.309Z</time></trkpt><trkpt lat="42.8015817" lon="10.4150535"><ele>42.0</ele><time>2026-04-19T13:12:51.313Z</time></trkpt><trkpt lat="42.8015435" lon="10.4149576"><ele>42.0</ele><time>2026-04-19T13:12:54.308Z</time></trkpt><trkpt lat="42.8015951" lon="10.4147972"><ele>42.0</ele><time>2026-04-19T13:12:56.306Z</time></trkpt><trkpt lat="42.8016337" lon="10.4146937"><ele>42.0</ele><time>2026-04-19T13:12:57.309Z</time></trkpt><trkpt lat="42.8016897" lon="10.4145761"><ele>42.0</ele><time>2026-04-19T13:12:58.306Z</time></trkpt><trkpt lat="42.8017386" lon="10.4144647"><ele>42.0</ele><time>2026-04-19T13:12:59.31Z</time></trkpt><trkpt lat="42.8017866" lon="10.4143693"><ele>40.4</ele><time>2026-04-19T13:13:00.306Z</time></trkpt><trkpt lat="42.8018249" lon="10.4142863"><ele>38.800000000000004</ele><time>2026-04-19T13:13:01.308Z</time></trkpt><trkpt lat="42.801855" lon="10.4141302"><ele>37.2</ele><time>2026-04-19T13:13:03.302Z</time></trkpt><trkpt lat="42.8017861" lon="10.4140258"><ele>35.6</ele><time>2026-04-19T13:13:05.313Z</time></trkpt><trkpt lat="42.80171" lon="10.4140083"><ele>34.0</ele><time>2026-04-19T13:13:06.306Z</time></trkpt><trkpt lat="42.8016289" lon="10.4139862"><ele>34.0</ele><time>2026-04-19T13:13:07.31Z</time></trkpt><trkpt lat="42.8015579" lon="10.413934"><ele>34.0</ele><time>2026-04-19T13:13:08.31Z</time></trkpt><trkpt lat="42.8014932" lon="10.4138504"><ele>34.0</ele><time>2026-04-19T13:13:09.314Z</time></trkpt><trkpt lat="42.8014342" lon="10.4137748"><ele>34.0</ele><time>2026-04-19T13:13:10.311Z</time></trkpt><trkpt lat="42.8013758" lon="10.41371"><ele>34.0</ele><time>2026-04-19T13:13:11.312Z</time></trkpt><trkpt lat="42.8013182" lon="10.4136553"><ele>34.0</ele><time>2026-04-19T13:13:12.313Z</time></trkpt><trkpt lat="42.8012582" lon="10.4136075"><ele>34.16666666666667</ele><time>2026-04-19T13:13:13.313Z</time></trkpt><trkpt lat="42.8011973" lon="10.4135639"><ele>34.333333333333336</ele><time>2026-04-19T13:13:14.315Z</time></trkpt><trkpt lat="42.801132" lon="10.4135114"><ele>34.5</ele><time>2026-04-19T13:13:15.313Z</time></trkpt><trkpt lat="42.8010637" lon="10.4134501"><ele>34.666666666666664</ele><time>2026-04-19T13:13:16.315Z</time></trkpt><trkpt lat="42.8010024" lon="10.413365"><ele>34.83333333333333</ele><time>2026-04-19T13:13:17.308Z</time></trkpt><trkpt lat="42.8009516" lon="10.4132805"><ele>35.0</ele><time>2026-04-19T13:13:18.312Z</time></trkpt><trkpt lat="42.8009134" lon="10.4131904"><ele>35.142857142857146</ele><time>2026-04-19T13:13:19.314Z</time></trkpt><trkpt lat="42.8008877" lon="10.4130953"><ele>35.285714285714285</ele><time>2026-04-19T13:13:20.318Z</time></trkpt><trkpt lat="42.8008579" lon="10.4130008"><ele>35.42857142857143</ele><time>2026-04-19T13:13:21.317Z</time></trkpt><trkpt lat="42.8008244" lon="10.4129172"><ele>35.57142857142857</ele><time>2026-04-19T13:13:22.319Z</time></trkpt><trkpt lat="42.8007895" lon="10.4128354"><ele>35.714285714285715</ele><time>2026-04-19T13:13:23.308Z</time></trkpt><trkpt lat="42.8007517" lon="10.4127606"><ele>35.85714285714286</ele><time>2026-04-19T13:13:24.314Z</time></trkpt><trkpt lat="42.8007134" lon="10.4126768"><ele>36.0</ele><time>2026-04-19T13:13:25.311Z</time></trkpt><trkpt lat="42.8006675" lon="10.4126058"><ele>38.166666666666664</ele><time>2026-04-19T13:13:26.313Z</time></trkpt><trkpt lat="42.8006186" lon="10.4125347"><ele>40.33333333333333</ele><time>2026-04-19T13:13:27.312Z</time></trkpt><trkpt lat="42.800562" lon="10.4124639"><ele>42.5</ele><time>2026-04-19T13:13:28.318Z</time></trkpt><trkpt lat="42.8004968" lon="10.4123849"><ele>44.666666666666664</ele><time>2026-04-19T13:13:29.317Z</time></trkpt><trkpt lat="42.8004392" lon="10.4122983"><ele>46.83333333333333</ele><time>2026-04-19T13:13:30.317Z</time></trkpt><trkpt lat="42.8003823" lon="10.4122016"><ele>49.0</ele><time>2026-04-19T13:13:31.316Z</time></trkpt><trkpt lat="42.8003281" lon="10.4121051"><ele>48.33333333333333</ele><time>2026-04-19T13:13:32.32Z</time></trkpt><trkpt lat="42.8002751" lon="10.4120091"><ele>47.666666666666664</ele><time>2026-04-19T13:13:33.311Z</time></trkpt><trkpt lat="42.8002177" lon="10.4119142"><ele>47.0</ele><time>2026-04-19T13:13:34.314Z</time></trkpt><trkpt lat="42.8001583" lon="10.4118139"><ele>46.33333333333333</ele><time>2026-04-19T13:13:35.31Z</time></trkpt><trkpt lat="42.8001009" lon="10.411717"><ele>45.666666666666664</ele><time>2026-04-19T13:13:36.311Z</time></trkpt><trkpt lat="42.8000458" lon="10.41163"><ele>45.0</ele><time>2026-04-19T13:13:37.302Z</time></trkpt><trkpt lat="42.7999944" lon="10.4115519"><ele>45.0</ele><time>2026-04-19T13:13:38.315Z</time></trkpt><trkpt lat="42.7999531" lon="10.411482"><ele>45.0</ele><time>2026-04-19T13:13:39.317Z</time></trkpt><trkpt lat="42.7998995" lon="10.4113579"><ele>45.0</ele><time>2026-04-19T13:13:41.319Z</time></trkpt><trkpt lat="42.7998352" lon="10.411291"><ele>45.0</ele><time>2026-04-19T13:13:43.313Z</time></trkpt><trkpt lat="42.7997317" lon="10.4112877"><ele>45.0</ele><time>2026-04-19T13:13:45.318Z</time></trkpt><trkpt lat="42.7996133" lon="10.4112948"><ele>44.6</ele><time>2026-04-19T13:13:47.313Z</time></trkpt><trkpt lat="42.7995018" lon="10.4112731"><ele>44.2</ele><time>2026-04-19T13:13:49.319Z</time></trkpt><trkpt lat="42.7993989" lon="10.4112744"><ele>43.8</ele><time>2026-04-19T13:13:51.318Z</time></trkpt><trkpt lat="42.7992767" lon="10.4113101"><ele>43.4</ele><time>2026-04-19T13:13:53.32Z</time></trkpt><trkpt lat="42.7992123" lon="10.4113436"><ele>43.0</ele><time>2026-04-19T13:13:54.321Z</time></trkpt><trkpt lat="42.7991525" lon="10.4113873"><ele>42.8</ele><time>2026-04-19T13:13:55.318Z</time></trkpt><trkpt lat="42.7990441" lon="10.4114666"><ele>42.599999999999994</ele><time>2026-04-19T13:13:57.322Z</time></trkpt><trkpt lat="42.7989517" lon="10.411543"><ele>42.400000000000006</ele><time>2026-04-19T13:13:59.318Z</time></trkpt><trkpt lat="42.7988763" lon="10.411595"><ele>42.2</ele><time>2026-04-19T13:14:01.318Z</time></trkpt><trkpt lat="42.7988101" lon="10.4115738"><ele>42.0</ele><time>2026-04-19T13:14:03.32Z</time></trkpt><trkpt lat="42.7987524" lon="10.4114935"><ele>42.0</ele><time>2026-04-19T13:14:05.317Z</time></trkpt><trkpt lat="42.7986714" lon="10.4114348"><ele>42.0</ele><time>2026-04-19T13:14:07.314Z</time></trkpt><trkpt lat="42.7985949" lon="10.4113845"><ele>42.0</ele><time>2026-04-19T13:14:09.319Z</time></trkpt><trkpt lat="42.7985071" lon="10.4113719"><ele>42.0</ele><time>2026-04-19T13:14:11.316Z</time></trkpt><trkpt lat="42.7984322" lon="10.4113541"><ele>42.0</ele><time>2026-04-19T13:14:13.317Z</time></trkpt><trkpt lat="42.7983605" lon="10.4113563"><ele>42.0</ele><time>2026-04-19T13:14:15.324Z</time></trkpt><trkpt lat="42.798297" lon="10.411363"><ele>44.714285714285715</ele><time>2026-04-19T13:14:17.322Z</time></trkpt><trkpt lat="42.7982061" lon="10.4113564"><ele>47.42857142857143</ele><time>2026-04-19T13:14:20.327Z</time></trkpt><trkpt lat="42.7981341" lon="10.4113624"><ele>50.14285714285714</ele><time>2026-04-19T13:14:22.32Z</time></trkpt><trkpt lat="42.7980868" lon="10.4114204"><ele>52.857142857142854</ele><time>2026-04-19T13:14:24.317Z</time></trkpt><trkpt lat="42.798042" lon="10.4114978"><ele>55.57142857142857</ele><time>2026-04-19T13:14:26.319Z</time></trkpt><trkpt lat="42.7979799" lon="10.4115605"><ele>58.28571428571428</ele><time>2026-04-19T13:14:28.324Z</time></trkpt><trkpt lat="42.7979264" lon="10.4116062"><ele>60.99999999999999</ele><time>2026-04-19T13:14:30.321Z</time></trkpt><trkpt lat="42.7978626" lon="10.4116398"><ele>60.99999999999999</ele><time>2026-04-19T13:14:37.319Z</time></trkpt><trkpt lat="42.797799" lon="10.4116305"><ele>61.0</ele><time>2026-04-19T13:14:39.312Z</time></trkpt><trkpt lat="42.7976924" lon="10.4116106"><ele>61.0</ele><time>2026-04-19T13:14:41.318Z</time></trkpt><trkpt lat="42.7975639" lon="10.4116127"><ele>61.0</ele><time>2026-04-19T13:14:43.323Z</time></trkpt><trkpt lat="42.7974905" lon="10.4116223"><ele>60.99999999999999</ele><time>2026-04-19T13:14:44.318Z</time></trkpt><trkpt lat="42.797417" lon="10.4116235"><ele>61.0</ele><time>2026-04-19T13:14:45.317Z</time></trkpt><trkpt lat="42.7973479" lon="10.4116202"><ele>63.599999999999994</ele><time>2026-04-19T13:14:46.318Z</time></trkpt><trkpt lat="42.7972748" lon="10.4116192"><ele>66.19999999999999</ele><time>2026-04-19T13:14:47.321Z</time></trkpt><trkpt lat="42.7972031" lon="10.4116277"><ele>68.80000000000001</ele><time>2026-04-19T13:14:48.32Z</time></trkpt><trkpt lat="42.7971341" lon="10.4116318"><ele>71.4</ele><time>2026-04-19T13:14:49.318Z</time></trkpt><trkpt lat="42.7970121" lon="10.4115915"><ele>74.0</ele><time>2026-04-19T13:14:51.324Z</time></trkpt><trkpt lat="42.7968897" lon="10.4115403"><ele>77.0</ele><time>2026-04-19T13:14:53.325Z</time></trkpt><trkpt lat="42.7968264" lon="10.4115195"><ele>80.0</ele><time>2026-04-19T13:14:54.324Z</time></trkpt><trkpt lat="42.7967207" lon="10.4114815"><ele>83.0</ele><time>2026-04-19T13:14:56.322Z</time></trkpt><trkpt lat="42.7966038" lon="10.4114553"><ele>86.0</ele><time>2026-04-19T13:14:58.327Z</time></trkpt><trkpt lat="42.7964836" lon="10.4114058"><ele>89.0</ele><time>2026-04-19T13:15:00.316Z</time></trkpt><trkpt lat="42.7964141" lon="10.4113811"><ele>89.0</ele><time>2026-04-19T13:15:01.309Z</time></trkpt><trkpt lat="42.7963347" lon="10.4113526"><ele>89.0</ele><time>2026-04-19T13:15:02.315Z</time></trkpt><trkpt lat="42.7962524" lon="10.4113283"><ele>89.0</ele><time>2026-04-19T13:15:03.316Z</time></trkpt><trkpt lat="42.7961671" lon="10.4113019"><ele>89.0</ele><time>2026-04-19T13:15:04.314Z</time></trkpt><trkpt lat="42.7960795" lon="10.4112754"><ele>89.0</ele><time>2026-04-19T13:15:05.319Z</time></trkpt><trkpt lat="42.795989" lon="10.4112478"><ele>89.0</ele><time>2026-04-19T13:15:06.313Z</time></trkpt><trkpt lat="42.7958992" lon="10.4112117"><ele>89.6</ele><time>2026-04-19T13:15:07.32Z</time></trkpt><trkpt lat="42.7958081" lon="10.4111654"><ele>90.2</ele><time>2026-04-19T13:15:08.316Z</time></trkpt><trkpt lat="42.7957151" lon="10.4111213"><ele>90.8</ele><time>2026-04-19T13:15:09.323Z</time></trkpt><trkpt lat="42.7956226" lon="10.4110933"><ele>91.39999999999999</ele><time>2026-04-19T13:15:10.321Z</time></trkpt><trkpt lat="42.7955287" lon="10.411074"><ele>92.0</ele><time>2026-04-19T13:15:11.325Z</time></trkpt><trkpt lat="42.7954336" lon="10.4110649"><ele>92.0</ele><time>2026-04-19T13:15:12.325Z</time></trkpt><trkpt lat="42.7953389" lon="10.41106"><ele>92.0</ele><time>2026-04-19T13:15:13.326Z</time></trkpt><trkpt lat="42.7952433" lon="10.4110486"><ele>92.0</ele><time>2026-04-19T13:15:14.325Z</time></trkpt><trkpt lat="42.7951512" lon="10.4110348"><ele>92.0</ele><time>2026-04-19T13:15:15.322Z</time></trkpt><trkpt lat="42.7950615" lon="10.4110243"><ele>92.0</ele><time>2026-04-19T13:15:16.324Z</time></trkpt><trkpt lat="42.794975" lon="10.4110159"><ele>93.0</ele><time>2026-04-19T13:15:17.324Z</time></trkpt><trkpt lat="42.7948942" lon="10.4110048"><ele>94.0</ele><time>2026-04-19T13:15:18.323Z</time></trkpt><trkpt lat="42.7948131" lon="10.4109897"><ele>95.0</ele><time>2026-04-19T13:15:19.329Z</time></trkpt><trkpt lat="42.7947392" lon="10.4109727"><ele>96.0</ele><time>2026-04-19T13:15:20.326Z</time></trkpt><trkpt lat="42.7946659" lon="10.4109612"><ele>96.99999999999999</ele><time>2026-04-19T13:15:21.326Z</time></trkpt><trkpt lat="42.7945931" lon="10.4109509"><ele>98.0</ele><time>2026-04-19T13:15:22.324Z</time></trkpt><trkpt lat="42.7945202" lon="10.4109428"><ele>97.99999999999999</ele><time>2026-04-19T13:15:23.319Z</time></trkpt><trkpt lat="42.7944425" lon="10.4109268"><ele>98.0</ele><time>2026-04-19T13:15:24.313Z</time></trkpt><trkpt lat="42.7943641" lon="10.4109107"><ele>98.0</ele><time>2026-04-19T13:15:25.318Z</time></trkpt><trkpt lat="42.7942826" lon="10.4109005"><ele>98.0</ele><time>2026-04-19T13:15:26.321Z</time></trkpt><trkpt lat="42.7942029" lon="10.4109047"><ele>97.99999999999999</ele><time>2026-04-19T13:15:27.316Z</time></trkpt><trkpt lat="42.7941198" lon="10.4109385"><ele>98.0</ele><time>2026-04-19T13:15:28.321Z</time></trkpt><trkpt lat="42.7940369" lon="10.4109901"><ele>99.14285714285714</ele><time>2026-04-19T13:15:29.323Z</time></trkpt><trkpt lat="42.7939668" lon="10.4110501"><ele>100.28571428571428</ele><time>2026-04-19T13:15:30.322Z</time></trkpt><trkpt lat="42.7939007" lon="10.4111084"><ele>101.42857142857143</ele><time>2026-04-19T13:15:31.321Z</time></trkpt><trkpt lat="42.7938295" lon="10.4111464"><ele>102.57142857142857</ele><time>2026-04-19T13:15:32.314Z</time></trkpt><trkpt lat="42.7937618" lon="10.4111685"><ele>103.71428571428571</ele><time>2026-04-19T13:15:33.319Z</time></trkpt><trkpt lat="42.7936956" lon="10.411176"><ele>104.85714285714286</ele><time>2026-04-19T13:15:34.324Z</time></trkpt><trkpt lat="42.7936216" lon="10.4111877"><ele>106.0</ele><time>2026-04-19T13:15:35.321Z</time></trkpt><trkpt lat="42.7935442" lon="10.4112049"><ele>106.50000000000001</ele><time>2026-04-19T13:15:36.322Z</time></trkpt><trkpt lat="42.793462" lon="10.4112261"><ele>107.0</ele><time>2026-04-19T13:15:37.313Z</time></trkpt><trkpt lat="42.7933798" lon="10.4112443"><ele>107.5</ele><time>2026-04-19T13:15:38.312Z</time></trkpt><trkpt lat="42.7933012" lon="10.4112649"><ele>108.0</ele><time>2026-04-19T13:15:39.325Z</time></trkpt><trkpt lat="42.7932259" lon="10.4112908"><ele>108.50000000000001</ele><time>2026-04-19T13:15:40.312Z</time></trkpt><trkpt lat="42.7931549" lon="10.4113143"><ele>109.0</ele><time>2026-04-19T13:15:41.313Z</time></trkpt><trkpt lat="42.7930863" lon="10.4113358"><ele>109.00000000000001</ele><time>2026-04-19T13:15:42.313Z</time></trkpt><trkpt lat="42.7930227" lon="10.4113463"><ele>109.0</ele><time>2026-04-19T13:15:43.316Z</time></trkpt><trkpt lat="42.7929543" lon="10.4113503"><ele>109.0</ele><time>2026-04-19T13:15:44.31Z</time></trkpt><trkpt lat="42.7928859" lon="10.4113581"><ele>109.0</ele><time>2026-04-19T13:15:45.309Z</time></trkpt><trkpt lat="42.7928153" lon="10.411372"><ele>109.00000000000001</ele><time>2026-04-19T13:15:46.31Z</time></trkpt><trkpt lat="42.792751" lon="10.4113878"><ele>109.0</ele><time>2026-04-19T13:15:47.31Z</time></trkpt><trkpt lat="42.7926352" lon="10.4114223"><ele>111.33333333333334</ele><time>2026-04-19T13:15:49.314Z</time></trkpt><trkpt lat="42.792546" lon="10.4114571"><ele>113.66666666666667</ele><time>2026-04-19T13:15:51.313Z</time></trkpt><trkpt lat="42.7924606" lon="10.4114267"><ele>116.0</ele><time>2026-04-19T13:15:54.324Z</time></trkpt><trkpt lat="42.79236" lon="10.411426"><ele>118.33333333333334</ele><time>2026-04-19T13:15:56.32Z</time></trkpt><trkpt lat="42.7922978" lon="10.4114492"><ele>120.66666666666667</ele><time>2026-04-19T13:15:57.319Z</time></trkpt><trkpt lat="42.7922283" lon="10.4114697"><ele>123.0</ele><time>2026-04-19T13:15:58.322Z</time></trkpt><trkpt lat="42.7921536" lon="10.4114908"><ele>123.0</ele><time>2026-04-19T13:15:59.316Z</time></trkpt><trkpt lat="42.7920773" lon="10.411531"><ele>123.00000000000001</ele><time>2026-04-19T13:16:00.318Z</time></trkpt><trkpt lat="42.7920054" lon="10.411601"><ele>123.00000000000001</ele><time>2026-04-19T13:16:01.32Z</time></trkpt><trkpt lat="42.7919537" lon="10.4117017"><ele>123.0</ele><time>2026-04-19T13:16:02.321Z</time></trkpt><trkpt lat="42.7919354" lon="10.411835"><ele>123.0</ele><time>2026-04-19T13:16:03.306Z</time></trkpt><trkpt lat="42.7919517" lon="10.4119916"><ele>123.0</ele><time>2026-04-19T13:16:04.312Z</time></trkpt><trkpt lat="42.7919742" lon="10.4121454"><ele>123.00000000000001</ele><time>2026-04-19T13:16:05.316Z</time></trkpt><trkpt lat="42.7919995" lon="10.4122964"><ele>123.00000000000001</ele><time>2026-04-19T13:16:06.312Z</time></trkpt><trkpt lat="42.7920047" lon="10.4124415"><ele>123.0</ele><time>2026-04-19T13:16:07.32Z</time></trkpt><trkpt lat="42.79199" lon="10.4125645"><ele>123.0</ele><time>2026-04-19T13:16:08.322Z</time></trkpt><trkpt lat="42.7919472" lon="10.412668"><ele>124.0</ele><time>2026-04-19T13:16:09.323Z</time></trkpt><trkpt lat="42.7918803" lon="10.4127377"><ele>125.00000000000001</ele><time>2026-04-19T13:16:10.316Z</time></trkpt><trkpt lat="42.7917967" lon="10.4127649"><ele>126.00000000000001</ele><time>2026-04-19T13:16:11.313Z</time></trkpt><trkpt lat="42.7916974" lon="10.412737"><ele>127.0</ele><time>2026-04-19T13:16:12.313Z</time></trkpt><trkpt lat="42.7915904" lon="10.4126822"><ele>128.0</ele><time>2026-04-19T13:16:13.315Z</time></trkpt><trkpt lat="42.7914747" lon="10.4126321"><ele>128.0</ele><time>2026-04-19T13:16:14.318Z</time></trkpt><trkpt lat="42.7913503" lon="10.4125951"><ele>128.0</ele><time>2026-04-19T13:16:15.324Z</time></trkpt><trkpt lat="42.7912103" lon="10.4125813"><ele>128.0</ele><time>2026-04-19T13:16:16.329Z</time></trkpt><trkpt lat="42.7910789" lon="10.4126161"><ele>128.0</ele><time>2026-04-19T13:16:17.31Z</time></trkpt><trkpt lat="42.7909552" lon="10.4126947"><ele>129.5</ele><time>2026-04-19T13:16:18.314Z</time></trkpt><trkpt lat="42.7908355" lon="10.4127825"><ele>131.0</ele><time>2026-04-19T13:16:19.315Z</time></trkpt><trkpt lat="42.7907132" lon="10.4128738"><ele>132.5</ele><time>2026-04-19T13:16:20.318Z</time></trkpt><trkpt lat="42.7905977" lon="10.4129662"><ele>134.0</ele><time>2026-04-19T13:16:21.323Z</time></trkpt><trkpt lat="42.7904882" lon="10.413059"><ele>132.8</ele><time>2026-04-19T13:16:22.321Z</time></trkpt><trkpt lat="42.7903954" lon="10.4131497"><ele>131.60000000000002</ele><time>2026-04-19T13:16:23.317Z</time></trkpt><trkpt lat="42.7903115" lon="10.4132393"><ele>130.4</ele><time>2026-04-19T13:16:24.322Z</time></trkpt><trkpt lat="42.7902365" lon="10.4133277"><ele>129.20000000000002</ele><time>2026-04-19T13:16:25.326Z</time></trkpt><trkpt lat="42.790151" lon="10.4134009"><ele>128.0</ele><time>2026-04-19T13:16:26.318Z</time></trkpt><trkpt lat="42.7900545" lon="10.4134579"><ele>128.0</ele><time>2026-04-19T13:16:27.319Z</time></trkpt><trkpt lat="42.7899455" lon="10.4134724"><ele>128.0</ele><time>2026-04-19T13:16:28.32Z</time></trkpt><trkpt lat="42.7898426" lon="10.413422"><ele>128.0</ele><time>2026-04-19T13:16:29.324Z</time></trkpt><trkpt lat="42.7897517" lon="10.4133257"><ele>128.0</ele><time>2026-04-19T13:16:30.318Z</time></trkpt><trkpt lat="42.7896836" lon="10.4131832"><ele>128.0</ele><time>2026-04-19T13:16:31.327Z</time></trkpt><trkpt lat="42.7896576" lon="10.4130003"><ele>128.0</ele><time>2026-04-19T13:16:32.319Z</time></trkpt><trkpt lat="42.789659" lon="10.4127876"><ele>128.0</ele><time>2026-04-19T13:16:33.312Z</time></trkpt><trkpt lat="42.7896643" lon="10.4125662"><ele>129.66666666666666</ele><time>2026-04-19T13:16:34.32Z</time></trkpt><trkpt lat="42.7896749" lon="10.4123286"><ele>131.33333333333334</ele><time>2026-04-19T13:16:35.319Z</time></trkpt><trkpt lat="42.7896766" lon="10.4120989"><ele>133.0</ele><time>2026-04-19T13:16:36.322Z</time></trkpt><trkpt lat="42.7896916" lon="10.4118957"><ele>134.0</ele><time>2026-04-19T13:16:37.318Z</time></trkpt><trkpt lat="42.7896881" lon="10.4117076"><ele>135.0</ele><time>2026-04-19T13:16:38.321Z</time></trkpt><trkpt lat="42.7896508" lon="10.4115277"><ele>136.0</ele><time>2026-04-19T13:16:39.319Z</time></trkpt><trkpt lat="42.7895853" lon="10.4113553"><ele>137.0</ele><time>2026-04-19T13:16:40.323Z</time></trkpt><trkpt lat="42.7895098" lon="10.4111988"><ele>136.6</ele><time>2026-04-19T13:16:41.32Z</time></trkpt><trkpt lat="42.7894216" lon="10.411078"><ele>136.2</ele><time>2026-04-19T13:16:42.324Z</time></trkpt><trkpt lat="42.789331" lon="10.4109841"><ele>135.8</ele><time>2026-04-19T13:16:43.324Z</time></trkpt><trkpt lat="42.7892531" lon="10.4109184"><ele>135.4</ele><time>2026-04-19T13:16:44.322Z</time></trkpt><trkpt lat="42.7891924" lon="10.4108455"><ele>135.0</ele><time>2026-04-19T13:16:45.321Z</time></trkpt><trkpt lat="42.7891458" lon="10.4107766"><ele>135.0</ele><time>2026-04-19T13:16:46.319Z</time></trkpt><trkpt lat="42.789101" lon="10.4107142"><ele>135.0</ele><time>2026-04-19T13:16:47.32Z</time></trkpt><trkpt lat="42.7890331" lon="10.4105966"><ele>135.0</ele><time>2026-04-19T13:16:49.322Z</time></trkpt><trkpt lat="42.7889545" lon="10.410536"><ele>135.0</ele><time>2026-04-19T13:16:51.323Z</time></trkpt><trkpt lat="42.7888826" lon="10.4104867"><ele>135.0</ele><time>2026-04-19T13:16:54.322Z</time></trkpt><trkpt lat="42.7888523" lon="10.410366"><ele>135.0</ele><time>2026-04-19T13:16:56.324Z</time></trkpt><trkpt lat="42.7888444" lon="10.4102617"><ele>134.5</ele><time>2026-04-19T13:16:57.322Z</time></trkpt><trkpt lat="42.7888365" lon="10.410156"><ele>134.0</ele><time>2026-04-19T13:16:58.324Z</time></trkpt><trkpt lat="42.7888284" lon="10.4100423"><ele>133.5</ele><time>2026-04-19T13:16:59.318Z</time></trkpt><trkpt lat="42.7888146" lon="10.40993"><ele>133.0</ele><time>2026-04-19T13:17:00.314Z</time></trkpt><trkpt lat="42.7887861" lon="10.4098319"><ele>132.5</ele><time>2026-04-19T13:17:01.31Z</time></trkpt><trkpt lat="42.7887465" lon="10.409748"><ele>132.0</ele><time>2026-04-19T13:17:02.316Z</time></trkpt><trkpt lat="42.7886974" lon="10.409675"><ele>131.0</ele><time>2026-04-19T13:17:03.315Z</time></trkpt><trkpt lat="42.7886366" lon="10.4096129"><ele>130.0</ele><time>2026-04-19T13:17:04.315Z</time></trkpt><trkpt lat="42.788571" lon="10.409547"><ele>129.0</ele><time>2026-04-19T13:17:05.318Z</time></trkpt><trkpt lat="42.7885024" lon="10.4094766"><ele>128.0</ele><time>2026-04-19T13:17:06.318Z</time></trkpt><trkpt lat="42.7884361" lon="10.4094079"><ele>127.0</ele><time>2026-04-19T13:17:07.319Z</time></trkpt><trkpt lat="42.7883771" lon="10.4093419"><ele>126.0</ele><time>2026-04-19T13:17:08.318Z</time></trkpt><trkpt lat="42.788318" lon="10.4092773"><ele>124.42857142857143</ele><time>2026-04-19T13:17:09.324Z</time></trkpt><trkpt lat="42.7882512" lon="10.4092165"><ele>122.85714285714286</ele><time>2026-04-19T13:17:10.316Z</time></trkpt><trkpt lat="42.7881837" lon="10.4091663"><ele>121.28571428571428</ele><time>2026-04-19T13:17:11.322Z</time></trkpt><trkpt lat="42.7881167" lon="10.4091246"><ele>119.71428571428571</ele><time>2026-04-19T13:17:12.317Z</time></trkpt><trkpt lat="42.7880528" lon="10.4090912"><ele>118.14285714285714</ele><time>2026-04-19T13:17:13.319Z</time></trkpt><trkpt lat="42.7879894" lon="10.4090554"><ele>116.57142857142856</ele><time>2026-04-19T13:17:14.325Z</time></trkpt><trkpt lat="42.7879264" lon="10.4090277"><ele>114.99999999999999</ele><time>2026-04-19T13:17:15.324Z</time></trkpt><trkpt lat="42.7878646" lon="10.4089998"><ele>115.00000000000001</ele><time>2026-04-19T13:17:16.322Z</time></trkpt><trkpt lat="42.7878032" lon="10.4089793"><ele>115.0</ele><time>2026-04-19T13:17:17.308Z</time></trkpt><trkpt lat="42.7877398" lon="10.4089654"><ele>115.0</ele><time>2026-04-19T13:17:18.322Z</time></trkpt><trkpt lat="42.7876135" lon="10.4089687"><ele>115.0</ele><time>2026-04-19T13:17:20.308Z</time></trkpt><trkpt lat="42.787539" lon="10.4089886"><ele>115.00000000000001</ele><time>2026-04-19T13:17:21.315Z</time></trkpt><trkpt lat="42.7874628" lon="10.4090036"><ele>115.0</ele><time>2026-04-19T13:17:22.316Z</time></trkpt><trkpt lat="42.7873931" lon="10.4090187"><ele>114.14285714285712</ele><time>2026-04-19T13:17:23.315Z</time></trkpt><trkpt lat="42.787324" lon="10.4090348"><ele>113.28571428571428</ele><time>2026-04-19T13:17:24.315Z</time></trkpt><trkpt lat="42.7872616" lon="10.4090575"><ele>112.42857142857142</ele><time>2026-04-19T13:17:25.317Z</time></trkpt><trkpt lat="42.7871982" lon="10.409091"><ele>111.57142857142856</ele><time>2026-04-19T13:17:26.312Z</time></trkpt><trkpt lat="42.7871335" lon="10.4091343"><ele>110.71428571428572</ele><time>2026-04-19T13:17:27.317Z</time></trkpt><trkpt lat="42.7870673" lon="10.4091726"><ele>109.85714285714286</ele><time>2026-04-19T13:17:28.311Z</time></trkpt><trkpt lat="42.7870019" lon="10.4092097"><ele>109.0</ele><time>2026-04-19T13:17:29.311Z</time></trkpt><trkpt lat="42.7869362" lon="10.4092394"><ele>109.00000000000001</ele><time>2026-04-19T13:17:30.317Z</time></trkpt><trkpt lat="42.7868718" lon="10.4092576"><ele>109.0</ele><time>2026-04-19T13:17:31.313Z</time></trkpt><trkpt lat="42.7867639" lon="10.4092526"><ele>109.0</ele><time>2026-04-19T13:17:33.318Z</time></trkpt><trkpt lat="42.7866914" lon="10.4092989"><ele>109.0</ele><time>2026-04-19T13:17:35.317Z</time></trkpt><trkpt lat="42.7866773" lon="10.4094136"><ele>109.00000000000001</ele><time>2026-04-19T13:17:37.316Z</time></trkpt><trkpt lat="42.7866249" lon="10.4095054"><ele>109.0</ele><time>2026-04-19T13:17:39.315Z</time></trkpt><trkpt lat="42.7864983" lon="10.4095588"><ele>106.83333333333334</ele><time>2026-04-19T13:17:41.316Z</time></trkpt><trkpt lat="42.7864221" lon="10.4095727"><ele>104.66666666666667</ele><time>2026-04-19T13:17:42.314Z</time></trkpt><trkpt lat="42.7863492" lon="10.4095802"><ele>102.5</ele><time>2026-04-19T13:17:43.313Z</time></trkpt><trkpt lat="42.7862711" lon="10.4095903"><ele>100.33333333333334</ele><time>2026-04-19T13:17:44.315Z</time></trkpt><trkpt lat="42.7862035" lon="10.4096083"><ele>98.16666666666667</ele><time>2026-04-19T13:17:45.315Z</time></trkpt><trkpt lat="42.7860909" lon="10.4096503"><ele>96.0</ele><time>2026-04-19T13:17:47.317Z</time></trkpt><trkpt lat="42.7860007" lon="10.4096844"><ele>94.83333333333333</ele><time>2026-04-19T13:17:49.317Z</time></trkpt><trkpt lat="42.7859081" lon="10.4097052"><ele>93.66666666666667</ele><time>2026-04-19T13:17:51.311Z</time></trkpt><trkpt lat="42.785794" lon="10.4096801"><ele>92.5</ele><time>2026-04-19T13:17:53.312Z</time></trkpt><trkpt lat="42.7857246" lon="10.4096574"><ele>91.33333333333334</ele><time>2026-04-19T13:17:54.312Z</time></trkpt><trkpt lat="42.785653" lon="10.4096331"><ele>90.16666666666667</ele><time>2026-04-19T13:17:55.314Z</time></trkpt><trkpt lat="42.7855729" lon="10.4096013"><ele>89.0</ele><time>2026-04-19T13:17:56.309Z</time></trkpt><trkpt lat="42.785486" lon="10.4095621"><ele>88.6</ele><time>2026-04-19T13:17:57.308Z</time></trkpt><trkpt lat="42.7853978" lon="10.4095283"><ele>88.2</ele><time>2026-04-19T13:17:58.311Z</time></trkpt><trkpt lat="42.7853036" lon="10.4095093"><ele>87.8</ele><time>2026-04-19T13:17:59.312Z</time></trkpt><trkpt lat="42.7852125" lon="10.4095089"><ele>87.39999999999999</ele><time>2026-04-19T13:18:00.309Z</time></trkpt><trkpt lat="42.7851158" lon="10.4095162"><ele>87.0</ele><time>2026-04-19T13:18:01.306Z</time></trkpt><trkpt lat="42.7850239" lon="10.4095227"><ele>83.6</ele><time>2026-04-19T13:18:02.31Z</time></trkpt><trkpt lat="42.7849326" lon="10.409522"><ele>80.19999999999999</ele><time>2026-04-19T13:18:03.31Z</time></trkpt><trkpt lat="42.7848391" lon="10.4095112"><ele>76.8</ele><time>2026-04-19T13:18:04.314Z</time></trkpt><trkpt lat="42.7847476" lon="10.4094849"><ele>73.4</ele><time>2026-04-19T13:18:05.313Z</time></trkpt><trkpt lat="42.7846614" lon="10.4094528"><ele>70.0</ele><time>2026-04-19T13:18:06.313Z</time></trkpt><trkpt lat="42.7845799" lon="10.4094204"><ele>70.0</ele><time>2026-04-19T13:18:07.313Z</time></trkpt><trkpt lat="42.7844964" lon="10.4093895"><ele>70.0</ele><time>2026-04-19T13:18:08.314Z</time></trkpt><trkpt lat="42.7844222" lon="10.4093452"><ele>70.0</ele><time>2026-04-19T13:18:09.319Z</time></trkpt><trkpt lat="42.7843522" lon="10.4092869"><ele>70.0</ele><time>2026-04-19T13:18:10.314Z</time></trkpt><trkpt lat="42.7842767" lon="10.4092305"><ele>70.0</ele><time>2026-04-19T13:18:11.32Z</time></trkpt><trkpt lat="42.7841932" lon="10.4091803"><ele>70.0</ele><time>2026-04-19T13:18:12.316Z</time></trkpt><trkpt lat="42.7841115" lon="10.4091383"><ele>67.57142857142857</ele><time>2026-04-19T13:18:13.311Z</time></trkpt><trkpt lat="42.7840348" lon="10.409097"><ele>65.14285714285714</ele><time>2026-04-19T13:18:14.315Z</time></trkpt><trkpt lat="42.7839612" lon="10.4090656"><ele>62.714285714285715</ele><time>2026-04-19T13:18:15.309Z</time></trkpt><trkpt lat="42.7838916" lon="10.4090512"><ele>60.285714285714285</ele><time>2026-04-19T13:18:16.312Z</time></trkpt><trkpt lat="42.7838279" lon="10.409074"><ele>57.857142857142854</ele><time>2026-04-19T13:18:17.315Z</time></trkpt><trkpt lat="42.7837624" lon="10.4091284"><ele>55.42857142857143</ele><time>2026-04-19T13:18:18.31Z</time></trkpt><trkpt lat="42.7837004" lon="10.409178"><ele>53.0</ele><time>2026-04-19T13:18:19.318Z</time></trkpt><trkpt lat="42.7836395" lon="10.4092102"><ele>53.00000000000001</ele><time>2026-04-19T13:18:20.316Z</time></trkpt><trkpt lat="42.7835203" lon="10.4092224"><ele>53.0</ele><time>2026-04-19T13:18:22.319Z</time></trkpt><trkpt lat="42.783451" lon="10.4092285"><ele>53.0</ele><time>2026-04-19T13:18:23.316Z</time></trkpt><trkpt lat="42.7833788" lon="10.4092513"><ele>53.0</ele><time>2026-04-19T13:18:24.316Z</time></trkpt><trkpt lat="42.7833086" lon="10.4092879"><ele>53.00000000000001</ele><time>2026-04-19T13:18:25.317Z</time></trkpt><trkpt lat="42.7832356" lon="10.4093143"><ele>53.0</ele><time>2026-04-19T13:18:26.317Z</time></trkpt><trkpt lat="42.7831674" lon="10.4093244"><ele>51.50000000000001</ele><time>2026-04-19T13:18:27.315Z</time></trkpt><trkpt lat="42.783101" lon="10.4093143"><ele>50.0</ele><time>2026-04-19T13:18:28.321Z</time></trkpt><trkpt lat="42.7830332" lon="10.4092966"><ele>48.5</ele><time>2026-04-19T13:18:29.318Z</time></trkpt><trkpt lat="42.7829632" lon="10.4092811"><ele>47.0</ele><time>2026-04-19T13:18:30.32Z</time></trkpt><trkpt lat="42.7828938" lon="10.4092737"><ele>45.5</ele><time>2026-04-19T13:18:31.316Z</time></trkpt><trkpt lat="42.7827778" lon="10.409273"><ele>44.0</ele><time>2026-04-19T13:18:33.316Z</time></trkpt><trkpt lat="42.7826691" lon="10.409232"><ele>43.285714285714285</ele><time>2026-04-19T13:18:35.316Z</time></trkpt><trkpt lat="42.7826109" lon="10.4091793"><ele>42.57142857142857</ele><time>2026-04-19T13:18:36.319Z</time></trkpt><trkpt lat="42.7825433" lon="10.4091217"><ele>41.85714285714286</ele><time>2026-04-19T13:18:37.316Z</time></trkpt><trkpt lat="42.7824744" lon="10.4090827"><ele>41.14285714285714</ele><time>2026-04-19T13:18:38.316Z</time></trkpt><trkpt lat="42.7824045" lon="10.4090601"><ele>40.42857142857142</ele><time>2026-04-19T13:18:39.315Z</time></trkpt><trkpt lat="42.7823374" lon="10.4090572"><ele>39.714285714285715</ele><time>2026-04-19T13:18:40.317Z</time></trkpt><trkpt lat="42.7822736" lon="10.4090853"><ele>39.0</ele><time>2026-04-19T13:18:41.31Z</time></trkpt><trkpt lat="42.7822087" lon="10.40913"><ele>39.0</ele><time>2026-04-19T13:18:42.32Z</time></trkpt><trkpt lat="42.7821429" lon="10.4091826"><ele>39.0</ele><time>2026-04-19T13:18:43.318Z</time></trkpt><trkpt lat="42.7820719" lon="10.4092337"><ele>39.0</ele><time>2026-04-19T13:18:44.315Z</time></trkpt><trkpt lat="42.7819967" lon="10.4092843"><ele>39.0</ele><time>2026-04-19T13:18:45.315Z</time></trkpt><trkpt lat="42.7819175" lon="10.4093367"><ele>39.0</ele><time>2026-04-19T13:18:46.316Z</time></trkpt><trkpt lat="42.7818377" lon="10.4093971"><ele>39.0</ele><time>2026-04-19T13:18:47.314Z</time></trkpt><trkpt lat="42.7817512" lon="10.409464"><ele>39.5</ele><time>2026-04-19T13:18:48.314Z</time></trkpt><trkpt lat="42.7816638" lon="10.4095297"><ele>40.0</ele><time>2026-04-19T13:18:49.318Z</time></trkpt><trkpt lat="42.7815771" lon="10.4095864"><ele>40.5</ele><time>2026-04-19T13:18:50.318Z</time></trkpt><trkpt lat="42.7814939" lon="10.4096293"><ele>41.0</ele><time>2026-04-19T13:18:51.312Z</time></trkpt><trkpt lat="42.7814141" lon="10.4096656"><ele>41.5</ele><time>2026-04-19T13:18:52.317Z</time></trkpt><trkpt lat="42.7813378" lon="10.4096954"><ele>42.0</ele><time>2026-04-19T13:18:53.313Z</time></trkpt><trkpt lat="42.7812652" lon="10.4097203"><ele>40.833333333333336</ele><time>2026-04-19T13:18:54.314Z</time></trkpt><trkpt lat="42.7812" lon="10.409746"><ele>39.666666666666664</ele><time>2026-04-19T13:18:55.316Z</time></trkpt><trkpt lat="42.7811299" lon="10.4097699"><ele>38.5</ele><time>2026-04-19T13:18:56.306Z</time></trkpt><trkpt lat="42.781059" lon="10.4098008"><ele>37.33333333333333</ele><time>2026-04-19T13:18:57.314Z</time></trkpt><trkpt lat="42.7809861" lon="10.4098406"><ele>36.166666666666664</ele><time>2026-04-19T13:18:58.319Z</time></trkpt><trkpt lat="42.7809084" lon="10.4098834"><ele>35.0</ele><time>2026-04-19T13:18:59.318Z</time></trkpt><trkpt lat="42.7808286" lon="10.4099249"><ele>35.0</ele><time>2026-04-19T13:19:00.318Z</time></trkpt><trkpt lat="42.7807455" lon="10.4099678"><ele>35.0</ele><time>2026-04-19T13:19:01.318Z</time></trkpt><trkpt lat="42.7806586" lon="10.4100054"><ele>35.0</ele><time>2026-04-19T13:19:02.315Z</time></trkpt><trkpt lat="42.7805667" lon="10.4100384"><ele>35.0</ele><time>2026-04-19T13:19:03.316Z</time></trkpt><trkpt lat="42.7804811" lon="10.4100585"><ele>35.0</ele><time>2026-04-19T13:19:04.312Z</time></trkpt><trkpt lat="42.7804037" lon="10.4100801"><ele>35.0</ele><time>2026-04-19T13:19:05.316Z</time></trkpt><trkpt lat="42.780325" lon="10.4100959"><ele>35.0</ele><time>2026-04-19T13:19:06.317Z</time></trkpt><trkpt lat="42.7802518" lon="10.4101051"><ele>35.0</ele><time>2026-04-19T13:19:07.318Z</time></trkpt><trkpt lat="42.7801817" lon="10.4101008"><ele>35.0</ele><time>2026-04-19T13:19:08.309Z</time></trkpt><trkpt lat="42.7801103" lon="10.4100777"><ele>35.0</ele><time>2026-04-19T13:19:09.317Z</time></trkpt><trkpt lat="42.7800364" lon="10.4100426"><ele>35.0</ele><time>2026-04-19T13:19:10.316Z</time></trkpt><trkpt lat="42.7799586" lon="10.4100104"><ele>35.0</ele><time>2026-04-19T13:19:11.319Z</time></trkpt><trkpt lat="42.7798769" lon="10.4099817"><ele>35.166666666666664</ele><time>2026-04-19T13:19:12.319Z</time></trkpt><trkpt lat="42.7797913" lon="10.4099458"><ele>35.33333333333333</ele><time>2026-04-19T13:19:13.322Z</time></trkpt><trkpt lat="42.7797033" lon="10.4099079"><ele>35.5</ele><time>2026-04-19T13:19:14.322Z</time></trkpt><trkpt lat="42.7796195" lon="10.409875"><ele>35.666666666666664</ele><time>2026-04-19T13:19:15.314Z</time></trkpt><trkpt lat="42.7795445" lon="10.4098416"><ele>35.833333333333336</ele><time>2026-04-19T13:19:16.313Z</time></trkpt><trkpt lat="42.7794779" lon="10.4098069"><ele>36.0</ele><time>2026-04-19T13:19:17.317Z</time></trkpt><trkpt lat="42.7794113" lon="10.4097723"><ele>36.0</ele><time>2026-04-19T13:19:18.32Z</time></trkpt><trkpt lat="42.7793371" lon="10.4097462"><ele>36.0</ele><time>2026-04-19T13:19:19.32Z</time></trkpt><trkpt lat="42.7792572" lon="10.4097272"><ele>36.0</ele><time>2026-04-19T13:19:20.317Z</time></trkpt><trkpt lat="42.7791728" lon="10.4097224"><ele>36.0</ele><time>2026-04-19T13:19:21.321Z</time></trkpt><trkpt lat="42.7790813" lon="10.4097211"><ele>36.0</ele><time>2026-04-19T13:19:22.317Z</time></trkpt><trkpt lat="42.7789876" lon="10.4097199"><ele>36.0</ele><time>2026-04-19T13:19:23.315Z</time></trkpt><trkpt lat="42.7788908" lon="10.4097173"><ele>36.0</ele><time>2026-04-19T13:19:24.31Z</time></trkpt><trkpt lat="42.7787994" lon="10.4097162"><ele>36.0</ele><time>2026-04-19T13:19:25.318Z</time></trkpt><trkpt lat="42.7787103" lon="10.4097188"><ele>36.0</ele><time>2026-04-19T13:19:26.321Z</time></trkpt><trkpt lat="42.7786252" lon="10.4097193"><ele>36.0</ele><time>2026-04-19T13:19:27.318Z</time></trkpt><trkpt lat="42.7785388" lon="10.4097183"><ele>36.0</ele><time>2026-04-19T13:19:28.317Z</time></trkpt><trkpt lat="42.7784531" lon="10.4097152"><ele>36.0</ele><time>2026-04-19T13:19:29.319Z</time></trkpt><trkpt lat="42.7783673" lon="10.4097116"><ele>36.2</ele><time>2026-04-19T13:19:30.318Z</time></trkpt><trkpt lat="42.7782806" lon="10.4097056"><ele>36.400000000000006</ele><time>2026-04-19T13:19:31.318Z</time></trkpt><trkpt lat="42.7781945" lon="10.4097011"><ele>36.6</ele><time>2026-04-19T13:19:32.314Z</time></trkpt><trkpt lat="42.778113" lon="10.409688"><ele>36.800000000000004</ele><time>2026-04-19T13:19:33.315Z</time></trkpt><trkpt lat="42.7780065" lon="10.4096463"><ele>37.0</ele><time>2026-04-19T13:19:35.318Z</time></trkpt><trkpt lat="42.7779156" lon="10.4096105"><ele>39.16666666666667</ele><time>2026-04-19T13:19:37.315Z</time></trkpt><trkpt lat="42.7778507" lon="10.4096142"><ele>41.333333333333336</ele><time>2026-04-19T13:19:38.317Z</time></trkpt><trkpt lat="42.7777756" lon="10.4096271"><ele>43.5</ele><time>2026-04-19T13:19:39.319Z</time></trkpt><trkpt lat="42.7776967" lon="10.4096359"><ele>45.66666666666667</ele><time>2026-04-19T13:19:40.316Z</time></trkpt><trkpt lat="42.7776066" lon="10.4096371"><ele>47.833333333333336</ele><time>2026-04-19T13:19:41.319Z</time></trkpt><trkpt lat="42.7775096" lon="10.4096311"><ele>50.0</ele><time>2026-04-19T13:19:42.32Z</time></trkpt><trkpt lat="42.7774042" lon="10.4096138"><ele>50.25</ele><time>2026-04-19T13:19:43.318Z</time></trkpt><trkpt lat="42.7772869" lon="10.4095796"><ele>50.5</ele><time>2026-04-19T13:19:44.325Z</time></trkpt><trkpt lat="42.7771583" lon="10.4095376"><ele>50.75</ele><time>2026-04-19T13:19:45.322Z</time></trkpt><trkpt lat="42.7770264" lon="10.4094884"><ele>51.0</ele><time>2026-04-19T13:19:46.32Z</time></trkpt><trkpt lat="42.7768962" lon="10.4094442"><ele>50.0</ele><time>2026-04-19T13:19:47.323Z</time></trkpt><trkpt lat="42.7767638" lon="10.4094049"><ele>49.0</ele><time>2026-04-19T13:19:48.316Z</time></trkpt><trkpt lat="42.7766356" lon="10.4093831"><ele>48.0</ele><time>2026-04-19T13:19:49.319Z</time></trkpt><trkpt lat="42.7765024" lon="10.4093816"><ele>47.0</ele><time>2026-04-19T13:19:50.314Z</time></trkpt><trkpt lat="42.7763658" lon="10.4093973"><ele>47.0</ele><time>2026-04-19T13:19:51.321Z</time></trkpt><trkpt lat="42.7762301" lon="10.4094152"><ele>47.0</ele><time>2026-04-19T13:19:52.323Z</time></trkpt><trkpt lat="42.7760951" lon="10.4094369"><ele>47.0</ele><time>2026-04-19T13:19:53.322Z</time></trkpt><trkpt lat="42.7759569" lon="10.4094593"><ele>47.0</ele><time>2026-04-19T13:19:54.32Z</time></trkpt><trkpt lat="42.7758224" lon="10.4094828"><ele>45.0</ele><time>2026-04-19T13:19:55.316Z</time></trkpt><trkpt lat="42.7756905" lon="10.4095034"><ele>43.0</ele><time>2026-04-19T13:19:56.324Z</time></trkpt><trkpt lat="42.7755605" lon="10.4095215"><ele>41.0</ele><time>2026-04-19T13:19:57.327Z</time></trkpt><trkpt lat="42.7754397" lon="10.409537"><ele>39.0</ele><time>2026-04-19T13:19:58.326Z</time></trkpt><trkpt lat="42.7753264" lon="10.4095534"><ele>39.0</ele><time>2026-04-19T13:19:59.323Z</time></trkpt><trkpt lat="42.7752127" lon="10.4095764"><ele>39.0</ele><time>2026-04-19T13:20:00.322Z</time></trkpt><trkpt lat="42.7751015" lon="10.4095956"><ele>39.0</ele><time>2026-04-19T13:20:01.324Z</time></trkpt><trkpt lat="42.7749938" lon="10.4096141"><ele>39.0</ele><time>2026-04-19T13:20:02.322Z</time></trkpt><trkpt lat="42.7748903" lon="10.4096268"><ele>39.0</ele><time>2026-04-19T13:20:03.323Z</time></trkpt><trkpt lat="42.7747831" lon="10.4096365"><ele>37.5</ele><time>2026-04-19T13:20:04.318Z</time></trkpt><trkpt lat="42.7746678" lon="10.4096409"><ele>36.0</ele><time>2026-04-19T13:20:05.32Z</time></trkpt><trkpt lat="42.7745419" lon="10.4096319"><ele>34.5</ele><time>2026-04-19T13:20:06.32Z</time></trkpt><trkpt lat="42.7744143" lon="10.4095865"><ele>33.0</ele><time>2026-04-19T13:20:07.322Z</time></trkpt><trkpt lat="42.7742987" lon="10.4095078"><ele>30.5</ele><time>2026-04-19T13:20:08.321Z</time></trkpt><trkpt lat="42.7742082" lon="10.4094011"><ele>28.0</ele><time>2026-04-19T13:20:09.321Z</time></trkpt><trkpt lat="42.7741388" lon="10.4092561"><ele>25.5</ele><time>2026-04-19T13:20:10.318Z</time></trkpt><trkpt lat="42.7740866" lon="10.409092"><ele>23.0</ele><time>2026-04-19T13:20:11.315Z</time></trkpt><trkpt lat="42.7740553" lon="10.4089073"><ele>22.333333333333336</ele><time>2026-04-19T13:20:12.318Z</time></trkpt><trkpt lat="42.7740421" lon="10.4087102"><ele>21.666666666666668</ele><time>2026-04-19T13:20:13.32Z</time></trkpt><trkpt lat="42.7740338" lon="10.4084983"><ele>21.0</ele><time>2026-04-19T13:20:14.321Z</time></trkpt><trkpt lat="42.7740366" lon="10.4082812"><ele>21.0</ele><time>2026-04-19T13:20:15.32Z</time></trkpt><trkpt lat="42.7740416" lon="10.4080839"><ele>21.0</ele><time>2026-04-19T13:20:16.327Z</time></trkpt><trkpt lat="42.7740335" lon="10.4078977"><ele>21.0</ele><time>2026-04-19T13:20:17.323Z</time></trkpt><trkpt lat="42.7740312" lon="10.4077277"><ele>21.0</ele><time>2026-04-19T13:20:18.313Z</time></trkpt><trkpt lat="42.7740392" lon="10.4075569"><ele>21.0</ele><time>2026-04-19T13:20:19.32Z</time></trkpt><trkpt lat="42.7740573" lon="10.4073775"><ele>21.0</ele><time>2026-04-19T13:20:20.323Z</time></trkpt><trkpt lat="42.7740848" lon="10.4071938"><ele>21.0</ele><time>2026-04-19T13:20:21.317Z</time></trkpt><trkpt lat="42.7741338" lon="10.4070107"><ele>21.0</ele><time>2026-04-19T13:20:22.321Z</time></trkpt><trkpt lat="42.7742058" lon="10.4068474"><ele>20.5</ele><time>2026-04-19T13:20:23.322Z</time></trkpt><trkpt lat="42.774279" lon="10.4066922"><ele>20.0</ele><time>2026-04-19T13:20:24.32Z</time></trkpt><trkpt lat="42.77434" lon="10.406543"><ele>19.5</ele><time>2026-04-19T13:20:25.317Z</time></trkpt><trkpt lat="42.7743737" lon="10.4063781"><ele>19.0</ele><time>2026-04-19T13:20:26.322Z</time></trkpt><trkpt lat="42.774366" lon="10.4062158"><ele>17.25</ele><time>2026-04-19T13:20:27.321Z</time></trkpt><trkpt lat="42.7743187" lon="10.4060611"><ele>15.5</ele><time>2026-04-19T13:20:28.324Z</time></trkpt><trkpt lat="42.7742513" lon="10.4059082"><ele>13.75</ele><time>2026-04-19T13:20:29.324Z</time></trkpt><trkpt lat="42.7741887" lon="10.4057486"><ele>12.0</ele><time>2026-04-19T13:20:30.322Z</time></trkpt><trkpt lat="42.7741255" lon="10.4055788"><ele>12.25</ele><time>2026-04-19T13:20:31.325Z</time></trkpt><trkpt lat="42.7740584" lon="10.4054051"><ele>12.5</ele><time>2026-04-19T13:20:32.322Z</time></trkpt><trkpt lat="42.7739881" lon="10.4052235"><ele>12.75</ele><time>2026-04-19T13:20:33.327Z</time></trkpt><trkpt lat="42.7739149" lon="10.4050479"><ele>13.0</ele><time>2026-04-19T13:20:34.326Z</time></trkpt><trkpt lat="42.7738476" lon="10.4048786"><ele>13.0</ele><time>2026-04-19T13:20:35.325Z</time></trkpt><trkpt lat="42.7737807" lon="10.4047087"><ele>13.0</ele><time>2026-04-19T13:20:36.325Z</time></trkpt><trkpt lat="42.7737133" lon="10.4045383"><ele>13.0</ele><time>2026-04-19T13:20:37.326Z</time></trkpt><trkpt lat="42.7736433" lon="10.4043607"><ele>13.0</ele><time>2026-04-19T13:20:38.324Z</time></trkpt><trkpt lat="42.7735704" lon="10.4041809"><ele>11.333333333333332</ele><time>2026-04-19T13:20:39.324Z</time></trkpt><trkpt lat="42.7734971" lon="10.4039971"><ele>9.666666666666666</ele><time>2026-04-19T13:20:40.327Z</time></trkpt><trkpt lat="42.7734205" lon="10.4038073"><ele>8.0</ele><time>2026-04-19T13:20:41.325Z</time></trkpt><trkpt lat="42.7733473" lon="10.4036113"><ele>8.0</ele><time>2026-04-19T13:20:42.323Z</time></trkpt><trkpt lat="42.7732801" lon="10.403422"><ele>8.0</ele><time>2026-04-19T13:20:43.326Z</time></trkpt><trkpt lat="42.7732126" lon="10.4032376"><ele>8.0</ele><time>2026-04-19T13:20:44.329Z</time></trkpt><trkpt lat="42.7731457" lon="10.4030561"><ele>8.5</ele><time>2026-04-19T13:20:45.322Z</time></trkpt><trkpt lat="42.7730837" lon="10.4028793"><ele>9.0</ele><time>2026-04-19T13:20:46.333Z</time></trkpt><trkpt lat="42.7730213" lon="10.4027068"><ele>9.5</ele><time>2026-04-19T13:20:47.323Z</time></trkpt><trkpt lat="42.7729516" lon="10.4025351"><ele>10.0</ele><time>2026-04-19T13:20:48.322Z</time></trkpt><trkpt lat="42.7728916" lon="10.4023615"><ele>10.0</ele><time>2026-04-19T13:20:49.323Z</time></trkpt><trkpt lat="42.772833" lon="10.4021881"><ele>10.0</ele><time>2026-04-19T13:20:50.324Z</time></trkpt><trkpt lat="42.7727798" lon="10.4020226"><ele>10.0</ele><time>2026-04-19T13:20:51.328Z</time></trkpt><trkpt lat="42.7727228" lon="10.4018504"><ele>10.0</ele><time>2026-04-19T13:20:52.328Z</time></trkpt><trkpt lat="42.7726598" lon="10.4016822"><ele>11.25</ele><time>2026-04-19T13:20:53.326Z</time></trkpt><trkpt lat="42.7725883" lon="10.4015052"><ele>12.5</ele><time>2026-04-19T13:20:54.322Z</time></trkpt><trkpt lat="42.7725172" lon="10.4013336"><ele>13.75</ele><time>2026-04-19T13:20:55.326Z</time></trkpt><trkpt lat="42.7724429" lon="10.4011689"><ele>15.0</ele><time>2026-04-19T13:20:56.328Z</time></trkpt><trkpt lat="42.7723551" lon="10.4010082"><ele>15.25</ele><time>2026-04-19T13:20:57.328Z</time></trkpt><trkpt lat="42.7722668" lon="10.4008548"><ele>15.5</ele><time>2026-04-19T13:20:58.33Z</time></trkpt><trkpt lat="42.7721787" lon="10.4007113"><ele>15.75</ele><time>2026-04-19T13:20:59.329Z</time></trkpt><trkpt lat="42.7720882" lon="10.4005874"><ele>16.0</ele><time>2026-04-19T13:21:00.329Z</time></trkpt><trkpt lat="42.7719941" lon="10.400473"><ele>16.25</ele><time>2026-04-19T13:21:01.325Z</time></trkpt><trkpt lat="42.7718945" lon="10.4003657"><ele>16.5</ele><time>2026-04-19T13:21:02.321Z</time></trkpt><trkpt lat="42.7718016" lon="10.400249"><ele>16.75</ele><time>2026-04-19T13:21:03.326Z</time></trkpt><trkpt lat="42.7717041" lon="10.4001356"><ele>17.0</ele><time>2026-04-19T13:21:04.326Z</time></trkpt><trkpt lat="42.7716037" lon="10.400012"><ele>17.0</ele><time>2026-04-19T13:21:05.326Z</time></trkpt><trkpt lat="42.7714989" lon="10.3998764"><ele>17.0</ele><time>2026-04-19T13:21:06.33Z</time></trkpt><trkpt lat="42.7713946" lon="10.3997337"><ele>17.0</ele><time>2026-04-19T13:21:07.329Z</time></trkpt><trkpt lat="42.7712875" lon="10.3995913"><ele>17.0</ele><time>2026-04-19T13:21:08.33Z</time></trkpt><trkpt lat="42.7711802" lon="10.3994465"><ele>17.666666666666668</ele><time>2026-04-19T13:21:09.33Z</time></trkpt><trkpt lat="42.7710652" lon="10.3993042"><ele>18.333333333333332</ele><time>2026-04-19T13:21:10.329Z</time></trkpt><trkpt lat="42.7709509" lon="10.3991636"><ele>19.0</ele><time>2026-04-19T13:21:11.329Z</time></trkpt><trkpt lat="42.7708351" lon="10.3990228"><ele>18.0</ele><time>2026-04-19T13:21:12.329Z</time></trkpt><trkpt lat="42.7707189" lon="10.3988813"><ele>17.0</ele><time>2026-04-19T13:21:13.331Z</time></trkpt><trkpt lat="42.7706167" lon="10.398739"><ele>16.0</ele><time>2026-04-19T13:21:14.337Z</time></trkpt><trkpt lat="42.7705144" lon="10.3985922"><ele>16.0</ele><time>2026-04-19T13:21:15.331Z</time></trkpt><trkpt lat="42.7704097" lon="10.3984491"><ele>16.0</ele><time>2026-04-19T13:21:16.333Z</time></trkpt><trkpt lat="42.7703266" lon="10.3982904"><ele>16.0</ele><time>2026-04-19T13:21:17.323Z</time></trkpt><trkpt lat="42.7702646" lon="10.3981174"><ele>16.0</ele><time>2026-04-19T13:21:18.326Z</time></trkpt><trkpt lat="42.7702111" lon="10.3979306"><ele>14.5</ele><time>2026-04-19T13:21:19.312Z</time></trkpt><trkpt lat="42.7701628" lon="10.3977451"><ele>13.0</ele><time>2026-04-19T13:21:20.329Z</time></trkpt><trkpt lat="42.7701159" lon="10.3975637"><ele>11.5</ele><time>2026-04-19T13:21:21.318Z</time></trkpt><trkpt lat="42.7700752" lon="10.3973882"><ele>10.0</ele><time>2026-04-19T13:21:22.325Z</time></trkpt><trkpt lat="42.7700309" lon="10.397217"><ele>10.75</ele><time>2026-04-19T13:21:23.323Z</time></trkpt><trkpt lat="42.7699713" lon="10.3970605"><ele>11.5</ele><time>2026-04-19T13:21:24.321Z</time></trkpt><trkpt lat="42.7698898" lon="10.3969136"><ele>12.25</ele><time>2026-04-19T13:21:25.319Z</time></trkpt><trkpt lat="42.7697976" lon="10.3967786"><ele>13.0</ele><time>2026-04-19T13:21:26.314Z</time></trkpt><trkpt lat="42.7696922" lon="10.3966588"><ele>13.0</ele><time>2026-04-19T13:21:27.314Z</time></trkpt><trkpt lat="42.7695867" lon="10.3965458"><ele>13.0</ele><time>2026-04-19T13:21:28.323Z</time></trkpt><trkpt lat="42.7694731" lon="10.3964352"><ele>13.0</ele><time>2026-04-19T13:21:29.323Z</time></trkpt><trkpt lat="42.7693606" lon="10.3963263"><ele>13.0</ele><time>2026-04-19T13:21:30.326Z</time></trkpt><trkpt lat="42.7692507" lon="10.3962194"><ele>12.25</ele><time>2026-04-19T13:21:31.326Z</time></trkpt><trkpt lat="42.7691475" lon="10.3961132"><ele>11.5</ele><time>2026-04-19T13:21:32.324Z</time></trkpt><trkpt lat="42.7690442" lon="10.3960173"><ele>10.75</ele><time>2026-04-19T13:21:33.325Z</time></trkpt><trkpt lat="42.7689432" lon="10.3959193"><ele>10.0</ele><time>2026-04-19T13:21:34.324Z</time></trkpt><trkpt lat="42.7688424" lon="10.3958151"><ele>10.0</ele><time>2026-04-19T13:21:35.327Z</time></trkpt><trkpt lat="42.7687386" lon="10.3957103"><ele>10.0</ele><time>2026-04-19T13:21:36.324Z</time></trkpt><trkpt lat="42.7686361" lon="10.3955953"><ele>10.0</ele><time>2026-04-19T13:21:37.324Z</time></trkpt><trkpt lat="42.7685337" lon="10.3954827"><ele>10.0</ele><time>2026-04-19T13:21:38.325Z</time></trkpt><trkpt lat="42.7684327" lon="10.3953686"><ele>9.25</ele><time>2026-04-19T13:21:39.324Z</time></trkpt><trkpt lat="42.768334" lon="10.3952611"><ele>8.5</ele><time>2026-04-19T13:21:40.321Z</time></trkpt><trkpt lat="42.76823" lon="10.3951593"><ele>7.75</ele><time>2026-04-19T13:21:41.322Z</time></trkpt><trkpt lat="42.7681225" lon="10.3950516"><ele>7.0</ele><time>2026-04-19T13:21:42.323Z</time></trkpt><trkpt lat="42.7680145" lon="10.3949424"><ele>7.0</ele><time>2026-04-19T13:21:43.322Z</time></trkpt><trkpt lat="42.7679053" lon="10.3948351"><ele>7.0</ele><time>2026-04-19T13:21:44.326Z</time></trkpt><trkpt lat="42.7677996" lon="10.3947286"><ele>7.0</ele><time>2026-04-19T13:21:45.325Z</time></trkpt><trkpt lat="42.7676929" lon="10.3946297"><ele>7.0</ele><time>2026-04-19T13:21:46.322Z</time></trkpt><trkpt lat="42.7675861" lon="10.394556"><ele>6.6</ele><time>2026-04-19T13:21:47.33Z</time></trkpt><trkpt lat="42.767483" lon="10.394523"><ele>6.199999999999999</ele><time>2026-04-19T13:21:48.324Z</time></trkpt><trkpt lat="42.7673837" lon="10.3945422"><ele>5.8</ele><time>2026-04-19T13:21:49.324Z</time></trkpt><trkpt lat="42.7672803" lon="10.394587"><ele>5.4</ele><time>2026-04-19T13:21:50.319Z</time></trkpt><trkpt lat="42.7671741" lon="10.3946527"><ele>5.0</ele><time>2026-04-19T13:21:51.319Z</time></trkpt><trkpt lat="42.7670665" lon="10.3947152"><ele>4.75</ele><time>2026-04-19T13:21:52.32Z</time></trkpt><trkpt lat="42.7669549" lon="10.3947743"><ele>4.5</ele><time>2026-04-19T13:21:53.318Z</time></trkpt><trkpt lat="42.7668399" lon="10.3948306"><ele>4.25</ele><time>2026-04-19T13:21:54.317Z</time></trkpt><trkpt lat="42.766722" lon="10.3948872"><ele>4.0</ele><time>2026-04-19T13:21:55.317Z</time></trkpt><trkpt lat="42.7666027" lon="10.3949444"><ele>3.75</ele><time>2026-04-19T13:21:56.317Z</time></trkpt><trkpt lat="42.7664875" lon="10.3949984"><ele>3.5</ele><time>2026-04-19T13:21:57.318Z</time></trkpt><trkpt lat="42.7663703" lon="10.3950492"><ele>3.25</ele><time>2026-04-19T13:21:58.317Z</time></trkpt><trkpt lat="42.7662621" lon="10.3950967"><ele>3.0</ele><time>2026-04-19T13:21:59.319Z</time></trkpt><trkpt lat="42.7661623" lon="10.3951406"><ele>3.0</ele><time>2026-04-19T13:22:00.322Z</time></trkpt><trkpt lat="42.7660682" lon="10.3951847"><ele>3.0</ele><time>2026-04-19T13:22:01.314Z</time></trkpt><trkpt lat="42.7659694" lon="10.3952295"><ele>3.0</ele><time>2026-04-19T13:22:02.318Z</time></trkpt><trkpt lat="42.7658744" lon="10.3952682"><ele>3.0</ele><time>2026-04-19T13:22:03.313Z</time></trkpt><trkpt lat="42.7657817" lon="10.3952966"><ele>3.0</ele><time>2026-04-19T13:22:04.316Z</time></trkpt><trkpt lat="42.7657087" lon="10.3953282"><ele>3.1666666666666665</ele><time>2026-04-19T13:22:05.316Z</time></trkpt><trkpt lat="42.7656389" lon="10.3953626"><ele>3.333333333333333</ele><time>2026-04-19T13:22:06.317Z</time></trkpt><trkpt lat="42.7655702" lon="10.3953942"><ele>3.5</ele><time>2026-04-19T13:22:07.316Z</time></trkpt><trkpt lat="42.7655077" lon="10.39542"><ele>3.6666666666666665</ele><time>2026-04-19T13:22:08.319Z</time></trkpt><trkpt lat="42.7654396" lon="10.3954481"><ele>3.833333333333333</ele><time>2026-04-19T13:22:09.317Z</time></trkpt><trkpt lat="42.7653623" lon="10.3954793"><ele>4.0</ele><time>2026-04-19T13:22:10.313Z</time></trkpt><trkpt lat="42.7652795" lon="10.3955131"><ele>3.9999999999999996</ele><time>2026-04-19T13:22:11.313Z</time></trkpt><trkpt lat="42.7651996" lon="10.3955371"><ele>4.0</ele><time>2026-04-19T13:22:12.31Z</time></trkpt><trkpt lat="42.765129" lon="10.3955537"><ele>4.0</ele><time>2026-04-19T13:22:13.314Z</time></trkpt><trkpt lat="42.7650455" lon="10.3956003"><ele>4.0</ele><time>2026-04-19T13:22:15.314Z</time></trkpt><trkpt lat="42.7649731" lon="10.3956474"><ele>3.9999999999999996</ele><time>2026-04-19T13:22:17.319Z</time></trkpt><trkpt lat="42.7649075" lon="10.3957051"><ele>4.0</ele><time>2026-04-19T13:22:19.316Z</time></trkpt><trkpt lat="42.7648437" lon="10.3957133"><ele>3.6666666666666665</ele><time>2026-04-19T13:22:21.319Z</time></trkpt><trkpt lat="42.7647553" lon="10.395627"><ele>3.333333333333333</ele><time>2026-04-19T13:22:23.313Z</time></trkpt><trkpt lat="42.7647084" lon="10.3955583"><ele>3.0</ele><time>2026-04-19T13:22:24.32Z</time></trkpt><trkpt lat="42.7646542" lon="10.3954859"><ele>2.6666666666666665</ele><time>2026-04-19T13:22:25.319Z</time></trkpt><trkpt lat="42.7645903" lon="10.3954088"><ele>2.333333333333333</ele><time>2026-04-19T13:22:26.317Z</time></trkpt><trkpt lat="42.7645202" lon="10.3953342"><ele>2.0</ele><time>2026-04-19T13:22:27.313Z</time></trkpt><trkpt lat="42.764447" lon="10.3952684"><ele>3.0</ele><time>2026-04-19T13:22:28.314Z</time></trkpt><trkpt lat="42.7643743" lon="10.3952062"><ele>4.0</ele><time>2026-04-19T13:22:29.314Z</time></trkpt><trkpt lat="42.7643048" lon="10.3951394"><ele>5.0</ele><time>2026-04-19T13:22:30.306Z</time></trkpt><trkpt lat="42.7642362" lon="10.3950736"><ele>6.0</ele><time>2026-04-19T13:22:31.306Z</time></trkpt><trkpt lat="42.7641675" lon="10.3950137"><ele>6.999999999999999</ele><time>2026-04-19T13:22:32.3Z</time></trkpt><trkpt lat="42.7640979" lon="10.3949668"><ele>8.0</ele><time>2026-04-19T13:22:33.306Z</time></trkpt><trkpt lat="42.7640263" lon="10.3949403"><ele>9.0</ele><time>2026-04-19T13:22:34.307Z</time></trkpt><trkpt lat="42.7639457" lon="10.3949409"><ele>10.0</ele><time>2026-04-19T13:22:35.306Z</time></trkpt><trkpt lat="42.7638537" lon="10.3949515"><ele>11.0</ele><time>2026-04-19T13:22:36.314Z</time></trkpt><trkpt lat="42.7637559" lon="10.3949584"><ele>12.0</ele><time>2026-04-19T13:22:37.307Z</time></trkpt><trkpt lat="42.7636519" lon="10.3949448"><ele>13.0</ele><time>2026-04-19T13:22:38.314Z</time></trkpt><trkpt lat="42.7635455" lon="10.3949079"><ele>13.0</ele><time>2026-04-19T13:22:39.311Z</time></trkpt><trkpt lat="42.7634472" lon="10.3948602"><ele>13.0</ele><time>2026-04-19T13:22:40.313Z</time></trkpt><trkpt lat="42.7633507" lon="10.3948277"><ele>13.0</ele><time>2026-04-19T13:22:41.314Z</time></trkpt><trkpt lat="42.7632565" lon="10.3948076"><ele>13.0</ele><time>2026-04-19T13:22:42.313Z</time></trkpt><trkpt lat="42.7631681" lon="10.3948117"><ele>13.0</ele><time>2026-04-19T13:22:43.315Z</time></trkpt><trkpt lat="42.763077" lon="10.3948356"><ele>13.0</ele><time>2026-04-19T13:22:44.312Z</time></trkpt><trkpt lat="42.7629837" lon="10.394874"><ele>13.0</ele><time>2026-04-19T13:22:45.312Z</time></trkpt><trkpt lat="42.7628905" lon="10.3949123"><ele>13.0</ele><time>2026-04-19T13:22:46.31Z</time></trkpt><trkpt lat="42.7627979" lon="10.3949318"><ele>13.0</ele><time>2026-04-19T13:22:47.307Z</time></trkpt><trkpt lat="42.7627112" lon="10.3949138"><ele>13.0</ele><time>2026-04-19T13:22:48.301Z</time></trkpt><trkpt lat="42.7626321" lon="10.3948572"><ele>11.6</ele><time>2026-04-19T13:22:49.326Z</time></trkpt><trkpt lat="42.7625923" lon="10.3947485"><ele>10.200000000000001</ele><time>2026-04-19T13:22:50.313Z</time></trkpt><trkpt lat="42.7625944" lon="10.394645"><ele>8.8</ele><time>2026-04-19T13:22:51.321Z</time></trkpt><trkpt lat="42.7626518" lon="10.3945366"><ele>7.4</ele><time>2026-04-19T13:22:52.316Z</time></trkpt><trkpt lat="42.7627309" lon="10.3944242"><ele>6.0</ele><time>2026-04-19T13:22:53.32Z</time></trkpt><trkpt lat="42.7628071" lon="10.3943153"><ele>11.25</ele><time>2026-04-19T13:22:54.319Z</time></trkpt><trkpt lat="42.7628802" lon="10.3941973"><ele>16.5</ele><time>2026-04-19T13:22:55.321Z</time></trkpt><trkpt lat="42.7629411" lon="10.3940677"><ele>21.75</ele><time>2026-04-19T13:22:56.321Z</time></trkpt><trkpt lat="42.7629768" lon="10.3939263"><ele>27.0</ele><time>2026-04-19T13:22:57.314Z</time></trkpt><trkpt lat="42.7629931" lon="10.3937711"><ele>27.75</ele><time>2026-04-19T13:22:58.314Z</time></trkpt><trkpt lat="42.7629981" lon="10.3936133"><ele>28.5</ele><time>2026-04-19T13:22:59.316Z</time></trkpt><trkpt lat="42.7630063" lon="10.3934507"><ele>29.25</ele><time>2026-04-19T13:23:00.315Z</time></trkpt><trkpt lat="42.7630209" lon="10.3932888"><ele>30.0</ele><time>2026-04-19T13:23:01.316Z</time></trkpt><trkpt lat="42.7630484" lon="10.3931398"><ele>31.2</ele><time>2026-04-19T13:23:02.313Z</time></trkpt><trkpt lat="42.7630833" lon="10.3930058"><ele>32.4</ele><time>2026-04-19T13:23:03.313Z</time></trkpt><trkpt lat="42.763113" lon="10.3928804"><ele>33.6</ele><time>2026-04-19T13:23:04.316Z</time></trkpt><trkpt lat="42.7631306" lon="10.3927537"><ele>34.8</ele><time>2026-04-19T13:23:05.309Z</time></trkpt><trkpt lat="42.7631267" lon="10.3926377"><ele>36.0</ele><time>2026-04-19T13:23:06.313Z</time></trkpt><trkpt lat="42.7630848" lon="10.3925247"><ele>36.0</ele><time>2026-04-19T13:23:07.315Z</time></trkpt><trkpt lat="42.7630137" lon="10.3924237"><ele>36.0</ele><time>2026-04-19T13:23:08.31Z</time></trkpt><trkpt lat="42.7629369" lon="10.3923237"><ele>36.0</ele><time>2026-04-19T13:23:09.316Z</time></trkpt><trkpt lat="42.7628636" lon="10.3922179"><ele>36.0</ele><time>2026-04-19T13:23:10.317Z</time></trkpt><trkpt lat="42.762793" lon="10.3921063"><ele>36.0</ele><time>2026-04-19T13:23:11.311Z</time></trkpt><trkpt lat="42.7627286" lon="10.3919922"><ele>32.8</ele><time>2026-04-19T13:23:12.315Z</time></trkpt><trkpt lat="42.7626642" lon="10.3918716"><ele>29.6</ele><time>2026-04-19T13:23:13.315Z</time></trkpt><trkpt lat="42.7626015" lon="10.3917403"><ele>26.4</ele><time>2026-04-19T13:23:14.319Z</time></trkpt><trkpt lat="42.7625415" lon="10.3916097"><ele>23.2</ele><time>2026-04-19T13:23:15.318Z</time></trkpt><trkpt lat="42.7624861" lon="10.3914793"><ele>20.0</ele><time>2026-04-19T13:23:16.32Z</time></trkpt><trkpt lat="42.7624364" lon="10.3913595"><ele>21.0</ele><time>2026-04-19T13:23:17.317Z</time></trkpt><trkpt lat="42.7623857" lon="10.3912469"><ele>22.0</ele><time>2026-04-19T13:23:18.32Z</time></trkpt><trkpt lat="42.7623382" lon="10.3911402"><ele>23.0</ele><time>2026-04-19T13:23:19.319Z</time></trkpt><trkpt lat="42.7623054" lon="10.3910327"><ele>24.0</ele><time>2026-04-19T13:23:20.325Z</time></trkpt><trkpt lat="42.7622918" lon="10.3909109"><ele>25.0</ele><time>2026-04-19T13:23:21.32Z</time></trkpt><trkpt lat="42.7623075" lon="10.3907807"><ele>25.0</ele><time>2026-04-19T13:23:22.317Z</time></trkpt><trkpt lat="42.7623397" lon="10.3906404"><ele>25.0</ele><time>2026-04-19T13:23:23.316Z</time></trkpt><trkpt lat="42.7623518" lon="10.3905081"><ele>25.0</ele><time>2026-04-19T13:23:24.316Z</time></trkpt><trkpt lat="42.7623437" lon="10.3903838"><ele>25.0</ele><time>2026-04-19T13:23:25.318Z</time></trkpt><trkpt lat="42.7622965" lon="10.3902829"><ele>25.0</ele><time>2026-04-19T13:23:26.311Z</time></trkpt><trkpt lat="42.7622261" lon="10.3901893"><ele>26.4</ele><time>2026-04-19T13:23:27.319Z</time></trkpt><trkpt lat="42.7621486" lon="10.3901036"><ele>27.8</ele><time>2026-04-19T13:23:28.317Z</time></trkpt><trkpt lat="42.7620801" lon="10.3900139"><ele>29.200000000000003</ele><time>2026-04-19T13:23:29.315Z</time></trkpt><trkpt lat="42.7620202" lon="10.3899218"><ele>30.6</ele><time>2026-04-19T13:23:30.325Z</time></trkpt><trkpt lat="42.7619679" lon="10.3898197"><ele>32.0</ele><time>2026-04-19T13:23:31.316Z</time></trkpt><trkpt lat="42.7619306" lon="10.389716"><ele>34.0</ele><time>2026-04-19T13:23:32.317Z</time></trkpt><trkpt lat="42.7618949" lon="10.3896066"><ele>36.0</ele><time>2026-04-19T13:23:33.318Z</time></trkpt><trkpt lat="42.7618592" lon="10.3894881"><ele>38.0</ele><time>2026-04-19T13:23:34.317Z</time></trkpt><trkpt lat="42.7618125" lon="10.3893744"><ele>40.0</ele><time>2026-04-19T13:23:35.318Z</time></trkpt><trkpt lat="42.7617532" lon="10.3892721"><ele>42.0</ele><time>2026-04-19T13:23:36.318Z</time></trkpt><trkpt lat="42.7616874" lon="10.3891708"><ele>35.800000000000004</ele><time>2026-04-19T13:23:37.32Z</time></trkpt><trkpt lat="42.7616277" lon="10.3890562"><ele>29.6</ele><time>2026-04-19T13:23:38.318Z</time></trkpt><trkpt lat="42.7615764" lon="10.3889304"><ele>23.400000000000002</ele><time>2026-04-19T13:23:39.321Z</time></trkpt><trkpt lat="42.7615305" lon="10.388804"><ele>17.200000000000003</ele><time>2026-04-19T13:23:40.315Z</time></trkpt><trkpt lat="42.7614992" lon="10.3886867"><ele>11.0</ele><time>2026-04-19T13:23:41.319Z</time></trkpt><trkpt lat="42.7614789" lon="10.3885722"><ele>10.833333333333332</ele><time>2026-04-19T13:23:42.318Z</time></trkpt><trkpt lat="42.7614763" lon="10.3884604"><ele>10.666666666666666</ele><time>2026-04-19T13:23:43.316Z</time></trkpt><trkpt lat="42.7614899" lon="10.3883607"><ele>10.5</ele><time>2026-04-19T13:23:44.314Z</time></trkpt><trkpt lat="42.7615247" lon="10.3882661"><ele>10.333333333333334</ele><time>2026-04-19T13:23:45.308Z</time></trkpt><trkpt lat="42.7615733" lon="10.388166"><ele>10.166666666666668</ele><time>2026-04-19T13:23:46.318Z</time></trkpt><trkpt lat="42.7616307" lon="10.3880602"><ele>10.0</ele><time>2026-04-19T13:23:47.317Z</time></trkpt><trkpt lat="42.7616863" lon="10.3879512"><ele>9.2</ele><time>2026-04-19T13:23:48.316Z</time></trkpt><trkpt lat="42.7617449" lon="10.3878412"><ele>8.4</ele><time>2026-04-19T13:23:49.318Z</time></trkpt><trkpt lat="42.7618056" lon="10.3877206"><ele>7.6</ele><time>2026-04-19T13:23:50.31Z</time></trkpt><trkpt lat="42.7618526" lon="10.3875851"><ele>6.8</ele><time>2026-04-19T13:23:51.323Z</time></trkpt><trkpt lat="42.7618792" lon="10.3874434"><ele>6.0</ele><time>2026-04-19T13:23:52.312Z</time></trkpt><trkpt lat="42.7618938" lon="10.3872966"><ele>6.25</ele><time>2026-04-19T13:23:53.315Z</time></trkpt><trkpt lat="42.7618745" lon="10.3871519"><ele>6.5</ele><time>2026-04-19T13:23:54.318Z</time></trkpt><trkpt lat="42.7618323" lon="10.3870017"><ele>6.75</ele><time>2026-04-19T13:23:55.315Z</time></trkpt><trkpt lat="42.7617793" lon="10.3868521"><ele>7.0</ele><time>2026-04-19T13:23:56.316Z</time></trkpt><trkpt lat="42.7617202" lon="10.3867081"><ele>7.0</ele><time>2026-04-19T13:23:57.318Z</time></trkpt><trkpt lat="42.7616511" lon="10.386575"><ele>7.0</ele><time>2026-04-19T13:23:58.315Z</time></trkpt><trkpt lat="42.7615701" lon="10.3864535"><ele>7.0</ele><time>2026-04-19T13:23:59.317Z</time></trkpt><trkpt lat="42.7614801" lon="10.3863352"><ele>7.0</ele><time>2026-04-19T13:24:00.321Z</time></trkpt><trkpt lat="42.7613881" lon="10.3862143"><ele>6.5</ele><time>2026-04-19T13:24:01.32Z</time></trkpt><trkpt lat="42.7612962" lon="10.3860956"><ele>6.0</ele><time>2026-04-19T13:24:02.319Z</time></trkpt><trkpt lat="42.7612068" lon="10.3859795"><ele>5.5</ele><time>2026-04-19T13:24:03.316Z</time></trkpt><trkpt lat="42.7611176" lon="10.385865"><ele>5.0</ele><time>2026-04-19T13:24:04.32Z</time></trkpt><trkpt lat="42.7610297" lon="10.3857498"><ele>5.0</ele><time>2026-04-19T13:24:05.318Z</time></trkpt><trkpt lat="42.7609394" lon="10.3856352"><ele>5.0</ele><time>2026-04-19T13:24:06.319Z</time></trkpt><trkpt lat="42.7608508" lon="10.3855248"><ele>5.0</ele><time>2026-04-19T13:24:07.319Z</time></trkpt><trkpt lat="42.7607657" lon="10.3854135"><ele>5.0</ele><time>2026-04-19T13:24:08.318Z</time></trkpt><trkpt lat="42.7606819" lon="10.3853043"><ele>8.0</ele><time>2026-04-19T13:24:09.318Z</time></trkpt><trkpt lat="42.7606" lon="10.3851932"><ele>11.0</ele><time>2026-04-19T13:24:10.312Z</time></trkpt><trkpt lat="42.7605157" lon="10.3850793"><ele>14.0</ele><time>2026-04-19T13:24:11.317Z</time></trkpt><trkpt lat="42.7604316" lon="10.3849618"><ele>17.0</ele><time>2026-04-19T13:24:12.321Z</time></trkpt><trkpt lat="42.7603482" lon="10.3848416"><ele>17.0</ele><time>2026-04-19T13:24:13.32Z</time></trkpt><trkpt lat="42.760259" lon="10.3847166"><ele>17.0</ele><time>2026-04-19T13:24:14.319Z</time></trkpt><trkpt lat="42.7601671" lon="10.384585"><ele>17.0</ele><time>2026-04-19T13:24:15.319Z</time></trkpt><trkpt lat="42.7600684" lon="10.3844519"><ele>17.0</ele><time>2026-04-19T13:24:16.321Z</time></trkpt><trkpt lat="42.7599641" lon="10.3843146"><ele>14.0</ele><time>2026-04-19T13:24:17.324Z</time></trkpt><trkpt lat="42.7598565" lon="10.3841636"><ele>11.0</ele><time>2026-04-19T13:24:18.32Z</time></trkpt><trkpt lat="42.7597437" lon="10.3840066"><ele>8.0</ele><time>2026-04-19T13:24:19.318Z</time></trkpt><trkpt lat="42.7596378" lon="10.3838473"><ele>11.0</ele><time>2026-04-19T13:24:20.324Z</time></trkpt><trkpt lat="42.7595406" lon="10.3836757"><ele>14.0</ele><time>2026-04-19T13:24:21.319Z</time></trkpt><trkpt lat="42.7594621" lon="10.3834841"><ele>17.0</ele><time>2026-04-19T13:24:22.327Z</time></trkpt><trkpt lat="42.7594083" lon="10.3832798"><ele>17.0</ele><time>2026-04-19T13:24:23.318Z</time></trkpt><trkpt lat="42.7593684" lon="10.3830697"><ele>17.0</ele><time>2026-04-19T13:24:24.322Z</time></trkpt><trkpt lat="42.7593412" lon="10.3828819"><ele>17.0</ele><time>2026-04-19T13:24:25.322Z</time></trkpt><trkpt lat="42.7593244" lon="10.3827"><ele>17.0</ele><time>2026-04-19T13:24:26.322Z</time></trkpt><trkpt lat="42.7593136" lon="10.3825244"><ele>13.25</ele><time>2026-04-19T13:24:27.32Z</time></trkpt><trkpt lat="42.7593188" lon="10.3823455"><ele>9.5</ele><time>2026-04-19T13:24:28.324Z</time></trkpt><trkpt lat="42.759315" lon="10.3821612"><ele>5.75</ele><time>2026-04-19T13:24:29.321Z</time></trkpt><trkpt lat="42.7593058" lon="10.381973"><ele>2.0</ele><time>2026-04-19T13:24:30.32Z</time></trkpt><trkpt lat="42.7592951" lon="10.3817933"><ele>1.75</ele><time>2026-04-19T13:24:31.32Z</time></trkpt><trkpt lat="42.7592869" lon="10.3816264"><ele>1.5</ele><time>2026-04-19T13:24:32.32Z</time></trkpt><trkpt lat="42.7592793" lon="10.3814626"><ele>1.25</ele><time>2026-04-19T13:24:33.318Z</time></trkpt><trkpt lat="42.7592728" lon="10.3813066"><ele>1.0</ele><time>2026-04-19T13:24:34.319Z</time></trkpt><trkpt lat="42.7592698" lon="10.381159"><ele>0.9999999999999999</ele><time>2026-04-19T13:24:35.319Z</time></trkpt><trkpt lat="42.7592658" lon="10.381019"><ele>1.0</ele><time>2026-04-19T13:24:36.32Z</time></trkpt><trkpt lat="42.759259" lon="10.3808895"><ele>1.0</ele><time>2026-04-19T13:24:37.317Z</time></trkpt><trkpt lat="42.7592557" lon="10.380769"><ele>1.0</ele><time>2026-04-19T13:24:38.314Z</time></trkpt><trkpt lat="42.7592507" lon="10.380661"><ele>0.9999999999999999</ele><time>2026-04-19T13:24:39.324Z</time></trkpt><trkpt lat="42.7592392" lon="10.3805621"><ele>1.0</ele><time>2026-04-19T13:24:40.322Z</time></trkpt><trkpt lat="42.7592303" lon="10.3804689"><ele>1.2000000000000002</ele><time>2026-04-19T13:24:41.322Z</time></trkpt><trkpt lat="42.7592171" lon="10.3803823"><ele>1.4000000000000001</ele><time>2026-04-19T13:24:42.322Z</time></trkpt><trkpt lat="42.7592028" lon="10.3802248"><ele>1.6</ele><time>2026-04-19T13:24:44.32Z</time></trkpt><trkpt lat="42.7591951" lon="10.380075"><ele>1.8</ele><time>2026-04-19T13:24:46.321Z</time></trkpt><trkpt lat="42.759191" lon="10.3799311"><ele>2.0</ele><time>2026-04-19T13:24:48.321Z</time></trkpt><trkpt lat="42.7591867" lon="10.3798442"><ele>1.9999999999999998</ele><time>2026-04-19T13:24:50.318Z</time></trkpt><trkpt lat="42.7591742" lon="10.3797497"><ele>2.0</ele><time>2026-04-19T13:25:42.32Z</time></trkpt><trkpt lat="42.7591177" lon="10.3796672"><ele>2.0</ele><time>2026-04-19T13:25:44.324Z</time></trkpt><trkpt lat="42.7590131" lon="10.3796522"><ele>2.0</ele><time>2026-04-19T13:25:46.324Z</time></trkpt><trkpt lat="42.7589362" lon="10.3796686"><ele>1.9999999999999998</ele><time>2026-04-19T13:25:47.329Z</time></trkpt><trkpt lat="42.758845" lon="10.3796896"><ele>2.0</ele><time>2026-04-19T13:25:48.312Z</time></trkpt><trkpt lat="42.7587378" lon="10.3797121"><ele>2.0</ele><time>2026-04-19T13:25:49.327Z</time></trkpt><trkpt lat="42.7586273" lon="10.3797262"><ele>2.0</ele><time>2026-04-19T13:25:50.324Z</time></trkpt><trkpt lat="42.7585057" lon="10.3797383"><ele>2.0</ele><time>2026-04-19T13:25:51.324Z</time></trkpt><trkpt lat="42.758373" lon="10.3797453"><ele>2.0</ele><time>2026-04-19T13:25:52.323Z</time></trkpt><trkpt lat="42.7582313" lon="10.3797568"><ele>2.0</ele><time>2026-04-19T13:25:53.328Z</time></trkpt><trkpt lat="42.7580823" lon="10.3797635"><ele>2.0</ele><time>2026-04-19T13:25:54.322Z</time></trkpt><trkpt lat="42.7579354" lon="10.3797696"><ele>2.0</ele><time>2026-04-19T13:25:55.324Z</time></trkpt><trkpt lat="42.7577891" lon="10.3797869"><ele>2.0</ele><time>2026-04-19T13:25:56.325Z</time></trkpt><trkpt lat="42.7576371" lon="10.3798188"><ele>2.0</ele><time>2026-04-19T13:25:57.331Z</time></trkpt><trkpt lat="42.7575014" lon="10.3798579"><ele>2.0</ele><time>2026-04-19T13:25:58.328Z</time></trkpt><trkpt lat="42.7573911" lon="10.3798855"><ele>2.0</ele><time>2026-04-19T13:25:59.322Z</time></trkpt><trkpt lat="42.7573115" lon="10.3799145"><ele>2.0</ele><time>2026-04-19T13:26:00.323Z</time></trkpt><trkpt lat="42.7572231" lon="10.3800201"><ele>2.0</ele><time>2026-04-19T13:26:02.321Z</time></trkpt><trkpt lat="42.7572656" lon="10.3801574"><ele>2.0</ele><time>2026-04-19T13:26:04.314Z</time></trkpt><trkpt lat="42.7573037" lon="10.3802317"><ele>2.0</ele><time>2026-04-19T13:26:05.32Z</time></trkpt><trkpt lat="42.7573456" lon="10.3803327"><ele>2.0</ele><time>2026-04-19T13:26:06.312Z</time></trkpt><trkpt lat="42.7573855" lon="10.3804649"><ele>2.0</ele><time>2026-04-19T13:26:07.321Z</time></trkpt><trkpt lat="42.7574216" lon="10.3806205"><ele>3.0</ele><time>2026-04-19T13:26:08.319Z</time></trkpt><trkpt lat="42.7574475" lon="10.3807817"><ele>4.0</ele><time>2026-04-19T13:26:09.316Z</time></trkpt><trkpt lat="42.7574704" lon="10.3809561"><ele>5.0</ele><time>2026-04-19T13:26:10.316Z</time></trkpt><trkpt lat="42.757486" lon="10.3811325"><ele>6.0</ele><time>2026-04-19T13:26:11.321Z</time></trkpt><trkpt lat="42.7574956" lon="10.3813224"><ele>6.25</ele><time>2026-04-19T13:26:12.318Z</time></trkpt><trkpt lat="42.7575046" lon="10.3815126"><ele>6.5</ele><time>2026-04-19T13:26:13.32Z</time></trkpt><trkpt lat="42.7575035" lon="10.3816929"><ele>6.75</ele><time>2026-04-19T13:26:14.317Z</time></trkpt><trkpt lat="42.7574905" lon="10.3818632"><ele>7.0</ele><time>2026-04-19T13:26:15.316Z</time></trkpt><trkpt lat="42.7574742" lon="10.3820184"><ele>7.0</ele><time>2026-04-19T13:26:16.316Z</time></trkpt><trkpt lat="42.7574555" lon="10.3821624"><ele>6.999999999999999</ele><time>2026-04-19T13:26:17.315Z</time></trkpt><trkpt lat="42.7574309" lon="10.3822754"><ele>6.999999999999999</ele><time>2026-04-19T13:26:18.316Z</time></trkpt><trkpt lat="42.7573746" lon="10.3823585"><ele>7.0</ele><time>2026-04-19T13:26:19.319Z</time></trkpt><trkpt lat="42.757299" lon="10.3824156"><ele>7.0</ele><time>2026-04-19T13:26:20.321Z</time></trkpt><trkpt lat="42.7571981" lon="10.3824679"><ele>7.25</ele><time>2026-04-19T13:26:21.313Z</time></trkpt><trkpt lat="42.7570846" lon="10.3825188"><ele>7.5</ele><time>2026-04-19T13:26:22.314Z</time></trkpt><trkpt lat="42.7569571" lon="10.3825737"><ele>7.75</ele><time>2026-04-19T13:26:23.325Z</time></trkpt><trkpt lat="42.7568309" lon="10.3826356"><ele>8.0</ele><time>2026-04-19T13:26:24.329Z</time></trkpt><trkpt lat="42.7567174" lon="10.3827002"><ele>8.0</ele><time>2026-04-19T13:26:25.324Z</time></trkpt><trkpt lat="42.75661" lon="10.3827681"><ele>8.0</ele><time>2026-04-19T13:26:26.324Z</time></trkpt><trkpt lat="42.7565213" lon="10.3828463"><ele>8.0</ele><time>2026-04-19T13:26:27.33Z</time></trkpt><trkpt lat="42.756468" lon="10.3829543"><ele>8.0</ele><time>2026-04-19T13:26:28.337Z</time></trkpt><trkpt lat="42.7564563" lon="10.3830792"><ele>8.0</ele><time>2026-04-19T13:26:29.329Z</time></trkpt><trkpt lat="42.756478" lon="10.3832254"><ele>7.25</ele><time>2026-04-19T13:26:30.325Z</time></trkpt><trkpt lat="42.7565245" lon="10.3833965"><ele>6.5</ele><time>2026-04-19T13:26:31.323Z</time></trkpt><trkpt lat="42.7565774" lon="10.3835891"><ele>5.75</ele><time>2026-04-19T13:26:32.322Z</time></trkpt><trkpt lat="42.7566374" lon="10.3837918"><ele>5.0</ele><time>2026-04-19T13:26:33.319Z</time></trkpt><trkpt lat="42.7567106" lon="10.384003"><ele>4.666666666666667</ele><time>2026-04-19T13:26:34.328Z</time></trkpt><trkpt lat="42.7567836" lon="10.3842139"><ele>4.333333333333333</ele><time>2026-04-19T13:26:35.329Z</time></trkpt><trkpt lat="42.7568488" lon="10.3844055"><ele>4.0</ele><time>2026-04-19T13:26:36.334Z</time></trkpt><trkpt lat="42.7569154" lon="10.3845857"><ele>3.0</ele><time>2026-04-19T13:26:37.339Z</time></trkpt><trkpt lat="42.7569738" lon="10.3847741"><ele>2.0</ele><time>2026-04-19T13:26:38.344Z</time></trkpt><trkpt lat="42.7570169" lon="10.3849543"><ele>1.0</ele><time>2026-04-19T13:26:39.332Z</time></trkpt><trkpt lat="42.7570589" lon="10.3851284"><ele>0.0</ele><time>2026-04-19T13:26:40.333Z</time></trkpt><trkpt lat="42.7570939" lon="10.3853117"><ele>0.0</ele><time>2026-04-19T13:26:41.334Z</time></trkpt><trkpt lat="42.7571241" lon="10.3854953"><ele>0.0</ele><time>2026-04-19T13:26:42.335Z</time></trkpt><trkpt lat="42.7571562" lon="10.3856854"><ele>0.0</ele><time>2026-04-19T13:26:43.336Z</time></trkpt><trkpt lat="42.7571948" lon="10.3858768"><ele>0.0</ele><time>2026-04-19T13:26:44.336Z</time></trkpt><trkpt lat="42.7572389" lon="10.3860659"><ele>0.5</ele><time>2026-04-19T13:26:45.331Z</time></trkpt><trkpt lat="42.7572903" lon="10.3862545"><ele>1.0</ele><time>2026-04-19T13:26:46.328Z</time></trkpt><trkpt lat="42.757357" lon="10.3864319"><ele>1.5</ele><time>2026-04-19T13:26:47.325Z</time></trkpt><trkpt lat="42.757436" lon="10.3865852"><ele>2.0</ele><time>2026-04-19T13:26:48.325Z</time></trkpt><trkpt lat="42.7575106" lon="10.3867199"><ele>1.6666666666666665</ele><time>2026-04-19T13:26:49.323Z</time></trkpt><trkpt lat="42.7575602" lon="10.3868265"><ele>1.3333333333333333</ele><time>2026-04-19T13:26:50.324Z</time></trkpt><trkpt lat="42.7576067" lon="10.3869214"><ele>1.0</ele><time>2026-04-19T13:26:51.322Z</time></trkpt><trkpt lat="42.7576327" lon="10.3870035"><ele>0.6666666666666666</ele><time>2026-04-19T13:26:52.324Z</time></trkpt><trkpt lat="42.7576831" lon="10.3871392"><ele>0.3333333333333333</ele><time>2026-04-19T13:26:54.324Z</time></trkpt><trkpt lat="42.7577146" lon="10.3872149"><ele>0.0</ele><time>2026-04-19T13:26:56.323Z</time></trkpt><trkpt lat="42.7577177" lon="10.3873013"><ele>0.0</ele><time>2026-04-19T13:27:10.317Z</time></trkpt><trkpt lat="42.7577361" lon="10.3874499"><ele>0.0</ele><time>2026-04-19T13:27:12.32Z</time></trkpt><trkpt lat="42.7577505" lon="10.3875458"><ele>0.0</ele><time>2026-04-19T13:27:13.323Z</time></trkpt><trkpt lat="42.7577733" lon="10.3876302"><ele>0.0</ele><time>2026-04-19T13:27:14.324Z</time></trkpt><trkpt lat="42.757796" lon="10.3877646"><ele>0.0</ele><time>2026-04-19T13:27:16.317Z</time></trkpt><trkpt lat="42.757794" lon="10.3878535"><ele>0.0</ele><time>2026-04-19T13:27:18.318Z</time></trkpt><trkpt lat="42.7578003" lon="10.387948"><ele>0.0</ele><time>2026-04-19T13:27:22.322Z</time></trkpt><trkpt lat="42.7577858" lon="10.3880493"><ele>0.0</ele><time>2026-04-19T13:27:24.317Z</time></trkpt><trkpt lat="42.7577774" lon="10.3881379"><ele>0.0</ele><time>2026-04-19T13:27:25.32Z</time></trkpt><trkpt lat="42.757779" lon="10.3882387"><ele>0.0</ele><time>2026-04-19T13:27:26.319Z</time></trkpt><trkpt lat="42.757785" lon="10.3883556"><ele>0.0</ele><time>2026-04-19T13:27:27.316Z</time></trkpt><trkpt lat="42.7577848" lon="10.3884813"><ele>0.0</ele><time>2026-04-19T13:27:28.322Z</time></trkpt><trkpt lat="42.7577753" lon="10.3886168"><ele>0.0</ele><time>2026-04-19T13:27:29.32Z</time></trkpt><trkpt lat="42.7577487" lon="10.3887612"><ele>0.0</ele><time>2026-04-19T13:27:30.317Z</time></trkpt><trkpt lat="42.7577135" lon="10.3889058"><ele>0.0</ele><time>2026-04-19T13:27:31.315Z</time></trkpt><trkpt lat="42.7576747" lon="10.3890451"><ele>0.0</ele><time>2026-04-19T13:27:32.313Z</time></trkpt><trkpt lat="42.7576492" lon="10.3891767"><ele>0.0</ele><time>2026-04-19T13:27:33.315Z</time></trkpt><trkpt lat="42.7576314" lon="10.3893141"><ele>0.2</ele><time>2026-04-19T13:27:34.314Z</time></trkpt><trkpt lat="42.757628" lon="10.3894386"><ele>0.4</ele><time>2026-04-19T13:27:35.309Z</time></trkpt><trkpt lat="42.7576479" lon="10.3895493"><ele>0.6000000000000001</ele><time>2026-04-19T13:27:36.314Z</time></trkpt><trkpt lat="42.7576897" lon="10.389648"><ele>0.8</ele><time>2026-04-19T13:27:37.317Z</time></trkpt><trkpt lat="42.7577416" lon="10.3897568"><ele>1.0</ele><time>2026-04-19T13:27:38.316Z</time></trkpt><trkpt lat="42.7577891" lon="10.3898696"><ele>1.0</ele><time>2026-04-19T13:27:39.323Z</time></trkpt><trkpt lat="42.7578088" lon="10.3899775"><ele>1.0</ele><time>2026-04-19T13:27:40.32Z</time></trkpt><trkpt lat="42.7578119" lon="10.3900846"><ele>1.0</ele><time>2026-04-19T13:27:41.32Z</time></trkpt><trkpt lat="42.7578121" lon="10.3901839"><ele>1.0</ele><time>2026-04-19T13:27:42.32Z</time></trkpt><trkpt lat="42.7578122" lon="10.3903277"><ele>1.0</ele><time>2026-04-19T13:27:44.316Z</time></trkpt><trkpt lat="42.7578389" lon="10.3904759"><ele>1.0</ele><time>2026-04-19T13:27:46.319Z</time></trkpt><trkpt lat="42.7578598" lon="10.3905646"><ele>0.9999999999999999</ele><time>2026-04-19T13:27:47.323Z</time></trkpt><trkpt lat="42.7578762" lon="10.3906627"><ele>1.0</ele><time>2026-04-19T13:27:48.322Z</time></trkpt><trkpt lat="42.7578777" lon="10.3907603"><ele>1.0</ele><time>2026-04-19T13:27:49.321Z</time></trkpt><trkpt lat="42.7578612" lon="10.390854"><ele>0.9999999999999999</ele><time>2026-04-19T13:27:50.32Z</time></trkpt><trkpt lat="42.7578259" lon="10.3909474"><ele>1.0</ele><time>2026-04-19T13:27:51.32Z</time></trkpt><trkpt lat="42.7577647" lon="10.3910311"><ele>1.0</ele><time>2026-04-19T13:27:52.322Z</time></trkpt><trkpt lat="42.7576884" lon="10.3911168"><ele>2.0</ele><time>2026-04-19T13:27:53.323Z</time></trkpt><trkpt lat="42.7576177" lon="10.3912127"><ele>3.0</ele><time>2026-04-19T13:27:54.321Z</time></trkpt><trkpt lat="42.7575589" lon="10.3913074"><ele>3.9999999999999996</ele><time>2026-04-19T13:27:55.32Z</time></trkpt><trkpt lat="42.7574989" lon="10.3914048"><ele>5.0</ele><time>2026-04-19T13:27:56.313Z</time></trkpt><trkpt lat="42.7574393" lon="10.3914988"><ele>6.0</ele><time>2026-04-19T13:27:57.31Z</time></trkpt><trkpt lat="42.7573773" lon="10.3915905"><ele>6.0</ele><time>2026-04-19T13:27:58.315Z</time></trkpt><trkpt lat="42.7573116" lon="10.3916735"><ele>6.0</ele><time>2026-04-19T13:27:59.317Z</time></trkpt><trkpt lat="42.7572308" lon="10.3917548"><ele>6.0</ele><time>2026-04-19T13:28:00.316Z</time></trkpt><trkpt lat="42.7571443" lon="10.3918301"><ele>6.0</ele><time>2026-04-19T13:28:01.315Z</time></trkpt><trkpt lat="42.7570514" lon="10.3918988"><ele>6.0</ele><time>2026-04-19T13:28:02.31Z</time></trkpt><trkpt lat="42.7569533" lon="10.3919572"><ele>12.0</ele><time>2026-04-19T13:28:03.311Z</time></trkpt><trkpt lat="42.7568404" lon="10.3920053"><ele>18.0</ele><time>2026-04-19T13:28:04.315Z</time></trkpt><trkpt lat="42.7567162" lon="10.3920489"><ele>24.0</ele><time>2026-04-19T13:28:05.311Z</time></trkpt><trkpt lat="42.75659" lon="10.3920872"><ele>30.0</ele><time>2026-04-19T13:28:06.315Z</time></trkpt><trkpt lat="42.75647" lon="10.3921093"><ele>30.0</ele><time>2026-04-19T13:28:07.316Z</time></trkpt><trkpt lat="42.7563595" lon="10.3921044"><ele>30.0</ele><time>2026-04-19T13:28:08.316Z</time></trkpt><trkpt lat="42.7562725" lon="10.3921069"><ele>30.0</ele><time>2026-04-19T13:28:09.309Z</time></trkpt><trkpt lat="42.7561987" lon="10.3921363"><ele>30.0</ele><time>2026-04-19T13:28:10.309Z</time></trkpt><trkpt lat="42.7561424" lon="10.3922098"><ele>30.0</ele><time>2026-04-19T13:28:11.315Z</time></trkpt><trkpt lat="42.7561292" lon="10.3923168"><ele>30.0</ele><time>2026-04-19T13:28:12.321Z</time></trkpt><trkpt lat="42.7561564" lon="10.3924183"><ele>27.6</ele><time>2026-04-19T13:28:13.317Z</time></trkpt><trkpt lat="42.7562122" lon="10.3925059"><ele>25.2</ele><time>2026-04-19T13:28:14.322Z</time></trkpt><trkpt lat="42.7562995" lon="10.3925682"><ele>22.8</ele><time>2026-04-19T13:28:15.312Z</time></trkpt><trkpt lat="42.7564005" lon="10.3926211"><ele>20.4</ele><time>2026-04-19T13:28:16.315Z</time></trkpt><trkpt lat="42.7564986" lon="10.392688"><ele>18.0</ele><time>2026-04-19T13:28:17.314Z</time></trkpt><trkpt lat="42.7565977" lon="10.3927741"><ele>18.0</ele><time>2026-04-19T13:28:18.313Z</time></trkpt><trkpt lat="42.7566868" lon="10.3928773"><ele>18.0</ele><time>2026-04-19T13:28:19.317Z</time></trkpt><trkpt lat="42.7567754" lon="10.3929916"><ele>18.0</ele><time>2026-04-19T13:28:20.306Z</time></trkpt><trkpt lat="42.7568629" lon="10.3931174"><ele>18.0</ele><time>2026-04-19T13:28:21.316Z</time></trkpt><trkpt lat="42.7569549" lon="10.3932432"><ele>16.75</ele><time>2026-04-19T13:28:22.315Z</time></trkpt><trkpt lat="42.7570583" lon="10.3933541"><ele>15.5</ele><time>2026-04-19T13:28:23.316Z</time></trkpt><trkpt lat="42.7571604" lon="10.3934475"><ele>14.25</ele><time>2026-04-19T13:28:24.318Z</time></trkpt><trkpt lat="42.7572558" lon="10.3935372"><ele>13.0</ele><time>2026-04-19T13:28:25.322Z</time></trkpt><trkpt lat="42.7573483" lon="10.3936334"><ele>13.0</ele><time>2026-04-19T13:28:26.324Z</time></trkpt><trkpt lat="42.7574254" lon="10.3937429"><ele>13.0</ele><time>2026-04-19T13:28:27.322Z</time></trkpt><trkpt lat="42.7574885" lon="10.3938637"><ele>13.0</ele><time>2026-04-19T13:28:28.324Z</time></trkpt><trkpt lat="42.7575266" lon="10.3939924"><ele>13.0</ele><time>2026-04-19T13:28:29.321Z</time></trkpt><trkpt lat="42.7575438" lon="10.394131"><ele>13.0</ele><time>2026-04-19T13:28:30.324Z</time></trkpt><trkpt lat="42.7575433" lon="10.3942752"><ele>16.2</ele><time>2026-04-19T13:28:31.322Z</time></trkpt><trkpt lat="42.7575257" lon="10.3944132"><ele>19.4</ele><time>2026-04-19T13:28:32.322Z</time></trkpt><trkpt lat="42.757492" lon="10.3945428"><ele>22.599999999999998</ele><time>2026-04-19T13:28:33.32Z</time></trkpt><trkpt lat="42.7574427" lon="10.3946631"><ele>25.8</ele><time>2026-04-19T13:28:34.318Z</time></trkpt><trkpt lat="42.757392" lon="10.3947828"><ele>29.0</ele><time>2026-04-19T13:28:35.32Z</time></trkpt><trkpt lat="42.7573329" lon="10.3948894"><ele>28.999999999999996</ele><time>2026-04-19T13:28:36.319Z</time></trkpt><trkpt lat="42.7572797" lon="10.3949938"><ele>29.0</ele><time>2026-04-19T13:28:37.316Z</time></trkpt><trkpt lat="42.7572292" lon="10.3950972"><ele>29.0</ele><time>2026-04-19T13:28:38.316Z</time></trkpt><trkpt lat="42.7571864" lon="10.3951952"><ele>29.0</ele><time>2026-04-19T13:28:39.317Z</time></trkpt><trkpt lat="42.7571483" lon="10.3952768"><ele>28.999999999999996</ele><time>2026-04-19T13:28:40.318Z</time></trkpt><trkpt lat="42.7571152" lon="10.3953501"><ele>29.0</ele><time>2026-04-19T13:28:41.322Z</time></trkpt><trkpt lat="42.757066" lon="10.3954944"><ele>26.0</ele><time>2026-04-19T13:28:43.321Z</time></trkpt><trkpt lat="42.7570042" lon="10.395657"><ele>23.0</ele><time>2026-04-19T13:28:45.317Z</time></trkpt><trkpt lat="42.7569557" lon="10.3957418"><ele>20.0</ele><time>2026-04-19T13:28:46.317Z</time></trkpt><trkpt lat="42.7568901" lon="10.3958272"><ele>17.0</ele><time>2026-04-19T13:28:47.319Z</time></trkpt><trkpt lat="42.7568078" lon="10.395907"><ele>14.0</ele><time>2026-04-19T13:28:48.317Z</time></trkpt><trkpt lat="42.7567155" lon="10.3959873"><ele>21.0</ele><time>2026-04-19T13:28:49.319Z</time></trkpt><trkpt lat="42.7566132" lon="10.3960627"><ele>28.0</ele><time>2026-04-19T13:28:50.319Z</time></trkpt><trkpt lat="42.7565161" lon="10.3961335"><ele>35.0</ele><time>2026-04-19T13:28:51.316Z</time></trkpt><trkpt lat="42.756418" lon="10.3962021"><ele>42.0</ele><time>2026-04-19T13:28:52.318Z</time></trkpt><trkpt lat="42.7563249" lon="10.396249"><ele>49.0</ele><time>2026-04-19T13:28:53.314Z</time></trkpt><trkpt lat="42.756247" lon="10.3963069"><ele>46.33333333333333</ele><time>2026-04-19T13:28:54.319Z</time></trkpt><trkpt lat="42.7561835" lon="10.3963817"><ele>43.666666666666664</ele><time>2026-04-19T13:28:55.321Z</time></trkpt><trkpt lat="42.7561699" lon="10.396467"><ele>41.0</ele><time>2026-04-19T13:28:56.313Z</time></trkpt><trkpt lat="42.7561594" lon="10.3965785"><ele>38.33333333333333</ele><time>2026-04-19T13:28:58.314Z</time></trkpt><trkpt lat="42.7561532" lon="10.3966849"><ele>35.666666666666664</ele><time>2026-04-19T13:29:00.316Z</time></trkpt><trkpt lat="42.7561824" lon="10.3967951"><ele>33.0</ele><time>2026-04-19T13:29:02.316Z</time></trkpt><trkpt lat="42.7562257" lon="10.3968898"><ele>33.0</ele><time>2026-04-19T13:29:04.316Z</time></trkpt><trkpt lat="42.7562864" lon="10.3970035"><ele>33.0</ele><time>2026-04-19T13:29:06.314Z</time></trkpt><trkpt lat="42.7563127" lon="10.3970861"><ele>33.0</ele><time>2026-04-19T13:29:07.317Z</time></trkpt><trkpt lat="42.7563463" lon="10.3971964"><ele>33.0</ele><time>2026-04-19T13:29:08.316Z</time></trkpt><trkpt lat="42.7563821" lon="10.3973179"><ele>33.0</ele><time>2026-04-19T13:29:09.317Z</time></trkpt><trkpt lat="42.7564165" lon="10.397446"><ele>32.6</ele><time>2026-04-19T13:29:10.315Z</time></trkpt><trkpt lat="42.7564477" lon="10.3975846"><ele>32.199999999999996</ele><time>2026-04-19T13:29:11.315Z</time></trkpt><trkpt lat="42.7564726" lon="10.3977268"><ele>31.8</ele><time>2026-04-19T13:29:12.323Z</time></trkpt><trkpt lat="42.7564952" lon="10.3978731"><ele>31.4</ele><time>2026-04-19T13:29:13.324Z</time></trkpt><trkpt lat="42.7565095" lon="10.3980228"><ele>31.0</ele><time>2026-04-19T13:29:14.327Z</time></trkpt><trkpt lat="42.7565274" lon="10.3981709"><ele>30.8</ele><time>2026-04-19T13:29:15.322Z</time></trkpt><trkpt lat="42.7565411" lon="10.3983139"><ele>30.6</ele><time>2026-04-19T13:29:16.32Z</time></trkpt><trkpt lat="42.7565539" lon="10.3984468"><ele>30.4</ele><time>2026-04-19T13:29:17.322Z</time></trkpt><trkpt lat="42.756571" lon="10.398569"><ele>30.2</ele><time>2026-04-19T13:29:18.317Z</time></trkpt><trkpt lat="42.7565823" lon="10.3986832"><ele>30.0</ele><time>2026-04-19T13:29:19.328Z</time></trkpt><trkpt lat="42.7565959" lon="10.3987883"><ele>29.0</ele><time>2026-04-19T13:29:20.323Z</time></trkpt><trkpt lat="42.7566096" lon="10.398894"><ele>28.0</ele><time>2026-04-19T13:29:21.324Z</time></trkpt><trkpt lat="42.7566228" lon="10.3989977"><ele>27.0</ele><time>2026-04-19T13:29:22.327Z</time></trkpt><trkpt lat="42.7566381" lon="10.3991101"><ele>26.0</ele><time>2026-04-19T13:29:23.319Z</time></trkpt><trkpt lat="42.756658" lon="10.3992328"><ele>25.0</ele><time>2026-04-19T13:29:24.323Z</time></trkpt><trkpt lat="42.7566826" lon="10.3993689"><ele>24.0</ele><time>2026-04-19T13:29:25.326Z</time></trkpt><trkpt lat="42.7567074" lon="10.3995147"><ele>24.0</ele><time>2026-04-19T13:29:26.328Z</time></trkpt><trkpt lat="42.7567234" lon="10.3996649"><ele>24.0</ele><time>2026-04-19T13:29:27.324Z</time></trkpt><trkpt lat="42.7567321" lon="10.399817"><ele>24.0</ele><time>2026-04-19T13:29:28.328Z</time></trkpt><trkpt lat="42.7567384" lon="10.3999695"><ele>24.0</ele><time>2026-04-19T13:29:29.324Z</time></trkpt><trkpt lat="42.756733" lon="10.4001157"><ele>24.0</ele><time>2026-04-19T13:29:30.332Z</time></trkpt><trkpt lat="42.7567192" lon="10.4002584"><ele>22.4</ele><time>2026-04-19T13:29:31.324Z</time></trkpt><trkpt lat="42.7566994" lon="10.4003961"><ele>20.799999999999997</ele><time>2026-04-19T13:29:32.326Z</time></trkpt><trkpt lat="42.7566864" lon="10.4005351"><ele>19.200000000000003</ele><time>2026-04-19T13:29:33.327Z</time></trkpt><trkpt lat="42.7566866" lon="10.4006764"><ele>17.6</ele><time>2026-04-19T13:29:34.32Z</time></trkpt><trkpt lat="42.7566911" lon="10.4008151"><ele>16.0</ele><time>2026-04-19T13:29:35.321Z</time></trkpt><trkpt lat="42.7566987" lon="10.4009559"><ele>14.8</ele><time>2026-04-19T13:29:36.321Z</time></trkpt><trkpt lat="42.7566949" lon="10.4010992"><ele>13.600000000000001</ele><time>2026-04-19T13:29:37.322Z</time></trkpt><trkpt lat="42.7566938" lon="10.4012448"><ele>12.4</ele><time>2026-04-19T13:29:38.318Z</time></trkpt><trkpt lat="42.7566855" lon="10.4013854"><ele>11.2</ele><time>2026-04-19T13:29:39.322Z</time></trkpt><trkpt lat="42.7566845" lon="10.4015188"><ele>10.0</ele><time>2026-04-19T13:29:40.318Z</time></trkpt><trkpt lat="42.7566934" lon="10.4016462"><ele>9.5</ele><time>2026-04-19T13:29:41.314Z</time></trkpt><trkpt lat="42.7567084" lon="10.4017661"><ele>9.0</ele><time>2026-04-19T13:29:42.309Z</time></trkpt><trkpt lat="42.7567295" lon="10.4018736"><ele>8.5</ele><time>2026-04-19T13:29:43.318Z</time></trkpt><trkpt lat="42.7567584" lon="10.4019732"><ele>8.0</ele><time>2026-04-19T13:29:44.316Z</time></trkpt><trkpt lat="42.7567834" lon="10.4020564"><ele>7.500000000000001</ele><time>2026-04-19T13:29:45.311Z</time></trkpt><trkpt lat="42.7567875" lon="10.4021656"><ele>7.0</ele><time>2026-04-19T13:29:47.314Z</time></trkpt><trkpt lat="42.7567255" lon="10.4021866"><ele>6.0</ele><time>2026-04-19T13:29:49.319Z</time></trkpt><trkpt lat="42.7566303" lon="10.4021803"><ele>4.999999999999999</ele><time>2026-04-19T13:29:51.322Z</time></trkpt><trkpt lat="42.756534" lon="10.4021923"><ele>4.0</ele><time>2026-04-19T13:29:53.323Z</time></trkpt><trkpt lat="42.7564413" lon="10.4022214"><ele>3.0</ele><time>2026-04-19T13:29:55.326Z</time></trkpt><trkpt lat="42.7563428" lon="10.4022868"><ele>2.0</ele><time>2026-04-19T13:29:57.323Z</time></trkpt><trkpt lat="42.75623" lon="10.4023495"><ele>1.9999999999999998</ele><time>2026-04-19T13:29:59.321Z</time></trkpt><trkpt lat="42.7561184" lon="10.402403"><ele>2.0</ele><time>2026-04-19T13:30:01.327Z</time></trkpt><trkpt lat="42.7560209" lon="10.4024523"><ele>2.0</ele><time>2026-04-19T13:30:03.334Z</time></trkpt><trkpt lat="42.7559593" lon="10.4024879"><ele>2.0</ele><time>2026-04-19T13:30:05.324Z</time></trkpt><trkpt lat="42.7558957" lon="10.4024875"><ele>1.9999999999999998</ele><time>2026-04-19T13:30:52.33Z</time></trkpt><trkpt lat="42.7558566" lon="10.4023899"><ele>2.0</ele><time>2026-04-19T13:30:54.324Z</time></trkpt><trkpt lat="42.7558292" lon="10.4023123"><ele>1.9999999999999998</ele><time>2026-04-19T13:30:55.324Z</time></trkpt><trkpt lat="42.755792" lon="10.4022229"><ele>2.0</ele><time>2026-04-19T13:30:56.321Z</time></trkpt><trkpt lat="42.7557506" lon="10.4021249"><ele>2.0</ele><time>2026-04-19T13:30:57.32Z</time></trkpt><trkpt lat="42.755704" lon="10.40203"><ele>2.0</ele><time>2026-04-19T13:30:58.321Z</time></trkpt><trkpt lat="42.7556601" lon="10.4019403"><ele>1.9999999999999998</ele><time>2026-04-19T13:30:59.321Z</time></trkpt><trkpt lat="42.7556153" lon="10.4018547"><ele>2.0</ele><time>2026-04-19T13:31:00.317Z</time></trkpt><trkpt lat="42.7555742" lon="10.4017761"><ele>2.333333333333333</ele><time>2026-04-19T13:31:01.324Z</time></trkpt><trkpt lat="42.7555321" lon="10.4016984"><ele>2.6666666666666665</ele><time>2026-04-19T13:31:02.318Z</time></trkpt><trkpt lat="42.7554878" lon="10.4016128"><ele>3.0</ele><time>2026-04-19T13:31:03.319Z</time></trkpt><trkpt lat="42.7554484" lon="10.4015315"><ele>3.333333333333333</ele><time>2026-04-19T13:31:04.323Z</time></trkpt><trkpt lat="42.7554039" lon="10.4014412"><ele>3.6666666666666665</ele><time>2026-04-19T13:31:05.32Z</time></trkpt><trkpt lat="42.7553585" lon="10.4013594"><ele>4.0</ele><time>2026-04-19T13:31:06.323Z</time></trkpt><trkpt lat="42.7553039" lon="10.4012768"><ele>4.0</ele><time>2026-04-19T13:31:07.321Z</time></trkpt><trkpt lat="42.7552459" lon="10.4011979"><ele>4.0</ele><time>2026-04-19T13:31:08.316Z</time></trkpt><trkpt lat="42.755185" lon="10.4011192"><ele>4.0</ele><time>2026-04-19T13:31:09.32Z</time></trkpt><trkpt lat="42.7551287" lon="10.4010418"><ele>4.0</ele><time>2026-04-19T13:31:10.315Z</time></trkpt><trkpt lat="42.7550417" lon="10.4009377"><ele>4.0</ele><time>2026-04-19T13:31:12.326Z</time></trkpt><trkpt lat="42.754965" lon="10.4008671"><ele>4.2</ele><time>2026-04-19T13:31:14.328Z</time></trkpt><trkpt lat="42.7549095" lon="10.4007427"><ele>4.4</ele><time>2026-04-19T13:31:16.319Z</time></trkpt><trkpt lat="42.754904" lon="10.400571"><ele>4.6</ele><time>2026-04-19T13:31:18.322Z</time></trkpt><trkpt lat="42.7549194" lon="10.4004793"><ele>4.8</ele><time>2026-04-19T13:31:19.321Z</time></trkpt><trkpt lat="42.754932" lon="10.4003716"><ele>5.0</ele><time>2026-04-19T13:31:20.321Z</time></trkpt><trkpt lat="42.7549361" lon="10.4002478"><ele>5.0</ele><time>2026-04-19T13:31:21.321Z</time></trkpt><trkpt lat="42.7549309" lon="10.4001242"><ele>5.0</ele><time>2026-04-19T13:31:22.32Z</time></trkpt><trkpt lat="42.7549192" lon="10.400021"><ele>5.0</ele><time>2026-04-19T13:31:23.326Z</time></trkpt><trkpt lat="42.7548587" lon="10.3999128"><ele>5.0</ele><time>2026-04-19T13:31:25.324Z</time></trkpt><trkpt lat="42.7547529" lon="10.3999139"><ele>5.0</ele><time>2026-04-19T13:31:27.318Z</time></trkpt><trkpt lat="42.7546838" lon="10.3999403"><ele>5.0</ele><time>2026-04-19T13:31:28.324Z</time></trkpt><trkpt lat="42.7546031" lon="10.3999678"><ele>5.0</ele><time>2026-04-19T13:31:29.321Z</time></trkpt><trkpt lat="42.7545188" lon="10.3999945"><ele>5.0</ele><time>2026-04-19T13:31:30.319Z</time></trkpt><trkpt lat="42.7544316" lon="10.4000069"><ele>5.0</ele><time>2026-04-19T13:31:31.321Z</time></trkpt><trkpt lat="42.7543511" lon="10.400016"><ele>5.0</ele><time>2026-04-19T13:31:32.317Z</time></trkpt><trkpt lat="42.7542612" lon="10.4000312"><ele>5.0</ele><time>2026-04-19T13:31:33.323Z</time></trkpt><trkpt lat="42.7541695" lon="10.4000456"><ele>5.0</ele><time>2026-04-19T13:31:34.321Z</time></trkpt><trkpt lat="42.7540771" lon="10.4000492"><ele>6.166666666666667</ele><time>2026-04-19T13:31:35.322Z</time></trkpt><trkpt lat="42.7539917" lon="10.4000491"><ele>7.333333333333334</ele><time>2026-04-19T13:31:36.315Z</time></trkpt><trkpt lat="42.7539083" lon="10.4000401"><ele>8.5</ele><time>2026-04-19T13:31:37.321Z</time></trkpt><trkpt lat="42.7538295" lon="10.4000253"><ele>9.666666666666666</ele><time>2026-04-19T13:31:38.319Z</time></trkpt><trkpt lat="42.7537613" lon="10.3999987"><ele>10.833333333333334</ele><time>2026-04-19T13:31:39.318Z</time></trkpt><trkpt lat="42.7536973" lon="10.3999393"><ele>12.0</ele><time>2026-04-19T13:31:40.315Z</time></trkpt><trkpt lat="42.753641" lon="10.399864"><ele>12.0</ele><time>2026-04-19T13:31:41.325Z</time></trkpt><trkpt lat="42.7535863" lon="10.3997887"><ele>12.0</ele><time>2026-04-19T13:31:42.325Z</time></trkpt><trkpt lat="42.7535273" lon="10.3997198"><ele>12.0</ele><time>2026-04-19T13:31:43.32Z</time></trkpt><trkpt lat="42.7534655" lon="10.3996553"><ele>12.0</ele><time>2026-04-19T13:31:44.325Z</time></trkpt><trkpt lat="42.7534064" lon="10.3995877"><ele>12.0</ele><time>2026-04-19T13:31:45.324Z</time></trkpt><trkpt lat="42.753343" lon="10.3995179"><ele>12.0</ele><time>2026-04-19T13:31:46.323Z</time></trkpt><trkpt lat="42.7532816" lon="10.3994518"><ele>14.0</ele><time>2026-04-19T13:31:47.318Z</time></trkpt><trkpt lat="42.7532286" lon="10.3993879"><ele>16.0</ele><time>2026-04-19T13:31:48.321Z</time></trkpt><trkpt lat="42.7531741" lon="10.3993305"><ele>18.0</ele><time>2026-04-19T13:31:49.324Z</time></trkpt><trkpt lat="42.7531156" lon="10.3992758"><ele>20.0</ele><time>2026-04-19T13:31:50.321Z</time></trkpt><trkpt lat="42.753053" lon="10.3992246"><ele>22.0</ele><time>2026-04-19T13:31:51.322Z</time></trkpt><trkpt lat="42.7529891" lon="10.3991697"><ele>24.0</ele><time>2026-04-19T13:31:52.321Z</time></trkpt><trkpt lat="42.752922" lon="10.3991216"><ele>26.0</ele><time>2026-04-19T13:31:53.322Z</time></trkpt><trkpt lat="42.752844" lon="10.3990785"><ele>25.999999999999996</ele><time>2026-04-19T13:31:54.32Z</time></trkpt><trkpt lat="42.7527638" lon="10.3990378"><ele>26.0</ele><time>2026-04-19T13:31:55.318Z</time></trkpt><trkpt lat="42.7526836" lon="10.3989926"><ele>26.0</ele><time>2026-04-19T13:31:56.324Z</time></trkpt><trkpt lat="42.7525999" lon="10.3989385"><ele>26.0</ele><time>2026-04-19T13:31:57.32Z</time></trkpt><trkpt lat="42.7525196" lon="10.3988782"><ele>25.999999999999996</ele><time>2026-04-19T13:31:58.328Z</time></trkpt><trkpt lat="42.7524427" lon="10.3988214"><ele>26.0</ele><time>2026-04-19T13:31:59.329Z</time></trkpt><trkpt lat="42.7523626" lon="10.3987625"><ele>28.166666666666664</ele><time>2026-04-19T13:32:00.325Z</time></trkpt><trkpt lat="42.752286" lon="10.3986988"><ele>30.333333333333332</ele><time>2026-04-19T13:32:01.326Z</time></trkpt><trkpt lat="42.7522112" lon="10.3986359"><ele>32.5</ele><time>2026-04-19T13:32:02.321Z</time></trkpt><trkpt lat="42.752135" lon="10.3985676"><ele>34.666666666666664</ele><time>2026-04-19T13:32:03.321Z</time></trkpt><trkpt lat="42.7520667" lon="10.3984876"><ele>36.833333333333336</ele><time>2026-04-19T13:32:04.328Z</time></trkpt><trkpt lat="42.7520027" lon="10.3984047"><ele>39.0</ele><time>2026-04-19T13:32:05.325Z</time></trkpt><trkpt lat="42.7519349" lon="10.3983334"><ele>40.2</ele><time>2026-04-19T13:32:06.326Z</time></trkpt><trkpt lat="42.7518574" lon="10.3982703"><ele>41.4</ele><time>2026-04-19T13:32:07.322Z</time></trkpt><trkpt lat="42.7517738" lon="10.3982046"><ele>42.6</ele><time>2026-04-19T13:32:08.327Z</time></trkpt><trkpt lat="42.7516801" lon="10.3981363"><ele>43.8</ele><time>2026-04-19T13:32:09.327Z</time></trkpt><trkpt lat="42.7515878" lon="10.3980687"><ele>45.0</ele><time>2026-04-19T13:32:10.322Z</time></trkpt><trkpt lat="42.751505" lon="10.3980024"><ele>45.0</ele><time>2026-04-19T13:32:11.323Z</time></trkpt><trkpt lat="42.7514291" lon="10.3979394"><ele>45.0</ele><time>2026-04-19T13:32:12.323Z</time></trkpt><trkpt lat="42.7513503" lon="10.3978694"><ele>45.0</ele><time>2026-04-19T13:32:13.323Z</time></trkpt><trkpt lat="42.7512748" lon="10.3978012"><ele>45.0</ele><time>2026-04-19T13:32:14.324Z</time></trkpt><trkpt lat="42.7511961" lon="10.3977276"><ele>45.0</ele><time>2026-04-19T13:32:15.324Z</time></trkpt><trkpt lat="42.7511202" lon="10.3976498"><ele>45.0</ele><time>2026-04-19T13:32:16.324Z</time></trkpt><trkpt lat="42.7510468" lon="10.3975746"><ele>45.0</ele><time>2026-04-19T13:32:17.324Z</time></trkpt><trkpt lat="42.7509805" lon="10.3975015"><ele>45.0</ele><time>2026-04-19T13:32:18.326Z</time></trkpt><trkpt lat="42.7509131" lon="10.3974263"><ele>45.0</ele><time>2026-04-19T13:32:19.325Z</time></trkpt><trkpt lat="42.7508431" lon="10.3973488"><ele>45.0</ele><time>2026-04-19T13:32:20.324Z</time></trkpt><trkpt lat="42.7507732" lon="10.397278"><ele>45.0</ele><time>2026-04-19T13:32:21.32Z</time></trkpt><trkpt lat="42.7507018" lon="10.3972027"><ele>46.2</ele><time>2026-04-19T13:32:22.325Z</time></trkpt><trkpt lat="42.7506335" lon="10.3971232"><ele>47.4</ele><time>2026-04-19T13:32:23.324Z</time></trkpt><trkpt lat="42.7505606" lon="10.3970419"><ele>48.599999999999994</ele><time>2026-04-19T13:32:24.328Z</time></trkpt><trkpt lat="42.7504902" lon="10.3969585"><ele>49.8</ele><time>2026-04-19T13:32:25.326Z</time></trkpt><trkpt lat="42.7504247" lon="10.3968761"><ele>51.0</ele><time>2026-04-19T13:32:26.325Z</time></trkpt><trkpt lat="42.7503631" lon="10.3967971"><ele>51.0</ele><time>2026-04-19T13:32:27.321Z</time></trkpt><trkpt lat="42.7503009" lon="10.3967347"><ele>51.0</ele><time>2026-04-19T13:32:28.323Z</time></trkpt><trkpt lat="42.750239" lon="10.3966774"><ele>51.0</ele><time>2026-04-19T13:32:29.325Z</time></trkpt><trkpt lat="42.7501813" lon="10.3966266"><ele>51.0</ele><time>2026-04-19T13:32:30.327Z</time></trkpt><trkpt lat="42.7501197" lon="10.3965833"><ele>51.0</ele><time>2026-04-19T13:32:31.325Z</time></trkpt><trkpt lat="42.7500485" lon="10.3965426"><ele>51.0</ele><time>2026-04-19T13:32:32.325Z</time></trkpt><trkpt lat="42.7499756" lon="10.3965012"><ele>51.0</ele><time>2026-04-19T13:32:33.323Z</time></trkpt><trkpt lat="42.7499045" lon="10.3964532"><ele>52.166666666666664</ele><time>2026-04-19T13:32:34.321Z</time></trkpt><trkpt lat="42.7498347" lon="10.3963941"><ele>53.33333333333333</ele><time>2026-04-19T13:32:35.323Z</time></trkpt><trkpt lat="42.7497697" lon="10.3963248"><ele>54.5</ele><time>2026-04-19T13:32:36.323Z</time></trkpt><trkpt lat="42.7497064" lon="10.3962463"><ele>55.666666666666664</ele><time>2026-04-19T13:32:37.327Z</time></trkpt><trkpt lat="42.7496443" lon="10.396151"><ele>56.83333333333333</ele><time>2026-04-19T13:32:38.323Z</time></trkpt><trkpt lat="42.7495843" lon="10.3960507"><ele>58.0</ele><time>2026-04-19T13:32:39.326Z</time></trkpt><trkpt lat="42.7495257" lon="10.3959484"><ele>58.2</ele><time>2026-04-19T13:32:40.324Z</time></trkpt><trkpt lat="42.7494674" lon="10.3958414"><ele>58.4</ele><time>2026-04-19T13:32:41.324Z</time></trkpt><trkpt lat="42.7494092" lon="10.3957305"><ele>58.60000000000001</ele><time>2026-04-19T13:32:42.323Z</time></trkpt><trkpt lat="42.7493497" lon="10.3956262"><ele>58.800000000000004</ele><time>2026-04-19T13:32:43.324Z</time></trkpt><trkpt lat="42.7492883" lon="10.3955299"><ele>59.0</ele><time>2026-04-19T13:32:44.323Z</time></trkpt><trkpt lat="42.7492261" lon="10.3954346"><ele>60.800000000000004</ele><time>2026-04-19T13:32:45.322Z</time></trkpt><trkpt lat="42.7491706" lon="10.3953238"><ele>62.60000000000001</ele><time>2026-04-19T13:32:46.32Z</time></trkpt><trkpt lat="42.7491211" lon="10.3952205"><ele>64.4</ele><time>2026-04-19T13:32:47.321Z</time></trkpt><trkpt lat="42.749059" lon="10.3951291"><ele>66.2</ele><time>2026-04-19T13:32:48.323Z</time></trkpt><trkpt lat="42.748993" lon="10.3950337"><ele>68.0</ele><time>2026-04-19T13:32:49.325Z</time></trkpt><trkpt lat="42.7489333" lon="10.3949319"><ele>68.0</ele><time>2026-04-19T13:32:50.325Z</time></trkpt><trkpt lat="42.748876" lon="10.394829"><ele>68.0</ele><time>2026-04-19T13:32:51.325Z</time></trkpt><trkpt lat="42.748826" lon="10.3947232"><ele>68.0</ele><time>2026-04-19T13:32:52.327Z</time></trkpt><trkpt lat="42.7487829" lon="10.3946173"><ele>68.0</ele><time>2026-04-19T13:32:53.325Z</time></trkpt><trkpt lat="42.7487381" lon="10.394519"><ele>68.0</ele><time>2026-04-19T13:32:54.321Z</time></trkpt><trkpt lat="42.748688" lon="10.3944224"><ele>68.0</ele><time>2026-04-19T13:32:55.32Z</time></trkpt><trkpt lat="42.7486403" lon="10.3943356"><ele>68.16666666666667</ele><time>2026-04-19T13:32:56.326Z</time></trkpt><trkpt lat="42.7485893" lon="10.3942475"><ele>68.33333333333334</ele><time>2026-04-19T13:32:57.324Z</time></trkpt><trkpt lat="42.7485357" lon="10.3941615"><ele>68.5</ele><time>2026-04-19T13:32:58.324Z</time></trkpt><trkpt lat="42.7484768" lon="10.3940659"><ele>68.66666666666667</ele><time>2026-04-19T13:32:59.327Z</time></trkpt><trkpt lat="42.7484249" lon="10.3939716"><ele>68.83333333333333</ele><time>2026-04-19T13:33:00.327Z</time></trkpt><trkpt lat="42.748372" lon="10.3938863"><ele>69.0</ele><time>2026-04-19T13:33:01.328Z</time></trkpt><trkpt lat="42.7483189" lon="10.3938057"><ele>71.83333333333333</ele><time>2026-04-19T13:33:02.325Z</time></trkpt><trkpt lat="42.7482633" lon="10.3937275"><ele>74.66666666666667</ele><time>2026-04-19T13:33:03.324Z</time></trkpt><trkpt lat="42.7482088" lon="10.3936642"><ele>77.5</ele><time>2026-04-19T13:33:04.321Z</time></trkpt><trkpt lat="42.7481416" lon="10.3936121"><ele>80.33333333333334</ele><time>2026-04-19T13:33:05.323Z</time></trkpt><trkpt lat="42.7480664" lon="10.3935659"><ele>83.16666666666667</ele><time>2026-04-19T13:33:06.327Z</time></trkpt><trkpt lat="42.7479876" lon="10.3935139"><ele>86.0</ele><time>2026-04-19T13:33:07.326Z</time></trkpt><trkpt lat="42.7479087" lon="10.3934552"><ele>86.0</ele><time>2026-04-19T13:33:08.33Z</time></trkpt><trkpt lat="42.7478257" lon="10.393397"><ele>86.0</ele><time>2026-04-19T13:33:09.325Z</time></trkpt><trkpt lat="42.7477412" lon="10.3933375"><ele>86.0</ele><time>2026-04-19T13:33:10.328Z</time></trkpt><trkpt lat="42.7476589" lon="10.3932777"><ele>86.0</ele><time>2026-04-19T13:33:11.328Z</time></trkpt><trkpt lat="42.7475786" lon="10.3932199"><ele>86.0</ele><time>2026-04-19T13:33:12.326Z</time></trkpt><trkpt lat="42.7475001" lon="10.3931681"><ele>88.19999999999999</ele><time>2026-04-19T13:33:13.325Z</time></trkpt><trkpt lat="42.7474302" lon="10.3931303"><ele>90.39999999999999</ele><time>2026-04-19T13:33:14.329Z</time></trkpt><trkpt lat="42.7473662" lon="10.3931304"><ele>92.6</ele><time>2026-04-19T13:33:15.325Z</time></trkpt><trkpt lat="42.7472602" lon="10.393214"><ele>94.8</ele><time>2026-04-19T13:33:17.327Z</time></trkpt><trkpt lat="42.7471638" lon="10.3932687"><ele>97.0</ele><time>2026-04-19T13:33:19.329Z</time></trkpt><trkpt lat="42.747074" lon="10.3932412"><ele>97.0</ele><time>2026-04-19T13:33:21.322Z</time></trkpt><trkpt lat="42.7470152" lon="10.3931177"><ele>97.0</ele><time>2026-04-19T13:33:23.318Z</time></trkpt><trkpt lat="42.7469916" lon="10.393022"><ele>97.0</ele><time>2026-04-19T13:33:24.322Z</time></trkpt><trkpt lat="42.7469626" lon="10.3929163"><ele>97.0</ele><time>2026-04-19T13:33:25.328Z</time></trkpt><trkpt lat="42.746924" lon="10.3928074"><ele>97.0</ele><time>2026-04-19T13:33:26.328Z</time></trkpt><trkpt lat="42.7468802" lon="10.3926894"><ele>99.19999999999999</ele><time>2026-04-19T13:33:27.322Z</time></trkpt><trkpt lat="42.7468288" lon="10.3925746"><ele>101.4</ele><time>2026-04-19T13:33:28.326Z</time></trkpt><trkpt lat="42.7467756" lon="10.3924745"><ele>103.60000000000001</ele><time>2026-04-19T13:33:29.321Z</time></trkpt><trkpt lat="42.7467104" lon="10.3923871"><ele>105.80000000000001</ele><time>2026-04-19T13:33:30.318Z</time></trkpt><trkpt lat="42.7466497" lon="10.3922937"><ele>108.0</ele><time>2026-04-19T13:33:31.321Z</time></trkpt><trkpt lat="42.7466054" lon="10.3921812"><ele>109.16666666666667</ele><time>2026-04-19T13:33:32.325Z</time></trkpt><trkpt lat="42.7465765" lon="10.3920651"><ele>110.33333333333334</ele><time>2026-04-19T13:33:33.321Z</time></trkpt><trkpt lat="42.7465434" lon="10.3919531"><ele>111.5</ele><time>2026-04-19T13:33:34.329Z</time></trkpt><trkpt lat="42.7465051" lon="10.3918496"><ele>112.66666666666667</ele><time>2026-04-19T13:33:35.322Z</time></trkpt><trkpt lat="42.7464585" lon="10.3917501"><ele>113.83333333333334</ele><time>2026-04-19T13:33:36.323Z</time></trkpt><trkpt lat="42.7464091" lon="10.3916457"><ele>115.0</ele><time>2026-04-19T13:33:37.326Z</time></trkpt><trkpt lat="42.7463624" lon="10.391534"><ele>115.00000000000001</ele><time>2026-04-19T13:33:38.322Z</time></trkpt><trkpt lat="42.7463161" lon="10.3914288"><ele>115.0</ele><time>2026-04-19T13:33:39.335Z</time></trkpt><trkpt lat="42.7462677" lon="10.3913271"><ele>115.0</ele><time>2026-04-19T13:33:40.325Z</time></trkpt><trkpt lat="42.7462222" lon="10.3912325"><ele>115.0</ele><time>2026-04-19T13:33:41.328Z</time></trkpt><trkpt lat="42.7461755" lon="10.3911476"><ele>115.00000000000001</ele><time>2026-04-19T13:33:42.327Z</time></trkpt><trkpt lat="42.7461353" lon="10.3910731"><ele>115.0</ele><time>2026-04-19T13:33:43.321Z</time></trkpt><trkpt lat="42.7460852" lon="10.3909615"><ele>117.6</ele><time>2026-04-19T13:33:45.32Z</time></trkpt><trkpt lat="42.7460408" lon="10.3908662"><ele>120.2</ele><time>2026-04-19T13:33:48.329Z</time></trkpt><trkpt lat="42.7460181" lon="10.390725"><ele>122.80000000000001</ele><time>2026-04-19T13:33:50.329Z</time></trkpt><trkpt lat="42.7460042" lon="10.390619"><ele>125.4</ele><time>2026-04-19T13:33:51.327Z</time></trkpt><trkpt lat="42.7459716" lon="10.3905005"><ele>128.0</ele><time>2026-04-19T13:33:52.324Z</time></trkpt><trkpt lat="42.7459266" lon="10.3903726"><ele>128.75</ele><time>2026-04-19T13:33:53.33Z</time></trkpt><trkpt lat="42.7458749" lon="10.3902434"><ele>129.5</ele><time>2026-04-19T13:33:54.324Z</time></trkpt><trkpt lat="42.7458185" lon="10.3901047"><ele>130.25</ele><time>2026-04-19T13:33:55.325Z</time></trkpt><trkpt lat="42.745758" lon="10.3899588"><ele>131.0</ele><time>2026-04-19T13:33:56.329Z</time></trkpt><trkpt lat="42.7456984" lon="10.3898158"><ele>130.2</ele><time>2026-04-19T13:33:57.325Z</time></trkpt><trkpt lat="42.7456384" lon="10.389675"><ele>129.39999999999998</ele><time>2026-04-19T13:33:58.328Z</time></trkpt><trkpt lat="42.745581" lon="10.3895404"><ele>128.6</ele><time>2026-04-19T13:33:59.325Z</time></trkpt><trkpt lat="42.7455234" lon="10.3894141"><ele>127.8</ele><time>2026-04-19T13:34:00.331Z</time></trkpt><trkpt lat="42.7454696" lon="10.3892964"><ele>127.0</ele><time>2026-04-19T13:34:01.329Z</time></trkpt><trkpt lat="42.7454058" lon="10.3891926"><ele>127.0</ele><time>2026-04-19T13:34:02.329Z</time></trkpt><trkpt lat="42.7453292" lon="10.3891091"><ele>126.99999999999999</ele><time>2026-04-19T13:34:03.323Z</time></trkpt><trkpt lat="42.7452363" lon="10.3890343"><ele>126.99999999999999</ele><time>2026-04-19T13:34:04.328Z</time></trkpt><trkpt lat="42.7451386" lon="10.3889481"><ele>127.0</ele><time>2026-04-19T13:34:05.324Z</time></trkpt><trkpt lat="42.7450522" lon="10.3888427"><ele>127.0</ele><time>2026-04-19T13:34:06.326Z</time></trkpt><trkpt lat="42.7449686" lon="10.3887318"><ele>127.8</ele><time>2026-04-19T13:34:07.325Z</time></trkpt><trkpt lat="42.7448884" lon="10.3886222"><ele>128.6</ele><time>2026-04-19T13:34:08.325Z</time></trkpt><trkpt lat="42.7448119" lon="10.3885103"><ele>129.39999999999998</ele><time>2026-04-19T13:34:09.318Z</time></trkpt><trkpt lat="42.7447496" lon="10.3883979"><ele>130.2</ele><time>2026-04-19T13:34:10.327Z</time></trkpt><trkpt lat="42.7446909" lon="10.3882856"><ele>131.0</ele><time>2026-04-19T13:34:11.326Z</time></trkpt><trkpt lat="42.7446317" lon="10.3881705"><ele>131.0</ele><time>2026-04-19T13:34:12.328Z</time></trkpt><trkpt lat="42.7445725" lon="10.3880584"><ele>131.0</ele><time>2026-04-19T13:34:13.327Z</time></trkpt><trkpt lat="42.7445036" lon="10.3879511"><ele>131.0</ele><time>2026-04-19T13:34:14.326Z</time></trkpt><trkpt lat="42.7444274" lon="10.3878489"><ele>131.0</ele><time>2026-04-19T13:34:15.325Z</time></trkpt><trkpt lat="42.7443394" lon="10.3877452"><ele>131.0</ele><time>2026-04-19T13:34:16.327Z</time></trkpt><trkpt lat="42.7442499" lon="10.387642"><ele>133.0</ele><time>2026-04-19T13:34:17.329Z</time></trkpt><trkpt lat="42.7441536" lon="10.3875337"><ele>135.0</ele><time>2026-04-19T13:34:18.33Z</time></trkpt><trkpt lat="42.744059" lon="10.387425"><ele>137.0</ele><time>2026-04-19T13:34:19.328Z</time></trkpt><trkpt lat="42.7439656" lon="10.3873204"><ele>139.0</ele><time>2026-04-19T13:34:20.32Z</time></trkpt><trkpt lat="42.7438744" lon="10.3872236"><ele>138.6</ele><time>2026-04-19T13:34:21.321Z</time></trkpt><trkpt lat="42.7437827" lon="10.3871337"><ele>138.2</ele><time>2026-04-19T13:34:22.329Z</time></trkpt><trkpt lat="42.7436886" lon="10.3870478"><ele>137.79999999999998</ele><time>2026-04-19T13:34:23.332Z</time></trkpt><trkpt lat="42.7435966" lon="10.3869604"><ele>137.4</ele><time>2026-04-19T13:34:24.33Z</time></trkpt><trkpt lat="42.7435137" lon="10.3868641"><ele>137.0</ele><time>2026-04-19T13:34:25.331Z</time></trkpt><trkpt lat="42.7434442" lon="10.3867541"><ele>139.6</ele><time>2026-04-19T13:34:26.331Z</time></trkpt><trkpt lat="42.7433845" lon="10.3866305"><ele>142.2</ele><time>2026-04-19T13:34:27.327Z</time></trkpt><trkpt lat="42.7433477" lon="10.3864984"><ele>144.8</ele><time>2026-04-19T13:34:28.336Z</time></trkpt><trkpt lat="42.7433366" lon="10.3863477"><ele>147.4</ele><time>2026-04-19T13:34:29.328Z</time></trkpt><trkpt lat="42.7433516" lon="10.3862058"><ele>150.0</ele><time>2026-04-19T13:34:30.335Z</time></trkpt><trkpt lat="42.7433962" lon="10.3860719"><ele>150.25</ele><time>2026-04-19T13:34:31.326Z</time></trkpt><trkpt lat="42.7434582" lon="10.3859333"><ele>150.5</ele><time>2026-04-19T13:34:32.332Z</time></trkpt><trkpt lat="42.7435282" lon="10.385798"><ele>150.75</ele><time>2026-04-19T13:34:33.335Z</time></trkpt><trkpt lat="42.7435934" lon="10.3856596"><ele>151.0</ele><time>2026-04-19T13:34:34.334Z</time></trkpt><trkpt lat="42.7436556" lon="10.3855173"><ele>151.0</ele><time>2026-04-19T13:34:35.335Z</time></trkpt><trkpt lat="42.7437091" lon="10.3853661"><ele>151.0</ele><time>2026-04-19T13:34:36.337Z</time></trkpt><trkpt lat="42.7437577" lon="10.3852188"><ele>151.0</ele><time>2026-04-19T13:34:37.325Z</time></trkpt><trkpt lat="42.7437962" lon="10.3850748"><ele>151.0</ele><time>2026-04-19T13:34:38.331Z</time></trkpt><trkpt lat="42.7438272" lon="10.3849359"><ele>151.0</ele><time>2026-04-19T13:34:39.326Z</time></trkpt><trkpt lat="42.7438493" lon="10.3847918"><ele>151.0</ele><time>2026-04-19T13:34:40.328Z</time></trkpt><trkpt lat="42.7438554" lon="10.3846442"><ele>151.0</ele><time>2026-04-19T13:34:41.345Z</time></trkpt><trkpt lat="42.7438403" lon="10.3844965"><ele>151.0</ele><time>2026-04-19T13:34:42.331Z</time></trkpt><trkpt lat="42.7438088" lon="10.3843513"><ele>151.0</ele><time>2026-04-19T13:34:43.335Z</time></trkpt><trkpt lat="42.7437767" lon="10.3842057"><ele>150.25</ele><time>2026-04-19T13:34:44.332Z</time></trkpt><trkpt lat="42.7437481" lon="10.3840544"><ele>149.5</ele><time>2026-04-19T13:34:45.339Z</time></trkpt><trkpt lat="42.7437177" lon="10.3839031"><ele>148.75</ele><time>2026-04-19T13:34:46.336Z</time></trkpt><trkpt lat="42.7436851" lon="10.383749"><ele>148.0</ele><time>2026-04-19T13:34:47.331Z</time></trkpt><trkpt lat="42.7436439" lon="10.383598"><ele>148.20000000000002</ele><time>2026-04-19T13:34:48.331Z</time></trkpt><trkpt lat="42.7436039" lon="10.3834472"><ele>148.4</ele><time>2026-04-19T13:34:49.321Z</time></trkpt><trkpt lat="42.7435686" lon="10.3833026"><ele>148.60000000000002</ele><time>2026-04-19T13:34:50.332Z</time></trkpt><trkpt lat="42.7435358" lon="10.383165"><ele>148.8</ele><time>2026-04-19T13:34:51.331Z</time></trkpt><trkpt lat="42.7434965" lon="10.383039"><ele>149.0</ele><time>2026-04-19T13:34:52.324Z</time></trkpt><trkpt lat="42.7434387" lon="10.3829308"><ele>149.0</ele><time>2026-04-19T13:34:53.33Z</time></trkpt><trkpt lat="42.7433643" lon="10.3828382"><ele>149.0</ele><time>2026-04-19T13:34:54.33Z</time></trkpt><trkpt lat="42.7432758" lon="10.3827551"><ele>149.0</ele><time>2026-04-19T13:34:55.329Z</time></trkpt><trkpt lat="42.7431957" lon="10.3826816"><ele>149.0</ele><time>2026-04-19T13:34:56.331Z</time></trkpt><trkpt lat="42.7431276" lon="10.3826237"><ele>149.0</ele><time>2026-04-19T13:34:57.325Z</time></trkpt><trkpt lat="42.7430498" lon="10.3825649"><ele>149.0</ele><time>2026-04-19T13:34:59.332Z</time></trkpt><trkpt lat="42.7429293" lon="10.3824827"><ele>149.0</ele><time>2026-04-19T13:35:17.324Z</time></trkpt><trkpt lat="42.7428588" lon="10.3824112"><ele>149.0</ele><time>2026-04-19T13:35:18.325Z</time></trkpt><trkpt lat="42.7428024" lon="10.3823251"><ele>149.0</ele><time>2026-04-19T13:35:19.32Z</time></trkpt><trkpt lat="42.7427912" lon="10.3822111"><ele>149.0</ele><time>2026-04-19T13:35:21.319Z</time></trkpt><trkpt lat="42.7428226" lon="10.3820795"><ele>149.33333333333331</ele><time>2026-04-19T13:35:23.325Z</time></trkpt><trkpt lat="42.7428301" lon="10.3819833"><ele>149.66666666666666</ele><time>2026-04-19T13:35:24.324Z</time></trkpt><trkpt lat="42.7428304" lon="10.3818769"><ele>150.0</ele><time>2026-04-19T13:35:25.33Z</time></trkpt><trkpt lat="42.7428269" lon="10.3817697"><ele>150.33333333333334</ele><time>2026-04-19T13:35:26.33Z</time></trkpt><trkpt lat="42.7428362" lon="10.3816824"><ele>150.66666666666669</ele><time>2026-04-19T13:35:27.321Z</time></trkpt><trkpt lat="42.742873" lon="10.3815665"><ele>151.0</ele><time>2026-04-19T13:35:29.327Z</time></trkpt><trkpt lat="42.7429128" lon="10.3814873"><ele>151.0</ele><time>2026-04-19T13:35:31.331Z</time></trkpt><trkpt lat="42.7428381" lon="10.3814711"><ele>151.0</ele><time>2026-04-19T13:35:35.323Z</time></trkpt><trkpt lat="42.7427984" lon="10.3815909"><ele>151.0</ele><time>2026-04-19T13:35:37.324Z</time></trkpt><trkpt lat="42.742747" lon="10.3816618"><ele>151.0</ele><time>2026-04-19T13:35:40.321Z</time></trkpt><trkpt lat="42.7426759" lon="10.3816523"><ele>151.0</ele><time>2026-04-19T13:35:44.332Z</time></trkpt><trkpt lat="42.742737" lon="10.3816982"><ele>151.0</ele><time>2026-04-19T13:43:20.336Z</time></trkpt><trkpt lat="42.7428032" lon="10.3816132"><ele>151.0</ele><time>2026-04-19T13:43:28.347Z</time></trkpt><trkpt lat="42.7428474" lon="10.3815397"><ele>151.0</ele><time>2026-04-19T13:43:30.341Z</time></trkpt><trkpt lat="42.7429047" lon="10.381493"><ele>151.0</ele><time>2026-04-19T13:43:32.341Z</time></trkpt><trkpt lat="42.7429923" lon="10.3814343"><ele>151.0</ele><time>2026-04-19T13:43:34.338Z</time></trkpt><trkpt lat="42.7430946" lon="10.381332"><ele>151.0</ele><time>2026-04-19T13:43:36.339Z</time></trkpt><trkpt lat="42.7431501" lon="10.3812669"><ele>151.0</ele><time>2026-04-19T13:43:37.337Z</time></trkpt><trkpt lat="42.7431981" lon="10.3812017"><ele>153.4</ele><time>2026-04-19T13:43:38.336Z</time></trkpt><trkpt lat="42.7432385" lon="10.3811343"><ele>155.8</ele><time>2026-04-19T13:43:39.342Z</time></trkpt><trkpt lat="42.7432866" lon="10.3810105"><ele>158.20000000000002</ele><time>2026-04-19T13:43:41.339Z</time></trkpt><trkpt lat="42.7433114" lon="10.3808746"><ele>160.6</ele><time>2026-04-19T13:43:43.338Z</time></trkpt><trkpt lat="42.7432804" lon="10.3807375"><ele>163.0</ele><time>2026-04-19T13:43:45.338Z</time></trkpt><trkpt lat="42.7431737" lon="10.3806818"><ele>163.0</ele><time>2026-04-19T13:43:47.338Z</time></trkpt><trkpt lat="42.7431052" lon="10.3806732"><ele>163.0</ele><time>2026-04-19T13:43:48.343Z</time></trkpt><trkpt lat="42.7429925" lon="10.3806282"><ele>163.0</ele><time>2026-04-19T13:43:50.338Z</time></trkpt><trkpt lat="42.74289" lon="10.3805672"><ele>163.0</ele><time>2026-04-19T13:43:52.333Z</time></trkpt><trkpt lat="42.7427869" lon="10.3805695"><ele>163.0</ele><time>2026-04-19T13:43:54.335Z</time></trkpt><trkpt lat="42.7427209" lon="10.3805881"><ele>163.83333333333334</ele><time>2026-04-19T13:43:55.339Z</time></trkpt><trkpt lat="42.7426573" lon="10.3806016"><ele>164.66666666666669</ele><time>2026-04-19T13:43:56.33Z</time></trkpt><trkpt lat="42.7425926" lon="10.3806038"><ele>165.5</ele><time>2026-04-19T13:43:57.326Z</time></trkpt><trkpt lat="42.7425264" lon="10.3805871"><ele>166.33333333333334</ele><time>2026-04-19T13:43:58.353Z</time></trkpt><trkpt lat="42.7424432" lon="10.3805585"><ele>167.16666666666666</ele><time>2026-04-19T13:43:59.332Z</time></trkpt><trkpt lat="42.7423572" lon="10.3805199"><ele>168.0</ele><time>2026-04-19T13:44:00.331Z</time></trkpt><trkpt lat="42.7422655" lon="10.3804767"><ele>165.75</ele><time>2026-04-19T13:44:01.325Z</time></trkpt><trkpt lat="42.7421623" lon="10.3804327"><ele>163.5</ele><time>2026-04-19T13:44:02.323Z</time></trkpt><trkpt lat="42.7420582" lon="10.3803829"><ele>161.25</ele><time>2026-04-19T13:44:03.319Z</time></trkpt><trkpt lat="42.7419472" lon="10.3803313"><ele>159.0</ele><time>2026-04-19T13:44:04.323Z</time></trkpt><trkpt lat="42.7418208" lon="10.3802818"><ele>159.0</ele><time>2026-04-19T13:44:05.319Z</time></trkpt><trkpt lat="42.7416942" lon="10.3802293"><ele>159.0</ele><time>2026-04-19T13:44:06.32Z</time></trkpt><trkpt lat="42.7415557" lon="10.3801831"><ele>159.0</ele><time>2026-04-19T13:44:07.319Z</time></trkpt><trkpt lat="42.7414191" lon="10.3801371"><ele>159.0</ele><time>2026-04-19T13:44:08.32Z</time></trkpt><trkpt lat="42.7412917" lon="10.3800832"><ele>159.0</ele><time>2026-04-19T13:44:09.32Z</time></trkpt><trkpt lat="42.7411598" lon="10.3800228"><ele>159.0</ele><time>2026-04-19T13:44:10.318Z</time></trkpt><trkpt lat="42.7410382" lon="10.3799548"><ele>159.0</ele><time>2026-04-19T13:44:11.321Z</time></trkpt><trkpt lat="42.7409245" lon="10.3798832"><ele>159.0</ele><time>2026-04-19T13:44:12.322Z</time></trkpt><trkpt lat="42.7408185" lon="10.3797988"><ele>156.25</ele><time>2026-04-19T13:44:13.325Z</time></trkpt><trkpt lat="42.740719" lon="10.3797168"><ele>153.5</ele><time>2026-04-19T13:44:14.328Z</time></trkpt><trkpt lat="42.7406274" lon="10.3796253"><ele>150.75</ele><time>2026-04-19T13:44:15.324Z</time></trkpt><trkpt lat="42.7405343" lon="10.3795373"><ele>148.0</ele><time>2026-04-19T13:44:16.325Z</time></trkpt><trkpt lat="42.7404371" lon="10.3794589"><ele>148.0</ele><time>2026-04-19T13:44:17.323Z</time></trkpt><trkpt lat="42.7403389" lon="10.3793968"><ele>148.0</ele><time>2026-04-19T13:44:18.326Z</time></trkpt><trkpt lat="42.7402444" lon="10.3793281"><ele>148.0</ele><time>2026-04-19T13:44:19.322Z</time></trkpt><trkpt lat="42.7401637" lon="10.3792455"><ele>148.0</ele><time>2026-04-19T13:44:20.328Z</time></trkpt><trkpt lat="42.7401051" lon="10.3791216"><ele>148.0</ele><time>2026-04-19T13:44:21.328Z</time></trkpt><trkpt lat="42.7400565" lon="10.3789835"><ele>149.0</ele><time>2026-04-19T13:44:22.323Z</time></trkpt><trkpt lat="42.7399905" lon="10.3788687"><ele>150.0</ele><time>2026-04-19T13:44:23.328Z</time></trkpt><trkpt lat="42.7399147" lon="10.3787984"><ele>151.0</ele><time>2026-04-19T13:44:24.327Z</time></trkpt><trkpt lat="42.7398265" lon="10.3787945"><ele>152.0</ele><time>2026-04-19T13:44:25.332Z</time></trkpt><trkpt lat="42.7397327" lon="10.378845"><ele>153.0</ele><time>2026-04-19T13:44:26.335Z</time></trkpt><trkpt lat="42.7396378" lon="10.3789354"><ele>154.25</ele><time>2026-04-19T13:44:27.332Z</time></trkpt><trkpt lat="42.7395409" lon="10.379046"><ele>155.5</ele><time>2026-04-19T13:44:28.338Z</time></trkpt><trkpt lat="42.7394397" lon="10.3791609"><ele>156.75</ele><time>2026-04-19T13:44:29.334Z</time></trkpt><trkpt lat="42.7393333" lon="10.3792622"><ele>158.0</ele><time>2026-04-19T13:44:30.33Z</time></trkpt><trkpt lat="42.7392316" lon="10.3793582"><ele>158.0</ele><time>2026-04-19T13:44:31.334Z</time></trkpt><trkpt lat="42.7391351" lon="10.3794594"><ele>158.0</ele><time>2026-04-19T13:44:32.321Z</time></trkpt><trkpt lat="42.7390471" lon="10.3795804"><ele>158.0</ele><time>2026-04-19T13:44:33.329Z</time></trkpt><trkpt lat="42.738971" lon="10.3797284"><ele>158.0</ele><time>2026-04-19T13:44:34.325Z</time></trkpt><trkpt lat="42.7389104" lon="10.3798847"><ele>158.60000000000002</ele><time>2026-04-19T13:44:35.323Z</time></trkpt><trkpt lat="42.7388424" lon="10.3800282"><ele>159.20000000000002</ele><time>2026-04-19T13:44:36.325Z</time></trkpt><trkpt lat="42.7387663" lon="10.3801285"><ele>159.8</ele><time>2026-04-19T13:44:37.324Z</time></trkpt><trkpt lat="42.7386788" lon="10.3801729"><ele>160.4</ele><time>2026-04-19T13:44:38.326Z</time></trkpt><trkpt lat="42.7385716" lon="10.3801722"><ele>161.0</ele><time>2026-04-19T13:44:39.328Z</time></trkpt><trkpt lat="42.7384451" lon="10.3801392"><ele>161.0</ele><time>2026-04-19T13:44:40.325Z</time></trkpt><trkpt lat="42.7383137" lon="10.3801077"><ele>161.0</ele><time>2026-04-19T13:44:41.324Z</time></trkpt><trkpt lat="42.7381898" lon="10.3800961"><ele>161.0</ele><time>2026-04-19T13:44:42.323Z</time></trkpt><trkpt lat="42.7380774" lon="10.3801024"><ele>161.0</ele><time>2026-04-19T13:44:43.318Z</time></trkpt><trkpt lat="42.7379704" lon="10.3801368"><ele>161.0</ele><time>2026-04-19T13:44:44.327Z</time></trkpt><trkpt lat="42.7378765" lon="10.3802114"><ele>161.0</ele><time>2026-04-19T13:44:45.326Z</time></trkpt><trkpt lat="42.7377965" lon="10.3803322"><ele>161.0</ele><time>2026-04-19T13:44:46.325Z</time></trkpt><trkpt lat="42.7377341" lon="10.3804735"><ele>161.0</ele><time>2026-04-19T13:44:47.318Z</time></trkpt><trkpt lat="42.7376879" lon="10.3806179"><ele>162.83333333333331</ele><time>2026-04-19T13:44:48.319Z</time></trkpt><trkpt lat="42.7376416" lon="10.3807396"><ele>164.66666666666666</ele><time>2026-04-19T13:44:49.323Z</time></trkpt><trkpt lat="42.7375907" lon="10.3808378"><ele>166.5</ele><time>2026-04-19T13:44:50.326Z</time></trkpt><trkpt lat="42.7375372" lon="10.380888"><ele>168.33333333333334</ele><time>2026-04-19T13:44:51.325Z</time></trkpt><trkpt lat="42.7374739" lon="10.3808981"><ele>170.16666666666669</ele><time>2026-04-19T13:44:52.325Z</time></trkpt><trkpt lat="42.7374093" lon="10.3808687"><ele>172.0</ele><time>2026-04-19T13:44:53.323Z</time></trkpt><trkpt lat="42.7373312" lon="10.3807998"><ele>172.0</ele><time>2026-04-19T13:44:54.315Z</time></trkpt><trkpt lat="42.7372348" lon="10.3807142"><ele>172.0</ele><time>2026-04-19T13:44:55.313Z</time></trkpt><trkpt lat="42.7371203" lon="10.3806385"><ele>172.0</ele><time>2026-04-19T13:44:56.317Z</time></trkpt><trkpt lat="42.7369958" lon="10.3805706"><ele>172.0</ele><time>2026-04-19T13:44:57.317Z</time></trkpt><trkpt lat="42.7368643" lon="10.3805271"><ele>173.25</ele><time>2026-04-19T13:44:58.324Z</time></trkpt><trkpt lat="42.7367354" lon="10.3805032"><ele>174.5</ele><time>2026-04-19T13:44:59.324Z</time></trkpt><trkpt lat="42.7366059" lon="10.3804905"><ele>175.75</ele><time>2026-04-19T13:45:00.325Z</time></trkpt><trkpt lat="42.7364725" lon="10.3805006"><ele>177.0</ele><time>2026-04-19T13:45:01.321Z</time></trkpt><trkpt lat="42.7363378" lon="10.3805265"><ele>177.0</ele><time>2026-04-19T13:45:02.317Z</time></trkpt><trkpt lat="42.7362038" lon="10.3805411"><ele>177.0</ele><time>2026-04-19T13:45:03.317Z</time></trkpt><trkpt lat="42.7360813" lon="10.3805183"><ele>177.0</ele><time>2026-04-19T13:45:04.317Z</time></trkpt><trkpt lat="42.7359624" lon="10.3804652"><ele>177.0</ele><time>2026-04-19T13:45:05.32Z</time></trkpt><trkpt lat="42.7358494" lon="10.3803943"><ele>170.0</ele><time>2026-04-19T13:45:06.317Z</time></trkpt><trkpt lat="42.7357269" lon="10.3803274"><ele>163.0</ele><time>2026-04-19T13:45:07.313Z</time></trkpt><trkpt lat="42.7355949" lon="10.3802748"><ele>156.0</ele><time>2026-04-19T13:45:08.32Z</time></trkpt><trkpt lat="42.7354498" lon="10.3802329"><ele>149.0</ele><time>2026-04-19T13:45:09.326Z</time></trkpt><trkpt lat="42.7352966" lon="10.3802054"><ele>150.33333333333331</ele><time>2026-04-19T13:45:10.324Z</time></trkpt><trkpt lat="42.7351382" lon="10.3801926"><ele>151.66666666666666</ele><time>2026-04-19T13:45:11.326Z</time></trkpt><trkpt lat="42.7349835" lon="10.3801841"><ele>153.0</ele><time>2026-04-19T13:45:12.324Z</time></trkpt><trkpt lat="42.7348337" lon="10.3801877"><ele>153.0</ele><time>2026-04-19T13:45:13.325Z</time></trkpt><trkpt lat="42.7347064" lon="10.3801986"><ele>153.0</ele><time>2026-04-19T13:45:14.328Z</time></trkpt><trkpt lat="42.7345922" lon="10.3802107"><ele>153.0</ele><time>2026-04-19T13:45:15.327Z</time></trkpt><trkpt lat="42.7344866" lon="10.3802416"><ele>153.0</ele><time>2026-04-19T13:45:16.324Z</time></trkpt><trkpt lat="42.7343952" lon="10.3803008"><ele>151.8</ele><time>2026-04-19T13:45:17.329Z</time></trkpt><trkpt lat="42.7343228" lon="10.380384"><ele>150.60000000000002</ele><time>2026-04-19T13:45:18.33Z</time></trkpt><trkpt lat="42.7342774" lon="10.3805057"><ele>149.39999999999998</ele><time>2026-04-19T13:45:19.327Z</time></trkpt><trkpt lat="42.7342495" lon="10.3806557"><ele>148.2</ele><time>2026-04-19T13:45:20.329Z</time></trkpt><trkpt lat="42.7342575" lon="10.3808154"><ele>147.0</ele><time>2026-04-19T13:45:21.326Z</time></trkpt><trkpt lat="42.7342713" lon="10.3809927"><ele>147.0</ele><time>2026-04-19T13:45:22.326Z</time></trkpt><trkpt lat="42.7342733" lon="10.3811928"><ele>147.0</ele><time>2026-04-19T13:45:23.327Z</time></trkpt><trkpt lat="42.7342531" lon="10.3814121"><ele>147.0</ele><time>2026-04-19T13:45:24.322Z</time></trkpt><trkpt lat="42.7342343" lon="10.3816243"><ele>150.5</ele><time>2026-04-19T13:45:25.329Z</time></trkpt><trkpt lat="42.7342177" lon="10.3818161"><ele>154.0</ele><time>2026-04-19T13:45:26.325Z</time></trkpt><trkpt lat="42.7342289" lon="10.3820138"><ele>157.5</ele><time>2026-04-19T13:45:27.318Z</time></trkpt><trkpt lat="42.7342538" lon="10.3821906"><ele>161.0</ele><time>2026-04-19T13:45:28.321Z</time></trkpt><trkpt lat="42.7342966" lon="10.3823444"><ele>162.60000000000002</ele><time>2026-04-19T13:45:29.316Z</time></trkpt><trkpt lat="42.7343188" lon="10.382482"><ele>164.2</ele><time>2026-04-19T13:45:30.323Z</time></trkpt><trkpt lat="42.7343112" lon="10.3826189"><ele>165.8</ele><time>2026-04-19T13:45:31.312Z</time></trkpt><trkpt lat="42.7342718" lon="10.3827372"><ele>167.39999999999998</ele><time>2026-04-19T13:45:32.316Z</time></trkpt><trkpt lat="42.7342151" lon="10.3828542"><ele>169.0</ele><time>2026-04-19T13:45:33.316Z</time></trkpt><trkpt lat="42.7341612" lon="10.3829884"><ele>170.5</ele><time>2026-04-19T13:45:34.317Z</time></trkpt><trkpt lat="42.7341312" lon="10.3831163"><ele>172.0</ele><time>2026-04-19T13:45:35.314Z</time></trkpt><trkpt lat="42.7341309" lon="10.3832283"><ele>173.5</ele><time>2026-04-19T13:45:36.309Z</time></trkpt><trkpt lat="42.7341393" lon="10.3833323"><ele>175.0</ele><time>2026-04-19T13:45:37.316Z</time></trkpt><trkpt lat="42.7340947" lon="10.3834603"><ele>176.5</ele><time>2026-04-19T13:45:39.317Z</time></trkpt><trkpt lat="42.7340295" lon="10.3834753"><ele>178.0</ele><time>2026-04-19T13:45:40.317Z</time></trkpt><trkpt lat="42.7339507" lon="10.3834517"><ele>178.0</ele><time>2026-04-19T13:45:41.315Z</time></trkpt><trkpt lat="42.7338601" lon="10.3833829"><ele>178.0</ele><time>2026-04-19T13:45:42.312Z</time></trkpt><trkpt lat="42.7337546" lon="10.3832755"><ele>178.0</ele><time>2026-04-19T13:45:43.313Z</time></trkpt><trkpt lat="42.7336533" lon="10.3831364"><ele>178.0</ele><time>2026-04-19T13:45:44.307Z</time></trkpt><trkpt lat="42.7335432" lon="10.3829783"><ele>171.33333333333334</ele><time>2026-04-19T13:45:45.308Z</time></trkpt><trkpt lat="42.7334075" lon="10.3828164"><ele>164.66666666666666</ele><time>2026-04-19T13:45:46.313Z</time></trkpt><trkpt lat="42.7332633" lon="10.3826577"><ele>158.0</ele><time>2026-04-19T13:45:47.316Z</time></trkpt><trkpt lat="42.7331254" lon="10.3824968"><ele>158.0</ele><time>2026-04-19T13:45:48.316Z</time></trkpt><trkpt lat="42.7329943" lon="10.3823511"><ele>158.0</ele><time>2026-04-19T13:45:49.321Z</time></trkpt><trkpt lat="42.732863" lon="10.3822225"><ele>158.0</ele><time>2026-04-19T13:45:50.316Z</time></trkpt><trkpt lat="42.7327339" lon="10.3821136"><ele>155.75</ele><time>2026-04-19T13:45:51.317Z</time></trkpt><trkpt lat="42.7326039" lon="10.3820259"><ele>153.5</ele><time>2026-04-19T13:45:52.317Z</time></trkpt><trkpt lat="42.7324849" lon="10.3819523"><ele>151.25</ele><time>2026-04-19T13:45:53.317Z</time></trkpt><trkpt lat="42.7323717" lon="10.381928"><ele>149.0</ele><time>2026-04-19T13:45:54.319Z</time></trkpt><trkpt lat="42.7322664" lon="10.3819397"><ele>149.0</ele><time>2026-04-19T13:45:55.322Z</time></trkpt><trkpt lat="42.7321768" lon="10.3819891"><ele>149.0</ele><time>2026-04-19T13:45:56.323Z</time></trkpt><trkpt lat="42.7320886" lon="10.3820523"><ele>149.0</ele><time>2026-04-19T13:45:57.318Z</time></trkpt><trkpt lat="42.7320068" lon="10.3820687"><ele>149.0</ele><time>2026-04-19T13:45:58.318Z</time></trkpt><trkpt lat="42.7319505" lon="10.382028"><ele>149.0</ele><time>2026-04-19T13:45:59.321Z</time></trkpt><trkpt lat="42.7319111" lon="10.3819412"><ele>149.0</ele><time>2026-04-19T13:46:00.312Z</time></trkpt><trkpt lat="42.7318615" lon="10.3818243"><ele>150.5</ele><time>2026-04-19T13:46:01.324Z</time></trkpt><trkpt lat="42.7318107" lon="10.3816837"><ele>152.0</ele><time>2026-04-19T13:46:02.313Z</time></trkpt><trkpt lat="42.7317534" lon="10.3815218"><ele>153.5</ele><time>2026-04-19T13:46:03.317Z</time></trkpt><trkpt lat="42.7316898" lon="10.3813531"><ele>155.0</ele><time>2026-04-19T13:46:04.316Z</time></trkpt><trkpt lat="42.7316094" lon="10.3811856"><ele>155.0</ele><time>2026-04-19T13:46:05.32Z</time></trkpt><trkpt lat="42.7315173" lon="10.3810252"><ele>155.0</ele><time>2026-04-19T13:46:06.322Z</time></trkpt><trkpt lat="42.7314221" lon="10.3808792"><ele>155.0</ele><time>2026-04-19T13:46:07.321Z</time></trkpt><trkpt lat="42.7313408" lon="10.3807433"><ele>155.0</ele><time>2026-04-19T13:46:08.32Z</time></trkpt><trkpt lat="42.7312709" lon="10.3806279"><ele>155.0</ele><time>2026-04-19T13:46:09.328Z</time></trkpt><trkpt lat="42.7311998" lon="10.3805325"><ele>155.0</ele><time>2026-04-19T13:46:10.328Z</time></trkpt><trkpt lat="42.7311217" lon="10.3804772"><ele>155.0</ele><time>2026-04-19T13:46:11.335Z</time></trkpt><trkpt lat="42.7310338" lon="10.3804728"><ele>155.0</ele><time>2026-04-19T13:46:12.336Z</time></trkpt><trkpt lat="42.7309387" lon="10.380511"><ele>155.0</ele><time>2026-04-19T13:46:13.335Z</time></trkpt><trkpt lat="42.7308356" lon="10.3805676"><ele>158.75</ele><time>2026-04-19T13:46:14.339Z</time></trkpt><trkpt lat="42.7307256" lon="10.380649"><ele>162.5</ele><time>2026-04-19T13:46:15.333Z</time></trkpt><trkpt lat="42.7306063" lon="10.3807396"><ele>166.25</ele><time>2026-04-19T13:46:16.331Z</time></trkpt><trkpt lat="42.7304822" lon="10.3808137"><ele>170.0</ele><time>2026-04-19T13:46:17.33Z</time></trkpt><trkpt lat="42.7303588" lon="10.3808476"><ele>170.0</ele><time>2026-04-19T13:46:18.334Z</time></trkpt><trkpt lat="42.7302367" lon="10.3808167"><ele>170.0</ele><time>2026-04-19T13:46:19.329Z</time></trkpt><trkpt lat="42.7301107" lon="10.3807489"><ele>170.0</ele><time>2026-04-19T13:46:20.333Z</time></trkpt><trkpt lat="42.7299803" lon="10.3806796"><ele>170.0</ele><time>2026-04-19T13:46:21.334Z</time></trkpt><trkpt lat="42.7298547" lon="10.380633"><ele>169.25</ele><time>2026-04-19T13:46:22.331Z</time></trkpt><trkpt lat="42.7297385" lon="10.3806192"><ele>168.5</ele><time>2026-04-19T13:46:23.333Z</time></trkpt><trkpt lat="42.7296254" lon="10.380651"><ele>167.75</ele><time>2026-04-19T13:46:24.337Z</time></trkpt><trkpt lat="42.7295077" lon="10.3807266"><ele>167.0</ele><time>2026-04-19T13:46:25.34Z</time></trkpt><trkpt lat="42.7293779" lon="10.3808294"><ele>162.66666666666666</ele><time>2026-04-19T13:46:26.331Z</time></trkpt><trkpt lat="42.7292325" lon="10.3809609"><ele>158.33333333333334</ele><time>2026-04-19T13:46:27.33Z</time></trkpt><trkpt lat="42.7290884" lon="10.3811017"><ele>154.0</ele><time>2026-04-19T13:46:28.334Z</time></trkpt><trkpt lat="42.7289468" lon="10.3812352"><ele>154.0</ele><time>2026-04-19T13:46:29.33Z</time></trkpt><trkpt lat="42.7288125" lon="10.381354"><ele>154.0</ele><time>2026-04-19T13:46:30.329Z</time></trkpt><trkpt lat="42.7286919" lon="10.3814608"><ele>154.0</ele><time>2026-04-19T13:46:31.325Z</time></trkpt><trkpt lat="42.7285829" lon="10.3815752"><ele>154.0</ele><time>2026-04-19T13:46:32.332Z</time></trkpt><trkpt lat="42.728472" lon="10.3816785"><ele>154.0</ele><time>2026-04-19T13:46:33.327Z</time></trkpt><trkpt lat="42.7283614" lon="10.3817687"><ele>154.0</ele><time>2026-04-19T13:46:34.327Z</time></trkpt><trkpt lat="42.7282717" lon="10.3818603"><ele>154.0</ele><time>2026-04-19T13:46:35.326Z</time></trkpt><trkpt lat="42.7281984" lon="10.3819688"><ele>154.0</ele><time>2026-04-19T13:46:36.329Z</time></trkpt><trkpt lat="42.7281618" lon="10.3821201"><ele>158.5</ele><time>2026-04-19T13:46:37.326Z</time></trkpt><trkpt lat="42.7281384" lon="10.3822829"><ele>163.0</ele><time>2026-04-19T13:46:38.329Z</time></trkpt><trkpt lat="42.7281276" lon="10.3824633"><ele>167.5</ele><time>2026-04-19T13:46:39.329Z</time></trkpt><trkpt lat="42.7281051" lon="10.3826565"><ele>172.0</ele><time>2026-04-19T13:46:40.324Z</time></trkpt><trkpt lat="42.7280668" lon="10.3828668"><ele>173.5</ele><time>2026-04-19T13:46:41.326Z</time></trkpt><trkpt lat="42.7280177" lon="10.3830393"><ele>175.0</ele><time>2026-04-19T13:46:42.325Z</time></trkpt><trkpt lat="42.7279843" lon="10.3831899"><ele>176.5</ele><time>2026-04-19T13:46:43.324Z</time></trkpt><trkpt lat="42.7279804" lon="10.3833397"><ele>178.0</ele><time>2026-04-19T13:46:44.319Z</time></trkpt><trkpt lat="42.7280199" lon="10.3834996"><ele>178.0</ele><time>2026-04-19T13:46:45.325Z</time></trkpt><trkpt lat="42.7280828" lon="10.3836647"><ele>178.0</ele><time>2026-04-19T13:46:46.322Z</time></trkpt><trkpt lat="42.728152" lon="10.3838442"><ele>178.0</ele><time>2026-04-19T13:46:47.319Z</time></trkpt><trkpt lat="42.7281853" lon="10.3840225"><ele>178.0</ele><time>2026-04-19T13:46:48.324Z</time></trkpt><trkpt lat="42.7282032" lon="10.384205"><ele>178.0</ele><time>2026-04-19T13:46:49.321Z</time></trkpt><trkpt lat="42.7281874" lon="10.3843796"><ele>178.0</ele><time>2026-04-19T13:46:50.316Z</time></trkpt><trkpt lat="42.7281377" lon="10.3845495"><ele>178.0</ele><time>2026-04-19T13:46:51.318Z</time></trkpt><trkpt lat="42.7280764" lon="10.3847204"><ele>178.0</ele><time>2026-04-19T13:46:52.329Z</time></trkpt><trkpt lat="42.7280266" lon="10.3849215"><ele>180.33333333333334</ele><time>2026-04-19T13:46:53.322Z</time></trkpt><trkpt lat="42.7279992" lon="10.3851432"><ele>182.66666666666666</ele><time>2026-04-19T13:46:54.321Z</time></trkpt><trkpt lat="42.7279887" lon="10.3853951"><ele>185.0</ele><time>2026-04-19T13:46:55.323Z</time></trkpt><trkpt lat="42.7279556" lon="10.3856428"><ele>188.0</ele><time>2026-04-19T13:46:56.33Z</time></trkpt><trkpt lat="42.7278986" lon="10.3858682"><ele>191.0</ele><time>2026-04-19T13:46:57.324Z</time></trkpt><trkpt lat="42.7278371" lon="10.3860823"><ele>194.0</ele><time>2026-04-19T13:46:58.327Z</time></trkpt><trkpt lat="42.7277718" lon="10.3862765"><ele>183.66666666666669</ele><time>2026-04-19T13:46:59.325Z</time></trkpt><trkpt lat="42.7276906" lon="10.3864498"><ele>173.33333333333334</ele><time>2026-04-19T13:47:00.327Z</time></trkpt><trkpt lat="42.7275967" lon="10.3866169"><ele>163.0</ele><time>2026-04-19T13:47:01.338Z</time></trkpt><trkpt lat="42.7275102" lon="10.3867882"><ele>163.0</ele><time>2026-04-19T13:47:02.328Z</time></trkpt><trkpt lat="42.7274465" lon="10.3869768"><ele>163.0</ele><time>2026-04-19T13:47:03.321Z</time></trkpt><trkpt lat="42.7273981" lon="10.3871622"><ele>163.0</ele><time>2026-04-19T13:47:04.328Z</time></trkpt><trkpt lat="42.7273573" lon="10.387333"><ele>163.0</ele><time>2026-04-19T13:47:05.326Z</time></trkpt><trkpt lat="42.7273208" lon="10.3874795"><ele>165.8</ele><time>2026-04-19T13:47:06.319Z</time></trkpt><trkpt lat="42.7272955" lon="10.3876071"><ele>168.60000000000002</ele><time>2026-04-19T13:47:07.321Z</time></trkpt><trkpt lat="42.7273065" lon="10.3877293"><ele>171.39999999999998</ele><time>2026-04-19T13:47:08.321Z</time></trkpt><trkpt lat="42.7273565" lon="10.3878416"><ele>174.2</ele><time>2026-04-19T13:47:09.322Z</time></trkpt><trkpt lat="42.7274083" lon="10.3879579"><ele>177.0</ele><time>2026-04-19T13:47:10.316Z</time></trkpt><trkpt lat="42.7274351" lon="10.3880613"><ele>177.0</ele><time>2026-04-19T13:47:11.319Z</time></trkpt><trkpt lat="42.7274249" lon="10.3881483"><ele>177.0</ele><time>2026-04-19T13:47:12.316Z</time></trkpt><trkpt lat="42.7273117" lon="10.3881989"><ele>177.0</ele><time>2026-04-19T13:47:14.32Z</time></trkpt><trkpt lat="42.7272297" lon="10.3881715"><ele>177.0</ele><time>2026-04-19T13:47:15.32Z</time></trkpt><trkpt lat="42.7271422" lon="10.3881035"><ele>177.0</ele><time>2026-04-19T13:47:16.317Z</time></trkpt><trkpt lat="42.7270629" lon="10.3879949"><ele>177.0</ele><time>2026-04-19T13:47:17.317Z</time></trkpt><trkpt lat="42.7269805" lon="10.3878457"><ele>177.0</ele><time>2026-04-19T13:47:18.315Z</time></trkpt><trkpt lat="42.7269045" lon="10.3876631"><ele>177.0</ele><time>2026-04-19T13:47:19.317Z</time></trkpt><trkpt lat="42.7268377" lon="10.3874478"><ele>177.66666666666666</ele><time>2026-04-19T13:47:20.318Z</time></trkpt><trkpt lat="42.7267632" lon="10.3872215"><ele>178.33333333333331</ele><time>2026-04-19T13:47:21.318Z</time></trkpt><trkpt lat="42.726689" lon="10.3870123"><ele>179.0</ele><time>2026-04-19T13:47:22.32Z</time></trkpt><trkpt lat="42.7266232" lon="10.386809"><ele>175.0</ele><time>2026-04-19T13:47:23.319Z</time></trkpt><trkpt lat="42.726568" lon="10.3866258"><ele>171.0</ele><time>2026-04-19T13:47:24.316Z</time></trkpt><trkpt lat="42.7265253" lon="10.3864508"><ele>167.0</ele><time>2026-04-19T13:47:25.316Z</time></trkpt><trkpt lat="42.7264941" lon="10.3862807"><ele>163.0</ele><time>2026-04-19T13:47:26.313Z</time></trkpt><trkpt lat="42.7264945" lon="10.386115"><ele>161.25</ele><time>2026-04-19T13:47:27.318Z</time></trkpt><trkpt lat="42.7265184" lon="10.3859495"><ele>159.5</ele><time>2026-04-19T13:47:28.318Z</time></trkpt><trkpt lat="42.7265177" lon="10.385775"><ele>157.75</ele><time>2026-04-19T13:47:29.321Z</time></trkpt><trkpt lat="42.7264921" lon="10.3855933"><ele>156.0</ele><time>2026-04-19T13:47:30.324Z</time></trkpt><trkpt lat="42.7264582" lon="10.3854157"><ele>152.0</ele><time>2026-04-19T13:47:31.32Z</time></trkpt><trkpt lat="42.7264158" lon="10.3852447"><ele>148.0</ele><time>2026-04-19T13:47:32.32Z</time></trkpt><trkpt lat="42.7263537" lon="10.3850767"><ele>144.0</ele><time>2026-04-19T13:47:33.317Z</time></trkpt><trkpt lat="42.7262752" lon="10.3849183"><ele>140.0</ele><time>2026-04-19T13:47:34.328Z</time></trkpt><trkpt lat="42.726179" lon="10.3847522"><ele>134.75</ele><time>2026-04-19T13:47:35.323Z</time></trkpt><trkpt lat="42.726098" lon="10.384568"><ele>129.5</ele><time>2026-04-19T13:47:36.321Z</time></trkpt><trkpt lat="42.7260302" lon="10.3843893"><ele>124.25</ele><time>2026-04-19T13:47:37.322Z</time></trkpt><trkpt lat="42.725975" lon="10.3842117"><ele>119.0</ele><time>2026-04-19T13:47:38.316Z</time></trkpt><trkpt lat="42.7258976" lon="10.3840473"><ele>127.0</ele><time>2026-04-19T13:47:39.321Z</time></trkpt><trkpt lat="42.725796" lon="10.3838904"><ele>135.0</ele><time>2026-04-19T13:47:40.332Z</time></trkpt><trkpt lat="42.7256806" lon="10.383725"><ele>143.0</ele><time>2026-04-19T13:47:41.332Z</time></trkpt><trkpt lat="42.7255632" lon="10.3835582"><ele>143.0</ele><time>2026-04-19T13:47:42.329Z</time></trkpt><trkpt lat="42.7254637" lon="10.3833722"><ele>143.0</ele><time>2026-04-19T13:47:43.331Z</time></trkpt><trkpt lat="42.7253826" lon="10.3831987"><ele>143.0</ele><time>2026-04-19T13:47:44.332Z</time></trkpt><trkpt lat="42.7253173" lon="10.3830122"><ele>137.5</ele><time>2026-04-19T13:47:45.328Z</time></trkpt><trkpt lat="42.725253" lon="10.3828304"><ele>132.0</ele><time>2026-04-19T13:47:46.323Z</time></trkpt><trkpt lat="42.7252187" lon="10.382656"><ele>126.5</ele><time>2026-04-19T13:47:47.331Z</time></trkpt><trkpt lat="42.7251824" lon="10.3824891"><ele>121.0</ele><time>2026-04-19T13:47:48.341Z</time></trkpt><trkpt lat="42.7251468" lon="10.3823178"><ele>127.6</ele><time>2026-04-19T13:47:49.343Z</time></trkpt><trkpt lat="42.7251143" lon="10.3821505"><ele>134.2</ele><time>2026-04-19T13:47:50.34Z</time></trkpt><trkpt lat="42.7250759" lon="10.3819971"><ele>140.8</ele><time>2026-04-19T13:47:51.341Z</time></trkpt><trkpt lat="42.7250292" lon="10.3818726"><ele>147.4</ele><time>2026-04-19T13:47:52.343Z</time></trkpt><trkpt lat="42.7249816" lon="10.3818039"><ele>154.0</ele><time>2026-04-19T13:47:53.347Z</time></trkpt><trkpt lat="42.7249177" lon="10.3817699"><ele>154.0</ele><time>2026-04-19T13:47:54.351Z</time></trkpt><trkpt lat="42.7248521" lon="10.3817691"><ele>154.0</ele><time>2026-04-19T13:47:55.356Z</time></trkpt><trkpt lat="42.7247909" lon="10.381812"><ele>154.0</ele><time>2026-04-19T13:47:56.361Z</time></trkpt><trkpt lat="42.7247223" lon="10.3819015"><ele>154.0</ele><time>2026-04-19T13:47:57.349Z</time></trkpt><trkpt lat="42.7246518" lon="10.3820416"><ele>154.0</ele><time>2026-04-19T13:47:58.346Z</time></trkpt><trkpt lat="42.7245856" lon="10.3822172"><ele>158.33333333333334</ele><time>2026-04-19T13:47:59.351Z</time></trkpt><trkpt lat="42.7245267" lon="10.3824152"><ele>162.66666666666666</ele><time>2026-04-19T13:48:00.346Z</time></trkpt><trkpt lat="42.7244717" lon="10.3826411"><ele>167.0</ele><time>2026-04-19T13:48:01.348Z</time></trkpt><trkpt lat="42.7244116" lon="10.3828044"><ele>168.2</ele><time>2026-04-19T13:48:02.347Z</time></trkpt><trkpt lat="42.7243389" lon="10.3828986"><ele>169.39999999999998</ele><time>2026-04-19T13:48:03.349Z</time></trkpt><trkpt lat="42.7242485" lon="10.3829229"><ele>170.60000000000002</ele><time>2026-04-19T13:48:04.339Z</time></trkpt><trkpt lat="42.7241395" lon="10.3829528"><ele>171.8</ele><time>2026-04-19T13:48:05.349Z</time></trkpt><trkpt lat="42.7240331" lon="10.3830126"><ele>173.0</ele><time>2026-04-19T13:48:06.347Z</time></trkpt><trkpt lat="42.7239399" lon="10.383122"><ele>173.0</ele><time>2026-04-19T13:48:07.349Z</time></trkpt><trkpt lat="42.7238399" lon="10.3832496"><ele>173.0</ele><time>2026-04-19T13:48:08.344Z</time></trkpt><trkpt lat="42.7237317" lon="10.383374"><ele>173.0</ele><time>2026-04-19T13:48:09.337Z</time></trkpt><trkpt lat="42.7236094" lon="10.3834943"><ele>173.0</ele><time>2026-04-19T13:48:10.341Z</time></trkpt><trkpt lat="42.7234808" lon="10.3835917"><ele>172.75</ele><time>2026-04-19T13:48:11.34Z</time></trkpt><trkpt lat="42.7233596" lon="10.3836673"><ele>172.5</ele><time>2026-04-19T13:48:12.343Z</time></trkpt><trkpt lat="42.7232617" lon="10.3837506"><ele>172.25</ele><time>2026-04-19T13:48:13.333Z</time></trkpt><trkpt lat="42.7231849" lon="10.3838482"><ele>172.0</ele><time>2026-04-19T13:48:14.336Z</time></trkpt><trkpt lat="42.7231258" lon="10.3839845"><ele>172.0</ele><time>2026-04-19T13:48:15.341Z</time></trkpt><trkpt lat="42.723089" lon="10.3841187"><ele>172.0</ele><time>2026-04-19T13:48:16.341Z</time></trkpt><trkpt lat="42.7230532" lon="10.3842392"><ele>172.0</ele><time>2026-04-19T13:48:17.342Z</time></trkpt><trkpt lat="42.7230258" lon="10.3843371"><ele>172.0</ele><time>2026-04-19T13:48:18.346Z</time></trkpt><trkpt lat="42.7230066" lon="10.38449"><ele>172.0</ele><time>2026-04-19T13:48:20.341Z</time></trkpt><trkpt lat="42.7230274" lon="10.384652"><ele>173.2</ele><time>2026-04-19T13:48:22.344Z</time></trkpt><trkpt lat="42.7230395" lon="10.3847529"><ele>174.39999999999998</ele><time>2026-04-19T13:48:23.343Z</time></trkpt><trkpt lat="42.7230516" lon="10.3848688"><ele>175.60000000000002</ele><time>2026-04-19T13:48:24.339Z</time></trkpt><trkpt lat="42.7230765" lon="10.3850034"><ele>176.8</ele><time>2026-04-19T13:48:25.339Z</time></trkpt><trkpt lat="42.7231093" lon="10.3851451"><ele>178.0</ele><time>2026-04-19T13:48:26.334Z</time></trkpt><trkpt lat="42.7231441" lon="10.3852885"><ele>178.0</ele><time>2026-04-19T13:48:27.341Z</time></trkpt><trkpt lat="42.7231899" lon="10.3854197"><ele>178.0</ele><time>2026-04-19T13:48:28.338Z</time></trkpt><trkpt lat="42.7232463" lon="10.3855472"><ele>178.0</ele><time>2026-04-19T13:48:29.347Z</time></trkpt><trkpt lat="42.7232995" lon="10.385673"><ele>178.0</ele><time>2026-04-19T13:48:30.344Z</time></trkpt><trkpt lat="42.7233365" lon="10.3857945"><ele>178.0</ele><time>2026-04-19T13:48:31.341Z</time></trkpt><trkpt lat="42.7233541" lon="10.3859206"><ele>178.4</ele><time>2026-04-19T13:48:32.339Z</time></trkpt><trkpt lat="42.7233614" lon="10.386057"><ele>178.8</ele><time>2026-04-19T13:48:33.339Z</time></trkpt><trkpt lat="42.7233601" lon="10.386203"><ele>179.2</ele><time>2026-04-19T13:48:34.345Z</time></trkpt><trkpt lat="42.7233635" lon="10.3863439"><ele>179.6</ele><time>2026-04-19T13:48:35.338Z</time></trkpt><trkpt lat="42.7233757" lon="10.386477"><ele>180.0</ele><time>2026-04-19T13:48:36.35Z</time></trkpt><trkpt lat="42.723404" lon="10.3866002"><ele>180.6</ele><time>2026-04-19T13:48:37.336Z</time></trkpt><trkpt lat="42.7234371" lon="10.3867093"><ele>181.2</ele><time>2026-04-19T13:48:38.346Z</time></trkpt><trkpt lat="42.7234754" lon="10.3868229"><ele>181.8</ele><time>2026-04-19T13:48:39.344Z</time></trkpt><trkpt lat="42.7235108" lon="10.3869436"><ele>182.4</ele><time>2026-04-19T13:48:40.338Z</time></trkpt><trkpt lat="42.7235376" lon="10.3870546"><ele>183.0</ele><time>2026-04-19T13:48:41.341Z</time></trkpt><trkpt lat="42.7235489" lon="10.3871766"><ele>183.5</ele><time>2026-04-19T13:48:42.345Z</time></trkpt><trkpt lat="42.7235543" lon="10.3872945"><ele>184.0</ele><time>2026-04-19T13:48:43.343Z</time></trkpt><trkpt lat="42.7235658" lon="10.3874097"><ele>184.5</ele><time>2026-04-19T13:48:44.341Z</time></trkpt><trkpt lat="42.7235847" lon="10.3875212"><ele>185.0</ele><time>2026-04-19T13:48:45.337Z</time></trkpt><trkpt lat="42.7236195" lon="10.3876223"><ele>185.5</ele><time>2026-04-19T13:48:46.341Z</time></trkpt><trkpt lat="42.7236729" lon="10.3877187"><ele>186.0</ele><time>2026-04-19T13:48:47.344Z</time></trkpt><trkpt lat="42.7237295" lon="10.3878167"><ele>192.4</ele><time>2026-04-19T13:48:48.34Z</time></trkpt><trkpt lat="42.7237761" lon="10.3879082"><ele>198.8</ele><time>2026-04-19T13:48:49.333Z</time></trkpt><trkpt lat="42.7238035" lon="10.3879878"><ele>205.20000000000002</ele><time>2026-04-19T13:48:50.338Z</time></trkpt><trkpt lat="42.7237628" lon="10.3881608"><ele>211.60000000000002</ele><time>2026-04-19T13:48:52.338Z</time></trkpt><trkpt lat="42.7237087" lon="10.3882552"><ele>218.0</ele><time>2026-04-19T13:48:53.335Z</time></trkpt><trkpt lat="42.7236529" lon="10.3883581"><ele>218.00000000000003</ele><time>2026-04-19T13:48:54.327Z</time></trkpt><trkpt lat="42.7236112" lon="10.3884801"><ele>218.0</ele><time>2026-04-19T13:48:55.341Z</time></trkpt><trkpt lat="42.7236037" lon="10.3886172"><ele>218.0</ele><time>2026-04-19T13:48:56.337Z</time></trkpt><trkpt lat="42.7236146" lon="10.3887414"><ele>218.0</ele><time>2026-04-19T13:48:57.338Z</time></trkpt><trkpt lat="42.7236485" lon="10.3888371"><ele>218.00000000000003</ele><time>2026-04-19T13:48:58.337Z</time></trkpt><trkpt lat="42.7236957" lon="10.3889223"><ele>218.0</ele><time>2026-04-19T13:48:59.337Z</time></trkpt><trkpt lat="42.7237569" lon="10.3889993"><ele>220.0</ele><time>2026-04-19T13:49:00.338Z</time></trkpt><trkpt lat="42.7238226" lon="10.3890754"><ele>222.0</ele><time>2026-04-19T13:49:01.331Z</time></trkpt><trkpt lat="42.723873" lon="10.3891517"><ele>224.0</ele><time>2026-04-19T13:49:02.33Z</time></trkpt><trkpt lat="42.7238908" lon="10.3892825"><ele>226.0</ele><time>2026-04-19T13:49:04.332Z</time></trkpt><trkpt lat="42.7238076" lon="10.3894374"><ele>228.0</ele><time>2026-04-19T13:49:06.337Z</time></trkpt><trkpt lat="42.7237533" lon="10.3895239"><ele>228.0</ele><time>2026-04-19T13:49:07.348Z</time></trkpt><trkpt lat="42.7237041" lon="10.3896301"><ele>228.0</ele><time>2026-04-19T13:49:08.339Z</time></trkpt><trkpt lat="42.7236666" lon="10.3897526"><ele>228.0</ele><time>2026-04-19T13:49:09.347Z</time></trkpt><trkpt lat="42.7236471" lon="10.3898988"><ele>228.0</ele><time>2026-04-19T13:49:10.344Z</time></trkpt><trkpt lat="42.7236558" lon="10.3900664"><ele>228.0</ele><time>2026-04-19T13:49:11.34Z</time></trkpt><trkpt lat="42.7236731" lon="10.3902167"><ele>230.2</ele><time>2026-04-19T13:49:12.335Z</time></trkpt><trkpt lat="42.7237025" lon="10.3903629"><ele>232.4</ele><time>2026-04-19T13:49:13.336Z</time></trkpt><trkpt lat="42.7237395" lon="10.390487"><ele>234.59999999999997</ele><time>2026-04-19T13:49:14.334Z</time></trkpt><trkpt lat="42.723782" lon="10.390593"><ele>236.79999999999998</ele><time>2026-04-19T13:49:15.333Z</time></trkpt><trkpt lat="42.7238208" lon="10.3906959"><ele>239.0</ele><time>2026-04-19T13:49:16.336Z</time></trkpt><trkpt lat="42.7238251" lon="10.3908404"><ele>241.0</ele><time>2026-04-19T13:49:18.337Z</time></trkpt><trkpt lat="42.7237539" lon="10.3908996"><ele>242.99999999999997</ele><time>2026-04-19T13:49:19.33Z</time></trkpt><trkpt lat="42.7236544" lon="10.3909523"><ele>244.99999999999997</ele><time>2026-04-19T13:49:20.325Z</time></trkpt><trkpt lat="42.7235398" lon="10.3910119"><ele>247.0</ele><time>2026-04-19T13:49:21.334Z</time></trkpt><trkpt lat="42.7234301" lon="10.3911086"><ele>249.0</ele><time>2026-04-19T13:49:22.331Z</time></trkpt><trkpt lat="42.7233261" lon="10.3912332"><ele>246.0</ele><time>2026-04-19T13:49:23.325Z</time></trkpt><trkpt lat="42.7232369" lon="10.3913602"><ele>243.0</ele><time>2026-04-19T13:49:24.338Z</time></trkpt><trkpt lat="42.7231838" lon="10.3915062"><ele>240.0</ele><time>2026-04-19T13:49:25.344Z</time></trkpt><trkpt lat="42.7231507" lon="10.3916571"><ele>237.0</ele><time>2026-04-19T13:49:26.349Z</time></trkpt><trkpt lat="42.7231461" lon="10.3918005"><ele>237.0</ele><time>2026-04-19T13:49:27.346Z</time></trkpt><trkpt lat="42.7231833" lon="10.3919393"><ele>237.0</ele><time>2026-04-19T13:49:28.345Z</time></trkpt><trkpt lat="42.723258" lon="10.3920504"><ele>237.0</ele><time>2026-04-19T13:49:29.34Z</time></trkpt><trkpt lat="42.7233344" lon="10.3921715"><ele>237.0</ele><time>2026-04-19T13:49:30.342Z</time></trkpt><trkpt lat="42.7234075" lon="10.3923116"><ele>235.25</ele><time>2026-04-19T13:49:31.335Z</time></trkpt><trkpt lat="42.7234848" lon="10.39246"><ele>233.5</ele><time>2026-04-19T13:49:32.334Z</time></trkpt><trkpt lat="42.7235633" lon="10.3926008"><ele>231.75</ele><time>2026-04-19T13:49:33.333Z</time></trkpt><trkpt lat="42.7236518" lon="10.3927528"><ele>230.0</ele><time>2026-04-19T13:49:34.331Z</time></trkpt><trkpt lat="42.7237347" lon="10.3929014"><ele>238.5</ele><time>2026-04-19T13:49:35.333Z</time></trkpt><trkpt lat="42.7238016" lon="10.3930552"><ele>247.0</ele><time>2026-04-19T13:49:36.334Z</time></trkpt><trkpt lat="42.7238587" lon="10.3932137"><ele>255.5</ele><time>2026-04-19T13:49:37.328Z</time></trkpt><trkpt lat="42.7239096" lon="10.3933703"><ele>264.0</ele><time>2026-04-19T13:49:38.333Z</time></trkpt><trkpt lat="42.7239691" lon="10.3935151"><ele>264.0</ele><time>2026-04-19T13:49:39.332Z</time></trkpt><trkpt lat="42.7240287" lon="10.3936467"><ele>264.0</ele><time>2026-04-19T13:49:40.329Z</time></trkpt><trkpt lat="42.7240918" lon="10.3937884"><ele>264.0</ele><time>2026-04-19T13:49:41.328Z</time></trkpt><trkpt lat="42.7241458" lon="10.3939338"><ele>264.0</ele><time>2026-04-19T13:49:42.322Z</time></trkpt><trkpt lat="42.7241909" lon="10.3940927"><ele>263.0</ele><time>2026-04-19T13:49:43.326Z</time></trkpt><trkpt lat="42.7242295" lon="10.3942608"><ele>262.0</ele><time>2026-04-19T13:49:44.328Z</time></trkpt><trkpt lat="42.7242604" lon="10.3944302"><ele>261.0</ele><time>2026-04-19T13:49:45.325Z</time></trkpt><trkpt lat="42.7242871" lon="10.3945851"><ele>260.0</ele><time>2026-04-19T13:49:46.325Z</time></trkpt><trkpt lat="42.7243048" lon="10.3947263"><ele>260.0</ele><time>2026-04-19T13:49:47.32Z</time></trkpt><trkpt lat="42.724309" lon="10.3948557"><ele>260.0</ele><time>2026-04-19T13:49:48.333Z</time></trkpt><trkpt lat="42.7242879" lon="10.3949688"><ele>260.0</ele><time>2026-04-19T13:49:49.336Z</time></trkpt><trkpt lat="42.7242466" lon="10.3950594"><ele>260.0</ele><time>2026-04-19T13:49:50.336Z</time></trkpt><trkpt lat="42.7241688" lon="10.3951405"><ele>260.0</ele><time>2026-04-19T13:49:51.336Z</time></trkpt><trkpt lat="42.7240631" lon="10.3952336"><ele>260.0</ele><time>2026-04-19T13:49:52.327Z</time></trkpt><trkpt lat="42.7239534" lon="10.3953302"><ele>260.0</ele><time>2026-04-19T13:49:53.33Z</time></trkpt><trkpt lat="42.7238526" lon="10.3954179"><ele>260.0</ele><time>2026-04-19T13:49:54.332Z</time></trkpt><trkpt lat="42.7237723" lon="10.3955151"><ele>260.0</ele><time>2026-04-19T13:49:55.334Z</time></trkpt><trkpt lat="42.7237255" lon="10.3956219"><ele>260.0</ele><time>2026-04-19T13:49:56.336Z</time></trkpt><trkpt lat="42.7237104" lon="10.3957469"><ele>263.0</ele><time>2026-04-19T13:49:57.337Z</time></trkpt><trkpt lat="42.7237283" lon="10.3958961"><ele>266.0</ele><time>2026-04-19T13:49:58.344Z</time></trkpt><trkpt lat="42.7237743" lon="10.3960768"><ele>269.0</ele><time>2026-04-19T13:49:59.339Z</time></trkpt><trkpt lat="42.7238284" lon="10.3962475"><ele>272.0</ele><time>2026-04-19T13:50:00.337Z</time></trkpt><trkpt lat="42.7238801" lon="10.3964177"><ele>272.0</ele><time>2026-04-19T13:50:01.331Z</time></trkpt><trkpt lat="42.7239477" lon="10.3966004"><ele>272.0</ele><time>2026-04-19T13:50:02.334Z</time></trkpt><trkpt lat="42.7240298" lon="10.3967853"><ele>272.0</ele><time>2026-04-19T13:50:03.34Z</time></trkpt><trkpt lat="42.7241115" lon="10.396975"><ele>272.0</ele><time>2026-04-19T13:50:04.336Z</time></trkpt><trkpt lat="42.7241915" lon="10.3971546"><ele>272.0</ele><time>2026-04-19T13:50:05.335Z</time></trkpt><trkpt lat="42.7242745" lon="10.3973114"><ele>272.0</ele><time>2026-04-19T13:50:06.337Z</time></trkpt><trkpt lat="42.7243346" lon="10.3974766"><ele>272.0</ele><time>2026-04-19T13:50:07.337Z</time></trkpt><trkpt lat="42.7243597" lon="10.3976375"><ele>269.25</ele><time>2026-04-19T13:50:08.33Z</time></trkpt><trkpt lat="42.7243745" lon="10.3978082"><ele>266.5</ele><time>2026-04-19T13:50:09.34Z</time></trkpt><trkpt lat="42.7243906" lon="10.3979833"><ele>263.75</ele><time>2026-04-19T13:50:10.332Z</time></trkpt><trkpt lat="42.7244061" lon="10.398162"><ele>261.0</ele><time>2026-04-19T13:50:11.328Z</time></trkpt><trkpt lat="42.7244116" lon="10.3983342"><ele>261.40000000000003</ele><time>2026-04-19T13:50:12.325Z</time></trkpt><trkpt lat="42.7243904" lon="10.398497"><ele>261.8</ele><time>2026-04-19T13:50:13.329Z</time></trkpt><trkpt lat="42.7243547" lon="10.3986522"><ele>262.20000000000005</ele><time>2026-04-19T13:50:14.328Z</time></trkpt><trkpt lat="42.7243216" lon="10.3987943"><ele>262.6</ele><time>2026-04-19T13:50:15.336Z</time></trkpt><trkpt lat="42.7243135" lon="10.398904"><ele>263.0</ele><time>2026-04-19T13:50:16.334Z</time></trkpt><trkpt lat="42.724341" lon="10.3989962"><ele>269.6</ele><time>2026-04-19T13:50:17.336Z</time></trkpt><trkpt lat="42.7244136" lon="10.3990861"><ele>276.20000000000005</ele><time>2026-04-19T13:50:18.34Z</time></trkpt><trkpt lat="42.7245108" lon="10.3991778"><ele>282.8</ele><time>2026-04-19T13:50:19.335Z</time></trkpt><trkpt lat="42.7245878" lon="10.3992695"><ele>289.40000000000003</ele><time>2026-04-19T13:50:20.337Z</time></trkpt><trkpt lat="42.7246383" lon="10.3993958"><ele>296.0</ele><time>2026-04-19T13:50:21.336Z</time></trkpt><trkpt lat="42.7246472" lon="10.3995416"><ele>295.33333333333337</ele><time>2026-04-19T13:50:22.329Z</time></trkpt><trkpt lat="42.7246309" lon="10.399729"><ele>294.6666666666667</ele><time>2026-04-19T13:50:23.334Z</time></trkpt><trkpt lat="42.724613" lon="10.3999399"><ele>294.0</ele><time>2026-04-19T13:50:24.336Z</time></trkpt><trkpt lat="42.7245935" lon="10.4001527"><ele>294.0</ele><time>2026-04-19T13:50:25.337Z</time></trkpt><trkpt lat="42.7245685" lon="10.400319"><ele>294.0</ele><time>2026-04-19T13:50:26.332Z</time></trkpt><trkpt lat="42.7245607" lon="10.4004719"><ele>294.0</ele><time>2026-04-19T13:50:27.332Z</time></trkpt><trkpt lat="42.7245756" lon="10.4006369"><ele>294.0</ele><time>2026-04-19T13:50:28.332Z</time></trkpt><trkpt lat="42.7246293" lon="10.4008009"><ele>294.59999999999997</ele><time>2026-04-19T13:50:29.336Z</time></trkpt><trkpt lat="42.7246836" lon="10.4009163"><ele>295.2</ele><time>2026-04-19T13:50:30.336Z</time></trkpt><trkpt lat="42.7246944" lon="10.4010122"><ele>295.79999999999995</ele><time>2026-04-19T13:50:31.328Z</time></trkpt><trkpt lat="42.724619" lon="10.4011268"><ele>296.4</ele><time>2026-04-19T13:50:33.335Z</time></trkpt><trkpt lat="42.7245476" lon="10.4011529"><ele>297.0</ele><time>2026-04-19T13:50:34.335Z</time></trkpt><trkpt lat="42.7244491" lon="10.4011942"><ele>292.2</ele><time>2026-04-19T13:50:35.335Z</time></trkpt><trkpt lat="42.7243501" lon="10.401263"><ele>287.4</ele><time>2026-04-19T13:50:36.331Z</time></trkpt><trkpt lat="42.7242824" lon="10.4013551"><ele>282.6</ele><time>2026-04-19T13:50:37.336Z</time></trkpt><trkpt lat="42.7242558" lon="10.401476"><ele>277.8</ele><time>2026-04-19T13:50:38.344Z</time></trkpt><trkpt lat="42.7242797" lon="10.4016182"><ele>273.0</ele><time>2026-04-19T13:50:39.338Z</time></trkpt><trkpt lat="42.7243344" lon="10.4017809"><ele>281.25</ele><time>2026-04-19T13:50:40.34Z</time></trkpt><trkpt lat="42.7244025" lon="10.4019586"><ele>289.5</ele><time>2026-04-19T13:50:41.336Z</time></trkpt><trkpt lat="42.7244601" lon="10.4021405"><ele>297.75</ele><time>2026-04-19T13:50:42.336Z</time></trkpt><trkpt lat="42.7244954" lon="10.4023173"><ele>306.0</ele><time>2026-04-19T13:50:43.336Z</time></trkpt><trkpt lat="42.7245095" lon="10.4024863"><ele>308.25</ele><time>2026-04-19T13:50:44.334Z</time></trkpt><trkpt lat="42.7245067" lon="10.4026711"><ele>310.5</ele><time>2026-04-19T13:50:45.339Z</time></trkpt><trkpt lat="42.7244888" lon="10.4028635"><ele>312.75</ele><time>2026-04-19T13:50:46.332Z</time></trkpt><trkpt lat="42.7244657" lon="10.403044"><ele>315.0</ele><time>2026-04-19T13:50:47.333Z</time></trkpt><trkpt lat="42.7244515" lon="10.4032261"><ele>314.75</ele><time>2026-04-19T13:50:48.337Z</time></trkpt><trkpt lat="42.7244598" lon="10.4034114"><ele>314.5</ele><time>2026-04-19T13:50:49.34Z</time></trkpt><trkpt lat="42.724472" lon="10.4035928"><ele>314.25</ele><time>2026-04-19T13:50:50.334Z</time></trkpt><trkpt lat="42.7244535" lon="10.4037729"><ele>314.0</ele><time>2026-04-19T13:50:51.334Z</time></trkpt><trkpt lat="42.7244185" lon="10.4039436"><ele>314.0</ele><time>2026-04-19T13:50:52.336Z</time></trkpt><trkpt lat="42.7243897" lon="10.4040787"><ele>314.0</ele><time>2026-04-19T13:50:53.339Z</time></trkpt><trkpt lat="42.7243823" lon="10.4042021"><ele>314.0</ele><time>2026-04-19T13:50:54.333Z</time></trkpt><trkpt lat="42.7243985" lon="10.4043295"><ele>314.0</ele><time>2026-04-19T13:50:55.34Z</time></trkpt><trkpt lat="42.7244528" lon="10.404442"><ele>314.0</ele><time>2026-04-19T13:50:56.342Z</time></trkpt><trkpt lat="42.724531" lon="10.4045395"><ele>314.0</ele><time>2026-04-19T13:50:57.343Z</time></trkpt><trkpt lat="42.7246352" lon="10.4046252"><ele>314.0</ele><time>2026-04-19T13:50:58.344Z</time></trkpt><trkpt lat="42.7247485" lon="10.4046708"><ele>314.0</ele><time>2026-04-19T13:50:59.337Z</time></trkpt><trkpt lat="42.7248635" lon="10.404684"><ele>314.0</ele><time>2026-04-19T13:51:00.336Z</time></trkpt><trkpt lat="42.7249861" lon="10.4046753"><ele>314.0</ele><time>2026-04-19T13:51:01.329Z</time></trkpt><trkpt lat="42.7251163" lon="10.4046329"><ele>314.0</ele><time>2026-04-19T13:51:02.324Z</time></trkpt><trkpt lat="42.7252634" lon="10.4045813"><ele>314.0</ele><time>2026-04-19T13:51:03.325Z</time></trkpt><trkpt lat="42.7254247" lon="10.404518"><ele>316.25</ele><time>2026-04-19T13:51:04.327Z</time></trkpt><trkpt lat="42.7255794" lon="10.4044574"><ele>318.5</ele><time>2026-04-19T13:51:05.322Z</time></trkpt><trkpt lat="42.7257202" lon="10.4044021"><ele>320.75</ele><time>2026-04-19T13:51:06.322Z</time></trkpt><trkpt lat="42.7258324" lon="10.4043392"><ele>323.0</ele><time>2026-04-19T13:51:07.315Z</time></trkpt><trkpt lat="42.7259249" lon="10.4042695"><ele>323.0</ele><time>2026-04-19T13:51:08.319Z</time></trkpt><trkpt lat="42.7260131" lon="10.4042079"><ele>323.0</ele><time>2026-04-19T13:51:09.323Z</time></trkpt><trkpt lat="42.7261185" lon="10.4041435"><ele>323.0</ele><time>2026-04-19T13:51:10.321Z</time></trkpt><trkpt lat="42.7262175" lon="10.4040836"><ele>323.0</ele><time>2026-04-19T13:51:11.322Z</time></trkpt><trkpt lat="42.7263122" lon="10.4040226"><ele>323.0</ele><time>2026-04-19T13:51:12.317Z</time></trkpt><trkpt lat="42.726394" lon="10.4039638"><ele>324.33333333333337</ele><time>2026-04-19T13:51:13.32Z</time></trkpt><trkpt lat="42.7264657" lon="10.4038987"><ele>325.6666666666667</ele><time>2026-04-19T13:51:14.318Z</time></trkpt><trkpt lat="42.7265266" lon="10.4038366"><ele>327.0</ele><time>2026-04-19T13:51:15.32Z</time></trkpt><trkpt lat="42.7265803" lon="10.4037703"><ele>328.3333333333333</ele><time>2026-04-19T13:51:16.323Z</time></trkpt><trkpt lat="42.7266321" lon="10.4037065"><ele>329.66666666666663</ele><time>2026-04-19T13:51:17.316Z</time></trkpt><trkpt lat="42.726723" lon="10.4036648"><ele>331.0</ele><time>2026-04-19T13:51:19.322Z</time></trkpt><trkpt lat="42.7267741" lon="10.4038001"><ele>331.0</ele><time>2026-04-19T13:51:21.321Z</time></trkpt><trkpt lat="42.7267828" lon="10.4039294"><ele>331.0</ele><time>2026-04-19T13:51:22.319Z</time></trkpt><trkpt lat="42.726782" lon="10.4040812"><ele>331.0</ele><time>2026-04-19T13:51:23.326Z</time></trkpt><trkpt lat="42.7267944" lon="10.4042364"><ele>331.0</ele><time>2026-04-19T13:51:24.329Z</time></trkpt><trkpt lat="42.7268228" lon="10.4043527"><ele>331.0</ele><time>2026-04-19T13:51:25.335Z</time></trkpt><trkpt lat="42.7268824" lon="10.4044405"><ele>332.0</ele><time>2026-04-19T13:51:26.336Z</time></trkpt><trkpt lat="42.7269587" lon="10.4045113"><ele>333.0</ele><time>2026-04-19T13:51:27.329Z</time></trkpt><trkpt lat="42.7270196" lon="10.4045732"><ele>334.0</ele><time>2026-04-19T13:51:28.335Z</time></trkpt><trkpt lat="42.7270397" lon="10.4047308"><ele>335.0</ele><time>2026-04-19T13:51:30.334Z</time></trkpt><trkpt lat="42.726978" lon="10.4048278"><ele>336.0</ele><time>2026-04-19T13:51:31.326Z</time></trkpt><trkpt lat="42.7268875" lon="10.4049279"><ele>336.0</ele><time>2026-04-19T13:51:32.332Z</time></trkpt><trkpt lat="42.7268184" lon="10.4050174"><ele>336.0</ele><time>2026-04-19T13:51:33.339Z</time></trkpt><trkpt lat="42.726762" lon="10.4050864"><ele>336.0</ele><time>2026-04-19T13:51:34.332Z</time></trkpt><trkpt lat="42.7266907" lon="10.405198"><ele>336.0</ele><time>2026-04-19T13:51:36.326Z</time></trkpt><trkpt lat="42.7266626" lon="10.4052916"><ele>336.0</ele><time>2026-04-19T13:51:38.341Z</time></trkpt><trkpt lat="42.7265723" lon="10.4052857"><ele>336.0</ele><time>2026-04-19T13:53:03.343Z</time></trkpt><trkpt lat="42.7264786" lon="10.4053278"><ele>336.0</ele><time>2026-04-19T13:53:05.345Z</time></trkpt><trkpt lat="42.7264005" lon="10.4054248"><ele>336.0</ele><time>2026-04-19T13:53:07.345Z</time></trkpt><trkpt lat="42.7263778" lon="10.4055231"><ele>336.0</ele><time>2026-04-19T13:53:47.343Z</time></trkpt><trkpt lat="42.7263866" lon="10.4056506"><ele>336.0</ele><time>2026-04-19T13:53:49.342Z</time></trkpt><trkpt lat="42.7264252" lon="10.4057384"><ele>336.0</ele><time>2026-04-19T13:53:50.344Z</time></trkpt><trkpt lat="42.7264773" lon="10.4058048"><ele>336.0</ele><time>2026-04-19T13:53:51.342Z</time></trkpt><trkpt lat="42.7265369" lon="10.405853"><ele>336.6666666666667</ele><time>2026-04-19T13:53:52.342Z</time></trkpt><trkpt lat="42.7265986" lon="10.4058896"><ele>337.3333333333333</ele><time>2026-04-19T13:53:53.332Z</time></trkpt><trkpt lat="42.726666" lon="10.4059065"><ele>338.0</ele><time>2026-04-19T13:53:54.339Z</time></trkpt><trkpt lat="42.7267496" lon="10.4059406"><ele>338.66666666666663</ele><time>2026-04-19T13:53:56.338Z</time></trkpt><trkpt lat="42.7267717" lon="10.4060517"><ele>339.3333333333333</ele><time>2026-04-19T13:54:01.339Z</time></trkpt><trkpt lat="42.7267289" lon="10.4061235"><ele>340.0</ele><time>2026-04-19T13:54:03.335Z</time></trkpt><trkpt lat="42.7266166" lon="10.406201"><ele>340.0</ele><time>2026-04-19T13:54:05.336Z</time></trkpt><trkpt lat="42.7265372" lon="10.4062554"><ele>340.0</ele><time>2026-04-19T13:54:06.328Z</time></trkpt><trkpt lat="42.7264464" lon="10.4063153"><ele>340.0</ele><time>2026-04-19T13:54:07.329Z</time></trkpt><trkpt lat="42.7263643" lon="10.4063618"><ele>340.0</ele><time>2026-04-19T13:54:08.329Z</time></trkpt><trkpt lat="42.7262926" lon="10.4063942"><ele>340.0</ele><time>2026-04-19T13:54:09.337Z</time></trkpt><trkpt lat="42.7262221" lon="10.4064317"><ele>340.0</ele><time>2026-04-19T13:54:10.338Z</time></trkpt><trkpt lat="42.7261521" lon="10.4064837"><ele>340.0</ele><time>2026-04-19T13:54:11.335Z</time></trkpt><trkpt lat="42.7260945" lon="10.4065501"><ele>340.0</ele><time>2026-04-19T13:54:12.336Z</time></trkpt><trkpt lat="42.7260517" lon="10.4066292"><ele>340.0</ele><time>2026-04-19T13:54:13.334Z</time></trkpt><trkpt lat="42.7260273" lon="10.4067306"><ele>340.0</ele><time>2026-04-19T13:54:14.345Z</time></trkpt><trkpt lat="42.7260081" lon="10.4068259"><ele>340.0</ele><time>2026-04-19T13:54:15.336Z</time></trkpt><trkpt lat="42.7259965" lon="10.4069227"><ele>340.0</ele><time>2026-04-19T13:54:16.347Z</time></trkpt><trkpt lat="42.7259872" lon="10.4070123"><ele>340.0</ele><time>2026-04-19T13:54:17.336Z</time></trkpt><trkpt lat="42.7259822" lon="10.4071189"><ele>339.2</ele><time>2026-04-19T13:54:18.338Z</time></trkpt><trkpt lat="42.725986" lon="10.4072414"><ele>338.4</ele><time>2026-04-19T13:54:19.34Z</time></trkpt><trkpt lat="42.726005" lon="10.4073633"><ele>337.6</ele><time>2026-04-19T13:54:20.339Z</time></trkpt><trkpt lat="42.7260382" lon="10.4074776"><ele>336.8</ele><time>2026-04-19T13:54:21.337Z</time></trkpt><trkpt lat="42.7260855" lon="10.4075982"><ele>336.0</ele><time>2026-04-19T13:54:22.34Z</time></trkpt><trkpt lat="42.7261343" lon="10.4077198"><ele>336.0</ele><time>2026-04-19T13:54:23.337Z</time></trkpt><trkpt lat="42.7261686" lon="10.4078444"><ele>336.0</ele><time>2026-04-19T13:54:24.336Z</time></trkpt><trkpt lat="42.7261974" lon="10.407973"><ele>336.0</ele><time>2026-04-19T13:54:25.34Z</time></trkpt><trkpt lat="42.7262326" lon="10.4081004"><ele>336.0</ele><time>2026-04-19T13:54:26.33Z</time></trkpt><trkpt lat="42.7262881" lon="10.4082301"><ele>336.0</ele><time>2026-04-19T13:54:27.33Z</time></trkpt><trkpt lat="42.7263524" lon="10.4083594"><ele>333.8</ele><time>2026-04-19T13:54:28.337Z</time></trkpt><trkpt lat="42.7264076" lon="10.4084691"><ele>331.6</ele><time>2026-04-19T13:54:29.336Z</time></trkpt><trkpt lat="42.7264532" lon="10.4085553"><ele>329.4</ele><time>2026-04-19T13:54:30.335Z</time></trkpt><trkpt lat="42.7264884" lon="10.4086373"><ele>327.2</ele><time>2026-04-19T13:54:31.342Z</time></trkpt><trkpt lat="42.7264558" lon="10.4087844"><ele>325.0</ele><time>2026-04-19T13:54:33.336Z</time></trkpt><trkpt lat="42.7263916" lon="10.4088771"><ele>324.8333333333333</ele><time>2026-04-19T13:54:34.336Z</time></trkpt><trkpt lat="42.7263168" lon="10.4089619"><ele>324.66666666666663</ele><time>2026-04-19T13:54:35.332Z</time></trkpt><trkpt lat="42.7262324" lon="10.4090325"><ele>324.5</ele><time>2026-04-19T13:54:36.334Z</time></trkpt><trkpt lat="42.726146" lon="10.4090752"><ele>324.3333333333333</ele><time>2026-04-19T13:54:37.339Z</time></trkpt><trkpt lat="42.7260696" lon="10.4091121"><ele>324.1666666666667</ele><time>2026-04-19T13:54:38.338Z</time></trkpt><trkpt lat="42.7260034" lon="10.4091704"><ele>324.0</ele><time>2026-04-19T13:54:39.343Z</time></trkpt><trkpt lat="42.7259476" lon="10.4092499"><ele>318.8</ele><time>2026-04-19T13:54:40.336Z</time></trkpt><trkpt lat="42.7259083" lon="10.4093547"><ele>313.59999999999997</ele><time>2026-04-19T13:54:41.331Z</time></trkpt><trkpt lat="42.7258883" lon="10.40949"><ele>308.4</ele><time>2026-04-19T13:54:42.338Z</time></trkpt><trkpt lat="42.7259087" lon="10.4096138"><ele>303.2</ele><time>2026-04-19T13:54:43.331Z</time></trkpt><trkpt lat="42.7259566" lon="10.409725"><ele>298.0</ele><time>2026-04-19T13:54:44.337Z</time></trkpt><trkpt lat="42.7260242" lon="10.4098448"><ele>302.0</ele><time>2026-04-19T13:54:45.344Z</time></trkpt><trkpt lat="42.7261104" lon="10.4099664"><ele>306.0</ele><time>2026-04-19T13:54:46.341Z</time></trkpt><trkpt lat="42.726202" lon="10.4100697"><ele>310.0</ele><time>2026-04-19T13:54:47.354Z</time></trkpt><trkpt lat="42.7263012" lon="10.4101584"><ele>314.0</ele><time>2026-04-19T13:54:48.34Z</time></trkpt><trkpt lat="42.7264081" lon="10.4102286"><ele>314.0</ele><time>2026-04-19T13:54:49.341Z</time></trkpt><trkpt lat="42.7265294" lon="10.4102959"><ele>314.0</ele><time>2026-04-19T13:54:50.334Z</time></trkpt><trkpt lat="42.7266496" lon="10.4103568"><ele>314.0</ele><time>2026-04-19T13:54:51.33Z</time></trkpt><trkpt lat="42.7267498" lon="10.4104177"><ele>314.0</ele><time>2026-04-19T13:54:52.336Z</time></trkpt><trkpt lat="42.7268262" lon="10.4104933"><ele>314.8</ele><time>2026-04-19T13:54:53.338Z</time></trkpt><trkpt lat="42.7268843" lon="10.4105857"><ele>315.59999999999997</ele><time>2026-04-19T13:54:54.328Z</time></trkpt><trkpt lat="42.7269215" lon="10.4106763"><ele>316.4</ele><time>2026-04-19T13:54:55.332Z</time></trkpt><trkpt lat="42.7269065" lon="10.410844"><ele>317.2</ele><time>2026-04-19T13:54:57.337Z</time></trkpt><trkpt lat="42.7269272" lon="10.4109926"><ele>318.0</ele><time>2026-04-19T13:54:59.337Z</time></trkpt><trkpt lat="42.7269801" lon="10.4110639"><ele>318.0</ele><time>2026-04-19T13:55:00.336Z</time></trkpt><trkpt lat="42.7270457" lon="10.4111139"><ele>318.0</ele><time>2026-04-19T13:55:01.334Z</time></trkpt><trkpt lat="42.7271034" lon="10.4111559"><ele>318.0</ele><time>2026-04-19T13:55:02.336Z</time></trkpt><trkpt lat="42.7271523" lon="10.4112163"><ele>318.0</ele><time>2026-04-19T13:55:03.336Z</time></trkpt><trkpt lat="42.7271888" lon="10.4113007"><ele>318.0</ele><time>2026-04-19T13:55:04.332Z</time></trkpt><trkpt lat="42.7272196" lon="10.4113968"><ele>318.0</ele><time>2026-04-19T13:55:05.336Z</time></trkpt><trkpt lat="42.7272501" lon="10.4114832"><ele>318.0</ele><time>2026-04-19T13:55:06.33Z</time></trkpt><trkpt lat="42.727285" lon="10.4115577"><ele>315.5</ele><time>2026-04-19T13:55:07.332Z</time></trkpt><trkpt lat="42.7273237" lon="10.4116332"><ele>313.0</ele><time>2026-04-19T13:55:08.332Z</time></trkpt><trkpt lat="42.7273769" lon="10.4117054"><ele>310.5</ele><time>2026-04-19T13:55:09.327Z</time></trkpt><trkpt lat="42.7274528" lon="10.4117575"><ele>308.0</ele><time>2026-04-19T13:55:10.328Z</time></trkpt><trkpt lat="42.7275489" lon="10.4117913"><ele>305.5</ele><time>2026-04-19T13:55:11.325Z</time></trkpt><trkpt lat="42.7276431" lon="10.4118008"><ele>303.0</ele><time>2026-04-19T13:55:12.322Z</time></trkpt><trkpt lat="42.7277194" lon="10.4118089"><ele>301.6666666666667</ele><time>2026-04-19T13:55:13.324Z</time></trkpt><trkpt lat="42.7278142" lon="10.4118572"><ele>300.3333333333333</ele><time>2026-04-19T13:55:15.321Z</time></trkpt><trkpt lat="42.7278115" lon="10.4119568"><ele>299.0</ele><time>2026-04-19T13:55:17.331Z</time></trkpt><trkpt lat="42.7277805" lon="10.4120357"><ele>297.66666666666663</ele><time>2026-04-19T13:55:18.333Z</time></trkpt><trkpt lat="42.7277355" lon="10.412117"><ele>296.3333333333333</ele><time>2026-04-19T13:55:19.323Z</time></trkpt><trkpt lat="42.7276833" lon="10.4122158"><ele>295.0</ele><time>2026-04-19T13:55:20.316Z</time></trkpt><trkpt lat="42.7276294" lon="10.4123232"><ele>295.0</ele><time>2026-04-19T13:55:21.322Z</time></trkpt><trkpt lat="42.7275805" lon="10.4124172"><ele>295.0</ele><time>2026-04-19T13:55:22.332Z</time></trkpt><trkpt lat="42.7275426" lon="10.4125075"><ele>295.0</ele><time>2026-04-19T13:55:23.338Z</time></trkpt><trkpt lat="42.7275385" lon="10.4126"><ele>295.0</ele><time>2026-04-19T13:55:24.339Z</time></trkpt><trkpt lat="42.7275807" lon="10.4126677"><ele>295.0</ele><time>2026-04-19T13:55:25.336Z</time></trkpt><trkpt lat="42.7276448" lon="10.4127226"><ele>295.0</ele><time>2026-04-19T13:55:26.341Z</time></trkpt><trkpt lat="42.7277314" lon="10.4127708"><ele>299.0</ele><time>2026-04-19T13:55:27.341Z</time></trkpt><trkpt lat="42.7278358" lon="10.4128091"><ele>303.0</ele><time>2026-04-19T13:55:28.346Z</time></trkpt><trkpt lat="42.727949" lon="10.4128433"><ele>307.0</ele><time>2026-04-19T13:55:29.337Z</time></trkpt><trkpt lat="42.7280612" lon="10.412888"><ele>311.0</ele><time>2026-04-19T13:55:30.338Z</time></trkpt><trkpt lat="42.7281811" lon="10.4129343"><ele>311.0</ele><time>2026-04-19T13:55:31.333Z</time></trkpt><trkpt lat="42.7282941" lon="10.4129807"><ele>311.0</ele><time>2026-04-19T13:55:32.331Z</time></trkpt><trkpt lat="42.7284007" lon="10.4130266"><ele>311.0</ele><time>2026-04-19T13:55:33.329Z</time></trkpt><trkpt lat="42.7285061" lon="10.413059"><ele>311.0</ele><time>2026-04-19T13:55:34.324Z</time></trkpt><trkpt lat="42.7285994" lon="10.4130759"><ele>311.0</ele><time>2026-04-19T13:55:35.324Z</time></trkpt><trkpt lat="42.7286746" lon="10.4130999"><ele>311.1666666666667</ele><time>2026-04-19T13:55:36.328Z</time></trkpt><trkpt lat="42.7287584" lon="10.4132186"><ele>311.33333333333337</ele><time>2026-04-19T13:55:38.317Z</time></trkpt><trkpt lat="42.7287807" lon="10.4133114"><ele>311.5</ele><time>2026-04-19T13:55:39.329Z</time></trkpt><trkpt lat="42.7288053" lon="10.4134061"><ele>311.6666666666667</ele><time>2026-04-19T13:55:40.335Z</time></trkpt><trkpt lat="42.7288297" lon="10.413487"><ele>311.8333333333333</ele><time>2026-04-19T13:55:41.334Z</time></trkpt><trkpt lat="42.728859" lon="10.4135976"><ele>312.0</ele><time>2026-04-19T13:55:43.325Z</time></trkpt><trkpt lat="42.7288107" lon="10.4136702"><ele>312.0</ele><time>2026-04-19T13:55:45.335Z</time></trkpt><trkpt lat="42.7287553" lon="10.413715"><ele>312.0</ele><time>2026-04-19T13:55:46.329Z</time></trkpt><trkpt lat="42.7286884" lon="10.4137598"><ele>312.0</ele><time>2026-04-19T13:55:47.333Z</time></trkpt><trkpt lat="42.7286228" lon="10.4138094"><ele>312.0</ele><time>2026-04-19T13:55:48.347Z</time></trkpt><trkpt lat="42.7285588" lon="10.4138644"><ele>312.0</ele><time>2026-04-19T13:55:49.352Z</time></trkpt><trkpt lat="42.7284974" lon="10.4139288"><ele>312.0</ele><time>2026-04-19T13:55:50.348Z</time></trkpt><trkpt lat="42.7284473" lon="10.4140017"><ele>312.0</ele><time>2026-04-19T13:55:51.346Z</time></trkpt><trkpt lat="42.7284186" lon="10.4141367"><ele>311.2</ele><time>2026-04-19T13:55:53.346Z</time></trkpt><trkpt lat="42.7285033" lon="10.4142813"><ele>310.4</ele><time>2026-04-19T13:55:55.353Z</time></trkpt><trkpt lat="42.7285931" lon="10.4143355"><ele>309.6</ele><time>2026-04-19T13:55:56.344Z</time></trkpt><trkpt lat="42.7286903" lon="10.4143814"><ele>308.8</ele><time>2026-04-19T13:55:57.347Z</time></trkpt><trkpt lat="42.7287899" lon="10.4144232"><ele>308.0</ele><time>2026-04-19T13:55:58.35Z</time></trkpt><trkpt lat="42.7288905" lon="10.4144537"><ele>308.0</ele><time>2026-04-19T13:55:59.352Z</time></trkpt><trkpt lat="42.7289872" lon="10.4144797"><ele>308.0</ele><time>2026-04-19T13:56:00.35Z</time></trkpt><trkpt lat="42.7290745" lon="10.4144965"><ele>308.0</ele><time>2026-04-19T13:56:01.341Z</time></trkpt><trkpt lat="42.7291571" lon="10.4145079"><ele>308.0</ele><time>2026-04-19T13:56:02.35Z</time></trkpt><trkpt lat="42.7292286" lon="10.4145282"><ele>308.0</ele><time>2026-04-19T13:56:03.343Z</time></trkpt><trkpt lat="42.7292939" lon="10.4145722"><ele>308.0</ele><time>2026-04-19T13:56:04.346Z</time></trkpt><trkpt lat="42.7293598" lon="10.4146499"><ele>308.6666666666667</ele><time>2026-04-19T13:56:05.339Z</time></trkpt><trkpt lat="42.7294285" lon="10.4147255"><ele>309.33333333333337</ele><time>2026-04-19T13:56:06.336Z</time></trkpt><trkpt lat="42.7294973" lon="10.4147847"><ele>310.0</ele><time>2026-04-19T13:56:07.338Z</time></trkpt><trkpt lat="42.729556" lon="10.414853"><ele>310.6666666666667</ele><time>2026-04-19T13:56:08.339Z</time></trkpt><trkpt lat="42.7296005" lon="10.4149311"><ele>311.3333333333333</ele><time>2026-04-19T13:56:09.341Z</time></trkpt><trkpt lat="42.7296275" lon="10.4150165"><ele>312.0</ele><time>2026-04-19T13:56:10.338Z</time></trkpt><trkpt lat="42.72964" lon="10.4151176"><ele>312.0</ele><time>2026-04-19T13:56:11.344Z</time></trkpt><trkpt lat="42.7296538" lon="10.4152205"><ele>312.0</ele><time>2026-04-19T13:56:12.339Z</time></trkpt><trkpt lat="42.7296843" lon="10.4153205"><ele>312.0</ele><time>2026-04-19T13:56:13.342Z</time></trkpt><trkpt lat="42.7297302" lon="10.4154091"><ele>312.0</ele><time>2026-04-19T13:56:14.339Z</time></trkpt><trkpt lat="42.7297885" lon="10.4154768"><ele>312.0</ele><time>2026-04-19T13:56:15.343Z</time></trkpt><trkpt lat="42.7298532" lon="10.4155225"><ele>312.0</ele><time>2026-04-19T13:56:16.341Z</time></trkpt><trkpt lat="42.7299248" lon="10.4155499"><ele>311.1666666666667</ele><time>2026-04-19T13:56:17.34Z</time></trkpt><trkpt lat="42.7300039" lon="10.4155687"><ele>310.3333333333333</ele><time>2026-04-19T13:56:18.344Z</time></trkpt><trkpt lat="42.7300868" lon="10.415586"><ele>309.5</ele><time>2026-04-19T13:56:19.341Z</time></trkpt><trkpt lat="42.7301633" lon="10.4156106"><ele>308.66666666666663</ele><time>2026-04-19T13:56:20.345Z</time></trkpt><trkpt lat="42.7302375" lon="10.4156286"><ele>307.8333333333333</ele><time>2026-04-19T13:56:21.334Z</time></trkpt><trkpt lat="42.7303078" lon="10.4156367"><ele>307.0</ele><time>2026-04-19T13:56:22.333Z</time></trkpt><trkpt lat="42.7303671" lon="10.4156676"><ele>307.0</ele><time>2026-04-19T13:56:23.336Z</time></trkpt><trkpt lat="42.7304437" lon="10.4157973"><ele>307.0</ele><time>2026-04-19T13:56:25.333Z</time></trkpt><trkpt lat="42.7304717" lon="10.4158827"><ele>307.0</ele><time>2026-04-19T13:56:26.332Z</time></trkpt><trkpt lat="42.730508" lon="10.415962"><ele>307.0</ele><time>2026-04-19T13:56:27.321Z</time></trkpt><trkpt lat="42.7305568" lon="10.4160315"><ele>307.0</ele><time>2026-04-19T13:56:28.336Z</time></trkpt><trkpt lat="42.7306122" lon="10.416094"><ele>307.0</ele><time>2026-04-19T13:56:29.338Z</time></trkpt><trkpt lat="42.7306695" lon="10.4161545"><ele>307.0</ele><time>2026-04-19T13:56:30.333Z</time></trkpt><trkpt lat="42.7307297" lon="10.416224"><ele>307.0</ele><time>2026-04-19T13:56:31.327Z</time></trkpt><trkpt lat="42.7307963" lon="10.4162967"><ele>307.0</ele><time>2026-04-19T13:56:32.323Z</time></trkpt><trkpt lat="42.7308671" lon="10.4163616"><ele>307.0</ele><time>2026-04-19T13:56:33.326Z</time></trkpt><trkpt lat="42.7309416" lon="10.4164226"><ele>307.0</ele><time>2026-04-19T13:56:34.328Z</time></trkpt><trkpt lat="42.7310179" lon="10.4164723"><ele>307.0</ele><time>2026-04-19T13:56:35.326Z</time></trkpt><trkpt lat="42.7310894" lon="10.4165228"><ele>304.5</ele><time>2026-04-19T13:56:36.32Z</time></trkpt><trkpt lat="42.7311617" lon="10.4165674"><ele>302.0</ele><time>2026-04-19T13:56:37.323Z</time></trkpt><trkpt lat="42.7312402" lon="10.4166138"><ele>299.5</ele><time>2026-04-19T13:56:38.324Z</time></trkpt><trkpt lat="42.7313191" lon="10.4166607"><ele>297.0</ele><time>2026-04-19T13:56:39.326Z</time></trkpt><trkpt lat="42.7313917" lon="10.4167058"><ele>294.5</ele><time>2026-04-19T13:56:40.329Z</time></trkpt><trkpt lat="42.731459" lon="10.416745"><ele>292.0</ele><time>2026-04-19T13:56:41.32Z</time></trkpt><trkpt lat="42.7315242" lon="10.4167899"><ele>292.0</ele><time>2026-04-19T13:56:42.334Z</time></trkpt><trkpt lat="42.7315859" lon="10.4168288"><ele>292.0</ele><time>2026-04-19T13:56:43.331Z</time></trkpt><trkpt lat="42.7316925" lon="10.4168831"><ele>292.0</ele><time>2026-04-19T13:56:45.335Z</time></trkpt><trkpt lat="42.7317749" lon="10.4169336"><ele>292.0</ele><time>2026-04-19T13:56:47.338Z</time></trkpt><trkpt lat="42.7318364" lon="10.4169672"><ele>292.0</ele><time>2026-04-19T13:56:49.355Z</time></trkpt><trkpt lat="42.7318866" lon="10.4170439"><ele>292.0</ele><time>2026-04-19T13:56:52.34Z</time></trkpt><trkpt lat="42.7319671" lon="10.417036"><ele>288.6</ele><time>2026-04-19T14:01:52.369Z</time></trkpt><trkpt lat="42.7320212" lon="10.4169268"><ele>285.2</ele><time>2026-04-19T14:01:54.364Z</time></trkpt><trkpt lat="42.7320366" lon="10.4167762"><ele>281.8</ele><time>2026-04-19T14:01:56.364Z</time></trkpt><trkpt lat="42.7320386" lon="10.4166102"><ele>278.4</ele><time>2026-04-19T14:01:58.358Z</time></trkpt><trkpt lat="42.732031" lon="10.4165025"><ele>275.0</ele><time>2026-04-19T14:01:59.368Z</time></trkpt><trkpt lat="42.7320199" lon="10.4163991"><ele>277.1666666666667</ele><time>2026-04-19T14:02:00.362Z</time></trkpt><trkpt lat="42.7320124" lon="10.4162864"><ele>279.33333333333337</ele><time>2026-04-19T14:02:01.36Z</time></trkpt><trkpt lat="42.7320097" lon="10.4161848"><ele>281.5</ele><time>2026-04-19T14:02:02.346Z</time></trkpt><trkpt lat="42.7320279" lon="10.4160948"><ele>283.6666666666667</ele><time>2026-04-19T14:02:03.352Z</time></trkpt><trkpt lat="42.732088" lon="10.4160269"><ele>285.8333333333333</ele><time>2026-04-19T14:02:04.352Z</time></trkpt><trkpt lat="42.7321597" lon="10.4159612"><ele>288.0</ele><time>2026-04-19T14:02:05.352Z</time></trkpt><trkpt lat="42.7322367" lon="10.4159047"><ele>288.0</ele><time>2026-04-19T14:02:06.354Z</time></trkpt><trkpt lat="42.7323117" lon="10.4158444"><ele>288.0</ele><time>2026-04-19T14:02:07.351Z</time></trkpt><trkpt lat="42.7323943" lon="10.4157789"><ele>288.0</ele><time>2026-04-19T14:02:08.355Z</time></trkpt><trkpt lat="42.7324783" lon="10.4157242"><ele>288.0</ele><time>2026-04-19T14:02:09.348Z</time></trkpt><trkpt lat="42.7325668" lon="10.4156778"><ele>288.0</ele><time>2026-04-19T14:02:10.356Z</time></trkpt><trkpt lat="42.7326565" lon="10.4156423"><ele>287.1666666666667</ele><time>2026-04-19T14:02:11.353Z</time></trkpt><trkpt lat="42.7327438" lon="10.4156008"><ele>286.3333333333333</ele><time>2026-04-19T14:02:12.355Z</time></trkpt><trkpt lat="42.7328308" lon="10.4155554"><ele>285.5</ele><time>2026-04-19T14:02:13.365Z</time></trkpt><trkpt lat="42.732909" lon="10.4154956"><ele>284.66666666666663</ele><time>2026-04-19T14:02:14.354Z</time></trkpt><trkpt lat="42.7329715" lon="10.4154252"><ele>283.8333333333333</ele><time>2026-04-19T14:02:15.357Z</time></trkpt><trkpt lat="42.733017" lon="10.4153367"><ele>283.0</ele><time>2026-04-19T14:02:16.355Z</time></trkpt><trkpt lat="42.7330414" lon="10.4152424"><ele>283.0</ele><time>2026-04-19T14:02:17.355Z</time></trkpt><trkpt lat="42.7330525" lon="10.4151496"><ele>283.0</ele><time>2026-04-19T14:02:18.362Z</time></trkpt><trkpt lat="42.7330965" lon="10.4149928"><ele>283.0</ele><time>2026-04-19T14:02:20.353Z</time></trkpt><trkpt lat="42.7332048" lon="10.4149032"><ele>283.0</ele><time>2026-04-19T14:02:22.368Z</time></trkpt><trkpt lat="42.7332793" lon="10.4148819"><ele>283.0</ele><time>2026-04-19T14:02:23.365Z</time></trkpt><trkpt lat="42.7333554" lon="10.4148697"><ele>283.0</ele><time>2026-04-19T14:02:24.362Z</time></trkpt><trkpt lat="42.73343" lon="10.4148502"><ele>283.0</ele><time>2026-04-19T14:02:25.368Z</time></trkpt><trkpt lat="42.7335065" lon="10.4148176"><ele>283.0</ele><time>2026-04-19T14:02:26.366Z</time></trkpt><trkpt lat="42.7335845" lon="10.414766"><ele>283.0</ele><time>2026-04-19T14:02:27.36Z</time></trkpt><trkpt lat="42.733664" lon="10.4147018"><ele>283.0</ele><time>2026-04-19T14:02:28.361Z</time></trkpt><trkpt lat="42.7337466" lon="10.414625"><ele>283.0</ele><time>2026-04-19T14:02:29.356Z</time></trkpt><trkpt lat="42.7338267" lon="10.4145343"><ele>282.16666666666663</ele><time>2026-04-19T14:02:30.361Z</time></trkpt><trkpt lat="42.7338868" lon="10.4144469"><ele>281.3333333333333</ele><time>2026-04-19T14:02:31.367Z</time></trkpt><trkpt lat="42.7339218" lon="10.4143582"><ele>280.5</ele><time>2026-04-19T14:02:32.365Z</time></trkpt><trkpt lat="42.7339243" lon="10.4142662"><ele>279.6666666666667</ele><time>2026-04-19T14:02:33.371Z</time></trkpt><trkpt lat="42.7338813" lon="10.4140957"><ele>278.83333333333337</ele><time>2026-04-19T14:02:35.361Z</time></trkpt><trkpt lat="42.7338437" lon="10.4139943"><ele>278.0</ele><time>2026-04-19T14:02:36.352Z</time></trkpt><trkpt lat="42.7337902" lon="10.4138798"><ele>276.0</ele><time>2026-04-19T14:02:37.356Z</time></trkpt><trkpt lat="42.7337195" lon="10.413777"><ele>274.0</ele><time>2026-04-19T14:02:38.36Z</time></trkpt><trkpt lat="42.7336211" lon="10.4136698"><ele>272.0</ele><time>2026-04-19T14:02:39.359Z</time></trkpt><trkpt lat="42.7335183" lon="10.413567"><ele>270.0</ele><time>2026-04-19T14:02:40.355Z</time></trkpt><trkpt lat="42.7334261" lon="10.413476"><ele>273.8333333333333</ele><time>2026-04-19T14:02:41.358Z</time></trkpt><trkpt lat="42.7333491" lon="10.4134019"><ele>277.6666666666667</ele><time>2026-04-19T14:02:42.36Z</time></trkpt><trkpt lat="42.7333025" lon="10.413324"><ele>281.5</ele><time>2026-04-19T14:02:43.356Z</time></trkpt><trkpt lat="42.7332828" lon="10.4132289"><ele>285.33333333333337</ele><time>2026-04-19T14:02:44.358Z</time></trkpt><trkpt lat="42.7333027" lon="10.4131125"><ele>289.1666666666667</ele><time>2026-04-19T14:02:45.348Z</time></trkpt><trkpt lat="42.7333442" lon="10.4129895"><ele>293.0</ele><time>2026-04-19T14:02:46.358Z</time></trkpt><trkpt lat="42.7333775" lon="10.41286"><ele>293.33333333333337</ele><time>2026-04-19T14:02:47.367Z</time></trkpt><trkpt lat="42.7334015" lon="10.4127345"><ele>293.6666666666667</ele><time>2026-04-19T14:02:48.359Z</time></trkpt><trkpt lat="42.733419" lon="10.4126099"><ele>294.0</ele><time>2026-04-19T14:02:49.361Z</time></trkpt><trkpt lat="42.733431" lon="10.4124935"><ele>294.3333333333333</ele><time>2026-04-19T14:02:50.357Z</time></trkpt><trkpt lat="42.7334281" lon="10.4123902"><ele>294.66666666666663</ele><time>2026-04-19T14:02:51.367Z</time></trkpt><trkpt lat="42.7333983" lon="10.4123011"><ele>295.0</ele><time>2026-04-19T14:02:52.37Z</time></trkpt><trkpt lat="42.7333391" lon="10.4122245"><ele>294.4</ele><time>2026-04-19T14:02:53.365Z</time></trkpt><trkpt lat="42.7332584" lon="10.4121443"><ele>293.8</ele><time>2026-04-19T14:02:54.362Z</time></trkpt><trkpt lat="42.7331742" lon="10.4120637"><ele>293.2</ele><time>2026-04-19T14:02:55.362Z</time></trkpt><trkpt lat="42.7330881" lon="10.4119856"><ele>292.6</ele><time>2026-04-19T14:02:56.352Z</time></trkpt><trkpt lat="42.7329888" lon="10.4119262"><ele>292.0</ele><time>2026-04-19T14:02:57.363Z</time></trkpt><trkpt lat="42.7328956" lon="10.4118834"><ele>292.0</ele><time>2026-04-19T14:02:58.359Z</time></trkpt><trkpt lat="42.732818" lon="10.4118398"><ele>292.0</ele><time>2026-04-19T14:02:59.359Z</time></trkpt><trkpt lat="42.73274" lon="10.411739"><ele>292.0</ele><time>2026-04-19T14:03:01.356Z</time></trkpt><trkpt lat="42.7327627" lon="10.4115927"><ele>292.0</ele><time>2026-04-19T14:03:03.345Z</time></trkpt><trkpt lat="42.7328158" lon="10.4115321"><ele>292.0</ele><time>2026-04-19T14:03:04.363Z</time></trkpt><trkpt lat="42.7329095" lon="10.4115011"><ele>292.0</ele><time>2026-04-19T14:03:05.354Z</time></trkpt><trkpt lat="42.7330206" lon="10.4114781"><ele>292.0</ele><time>2026-04-19T14:03:06.357Z</time></trkpt><trkpt lat="42.7331112" lon="10.4114408"><ele>292.0</ele><time>2026-04-19T14:03:07.35Z</time></trkpt><trkpt lat="42.7331698" lon="10.4113644"><ele>292.0</ele><time>2026-04-19T14:03:08.358Z</time></trkpt><trkpt lat="42.7332065" lon="10.4112427"><ele>292.0</ele><time>2026-04-19T14:03:09.349Z</time></trkpt><trkpt lat="42.7332097" lon="10.4110792"><ele>293.4</ele><time>2026-04-19T14:03:10.353Z</time></trkpt><trkpt lat="42.733202" lon="10.4109167"><ele>294.79999999999995</ele><time>2026-04-19T14:03:11.354Z</time></trkpt><trkpt lat="42.7332097" lon="10.4107838"><ele>296.2</ele><time>2026-04-19T14:03:12.361Z</time></trkpt><trkpt lat="42.7332433" lon="10.4106777"><ele>297.59999999999997</ele><time>2026-04-19T14:03:13.351Z</time></trkpt><trkpt lat="42.7332921" lon="10.4105945"><ele>299.0</ele><time>2026-04-19T14:03:14.35Z</time></trkpt><trkpt lat="42.7333441" lon="10.410514"><ele>298.1666666666667</ele><time>2026-04-19T14:03:15.355Z</time></trkpt><trkpt lat="42.7333895" lon="10.4104282"><ele>297.33333333333337</ele><time>2026-04-19T14:03:16.356Z</time></trkpt><trkpt lat="42.7334169" lon="10.4103487"><ele>296.5</ele><time>2026-04-19T14:03:17.363Z</time></trkpt><trkpt lat="42.733397" lon="10.4101944"><ele>295.6666666666667</ele><time>2026-04-19T14:03:19.359Z</time></trkpt><trkpt lat="42.7333452" lon="10.410143"><ele>294.8333333333333</ele><time>2026-04-19T14:03:20.358Z</time></trkpt><trkpt lat="42.7332686" lon="10.4101023"><ele>294.0</ele><time>2026-04-19T14:03:21.356Z</time></trkpt><trkpt lat="42.7331663" lon="10.4100563"><ele>294.0</ele><time>2026-04-19T14:03:22.354Z</time></trkpt><trkpt lat="42.73306" lon="10.410014"><ele>294.0</ele><time>2026-04-19T14:03:23.356Z</time></trkpt><trkpt lat="42.7329433" lon="10.4099673"><ele>294.0</ele><time>2026-04-19T14:03:24.364Z</time></trkpt><trkpt lat="42.7328312" lon="10.4099221"><ele>294.0</ele><time>2026-04-19T14:03:25.361Z</time></trkpt><trkpt lat="42.7327331" lon="10.4098924"><ele>296.0</ele><time>2026-04-19T14:03:26.361Z</time></trkpt><trkpt lat="42.7326353" lon="10.4098899"><ele>298.0</ele><time>2026-04-19T14:03:27.368Z</time></trkpt><trkpt lat="42.732546" lon="10.4099288"><ele>300.0</ele><time>2026-04-19T14:03:28.368Z</time></trkpt><trkpt lat="42.7324622" lon="10.4100058"><ele>302.0</ele><time>2026-04-19T14:03:29.36Z</time></trkpt><trkpt lat="42.7323636" lon="10.4101256"><ele>304.0</ele><time>2026-04-19T14:03:30.357Z</time></trkpt><trkpt lat="42.7322602" lon="10.4102452"><ele>304.0</ele><time>2026-04-19T14:03:31.353Z</time></trkpt><trkpt lat="42.732168" lon="10.41034"><ele>304.0</ele><time>2026-04-19T14:03:32.356Z</time></trkpt><trkpt lat="42.7321013" lon="10.4103749"><ele>304.0</ele><time>2026-04-19T14:03:33.357Z</time></trkpt><trkpt lat="42.7320393" lon="10.4103114"><ele>304.0</ele><time>2026-04-19T14:03:35.361Z</time></trkpt><trkpt lat="42.7320419" lon="10.4102234"><ele>304.0</ele><time>2026-04-19T14:03:36.354Z</time></trkpt><trkpt lat="42.732061" lon="10.4100897"><ele>304.0</ele><time>2026-04-19T14:03:37.358Z</time></trkpt><trkpt lat="42.7320704" lon="10.409921"><ele>304.0</ele><time>2026-04-19T14:03:38.349Z</time></trkpt><trkpt lat="42.7320551" lon="10.409787"><ele>304.0</ele><time>2026-04-19T14:03:39.366Z</time></trkpt><trkpt lat="42.7320234" lon="10.4096931"><ele>304.0</ele><time>2026-04-19T14:03:40.359Z</time></trkpt><trkpt lat="42.7319701" lon="10.4096457"><ele>304.0</ele><time>2026-04-19T14:03:41.355Z</time></trkpt><trkpt lat="42.7318824" lon="10.4096128"><ele>304.0</ele><time>2026-04-19T14:03:42.364Z</time></trkpt><trkpt lat="42.731761" lon="10.4095984"><ele>304.3333333333333</ele><time>2026-04-19T14:03:43.349Z</time></trkpt><trkpt lat="42.7316152" lon="10.4095561"><ele>304.6666666666667</ele><time>2026-04-19T14:03:44.352Z</time></trkpt><trkpt lat="42.7314628" lon="10.4094943"><ele>305.0</ele><time>2026-04-19T14:03:45.359Z</time></trkpt><trkpt lat="42.7313135" lon="10.4094421"><ele>305.0</ele><time>2026-04-19T14:03:46.356Z</time></trkpt><trkpt lat="42.731196" lon="10.4094055"><ele>305.0</ele><time>2026-04-19T14:03:47.358Z</time></trkpt><trkpt lat="42.7311323" lon="10.4093968"><ele>305.0</ele><time>2026-04-19T14:03:48.354Z</time></trkpt><trkpt lat="42.7310731" lon="10.4092877"><ele>305.0</ele><time>2026-04-19T14:03:50.353Z</time></trkpt><trkpt lat="42.7311736" lon="10.4091757"><ele>305.0</ele><time>2026-04-19T14:03:52.352Z</time></trkpt><trkpt lat="42.7312755" lon="10.4091056"><ele>305.0</ele><time>2026-04-19T14:03:53.352Z</time></trkpt><trkpt lat="42.7314095" lon="10.4090444"><ele>305.0</ele><time>2026-04-19T14:03:54.34Z</time></trkpt><trkpt lat="42.7315378" lon="10.408989"><ele>305.0</ele><time>2026-04-19T14:03:55.341Z</time></trkpt><trkpt lat="42.7316497" lon="10.4089344"><ele>305.0</ele><time>2026-04-19T14:03:56.341Z</time></trkpt><trkpt lat="42.7317409" lon="10.4088744"><ele>305.4</ele><time>2026-04-19T14:03:57.345Z</time></trkpt><trkpt lat="42.7318126" lon="10.4087837"><ele>305.8</ele><time>2026-04-19T14:03:58.355Z</time></trkpt><trkpt lat="42.731862" lon="10.4086849"><ele>306.2</ele><time>2026-04-19T14:03:59.354Z</time></trkpt><trkpt lat="42.7318862" lon="10.4085734"><ele>306.6</ele><time>2026-04-19T14:04:00.356Z</time></trkpt><trkpt lat="42.7318735" lon="10.4084516"><ele>307.0</ele><time>2026-04-19T14:04:01.364Z</time></trkpt><trkpt lat="42.7318263" lon="10.4083064"><ele>307.0</ele><time>2026-04-19T14:04:02.36Z</time></trkpt><trkpt lat="42.7317456" lon="10.4081382"><ele>307.0</ele><time>2026-04-19T14:04:03.356Z</time></trkpt><trkpt lat="42.7316517" lon="10.4079714"><ele>307.0</ele><time>2026-04-19T14:04:04.354Z</time></trkpt><trkpt lat="42.7315519" lon="10.407819"><ele>308.75</ele><time>2026-04-19T14:04:05.352Z</time></trkpt><trkpt lat="42.7314374" lon="10.4076772"><ele>310.5</ele><time>2026-04-19T14:04:06.357Z</time></trkpt><trkpt lat="42.731333" lon="10.4075661"><ele>312.25</ele><time>2026-04-19T14:04:07.347Z</time></trkpt><trkpt lat="42.7312449" lon="10.407481"><ele>314.0</ele><time>2026-04-19T14:04:08.359Z</time></trkpt><trkpt lat="42.7311947" lon="10.4074161"><ele>314.0</ele><time>2026-04-19T14:04:09.345Z</time></trkpt><trkpt lat="42.7312695" lon="10.4073686"><ele>314.0</ele><time>2026-04-19T14:04:13.335Z</time></trkpt><trkpt lat="42.7313664" lon="10.4074021"><ele>314.0</ele><time>2026-04-19T14:04:14.33Z</time></trkpt><trkpt lat="42.7315093" lon="10.4074553"><ele>314.0</ele><time>2026-04-19T14:04:15.341Z</time></trkpt><trkpt lat="42.7316745" lon="10.4075015"><ele>314.0</ele><time>2026-04-19T14:04:16.335Z</time></trkpt><trkpt lat="42.7318317" lon="10.407548"><ele>314.0</ele><time>2026-04-19T14:04:17.345Z</time></trkpt><trkpt lat="42.7319434" lon="10.4076181"><ele>314.0</ele><time>2026-04-19T14:04:18.338Z</time></trkpt><trkpt lat="42.732033" lon="10.4076368"><ele>314.0</ele><time>2026-04-19T14:04:19.343Z</time></trkpt><trkpt lat="42.7321041" lon="10.4076198"><ele>314.0</ele><time>2026-04-19T14:04:20.362Z</time></trkpt><trkpt lat="42.7321493" lon="10.4075426"><ele>312.2</ele><time>2026-04-19T14:04:21.357Z</time></trkpt><trkpt lat="42.7321565" lon="10.4074306"><ele>310.4</ele><time>2026-04-19T14:04:22.36Z</time></trkpt><trkpt lat="42.732136" lon="10.4072994"><ele>308.6</ele><time>2026-04-19T14:04:23.356Z</time></trkpt><trkpt lat="42.732091" lon="10.4071407"><ele>306.8</ele><time>2026-04-19T14:04:24.358Z</time></trkpt><trkpt lat="42.7320297" lon="10.4069744"><ele>305.0</ele><time>2026-04-19T14:04:25.352Z</time></trkpt><trkpt lat="42.7319479" lon="10.4067967"><ele>309.25</ele><time>2026-04-19T14:04:26.359Z</time></trkpt><trkpt lat="42.7318469" lon="10.4065975"><ele>313.5</ele><time>2026-04-19T14:04:27.348Z</time></trkpt><trkpt lat="42.7317565" lon="10.4064325"><ele>317.75</ele><time>2026-04-19T14:04:28.348Z</time></trkpt><trkpt lat="42.7316839" lon="10.4063038"><ele>322.0</ele><time>2026-04-19T14:04:29.351Z</time></trkpt><trkpt lat="42.7316192" lon="10.4062109"><ele>323.40000000000003</ele><time>2026-04-19T14:04:30.348Z</time></trkpt><trkpt lat="42.7315662" lon="10.4061316"><ele>324.8</ele><time>2026-04-19T14:04:31.35Z</time></trkpt><trkpt lat="42.7315126" lon="10.406014"><ele>326.2</ele><time>2026-04-19T14:04:33.344Z</time></trkpt><trkpt lat="42.7316018" lon="10.4059816"><ele>327.6</ele><time>2026-04-19T14:04:35.336Z</time></trkpt><trkpt lat="42.7316984" lon="10.4059843"><ele>329.0</ele><time>2026-04-19T14:04:36.34Z</time></trkpt><trkpt lat="42.7318208" lon="10.4059908"><ele>326.25</ele><time>2026-04-19T14:04:37.335Z</time></trkpt><trkpt lat="42.7319368" lon="10.4060314"><ele>323.5</ele><time>2026-04-19T14:04:38.328Z</time></trkpt><trkpt lat="42.7320761" lon="10.4060734"><ele>320.75</ele><time>2026-04-19T14:04:39.335Z</time></trkpt><trkpt lat="42.7322089" lon="10.4061017"><ele>318.0</ele><time>2026-04-19T14:04:40.329Z</time></trkpt><trkpt lat="42.7323225" lon="10.406126"><ele>318.0</ele><time>2026-04-19T14:04:41.327Z</time></trkpt><trkpt lat="42.7324204" lon="10.4061342"><ele>318.0</ele><time>2026-04-19T14:04:42.338Z</time></trkpt><trkpt lat="42.732501" lon="10.4061135"><ele>318.0</ele><time>2026-04-19T14:04:43.331Z</time></trkpt><trkpt lat="42.7325681" lon="10.4060537"><ele>318.0</ele><time>2026-04-19T14:04:44.34Z</time></trkpt><trkpt lat="42.7326069" lon="10.4059457"><ele>318.0</ele><time>2026-04-19T14:04:45.344Z</time></trkpt><trkpt lat="42.7326258" lon="10.4057967"><ele>318.0</ele><time>2026-04-19T14:04:46.344Z</time></trkpt><trkpt lat="42.7326315" lon="10.4056373"><ele>318.0</ele><time>2026-04-19T14:04:47.342Z</time></trkpt><trkpt lat="42.7326171" lon="10.4054971"><ele>318.0</ele><time>2026-04-19T14:04:48.341Z</time></trkpt><trkpt lat="42.7326102" lon="10.4053828"><ele>318.0</ele><time>2026-04-19T14:04:49.34Z</time></trkpt><trkpt lat="42.7326918" lon="10.4053391"><ele>318.0</ele><time>2026-04-19T14:04:51.336Z</time></trkpt><trkpt lat="42.7327839" lon="10.4053662"><ele>316.0</ele><time>2026-04-19T14:04:52.328Z</time></trkpt><trkpt lat="42.7328893" lon="10.4054293"><ele>314.0</ele><time>2026-04-19T14:04:53.336Z</time></trkpt><trkpt lat="42.7329806" lon="10.4054561"><ele>312.0</ele><time>2026-04-19T14:04:54.334Z</time></trkpt><trkpt lat="42.7330531" lon="10.4054621"><ele>310.0</ele><time>2026-04-19T14:04:55.339Z</time></trkpt><trkpt lat="42.7331295" lon="10.4053666"><ele>308.0</ele><time>2026-04-19T14:04:57.342Z</time></trkpt><trkpt lat="42.7331402" lon="10.4052362"><ele>308.0</ele><time>2026-04-19T14:04:58.344Z</time></trkpt><trkpt lat="42.7331406" lon="10.4050558"><ele>308.0</ele><time>2026-04-19T14:04:59.346Z</time></trkpt><trkpt lat="42.7331334" lon="10.4048473"><ele>308.0</ele><time>2026-04-19T14:05:00.342Z</time></trkpt><trkpt lat="42.7331185" lon="10.4046554"><ele>308.0</ele><time>2026-04-19T14:05:01.348Z</time></trkpt><trkpt lat="42.733081" lon="10.4044959"><ele>305.5</ele><time>2026-04-19T14:05:02.35Z</time></trkpt><trkpt lat="42.7330062" lon="10.4043433"><ele>303.0</ele><time>2026-04-19T14:05:03.343Z</time></trkpt><trkpt lat="42.7329208" lon="10.4041765"><ele>300.5</ele><time>2026-04-19T14:05:04.345Z</time></trkpt><trkpt lat="42.7328331" lon="10.4040059"><ele>298.0</ele><time>2026-04-19T14:05:05.34Z</time></trkpt><trkpt lat="42.732759" lon="10.4038074"><ele>295.5</ele><time>2026-04-19T14:05:06.345Z</time></trkpt><trkpt lat="42.732733" lon="10.4035942"><ele>293.0</ele><time>2026-04-19T14:05:07.34Z</time></trkpt><trkpt lat="42.732706" lon="10.4034204"><ele>290.5</ele><time>2026-04-19T14:05:08.348Z</time></trkpt><trkpt lat="42.7326748" lon="10.4033087"><ele>288.0</ele><time>2026-04-19T14:05:09.341Z</time></trkpt><trkpt lat="42.7326205" lon="10.4032208"><ele>293.2</ele><time>2026-04-19T14:05:10.344Z</time></trkpt><trkpt lat="42.7325437" lon="10.4031477"><ele>298.4</ele><time>2026-04-19T14:05:11.345Z</time></trkpt><trkpt lat="42.732451" lon="10.4030766"><ele>303.59999999999997</ele><time>2026-04-19T14:05:12.342Z</time></trkpt><trkpt lat="42.732383" lon="10.4029802"><ele>308.8</ele><time>2026-04-19T14:05:13.343Z</time></trkpt><trkpt lat="42.7323348" lon="10.4028496"><ele>314.0</ele><time>2026-04-19T14:05:14.348Z</time></trkpt><trkpt lat="42.732295" lon="10.4026816"><ele>314.0</ele><time>2026-04-19T14:05:15.339Z</time></trkpt><trkpt lat="42.7322436" lon="10.402541"><ele>314.0</ele><time>2026-04-19T14:05:16.328Z</time></trkpt><trkpt lat="42.732175" lon="10.4024065"><ele>314.0</ele><time>2026-04-19T14:05:17.345Z</time></trkpt><trkpt lat="42.7320726" lon="10.4022933"><ele>314.0</ele><time>2026-04-19T14:05:18.343Z</time></trkpt><trkpt lat="42.7319361" lon="10.40219"><ele>318.25</ele><time>2026-04-19T14:05:19.348Z</time></trkpt><trkpt lat="42.7317759" lon="10.402117"><ele>322.5</ele><time>2026-04-19T14:05:20.34Z</time></trkpt><trkpt lat="42.7316479" lon="10.4020559"><ele>326.75</ele><time>2026-04-19T14:05:21.341Z</time></trkpt><trkpt lat="42.7315383" lon="10.4020054"><ele>331.0</ele><time>2026-04-19T14:05:22.337Z</time></trkpt><trkpt lat="42.7314496" lon="10.4019517"><ele>331.0</ele><time>2026-04-19T14:05:23.343Z</time></trkpt><trkpt lat="42.7313743" lon="10.4019073"><ele>331.0</ele><time>2026-04-19T14:05:24.344Z</time></trkpt><trkpt lat="42.7313005" lon="10.401866"><ele>331.0</ele><time>2026-04-19T14:05:25.34Z</time></trkpt><trkpt lat="42.7312239" lon="10.4018394"><ele>331.0</ele><time>2026-04-19T14:05:26.344Z</time></trkpt><trkpt lat="42.7311228" lon="10.4018519"><ele>331.0</ele><time>2026-04-19T14:05:27.339Z</time></trkpt><trkpt lat="42.7310291" lon="10.4018593"><ele>331.0</ele><time>2026-04-19T14:05:28.347Z</time></trkpt><trkpt lat="42.7309569" lon="10.4017976"><ele>331.0</ele><time>2026-04-19T14:05:30.343Z</time></trkpt><trkpt lat="42.7310154" lon="10.4016673"><ele>331.0</ele><time>2026-04-19T14:05:32.329Z</time></trkpt><trkpt lat="42.7310833" lon="10.4015941"><ele>331.0</ele><time>2026-04-19T14:05:33.338Z</time></trkpt><trkpt lat="42.7311986" lon="10.4015405"><ele>331.0</ele><time>2026-04-19T14:05:34.339Z</time></trkpt><trkpt lat="42.7313682" lon="10.4014837"><ele>331.0</ele><time>2026-04-19T14:05:35.328Z</time></trkpt><trkpt lat="42.7315481" lon="10.4014326"><ele>331.0</ele><time>2026-04-19T14:05:36.328Z</time></trkpt><trkpt lat="42.7317198" lon="10.4014124"><ele>331.0</ele><time>2026-04-19T14:05:37.331Z</time></trkpt><trkpt lat="42.7318857" lon="10.4014089"><ele>332.0</ele><time>2026-04-19T14:05:38.334Z</time></trkpt><trkpt lat="42.7320447" lon="10.401371"><ele>333.0</ele><time>2026-04-19T14:05:39.342Z</time></trkpt><trkpt lat="42.7321815" lon="10.4013195"><ele>334.0</ele><time>2026-04-19T14:05:40.333Z</time></trkpt><trkpt lat="42.7322733" lon="10.4012679"><ele>335.0</ele><time>2026-04-19T14:05:41.33Z</time></trkpt><trkpt lat="42.7323423" lon="10.4011911"><ele>335.0</ele><time>2026-04-19T14:05:42.339Z</time></trkpt><trkpt lat="42.7323786" lon="10.4011115"><ele>335.0</ele><time>2026-04-19T14:05:43.326Z</time></trkpt><trkpt lat="42.7323666" lon="10.4010022"><ele>335.0</ele><time>2026-04-19T14:05:44.334Z</time></trkpt><trkpt lat="42.7323484" lon="10.4008473"><ele>335.0</ele><time>2026-04-19T14:05:45.335Z</time></trkpt><trkpt lat="42.7322856" lon="10.4006593"><ele>335.0</ele><time>2026-04-19T14:05:46.331Z</time></trkpt><trkpt lat="42.7322369" lon="10.4005141"><ele>335.0</ele><time>2026-04-19T14:05:47.324Z</time></trkpt><trkpt lat="42.7322095" lon="10.4004119"><ele>335.0</ele><time>2026-04-19T14:05:48.331Z</time></trkpt><trkpt lat="42.7322256" lon="10.4002902"><ele>335.0</ele><time>2026-04-19T14:05:50.328Z</time></trkpt><trkpt lat="42.7323733" lon="10.4003281"><ele>335.0</ele><time>2026-04-19T14:05:52.326Z</time></trkpt><trkpt lat="42.7324763" lon="10.4004101"><ele>335.0</ele><time>2026-04-19T14:05:53.325Z</time></trkpt><trkpt lat="42.7326087" lon="10.4005158"><ele>335.6666666666667</ele><time>2026-04-19T14:05:54.325Z</time></trkpt><trkpt lat="42.7327543" lon="10.4006454"><ele>336.3333333333333</ele><time>2026-04-19T14:05:55.322Z</time></trkpt><trkpt lat="42.7329265" lon="10.4007878"><ele>337.0</ele><time>2026-04-19T14:05:56.32Z</time></trkpt><trkpt lat="42.7331142" lon="10.4009352"><ele>337.0</ele><time>2026-04-19T14:05:57.325Z</time></trkpt><trkpt lat="42.7332607" lon="10.4010342"><ele>337.0</ele><time>2026-04-19T14:05:58.325Z</time></trkpt><trkpt lat="42.7333765" lon="10.4011166"><ele>337.0</ele><time>2026-04-19T14:05:59.332Z</time></trkpt><trkpt lat="42.7334627" lon="10.4011455"><ele>337.0</ele><time>2026-04-19T14:06:00.33Z</time></trkpt><trkpt lat="42.7335423" lon="10.4011246"><ele>338.0</ele><time>2026-04-19T14:06:01.336Z</time></trkpt><trkpt lat="42.7335964" lon="10.401066"><ele>339.0</ele><time>2026-04-19T14:06:02.326Z</time></trkpt><trkpt lat="42.733649" lon="10.4009663"><ele>340.0</ele><time>2026-04-19T14:06:03.335Z</time></trkpt><trkpt lat="42.7336865" lon="10.4008465"><ele>341.0</ele><time>2026-04-19T14:06:04.336Z</time></trkpt><trkpt lat="42.7337264" lon="10.4007506"><ele>342.0</ele><time>2026-04-19T14:06:05.334Z</time></trkpt><trkpt lat="42.7337855" lon="10.4007023"><ele>343.0</ele><time>2026-04-19T14:06:06.335Z</time></trkpt><trkpt lat="42.7338845" lon="10.4006695"><ele>343.0</ele><time>2026-04-19T14:06:07.327Z</time></trkpt><trkpt lat="42.7339988" lon="10.4006467"><ele>343.0</ele><time>2026-04-19T14:06:08.333Z</time></trkpt><trkpt lat="42.7340687" lon="10.4006397"><ele>343.0</ele><time>2026-04-19T14:06:09.328Z</time></trkpt><trkpt lat="42.7341038" lon="10.4007446"><ele>343.0</ele><time>2026-04-19T14:06:11.331Z</time></trkpt><trkpt lat="42.734089" lon="10.400864"><ele>343.0</ele><time>2026-04-19T14:06:12.327Z</time></trkpt><trkpt lat="42.7340952" lon="10.4010344"><ele>343.0</ele><time>2026-04-19T14:06:13.33Z</time></trkpt><trkpt lat="42.7341219" lon="10.40123"><ele>343.0</ele><time>2026-04-19T14:06:14.327Z</time></trkpt><trkpt lat="42.7341774" lon="10.4013846"><ele>343.0</ele><time>2026-04-19T14:06:15.334Z</time></trkpt><trkpt lat="42.73424" lon="10.401504"><ele>343.0</ele><time>2026-04-19T14:06:16.319Z</time></trkpt><trkpt lat="42.734313" lon="10.401597"><ele>340.4</ele><time>2026-04-19T14:06:17.336Z</time></trkpt><trkpt lat="42.7343988" lon="10.4016622"><ele>337.79999999999995</ele><time>2026-04-19T14:06:18.337Z</time></trkpt><trkpt lat="42.7344915" lon="10.4016895"><ele>335.2</ele><time>2026-04-19T14:06:19.332Z</time></trkpt><trkpt lat="42.734586" lon="10.4016787"><ele>332.6</ele><time>2026-04-19T14:06:20.326Z</time></trkpt><trkpt lat="42.7346726" lon="10.4016497"><ele>330.0</ele><time>2026-04-19T14:06:21.342Z</time></trkpt><trkpt lat="42.7347617" lon="10.4015958"><ele>330.0</ele><time>2026-04-19T14:06:23.338Z</time></trkpt><trkpt lat="42.7348237" lon="10.401523"><ele>330.0</ele><time>2026-04-19T14:06:25.342Z</time></trkpt><trkpt lat="42.7348722" lon="10.4014604"><ele>330.0</ele><time>2026-04-19T14:06:27.34Z</time></trkpt><trkpt lat="42.7349246" lon="10.4013666"><ele>330.0</ele><time>2026-04-19T14:09:02.34Z</time></trkpt><trkpt lat="42.7349463" lon="10.4012785"><ele>330.0</ele><time>2026-04-19T14:09:03.336Z</time></trkpt><trkpt lat="42.7349631" lon="10.4011804"><ele>330.0</ele><time>2026-04-19T14:09:04.331Z</time></trkpt><trkpt lat="42.7349682" lon="10.4010702"><ele>331.2</ele><time>2026-04-19T14:09:05.342Z</time></trkpt><trkpt lat="42.7349688" lon="10.4009504"><ele>332.4</ele><time>2026-04-19T14:09:06.34Z</time></trkpt><trkpt lat="42.7349647" lon="10.4008168"><ele>333.6</ele><time>2026-04-19T14:09:07.34Z</time></trkpt><trkpt lat="42.7349589" lon="10.4006866"><ele>334.8</ele><time>2026-04-19T14:09:08.344Z</time></trkpt><trkpt lat="42.734962" lon="10.4005642"><ele>336.0</ele><time>2026-04-19T14:09:09.343Z</time></trkpt><trkpt lat="42.7349803" lon="10.4004437"><ele>337.3333333333333</ele><time>2026-04-19T14:09:10.341Z</time></trkpt><trkpt lat="42.7350076" lon="10.4003391"><ele>338.6666666666667</ele><time>2026-04-19T14:09:11.344Z</time></trkpt><trkpt lat="42.7350424" lon="10.400247"><ele>340.0</ele><time>2026-04-19T14:09:12.335Z</time></trkpt><trkpt lat="42.73509" lon="10.4001585"><ele>341.33333333333337</ele><time>2026-04-19T14:09:13.341Z</time></trkpt><trkpt lat="42.7351461" lon="10.4000802"><ele>342.6666666666667</ele><time>2026-04-19T14:09:14.337Z</time></trkpt><trkpt lat="42.7351978" lon="10.4000079"><ele>344.0</ele><time>2026-04-19T14:09:15.341Z</time></trkpt><trkpt lat="42.7352492" lon="10.3999359"><ele>340.33333333333337</ele><time>2026-04-19T14:09:16.337Z</time></trkpt><trkpt lat="42.7352974" lon="10.3998583"><ele>336.6666666666667</ele><time>2026-04-19T14:09:17.328Z</time></trkpt><trkpt lat="42.7353298" lon="10.399764"><ele>333.0</ele><time>2026-04-19T14:09:18.334Z</time></trkpt><trkpt lat="42.7353523" lon="10.3996569"><ele>329.3333333333333</ele><time>2026-04-19T14:09:19.329Z</time></trkpt><trkpt lat="42.7353582" lon="10.3995486"><ele>325.66666666666663</ele><time>2026-04-19T14:09:20.325Z</time></trkpt><trkpt lat="42.7353569" lon="10.3994347"><ele>322.0</ele><time>2026-04-19T14:09:21.334Z</time></trkpt><trkpt lat="42.7353456" lon="10.399312"><ele>322.0</ele><time>2026-04-19T14:09:22.328Z</time></trkpt><trkpt lat="42.7353395" lon="10.3991977"><ele>322.0</ele><time>2026-04-19T14:09:23.331Z</time></trkpt><trkpt lat="42.7353514" lon="10.3990927"><ele>322.0</ele><time>2026-04-19T14:09:24.332Z</time></trkpt><trkpt lat="42.7353705" lon="10.3989844"><ele>322.0</ele><time>2026-04-19T14:09:25.334Z</time></trkpt><trkpt lat="42.7353789" lon="10.39887"><ele>322.0</ele><time>2026-04-19T14:09:26.331Z</time></trkpt><trkpt lat="42.7353779" lon="10.3987578"><ele>322.0</ele><time>2026-04-19T14:09:27.332Z</time></trkpt><trkpt lat="42.7353737" lon="10.3986392"><ele>324.0</ele><time>2026-04-19T14:09:28.34Z</time></trkpt><trkpt lat="42.7353633" lon="10.3985299"><ele>326.0</ele><time>2026-04-19T14:09:29.335Z</time></trkpt><trkpt lat="42.7353544" lon="10.39842"><ele>328.0</ele><time>2026-04-19T14:09:30.328Z</time></trkpt><trkpt lat="42.7353476" lon="10.3983217"><ele>330.0</ele><time>2026-04-19T14:09:31.335Z</time></trkpt><trkpt lat="42.7353496" lon="10.3982263"><ele>332.0</ele><time>2026-04-19T14:09:32.328Z</time></trkpt><trkpt lat="42.7354061" lon="10.3981071"><ele>334.0</ele><time>2026-04-19T14:09:34.328Z</time></trkpt><trkpt lat="42.7354699" lon="10.3980855"><ele>334.0</ele><time>2026-04-19T14:09:35.324Z</time></trkpt><trkpt lat="42.7355531" lon="10.3980802"><ele>334.0</ele><time>2026-04-19T14:09:36.318Z</time></trkpt><trkpt lat="42.7356325" lon="10.3980758"><ele>334.0</ele><time>2026-04-19T14:09:37.321Z</time></trkpt><trkpt lat="42.735712" lon="10.3980504"><ele>334.0</ele><time>2026-04-19T14:09:38.324Z</time></trkpt><trkpt lat="42.7358023" lon="10.3980165"><ele>334.0</ele><time>2026-04-19T14:09:39.324Z</time></trkpt><trkpt lat="42.7358836" lon="10.3979759"><ele>334.0</ele><time>2026-04-19T14:09:40.323Z</time></trkpt><trkpt lat="42.7359518" lon="10.3979424"><ele>335.66666666666663</ele><time>2026-04-19T14:09:41.325Z</time></trkpt><trkpt lat="42.7360143" lon="10.3978818"><ele>337.3333333333333</ele><time>2026-04-19T14:09:42.321Z</time></trkpt><trkpt lat="42.7360721" lon="10.397799"><ele>339.0</ele><time>2026-04-19T14:09:43.324Z</time></trkpt><trkpt lat="42.7361176" lon="10.3976955"><ele>340.6666666666667</ele><time>2026-04-19T14:09:44.326Z</time></trkpt><trkpt lat="42.7361344" lon="10.3975759"><ele>342.33333333333337</ele><time>2026-04-19T14:09:45.329Z</time></trkpt><trkpt lat="42.7361342" lon="10.3974591"><ele>344.0</ele><time>2026-04-19T14:09:46.334Z</time></trkpt><trkpt lat="42.7361083" lon="10.397344"><ele>344.0</ele><time>2026-04-19T14:09:47.334Z</time></trkpt><trkpt lat="42.7360656" lon="10.3972484"><ele>344.0</ele><time>2026-04-19T14:09:48.332Z</time></trkpt><trkpt lat="42.7359977" lon="10.3971732"><ele>344.0</ele><time>2026-04-19T14:09:49.339Z</time></trkpt><trkpt lat="42.7359113" lon="10.3971075"><ele>344.0</ele><time>2026-04-19T14:09:50.335Z</time></trkpt><trkpt lat="42.7358131" lon="10.3970524"><ele>344.0</ele><time>2026-04-19T14:09:51.327Z</time></trkpt><trkpt lat="42.7356963" lon="10.3970169"><ele>341.75</ele><time>2026-04-19T14:09:52.329Z</time></trkpt><trkpt lat="42.7355636" lon="10.3970054"><ele>339.5</ele><time>2026-04-19T14:09:53.329Z</time></trkpt><trkpt lat="42.7354287" lon="10.3969931"><ele>337.25</ele><time>2026-04-19T14:09:54.329Z</time></trkpt><trkpt lat="42.7352941" lon="10.3969772"><ele>335.0</ele><time>2026-04-19T14:09:55.334Z</time></trkpt><trkpt lat="42.7351599" lon="10.3969619"><ele>335.0</ele><time>2026-04-19T14:09:56.336Z</time></trkpt><trkpt lat="42.7350215" lon="10.3969631"><ele>335.0</ele><time>2026-04-19T14:09:57.335Z</time></trkpt><trkpt lat="42.7348766" lon="10.39698"><ele>335.0</ele><time>2026-04-19T14:09:58.344Z</time></trkpt><trkpt lat="42.7347305" lon="10.3970075"><ele>335.0</ele><time>2026-04-19T14:09:59.34Z</time></trkpt><trkpt lat="42.7345821" lon="10.3970339"><ele>335.0</ele><time>2026-04-19T14:10:00.333Z</time></trkpt><trkpt lat="42.73444" lon="10.3970458"><ele>335.0</ele><time>2026-04-19T14:10:01.333Z</time></trkpt><trkpt lat="42.7343035" lon="10.3970491"><ele>335.0</ele><time>2026-04-19T14:10:02.331Z</time></trkpt><trkpt lat="42.7341794" lon="10.3970377"><ele>335.0</ele><time>2026-04-19T14:10:03.33Z</time></trkpt><trkpt lat="42.7340741" lon="10.3970275"><ele>335.5</ele><time>2026-04-19T14:10:04.333Z</time></trkpt><trkpt lat="42.733976" lon="10.3970335"><ele>336.0</ele><time>2026-04-19T14:10:05.337Z</time></trkpt><trkpt lat="42.7338904" lon="10.3970611"><ele>336.5</ele><time>2026-04-19T14:10:06.334Z</time></trkpt><trkpt lat="42.7338156" lon="10.39707"><ele>337.0</ele><time>2026-04-19T14:10:07.333Z</time></trkpt><trkpt lat="42.7337489" lon="10.3970356"><ele>337.5</ele><time>2026-04-19T14:10:08.335Z</time></trkpt><trkpt lat="42.7336766" lon="10.3969534"><ele>338.0</ele><time>2026-04-19T14:10:09.332Z</time></trkpt><trkpt lat="42.7335918" lon="10.3968992"><ele>338.0</ele><time>2026-04-19T14:10:10.327Z</time></trkpt><trkpt lat="42.7334993" lon="10.3968516"><ele>338.0</ele><time>2026-04-19T14:10:11.33Z</time></trkpt><trkpt lat="42.7334233" lon="10.3968095"><ele>338.0</ele><time>2026-04-19T14:10:12.328Z</time></trkpt><trkpt lat="42.7333751" lon="10.3967017"><ele>338.0</ele><time>2026-04-19T14:10:14.331Z</time></trkpt><trkpt lat="42.7334192" lon="10.3966304"><ele>338.0</ele><time>2026-04-19T14:10:15.331Z</time></trkpt><trkpt lat="42.7334942" lon="10.3965269"><ele>338.0</ele><time>2026-04-19T14:10:16.329Z</time></trkpt><trkpt lat="42.7335873" lon="10.3963833"><ele>337.33333333333337</ele><time>2026-04-19T14:10:17.331Z</time></trkpt><trkpt lat="42.7336779" lon="10.3962155"><ele>336.6666666666667</ele><time>2026-04-19T14:10:18.328Z</time></trkpt><trkpt lat="42.7337692" lon="10.3960229"><ele>336.0</ele><time>2026-04-19T14:10:19.323Z</time></trkpt><trkpt lat="42.7338546" lon="10.3958048"><ele>336.0</ele><time>2026-04-19T14:10:20.323Z</time></trkpt><trkpt lat="42.7339462" lon="10.3956124"><ele>336.0</ele><time>2026-04-19T14:10:21.327Z</time></trkpt><trkpt lat="42.7340269" lon="10.3954374"><ele>336.0</ele><time>2026-04-19T14:10:22.322Z</time></trkpt><trkpt lat="42.7340973" lon="10.3952768"><ele>339.75</ele><time>2026-04-19T14:10:23.323Z</time></trkpt><trkpt lat="42.7341764" lon="10.3951082"><ele>343.5</ele><time>2026-04-19T14:10:24.332Z</time></trkpt><trkpt lat="42.7342488" lon="10.3949455"><ele>347.25</ele><time>2026-04-19T14:10:25.33Z</time></trkpt><trkpt lat="42.7343161" lon="10.3947853"><ele>351.0</ele><time>2026-04-19T14:10:26.334Z</time></trkpt><trkpt lat="42.7343739" lon="10.3946278"><ele>347.0</ele><time>2026-04-19T14:10:27.333Z</time></trkpt><trkpt lat="42.7344197" lon="10.3944647"><ele>343.0</ele><time>2026-04-19T14:10:28.339Z</time></trkpt><trkpt lat="42.7344463" lon="10.3943094"><ele>339.0</ele><time>2026-04-19T14:10:29.332Z</time></trkpt><trkpt lat="42.7344616" lon="10.3941634"><ele>335.0</ele><time>2026-04-19T14:10:30.336Z</time></trkpt><trkpt lat="42.7344737" lon="10.3940381"><ele>331.0</ele><time>2026-04-19T14:10:31.34Z</time></trkpt><trkpt lat="42.7344416" lon="10.3939522"><ele>334.4</ele><time>2026-04-19T14:10:32.33Z</time></trkpt><trkpt lat="42.7343805" lon="10.3938947"><ele>337.8</ele><time>2026-04-19T14:10:33.333Z</time></trkpt><trkpt lat="42.7342862" lon="10.3938432"><ele>341.2</ele><time>2026-04-19T14:10:34.344Z</time></trkpt><trkpt lat="42.7341647" lon="10.3937921"><ele>344.59999999999997</ele><time>2026-04-19T14:10:35.337Z</time></trkpt><trkpt lat="42.7340466" lon="10.3937663"><ele>348.0</ele><time>2026-04-19T14:10:36.339Z</time></trkpt><trkpt lat="42.7339353" lon="10.3937672"><ele>348.0</ele><time>2026-04-19T14:10:37.326Z</time></trkpt><trkpt lat="42.7338371" lon="10.3937779"><ele>348.0</ele><time>2026-04-19T14:10:38.332Z</time></trkpt><trkpt lat="42.7337388" lon="10.3938036"><ele>348.0</ele><time>2026-04-19T14:10:39.334Z</time></trkpt><trkpt lat="42.7336441" lon="10.3938428"><ele>348.0</ele><time>2026-04-19T14:10:40.335Z</time></trkpt><trkpt lat="42.733543" lon="10.3938846"><ele>348.0</ele><time>2026-04-19T14:10:41.341Z</time></trkpt><trkpt lat="42.7334397" lon="10.3939205"><ele>351.0</ele><time>2026-04-19T14:10:42.333Z</time></trkpt><trkpt lat="42.7333379" lon="10.3939423"><ele>354.0</ele><time>2026-04-19T14:10:43.333Z</time></trkpt><trkpt lat="42.7332389" lon="10.3939413"><ele>357.0</ele><time>2026-04-19T14:10:44.337Z</time></trkpt><trkpt lat="42.7331375" lon="10.3939426"><ele>360.0</ele><time>2026-04-19T14:10:45.341Z</time></trkpt><trkpt lat="42.733042" lon="10.3939377"><ele>363.0</ele><time>2026-04-19T14:10:46.339Z</time></trkpt><trkpt lat="42.7329589" lon="10.3939252"><ele>361.4</ele><time>2026-04-19T14:10:47.34Z</time></trkpt><trkpt lat="42.7328885" lon="10.3938334"><ele>359.79999999999995</ele><time>2026-04-19T14:10:49.352Z</time></trkpt><trkpt lat="42.7329393" lon="10.3936639"><ele>358.2</ele><time>2026-04-19T14:10:51.353Z</time></trkpt><trkpt lat="42.7329895" lon="10.3935433"><ele>356.6</ele><time>2026-04-19T14:10:52.337Z</time></trkpt><trkpt lat="42.733033" lon="10.3934498"><ele>355.0</ele><time>2026-04-19T14:10:53.341Z</time></trkpt><trkpt lat="42.7330898" lon="10.3933431"><ele>355.0</ele><time>2026-04-19T14:10:55.339Z</time></trkpt><trkpt lat="42.7331205" lon="10.3932335"><ele>355.0</ele><time>2026-04-19T14:10:58.35Z</time></trkpt><trkpt lat="42.7331495" lon="10.3931326"><ele>355.0</ele><time>2026-04-19T14:11:00.348Z</time></trkpt><trkpt lat="42.7331774" lon="10.3930552"><ele>355.0</ele><time>2026-04-19T14:11:02.343Z</time></trkpt><trkpt lat="42.7332165" lon="10.3929837"><ele>355.0</ele><time>2026-04-19T14:11:05.346Z</time></trkpt><trkpt lat="42.7332913" lon="10.3928795"><ele>355.0</ele><time>2026-04-19T14:11:30.347Z</time></trkpt><trkpt lat="42.7333421" lon="10.3928215"><ele>354.16666666666663</ele><time>2026-04-19T14:11:31.355Z</time></trkpt><trkpt lat="42.7333986" lon="10.3927549"><ele>353.3333333333333</ele><time>2026-04-19T14:11:32.351Z</time></trkpt><trkpt lat="42.7334571" lon="10.3926971"><ele>352.5</ele><time>2026-04-19T14:11:33.352Z</time></trkpt><trkpt lat="42.7335144" lon="10.3926497"><ele>351.6666666666667</ele><time>2026-04-19T14:11:34.347Z</time></trkpt><trkpt lat="42.7336006" lon="10.392543"><ele>350.83333333333337</ele><time>2026-04-19T14:11:36.344Z</time></trkpt><trkpt lat="42.7336478" lon="10.3924804"><ele>350.0</ele><time>2026-04-19T14:11:37.344Z</time></trkpt><trkpt lat="42.7337098" lon="10.3923969"><ele>348.8</ele><time>2026-04-19T14:11:38.349Z</time></trkpt><trkpt lat="42.7337789" lon="10.3922968"><ele>347.6</ele><time>2026-04-19T14:11:39.346Z</time></trkpt><trkpt lat="42.7338395" lon="10.3921962"><ele>346.4</ele><time>2026-04-19T14:11:40.344Z</time></trkpt><trkpt lat="42.7338899" lon="10.3920947"><ele>345.2</ele><time>2026-04-19T14:11:41.344Z</time></trkpt><trkpt lat="42.7339361" lon="10.3919814"><ele>344.0</ele><time>2026-04-19T14:11:42.345Z</time></trkpt><trkpt lat="42.7339884" lon="10.3918837"><ele>343.6666666666667</ele><time>2026-04-19T14:11:43.348Z</time></trkpt><trkpt lat="42.7340443" lon="10.3918005"><ele>343.33333333333337</ele><time>2026-04-19T14:11:44.345Z</time></trkpt><trkpt lat="42.7340894" lon="10.3917144"><ele>343.0</ele><time>2026-04-19T14:11:45.343Z</time></trkpt><trkpt lat="42.7341264" lon="10.3916142"><ele>342.6666666666667</ele><time>2026-04-19T14:11:46.341Z</time></trkpt><trkpt lat="42.7341529" lon="10.3914997"><ele>342.3333333333333</ele><time>2026-04-19T14:11:47.342Z</time></trkpt><trkpt lat="42.7341769" lon="10.391385"><ele>342.0</ele><time>2026-04-19T14:11:48.345Z</time></trkpt><trkpt lat="42.7342036" lon="10.391283"><ele>341.3333333333333</ele><time>2026-04-19T14:11:49.341Z</time></trkpt><trkpt lat="42.7342145" lon="10.3911796"><ele>340.6666666666667</ele><time>2026-04-19T14:11:50.353Z</time></trkpt><trkpt lat="42.7342283" lon="10.3910824"><ele>340.0</ele><time>2026-04-19T14:11:51.344Z</time></trkpt><trkpt lat="42.7342461" lon="10.3909891"><ele>339.33333333333337</ele><time>2026-04-19T14:11:52.351Z</time></trkpt><trkpt lat="42.7342707" lon="10.3908993"><ele>338.6666666666667</ele><time>2026-04-19T14:11:53.345Z</time></trkpt><trkpt lat="42.7343252" lon="10.3907365"><ele>338.0</ele><time>2026-04-19T14:11:55.346Z</time></trkpt><trkpt lat="42.7343699" lon="10.3906645"><ele>337.5</ele><time>2026-04-19T14:11:56.345Z</time></trkpt><trkpt lat="42.7344159" lon="10.3905988"><ele>337.0</ele><time>2026-04-19T14:11:57.348Z</time></trkpt><trkpt lat="42.7344878" lon="10.390501"><ele>336.5</ele><time>2026-04-19T14:11:59.347Z</time></trkpt><trkpt lat="42.7345375" lon="10.3904475"><ele>336.0</ele><time>2026-04-19T14:12:01.349Z</time></trkpt><trkpt lat="42.7345314" lon="10.3903333"><ele>335.5</ele><time>2026-04-19T14:12:04.343Z</time></trkpt><trkpt lat="42.7344579" lon="10.3903288"><ele>335.0</ele><time>2026-04-19T14:12:06.342Z</time></trkpt><trkpt lat="42.7344016" lon="10.3903764"><ele>335.6</ele><time>2026-04-19T14:12:09.348Z</time></trkpt><trkpt lat="42.7343787" lon="10.3904832"><ele>336.2</ele><time>2026-04-19T14:23:51.366Z</time></trkpt><trkpt lat="42.7343491" lon="10.3906621"><ele>336.79999999999995</ele><time>2026-04-19T14:23:53.368Z</time></trkpt><trkpt lat="42.7343288" lon="10.3907805"><ele>337.4</ele><time>2026-04-19T14:23:54.358Z</time></trkpt><trkpt lat="42.7343019" lon="10.3909085"><ele>338.0</ele><time>2026-04-19T14:23:55.364Z</time></trkpt><trkpt lat="42.7342685" lon="10.391043"><ele>338.0</ele><time>2026-04-19T14:23:56.374Z</time></trkpt><trkpt lat="42.7342325" lon="10.3911731"><ele>338.0</ele><time>2026-04-19T14:23:57.363Z</time></trkpt><trkpt lat="42.7341897" lon="10.3913029"><ele>338.0</ele><time>2026-04-19T14:23:58.371Z</time></trkpt><trkpt lat="42.7341363" lon="10.3914285"><ele>338.0</ele><time>2026-04-19T14:23:59.373Z</time></trkpt><trkpt lat="42.7340885" lon="10.3915504"><ele>338.0</ele><time>2026-04-19T14:24:00.357Z</time></trkpt><trkpt lat="42.7340492" lon="10.3916685"><ele>338.79999999999995</ele><time>2026-04-19T14:24:01.37Z</time></trkpt><trkpt lat="42.7340139" lon="10.3917804"><ele>339.6</ele><time>2026-04-19T14:24:02.36Z</time></trkpt><trkpt lat="42.7339687" lon="10.391894"><ele>340.4</ele><time>2026-04-19T14:24:03.366Z</time></trkpt><trkpt lat="42.7339142" lon="10.3919914"><ele>341.20000000000005</ele><time>2026-04-19T14:24:04.367Z</time></trkpt><trkpt lat="42.7338637" lon="10.3920693"><ele>342.0</ele><time>2026-04-19T14:24:05.363Z</time></trkpt><trkpt lat="42.7337873" lon="10.3921949"><ele>342.3333333333333</ele><time>2026-04-19T14:24:07.367Z</time></trkpt><trkpt lat="42.7337198" lon="10.3923325"><ele>342.6666666666667</ele><time>2026-04-19T14:24:09.371Z</time></trkpt><trkpt lat="42.7336789" lon="10.3924163"><ele>343.0</ele><time>2026-04-19T14:24:10.367Z</time></trkpt><trkpt lat="42.7336314" lon="10.3924949"><ele>343.33333333333337</ele><time>2026-04-19T14:24:11.364Z</time></trkpt><trkpt lat="42.7335783" lon="10.3925654"><ele>343.6666666666667</ele><time>2026-04-19T14:24:12.367Z</time></trkpt><trkpt lat="42.7335241" lon="10.3926304"><ele>344.0</ele><time>2026-04-19T14:24:13.363Z</time></trkpt><trkpt lat="42.7334241" lon="10.3927261"><ele>344.8571428571429</ele><time>2026-04-19T14:24:15.366Z</time></trkpt><trkpt lat="42.7333683" lon="10.3927701"><ele>345.7142857142857</ele><time>2026-04-19T14:24:16.368Z</time></trkpt><trkpt lat="42.7333113" lon="10.3928223"><ele>346.57142857142856</ele><time>2026-04-19T14:24:17.371Z</time></trkpt><trkpt lat="42.7332602" lon="10.3928819"><ele>347.42857142857144</ele><time>2026-04-19T14:24:18.368Z</time></trkpt><trkpt lat="42.7332066" lon="10.3929525"><ele>348.2857142857143</ele><time>2026-04-19T14:24:19.368Z</time></trkpt><trkpt lat="42.7331506" lon="10.3930339"><ele>349.14285714285717</ele><time>2026-04-19T14:24:20.37Z</time></trkpt><trkpt lat="42.7330974" lon="10.393119"><ele>350.0</ele><time>2026-04-19T14:24:21.364Z</time></trkpt><trkpt lat="42.7330424" lon="10.3931974"><ele>350.5</ele><time>2026-04-19T14:24:22.365Z</time></trkpt><trkpt lat="42.7329861" lon="10.3932508"><ele>351.0</ele><time>2026-04-19T14:24:23.359Z</time></trkpt><trkpt lat="42.7329253" lon="10.3932784"><ele>351.5</ele><time>2026-04-19T14:24:24.366Z</time></trkpt><trkpt lat="42.7327924" lon="10.3933159"><ele>352.0</ele><time>2026-04-19T14:24:26.37Z</time></trkpt><trkpt lat="42.7327115" lon="10.3933477"><ele>352.5</ele><time>2026-04-19T14:24:27.37Z</time></trkpt><trkpt lat="42.7326278" lon="10.3934089"><ele>353.0</ele><time>2026-04-19T14:24:28.371Z</time></trkpt><trkpt lat="42.7325421" lon="10.3934775"><ele>353.0</ele><time>2026-04-19T14:24:29.365Z</time></trkpt><trkpt lat="42.7324505" lon="10.3935513"><ele>353.0</ele><time>2026-04-19T14:24:30.367Z</time></trkpt><trkpt lat="42.7323551" lon="10.393619"><ele>353.0</ele><time>2026-04-19T14:24:31.37Z</time></trkpt><trkpt lat="42.7322582" lon="10.3936786"><ele>353.0</ele><time>2026-04-19T14:24:32.368Z</time></trkpt><trkpt lat="42.7321628" lon="10.3937366"><ele>353.0</ele><time>2026-04-19T14:24:33.364Z</time></trkpt><trkpt lat="42.732066" lon="10.3937891"><ele>355.0</ele><time>2026-04-19T14:24:34.365Z</time></trkpt><trkpt lat="42.731968" lon="10.393855"><ele>357.0</ele><time>2026-04-19T14:24:35.361Z</time></trkpt><trkpt lat="42.7318763" lon="10.3939069"><ele>359.0</ele><time>2026-04-19T14:24:36.36Z</time></trkpt><trkpt lat="42.731799" lon="10.3939397"><ele>361.0</ele><time>2026-04-19T14:24:37.358Z</time></trkpt><trkpt lat="42.731706" lon="10.3939156"><ele>363.0</ele><time>2026-04-19T14:24:39.359Z</time></trkpt><trkpt lat="42.7316962" lon="10.3937121"><ele>363.0</ele><time>2026-04-19T14:24:41.346Z</time></trkpt><trkpt lat="42.7316983" lon="10.3935592"><ele>363.0</ele><time>2026-04-19T14:24:42.348Z</time></trkpt><trkpt lat="42.7316921" lon="10.3933823"><ele>363.0</ele><time>2026-04-19T14:24:43.356Z</time></trkpt><trkpt lat="42.7316844" lon="10.3931974"><ele>363.0</ele><time>2026-04-19T14:24:44.356Z</time></trkpt><trkpt lat="42.7316727" lon="10.3930067"><ele>361.75</ele><time>2026-04-19T14:24:45.364Z</time></trkpt><trkpt lat="42.7316589" lon="10.3928215"><ele>360.5</ele><time>2026-04-19T14:24:46.361Z</time></trkpt><trkpt lat="42.7316421" lon="10.3926448"><ele>359.25</ele><time>2026-04-19T14:24:47.365Z</time></trkpt><trkpt lat="42.7316237" lon="10.3924732"><ele>358.0</ele><time>2026-04-19T14:24:48.364Z</time></trkpt><trkpt lat="42.7316067" lon="10.3923161"><ele>355.0</ele><time>2026-04-19T14:24:49.365Z</time></trkpt><trkpt lat="42.7315841" lon="10.3921672"><ele>352.0</ele><time>2026-04-19T14:24:50.36Z</time></trkpt><trkpt lat="42.7315465" lon="10.3920334"><ele>349.0</ele><time>2026-04-19T14:24:51.369Z</time></trkpt><trkpt lat="42.7314835" lon="10.3919191"><ele>346.0</ele><time>2026-04-19T14:24:52.365Z</time></trkpt><trkpt lat="42.7313885" lon="10.3918062"><ele>343.0</ele><time>2026-04-19T14:24:53.363Z</time></trkpt><trkpt lat="42.7312731" lon="10.3916932"><ele>343.0</ele><time>2026-04-19T14:24:54.364Z</time></trkpt><trkpt lat="42.731163" lon="10.3915715"><ele>343.0</ele><time>2026-04-19T14:24:55.357Z</time></trkpt><trkpt lat="42.7310765" lon="10.3914603"><ele>343.0</ele><time>2026-04-19T14:24:56.372Z</time></trkpt><trkpt lat="42.7310057" lon="10.3913756"><ele>343.0</ele><time>2026-04-19T14:24:57.365Z</time></trkpt><trkpt lat="42.7309279" lon="10.3913285"><ele>343.0</ele><time>2026-04-19T14:24:58.378Z</time></trkpt><trkpt lat="42.7308467" lon="10.3913122"><ele>344.2</ele><time>2026-04-19T14:24:59.361Z</time></trkpt><trkpt lat="42.7307633" lon="10.3913205"><ele>345.4</ele><time>2026-04-19T14:25:00.368Z</time></trkpt><trkpt lat="42.7306729" lon="10.3913726"><ele>346.59999999999997</ele><time>2026-04-19T14:25:01.368Z</time></trkpt><trkpt lat="42.7305924" lon="10.3914749"><ele>347.79999999999995</ele><time>2026-04-19T14:25:02.365Z</time></trkpt><trkpt lat="42.7305283" lon="10.3916099"><ele>349.0</ele><time>2026-04-19T14:25:03.359Z</time></trkpt><trkpt lat="42.7304735" lon="10.3917435"><ele>351.5</ele><time>2026-04-19T14:25:04.348Z</time></trkpt><trkpt lat="42.7304242" lon="10.3919006"><ele>354.0</ele><time>2026-04-19T14:25:05.359Z</time></trkpt><trkpt lat="42.7303769" lon="10.3920613"><ele>356.5</ele><time>2026-04-19T14:25:06.357Z</time></trkpt><trkpt lat="42.7303312" lon="10.3922167"><ele>359.0</ele><time>2026-04-19T14:25:07.356Z</time></trkpt><trkpt lat="42.7302946" lon="10.3923575"><ele>359.2</ele><time>2026-04-19T14:25:08.358Z</time></trkpt><trkpt lat="42.7302652" lon="10.3925028"><ele>359.4</ele><time>2026-04-19T14:25:09.355Z</time></trkpt><trkpt lat="42.7302396" lon="10.3926547"><ele>359.6</ele><time>2026-04-19T14:25:10.357Z</time></trkpt><trkpt lat="42.7302208" lon="10.392805"><ele>359.8</ele><time>2026-04-19T14:25:11.351Z</time></trkpt><trkpt lat="42.7301927" lon="10.3929313"><ele>360.0</ele><time>2026-04-19T14:25:12.355Z</time></trkpt><trkpt lat="42.7301372" lon="10.3930507"><ele>360.0</ele><time>2026-04-19T14:25:13.342Z</time></trkpt><trkpt lat="42.7300583" lon="10.3931442"><ele>360.0</ele><time>2026-04-19T14:25:14.361Z</time></trkpt><trkpt lat="42.7299696" lon="10.3932111"><ele>360.0</ele><time>2026-04-19T14:25:15.352Z</time></trkpt><trkpt lat="42.7298875" lon="10.3932859"><ele>360.0</ele><time>2026-04-19T14:25:16.356Z</time></trkpt><trkpt lat="42.7298194" lon="10.3933755"><ele>360.0</ele><time>2026-04-19T14:25:17.351Z</time></trkpt><trkpt lat="42.729765" lon="10.3934932"><ele>360.0</ele><time>2026-04-19T14:25:18.356Z</time></trkpt><trkpt lat="42.7297219" lon="10.3936533"><ele>360.0</ele><time>2026-04-19T14:25:19.354Z</time></trkpt><trkpt lat="42.7296905" lon="10.3938068"><ele>360.0</ele><time>2026-04-19T14:25:20.349Z</time></trkpt><trkpt lat="42.7296597" lon="10.3939413"><ele>360.0</ele><time>2026-04-19T14:25:21.353Z</time></trkpt><trkpt lat="42.7296205" lon="10.3940234"><ele>360.0</ele><time>2026-04-19T14:25:22.349Z</time></trkpt><trkpt lat="42.7294958" lon="10.3940539"><ele>360.0</ele><time>2026-04-19T14:25:24.353Z</time></trkpt><trkpt lat="42.7293893" lon="10.39401"><ele>360.0</ele><time>2026-04-19T14:25:25.344Z</time></trkpt><trkpt lat="42.7292644" lon="10.3939669"><ele>360.0</ele><time>2026-04-19T14:25:26.352Z</time></trkpt><trkpt lat="42.7291434" lon="10.3939383"><ele>360.0</ele><time>2026-04-19T14:25:27.351Z</time></trkpt><trkpt lat="42.7290333" lon="10.3939286"><ele>360.0</ele><time>2026-04-19T14:25:28.373Z</time></trkpt><trkpt lat="42.7289318" lon="10.3939694"><ele>360.0</ele><time>2026-04-19T14:25:29.367Z</time></trkpt><trkpt lat="42.7288351" lon="10.3940453"><ele>360.0</ele><time>2026-04-19T14:25:30.354Z</time></trkpt><trkpt lat="42.7287556" lon="10.3941503"><ele>360.0</ele><time>2026-04-19T14:25:31.368Z</time></trkpt><trkpt lat="42.7286987" lon="10.3942787"><ele>360.0</ele><time>2026-04-19T14:25:32.361Z</time></trkpt><trkpt lat="42.7286646" lon="10.394421"><ele>360.0</ele><time>2026-04-19T14:25:33.353Z</time></trkpt><trkpt lat="42.7286564" lon="10.3945768"><ele>360.0</ele><time>2026-04-19T14:25:34.362Z</time></trkpt><trkpt lat="42.7286768" lon="10.3947504"><ele>360.0</ele><time>2026-04-19T14:25:35.359Z</time></trkpt><trkpt lat="42.7287279" lon="10.3949301"><ele>360.0</ele><time>2026-04-19T14:25:36.356Z</time></trkpt><trkpt lat="42.7287988" lon="10.3950914"><ele>362.0</ele><time>2026-04-19T14:25:37.351Z</time></trkpt><trkpt lat="42.7288665" lon="10.3952371"><ele>364.0</ele><time>2026-04-19T14:25:38.351Z</time></trkpt><trkpt lat="42.7289075" lon="10.3953541"><ele>366.0</ele><time>2026-04-19T14:25:39.354Z</time></trkpt><trkpt lat="42.7289041" lon="10.3954489"><ele>368.0</ele><time>2026-04-19T14:25:40.34Z</time></trkpt><trkpt lat="42.7288568" lon="10.3955206"><ele>370.0</ele><time>2026-04-19T14:25:41.346Z</time></trkpt><trkpt lat="42.728762" lon="10.3955776"><ele>370.8</ele><time>2026-04-19T14:25:42.348Z</time></trkpt><trkpt lat="42.7286642" lon="10.3956394"><ele>371.6</ele><time>2026-04-19T14:25:43.35Z</time></trkpt><trkpt lat="42.7285884" lon="10.395717"><ele>372.4</ele><time>2026-04-19T14:25:44.352Z</time></trkpt><trkpt lat="42.7285459" lon="10.3958166"><ele>373.2</ele><time>2026-04-19T14:25:45.36Z</time></trkpt><trkpt lat="42.7285449" lon="10.3959516"><ele>374.0</ele><time>2026-04-19T14:25:46.353Z</time></trkpt><trkpt lat="42.7285886" lon="10.3961127"><ele>374.0</ele><time>2026-04-19T14:25:47.349Z</time></trkpt><trkpt lat="42.7286549" lon="10.3962885"><ele>374.0</ele><time>2026-04-19T14:25:48.347Z</time></trkpt><trkpt lat="42.7287183" lon="10.3964392"><ele>374.0</ele><time>2026-04-19T14:25:49.345Z</time></trkpt><trkpt lat="42.7287644" lon="10.3965715"><ele>374.0</ele><time>2026-04-19T14:25:50.352Z</time></trkpt><trkpt lat="42.728785" lon="10.3966799"><ele>373.6</ele><time>2026-04-19T14:25:51.344Z</time></trkpt><trkpt lat="42.728723" lon="10.3968119"><ele>373.2</ele><time>2026-04-19T14:25:53.341Z</time></trkpt><trkpt lat="42.7286402" lon="10.3968454"><ele>372.8</ele><time>2026-04-19T14:25:54.325Z</time></trkpt><trkpt lat="42.7285593" lon="10.3968792"><ele>372.40000000000003</ele><time>2026-04-19T14:25:55.321Z</time></trkpt><trkpt lat="42.728469" lon="10.3968987"><ele>372.0</ele><time>2026-04-19T14:25:56.326Z</time></trkpt><trkpt lat="42.7283659" lon="10.3969115"><ele>367.8</ele><time>2026-04-19T14:25:57.324Z</time></trkpt><trkpt lat="42.7282531" lon="10.3968813"><ele>363.6</ele><time>2026-04-19T14:25:58.34Z</time></trkpt><trkpt lat="42.7281527" lon="10.3968474"><ele>359.40000000000003</ele><time>2026-04-19T14:25:59.344Z</time></trkpt><trkpt lat="42.7280524" lon="10.3968326"><ele>355.20000000000005</ele><time>2026-04-19T14:26:00.352Z</time></trkpt><trkpt lat="42.7279294" lon="10.3968641"><ele>351.0</ele><time>2026-04-19T14:26:01.351Z</time></trkpt><trkpt lat="42.7277993" lon="10.3969503"><ele>352.3333333333333</ele><time>2026-04-19T14:26:02.347Z</time></trkpt><trkpt lat="42.7276581" lon="10.3970576"><ele>353.66666666666663</ele><time>2026-04-19T14:26:03.343Z</time></trkpt><trkpt lat="42.727507" lon="10.3971731"><ele>355.0</ele><time>2026-04-19T14:26:04.348Z</time></trkpt><trkpt lat="42.7273769" lon="10.3973109"><ele>355.0</ele><time>2026-04-19T14:26:05.345Z</time></trkpt><trkpt lat="42.7272581" lon="10.3974307"><ele>355.0</ele><time>2026-04-19T14:26:06.348Z</time></trkpt><trkpt lat="42.7271737" lon="10.397548"><ele>355.0</ele><time>2026-04-19T14:26:07.354Z</time></trkpt><trkpt lat="42.7271036" lon="10.397669"><ele>355.0</ele><time>2026-04-19T14:26:08.353Z</time></trkpt><trkpt lat="42.7270529" lon="10.3977944"><ele>355.0</ele><time>2026-04-19T14:26:09.352Z</time></trkpt><trkpt lat="42.7270119" lon="10.3979085"><ele>355.0</ele><time>2026-04-19T14:26:10.348Z</time></trkpt><trkpt lat="42.7269911" lon="10.3980285"><ele>355.0</ele><time>2026-04-19T14:26:11.359Z</time></trkpt><trkpt lat="42.7270023" lon="10.3981617"><ele>355.0</ele><time>2026-04-19T14:26:12.361Z</time></trkpt><trkpt lat="42.7270381" lon="10.3983385"><ele>355.0</ele><time>2026-04-19T14:26:13.353Z</time></trkpt><trkpt lat="42.7270734" lon="10.3984763"><ele>356.6</ele><time>2026-04-19T14:26:14.353Z</time></trkpt><trkpt lat="42.727081" lon="10.3985829"><ele>358.2</ele><time>2026-04-19T14:26:15.349Z</time></trkpt><trkpt lat="42.727051" lon="10.3986631"><ele>359.79999999999995</ele><time>2026-04-19T14:26:16.353Z</time></trkpt><trkpt lat="42.7269856" lon="10.3987387"><ele>361.4</ele><time>2026-04-19T14:26:17.348Z</time></trkpt><trkpt lat="42.7268733" lon="10.3988133"><ele>363.0</ele><time>2026-04-19T14:26:18.351Z</time></trkpt><trkpt lat="42.7267478" lon="10.3988997"><ele>359.59999999999997</ele><time>2026-04-19T14:26:19.337Z</time></trkpt><trkpt lat="42.7266412" lon="10.3989828"><ele>356.2</ele><time>2026-04-19T14:26:20.346Z</time></trkpt><trkpt lat="42.726552" lon="10.3990791"><ele>352.8</ele><time>2026-04-19T14:26:21.358Z</time></trkpt><trkpt lat="42.7264878" lon="10.3991811"><ele>349.4</ele><time>2026-04-19T14:26:22.35Z</time></trkpt><trkpt lat="42.7264376" lon="10.3993047"><ele>346.0</ele><time>2026-04-19T14:26:23.355Z</time></trkpt><trkpt lat="42.7264368" lon="10.3994421"><ele>346.0</ele><time>2026-04-19T14:26:24.358Z</time></trkpt><trkpt lat="42.7264692" lon="10.3995942"><ele>346.0</ele><time>2026-04-19T14:26:25.35Z</time></trkpt><trkpt lat="42.7265264" lon="10.3997133"><ele>346.0</ele><time>2026-04-19T14:26:26.348Z</time></trkpt><trkpt lat="42.7266141" lon="10.3998274"><ele>346.0</ele><time>2026-04-19T14:26:27.343Z</time></trkpt><trkpt lat="42.7267177" lon="10.399944"><ele>345.75</ele><time>2026-04-19T14:26:28.345Z</time></trkpt><trkpt lat="42.7268177" lon="10.400051"><ele>345.5</ele><time>2026-04-19T14:26:29.348Z</time></trkpt><trkpt lat="42.7269224" lon="10.4001212"><ele>345.25</ele><time>2026-04-19T14:26:30.337Z</time></trkpt><trkpt lat="42.7270471" lon="10.4001755"><ele>345.0</ele><time>2026-04-19T14:26:31.341Z</time></trkpt><trkpt lat="42.7271652" lon="10.4002138"><ele>348.0</ele><time>2026-04-19T14:26:32.333Z</time></trkpt><trkpt lat="42.7272504" lon="10.4002534"><ele>351.0</ele><time>2026-04-19T14:26:33.347Z</time></trkpt><trkpt lat="42.7273055" lon="10.4003031"><ele>354.0</ele><time>2026-04-19T14:26:34.339Z</time></trkpt><trkpt lat="42.7272958" lon="10.4004831"><ele>357.0</ele><time>2026-04-19T14:26:36.339Z</time></trkpt><trkpt lat="42.7272621" lon="10.4005801"><ele>360.0</ele><time>2026-04-19T14:26:37.335Z</time></trkpt><trkpt lat="42.7272157" lon="10.400639"><ele>363.0</ele><time>2026-04-19T14:26:38.338Z</time></trkpt><trkpt lat="42.727077" lon="10.4006519"><ele>363.5</ele><time>2026-04-19T14:26:40.344Z</time></trkpt><trkpt lat="42.726953" lon="10.4006383"><ele>364.0</ele><time>2026-04-19T14:26:41.348Z</time></trkpt><trkpt lat="42.7267873" lon="10.4006284"><ele>364.5</ele><time>2026-04-19T14:26:42.343Z</time></trkpt><trkpt lat="42.7266289" lon="10.4006322"><ele>365.0</ele><time>2026-04-19T14:26:43.349Z</time></trkpt><trkpt lat="42.7264807" lon="10.4006274"><ele>362.6</ele><time>2026-04-19T14:26:44.347Z</time></trkpt><trkpt lat="42.7263608" lon="10.4006489"><ele>360.2</ele><time>2026-04-19T14:26:45.344Z</time></trkpt><trkpt lat="42.7262592" lon="10.4006824"><ele>357.79999999999995</ele><time>2026-04-19T14:26:46.35Z</time></trkpt><trkpt lat="42.7261696" lon="10.4007451"><ele>355.4</ele><time>2026-04-19T14:26:47.352Z</time></trkpt><trkpt lat="42.7261154" lon="10.4008493"><ele>353.0</ele><time>2026-04-19T14:26:48.344Z</time></trkpt><trkpt lat="42.7260657" lon="10.4009946"><ele>349.0</ele><time>2026-04-19T14:26:49.35Z</time></trkpt><trkpt lat="42.7260253" lon="10.4012079"><ele>345.0</ele><time>2026-04-19T14:26:50.344Z</time></trkpt><trkpt lat="42.7259955" lon="10.401419"><ele>341.0</ele><time>2026-04-19T14:26:51.356Z</time></trkpt><trkpt lat="42.7259692" lon="10.4016469"><ele>341.0</ele><time>2026-04-19T14:26:52.357Z</time></trkpt><trkpt lat="42.7259257" lon="10.4018516"><ele>341.0</ele><time>2026-04-19T14:26:53.352Z</time></trkpt><trkpt lat="42.7258576" lon="10.4020224"><ele>341.0</ele><time>2026-04-19T14:26:54.361Z</time></trkpt><trkpt lat="42.7257695" lon="10.4021797"><ele>341.0</ele><time>2026-04-19T14:26:55.356Z</time></trkpt><trkpt lat="42.725697" lon="10.4023126"><ele>342.6</ele><time>2026-04-19T14:26:56.354Z</time></trkpt><trkpt lat="42.7256476" lon="10.4024311"><ele>344.20000000000005</ele><time>2026-04-19T14:26:57.363Z</time></trkpt><trkpt lat="42.7256406" lon="10.4025524"><ele>345.79999999999995</ele><time>2026-04-19T14:26:58.358Z</time></trkpt><trkpt lat="42.7256469" lon="10.4026964"><ele>347.4</ele><time>2026-04-19T14:26:59.356Z</time></trkpt><trkpt lat="42.7256653" lon="10.4028365"><ele>349.0</ele><time>2026-04-19T14:27:00.356Z</time></trkpt><trkpt lat="42.7256984" lon="10.4029822"><ele>348.3333333333333</ele><time>2026-04-19T14:27:01.365Z</time></trkpt><trkpt lat="42.7257551" lon="10.403111"><ele>347.66666666666663</ele><time>2026-04-19T14:27:02.356Z</time></trkpt><trkpt lat="42.7258114" lon="10.4032058"><ele>347.0</ele><time>2026-04-19T14:27:03.354Z</time></trkpt><trkpt lat="42.7258689" lon="10.4032796"><ele>346.3333333333333</ele><time>2026-04-19T14:27:04.357Z</time></trkpt><trkpt lat="42.7259374" lon="10.4033264"><ele>345.6666666666667</ele><time>2026-04-19T14:27:05.358Z</time></trkpt><trkpt lat="42.7260278" lon="10.4033367"><ele>345.0</ele><time>2026-04-19T14:27:06.356Z</time></trkpt><trkpt lat="42.7261277" lon="10.4033095"><ele>345.0</ele><time>2026-04-19T14:27:07.348Z</time></trkpt><trkpt lat="42.726234" lon="10.4032691"><ele>345.0</ele><time>2026-04-19T14:27:08.352Z</time></trkpt><trkpt lat="42.7263551" lon="10.4031921"><ele>345.0</ele><time>2026-04-19T14:27:09.344Z</time></trkpt><trkpt lat="42.7264907" lon="10.4030915"><ele>345.0</ele><time>2026-04-19T14:27:10.348Z</time></trkpt><trkpt lat="42.7266247" lon="10.4029979"><ele>348.0</ele><time>2026-04-19T14:27:11.345Z</time></trkpt><trkpt lat="42.7267498" lon="10.4029251"><ele>351.0</ele><time>2026-04-19T14:27:12.337Z</time></trkpt><trkpt lat="42.7268604" lon="10.4028831"><ele>354.0</ele><time>2026-04-19T14:27:13.345Z</time></trkpt><trkpt lat="42.7269568" lon="10.4028644"><ele>357.0</ele><time>2026-04-19T14:27:14.35Z</time></trkpt><trkpt lat="42.727049" lon="10.4028903"><ele>360.0</ele><time>2026-04-19T14:27:15.346Z</time></trkpt><trkpt lat="42.7271356" lon="10.4029566"><ele>360.2</ele><time>2026-04-19T14:27:16.342Z</time></trkpt><trkpt lat="42.7272103" lon="10.4030456"><ele>360.4</ele><time>2026-04-19T14:27:17.345Z</time></trkpt><trkpt lat="42.7272541" lon="10.4031407"><ele>360.6</ele><time>2026-04-19T14:27:18.346Z</time></trkpt><trkpt lat="42.7272727" lon="10.4032515"><ele>360.8</ele><time>2026-04-19T14:27:19.348Z</time></trkpt><trkpt lat="42.7272576" lon="10.4033723"><ele>361.0</ele><time>2026-04-19T14:27:20.338Z</time></trkpt><trkpt lat="42.7272016" lon="10.4035277"><ele>361.0</ele><time>2026-04-19T14:27:21.341Z</time></trkpt><trkpt lat="42.7271549" lon="10.4036868"><ele>361.0</ele><time>2026-04-19T14:27:22.338Z</time></trkpt><trkpt lat="42.7271223" lon="10.4038444"><ele>361.0</ele><time>2026-04-19T14:27:23.343Z</time></trkpt><trkpt lat="42.7271117" lon="10.4039766"><ele>361.0</ele><time>2026-04-19T14:27:24.351Z</time></trkpt><trkpt lat="42.7271346" lon="10.4040871"><ele>361.0</ele><time>2026-04-19T14:27:25.349Z</time></trkpt><trkpt lat="42.727184" lon="10.4041882"><ele>359.8</ele><time>2026-04-19T14:27:26.341Z</time></trkpt><trkpt lat="42.7272702" lon="10.4042695"><ele>358.6</ele><time>2026-04-19T14:27:27.344Z</time></trkpt><trkpt lat="42.7273662" lon="10.4043314"><ele>357.4</ele><time>2026-04-19T14:27:28.338Z</time></trkpt><trkpt lat="42.7274436" lon="10.4043708"><ele>356.2</ele><time>2026-04-19T14:27:29.348Z</time></trkpt><trkpt lat="42.7274957" lon="10.404476"><ele>355.0</ele><time>2026-04-19T14:27:31.34Z</time></trkpt><trkpt lat="42.7274265" lon="10.4045741"><ele>355.0</ele><time>2026-04-19T14:27:33.347Z</time></trkpt><trkpt lat="42.7273338" lon="10.4046274"><ele>355.0</ele><time>2026-04-19T14:27:34.341Z</time></trkpt><trkpt lat="42.7272408" lon="10.4047105"><ele>355.0</ele><time>2026-04-19T14:27:35.334Z</time></trkpt><trkpt lat="42.7271559" lon="10.4047956"><ele>355.0</ele><time>2026-04-19T14:27:36.34Z</time></trkpt><trkpt lat="42.7270738" lon="10.4048675"><ele>355.0</ele><time>2026-04-19T14:27:37.344Z</time></trkpt><trkpt lat="42.727" lon="10.4049415"><ele>354.8333333333333</ele><time>2026-04-19T14:27:38.348Z</time></trkpt><trkpt lat="42.7269365" lon="10.4050181"><ele>354.66666666666663</ele><time>2026-04-19T14:27:39.343Z</time></trkpt><trkpt lat="42.7268749" lon="10.4050815"><ele>354.5</ele><time>2026-04-19T14:27:40.35Z</time></trkpt><trkpt lat="42.7268267" lon="10.4051444"><ele>354.3333333333333</ele><time>2026-04-19T14:27:41.348Z</time></trkpt><trkpt lat="42.7267457" lon="10.4052429"><ele>354.1666666666667</ele><time>2026-04-19T14:27:43.345Z</time></trkpt><trkpt lat="42.7266716" lon="10.4052611"><ele>354.0</ele><time>2026-04-19T14:27:45.363Z</time></trkpt><trkpt lat="42.7267021" lon="10.4051643"><ele>354.0</ele><time>2026-04-19T14:27:50.37Z</time></trkpt><trkpt lat="42.7267461" lon="10.4050883"><ele>354.0</ele><time>2026-04-19T14:28:59.37Z</time></trkpt><trkpt lat="42.7268226" lon="10.404968"><ele>354.0</ele><time>2026-04-19T14:29:01.369Z</time></trkpt><trkpt lat="42.7268664" lon="10.4048717"><ele>354.0</ele><time>2026-04-19T14:29:02.348Z</time></trkpt><trkpt lat="42.7269222" lon="10.4047764"><ele>354.0</ele><time>2026-04-19T14:29:03.363Z</time></trkpt><trkpt lat="42.7269663" lon="10.4046889"><ele>354.0</ele><time>2026-04-19T14:29:04.357Z</time></trkpt><trkpt lat="42.7269893" lon="10.4045991"><ele>354.1666666666667</ele><time>2026-04-19T14:29:05.369Z</time></trkpt><trkpt lat="42.7269921" lon="10.4045117"><ele>354.3333333333333</ele><time>2026-04-19T14:29:06.357Z</time></trkpt><trkpt lat="42.7269137" lon="10.404404"><ele>354.5</ele><time>2026-04-19T14:29:08.347Z</time></trkpt><trkpt lat="42.7268439" lon="10.4043516"><ele>354.66666666666663</ele><time>2026-04-19T14:29:09.347Z</time></trkpt><trkpt lat="42.7267807" lon="10.4042891"><ele>354.8333333333333</ele><time>2026-04-19T14:29:10.343Z</time></trkpt><trkpt lat="42.7267383" lon="10.4042089"><ele>355.0</ele><time>2026-04-19T14:29:11.35Z</time></trkpt><trkpt lat="42.7267277" lon="10.4040991"><ele>353.0</ele><time>2026-04-19T14:29:12.352Z</time></trkpt><trkpt lat="42.726728" lon="10.4039758"><ele>351.0</ele><time>2026-04-19T14:29:13.347Z</time></trkpt><trkpt lat="42.7267292" lon="10.4038603"><ele>349.0</ele><time>2026-04-19T14:29:14.347Z</time></trkpt><trkpt lat="42.7267181" lon="10.4037526"><ele>347.0</ele><time>2026-04-19T14:29:15.353Z</time></trkpt><trkpt lat="42.7266696" lon="10.4036269"><ele>345.0</ele><time>2026-04-19T14:29:17.352Z</time></trkpt><trkpt lat="42.7265648" lon="10.4036658"><ele>345.0</ele><time>2026-04-19T14:29:19.353Z</time></trkpt><trkpt lat="42.7264929" lon="10.4037393"><ele>345.0</ele><time>2026-04-19T14:29:20.346Z</time></trkpt><trkpt lat="42.72641" lon="10.4038258"><ele>345.0</ele><time>2026-04-19T14:29:21.343Z</time></trkpt><trkpt lat="42.726326" lon="10.4039134"><ele>345.0</ele><time>2026-04-19T14:29:22.353Z</time></trkpt><trkpt lat="42.7262356" lon="10.4039975"><ele>345.0</ele><time>2026-04-19T14:29:23.344Z</time></trkpt><trkpt lat="42.7261383" lon="10.4040716"><ele>340.6</ele><time>2026-04-19T14:29:24.342Z</time></trkpt><trkpt lat="42.7260416" lon="10.404128"><ele>336.2</ele><time>2026-04-19T14:29:25.34Z</time></trkpt><trkpt lat="42.7259458" lon="10.4041856"><ele>331.79999999999995</ele><time>2026-04-19T14:29:26.341Z</time></trkpt><trkpt lat="42.7258592" lon="10.4042461"><ele>327.4</ele><time>2026-04-19T14:29:27.343Z</time></trkpt><trkpt lat="42.7257727" lon="10.4043042"><ele>323.0</ele><time>2026-04-19T14:29:28.348Z</time></trkpt><trkpt lat="42.7256859" lon="10.4043508"><ele>323.0</ele><time>2026-04-19T14:29:29.341Z</time></trkpt><trkpt lat="42.7255958" lon="10.4043826"><ele>323.0</ele><time>2026-04-19T14:29:30.343Z</time></trkpt><trkpt lat="42.7255031" lon="10.404413"><ele>323.0</ele><time>2026-04-19T14:29:31.343Z</time></trkpt><trkpt lat="42.7254012" lon="10.4044497"><ele>323.0</ele><time>2026-04-19T14:29:32.336Z</time></trkpt><trkpt lat="42.7252817" lon="10.4044879"><ele>323.0</ele><time>2026-04-19T14:29:33.343Z</time></trkpt><trkpt lat="42.7251587" lon="10.4045287"><ele>321.2</ele><time>2026-04-19T14:29:34.34Z</time></trkpt><trkpt lat="42.725041" lon="10.4045694"><ele>319.4</ele><time>2026-04-19T14:29:35.337Z</time></trkpt><trkpt lat="42.7249384" lon="10.4046033"><ele>317.59999999999997</ele><time>2026-04-19T14:29:36.339Z</time></trkpt><trkpt lat="42.7248442" lon="10.404628"><ele>315.79999999999995</ele><time>2026-04-19T14:29:37.34Z</time></trkpt><trkpt lat="42.7247614" lon="10.4046423"><ele>314.0</ele><time>2026-04-19T14:29:38.34Z</time></trkpt><trkpt lat="42.7246825" lon="10.4046365"><ele>314.0</ele><time>2026-04-19T14:29:39.34Z</time></trkpt><trkpt lat="42.7246135" lon="10.4046053"><ele>314.0</ele><time>2026-04-19T14:29:40.346Z</time></trkpt><trkpt lat="42.7245507" lon="10.4045359"><ele>314.0</ele><time>2026-04-19T14:29:41.349Z</time></trkpt><trkpt lat="42.7244928" lon="10.4044512"><ele>314.0</ele><time>2026-04-19T14:29:42.346Z</time></trkpt><trkpt lat="42.7244339" lon="10.4043459"><ele>314.0</ele><time>2026-04-19T14:29:43.357Z</time></trkpt><trkpt lat="42.7243899" lon="10.4042424"><ele>314.0</ele><time>2026-04-19T14:29:44.351Z</time></trkpt><trkpt lat="42.7243675" lon="10.404126"><ele>314.8</ele><time>2026-04-19T14:29:45.355Z</time></trkpt><trkpt lat="42.7243616" lon="10.4039982"><ele>315.59999999999997</ele><time>2026-04-19T14:29:46.352Z</time></trkpt><trkpt lat="42.7243726" lon="10.4038786"><ele>316.4</ele><time>2026-04-19T14:29:47.353Z</time></trkpt><trkpt lat="42.724383" lon="10.4037526"><ele>317.2</ele><time>2026-04-19T14:29:48.35Z</time></trkpt><trkpt lat="42.7243978" lon="10.4036144"><ele>318.0</ele><time>2026-04-19T14:29:49.356Z</time></trkpt><trkpt lat="42.7244198" lon="10.4034648"><ele>318.0</ele><time>2026-04-19T14:29:50.351Z</time></trkpt><trkpt lat="42.724435" lon="10.4033075"><ele>318.0</ele><time>2026-04-19T14:29:51.35Z</time></trkpt><trkpt lat="42.7244395" lon="10.4031416"><ele>318.0</ele><time>2026-04-19T14:29:52.355Z</time></trkpt><trkpt lat="42.7244345" lon="10.4029784"><ele>318.0</ele><time>2026-04-19T14:29:53.355Z</time></trkpt><trkpt lat="42.7244322" lon="10.4028311"><ele>317.4</ele><time>2026-04-19T14:29:54.349Z</time></trkpt><trkpt lat="42.7244288" lon="10.4026805"><ele>316.8</ele><time>2026-04-19T14:29:55.348Z</time></trkpt><trkpt lat="42.7244393" lon="10.4025281"><ele>316.2</ele><time>2026-04-19T14:29:56.359Z</time></trkpt><trkpt lat="42.7244546" lon="10.4023829"><ele>315.6</ele><time>2026-04-19T14:29:57.351Z</time></trkpt><trkpt lat="42.7244695" lon="10.4022314"><ele>315.0</ele><time>2026-04-19T14:29:58.359Z</time></trkpt><trkpt lat="42.7244737" lon="10.4020788"><ele>313.2</ele><time>2026-04-19T14:29:59.351Z</time></trkpt><trkpt lat="42.7244641" lon="10.4019233"><ele>311.4</ele><time>2026-04-19T14:30:00.357Z</time></trkpt><trkpt lat="42.7244252" lon="10.4017681"><ele>309.6</ele><time>2026-04-19T14:30:01.355Z</time></trkpt><trkpt lat="42.7243692" lon="10.4016361"><ele>307.8</ele><time>2026-04-19T14:30:02.348Z</time></trkpt><trkpt lat="42.7243185" lon="10.4015193"><ele>306.0</ele><time>2026-04-19T14:30:03.349Z</time></trkpt><trkpt lat="42.7242866" lon="10.4014117"><ele>304.5</ele><time>2026-04-19T14:30:04.35Z</time></trkpt><trkpt lat="42.724284" lon="10.4013062"><ele>303.0</ele><time>2026-04-19T14:30:05.347Z</time></trkpt><trkpt lat="42.7243107" lon="10.4012091"><ele>301.5</ele><time>2026-04-19T14:30:06.358Z</time></trkpt><trkpt lat="42.7243658" lon="10.4011362"><ele>300.0</ele><time>2026-04-19T14:30:07.358Z</time></trkpt><trkpt lat="42.7244465" lon="10.4010825"><ele>298.5</ele><time>2026-04-19T14:30:08.351Z</time></trkpt><trkpt lat="42.7245241" lon="10.4010411"><ele>297.0</ele><time>2026-04-19T14:30:09.352Z</time></trkpt><trkpt lat="42.7246015" lon="10.4010089"><ele>297.0</ele><time>2026-04-19T14:30:10.343Z</time></trkpt><trkpt lat="42.7246591" lon="10.4009704"><ele>297.0</ele><time>2026-04-19T14:30:11.347Z</time></trkpt><trkpt lat="42.7246967" lon="10.4008969"><ele>297.0</ele><time>2026-04-19T14:30:12.352Z</time></trkpt><trkpt lat="42.7247028" lon="10.4007956"><ele>297.0</ele><time>2026-04-19T14:30:13.346Z</time></trkpt><trkpt lat="42.7246748" lon="10.4006639"><ele>297.0</ele><time>2026-04-19T14:30:14.345Z</time></trkpt><trkpt lat="42.7246231" lon="10.4005118"><ele>297.0</ele><time>2026-04-19T14:30:15.337Z</time></trkpt><trkpt lat="42.7245822" lon="10.4003528"><ele>296.8</ele><time>2026-04-19T14:30:16.345Z</time></trkpt><trkpt lat="42.7245513" lon="10.4002015"><ele>296.6</ele><time>2026-04-19T14:30:17.356Z</time></trkpt><trkpt lat="42.7245533" lon="10.4000632"><ele>296.40000000000003</ele><time>2026-04-19T14:30:18.336Z</time></trkpt><trkpt lat="42.7245605" lon="10.399914"><ele>296.2</ele><time>2026-04-19T14:30:19.332Z</time></trkpt><trkpt lat="42.7245722" lon="10.3997594"><ele>296.0</ele><time>2026-04-19T14:30:20.336Z</time></trkpt><trkpt lat="42.7245778" lon="10.3995883"><ele>296.0</ele><time>2026-04-19T14:30:21.343Z</time></trkpt><trkpt lat="42.7245846" lon="10.3994131"><ele>296.0</ele><time>2026-04-19T14:30:22.345Z</time></trkpt><trkpt lat="42.7245892" lon="10.3992629"><ele>296.0</ele><time>2026-04-19T14:30:23.346Z</time></trkpt><trkpt lat="42.7245757" lon="10.3991309"><ele>296.0</ele><time>2026-04-19T14:30:24.347Z</time></trkpt><trkpt lat="42.7245508" lon="10.3990153"><ele>296.0</ele><time>2026-04-19T14:30:25.337Z</time></trkpt><trkpt lat="42.7244923" lon="10.3989237"><ele>296.0</ele><time>2026-04-19T14:30:26.338Z</time></trkpt><trkpt lat="42.7244139" lon="10.3988431"><ele>296.0</ele><time>2026-04-19T14:30:27.341Z</time></trkpt><trkpt lat="42.7243496" lon="10.3987666"><ele>296.0</ele><time>2026-04-19T14:30:28.341Z</time></trkpt><trkpt lat="42.7243083" lon="10.398688"><ele>296.0</ele><time>2026-04-19T14:30:29.352Z</time></trkpt><trkpt lat="42.7243099" lon="10.3985936"><ele>296.0</ele><time>2026-04-19T14:30:30.341Z</time></trkpt><trkpt lat="42.7243442" lon="10.3984698"><ele>296.0</ele><time>2026-04-19T14:30:31.347Z</time></trkpt><trkpt lat="42.7243833" lon="10.3983234"><ele>297.0</ele><time>2026-04-19T14:30:32.351Z</time></trkpt><trkpt lat="42.7244184" lon="10.3981706"><ele>298.0</ele><time>2026-04-19T14:30:33.345Z</time></trkpt><trkpt lat="42.7244385" lon="10.398016"><ele>299.0</ele><time>2026-04-19T14:30:34.341Z</time></trkpt><trkpt lat="42.7244369" lon="10.3978379"><ele>300.0</ele><time>2026-04-19T14:30:35.337Z</time></trkpt><trkpt lat="42.7244108" lon="10.3976412"><ele>293.0</ele><time>2026-04-19T14:30:36.338Z</time></trkpt><trkpt lat="42.7243833" lon="10.3974574"><ele>286.0</ele><time>2026-04-19T14:30:37.336Z</time></trkpt><trkpt lat="42.7243516" lon="10.3972824"><ele>279.0</ele><time>2026-04-19T14:30:38.344Z</time></trkpt><trkpt lat="42.7243108" lon="10.3971246"><ele>272.0</ele><time>2026-04-19T14:30:39.348Z</time></trkpt><trkpt lat="42.7242378" lon="10.3969734"><ele>272.0</ele><time>2026-04-19T14:30:40.339Z</time></trkpt><trkpt lat="42.724148" lon="10.3968158"><ele>272.0</ele><time>2026-04-19T14:30:41.347Z</time></trkpt><trkpt lat="42.7240609" lon="10.3966607"><ele>272.0</ele><time>2026-04-19T14:30:42.342Z</time></trkpt><trkpt lat="42.7239761" lon="10.3965207"><ele>272.0</ele><time>2026-04-19T14:30:43.342Z</time></trkpt><trkpt lat="42.723916" lon="10.396398"><ele>272.6666666666667</ele><time>2026-04-19T14:30:44.344Z</time></trkpt><trkpt lat="42.7238694" lon="10.3962816"><ele>273.33333333333337</ele><time>2026-04-19T14:30:45.345Z</time></trkpt><trkpt lat="42.7238341" lon="10.3961614"><ele>274.0</ele><time>2026-04-19T14:30:46.348Z</time></trkpt><trkpt lat="42.7238098" lon="10.3960652"><ele>274.6666666666667</ele><time>2026-04-19T14:30:47.348Z</time></trkpt><trkpt lat="42.7237829" lon="10.3959758"><ele>275.3333333333333</ele><time>2026-04-19T14:30:48.344Z</time></trkpt><trkpt lat="42.7237521" lon="10.3958807"><ele>276.0</ele><time>2026-04-19T14:30:49.345Z</time></trkpt><trkpt lat="42.7237263" lon="10.3957661"><ele>276.0</ele><time>2026-04-19T14:30:50.348Z</time></trkpt><trkpt lat="42.7237075" lon="10.395647"><ele>276.0</ele><time>2026-04-19T14:30:51.349Z</time></trkpt><trkpt lat="42.7236978" lon="10.3955349"><ele>276.0</ele><time>2026-04-19T14:30:52.354Z</time></trkpt><trkpt lat="42.7237088" lon="10.3954363"><ele>276.0</ele><time>2026-04-19T14:30:53.351Z</time></trkpt><trkpt lat="42.7237446" lon="10.3953416"><ele>276.0</ele><time>2026-04-19T14:30:54.357Z</time></trkpt><trkpt lat="42.7238182" lon="10.3952465"><ele>276.0</ele><time>2026-04-19T14:30:55.365Z</time></trkpt><trkpt lat="42.7239277" lon="10.3951505"><ele>272.0</ele><time>2026-04-19T14:30:56.348Z</time></trkpt><trkpt lat="42.7240475" lon="10.3950589"><ele>268.0</ele><time>2026-04-19T14:30:57.354Z</time></trkpt><trkpt lat="42.7241524" lon="10.3949671"><ele>264.0</ele><time>2026-04-19T14:30:58.357Z</time></trkpt><trkpt lat="42.7242327" lon="10.3948762"><ele>260.0</ele><time>2026-04-19T14:30:59.353Z</time></trkpt><trkpt lat="42.724288" lon="10.3947709"><ele>258.6</ele><time>2026-04-19T14:31:00.353Z</time></trkpt><trkpt lat="42.7243276" lon="10.3946571"><ele>257.2</ele><time>2026-04-19T14:31:01.357Z</time></trkpt><trkpt lat="42.7243258" lon="10.3945232"><ele>255.8</ele><time>2026-04-19T14:31:02.344Z</time></trkpt><trkpt lat="42.7242874" lon="10.394362"><ele>254.4</ele><time>2026-04-19T14:31:03.336Z</time></trkpt><trkpt lat="42.7242454" lon="10.3941984"><ele>253.0</ele><time>2026-04-19T14:31:04.338Z</time></trkpt><trkpt lat="42.7242074" lon="10.3940454"><ele>253.0</ele><time>2026-04-19T14:31:05.342Z</time></trkpt><trkpt lat="42.7241709" lon="10.3939062"><ele>253.0</ele><time>2026-04-19T14:31:06.337Z</time></trkpt><trkpt lat="42.7241264" lon="10.3937634"><ele>253.0</ele><time>2026-04-19T14:31:07.346Z</time></trkpt><trkpt lat="42.7240763" lon="10.3936276"><ele>253.0</ele><time>2026-04-19T14:31:08.339Z</time></trkpt><trkpt lat="42.724021" lon="10.3934849"><ele>255.75</ele><time>2026-04-19T14:31:09.339Z</time></trkpt><trkpt lat="42.7239581" lon="10.3933368"><ele>258.5</ele><time>2026-04-19T14:31:10.343Z</time></trkpt><trkpt lat="42.7238902" lon="10.3931803"><ele>261.25</ele><time>2026-04-19T14:31:11.345Z</time></trkpt><trkpt lat="42.7238226" lon="10.393025"><ele>264.0</ele><time>2026-04-19T14:31:12.345Z</time></trkpt><trkpt lat="42.7237643" lon="10.3928766"><ele>265.75</ele><time>2026-04-19T14:31:13.34Z</time></trkpt><trkpt lat="42.7237019" lon="10.392728"><ele>267.5</ele><time>2026-04-19T14:31:14.351Z</time></trkpt><trkpt lat="42.7236308" lon="10.3925889"><ele>269.25</ele><time>2026-04-19T14:31:15.345Z</time></trkpt><trkpt lat="42.7235543" lon="10.3924672"><ele>271.0</ele><time>2026-04-19T14:31:16.344Z</time></trkpt><trkpt lat="42.7234781" lon="10.3923383"><ele>262.5</ele><time>2026-04-19T14:31:17.347Z</time></trkpt><trkpt lat="42.723395" lon="10.3922139"><ele>254.0</ele><time>2026-04-19T14:31:18.348Z</time></trkpt><trkpt lat="42.7233197" lon="10.392097"><ele>245.5</ele><time>2026-04-19T14:31:19.357Z</time></trkpt><trkpt lat="42.7232491" lon="10.3919787"><ele>237.0</ele><time>2026-04-19T14:31:20.35Z</time></trkpt><trkpt lat="42.7231887" lon="10.3918593"><ele>237.0</ele><time>2026-04-19T14:31:21.35Z</time></trkpt><trkpt lat="42.723142" lon="10.3917395"><ele>237.0</ele><time>2026-04-19T14:31:22.35Z</time></trkpt><trkpt lat="42.7231103" lon="10.3916178"><ele>237.0</ele><time>2026-04-19T14:31:23.351Z</time></trkpt><trkpt lat="42.7230997" lon="10.3914955"><ele>237.0</ele><time>2026-04-19T14:31:24.363Z</time></trkpt><trkpt lat="42.723131" lon="10.3913675"><ele>237.0</ele><time>2026-04-19T14:31:25.36Z</time></trkpt><trkpt lat="42.7231965" lon="10.39123"><ele>234.25</ele><time>2026-04-19T14:31:26.354Z</time></trkpt><trkpt lat="42.7232787" lon="10.3911174"><ele>231.5</ele><time>2026-04-19T14:31:27.354Z</time></trkpt><trkpt lat="42.7233811" lon="10.3910178"><ele>228.75</ele><time>2026-04-19T14:31:28.365Z</time></trkpt><trkpt lat="42.7234904" lon="10.3909367"><ele>226.0</ele><time>2026-04-19T14:31:29.352Z</time></trkpt><trkpt lat="42.7235908" lon="10.3908695"><ele>228.16666666666666</ele><time>2026-04-19T14:31:30.352Z</time></trkpt><trkpt lat="42.7236816" lon="10.3908059"><ele>230.33333333333331</ele><time>2026-04-19T14:31:31.352Z</time></trkpt><trkpt lat="42.7237566" lon="10.3907531"><ele>232.5</ele><time>2026-04-19T14:31:32.353Z</time></trkpt><trkpt lat="42.723816" lon="10.390677"><ele>234.66666666666669</ele><time>2026-04-19T14:31:33.35Z</time></trkpt><trkpt lat="42.7238455" lon="10.3905843"><ele>236.83333333333334</ele><time>2026-04-19T14:31:34.351Z</time></trkpt><trkpt lat="42.7238414" lon="10.3904791"><ele>239.0</ele><time>2026-04-19T14:31:35.352Z</time></trkpt><trkpt lat="42.7237993" lon="10.3903392"><ele>239.0</ele><time>2026-04-19T14:31:36.338Z</time></trkpt><trkpt lat="42.7237491" lon="10.3901939"><ele>238.99999999999997</ele><time>2026-04-19T14:31:37.343Z</time></trkpt><trkpt lat="42.723712" lon="10.390071"><ele>238.99999999999997</ele><time>2026-04-19T14:31:38.347Z</time></trkpt><trkpt lat="42.7236867" lon="10.3899485"><ele>239.0</ele><time>2026-04-19T14:31:39.355Z</time></trkpt><trkpt lat="42.7236757" lon="10.3898022"><ele>239.0</ele><time>2026-04-19T14:31:40.357Z</time></trkpt><trkpt lat="42.7236872" lon="10.3896454"><ele>237.16666666666669</ele><time>2026-04-19T14:31:41.352Z</time></trkpt><trkpt lat="42.7237153" lon="10.3895063"><ele>235.33333333333334</ele><time>2026-04-19T14:31:42.355Z</time></trkpt><trkpt lat="42.7237492" lon="10.3893952"><ele>233.5</ele><time>2026-04-19T14:31:43.354Z</time></trkpt><trkpt lat="42.7237927" lon="10.3892939"><ele>231.66666666666669</ele><time>2026-04-19T14:31:44.353Z</time></trkpt><trkpt lat="42.7238385" lon="10.3891946"><ele>229.83333333333334</ele><time>2026-04-19T14:31:45.348Z</time></trkpt><trkpt lat="42.723876" lon="10.3891037"><ele>228.0</ele><time>2026-04-19T14:31:46.358Z</time></trkpt><trkpt lat="42.723875" lon="10.38897"><ele>228.0</ele><time>2026-04-19T14:31:48.358Z</time></trkpt><trkpt lat="42.7238184" lon="10.3888963"><ele>228.0</ele><time>2026-04-19T14:31:49.36Z</time></trkpt><trkpt lat="42.723742" lon="10.3888094"><ele>228.0</ele><time>2026-04-19T14:31:50.351Z</time></trkpt><trkpt lat="42.7236687" lon="10.3887148"><ele>228.0</ele><time>2026-04-19T14:31:51.351Z</time></trkpt><trkpt lat="42.7236182" lon="10.3886184"><ele>228.0</ele><time>2026-04-19T14:31:52.35Z</time></trkpt><trkpt lat="42.7235914" lon="10.3885103"><ele>226.33333333333334</ele><time>2026-04-19T14:31:53.355Z</time></trkpt><trkpt lat="42.7235931" lon="10.3883797"><ele>224.66666666666669</ele><time>2026-04-19T14:31:54.357Z</time></trkpt><trkpt lat="42.7236158" lon="10.3882468"><ele>223.0</ele><time>2026-04-19T14:31:55.35Z</time></trkpt><trkpt lat="42.7236502" lon="10.388135"><ele>221.33333333333334</ele><time>2026-04-19T14:31:56.366Z</time></trkpt><trkpt lat="42.7237033" lon="10.3880617"><ele>219.66666666666669</ele><time>2026-04-19T14:31:57.351Z</time></trkpt><trkpt lat="42.7237539" lon="10.3879809"><ele>218.0</ele><time>2026-04-19T14:31:58.361Z</time></trkpt><trkpt lat="42.723791" lon="10.3878955"><ele>218.00000000000003</ele><time>2026-04-19T14:31:59.361Z</time></trkpt><trkpt lat="42.7237986" lon="10.3878073"><ele>218.0</ele><time>2026-04-19T14:32:00.359Z</time></trkpt><trkpt lat="42.7237634" lon="10.3877163"><ele>218.0</ele><time>2026-04-19T14:32:01.361Z</time></trkpt><trkpt lat="42.7237017" lon="10.3876208"><ele>218.0</ele><time>2026-04-19T14:32:02.352Z</time></trkpt><trkpt lat="42.7236457" lon="10.38753"><ele>218.00000000000003</ele><time>2026-04-19T14:32:03.348Z</time></trkpt><trkpt lat="42.723593" lon="10.3874341"><ele>218.0</ele><time>2026-04-19T14:32:04.353Z</time></trkpt><trkpt lat="42.7235507" lon="10.3873462"><ele>211.60000000000002</ele><time>2026-04-19T14:32:05.348Z</time></trkpt><trkpt lat="42.7235209" lon="10.387252"><ele>205.20000000000002</ele><time>2026-04-19T14:32:06.348Z</time></trkpt><trkpt lat="42.7235058" lon="10.3871429"><ele>198.8</ele><time>2026-04-19T14:32:07.357Z</time></trkpt><trkpt lat="42.7234971" lon="10.3870131"><ele>192.4</ele><time>2026-04-19T14:32:08.349Z</time></trkpt><trkpt lat="42.7234862" lon="10.3868756"><ele>186.0</ele><time>2026-04-19T14:32:09.349Z</time></trkpt><trkpt lat="42.7234631" lon="10.386745"><ele>185.4</ele><time>2026-04-19T14:32:10.351Z</time></trkpt><trkpt lat="42.723426" lon="10.386618"><ele>184.8</ele><time>2026-04-19T14:32:11.352Z</time></trkpt><trkpt lat="42.7233829" lon="10.386489"><ele>184.20000000000002</ele><time>2026-04-19T14:32:12.354Z</time></trkpt><trkpt lat="42.7233486" lon="10.3863557"><ele>183.60000000000002</ele><time>2026-04-19T14:32:13.35Z</time></trkpt><trkpt lat="42.7233287" lon="10.3862214"><ele>183.0</ele><time>2026-04-19T14:32:14.349Z</time></trkpt><trkpt lat="42.7233183" lon="10.3860784"><ele>182.4</ele><time>2026-04-19T14:32:15.349Z</time></trkpt><trkpt lat="42.7233171" lon="10.3859372"><ele>181.8</ele><time>2026-04-19T14:32:16.353Z</time></trkpt><trkpt lat="42.7233201" lon="10.385802"><ele>181.2</ele><time>2026-04-19T14:32:17.353Z</time></trkpt><trkpt lat="42.7233122" lon="10.38567"><ele>180.6</ele><time>2026-04-19T14:32:18.354Z</time></trkpt><trkpt lat="42.7232885" lon="10.3855355"><ele>180.0</ele><time>2026-04-19T14:32:19.357Z</time></trkpt><trkpt lat="42.7232469" lon="10.3854027"><ele>179.6</ele><time>2026-04-19T14:32:20.349Z</time></trkpt><trkpt lat="42.7231963" lon="10.3852701"><ele>179.2</ele><time>2026-04-19T14:32:21.351Z</time></trkpt><trkpt lat="42.723146" lon="10.3851479"><ele>178.8</ele><time>2026-04-19T14:32:22.352Z</time></trkpt><trkpt lat="42.7231006" lon="10.3850343"><ele>178.4</ele><time>2026-04-19T14:32:23.348Z</time></trkpt><trkpt lat="42.7230664" lon="10.384929"><ele>178.0</ele><time>2026-04-19T14:32:24.345Z</time></trkpt><trkpt lat="42.7230512" lon="10.3848278"><ele>178.0</ele><time>2026-04-19T14:32:25.348Z</time></trkpt><trkpt lat="42.723041" lon="10.3847314"><ele>178.0</ele><time>2026-04-19T14:32:26.356Z</time></trkpt><trkpt lat="42.7230352" lon="10.3845801"><ele>178.0</ele><time>2026-04-19T14:32:28.357Z</time></trkpt><trkpt lat="42.7230407" lon="10.3844643"><ele>178.0</ele><time>2026-04-19T14:32:30.35Z</time></trkpt><trkpt lat="42.7230486" lon="10.3843223"><ele>178.0</ele><time>2026-04-19T14:33:16.352Z</time></trkpt><trkpt lat="42.7230838" lon="10.3841529"><ele>176.8</ele><time>2026-04-19T14:33:18.354Z</time></trkpt><trkpt lat="42.723107" lon="10.3840562"><ele>175.60000000000002</ele><time>2026-04-19T14:33:19.355Z</time></trkpt><trkpt lat="42.7231368" lon="10.3839519"><ele>174.39999999999998</ele><time>2026-04-19T14:33:20.356Z</time></trkpt><trkpt lat="42.7231854" lon="10.3838495"><ele>173.2</ele><time>2026-04-19T14:33:21.36Z</time></trkpt><trkpt lat="42.7232587" lon="10.383756"><ele>172.0</ele><time>2026-04-19T14:33:22.354Z</time></trkpt><trkpt lat="42.7233466" lon="10.3836737"><ele>172.25</ele><time>2026-04-19T14:33:23.361Z</time></trkpt><trkpt lat="42.7234504" lon="10.3836003"><ele>172.5</ele><time>2026-04-19T14:33:24.355Z</time></trkpt><trkpt lat="42.7235555" lon="10.3835311"><ele>172.75</ele><time>2026-04-19T14:33:25.355Z</time></trkpt><trkpt lat="42.7236616" lon="10.3834441"><ele>173.0</ele><time>2026-04-19T14:33:26.354Z</time></trkpt><trkpt lat="42.7237648" lon="10.3833437"><ele>173.0</ele><time>2026-04-19T14:33:27.353Z</time></trkpt><trkpt lat="42.7238674" lon="10.3832303"><ele>173.0</ele><time>2026-04-19T14:33:28.358Z</time></trkpt><trkpt lat="42.7239685" lon="10.3831162"><ele>173.0</ele><time>2026-04-19T14:33:29.366Z</time></trkpt><trkpt lat="42.7240743" lon="10.3830182"><ele>173.0</ele><time>2026-04-19T14:33:30.352Z</time></trkpt><trkpt lat="42.7241802" lon="10.3829403"><ele>171.8</ele><time>2026-04-19T14:33:31.36Z</time></trkpt><trkpt lat="42.7242881" lon="10.3828976"><ele>170.60000000000002</ele><time>2026-04-19T14:33:32.355Z</time></trkpt><trkpt lat="42.724393" lon="10.3828367"><ele>169.39999999999998</ele><time>2026-04-19T14:33:33.356Z</time></trkpt><trkpt lat="42.7244807" lon="10.3827564"><ele>168.2</ele><time>2026-04-19T14:33:34.363Z</time></trkpt><trkpt lat="42.7245491" lon="10.3826482"><ele>167.0</ele><time>2026-04-19T14:33:35.349Z</time></trkpt><trkpt lat="42.7246007" lon="10.3825157"><ele>167.0</ele><time>2026-04-19T14:33:36.355Z</time></trkpt><trkpt lat="42.7246408" lon="10.382357"><ele>167.0</ele><time>2026-04-19T14:33:37.355Z</time></trkpt><trkpt lat="42.7246809" lon="10.3821932"><ele>167.0</ele><time>2026-04-19T14:33:38.361Z</time></trkpt><trkpt lat="42.7247246" lon="10.382037"><ele>167.0</ele><time>2026-04-19T14:33:39.355Z</time></trkpt><trkpt lat="42.7247788" lon="10.3819175"><ele>164.83333333333331</ele><time>2026-04-19T14:33:40.352Z</time></trkpt><trkpt lat="42.7248384" lon="10.3818289"><ele>162.66666666666666</ele><time>2026-04-19T14:33:41.36Z</time></trkpt><trkpt lat="42.7248993" lon="10.3817925"><ele>160.5</ele><time>2026-04-19T14:33:42.357Z</time></trkpt><trkpt lat="42.7249615" lon="10.3818073"><ele>158.33333333333334</ele><time>2026-04-19T14:33:43.359Z</time></trkpt><trkpt lat="42.7250176" lon="10.3818758"><ele>156.16666666666669</ele><time>2026-04-19T14:33:44.359Z</time></trkpt><trkpt lat="42.7250617" lon="10.3819914"><ele>154.0</ele><time>2026-04-19T14:33:45.353Z</time></trkpt><trkpt lat="42.725105" lon="10.3821409"><ele>157.25</ele><time>2026-04-19T14:33:46.344Z</time></trkpt><trkpt lat="42.7251432" lon="10.3823059"><ele>160.5</ele><time>2026-04-19T14:33:47.347Z</time></trkpt><trkpt lat="42.7251795" lon="10.3824856"><ele>163.75</ele><time>2026-04-19T14:33:48.347Z</time></trkpt><trkpt lat="42.725212" lon="10.3826736"><ele>167.0</ele><time>2026-04-19T14:33:49.35Z</time></trkpt><trkpt lat="42.7252539" lon="10.3828766"><ele>159.0</ele><time>2026-04-19T14:33:50.353Z</time></trkpt><trkpt lat="42.7253065" lon="10.3830823"><ele>151.0</ele><time>2026-04-19T14:33:51.348Z</time></trkpt><trkpt lat="42.7253839" lon="10.383284"><ele>143.0</ele><time>2026-04-19T14:33:52.349Z</time></trkpt><trkpt lat="42.7254674" lon="10.3834552"><ele>143.0</ele><time>2026-04-19T14:33:53.351Z</time></trkpt><trkpt lat="42.7255661" lon="10.3836261"><ele>143.0</ele><time>2026-04-19T14:33:54.351Z</time></trkpt><trkpt lat="42.7256538" lon="10.3837858"><ele>143.0</ele><time>2026-04-19T14:33:55.352Z</time></trkpt><trkpt lat="42.7257449" lon="10.3839336"><ele>143.0</ele><time>2026-04-19T14:33:56.351Z</time></trkpt><trkpt lat="42.725835" lon="10.3840568"><ele>142.25</ele><time>2026-04-19T14:33:57.349Z</time></trkpt><trkpt lat="42.7259145" lon="10.3841901"><ele>141.5</ele><time>2026-04-19T14:33:58.356Z</time></trkpt><trkpt lat="42.7259957" lon="10.3843495"><ele>140.75</ele><time>2026-04-19T14:33:59.347Z</time></trkpt><trkpt lat="42.7260627" lon="10.3845412"><ele>140.0</ele><time>2026-04-19T14:34:00.337Z</time></trkpt><trkpt lat="42.7261044" lon="10.3847315"><ele>140.0</ele><time>2026-04-19T14:34:01.333Z</time></trkpt><trkpt lat="42.7261548" lon="10.3849057"><ele>140.0</ele><time>2026-04-19T14:34:02.329Z</time></trkpt><trkpt lat="42.7262272" lon="10.3850693"><ele>140.0</ele><time>2026-04-19T14:34:03.333Z</time></trkpt><trkpt lat="42.726301" lon="10.3852068"><ele>140.0</ele><time>2026-04-19T14:34:04.345Z</time></trkpt><trkpt lat="42.7263688" lon="10.3853639"><ele>144.0</ele><time>2026-04-19T14:34:05.342Z</time></trkpt><trkpt lat="42.7264278" lon="10.3855285"><ele>148.0</ele><time>2026-04-19T14:34:06.343Z</time></trkpt><trkpt lat="42.7264726" lon="10.3857096"><ele>152.0</ele><time>2026-04-19T14:34:07.341Z</time></trkpt><trkpt lat="42.7264932" lon="10.3858844"><ele>156.0</ele><time>2026-04-19T14:34:08.349Z</time></trkpt><trkpt lat="42.726511" lon="10.3860695"><ele>156.0</ele><time>2026-04-19T14:34:09.345Z</time></trkpt><trkpt lat="42.7265143" lon="10.3862518"><ele>156.0</ele><time>2026-04-19T14:34:10.345Z</time></trkpt><trkpt lat="42.7265053" lon="10.3864353"><ele>156.0</ele><time>2026-04-19T14:34:11.339Z</time></trkpt><trkpt lat="42.7265189" lon="10.3866324"><ele>156.0</ele><time>2026-04-19T14:34:12.342Z</time></trkpt><trkpt lat="42.7265634" lon="10.3868133"><ele>157.75</ele><time>2026-04-19T14:34:13.348Z</time></trkpt><trkpt lat="42.7266128" lon="10.3869896"><ele>159.5</ele><time>2026-04-19T14:34:14.348Z</time></trkpt><trkpt lat="42.7266857" lon="10.3871666"><ele>161.25</ele><time>2026-04-19T14:34:15.353Z</time></trkpt><trkpt lat="42.7267496" lon="10.3873229"><ele>163.0</ele><time>2026-04-19T14:34:16.345Z</time></trkpt><trkpt lat="42.7268124" lon="10.3874855"><ele>165.8</ele><time>2026-04-19T14:34:17.348Z</time></trkpt><trkpt lat="42.7268515" lon="10.3876474"><ele>168.60000000000002</ele><time>2026-04-19T14:34:18.347Z</time></trkpt><trkpt lat="42.7268977" lon="10.3877848"><ele>171.39999999999998</ele><time>2026-04-19T14:34:19.343Z</time></trkpt><trkpt lat="42.7269496" lon="10.3879053"><ele>174.2</ele><time>2026-04-19T14:34:20.345Z</time></trkpt><trkpt lat="42.7270254" lon="10.388014"><ele>177.0</ele><time>2026-04-19T14:34:21.34Z</time></trkpt><trkpt lat="42.7271025" lon="10.3881158"><ele>177.0</ele><time>2026-04-19T14:34:22.342Z</time></trkpt><trkpt lat="42.7271857" lon="10.3881992"><ele>177.0</ele><time>2026-04-19T14:34:23.337Z</time></trkpt><trkpt lat="42.7272647" lon="10.3882433"><ele>177.0</ele><time>2026-04-19T14:34:24.346Z</time></trkpt><trkpt lat="42.7273461" lon="10.3882405"><ele>177.0</ele><time>2026-04-19T14:34:25.342Z</time></trkpt><trkpt lat="42.727413" lon="10.3881738"><ele>177.0</ele><time>2026-04-19T14:34:26.34Z</time></trkpt><trkpt lat="42.7274575" lon="10.3880623"><ele>177.0</ele><time>2026-04-19T14:34:27.345Z</time></trkpt><trkpt lat="42.7274684" lon="10.3879268"><ele>177.0</ele><time>2026-04-19T14:34:28.358Z</time></trkpt><trkpt lat="42.7274372" lon="10.3877944"><ele>177.0</ele><time>2026-04-19T14:34:29.344Z</time></trkpt><trkpt lat="42.7273968" lon="10.3876608"><ele>177.0</ele><time>2026-04-19T14:34:30.339Z</time></trkpt><trkpt lat="42.7273652" lon="10.3875261"><ele>177.0</ele><time>2026-04-19T14:34:31.334Z</time></trkpt><trkpt lat="42.7273617" lon="10.3873832"><ele>177.0</ele><time>2026-04-19T14:34:32.328Z</time></trkpt><trkpt lat="42.727386" lon="10.3872277"><ele>173.5</ele><time>2026-04-19T14:34:33.33Z</time></trkpt><trkpt lat="42.7274216" lon="10.387068"><ele>170.0</ele><time>2026-04-19T14:34:34.338Z</time></trkpt><trkpt lat="42.7274729" lon="10.3868916"><ele>166.5</ele><time>2026-04-19T14:34:35.343Z</time></trkpt><trkpt lat="42.7275407" lon="10.3867047"><ele>163.0</ele><time>2026-04-19T14:34:36.332Z</time></trkpt><trkpt lat="42.7276345" lon="10.3865143"><ele>173.33333333333334</ele><time>2026-04-19T14:34:37.343Z</time></trkpt><trkpt lat="42.7277304" lon="10.386316"><ele>183.66666666666669</ele><time>2026-04-19T14:34:38.337Z</time></trkpt><trkpt lat="42.7278128" lon="10.3861061"><ele>194.0</ele><time>2026-04-19T14:34:39.342Z</time></trkpt><trkpt lat="42.7278852" lon="10.3858801"><ele>194.0</ele><time>2026-04-19T14:34:40.341Z</time></trkpt><trkpt lat="42.7279437" lon="10.3856528"><ele>194.0</ele><time>2026-04-19T14:34:41.337Z</time></trkpt><trkpt lat="42.7279897" lon="10.3854433"><ele>194.0</ele><time>2026-04-19T14:34:42.343Z</time></trkpt><trkpt lat="42.7280208" lon="10.3852471"><ele>191.75</ele><time>2026-04-19T14:34:43.338Z</time></trkpt><trkpt lat="42.7280357" lon="10.3850464"><ele>189.5</ele><time>2026-04-19T14:34:44.344Z</time></trkpt><trkpt lat="42.7280495" lon="10.3848582"><ele>187.25</ele><time>2026-04-19T14:34:45.342Z</time></trkpt><trkpt lat="42.728079" lon="10.3846709"><ele>185.0</ele><time>2026-04-19T14:34:46.348Z</time></trkpt><trkpt lat="42.7281212" lon="10.3844828"><ele>183.6</ele><time>2026-04-19T14:34:47.339Z</time></trkpt><trkpt lat="42.7281589" lon="10.3843193"><ele>182.2</ele><time>2026-04-19T14:34:48.335Z</time></trkpt><trkpt lat="42.7281918" lon="10.3841776"><ele>180.8</ele><time>2026-04-19T14:34:49.338Z</time></trkpt><trkpt lat="42.7282011" lon="10.3840436"><ele>179.4</ele><time>2026-04-19T14:34:50.34Z</time></trkpt><trkpt lat="42.7281916" lon="10.383919"><ele>178.0</ele><time>2026-04-19T14:34:51.342Z</time></trkpt><trkpt lat="42.72817" lon="10.3838102"><ele>177.99999999999997</ele><time>2026-04-19T14:34:52.337Z</time></trkpt><trkpt lat="42.7281417" lon="10.3837311"><ele>178.0</ele><time>2026-04-19T14:34:53.339Z</time></trkpt><trkpt lat="42.728104" lon="10.3836243"><ele>178.0</ele><time>2026-04-19T14:34:55.338Z</time></trkpt><trkpt lat="42.7280793" lon="10.383527"><ele>178.0</ele><time>2026-04-19T14:34:58.326Z</time></trkpt><trkpt lat="42.7280536" lon="10.3834372"><ele>178.0</ele><time>2026-04-19T14:35:01.351Z</time></trkpt><trkpt lat="42.7280264" lon="10.383354"><ele>177.99999999999997</ele><time>2026-04-19T14:35:04.348Z</time></trkpt><trkpt lat="42.7280161" lon="10.3832682"><ele>178.0</ele><time>2026-04-19T14:35:07.35Z</time></trkpt><trkpt lat="42.7280123" lon="10.3831095"><ele>178.0</ele><time>2026-04-19T14:35:10.346Z</time></trkpt><trkpt lat="42.728028" lon="10.3830263"><ele>178.0</ele><time>2026-04-19T14:35:11.345Z</time></trkpt><trkpt lat="42.7280508" lon="10.3829231"><ele>178.0</ele><time>2026-04-19T14:35:12.348Z</time></trkpt><trkpt lat="42.728077" lon="10.382812"><ele>178.0</ele><time>2026-04-19T14:35:13.344Z</time></trkpt><trkpt lat="42.7281104" lon="10.3826859"><ele>178.0</ele><time>2026-04-19T14:35:14.346Z</time></trkpt><trkpt lat="42.7281462" lon="10.3825447"><ele>178.0</ele><time>2026-04-19T14:35:15.351Z</time></trkpt><trkpt lat="42.7281783" lon="10.3823981"><ele>176.8</ele><time>2026-04-19T14:35:16.345Z</time></trkpt><trkpt lat="42.7281959" lon="10.3822531"><ele>175.60000000000002</ele><time>2026-04-19T14:35:17.351Z</time></trkpt><trkpt lat="42.7282109" lon="10.3821294"><ele>174.39999999999998</ele><time>2026-04-19T14:35:18.353Z</time></trkpt><trkpt lat="42.7282335" lon="10.3820136"><ele>173.2</ele><time>2026-04-19T14:35:19.344Z</time></trkpt><trkpt lat="42.7282734" lon="10.381904"><ele>172.0</ele><time>2026-04-19T14:35:20.351Z</time></trkpt><trkpt lat="42.7283365" lon="10.3818046"><ele>174.5</ele><time>2026-04-19T14:35:21.354Z</time></trkpt><trkpt lat="42.7284346" lon="10.3817141"><ele>177.0</ele><time>2026-04-19T14:35:22.361Z</time></trkpt><trkpt lat="42.7285469" lon="10.3816157"><ele>179.5</ele><time>2026-04-19T14:35:23.356Z</time></trkpt><trkpt lat="42.7286637" lon="10.3815161"><ele>182.0</ele><time>2026-04-19T14:35:24.341Z</time></trkpt><trkpt lat="42.7287842" lon="10.3814054"><ele>172.66666666666666</ele><time>2026-04-19T14:35:25.335Z</time></trkpt><trkpt lat="42.728907" lon="10.3812887"><ele>163.33333333333334</ele><time>2026-04-19T14:35:26.335Z</time></trkpt><trkpt lat="42.7290506" lon="10.3811671"><ele>154.0</ele><time>2026-04-19T14:35:27.343Z</time></trkpt><trkpt lat="42.7291892" lon="10.3810559"><ele>154.0</ele><time>2026-04-19T14:35:28.354Z</time></trkpt><trkpt lat="42.7293305" lon="10.3809367"><ele>154.0</ele><time>2026-04-19T14:35:29.35Z</time></trkpt><trkpt lat="42.7294644" lon="10.380828"><ele>154.0</ele><time>2026-04-19T14:35:30.349Z</time></trkpt><trkpt lat="42.7295915" lon="10.3807414"><ele>157.25</ele><time>2026-04-19T14:35:31.361Z</time></trkpt><trkpt lat="42.7297177" lon="10.3806771"><ele>160.5</ele><time>2026-04-19T14:35:32.353Z</time></trkpt><trkpt lat="42.729835" lon="10.3806629"><ele>163.75</ele><time>2026-04-19T14:35:33.367Z</time></trkpt><trkpt lat="42.7299721" lon="10.3806941"><ele>167.0</ele><time>2026-04-19T14:35:34.351Z</time></trkpt><trkpt lat="42.7301166" lon="10.380751"><ele>167.75</ele><time>2026-04-19T14:35:35.343Z</time></trkpt><trkpt lat="42.7302668" lon="10.3808135"><ele>168.5</ele><time>2026-04-19T14:35:36.345Z</time></trkpt><trkpt lat="42.730405" lon="10.3808515"><ele>169.25</ele><time>2026-04-19T14:35:37.354Z</time></trkpt><trkpt lat="42.7305427" lon="10.3808287"><ele>170.0</ele><time>2026-04-19T14:35:38.358Z</time></trkpt><trkpt lat="42.7306603" lon="10.3807679"><ele>170.0</ele><time>2026-04-19T14:35:39.35Z</time></trkpt><trkpt lat="42.7307629" lon="10.3806805"><ele>170.0</ele><time>2026-04-19T14:35:40.352Z</time></trkpt><trkpt lat="42.7308618" lon="10.3805911"><ele>170.0</ele><time>2026-04-19T14:35:41.353Z</time></trkpt><trkpt lat="42.7309726" lon="10.380542"><ele>170.0</ele><time>2026-04-19T14:35:42.352Z</time></trkpt><trkpt lat="42.7310737" lon="10.3805233"><ele>167.0</ele><time>2026-04-19T14:35:43.354Z</time></trkpt><trkpt lat="42.7311699" lon="10.3805469"><ele>164.0</ele><time>2026-04-19T14:35:44.346Z</time></trkpt><trkpt lat="42.7312498" lon="10.3805954"><ele>161.0</ele><time>2026-04-19T14:35:45.352Z</time></trkpt><trkpt lat="42.7313283" lon="10.3806838"><ele>158.0</ele><time>2026-04-19T14:35:46.343Z</time></trkpt><trkpt lat="42.7313997" lon="10.3808053"><ele>155.0</ele><time>2026-04-19T14:35:47.353Z</time></trkpt><trkpt lat="42.7314705" lon="10.3809535"><ele>155.0</ele><time>2026-04-19T14:35:48.354Z</time></trkpt><trkpt lat="42.7315623" lon="10.3811261"><ele>155.0</ele><time>2026-04-19T14:35:49.35Z</time></trkpt><trkpt lat="42.7316589" lon="10.3813189"><ele>155.0</ele><time>2026-04-19T14:35:50.347Z</time></trkpt><trkpt lat="42.7317495" lon="10.3815182"><ele>153.5</ele><time>2026-04-19T14:35:51.349Z</time></trkpt><trkpt lat="42.7318203" lon="10.3817111"><ele>152.0</ele><time>2026-04-19T14:35:52.353Z</time></trkpt><trkpt lat="42.7318753" lon="10.3818773"><ele>150.5</ele><time>2026-04-19T14:35:53.345Z</time></trkpt><trkpt lat="42.7319309" lon="10.3820085"><ele>149.0</ele><time>2026-04-19T14:35:54.344Z</time></trkpt><trkpt lat="42.731986" lon="10.3820989"><ele>149.0</ele><time>2026-04-19T14:35:55.347Z</time></trkpt><trkpt lat="42.7321223" lon="10.3820919"><ele>149.0</ele><time>2026-04-19T14:35:57.355Z</time></trkpt><trkpt lat="42.7321999" lon="10.3820191"><ele>149.0</ele><time>2026-04-19T14:35:58.357Z</time></trkpt><trkpt lat="42.732296" lon="10.3819721"><ele>149.0</ele><time>2026-04-19T14:35:59.352Z</time></trkpt><trkpt lat="42.7324059" lon="10.3819791"><ele>149.0</ele><time>2026-04-19T14:36:00.356Z</time></trkpt><trkpt lat="42.7325293" lon="10.3820247"><ele>149.0</ele><time>2026-04-19T14:36:01.352Z</time></trkpt><trkpt lat="42.7326498" lon="10.3820971"><ele>149.0</ele><time>2026-04-19T14:36:02.354Z</time></trkpt><trkpt lat="42.7327772" lon="10.3821911"><ele>149.0</ele><time>2026-04-19T14:36:03.357Z</time></trkpt><trkpt lat="42.732914" lon="10.3823054"><ele>149.0</ele><time>2026-04-19T14:36:04.347Z</time></trkpt><trkpt lat="42.7330635" lon="10.3824549"><ele>152.0</ele><time>2026-04-19T14:36:05.352Z</time></trkpt><trkpt lat="42.733194" lon="10.382598"><ele>155.0</ele><time>2026-04-19T14:36:06.351Z</time></trkpt><trkpt lat="42.7333105" lon="10.3827283"><ele>158.0</ele><time>2026-04-19T14:36:07.349Z</time></trkpt><trkpt lat="42.7334329" lon="10.38286"><ele>158.0</ele><time>2026-04-19T14:36:08.355Z</time></trkpt><trkpt lat="42.7335432" lon="10.382987"><ele>158.0</ele><time>2026-04-19T14:36:09.355Z</time></trkpt><trkpt lat="42.7336452" lon="10.383106"><ele>158.0</ele><time>2026-04-19T14:36:10.346Z</time></trkpt><trkpt lat="42.7337344" lon="10.3832314"><ele>158.0</ele><time>2026-04-19T14:36:11.346Z</time></trkpt><trkpt lat="42.7338148" lon="10.3833319"><ele>161.33333333333331</ele><time>2026-04-19T14:36:12.343Z</time></trkpt><trkpt lat="42.7338929" lon="10.3834086"><ele>164.66666666666666</ele><time>2026-04-19T14:36:13.337Z</time></trkpt><trkpt lat="42.7339751" lon="10.3834409"><ele>168.0</ele><time>2026-04-19T14:36:14.341Z</time></trkpt><trkpt lat="42.7340526" lon="10.383434"><ele>171.33333333333334</ele><time>2026-04-19T14:36:15.337Z</time></trkpt><trkpt lat="42.7341198" lon="10.3833848"><ele>174.66666666666669</ele><time>2026-04-19T14:36:16.335Z</time></trkpt><trkpt lat="42.7341743" lon="10.3833019"><ele>178.0</ele><time>2026-04-19T14:36:17.333Z</time></trkpt><trkpt lat="42.7342126" lon="10.3832046"><ele>178.0</ele><time>2026-04-19T14:36:18.334Z</time></trkpt><trkpt lat="42.7342182" lon="10.383084"><ele>178.0</ele><time>2026-04-19T14:36:19.33Z</time></trkpt><trkpt lat="42.7341988" lon="10.3829517"><ele>178.0</ele><time>2026-04-19T14:36:20.329Z</time></trkpt><trkpt lat="42.7342056" lon="10.3828121"><ele>178.0</ele><time>2026-04-19T14:36:21.336Z</time></trkpt><trkpt lat="42.7342481" lon="10.3826673"><ele>178.0</ele><time>2026-04-19T14:36:22.326Z</time></trkpt><trkpt lat="42.7342981" lon="10.3825255"><ele>175.75</ele><time>2026-04-19T14:36:23.326Z</time></trkpt><trkpt lat="42.7343308" lon="10.3823818"><ele>173.5</ele><time>2026-04-19T14:36:24.333Z</time></trkpt><trkpt lat="42.7343301" lon="10.3822251"><ele>171.25</ele><time>2026-04-19T14:36:25.329Z</time></trkpt><trkpt lat="42.7342927" lon="10.3820639"><ele>169.0</ele><time>2026-04-19T14:36:26.335Z</time></trkpt><trkpt lat="42.7342557" lon="10.3818914"><ele>167.0</ele><time>2026-04-19T14:36:27.334Z</time></trkpt><trkpt lat="42.7342333" lon="10.3816991"><ele>165.0</ele><time>2026-04-19T14:36:28.339Z</time></trkpt><trkpt lat="42.7342341" lon="10.3814943"><ele>163.0</ele><time>2026-04-19T14:36:29.332Z</time></trkpt><trkpt lat="42.7342447" lon="10.3813012"><ele>161.0</ele><time>2026-04-19T14:36:30.334Z</time></trkpt><trkpt lat="42.734271" lon="10.3811143"><ele>157.5</ele><time>2026-04-19T14:36:31.337Z</time></trkpt><trkpt lat="42.7342972" lon="10.3809378"><ele>154.0</ele><time>2026-04-19T14:36:32.333Z</time></trkpt><trkpt lat="42.7343083" lon="10.3807717"><ele>150.5</ele><time>2026-04-19T14:36:33.339Z</time></trkpt><trkpt lat="42.734309" lon="10.3806128"><ele>147.0</ele><time>2026-04-19T14:36:34.342Z</time></trkpt><trkpt lat="42.734315" lon="10.380481"><ele>148.2</ele><time>2026-04-19T14:36:35.34Z</time></trkpt><trkpt lat="42.7343463" lon="10.380373"><ele>149.39999999999998</ele><time>2026-04-19T14:36:36.341Z</time></trkpt><trkpt lat="42.7344067" lon="10.3802897"><ele>150.60000000000002</ele><time>2026-04-19T14:36:37.343Z</time></trkpt><trkpt lat="42.7344857" lon="10.3802131"><ele>151.8</ele><time>2026-04-19T14:36:38.344Z</time></trkpt><trkpt lat="42.734577" lon="10.3801572"><ele>153.0</ele><time>2026-04-19T14:36:39.358Z</time></trkpt><trkpt lat="42.7347063" lon="10.3801336"><ele>153.0</ele><time>2026-04-19T14:36:40.354Z</time></trkpt><trkpt lat="42.7348567" lon="10.3801358"><ele>153.0</ele><time>2026-04-19T14:36:41.354Z</time></trkpt><trkpt lat="42.7350163" lon="10.3801432"><ele>153.0</ele><time>2026-04-19T14:36:42.349Z</time></trkpt><trkpt lat="42.7352073" lon="10.3801601"><ele>151.66666666666666</ele><time>2026-04-19T14:36:43.344Z</time></trkpt><trkpt lat="42.7353977" lon="10.3802112"><ele>150.33333333333331</ele><time>2026-04-19T14:36:44.356Z</time></trkpt><trkpt lat="42.735579" lon="10.3802613"><ele>149.0</ele><time>2026-04-19T14:36:45.351Z</time></trkpt><trkpt lat="42.7357534" lon="10.3803226"><ele>149.0</ele><time>2026-04-19T14:36:46.349Z</time></trkpt><trkpt lat="42.7359099" lon="10.3803928"><ele>149.0</ele><time>2026-04-19T14:36:47.353Z</time></trkpt><trkpt lat="42.7360567" lon="10.3804895"><ele>149.0</ele><time>2026-04-19T14:36:48.35Z</time></trkpt><trkpt lat="42.7361905" lon="10.3805573"><ele>156.0</ele><time>2026-04-19T14:36:49.356Z</time></trkpt><trkpt lat="42.736296" lon="10.3805885"><ele>163.0</ele><time>2026-04-19T14:36:50.349Z</time></trkpt><trkpt lat="42.7364348" lon="10.38055"><ele>170.0</ele><time>2026-04-19T14:36:51.346Z</time></trkpt><trkpt lat="42.7365828" lon="10.3805262"><ele>177.0</ele><time>2026-04-19T14:36:52.346Z</time></trkpt><trkpt lat="42.7367543" lon="10.3805514"><ele>175.33333333333334</ele><time>2026-04-19T14:36:53.35Z</time></trkpt><trkpt lat="42.7369336" lon="10.3805848"><ele>173.66666666666669</ele><time>2026-04-19T14:36:54.348Z</time></trkpt><trkpt lat="42.7371024" lon="10.3806278"><ele>172.0</ele><time>2026-04-19T14:36:55.346Z</time></trkpt><trkpt lat="42.7372568" lon="10.3806947"><ele>172.0</ele><time>2026-04-19T14:36:56.348Z</time></trkpt><trkpt lat="42.7373851" lon="10.3807761"><ele>172.0</ele><time>2026-04-19T14:36:57.35Z</time></trkpt><trkpt lat="42.7374728" lon="10.3808402"><ele>172.0</ele><time>2026-04-19T14:36:58.352Z</time></trkpt><trkpt lat="42.7375567" lon="10.3808643"><ele>172.0</ele><time>2026-04-19T14:36:59.348Z</time></trkpt><trkpt lat="42.7376119" lon="10.3808222"><ele>172.0</ele><time>2026-04-19T14:37:00.341Z</time></trkpt><trkpt lat="42.737685" lon="10.3807692"><ele>169.8</ele><time>2026-04-19T14:37:01.337Z</time></trkpt><trkpt lat="42.7377484" lon="10.3806839"><ele>167.6</ele><time>2026-04-19T14:37:02.349Z</time></trkpt><trkpt lat="42.7378043" lon="10.3805681"><ele>165.4</ele><time>2026-04-19T14:37:03.342Z</time></trkpt><trkpt lat="42.7378603" lon="10.3804261"><ele>163.20000000000002</ele><time>2026-04-19T14:37:04.345Z</time></trkpt><trkpt lat="42.7379229" lon="10.3802881"><ele>161.0</ele><time>2026-04-19T14:37:05.352Z</time></trkpt><trkpt lat="42.7379944" lon="10.3801712"><ele>161.0</ele><time>2026-04-19T14:37:06.344Z</time></trkpt><trkpt lat="42.7380704" lon="10.3800938"><ele>161.0</ele><time>2026-04-19T14:37:07.348Z</time></trkpt><trkpt lat="42.738161" lon="10.3800632"><ele>161.0</ele><time>2026-04-19T14:37:08.341Z</time></trkpt><trkpt lat="42.7382729" lon="10.3800637"><ele>161.0</ele><time>2026-04-19T14:37:09.344Z</time></trkpt><trkpt lat="42.7384045" lon="10.3800766"><ele>161.0</ele><time>2026-04-19T14:37:10.349Z</time></trkpt><trkpt lat="42.738548" lon="10.3801035"><ele>166.0</ele><time>2026-04-19T14:37:11.345Z</time></trkpt><trkpt lat="42.7386836" lon="10.3801198"><ele>171.0</ele><time>2026-04-19T14:37:12.345Z</time></trkpt><trkpt lat="42.738801" lon="10.3801054"><ele>176.0</ele><time>2026-04-19T14:37:13.35Z</time></trkpt><trkpt lat="42.7389111" lon="10.3800682"><ele>181.0</ele><time>2026-04-19T14:37:14.345Z</time></trkpt><trkpt lat="42.739005" lon="10.3799911"><ele>181.0</ele><time>2026-04-19T14:37:15.347Z</time></trkpt><trkpt lat="42.739078" lon="10.3798569"><ele>181.0</ele><time>2026-04-19T14:37:16.343Z</time></trkpt><trkpt lat="42.7391382" lon="10.379705"><ele>181.0</ele><time>2026-04-19T14:37:17.343Z</time></trkpt><trkpt lat="42.7391885" lon="10.3795606"><ele>181.0</ele><time>2026-04-19T14:37:18.344Z</time></trkpt><trkpt lat="42.7392411" lon="10.3794353"><ele>177.0</ele><time>2026-04-19T14:37:19.345Z</time></trkpt><trkpt lat="42.7393134" lon="10.3793276"><ele>173.0</ele><time>2026-04-19T14:37:20.344Z</time></trkpt><trkpt lat="42.7393992" lon="10.3792287"><ele>169.0</ele><time>2026-04-19T14:37:21.348Z</time></trkpt><trkpt lat="42.7394998" lon="10.3791311"><ele>165.0</ele><time>2026-04-19T14:37:22.343Z</time></trkpt><trkpt lat="42.7396081" lon="10.3790384"><ele>165.0</ele><time>2026-04-19T14:37:23.346Z</time></trkpt><trkpt lat="42.7397121" lon="10.3789445"><ele>165.0</ele><time>2026-04-19T14:37:24.349Z</time></trkpt><trkpt lat="42.7398097" lon="10.3788679"><ele>165.0</ele><time>2026-04-19T14:37:25.351Z</time></trkpt><trkpt lat="42.7399026" lon="10.3788303"><ele>165.0</ele><time>2026-04-19T14:37:26.352Z</time></trkpt><trkpt lat="42.7399957" lon="10.3788426"><ele>165.0</ele><time>2026-04-19T14:37:27.358Z</time></trkpt><trkpt lat="42.7400771" lon="10.3789138"><ele>165.0</ele><time>2026-04-19T14:37:28.367Z</time></trkpt><trkpt lat="42.7401352" lon="10.3790449"><ele>165.0</ele><time>2026-04-19T14:37:29.359Z</time></trkpt><trkpt lat="42.7401809" lon="10.3791992"><ele>165.0</ele><time>2026-04-19T14:37:30.358Z</time></trkpt><trkpt lat="42.7402391" lon="10.3793414"><ele>165.0</ele><time>2026-04-19T14:37:31.356Z</time></trkpt><trkpt lat="42.7403225" lon="10.3794552"><ele>166.75</ele><time>2026-04-19T14:37:32.356Z</time></trkpt><trkpt lat="42.7404274" lon="10.3795372"><ele>168.5</ele><time>2026-04-19T14:37:33.354Z</time></trkpt><trkpt lat="42.7405446" lon="10.3796158"><ele>170.25</ele><time>2026-04-19T14:37:34.348Z</time></trkpt><trkpt lat="42.7406683" lon="10.3797116"><ele>172.0</ele><time>2026-04-19T14:37:35.356Z</time></trkpt><trkpt lat="42.7407889" lon="10.3798103"><ele>172.0</ele><time>2026-04-19T14:37:36.36Z</time></trkpt><trkpt lat="42.7409023" lon="10.3799024"><ele>172.0</ele><time>2026-04-19T14:37:37.356Z</time></trkpt><trkpt lat="42.7410163" lon="10.379998"><ele>172.0</ele><time>2026-04-19T14:37:38.36Z</time></trkpt><trkpt lat="42.7411339" lon="10.3800865"><ele>172.0</ele><time>2026-04-19T14:37:39.354Z</time></trkpt><trkpt lat="42.7412531" lon="10.3801654"><ele>168.75</ele><time>2026-04-19T14:37:40.358Z</time></trkpt><trkpt lat="42.7413772" lon="10.3802273"><ele>165.5</ele><time>2026-04-19T14:37:41.349Z</time></trkpt><trkpt lat="42.7415063" lon="10.3802707"><ele>162.25</ele><time>2026-04-19T14:37:42.359Z</time></trkpt><trkpt lat="42.7416347" lon="10.3803037"><ele>159.0</ele><time>2026-04-19T14:37:43.36Z</time></trkpt><trkpt lat="42.7417648" lon="10.3803491"><ele>158.5</ele><time>2026-04-19T14:37:44.353Z</time></trkpt><trkpt lat="42.7418898" lon="10.3803907"><ele>158.0</ele><time>2026-04-19T14:37:45.355Z</time></trkpt><trkpt lat="42.7420132" lon="10.3804334"><ele>157.5</ele><time>2026-04-19T14:37:46.358Z</time></trkpt><trkpt lat="42.7421272" lon="10.3804764"><ele>157.0</ele><time>2026-04-19T14:37:47.357Z</time></trkpt><trkpt lat="42.7422301" lon="10.3805144"><ele>158.83333333333334</ele><time>2026-04-19T14:37:48.353Z</time></trkpt><trkpt lat="42.7423236" lon="10.3805461"><ele>160.66666666666669</ele><time>2026-04-19T14:37:49.352Z</time></trkpt><trkpt lat="42.7424161" lon="10.3805822"><ele>162.5</ele><time>2026-04-19T14:37:50.348Z</time></trkpt><trkpt lat="42.7424989" lon="10.3806098"><ele>164.33333333333334</ele><time>2026-04-19T14:37:51.353Z</time></trkpt><trkpt lat="42.7425753" lon="10.3806355"><ele>166.16666666666666</ele><time>2026-04-19T14:37:52.361Z</time></trkpt><trkpt lat="42.7426483" lon="10.3806628"><ele>168.0</ele><time>2026-04-19T14:37:53.356Z</time></trkpt><trkpt lat="42.7427141" lon="10.3806841"><ele>167.0</ele><time>2026-04-19T14:37:54.351Z</time></trkpt><trkpt lat="42.7428064" lon="10.3807277"><ele>166.0</ele><time>2026-04-19T14:37:56.345Z</time></trkpt><trkpt lat="42.742876" lon="10.3806294"><ele>165.0</ele><time>2026-04-19T14:38:23.36Z</time></trkpt><trkpt lat="42.742871" lon="10.3805077"><ele>164.0</ele><time>2026-04-19T14:38:25.354Z</time></trkpt><trkpt lat="42.7428053" lon="10.3804489"><ele>163.0</ele><time>2026-04-19T14:38:29.361Z</time></trkpt><trkpt lat="42.7427179" lon="10.3804833"><ele>163.0</ele><time>2026-04-19T14:38:51.358Z</time></trkpt><trkpt lat="42.7427205" lon="10.3806017"><ele>163.0</ele><time>2026-04-19T14:38:54.35Z</time></trkpt><trkpt lat="42.7427951" lon="10.3806733"><ele>163.0</ele><time>2026-04-19T14:38:56.353Z</time></trkpt><trkpt lat="42.7428544" lon="10.3806386"><ele>163.0</ele><time>2026-04-19T14:38:59.352Z</time></trkpt><trkpt lat="42.7429013" lon="10.380508"><ele>163.0</ele><time>2026-04-19T14:39:02.346Z</time></trkpt><trkpt lat="42.742937" lon="10.3803684"><ele>164.66666666666669</ele><time>2026-04-19T14:39:04.349Z</time></trkpt><trkpt lat="42.7429565" lon="10.3802747"><ele>166.33333333333334</ele><time>2026-04-19T14:39:05.337Z</time></trkpt><trkpt lat="42.7429876" lon="10.3801635"><ele>168.0</ele><time>2026-04-19T14:39:06.338Z</time></trkpt><trkpt lat="42.7430163" lon="10.3800448"><ele>169.66666666666666</ele><time>2026-04-19T14:39:07.342Z</time></trkpt><trkpt lat="42.7430355" lon="10.3799311"><ele>171.33333333333331</ele><time>2026-04-19T14:39:08.34Z</time></trkpt><trkpt lat="42.7430479" lon="10.3798149"><ele>173.0</ele><time>2026-04-19T14:39:09.34Z</time></trkpt><trkpt lat="42.7430583" lon="10.37969"><ele>172.60000000000002</ele><time>2026-04-19T14:39:10.339Z</time></trkpt><trkpt lat="42.7430726" lon="10.3795606"><ele>172.20000000000002</ele><time>2026-04-19T14:39:11.349Z</time></trkpt><trkpt lat="42.7430902" lon="10.3794278"><ele>171.8</ele><time>2026-04-19T14:39:12.346Z</time></trkpt><trkpt lat="42.7431076" lon="10.3793011"><ele>171.4</ele><time>2026-04-19T14:39:13.352Z</time></trkpt><trkpt lat="42.7431199" lon="10.3791758"><ele>171.0</ele><time>2026-04-19T14:39:14.342Z</time></trkpt><trkpt lat="42.7431292" lon="10.3790495"><ele>171.0</ele><time>2026-04-19T14:39:15.348Z</time></trkpt><trkpt lat="42.7431442" lon="10.3789219"><ele>171.0</ele><time>2026-04-19T14:39:16.349Z</time></trkpt><trkpt lat="42.7431609" lon="10.3787971"><ele>171.0</ele><time>2026-04-19T14:39:17.353Z</time></trkpt><trkpt lat="42.7431831" lon="10.3786802"><ele>171.0</ele><time>2026-04-19T14:39:18.346Z</time></trkpt><trkpt lat="42.7432135" lon="10.3785666"><ele>171.0</ele><time>2026-04-19T14:39:19.345Z</time></trkpt><trkpt lat="42.743256" lon="10.3784674"><ele>169.4</ele><time>2026-04-19T14:39:20.343Z</time></trkpt><trkpt lat="42.7433141" lon="10.3783962"><ele>167.8</ele><time>2026-04-19T14:39:21.344Z</time></trkpt><trkpt lat="42.7433956" lon="10.3783506"><ele>166.20000000000002</ele><time>2026-04-19T14:39:22.344Z</time></trkpt><trkpt lat="42.7434911" lon="10.3783328"><ele>164.60000000000002</ele><time>2026-04-19T14:39:23.343Z</time></trkpt><trkpt lat="42.7435869" lon="10.3783191"><ele>163.0</ele><time>2026-04-19T14:39:24.346Z</time></trkpt><trkpt lat="42.7436799" lon="10.3783094"><ele>163.0</ele><time>2026-04-19T14:39:25.337Z</time></trkpt><trkpt lat="42.743771" lon="10.3782986"><ele>163.0</ele><time>2026-04-19T14:39:26.337Z</time></trkpt><trkpt lat="42.7438509" lon="10.3782648"><ele>163.0</ele><time>2026-04-19T14:39:27.34Z</time></trkpt><trkpt lat="42.743924" lon="10.3782174"><ele>163.0</ele><time>2026-04-19T14:39:28.348Z</time></trkpt><trkpt lat="42.744012" lon="10.3781617"><ele>163.0</ele><time>2026-04-19T14:39:29.357Z</time></trkpt><trkpt lat="42.7441073" lon="10.3781119"><ele>163.0</ele><time>2026-04-19T14:39:30.349Z</time></trkpt><trkpt lat="42.7442088" lon="10.3780842"><ele>163.0</ele><time>2026-04-19T14:39:31.357Z</time></trkpt><trkpt lat="42.744314" lon="10.3780735"><ele>163.0</ele><time>2026-04-19T14:39:32.347Z</time></trkpt><trkpt lat="42.7444143" lon="10.3780638"><ele>163.0</ele><time>2026-04-19T14:39:33.344Z</time></trkpt><trkpt lat="42.7445033" lon="10.3780573"><ele>163.0</ele><time>2026-04-19T14:39:34.343Z</time></trkpt><trkpt lat="42.7445857" lon="10.3780535"><ele>163.0</ele><time>2026-04-19T14:39:35.338Z</time></trkpt><trkpt lat="42.7446583" lon="10.3780496"><ele>163.0</ele><time>2026-04-19T14:39:36.341Z</time></trkpt><trkpt lat="42.7447556" lon="10.3780455"><ele>163.0</ele><time>2026-04-19T14:39:38.342Z</time></trkpt><trkpt lat="42.7448396" lon="10.3779997"><ele>163.0</ele><time>2026-04-19T14:39:40.349Z</time></trkpt><trkpt lat="42.7449119" lon="10.3779017"><ele>163.0</ele><time>2026-04-19T14:39:42.339Z</time></trkpt><trkpt lat="42.7449977" lon="10.3777852"><ele>162.75</ele><time>2026-04-19T14:39:44.351Z</time></trkpt><trkpt lat="42.7450706" lon="10.3776701"><ele>162.5</ele><time>2026-04-19T14:39:46.349Z</time></trkpt><trkpt lat="42.7451582" lon="10.377554"><ele>162.25</ele><time>2026-04-19T14:39:48.34Z</time></trkpt><trkpt lat="42.7452252" lon="10.3774556"><ele>162.0</ele><time>2026-04-19T14:39:50.335Z</time></trkpt><trkpt lat="42.7452905" lon="10.3773196"><ele>162.0</ele><time>2026-04-19T14:39:52.338Z</time></trkpt><trkpt lat="42.745312" lon="10.3772385"><ele>162.0</ele><time>2026-04-19T14:39:53.33Z</time></trkpt><trkpt lat="42.7452819" lon="10.3770642"><ele>162.0</ele><time>2026-04-19T14:39:55.336Z</time></trkpt><trkpt lat="42.7452374" lon="10.3769602"><ele>162.0</ele><time>2026-04-19T14:39:56.332Z</time></trkpt><trkpt lat="42.7452005" lon="10.3768497"><ele>162.0</ele><time>2026-04-19T14:39:57.331Z</time></trkpt><trkpt lat="42.745157" lon="10.3767488"><ele>161.66666666666666</ele><time>2026-04-19T14:39:58.329Z</time></trkpt><trkpt lat="42.7451007" lon="10.3766698"><ele>161.33333333333334</ele><time>2026-04-19T14:39:59.332Z</time></trkpt><trkpt lat="42.7450496" lon="10.3765913"><ele>161.0</ele><time>2026-04-19T14:40:00.33Z</time></trkpt><trkpt lat="42.7449912" lon="10.3765234"><ele>160.66666666666669</ele><time>2026-04-19T14:40:01.328Z</time></trkpt><trkpt lat="42.7449244" lon="10.3764569"><ele>160.33333333333334</ele><time>2026-04-19T14:40:02.324Z</time></trkpt><trkpt lat="42.7448674" lon="10.3763856"><ele>160.0</ele><time>2026-04-19T14:40:03.33Z</time></trkpt><trkpt lat="42.7448132" lon="10.3763233"><ele>160.0</ele><time>2026-04-19T14:40:04.329Z</time></trkpt><trkpt lat="42.7447597" lon="10.3762574"><ele>160.0</ele><time>2026-04-19T14:40:05.327Z</time></trkpt><trkpt lat="42.7447094" lon="10.3761889"><ele>160.0</ele><time>2026-04-19T14:40:06.322Z</time></trkpt><trkpt lat="42.7446261" lon="10.3760806"><ele>160.0</ele><time>2026-04-19T14:40:08.329Z</time></trkpt><trkpt lat="42.744563" lon="10.3759666"><ele>160.0</ele><time>2026-04-19T14:40:10.33Z</time></trkpt><trkpt lat="42.7445047" lon="10.3758184"><ele>160.0</ele><time>2026-04-19T14:40:12.333Z</time></trkpt><trkpt lat="42.7444963" lon="10.3757273"><ele>160.0</ele><time>2026-04-19T14:40:13.344Z</time></trkpt><trkpt lat="42.7445095" lon="10.3756371"><ele>160.0</ele><time>2026-04-19T14:40:14.345Z</time></trkpt><trkpt lat="42.7445482" lon="10.3755537"><ele>160.0</ele><time>2026-04-19T14:40:15.344Z</time></trkpt><trkpt lat="42.7445879" lon="10.3754739"><ele>160.0</ele><time>2026-04-19T14:40:16.345Z</time></trkpt><trkpt lat="42.7446318" lon="10.3754072"><ele>160.0</ele><time>2026-04-19T14:40:17.346Z</time></trkpt><trkpt lat="42.7447262" lon="10.3753192"><ele>157.16666666666669</ele><time>2026-04-19T14:40:19.34Z</time></trkpt><trkpt lat="42.7447927" lon="10.3752878"><ele>154.33333333333334</ele><time>2026-04-19T14:40:20.346Z</time></trkpt><trkpt lat="42.7448783" lon="10.3752787"><ele>151.5</ele><time>2026-04-19T14:40:21.35Z</time></trkpt><trkpt lat="42.7449716" lon="10.3752959"><ele>148.66666666666666</ele><time>2026-04-19T14:40:22.338Z</time></trkpt><trkpt lat="42.7450594" lon="10.3753253"><ele>145.83333333333331</ele><time>2026-04-19T14:40:23.338Z</time></trkpt><trkpt lat="42.7451365" lon="10.3753475"><ele>143.0</ele><time>2026-04-19T14:40:24.338Z</time></trkpt><trkpt lat="42.7452171" lon="10.3753746"><ele>142.5</ele><time>2026-04-19T14:40:25.333Z</time></trkpt><trkpt lat="42.745304" lon="10.3754237"><ele>142.0</ele><time>2026-04-19T14:40:26.333Z</time></trkpt><trkpt lat="42.7453745" lon="10.3754743"><ele>141.5</ele><time>2026-04-19T14:40:27.334Z</time></trkpt><trkpt lat="42.7454426" lon="10.3755292"><ele>141.0</ele><time>2026-04-19T14:40:28.35Z</time></trkpt><trkpt lat="42.7455063" lon="10.3755885"><ele>140.5</ele><time>2026-04-19T14:40:29.349Z</time></trkpt><trkpt lat="42.7455638" lon="10.375651"><ele>140.0</ele><time>2026-04-19T14:40:30.347Z</time></trkpt><trkpt lat="42.7456235" lon="10.3757132"><ele>140.0</ele><time>2026-04-19T14:40:31.353Z</time></trkpt><trkpt lat="42.7456748" lon="10.3757745"><ele>140.0</ele><time>2026-04-19T14:40:32.348Z</time></trkpt><trkpt lat="42.7457579" lon="10.3758403"><ele>140.0</ele><time>2026-04-19T14:40:34.347Z</time></trkpt><trkpt lat="42.7458087" lon="10.3757292"><ele>140.0</ele><time>2026-04-19T14:40:36.353Z</time></trkpt><trkpt lat="42.7457982" lon="10.3756228"><ele>140.0</ele><time>2026-04-19T14:40:37.348Z</time></trkpt><trkpt lat="42.7457729" lon="10.3755158"><ele>140.0</ele><time>2026-04-19T14:40:38.354Z</time></trkpt><trkpt lat="42.7457537" lon="10.3754111"><ele>140.0</ele><time>2026-04-19T14:40:39.357Z</time></trkpt><trkpt lat="42.7457472" lon="10.3753042"><ele>140.0</ele><time>2026-04-19T14:40:40.352Z</time></trkpt><trkpt lat="42.7457428" lon="10.3751975"><ele>140.0</ele><time>2026-04-19T14:40:41.349Z</time></trkpt><trkpt lat="42.7457486" lon="10.3750828"><ele>140.0</ele><time>2026-04-19T14:40:42.354Z</time></trkpt><trkpt lat="42.7457629" lon="10.3749581"><ele>140.0</ele><time>2026-04-19T14:40:43.349Z</time></trkpt><trkpt lat="42.7457844" lon="10.374832"><ele>140.0</ele><time>2026-04-19T14:40:44.355Z</time></trkpt><trkpt lat="42.7458075" lon="10.3747091"><ele>139.66666666666666</ele><time>2026-04-19T14:40:45.362Z</time></trkpt><trkpt lat="42.7458283" lon="10.3745841"><ele>139.33333333333331</ele><time>2026-04-19T14:40:46.36Z</time></trkpt><trkpt lat="42.7458391" lon="10.374465"><ele>139.0</ele><time>2026-04-19T14:40:47.352Z</time></trkpt><trkpt lat="42.7458365" lon="10.3743477"><ele>138.66666666666666</ele><time>2026-04-19T14:40:48.356Z</time></trkpt><trkpt lat="42.7458237" lon="10.3742304"><ele>138.33333333333334</ele><time>2026-04-19T14:40:49.358Z</time></trkpt><trkpt lat="42.7458081" lon="10.3741204"><ele>138.0</ele><time>2026-04-19T14:40:50.352Z</time></trkpt><trkpt lat="42.7457952" lon="10.3740062"><ele>138.0</ele><time>2026-04-19T14:40:51.356Z</time></trkpt><trkpt lat="42.7457819" lon="10.3738908"><ele>138.0</ele><time>2026-04-19T14:40:52.354Z</time></trkpt><trkpt lat="42.7457729" lon="10.3737857"><ele>138.0</ele><time>2026-04-19T14:40:53.349Z</time></trkpt><trkpt lat="42.7457719" lon="10.3736943"><ele>138.0</ele><time>2026-04-19T14:40:54.351Z</time></trkpt><trkpt lat="42.7458755" lon="10.3738147"><ele>138.0</ele><time>2026-04-19T14:40:58.357Z</time></trkpt><trkpt lat="42.7459237" lon="10.3739826"><ele>138.0</ele><time>2026-04-19T14:40:59.351Z</time></trkpt><trkpt lat="42.7459626" lon="10.3741603"><ele>138.0</ele><time>2026-04-19T14:41:00.339Z</time></trkpt><trkpt lat="42.7459912" lon="10.3743247"><ele>138.0</ele><time>2026-04-19T14:41:01.35Z</time></trkpt><trkpt lat="42.7460073" lon="10.3744617"><ele>138.0</ele><time>2026-04-19T14:41:02.35Z</time></trkpt><trkpt lat="42.7460215" lon="10.3745502"><ele>138.0</ele><time>2026-04-19T14:41:03.353Z</time></trkpt><trkpt lat="42.746083" lon="10.3746121"><ele>133.0</ele><time>2026-04-19T14:41:05.349Z</time></trkpt><trkpt lat="42.746115" lon="10.3744773"><ele>128.0</ele><time>2026-04-19T14:41:07.344Z</time></trkpt><trkpt lat="42.7461172" lon="10.3743601"><ele>123.00000000000001</ele><time>2026-04-19T14:41:08.347Z</time></trkpt><trkpt lat="42.7461224" lon="10.3742289"><ele>118.0</ele><time>2026-04-19T14:41:09.335Z</time></trkpt><trkpt lat="42.7461301" lon="10.3740825"><ele>113.0</ele><time>2026-04-19T14:41:10.34Z</time></trkpt><trkpt lat="42.746148" lon="10.3739308"><ele>112.80000000000001</ele><time>2026-04-19T14:41:11.341Z</time></trkpt><trkpt lat="42.7461737" lon="10.3737903"><ele>112.60000000000001</ele><time>2026-04-19T14:41:12.342Z</time></trkpt><trkpt lat="42.7462111" lon="10.3736518"><ele>112.39999999999999</ele><time>2026-04-19T14:41:13.355Z</time></trkpt><trkpt lat="42.7462497" lon="10.3735153"><ele>112.19999999999999</ele><time>2026-04-19T14:41:14.34Z</time></trkpt><trkpt lat="42.7462806" lon="10.3733882"><ele>112.0</ele><time>2026-04-19T14:41:15.341Z</time></trkpt><trkpt lat="42.7463015" lon="10.373268"><ele>112.00000000000001</ele><time>2026-04-19T14:41:16.347Z</time></trkpt><trkpt lat="42.7463247" lon="10.3731559"><ele>112.0</ele><time>2026-04-19T14:41:17.345Z</time></trkpt><trkpt lat="42.7463483" lon="10.3730703"><ele>112.0</ele><time>2026-04-19T14:41:18.343Z</time></trkpt><trkpt lat="42.7463886" lon="10.3729737"><ele>112.0</ele><time>2026-04-19T14:41:20.338Z</time></trkpt><trkpt lat="42.7464523" lon="10.3728963"><ele>112.00000000000001</ele><time>2026-04-19T14:41:22.349Z</time></trkpt><trkpt lat="42.7464938" lon="10.3728143"><ele>112.0</ele><time>2026-04-19T14:41:23.348Z</time></trkpt><trkpt lat="42.7465293" lon="10.3726921"><ele>112.5</ele><time>2026-04-19T14:41:24.348Z</time></trkpt><trkpt lat="42.7465812" lon="10.3725565"><ele>113.0</ele><time>2026-04-19T14:41:25.349Z</time></trkpt><trkpt lat="42.74665" lon="10.3724085"><ele>113.5</ele><time>2026-04-19T14:41:26.353Z</time></trkpt><trkpt lat="42.7467314" lon="10.3722598"><ele>114.0</ele><time>2026-04-19T14:41:27.349Z</time></trkpt><trkpt lat="42.7468229" lon="10.3721132"><ele>111.33333333333334</ele><time>2026-04-19T14:41:28.348Z</time></trkpt><trkpt lat="42.7469341" lon="10.3719691"><ele>108.66666666666667</ele><time>2026-04-19T14:41:29.355Z</time></trkpt><trkpt lat="42.7470557" lon="10.3718374"><ele>106.0</ele><time>2026-04-19T14:41:30.355Z</time></trkpt><trkpt lat="42.7471791" lon="10.3717311"><ele>106.0</ele><time>2026-04-19T14:41:31.354Z</time></trkpt><trkpt lat="42.7473107" lon="10.3716282"><ele>106.0</ele><time>2026-04-19T14:41:32.352Z</time></trkpt><trkpt lat="42.7474258" lon="10.3715337"><ele>106.0</ele><time>2026-04-19T14:41:33.353Z</time></trkpt><trkpt lat="42.7475277" lon="10.3714309"><ele>106.0</ele><time>2026-04-19T14:41:34.352Z</time></trkpt><trkpt lat="42.7476042" lon="10.3713072"><ele>107.0</ele><time>2026-04-19T14:41:35.349Z</time></trkpt><trkpt lat="42.747653" lon="10.3711531"><ele>108.0</ele><time>2026-04-19T14:41:36.351Z</time></trkpt><trkpt lat="42.7476928" lon="10.3709845"><ele>109.0</ele><time>2026-04-19T14:41:37.355Z</time></trkpt><trkpt lat="42.7477325" lon="10.3708121"><ele>110.0</ele><time>2026-04-19T14:41:38.346Z</time></trkpt><trkpt lat="42.7477734" lon="10.370645"><ele>106.5</ele><time>2026-04-19T14:41:39.351Z</time></trkpt><trkpt lat="42.7478217" lon="10.3704882"><ele>103.0</ele><time>2026-04-19T14:41:40.354Z</time></trkpt><trkpt lat="42.7478805" lon="10.3703366"><ele>99.5</ele><time>2026-04-19T14:41:41.355Z</time></trkpt><trkpt lat="42.7479456" lon="10.370193"><ele>96.0</ele><time>2026-04-19T14:41:42.347Z</time></trkpt><trkpt lat="42.7480193" lon="10.3700568"><ele>96.0</ele><time>2026-04-19T14:41:43.357Z</time></trkpt><trkpt lat="42.7481125" lon="10.3699431"><ele>96.0</ele><time>2026-04-19T14:41:44.355Z</time></trkpt><trkpt lat="42.7481919" lon="10.369837"><ele>96.0</ele><time>2026-04-19T14:41:45.352Z</time></trkpt><trkpt lat="42.7482617" lon="10.3697235"><ele>96.0</ele><time>2026-04-19T14:41:46.346Z</time></trkpt><trkpt lat="42.7483198" lon="10.3695821"><ele>95.5</ele><time>2026-04-19T14:41:47.358Z</time></trkpt><trkpt lat="42.7483652" lon="10.3694101"><ele>95.0</ele><time>2026-04-19T14:41:48.355Z</time></trkpt><trkpt lat="42.7483891" lon="10.3692371"><ele>94.5</ele><time>2026-04-19T14:41:49.354Z</time></trkpt><trkpt lat="42.7484099" lon="10.369074"><ele>94.0</ele><time>2026-04-19T14:41:50.355Z</time></trkpt><trkpt lat="42.7484305" lon="10.3689357"><ele>92.5</ele><time>2026-04-19T14:41:51.348Z</time></trkpt><trkpt lat="42.7484529" lon="10.3688198"><ele>91.0</ele><time>2026-04-19T14:41:52.361Z</time></trkpt><trkpt lat="42.7484955" lon="10.3687274"><ele>89.5</ele><time>2026-04-19T14:41:53.356Z</time></trkpt><trkpt lat="42.7485574" lon="10.3686711"><ele>88.0</ele><time>2026-04-19T14:41:54.361Z</time></trkpt><trkpt lat="42.748638" lon="10.3686661"><ele>86.5</ele><time>2026-04-19T14:41:55.352Z</time></trkpt><trkpt lat="42.7487227" lon="10.3687372"><ele>85.0</ele><time>2026-04-19T14:41:56.359Z</time></trkpt><trkpt lat="42.7487899" lon="10.3688769"><ele>85.0</ele><time>2026-04-19T14:41:57.357Z</time></trkpt><trkpt lat="42.7488302" lon="10.36906"><ele>85.0</ele><time>2026-04-19T14:41:58.356Z</time></trkpt><trkpt lat="42.7488499" lon="10.3692363"><ele>85.0</ele><time>2026-04-19T14:41:59.354Z</time></trkpt><trkpt lat="42.7488428" lon="10.3694324"><ele>85.0</ele><time>2026-04-19T14:42:00.34Z</time></trkpt><trkpt lat="42.7487667" lon="10.3696295"><ele>88.66666666666666</ele><time>2026-04-19T14:42:01.342Z</time></trkpt><trkpt lat="42.7486738" lon="10.3698281"><ele>92.33333333333333</ele><time>2026-04-19T14:42:02.339Z</time></trkpt><trkpt lat="42.7485651" lon="10.3700183"><ele>96.0</ele><time>2026-04-19T14:42:03.341Z</time></trkpt><trkpt lat="42.7484381" lon="10.3701616"><ele>96.0</ele><time>2026-04-19T14:42:04.338Z</time></trkpt><trkpt lat="42.7483311" lon="10.370288"><ele>96.0</ele><time>2026-04-19T14:42:05.333Z</time></trkpt><trkpt lat="42.7482391" lon="10.3704323"><ele>96.0</ele><time>2026-04-19T14:42:06.341Z</time></trkpt><trkpt lat="42.7481747" lon="10.3705743"><ele>96.0</ele><time>2026-04-19T14:42:07.338Z</time></trkpt><trkpt lat="42.7481425" lon="10.3707833"><ele>92.25</ele><time>2026-04-19T14:42:08.336Z</time></trkpt><trkpt lat="42.7481246" lon="10.3709778"><ele>88.5</ele><time>2026-04-19T14:42:09.341Z</time></trkpt><trkpt lat="42.748105" lon="10.3711632"><ele>84.75</ele><time>2026-04-19T14:42:10.348Z</time></trkpt><trkpt lat="42.7480915" lon="10.371354"><ele>81.0</ele><time>2026-04-19T14:42:11.337Z</time></trkpt><trkpt lat="42.7480814" lon="10.3715511"><ele>79.5</ele><time>2026-04-19T14:42:12.339Z</time></trkpt><trkpt lat="42.7480548" lon="10.3717399"><ele>78.0</ele><time>2026-04-19T14:42:13.343Z</time></trkpt><trkpt lat="42.7480379" lon="10.3719153"><ele>76.5</ele><time>2026-04-19T14:42:14.34Z</time></trkpt><trkpt lat="42.7480081" lon="10.3720972"><ele>75.0</ele><time>2026-04-19T14:42:15.353Z</time></trkpt><trkpt lat="42.7479883" lon="10.3722805"><ele>73.75</ele><time>2026-04-19T14:42:16.347Z</time></trkpt><trkpt lat="42.747969" lon="10.37245"><ele>72.5</ele><time>2026-04-19T14:42:17.344Z</time></trkpt><trkpt lat="42.7479441" lon="10.3726081"><ele>71.25</ele><time>2026-04-19T14:42:18.347Z</time></trkpt><trkpt lat="42.7479239" lon="10.3727698"><ele>70.0</ele><time>2026-04-19T14:42:19.353Z</time></trkpt><trkpt lat="42.7479077" lon="10.3729249"><ele>70.5</ele><time>2026-04-19T14:42:20.352Z</time></trkpt><trkpt lat="42.7479059" lon="10.3730939"><ele>71.0</ele><time>2026-04-19T14:42:21.345Z</time></trkpt><trkpt lat="42.7479239" lon="10.373266"><ele>71.5</ele><time>2026-04-19T14:42:22.342Z</time></trkpt><trkpt lat="42.7479667" lon="10.3734274"><ele>72.0</ele><time>2026-04-19T14:42:23.356Z</time></trkpt><trkpt lat="42.7480321" lon="10.3735714"><ele>72.0</ele><time>2026-04-19T14:42:24.349Z</time></trkpt><trkpt lat="42.7481052" lon="10.373707"><ele>72.0</ele><time>2026-04-19T14:42:25.349Z</time></trkpt><trkpt lat="42.7481729" lon="10.373845"><ele>72.0</ele><time>2026-04-19T14:42:26.35Z</time></trkpt><trkpt lat="42.7482384" lon="10.3739741"><ele>72.0</ele><time>2026-04-19T14:42:27.353Z</time></trkpt><trkpt lat="42.748294" lon="10.3740995"><ele>72.4</ele><time>2026-04-19T14:42:28.355Z</time></trkpt><trkpt lat="42.7483479" lon="10.374215"><ele>72.80000000000001</ele><time>2026-04-19T14:42:29.357Z</time></trkpt><trkpt lat="42.748399" lon="10.3743191"><ele>73.2</ele><time>2026-04-19T14:42:30.351Z</time></trkpt><trkpt lat="42.7484478" lon="10.3744202"><ele>73.60000000000001</ele><time>2026-04-19T14:42:31.354Z</time></trkpt><trkpt lat="42.7484948" lon="10.374526"><ele>74.0</ele><time>2026-04-19T14:42:32.35Z</time></trkpt><trkpt lat="42.7485367" lon="10.3746232"><ele>70.8</ele><time>2026-04-19T14:42:33.341Z</time></trkpt><trkpt lat="42.7485739" lon="10.3747083"><ele>67.60000000000001</ele><time>2026-04-19T14:42:34.347Z</time></trkpt><trkpt lat="42.7486276" lon="10.3748434"><ele>64.4</ele><time>2026-04-19T14:42:36.356Z</time></trkpt><trkpt lat="42.7486968" lon="10.3747842"><ele>61.2</ele><time>2026-04-19T14:42:39.343Z</time></trkpt><trkpt lat="42.7487022" lon="10.374632"><ele>58.0</ele><time>2026-04-19T14:42:41.343Z</time></trkpt><trkpt lat="42.7487355" lon="10.3744887"><ele>57.49999999999999</ele><time>2026-04-19T14:42:43.342Z</time></trkpt><trkpt lat="42.7488269" lon="10.3744236"><ele>57.0</ele><time>2026-04-19T14:42:45.339Z</time></trkpt><trkpt lat="42.748896" lon="10.3744193"><ele>56.5</ele><time>2026-04-19T14:42:46.346Z</time></trkpt><trkpt lat="42.7489763" lon="10.3744144"><ele>56.0</ele><time>2026-04-19T14:42:47.338Z</time></trkpt><trkpt lat="42.7490568" lon="10.3744058"><ele>55.49999999999999</ele><time>2026-04-19T14:42:48.345Z</time></trkpt><trkpt lat="42.7491361" lon="10.3743989"><ele>55.0</ele><time>2026-04-19T14:42:49.351Z</time></trkpt><trkpt lat="42.7492113" lon="10.3743956"><ele>54.99999999999999</ele><time>2026-04-19T14:42:50.348Z</time></trkpt><trkpt lat="42.7492912" lon="10.3743858"><ele>55.0</ele><time>2026-04-19T14:42:51.342Z</time></trkpt><trkpt lat="42.7493716" lon="10.3743566"><ele>55.0</ele><time>2026-04-19T14:42:52.345Z</time></trkpt><trkpt lat="42.7494553" lon="10.3743118"><ele>55.0</ele><time>2026-04-19T14:42:53.348Z</time></trkpt><trkpt lat="42.7495325" lon="10.3742654"><ele>54.99999999999999</ele><time>2026-04-19T14:42:54.345Z</time></trkpt><trkpt lat="42.7496188" lon="10.374228"><ele>55.0</ele><time>2026-04-19T14:42:55.338Z</time></trkpt><trkpt lat="42.7497049" lon="10.374206"><ele>52.83333333333333</ele><time>2026-04-19T14:42:56.343Z</time></trkpt><trkpt lat="42.7497898" lon="10.374202"><ele>50.666666666666664</ele><time>2026-04-19T14:42:57.343Z</time></trkpt><trkpt lat="42.7498771" lon="10.3742013"><ele>48.5</ele><time>2026-04-19T14:42:58.35Z</time></trkpt><trkpt lat="42.7499664" lon="10.3742049"><ele>46.33333333333333</ele><time>2026-04-19T14:42:59.356Z</time></trkpt><trkpt lat="42.7500501" lon="10.3741959"><ele>44.166666666666664</ele><time>2026-04-19T14:43:00.354Z</time></trkpt><trkpt lat="42.7501304" lon="10.3741875"><ele>42.0</ele><time>2026-04-19T14:43:01.357Z</time></trkpt><trkpt lat="42.750212" lon="10.3741848"><ele>40.666666666666664</ele><time>2026-04-19T14:43:02.356Z</time></trkpt><trkpt lat="42.7502903" lon="10.3741933"><ele>39.333333333333336</ele><time>2026-04-19T14:43:03.357Z</time></trkpt><trkpt lat="42.7503641" lon="10.3741956"><ele>38.0</ele><time>2026-04-19T14:43:04.359Z</time></trkpt><trkpt lat="42.7504411" lon="10.3741818"><ele>36.66666666666667</ele><time>2026-04-19T14:43:05.353Z</time></trkpt><trkpt lat="42.7505197" lon="10.3741655"><ele>35.333333333333336</ele><time>2026-04-19T14:43:06.354Z</time></trkpt><trkpt lat="42.7506013" lon="10.3741599"><ele>34.0</ele><time>2026-04-19T14:43:07.357Z</time></trkpt><trkpt lat="42.7506895" lon="10.3741488"><ele>34.0</ele><time>2026-04-19T14:43:08.355Z</time></trkpt><trkpt lat="42.7507866" lon="10.3741258"><ele>34.0</ele><time>2026-04-19T14:43:09.356Z</time></trkpt><trkpt lat="42.7508839" lon="10.3741018"><ele>34.0</ele><time>2026-04-19T14:43:10.352Z</time></trkpt><trkpt lat="42.7509793" lon="10.3740659"><ele>34.0</ele><time>2026-04-19T14:43:11.352Z</time></trkpt><trkpt lat="42.7510674" lon="10.3740208"><ele>34.0</ele><time>2026-04-19T14:43:12.35Z</time></trkpt><trkpt lat="42.7511462" lon="10.3739684"><ele>32.4</ele><time>2026-04-19T14:43:13.354Z</time></trkpt><trkpt lat="42.7512266" lon="10.3739002"><ele>30.799999999999997</ele><time>2026-04-19T14:43:14.347Z</time></trkpt><trkpt lat="42.7513057" lon="10.373822"><ele>29.200000000000003</ele><time>2026-04-19T14:43:15.352Z</time></trkpt><trkpt lat="42.7513878" lon="10.3737444"><ele>27.6</ele><time>2026-04-19T14:43:16.351Z</time></trkpt><trkpt lat="42.7514679" lon="10.3736618"><ele>26.0</ele><time>2026-04-19T14:43:17.356Z</time></trkpt><trkpt lat="42.7515474" lon="10.3735826"><ele>25.8</ele><time>2026-04-19T14:43:18.352Z</time></trkpt><trkpt lat="42.7516327" lon="10.3735223"><ele>25.6</ele><time>2026-04-19T14:43:19.356Z</time></trkpt><trkpt lat="42.7517176" lon="10.3734832"><ele>25.4</ele><time>2026-04-19T14:43:20.351Z</time></trkpt><trkpt lat="42.7518135" lon="10.3734715"><ele>25.2</ele><time>2026-04-19T14:43:21.351Z</time></trkpt><trkpt lat="42.7519028" lon="10.3734658"><ele>25.0</ele><time>2026-04-19T14:43:22.351Z</time></trkpt><trkpt lat="42.7519868" lon="10.3734563"><ele>24.000000000000004</ele><time>2026-04-19T14:43:23.352Z</time></trkpt><trkpt lat="42.752068" lon="10.3734541"><ele>23.0</ele><time>2026-04-19T14:43:24.351Z</time></trkpt><trkpt lat="42.7521569" lon="10.3734583"><ele>22.0</ele><time>2026-04-19T14:43:25.346Z</time></trkpt><trkpt lat="42.7522419" lon="10.3734784"><ele>21.0</ele><time>2026-04-19T14:43:26.35Z</time></trkpt><trkpt lat="42.7523185" lon="10.3735008"><ele>20.0</ele><time>2026-04-19T14:43:27.353Z</time></trkpt><trkpt lat="42.7524022" lon="10.3735087"><ele>19.0</ele><time>2026-04-19T14:43:28.365Z</time></trkpt><trkpt lat="42.7524921" lon="10.3734821"><ele>19.0</ele><time>2026-04-19T14:43:29.35Z</time></trkpt><trkpt lat="42.7525729" lon="10.3734238"><ele>19.0</ele><time>2026-04-19T14:43:30.352Z</time></trkpt><trkpt lat="42.7526521" lon="10.3733643"><ele>19.0</ele><time>2026-04-19T14:43:31.364Z</time></trkpt><trkpt lat="42.7527269" lon="10.3733079"><ele>19.0</ele><time>2026-04-19T14:43:32.357Z</time></trkpt><trkpt lat="42.7527983" lon="10.3732426"><ele>19.0</ele><time>2026-04-19T14:43:33.354Z</time></trkpt><trkpt lat="42.7528606" lon="10.3731889"><ele>19.0</ele><time>2026-04-19T14:43:34.356Z</time></trkpt><trkpt lat="42.7529483" lon="10.3731338"><ele>18.166666666666664</ele><time>2026-04-19T14:43:36.357Z</time></trkpt><trkpt lat="42.7530269" lon="10.373119"><ele>17.333333333333332</ele><time>2026-04-19T14:43:38.358Z</time></trkpt><trkpt lat="42.7531172" lon="10.3731372"><ele>16.5</ele><time>2026-04-19T14:43:40.352Z</time></trkpt><trkpt lat="42.7532254" lon="10.3732053"><ele>15.666666666666668</ele><time>2026-04-19T14:43:42.348Z</time></trkpt><trkpt lat="42.7532765" lon="10.3732602"><ele>14.833333333333334</ele><time>2026-04-19T14:43:43.352Z</time></trkpt><trkpt lat="42.7533243" lon="10.3733208"><ele>14.0</ele><time>2026-04-19T14:43:44.351Z</time></trkpt><trkpt lat="42.7533747" lon="10.3733803"><ele>14.0</ele><time>2026-04-19T14:43:45.351Z</time></trkpt><trkpt lat="42.7534385" lon="10.3734442"><ele>13.999999999999998</ele><time>2026-04-19T14:43:46.358Z</time></trkpt><trkpt lat="42.7535181" lon="10.3734997"><ele>13.999999999999998</ele><time>2026-04-19T14:43:47.348Z</time></trkpt><trkpt lat="42.7536157" lon="10.3735419"><ele>14.0</ele><time>2026-04-19T14:43:48.358Z</time></trkpt><trkpt lat="42.7537175" lon="10.3735893"><ele>14.0</ele><time>2026-04-19T14:43:49.362Z</time></trkpt><trkpt lat="42.753821" lon="10.3736379"><ele>13.2</ele><time>2026-04-19T14:43:50.356Z</time></trkpt><trkpt lat="42.7539279" lon="10.3736845"><ele>12.399999999999999</ele><time>2026-04-19T14:43:51.361Z</time></trkpt><trkpt lat="42.7540332" lon="10.3737256"><ele>11.6</ele><time>2026-04-19T14:43:52.356Z</time></trkpt><trkpt lat="42.7541344" lon="10.3737623"><ele>10.8</ele><time>2026-04-19T14:43:53.36Z</time></trkpt><trkpt lat="42.7542332" lon="10.3738001"><ele>10.0</ele><time>2026-04-19T14:43:54.357Z</time></trkpt><trkpt lat="42.7543366" lon="10.3738393"><ele>9.4</ele><time>2026-04-19T14:43:55.358Z</time></trkpt><trkpt lat="42.7544402" lon="10.3738814"><ele>8.8</ele><time>2026-04-19T14:43:56.359Z</time></trkpt><trkpt lat="42.7545441" lon="10.3739302"><ele>8.2</ele><time>2026-04-19T14:43:57.356Z</time></trkpt><trkpt lat="42.7546488" lon="10.3739835"><ele>7.6</ele><time>2026-04-19T14:43:58.361Z</time></trkpt><trkpt lat="42.7547497" lon="10.374036"><ele>7.0</ele><time>2026-04-19T14:43:59.36Z</time></trkpt><trkpt lat="42.7548464" lon="10.374083"><ele>7.000000000000001</ele><time>2026-04-19T14:44:00.356Z</time></trkpt><trkpt lat="42.7549413" lon="10.374124"><ele>7.0</ele><time>2026-04-19T14:44:01.358Z</time></trkpt><trkpt lat="42.7550242" lon="10.3741722"><ele>7.0</ele><time>2026-04-19T14:44:02.355Z</time></trkpt><trkpt lat="42.755097" lon="10.3742308"><ele>7.0</ele><time>2026-04-19T14:44:03.351Z</time></trkpt><trkpt lat="42.7551592" lon="10.3742974"><ele>7.000000000000001</ele><time>2026-04-19T14:44:04.349Z</time></trkpt><trkpt lat="42.7552117" lon="10.3743733"><ele>7.0</ele><time>2026-04-19T14:44:05.357Z</time></trkpt><trkpt lat="42.7552521" lon="10.3744577"><ele>6.833333333333334</ele><time>2026-04-19T14:44:06.348Z</time></trkpt><trkpt lat="42.7552925" lon="10.3745382"><ele>6.666666666666667</ele><time>2026-04-19T14:44:07.355Z</time></trkpt><trkpt lat="42.755347" lon="10.3746015"><ele>6.5</ele><time>2026-04-19T14:44:08.349Z</time></trkpt><trkpt lat="42.7554152" lon="10.3746437"><ele>6.333333333333334</ele><time>2026-04-19T14:44:09.357Z</time></trkpt><trkpt lat="42.7555032" lon="10.3746561"><ele>6.166666666666667</ele><time>2026-04-19T14:44:10.348Z</time></trkpt><trkpt lat="42.7555982" lon="10.3746745"><ele>6.0</ele><time>2026-04-19T14:44:11.351Z</time></trkpt><trkpt lat="42.7556982" lon="10.3746997"><ele>6.0</ele><time>2026-04-19T14:44:12.35Z</time></trkpt><trkpt lat="42.7557946" lon="10.3747287"><ele>6.0</ele><time>2026-04-19T14:44:13.346Z</time></trkpt><trkpt lat="42.7558732" lon="10.3747731"><ele>6.0</ele><time>2026-04-19T14:44:14.356Z</time></trkpt><trkpt lat="42.7559365" lon="10.3748214"><ele>6.0</ele><time>2026-04-19T14:44:15.348Z</time></trkpt><trkpt lat="42.7559936" lon="10.3748592"><ele>6.0</ele><time>2026-04-19T14:44:16.348Z</time></trkpt><trkpt lat="42.7560918" lon="10.3748638"><ele>6.0</ele><time>2026-04-19T14:44:18.349Z</time></trkpt><trkpt lat="42.7561526" lon="10.3748376"><ele>5.2</ele><time>2026-04-19T14:44:19.354Z</time></trkpt><trkpt lat="42.7562732" lon="10.3747833"><ele>4.3999999999999995</ele><time>2026-04-19T14:44:21.353Z</time></trkpt><trkpt lat="42.7563421" lon="10.3747697"><ele>3.6</ele><time>2026-04-19T14:44:22.357Z</time></trkpt><trkpt lat="42.7564208" lon="10.3747686"><ele>2.8</ele><time>2026-04-19T14:44:23.349Z</time></trkpt><trkpt lat="42.7565087" lon="10.374777"><ele>2.0</ele><time>2026-04-19T14:44:24.358Z</time></trkpt><trkpt lat="42.7565951" lon="10.3747903"><ele>1.9999999999999998</ele><time>2026-04-19T14:44:25.35Z</time></trkpt><trkpt lat="42.7566778" lon="10.3747987"><ele>2.0</ele><time>2026-04-19T14:44:26.353Z</time></trkpt><trkpt lat="42.7567595" lon="10.3748044"><ele>2.0</ele><time>2026-04-19T14:44:27.358Z</time></trkpt><trkpt lat="42.756843" lon="10.3748049"><ele>2.0</ele><time>2026-04-19T14:44:28.358Z</time></trkpt><trkpt lat="42.7569245" lon="10.3748084"><ele>1.9999999999999998</ele><time>2026-04-19T14:44:29.355Z</time></trkpt><trkpt lat="42.7569983" lon="10.3748195"><ele>2.0</ele><time>2026-04-19T14:44:30.353Z</time></trkpt><trkpt lat="42.757067" lon="10.3748296"><ele>2.0</ele><time>2026-04-19T14:44:31.363Z</time></trkpt><trkpt lat="42.7571834" lon="10.3748559"><ele>2.0</ele><time>2026-04-19T14:44:33.358Z</time></trkpt><trkpt lat="42.7572891" lon="10.3748765"><ele>2.0</ele><time>2026-04-19T14:44:35.358Z</time></trkpt><trkpt lat="42.7573961" lon="10.3749183"><ele>2.0</ele><time>2026-04-19T14:44:37.357Z</time></trkpt><trkpt lat="42.757513" lon="10.3749511"><ele>2.0</ele><time>2026-04-19T14:44:39.359Z</time></trkpt><trkpt lat="42.7576193" lon="10.3749537"><ele>2.0</ele><time>2026-04-19T14:44:41.362Z</time></trkpt><trkpt lat="42.7577447" lon="10.374951"><ele>2.0</ele><time>2026-04-19T14:44:43.355Z</time></trkpt><trkpt lat="42.7578195" lon="10.3749632"><ele>2.0</ele><time>2026-04-19T14:44:44.356Z</time></trkpt><trkpt lat="42.7578983" lon="10.3749657"><ele>2.0</ele><time>2026-04-19T14:44:45.358Z</time></trkpt><trkpt lat="42.7579759" lon="10.3749565"><ele>2.1666666666666665</ele><time>2026-04-19T14:44:46.358Z</time></trkpt><trkpt lat="42.7580523" lon="10.3749431"><ele>2.333333333333333</ele><time>2026-04-19T14:44:47.353Z</time></trkpt><trkpt lat="42.7581259" lon="10.3749379"><ele>2.5</ele><time>2026-04-19T14:44:48.353Z</time></trkpt><trkpt lat="42.7582072" lon="10.3749423"><ele>2.6666666666666665</ele><time>2026-04-19T14:44:49.357Z</time></trkpt><trkpt lat="42.7582934" lon="10.3749424"><ele>2.8333333333333335</ele><time>2026-04-19T14:44:50.367Z</time></trkpt><trkpt lat="42.7583825" lon="10.3749438"><ele>3.0</ele><time>2026-04-19T14:44:51.36Z</time></trkpt><trkpt lat="42.7584707" lon="10.3749482"><ele>3.0</ele><time>2026-04-19T14:44:52.356Z</time></trkpt><trkpt lat="42.7585544" lon="10.3749546"><ele>3.0</ele><time>2026-04-19T14:44:53.358Z</time></trkpt><trkpt lat="42.7586253" lon="10.3749549"><ele>3.0</ele><time>2026-04-19T14:44:54.352Z</time></trkpt><trkpt lat="42.7587382" lon="10.3749486"><ele>3.0</ele><time>2026-04-19T14:44:56.355Z</time></trkpt><trkpt lat="42.7588169" lon="10.3749391"><ele>3.0</ele><time>2026-04-19T14:44:58.361Z</time></trkpt><trkpt lat="42.7589059" lon="10.374926"><ele>3.0</ele><time>2026-04-19T14:45:01.351Z</time></trkpt><trkpt lat="42.758959" lon="10.3748666"><ele>3.0</ele><time>2026-04-19T14:45:03.352Z</time></trkpt><trkpt lat="42.7589821" lon="10.3747857"><ele>3.0</ele><time>2026-04-19T14:45:04.356Z</time></trkpt><trkpt lat="42.7590055" lon="10.3746722"><ele>3.0</ele><time>2026-04-19T14:45:05.348Z</time></trkpt><trkpt lat="42.7590289" lon="10.374541"><ele>3.0</ele><time>2026-04-19T14:45:06.353Z</time></trkpt><trkpt lat="42.759052" lon="10.3744019"><ele>3.0</ele><time>2026-04-19T14:45:07.347Z</time></trkpt><trkpt lat="42.7590801" lon="10.3742524"><ele>2.75</ele><time>2026-04-19T14:45:08.345Z</time></trkpt><trkpt lat="42.7591151" lon="10.3740949"><ele>2.5</ele><time>2026-04-19T14:45:09.353Z</time></trkpt><trkpt lat="42.7591513" lon="10.373934"><ele>2.25</ele><time>2026-04-19T14:45:10.351Z</time></trkpt><trkpt lat="42.759191" lon="10.3737652"><ele>2.0</ele><time>2026-04-19T14:45:11.355Z</time></trkpt><trkpt lat="42.7592314" lon="10.3735895"><ele>2.0</ele><time>2026-04-19T14:45:12.35Z</time></trkpt><trkpt lat="42.7592718" lon="10.3734075"><ele>2.0</ele><time>2026-04-19T14:45:13.353Z</time></trkpt><trkpt lat="42.7593159" lon="10.3732188"><ele>2.0</ele><time>2026-04-19T14:45:14.353Z</time></trkpt><trkpt lat="42.7593609" lon="10.3730192"><ele>2.0</ele><time>2026-04-19T14:45:15.357Z</time></trkpt><trkpt lat="42.7594066" lon="10.3728243"><ele>3.0</ele><time>2026-04-19T14:45:16.353Z</time></trkpt><trkpt lat="42.7594538" lon="10.3726233"><ele>4.0</ele><time>2026-04-19T14:45:17.356Z</time></trkpt><trkpt lat="42.7595029" lon="10.3724181"><ele>5.0</ele><time>2026-04-19T14:45:18.353Z</time></trkpt><trkpt lat="42.7595559" lon="10.3722117"><ele>5.0</ele><time>2026-04-19T14:45:19.356Z</time></trkpt><trkpt lat="42.7596077" lon="10.3720069"><ele>5.0</ele><time>2026-04-19T14:45:20.354Z</time></trkpt><trkpt lat="42.7596501" lon="10.3718194"><ele>5.0</ele><time>2026-04-19T14:45:21.351Z</time></trkpt><trkpt lat="42.7596886" lon="10.3716496"><ele>5.0</ele><time>2026-04-19T14:45:22.351Z</time></trkpt><trkpt lat="42.7597337" lon="10.3714744"><ele>4.75</ele><time>2026-04-19T14:45:23.352Z</time></trkpt><trkpt lat="42.7597799" lon="10.3712937"><ele>4.5</ele><time>2026-04-19T14:45:24.356Z</time></trkpt><trkpt lat="42.7598244" lon="10.3711135"><ele>4.25</ele><time>2026-04-19T14:45:25.356Z</time></trkpt><trkpt lat="42.7598712" lon="10.3709316"><ele>4.0</ele><time>2026-04-19T14:45:26.358Z</time></trkpt><trkpt lat="42.7599117" lon="10.3707484"><ele>4.0</ele><time>2026-04-19T14:45:27.352Z</time></trkpt><trkpt lat="42.7599531" lon="10.3705666"><ele>4.0</ele><time>2026-04-19T14:45:28.357Z</time></trkpt><trkpt lat="42.7599967" lon="10.3703886"><ele>4.0</ele><time>2026-04-19T14:45:29.357Z</time></trkpt><trkpt lat="42.7600416" lon="10.3702153"><ele>4.0</ele><time>2026-04-19T14:45:30.352Z</time></trkpt><trkpt lat="42.7600837" lon="10.3700361"><ele>4.0</ele><time>2026-04-19T14:45:31.352Z</time></trkpt><trkpt lat="42.7601276" lon="10.3698553"><ele>4.0</ele><time>2026-04-19T14:45:32.348Z</time></trkpt><trkpt lat="42.7601748" lon="10.3696713"><ele>4.0</ele><time>2026-04-19T14:45:33.351Z</time></trkpt><trkpt lat="42.7602179" lon="10.3694918"><ele>4.0</ele><time>2026-04-19T14:45:34.349Z</time></trkpt><trkpt lat="42.7602602" lon="10.369306"><ele>5.333333333333333</ele><time>2026-04-19T14:45:35.352Z</time></trkpt><trkpt lat="42.7603042" lon="10.3691166"><ele>6.666666666666666</ele><time>2026-04-19T14:45:36.35Z</time></trkpt><trkpt lat="42.7603546" lon="10.3689228"><ele>8.0</ele><time>2026-04-19T14:45:37.348Z</time></trkpt><trkpt lat="42.7604009" lon="10.3687198"><ele>8.25</ele><time>2026-04-19T14:45:38.355Z</time></trkpt><trkpt lat="42.7604457" lon="10.3685288"><ele>8.5</ele><time>2026-04-19T14:45:39.349Z</time></trkpt><trkpt lat="42.7604889" lon="10.368335"><ele>8.75</ele><time>2026-04-19T14:45:40.351Z</time></trkpt><trkpt lat="42.7605326" lon="10.368148"><ele>9.0</ele><time>2026-04-19T14:45:41.352Z</time></trkpt><trkpt lat="42.7605743" lon="10.3679653"><ele>9.0</ele><time>2026-04-19T14:45:42.355Z</time></trkpt><trkpt lat="42.7606164" lon="10.3677931"><ele>9.0</ele><time>2026-04-19T14:45:43.352Z</time></trkpt><trkpt lat="42.7606605" lon="10.3676326"><ele>9.0</ele><time>2026-04-19T14:45:44.355Z</time></trkpt><trkpt lat="42.760701" lon="10.3674665"><ele>9.0</ele><time>2026-04-19T14:45:45.349Z</time></trkpt><trkpt lat="42.7607387" lon="10.3673025"><ele>9.25</ele><time>2026-04-19T14:45:46.352Z</time></trkpt><trkpt lat="42.7607739" lon="10.3671439"><ele>9.5</ele><time>2026-04-19T14:45:47.357Z</time></trkpt><trkpt lat="42.7608105" lon="10.3669757"><ele>9.75</ele><time>2026-04-19T14:45:48.353Z</time></trkpt><trkpt lat="42.7608464" lon="10.3668104"><ele>10.0</ele><time>2026-04-19T14:45:49.355Z</time></trkpt><trkpt lat="42.7608855" lon="10.3666336"><ele>10.0</ele><time>2026-04-19T14:45:50.351Z</time></trkpt><trkpt lat="42.7609268" lon="10.3664533"><ele>10.0</ele><time>2026-04-19T14:45:51.359Z</time></trkpt><trkpt lat="42.7609677" lon="10.3662676"><ele>10.0</ele><time>2026-04-19T14:45:52.352Z</time></trkpt><trkpt lat="42.7610152" lon="10.3660776"><ele>10.0</ele><time>2026-04-19T14:45:53.348Z</time></trkpt><trkpt lat="42.7610647" lon="10.3658956"><ele>11.25</ele><time>2026-04-19T14:45:54.352Z</time></trkpt><trkpt lat="42.761105" lon="10.3657151"><ele>12.5</ele><time>2026-04-19T14:45:55.355Z</time></trkpt><trkpt lat="42.761151" lon="10.3655408"><ele>13.75</ele><time>2026-04-19T14:45:56.357Z</time></trkpt><trkpt lat="42.7611926" lon="10.3653698"><ele>15.0</ele><time>2026-04-19T14:45:57.353Z</time></trkpt><trkpt lat="42.7612435" lon="10.3651876"><ele>15.0</ele><time>2026-04-19T14:45:58.357Z</time></trkpt><trkpt lat="42.7612991" lon="10.3650131"><ele>15.0</ele><time>2026-04-19T14:45:59.355Z</time></trkpt><trkpt lat="42.7613603" lon="10.3648408"><ele>15.0</ele><time>2026-04-19T14:46:00.359Z</time></trkpt><trkpt lat="42.7614183" lon="10.3646695"><ele>15.0</ele><time>2026-04-19T14:46:01.356Z</time></trkpt><trkpt lat="42.7614773" lon="10.3644912"><ele>13.666666666666666</ele><time>2026-04-19T14:46:02.353Z</time></trkpt><trkpt lat="42.7615394" lon="10.3643082"><ele>12.333333333333332</ele><time>2026-04-19T14:46:03.355Z</time></trkpt><trkpt lat="42.7616035" lon="10.3641122"><ele>11.0</ele><time>2026-04-19T14:46:04.351Z</time></trkpt><trkpt lat="42.7616698" lon="10.3639204"><ele>10.75</ele><time>2026-04-19T14:46:05.354Z</time></trkpt><trkpt lat="42.7617396" lon="10.3637374"><ele>10.5</ele><time>2026-04-19T14:46:06.351Z</time></trkpt><trkpt lat="42.7618022" lon="10.3635454"><ele>10.25</ele><time>2026-04-19T14:46:07.351Z</time></trkpt><trkpt lat="42.7618623" lon="10.3633717"><ele>10.0</ele><time>2026-04-19T14:46:08.351Z</time></trkpt><trkpt lat="42.7619244" lon="10.3632031"><ele>10.75</ele><time>2026-04-19T14:46:09.348Z</time></trkpt><trkpt lat="42.761981" lon="10.363033"><ele>11.5</ele><time>2026-04-19T14:46:10.351Z</time></trkpt><trkpt lat="42.7620352" lon="10.3628617"><ele>12.25</ele><time>2026-04-19T14:46:11.353Z</time></trkpt><trkpt lat="42.7620911" lon="10.3626934"><ele>13.0</ele><time>2026-04-19T14:46:12.353Z</time></trkpt><trkpt lat="42.7621433" lon="10.3625278"><ele>13.0</ele><time>2026-04-19T14:46:13.353Z</time></trkpt><trkpt lat="42.7622075" lon="10.362368"><ele>13.0</ele><time>2026-04-19T14:46:14.355Z</time></trkpt><trkpt lat="42.7622684" lon="10.3622131"><ele>13.0</ele><time>2026-04-19T14:46:15.352Z</time></trkpt><trkpt lat="42.7623376" lon="10.3620599"><ele>13.0</ele><time>2026-04-19T14:46:16.353Z</time></trkpt><trkpt lat="42.7624121" lon="10.3619005"><ele>13.0</ele><time>2026-04-19T14:46:17.351Z</time></trkpt><trkpt lat="42.7624854" lon="10.3617368"><ele>13.0</ele><time>2026-04-19T14:46:18.35Z</time></trkpt><trkpt lat="42.7625594" lon="10.3615708"><ele>13.0</ele><time>2026-04-19T14:46:19.357Z</time></trkpt><trkpt lat="42.7626345" lon="10.3614132"><ele>13.0</ele><time>2026-04-19T14:46:20.355Z</time></trkpt><trkpt lat="42.7627137" lon="10.3612558"><ele>14.25</ele><time>2026-04-19T14:46:21.355Z</time></trkpt><trkpt lat="42.7627954" lon="10.3611053"><ele>15.5</ele><time>2026-04-19T14:46:22.359Z</time></trkpt><trkpt lat="42.7628723" lon="10.3609599"><ele>16.75</ele><time>2026-04-19T14:46:23.353Z</time></trkpt><trkpt lat="42.7629544" lon="10.3608191"><ele>18.0</ele><time>2026-04-19T14:46:24.353Z</time></trkpt><trkpt lat="42.763028" lon="10.3606679"><ele>17.0</ele><time>2026-04-19T14:46:25.356Z</time></trkpt><trkpt lat="42.7631037" lon="10.3605157"><ele>16.0</ele><time>2026-04-19T14:46:26.351Z</time></trkpt><trkpt lat="42.7631724" lon="10.3603839"><ele>15.0</ele><time>2026-04-19T14:46:27.352Z</time></trkpt><trkpt lat="42.7632308" lon="10.3602622"><ele>14.0</ele><time>2026-04-19T14:46:28.371Z</time></trkpt><trkpt lat="42.7632807" lon="10.3601549"><ele>14.0</ele><time>2026-04-19T14:46:29.356Z</time></trkpt><trkpt lat="42.7633258" lon="10.3600691"><ele>13.999999999999998</ele><time>2026-04-19T14:46:30.353Z</time></trkpt><trkpt lat="42.7633854" lon="10.3599508"><ele>13.999999999999998</ele><time>2026-04-19T14:46:32.356Z</time></trkpt><trkpt lat="42.7633934" lon="10.3600895"><ele>14.0</ele><time>2026-04-19T14:46:37.356Z</time></trkpt><trkpt lat="42.7633435" lon="10.3601902"><ele>14.0</ele><time>2026-04-19T14:46:38.35Z</time></trkpt><trkpt lat="42.7632774" lon="10.3603147"><ele>14.0</ele><time>2026-04-19T14:46:39.35Z</time></trkpt><trkpt lat="42.7632068" lon="10.3604528"><ele>13.999999999999998</ele><time>2026-04-19T14:46:40.347Z</time></trkpt><trkpt lat="42.7631419" lon="10.3605764"><ele>13.999999999999998</ele><time>2026-04-19T14:46:41.343Z</time></trkpt><trkpt lat="42.7630904" lon="10.3606911"><ele>14.0</ele><time>2026-04-19T14:46:42.352Z</time></trkpt><trkpt lat="42.7630681" lon="10.3608051"><ele>14.0</ele><time>2026-04-19T14:46:43.357Z</time></trkpt><trkpt lat="42.7630916" lon="10.3609064"><ele>14.666666666666668</ele><time>2026-04-19T14:46:44.358Z</time></trkpt><trkpt lat="42.7631463" lon="10.3609969"><ele>15.333333333333334</ele><time>2026-04-19T14:46:45.355Z</time></trkpt><trkpt lat="42.763222" lon="10.3610791"><ele>16.0</ele><time>2026-04-19T14:46:46.357Z</time></trkpt><trkpt lat="42.763313" lon="10.361144"><ele>16.666666666666668</ele><time>2026-04-19T14:46:47.351Z</time></trkpt><trkpt lat="42.7633968" lon="10.3611724"><ele>17.333333333333332</ele><time>2026-04-19T14:46:48.352Z</time></trkpt><trkpt lat="42.7634652" lon="10.3611749"><ele>18.0</ele><time>2026-04-19T14:46:49.354Z</time></trkpt><trkpt lat="42.7635281" lon="10.3611822"><ele>21.0</ele><time>2026-04-19T14:46:50.357Z</time></trkpt><trkpt lat="42.763644" lon="10.3612494"><ele>24.0</ele><time>2026-04-19T14:46:52.351Z</time></trkpt><trkpt lat="42.7637247" lon="10.3613222"><ele>26.999999999999996</ele><time>2026-04-19T14:46:54.357Z</time></trkpt><trkpt lat="42.7638102" lon="10.3613196"><ele>30.0</ele><time>2026-04-19T14:46:57.355Z</time></trkpt><trkpt lat="42.7638862" lon="10.3612685"><ele>33.0</ele><time>2026-04-19T14:46:59.352Z</time></trkpt><trkpt lat="42.7639687" lon="10.3613064"><ele>33.0</ele><time>2026-04-19T14:47:01.352Z</time></trkpt><trkpt lat="42.7640388" lon="10.3613338"><ele>33.0</ele><time>2026-04-19T14:47:03.353Z</time></trkpt><trkpt lat="42.7640792" lon="10.3612662"><ele>33.0</ele><time>2026-04-19T14:47:09.352Z</time></trkpt></trkseg></trk></gpx>